<?xml version="1.0" encoding="UTF-8" standalone="no" ?>
<gpx xmlns="http://www.topografix.com/GPX/1/1" xmlns:xsi="http://www.w3.org/2001/XMLSchema-instance" xsi:schemaLocation="http://www.topografix.com/GPX/1/1 http://www.topografix.com/GPX/1/1/gpx.xsd" version="1.1" creator="VisuGPX - https://www.visugpx.com">
  <metadata>
    <name>30Km Tredion</name>
  </metadata>
  <trk>
    <name><![CDATA[Plaudren Cyclisme sur route]]></name>
    <extensions>
      <line xmlns="http://www.topografix.com/GPX/gpx_style/0/2">
        <color>0000FF</color>
        <width>4</width>
      </line>
    </extensions>
    <trkseg>
      <trkpt lat="47.78904" lon="-2.69223">
        <ele>105</ele>
        <time>2025-05-15T11:04:28.000Z</time>
      </trkpt>
      <trkpt lat="47.78905" lon="-2.69223">
        <ele>155</ele>
        <time>2025-05-15T11:04:29.000Z</time>
      </trkpt>
      <trkpt lat="47.78911" lon="-2.6922">
        <ele>162.60000610352</ele>
        <time>2025-05-15T11:04:38.000Z</time>
      </trkpt>
      <trkpt lat="47.78911" lon="-2.69219">
        <ele>162.60000610352</ele>
        <time>2025-05-15T11:04:39.000Z</time>
      </trkpt>
      <trkpt lat="47.78911" lon="-2.69216">
        <ele>162.60000610352</ele>
        <time>2025-05-15T11:04:40.000Z</time>
      </trkpt>
      <trkpt lat="47.78909" lon="-2.69212">
        <ele>162.60000610352</ele>
        <time>2025-05-15T11:04:42.000Z</time>
      </trkpt>
      <trkpt lat="47.78908" lon="-2.6921">
        <ele>162.39999389648</ele>
        <time>2025-05-15T11:04:43.000Z</time>
      </trkpt>
      <trkpt lat="47.78905" lon="-2.69206">
        <ele>162.60000610352</ele>
        <time>2025-05-15T11:04:45.000Z</time>
      </trkpt>
      <trkpt lat="47.78899" lon="-2.69205">
        <ele>162.19999694824</ele>
        <time>2025-05-15T11:04:47.000Z</time>
      </trkpt>
      <trkpt lat="47.78894" lon="-2.69209">
        <ele>162</ele>
        <time>2025-05-15T11:04:49.000Z</time>
      </trkpt>
      <trkpt lat="47.7889" lon="-2.69212">
        <ele>162</ele>
        <time>2025-05-15T11:04:50.000Z</time>
      </trkpt>
      <trkpt lat="47.78888" lon="-2.69214">
        <ele>161.80000305176</ele>
        <time>2025-05-15T11:04:51.000Z</time>
      </trkpt>
      <trkpt lat="47.78884" lon="-2.69218">
        <ele>161.60000610352</ele>
        <time>2025-05-15T11:04:52.000Z</time>
      </trkpt>
      <trkpt lat="47.78881" lon="-2.69222">
        <ele>161.60000610352</ele>
        <time>2025-05-15T11:04:53.000Z</time>
      </trkpt>
      <trkpt lat="47.78877" lon="-2.69227">
        <ele>161.19999694824</ele>
        <time>2025-05-15T11:04:54.000Z</time>
      </trkpt>
      <trkpt lat="47.78875" lon="-2.6923">
        <ele>161.19999694824</ele>
        <time>2025-05-15T11:04:55.000Z</time>
      </trkpt>
      <trkpt lat="47.7887" lon="-2.69236">
        <ele>161</ele>
        <time>2025-05-15T11:04:56.000Z</time>
      </trkpt>
      <trkpt lat="47.78867" lon="-2.69241">
        <ele>161</ele>
        <time>2025-05-15T11:04:57.000Z</time>
      </trkpt>
      <trkpt lat="47.78865" lon="-2.69246">
        <ele>160.60000610352</ele>
        <time>2025-05-15T11:04:58.000Z</time>
      </trkpt>
      <trkpt lat="47.78864" lon="-2.69253">
        <ele>160.60000610352</ele>
        <time>2025-05-15T11:04:59.000Z</time>
      </trkpt>
      <trkpt lat="47.78864" lon="-2.6926">
        <ele>160.39999389648</ele>
        <time>2025-05-15T11:05:00.000Z</time>
      </trkpt>
      <trkpt lat="47.78865" lon="-2.69265">
        <ele>160.39999389648</ele>
        <time>2025-05-15T11:05:01.000Z</time>
      </trkpt>
      <trkpt lat="47.78868" lon="-2.6927">
        <ele>160.60000610352</ele>
        <time>2025-05-15T11:05:02.000Z</time>
      </trkpt>
      <trkpt lat="47.7887" lon="-2.69274">
        <ele>160.60000610352</ele>
        <time>2025-05-15T11:05:03.000Z</time>
      </trkpt>
      <trkpt lat="47.78872" lon="-2.69278">
        <ele>160.60000610352</ele>
        <time>2025-05-15T11:05:04.000Z</time>
      </trkpt>
      <trkpt lat="47.78874" lon="-2.69283">
        <ele>160.39999389648</ele>
        <time>2025-05-15T11:05:05.000Z</time>
      </trkpt>
      <trkpt lat="47.78876" lon="-2.69287">
        <ele>160.60000610352</ele>
        <time>2025-05-15T11:05:06.000Z</time>
      </trkpt>
      <trkpt lat="47.78879" lon="-2.69291">
        <ele>160.60000610352</ele>
        <time>2025-05-15T11:05:07.000Z</time>
      </trkpt>
      <trkpt lat="47.7888" lon="-2.69294">
        <ele>160.60000610352</ele>
        <time>2025-05-15T11:05:08.000Z</time>
      </trkpt>
      <trkpt lat="47.78881" lon="-2.69299">
        <ele>160.80000305176</ele>
        <time>2025-05-15T11:05:09.000Z</time>
      </trkpt>
      <trkpt lat="47.78882" lon="-2.69302">
        <ele>161</ele>
        <time>2025-05-15T11:05:10.000Z</time>
      </trkpt>
      <trkpt lat="47.78884" lon="-2.69306">
        <ele>161</ele>
        <time>2025-05-15T11:05:11.000Z</time>
      </trkpt>
      <trkpt lat="47.78885" lon="-2.69309">
        <ele>161.80000305176</ele>
        <time>2025-05-15T11:05:12.000Z</time>
      </trkpt>
      <trkpt lat="47.78888" lon="-2.69317">
        <ele>162.19999694824</ele>
        <time>2025-05-15T11:05:14.000Z</time>
      </trkpt>
      <trkpt lat="47.78894" lon="-2.69334">
        <ele>162.39999389648</ele>
        <time>2025-05-15T11:05:18.000Z</time>
      </trkpt>
      <trkpt lat="47.78899" lon="-2.69345">
        <ele>162.60000610352</ele>
        <time>2025-05-15T11:05:21.000Z</time>
      </trkpt>
      <trkpt lat="47.789" lon="-2.69349">
        <ele>162.60000610352</ele>
        <time>2025-05-15T11:05:22.000Z</time>
      </trkpt>
      <trkpt lat="47.78908" lon="-2.69369">
        <ele>163.39999389648</ele>
        <time>2025-05-15T11:05:27.000Z</time>
      </trkpt>
      <trkpt lat="47.78911" lon="-2.69377">
        <ele>163.60000610352</ele>
        <time>2025-05-15T11:05:29.000Z</time>
      </trkpt>
      <trkpt lat="47.78915" lon="-2.69389">
        <ele>163.80000305176</ele>
        <time>2025-05-15T11:05:32.000Z</time>
      </trkpt>
      <trkpt lat="47.78923" lon="-2.69408">
        <ele>164.39999389648</ele>
        <time>2025-05-15T11:05:37.000Z</time>
      </trkpt>
      <trkpt lat="47.78924" lon="-2.69412">
        <ele>164.60000610352</ele>
        <time>2025-05-15T11:05:38.000Z</time>
      </trkpt>
      <trkpt lat="47.78926" lon="-2.69416">
        <ele>164.80000305176</ele>
        <time>2025-05-15T11:05:39.000Z</time>
      </trkpt>
      <trkpt lat="47.78928" lon="-2.6942">
        <ele>164.80000305176</ele>
        <time>2025-05-15T11:05:40.000Z</time>
      </trkpt>
      <trkpt lat="47.78929" lon="-2.69423">
        <ele>165</ele>
        <time>2025-05-15T11:05:41.000Z</time>
      </trkpt>
      <trkpt lat="47.7893" lon="-2.69427">
        <ele>165</ele>
        <time>2025-05-15T11:05:42.000Z</time>
      </trkpt>
      <trkpt lat="47.78932" lon="-2.6943">
        <ele>165.19999694824</ele>
        <time>2025-05-15T11:05:43.000Z</time>
      </trkpt>
      <trkpt lat="47.78933" lon="-2.69433">
        <ele>165.19999694824</ele>
        <time>2025-05-15T11:05:44.000Z</time>
      </trkpt>
      <trkpt lat="47.78943" lon="-2.6946">
        <ele>165.80000305176</ele>
        <time>2025-05-15T11:05:51.000Z</time>
      </trkpt>
      <trkpt lat="47.78944" lon="-2.69464">
        <ele>165.80000305176</ele>
        <time>2025-05-15T11:05:52.000Z</time>
      </trkpt>
      <trkpt lat="47.78945" lon="-2.69467">
        <ele>166</ele>
        <time>2025-05-15T11:05:53.000Z</time>
      </trkpt>
      <trkpt lat="47.78947" lon="-2.69471">
        <ele>166.19999694824</ele>
        <time>2025-05-15T11:05:54.000Z</time>
      </trkpt>
      <trkpt lat="47.78948" lon="-2.69474">
        <ele>166.80000305176</ele>
        <time>2025-05-15T11:05:55.000Z</time>
      </trkpt>
      <trkpt lat="47.7895" lon="-2.69479">
        <ele>167</ele>
        <time>2025-05-15T11:05:56.000Z</time>
      </trkpt>
      <trkpt lat="47.78955" lon="-2.69489">
        <ele>167.39999389648</ele>
        <time>2025-05-15T11:05:59.000Z</time>
      </trkpt>
      <trkpt lat="47.78956" lon="-2.69493">
        <ele>167.39999389648</ele>
        <time>2025-05-15T11:06:00.000Z</time>
      </trkpt>
      <trkpt lat="47.78958" lon="-2.69497">
        <ele>167.60000610352</ele>
        <time>2025-05-15T11:06:01.000Z</time>
      </trkpt>
      <trkpt lat="47.78959" lon="-2.69499">
        <ele>167.80000305176</ele>
        <time>2025-05-15T11:06:02.000Z</time>
      </trkpt>
      <trkpt lat="47.7896" lon="-2.69503">
        <ele>167.80000305176</ele>
        <time>2025-05-15T11:06:03.000Z</time>
      </trkpt>
      <trkpt lat="47.78962" lon="-2.69506">
        <ele>168.19999694824</ele>
        <time>2025-05-15T11:06:04.000Z</time>
      </trkpt>
      <trkpt lat="47.78963" lon="-2.69509">
        <ele>168.19999694824</ele>
        <time>2025-05-15T11:06:05.000Z</time>
      </trkpt>
      <trkpt lat="47.78964" lon="-2.69513">
        <ele>168.19999694824</ele>
        <time>2025-05-15T11:06:06.000Z</time>
      </trkpt>
      <trkpt lat="47.78966" lon="-2.69516">
        <ele>168.19999694824</ele>
        <time>2025-05-15T11:06:07.000Z</time>
      </trkpt>
      <trkpt lat="47.78967" lon="-2.6952">
        <ele>168.39999389648</ele>
        <time>2025-05-15T11:06:08.000Z</time>
      </trkpt>
      <trkpt lat="47.78968" lon="-2.69523">
        <ele>168.39999389648</ele>
        <time>2025-05-15T11:06:09.000Z</time>
      </trkpt>
      <trkpt lat="47.7897" lon="-2.69527">
        <ele>168.60000610352</ele>
        <time>2025-05-15T11:06:10.000Z</time>
      </trkpt>
      <trkpt lat="47.78971" lon="-2.69531">
        <ele>168.60000610352</ele>
        <time>2025-05-15T11:06:11.000Z</time>
      </trkpt>
      <trkpt lat="47.78973" lon="-2.69534">
        <ele>168.80000305176</ele>
        <time>2025-05-15T11:06:12.000Z</time>
      </trkpt>
      <trkpt lat="47.78975" lon="-2.69537">
        <ele>169</ele>
        <time>2025-05-15T11:06:13.000Z</time>
      </trkpt>
      <trkpt lat="47.78977" lon="-2.69538">
        <ele>169</ele>
        <time>2025-05-15T11:06:14.000Z</time>
      </trkpt>
      <trkpt lat="47.7898" lon="-2.69539">
        <ele>169.39999389648</ele>
        <time>2025-05-15T11:06:15.000Z</time>
      </trkpt>
      <trkpt lat="47.78983" lon="-2.69538">
        <ele>169.60000610352</ele>
        <time>2025-05-15T11:06:16.000Z</time>
      </trkpt>
      <trkpt lat="47.78985" lon="-2.69538">
        <ele>169.39999389648</ele>
        <time>2025-05-15T11:06:17.000Z</time>
      </trkpt>
      <trkpt lat="47.78988" lon="-2.69538">
        <ele>169.60000610352</ele>
        <time>2025-05-15T11:06:18.000Z</time>
      </trkpt>
      <trkpt lat="47.78991" lon="-2.69538">
        <ele>169.80000305176</ele>
        <time>2025-05-15T11:06:19.000Z</time>
      </trkpt>
      <trkpt lat="47.78993" lon="-2.69538">
        <ele>169.80000305176</ele>
        <time>2025-05-15T11:06:20.000Z</time>
      </trkpt>
      <trkpt lat="47.78996" lon="-2.69538">
        <ele>169.80000305176</ele>
        <time>2025-05-15T11:06:21.000Z</time>
      </trkpt>
      <trkpt lat="47.78998" lon="-2.69538">
        <ele>169.80000305176</ele>
        <time>2025-05-15T11:06:22.000Z</time>
      </trkpt>
      <trkpt lat="47.79001" lon="-2.69539">
        <ele>169.80000305176</ele>
        <time>2025-05-15T11:06:23.000Z</time>
      </trkpt>
      <trkpt lat="47.79003" lon="-2.69539">
        <ele>169.80000305176</ele>
        <time>2025-05-15T11:06:24.000Z</time>
      </trkpt>
      <trkpt lat="47.79005" lon="-2.6954">
        <ele>170</ele>
        <time>2025-05-15T11:06:25.000Z</time>
      </trkpt>
      <trkpt lat="47.79008" lon="-2.6954">
        <ele>170</ele>
        <time>2025-05-15T11:06:26.000Z</time>
      </trkpt>
      <trkpt lat="47.7901" lon="-2.6954">
        <ele>170</ele>
        <time>2025-05-15T11:06:27.000Z</time>
      </trkpt>
      <trkpt lat="47.79012" lon="-2.6954">
        <ele>170.19999694824</ele>
        <time>2025-05-15T11:06:28.000Z</time>
      </trkpt>
      <trkpt lat="47.79014" lon="-2.6954">
        <ele>170.60000610352</ele>
        <time>2025-05-15T11:06:29.000Z</time>
      </trkpt>
      <trkpt lat="47.79017" lon="-2.6954">
        <ele>170.80000305176</ele>
        <time>2025-05-15T11:06:30.000Z</time>
      </trkpt>
      <trkpt lat="47.79025" lon="-2.69542">
        <ele>171.80000305176</ele>
        <time>2025-05-15T11:06:33.000Z</time>
      </trkpt>
      <trkpt lat="47.79027" lon="-2.69543">
        <ele>172</ele>
        <time>2025-05-15T11:06:34.000Z</time>
      </trkpt>
      <trkpt lat="47.7903" lon="-2.69543">
        <ele>172</ele>
        <time>2025-05-15T11:06:35.000Z</time>
      </trkpt>
      <trkpt lat="47.79033" lon="-2.69543">
        <ele>172.19999694824</ele>
        <time>2025-05-15T11:06:36.000Z</time>
      </trkpt>
      <trkpt lat="47.79035" lon="-2.69545">
        <ele>172.19999694824</ele>
        <time>2025-05-15T11:06:37.000Z</time>
      </trkpt>
      <trkpt lat="47.79038" lon="-2.69546">
        <ele>172.19999694824</ele>
        <time>2025-05-15T11:06:38.000Z</time>
      </trkpt>
      <trkpt lat="47.7904" lon="-2.69547">
        <ele>172.19999694824</ele>
        <time>2025-05-15T11:06:39.000Z</time>
      </trkpt>
      <trkpt lat="47.79043" lon="-2.69548">
        <ele>172.19999694824</ele>
        <time>2025-05-15T11:06:40.000Z</time>
      </trkpt>
      <trkpt lat="47.79046" lon="-2.69548">
        <ele>172.60000610352</ele>
        <time>2025-05-15T11:06:41.000Z</time>
      </trkpt>
      <trkpt lat="47.79048" lon="-2.69549">
        <ele>172.60000610352</ele>
        <time>2025-05-15T11:06:42.000Z</time>
      </trkpt>
      <trkpt lat="47.79051" lon="-2.6955">
        <ele>172.60000610352</ele>
        <time>2025-05-15T11:06:43.000Z</time>
      </trkpt>
      <trkpt lat="47.79054" lon="-2.69551">
        <ele>172.80000305176</ele>
        <time>2025-05-15T11:06:44.000Z</time>
      </trkpt>
      <trkpt lat="47.79056" lon="-2.69552">
        <ele>172.80000305176</ele>
        <time>2025-05-15T11:06:45.000Z</time>
      </trkpt>
      <trkpt lat="47.79059" lon="-2.69552">
        <ele>173</ele>
        <time>2025-05-15T11:06:46.000Z</time>
      </trkpt>
      <trkpt lat="47.79061" lon="-2.69552">
        <ele>173.19999694824</ele>
        <time>2025-05-15T11:06:47.000Z</time>
      </trkpt>
      <trkpt lat="47.79063" lon="-2.69552">
        <ele>173.19999694824</ele>
        <time>2025-05-15T11:06:48.000Z</time>
      </trkpt>
      <trkpt lat="47.79066" lon="-2.69553">
        <ele>173.39999389648</ele>
        <time>2025-05-15T11:06:49.000Z</time>
      </trkpt>
      <trkpt lat="47.79068" lon="-2.69553">
        <ele>173.39999389648</ele>
        <time>2025-05-15T11:06:50.000Z</time>
      </trkpt>
      <trkpt lat="47.79071" lon="-2.69554">
        <ele>173.60000610352</ele>
        <time>2025-05-15T11:06:51.000Z</time>
      </trkpt>
      <trkpt lat="47.79074" lon="-2.69555">
        <ele>173.80000305176</ele>
        <time>2025-05-15T11:06:52.000Z</time>
      </trkpt>
      <trkpt lat="47.79077" lon="-2.69555">
        <ele>173.80000305176</ele>
        <time>2025-05-15T11:06:53.000Z</time>
      </trkpt>
      <trkpt lat="47.7908" lon="-2.69556">
        <ele>173.80000305176</ele>
        <time>2025-05-15T11:06:54.000Z</time>
      </trkpt>
      <trkpt lat="47.79083" lon="-2.69557">
        <ele>174</ele>
        <time>2025-05-15T11:06:55.000Z</time>
      </trkpt>
      <trkpt lat="47.79086" lon="-2.69557">
        <ele>174</ele>
        <time>2025-05-15T11:06:56.000Z</time>
      </trkpt>
      <trkpt lat="47.79089" lon="-2.69558">
        <ele>174</ele>
        <time>2025-05-15T11:06:57.000Z</time>
      </trkpt>
      <trkpt lat="47.79092" lon="-2.69558">
        <ele>174.19999694824</ele>
        <time>2025-05-15T11:06:58.000Z</time>
      </trkpt>
      <trkpt lat="47.79095" lon="-2.69559">
        <ele>174.19999694824</ele>
        <time>2025-05-15T11:06:59.000Z</time>
      </trkpt>
      <trkpt lat="47.79098" lon="-2.69559">
        <ele>174.19999694824</ele>
        <time>2025-05-15T11:07:00.000Z</time>
      </trkpt>
      <trkpt lat="47.791" lon="-2.69558">
        <ele>174.19999694824</ele>
        <time>2025-05-15T11:07:01.000Z</time>
      </trkpt>
      <trkpt lat="47.79105" lon="-2.69542">
        <ele>174.39999389648</ele>
        <time>2025-05-15T11:07:05.000Z</time>
      </trkpt>
      <trkpt lat="47.79105" lon="-2.69537">
        <ele>174.39999389648</ele>
        <time>2025-05-15T11:07:06.000Z</time>
      </trkpt>
      <trkpt lat="47.79106" lon="-2.69532">
        <ele>174.39999389648</ele>
        <time>2025-05-15T11:07:07.000Z</time>
      </trkpt>
      <trkpt lat="47.79108" lon="-2.69524">
        <ele>174.39999389648</ele>
        <time>2025-05-15T11:07:09.000Z</time>
      </trkpt>
      <trkpt lat="47.7911" lon="-2.69523">
        <ele>174.60000610352</ele>
        <time>2025-05-15T11:07:10.000Z</time>
      </trkpt>
      <trkpt lat="47.79112" lon="-2.69522">
        <ele>174.60000610352</ele>
        <time>2025-05-15T11:07:11.000Z</time>
      </trkpt>
      <trkpt lat="47.79115" lon="-2.69522">
        <ele>174.60000610352</ele>
        <time>2025-05-15T11:07:12.000Z</time>
      </trkpt>
      <trkpt lat="47.79131" lon="-2.69523">
        <ele>174.80000305176</ele>
        <time>2025-05-15T11:07:16.000Z</time>
      </trkpt>
      <trkpt lat="47.79134" lon="-2.69522">
        <ele>174.80000305176</ele>
        <time>2025-05-15T11:07:17.000Z</time>
      </trkpt>
      <trkpt lat="47.79137" lon="-2.69521">
        <ele>174.80000305176</ele>
        <time>2025-05-15T11:07:18.000Z</time>
      </trkpt>
      <trkpt lat="47.79141" lon="-2.6952">
        <ele>174.80000305176</ele>
        <time>2025-05-15T11:07:19.000Z</time>
      </trkpt>
      <trkpt lat="47.79149" lon="-2.69517">
        <ele>174.39999389648</ele>
        <time>2025-05-15T11:07:21.000Z</time>
      </trkpt>
      <trkpt lat="47.79154" lon="-2.69515">
        <ele>174.19999694824</ele>
        <time>2025-05-15T11:07:22.000Z</time>
      </trkpt>
      <trkpt lat="47.79161" lon="-2.69513">
        <ele>174</ele>
        <time>2025-05-15T11:07:23.000Z</time>
      </trkpt>
      <trkpt lat="47.79172" lon="-2.69512">
        <ele>173.80000305176</ele>
        <time>2025-05-15T11:07:25.000Z</time>
      </trkpt>
      <trkpt lat="47.79184" lon="-2.69508">
        <ele>173</ele>
        <time>2025-05-15T11:07:27.000Z</time>
      </trkpt>
      <trkpt lat="47.792" lon="-2.69503">
        <ele>172.80000305176</ele>
        <time>2025-05-15T11:07:29.000Z</time>
      </trkpt>
      <trkpt lat="47.79214" lon="-2.695">
        <ele>171.80000305176</ele>
        <time>2025-05-15T11:07:31.000Z</time>
      </trkpt>
      <trkpt lat="47.79221" lon="-2.695">
        <ele>171.19999694824</ele>
        <time>2025-05-15T11:07:32.000Z</time>
      </trkpt>
      <trkpt lat="47.79227" lon="-2.69499">
        <ele>171</ele>
        <time>2025-05-15T11:07:33.000Z</time>
      </trkpt>
      <trkpt lat="47.79231" lon="-2.69497">
        <ele>169.60000610352</ele>
        <time>2025-05-15T11:07:34.000Z</time>
      </trkpt>
      <trkpt lat="47.79235" lon="-2.69494">
        <ele>169.19999694824</ele>
        <time>2025-05-15T11:07:35.000Z</time>
      </trkpt>
      <trkpt lat="47.79239" lon="-2.69494">
        <ele>168.80000305176</ele>
        <time>2025-05-15T11:07:36.000Z</time>
      </trkpt>
      <trkpt lat="47.79243" lon="-2.69494">
        <ele>168.60000610352</ele>
        <time>2025-05-15T11:07:37.000Z</time>
      </trkpt>
      <trkpt lat="47.79246" lon="-2.69494">
        <ele>167.60000610352</ele>
        <time>2025-05-15T11:07:38.000Z</time>
      </trkpt>
      <trkpt lat="47.79248" lon="-2.69494">
        <ele>166.80000305176</ele>
        <time>2025-05-15T11:07:39.000Z</time>
      </trkpt>
      <trkpt lat="47.7925" lon="-2.69494">
        <ele>166.60000610352</ele>
        <time>2025-05-15T11:07:40.000Z</time>
      </trkpt>
      <trkpt lat="47.79253" lon="-2.69494">
        <ele>165.39999389648</ele>
        <time>2025-05-15T11:07:41.000Z</time>
      </trkpt>
      <trkpt lat="47.79255" lon="-2.69496">
        <ele>165.19999694824</ele>
        <time>2025-05-15T11:07:42.000Z</time>
      </trkpt>
      <trkpt lat="47.79256" lon="-2.69497">
        <ele>164.80000305176</ele>
        <time>2025-05-15T11:07:43.000Z</time>
      </trkpt>
      <trkpt lat="47.79257" lon="-2.69498">
        <ele>164.60000610352</ele>
        <time>2025-05-15T11:07:44.000Z</time>
      </trkpt>
      <trkpt lat="47.79258" lon="-2.695">
        <ele>164.39999389648</ele>
        <time>2025-05-15T11:07:45.000Z</time>
      </trkpt>
      <trkpt lat="47.7926" lon="-2.695">
        <ele>164.39999389648</ele>
        <time>2025-05-15T11:07:46.000Z</time>
      </trkpt>
      <trkpt lat="47.79265" lon="-2.69498">
        <ele>164</ele>
        <time>2025-05-15T11:07:48.000Z</time>
      </trkpt>
      <trkpt lat="47.79267" lon="-2.69497">
        <ele>164</ele>
        <time>2025-05-15T11:07:49.000Z</time>
      </trkpt>
      <trkpt lat="47.7927" lon="-2.69495">
        <ele>163.80000305176</ele>
        <time>2025-05-15T11:07:50.000Z</time>
      </trkpt>
      <trkpt lat="47.79281" lon="-2.69492">
        <ele>163.39999389648</ele>
        <time>2025-05-15T11:07:53.000Z</time>
      </trkpt>
      <trkpt lat="47.79286" lon="-2.69493">
        <ele>163</ele>
        <time>2025-05-15T11:07:55.000Z</time>
      </trkpt>
      <trkpt lat="47.79291" lon="-2.69492">
        <ele>163</ele>
        <time>2025-05-15T11:07:56.000Z</time>
      </trkpt>
      <trkpt lat="47.793" lon="-2.69489">
        <ele>162.39999389648</ele>
        <time>2025-05-15T11:07:58.000Z</time>
      </trkpt>
      <trkpt lat="47.79304" lon="-2.69489">
        <ele>162</ele>
        <time>2025-05-15T11:07:59.000Z</time>
      </trkpt>
      <trkpt lat="47.79311" lon="-2.69488">
        <ele>161.80000305176</ele>
        <time>2025-05-15T11:08:00.000Z</time>
      </trkpt>
      <trkpt lat="47.79317" lon="-2.69486">
        <ele>161.39999389648</ele>
        <time>2025-05-15T11:08:01.000Z</time>
      </trkpt>
      <trkpt lat="47.79322" lon="-2.69486">
        <ele>161.19999694824</ele>
        <time>2025-05-15T11:08:02.000Z</time>
      </trkpt>
      <trkpt lat="47.79328" lon="-2.69484">
        <ele>160.39999389648</ele>
        <time>2025-05-15T11:08:03.000Z</time>
      </trkpt>
      <trkpt lat="47.79332" lon="-2.69481">
        <ele>160</ele>
        <time>2025-05-15T11:08:04.000Z</time>
      </trkpt>
      <trkpt lat="47.79337" lon="-2.69477">
        <ele>159.80000305176</ele>
        <time>2025-05-15T11:08:05.000Z</time>
      </trkpt>
      <trkpt lat="47.79342" lon="-2.69473">
        <ele>159.60000610352</ele>
        <time>2025-05-15T11:08:06.000Z</time>
      </trkpt>
      <trkpt lat="47.79346" lon="-2.69472">
        <ele>159.39999389648</ele>
        <time>2025-05-15T11:08:07.000Z</time>
      </trkpt>
      <trkpt lat="47.79356" lon="-2.69474">
        <ele>159.19999694824</ele>
        <time>2025-05-15T11:08:09.000Z</time>
      </trkpt>
      <trkpt lat="47.79362" lon="-2.69473">
        <ele>159</ele>
        <time>2025-05-15T11:08:10.000Z</time>
      </trkpt>
      <trkpt lat="47.79368" lon="-2.69472">
        <ele>159</ele>
        <time>2025-05-15T11:08:11.000Z</time>
      </trkpt>
      <trkpt lat="47.79373" lon="-2.69472">
        <ele>159</ele>
        <time>2025-05-15T11:08:12.000Z</time>
      </trkpt>
      <trkpt lat="47.79384" lon="-2.69477">
        <ele>158.80000305176</ele>
        <time>2025-05-15T11:08:14.000Z</time>
      </trkpt>
      <trkpt lat="47.7939" lon="-2.69478">
        <ele>158.60000610352</ele>
        <time>2025-05-15T11:08:15.000Z</time>
      </trkpt>
      <trkpt lat="47.79395" lon="-2.69479">
        <ele>158.39999389648</ele>
        <time>2025-05-15T11:08:16.000Z</time>
      </trkpt>
      <trkpt lat="47.79401" lon="-2.69479">
        <ele>157.80000305176</ele>
        <time>2025-05-15T11:08:17.000Z</time>
      </trkpt>
      <trkpt lat="47.79406" lon="-2.69477">
        <ele>157.60000610352</ele>
        <time>2025-05-15T11:08:18.000Z</time>
      </trkpt>
      <trkpt lat="47.79409" lon="-2.69475">
        <ele>157</ele>
        <time>2025-05-15T11:08:19.000Z</time>
      </trkpt>
      <trkpt lat="47.79412" lon="-2.69472">
        <ele>156.80000305176</ele>
        <time>2025-05-15T11:08:20.000Z</time>
      </trkpt>
      <trkpt lat="47.79416" lon="-2.69471">
        <ele>156.60000610352</ele>
        <time>2025-05-15T11:08:21.000Z</time>
      </trkpt>
      <trkpt lat="47.7942" lon="-2.6947">
        <ele>156.19999694824</ele>
        <time>2025-05-15T11:08:22.000Z</time>
      </trkpt>
      <trkpt lat="47.79434" lon="-2.69463">
        <ele>155.60000610352</ele>
        <time>2025-05-15T11:08:26.000Z</time>
      </trkpt>
      <trkpt lat="47.79437" lon="-2.6946">
        <ele>155.39999389648</ele>
        <time>2025-05-15T11:08:27.000Z</time>
      </trkpt>
      <trkpt lat="47.7944" lon="-2.69458">
        <ele>155.39999389648</ele>
        <time>2025-05-15T11:08:28.000Z</time>
      </trkpt>
      <trkpt lat="47.79442" lon="-2.69457">
        <ele>155.39999389648</ele>
        <time>2025-05-15T11:08:29.000Z</time>
      </trkpt>
      <trkpt lat="47.79445" lon="-2.69456">
        <ele>155.19999694824</ele>
        <time>2025-05-15T11:08:30.000Z</time>
      </trkpt>
      <trkpt lat="47.79448" lon="-2.69456">
        <ele>155.19999694824</ele>
        <time>2025-05-15T11:08:31.000Z</time>
      </trkpt>
      <trkpt lat="47.79451" lon="-2.69455">
        <ele>155.19999694824</ele>
        <time>2025-05-15T11:08:32.000Z</time>
      </trkpt>
      <trkpt lat="47.79453" lon="-2.69455">
        <ele>154.80000305176</ele>
        <time>2025-05-15T11:08:33.000Z</time>
      </trkpt>
      <trkpt lat="47.79455" lon="-2.69454">
        <ele>155</ele>
        <time>2025-05-15T11:08:34.000Z</time>
      </trkpt>
      <trkpt lat="47.79465" lon="-2.69455">
        <ele>154.39999389648</ele>
        <time>2025-05-15T11:08:37.000Z</time>
      </trkpt>
      <trkpt lat="47.79469" lon="-2.69455">
        <ele>154.39999389648</ele>
        <time>2025-05-15T11:08:38.000Z</time>
      </trkpt>
      <trkpt lat="47.7948" lon="-2.69452">
        <ele>153.80000305176</ele>
        <time>2025-05-15T11:08:41.000Z</time>
      </trkpt>
      <trkpt lat="47.79483" lon="-2.69449">
        <ele>153.39999389648</ele>
        <time>2025-05-15T11:08:42.000Z</time>
      </trkpt>
      <trkpt lat="47.79486" lon="-2.69447">
        <ele>153.19999694824</ele>
        <time>2025-05-15T11:08:43.000Z</time>
      </trkpt>
      <trkpt lat="47.79489" lon="-2.69446">
        <ele>152.80000305176</ele>
        <time>2025-05-15T11:08:44.000Z</time>
      </trkpt>
      <trkpt lat="47.79491" lon="-2.69445">
        <ele>152.60000610352</ele>
        <time>2025-05-15T11:08:45.000Z</time>
      </trkpt>
      <trkpt lat="47.79494" lon="-2.69444">
        <ele>152.60000610352</ele>
        <time>2025-05-15T11:08:46.000Z</time>
      </trkpt>
      <trkpt lat="47.79497" lon="-2.69443">
        <ele>152.19999694824</ele>
        <time>2025-05-15T11:08:47.000Z</time>
      </trkpt>
      <trkpt lat="47.79499" lon="-2.69443">
        <ele>152.39999389648</ele>
        <time>2025-05-15T11:08:48.000Z</time>
      </trkpt>
      <trkpt lat="47.79502" lon="-2.69442">
        <ele>152.39999389648</ele>
        <time>2025-05-15T11:08:49.000Z</time>
      </trkpt>
      <trkpt lat="47.79512" lon="-2.69444">
        <ele>152.19999694824</ele>
        <time>2025-05-15T11:08:52.000Z</time>
      </trkpt>
      <trkpt lat="47.79524" lon="-2.69442">
        <ele>152</ele>
        <time>2025-05-15T11:08:55.000Z</time>
      </trkpt>
      <trkpt lat="47.79527" lon="-2.69441">
        <ele>151.39999389648</ele>
        <time>2025-05-15T11:08:56.000Z</time>
      </trkpt>
      <trkpt lat="47.79529" lon="-2.6944">
        <ele>151.19999694824</ele>
        <time>2025-05-15T11:08:57.000Z</time>
      </trkpt>
      <trkpt lat="47.79531" lon="-2.69437">
        <ele>151</ele>
        <time>2025-05-15T11:08:58.000Z</time>
      </trkpt>
      <trkpt lat="47.79532" lon="-2.69434">
        <ele>151</ele>
        <time>2025-05-15T11:08:59.000Z</time>
      </trkpt>
      <trkpt lat="47.79532" lon="-2.69431">
        <ele>151</ele>
        <time>2025-05-15T11:09:00.000Z</time>
      </trkpt>
      <trkpt lat="47.79532" lon="-2.69428">
        <ele>150.80000305176</ele>
        <time>2025-05-15T11:09:01.000Z</time>
      </trkpt>
      <trkpt lat="47.79532" lon="-2.69426">
        <ele>150.80000305176</ele>
        <time>2025-05-15T11:09:02.000Z</time>
      </trkpt>
      <trkpt lat="47.79531" lon="-2.69423">
        <ele>151</ele>
        <time>2025-05-15T11:09:03.000Z</time>
      </trkpt>
      <trkpt lat="47.79531" lon="-2.6942">
        <ele>151.19999694824</ele>
        <time>2025-05-15T11:09:04.000Z</time>
      </trkpt>
      <trkpt lat="47.79528" lon="-2.69401">
        <ele>152.39999389648</ele>
        <time>2025-05-15T11:09:12.000Z</time>
      </trkpt>
      <trkpt lat="47.79527" lon="-2.69398">
        <ele>152.60000610352</ele>
        <time>2025-05-15T11:09:13.000Z</time>
      </trkpt>
      <trkpt lat="47.79527" lon="-2.69395">
        <ele>153</ele>
        <time>2025-05-15T11:09:14.000Z</time>
      </trkpt>
      <trkpt lat="47.79526" lon="-2.69391">
        <ele>153.39999389648</ele>
        <time>2025-05-15T11:09:16.000Z</time>
      </trkpt>
      <trkpt lat="47.79525" lon="-2.69388">
        <ele>153.60000610352</ele>
        <time>2025-05-15T11:09:17.000Z</time>
      </trkpt>
      <trkpt lat="47.79524" lon="-2.69381">
        <ele>153.80000305176</ele>
        <time>2025-05-15T11:09:19.000Z</time>
      </trkpt>
      <trkpt lat="47.7952" lon="-2.69357">
        <ele>154</ele>
        <time>2025-05-15T11:09:25.000Z</time>
      </trkpt>
      <trkpt lat="47.79519" lon="-2.69347">
        <ele>154.39999389648</ele>
        <time>2025-05-15T11:09:27.000Z</time>
      </trkpt>
      <trkpt lat="47.79518" lon="-2.69342">
        <ele>154.39999389648</ele>
        <time>2025-05-15T11:09:28.000Z</time>
      </trkpt>
      <trkpt lat="47.79517" lon="-2.69332">
        <ele>154.39999389648</ele>
        <time>2025-05-15T11:09:30.000Z</time>
      </trkpt>
      <trkpt lat="47.79514" lon="-2.69323">
        <ele>154.60000610352</ele>
        <time>2025-05-15T11:09:32.000Z</time>
      </trkpt>
      <trkpt lat="47.79511" lon="-2.693">
        <ele>154.60000610352</ele>
        <time>2025-05-15T11:09:37.000Z</time>
      </trkpt>
      <trkpt lat="47.79509" lon="-2.69297">
        <ele>154.60000610352</ele>
        <time>2025-05-15T11:09:38.000Z</time>
      </trkpt>
      <trkpt lat="47.79505" lon="-2.69289">
        <ele>154.60000610352</ele>
        <time>2025-05-15T11:09:40.000Z</time>
      </trkpt>
      <trkpt lat="47.79502" lon="-2.69286">
        <ele>154.60000610352</ele>
        <time>2025-05-15T11:09:41.000Z</time>
      </trkpt>
      <trkpt lat="47.79501" lon="-2.69284">
        <ele>154.80000305176</ele>
        <time>2025-05-15T11:09:42.000Z</time>
      </trkpt>
      <trkpt lat="47.79499" lon="-2.69278">
        <ele>154.80000305176</ele>
        <time>2025-05-15T11:09:44.000Z</time>
      </trkpt>
      <trkpt lat="47.79501" lon="-2.69274">
        <ele>154.80000305176</ele>
        <time>2025-05-15T11:09:45.000Z</time>
      </trkpt>
      <trkpt lat="47.79502" lon="-2.69268">
        <ele>154.80000305176</ele>
        <time>2025-05-15T11:09:46.000Z</time>
      </trkpt>
      <trkpt lat="47.79504" lon="-2.6926">
        <ele>154.80000305176</ele>
        <time>2025-05-15T11:09:48.000Z</time>
      </trkpt>
      <trkpt lat="47.79504" lon="-2.69255">
        <ele>154.80000305176</ele>
        <time>2025-05-15T11:09:49.000Z</time>
      </trkpt>
      <trkpt lat="47.79503" lon="-2.69245">
        <ele>154.80000305176</ele>
        <time>2025-05-15T11:09:51.000Z</time>
      </trkpt>
      <trkpt lat="47.79501" lon="-2.69235">
        <ele>154.80000305176</ele>
        <time>2025-05-15T11:09:53.000Z</time>
      </trkpt>
      <trkpt lat="47.79499" lon="-2.69223">
        <ele>154.80000305176</ele>
        <time>2025-05-15T11:09:55.000Z</time>
      </trkpt>
      <trkpt lat="47.79496" lon="-2.6921">
        <ele>154.60000610352</ele>
        <time>2025-05-15T11:09:57.000Z</time>
      </trkpt>
      <trkpt lat="47.79483" lon="-2.69159">
        <ele>154</ele>
        <time>2025-05-15T11:10:04.000Z</time>
      </trkpt>
      <trkpt lat="47.79481" lon="-2.69152">
        <ele>154</ele>
        <time>2025-05-15T11:10:05.000Z</time>
      </trkpt>
      <trkpt lat="47.79472" lon="-2.69109">
        <ele>153.80000305176</ele>
        <time>2025-05-15T11:10:11.000Z</time>
      </trkpt>
      <trkpt lat="47.7947" lon="-2.69102">
        <ele>153.80000305176</ele>
        <time>2025-05-15T11:10:12.000Z</time>
      </trkpt>
      <trkpt lat="47.79468" lon="-2.69095">
        <ele>153.60000610352</ele>
        <time>2025-05-15T11:10:13.000Z</time>
      </trkpt>
      <trkpt lat="47.79466" lon="-2.6909">
        <ele>153.60000610352</ele>
        <time>2025-05-15T11:10:14.000Z</time>
      </trkpt>
      <trkpt lat="47.79464" lon="-2.69083">
        <ele>153.39999389648</ele>
        <time>2025-05-15T11:10:15.000Z</time>
      </trkpt>
      <trkpt lat="47.79462" lon="-2.69077">
        <ele>153.39999389648</ele>
        <time>2025-05-15T11:10:16.000Z</time>
      </trkpt>
      <trkpt lat="47.79461" lon="-2.69072">
        <ele>153.39999389648</ele>
        <time>2025-05-15T11:10:17.000Z</time>
      </trkpt>
      <trkpt lat="47.7946" lon="-2.69069">
        <ele>153.39999389648</ele>
        <time>2025-05-15T11:10:18.000Z</time>
      </trkpt>
      <trkpt lat="47.79458" lon="-2.69068">
        <ele>153.80000305176</ele>
        <time>2025-05-15T11:10:19.000Z</time>
      </trkpt>
      <trkpt lat="47.79457" lon="-2.69068">
        <ele>153.80000305176</ele>
        <time>2025-05-15T11:10:20.000Z</time>
      </trkpt>
      <trkpt lat="47.79456" lon="-2.69069">
        <ele>153.80000305176</ele>
        <time>2025-05-15T11:10:21.000Z</time>
      </trkpt>
      <trkpt lat="47.79447" lon="-2.69071">
        <ele>154.19999694824</ele>
        <time>2025-05-15T11:10:25.000Z</time>
      </trkpt>
      <trkpt lat="47.7944" lon="-2.69073">
        <ele>154.39999389648</ele>
        <time>2025-05-15T11:10:28.000Z</time>
      </trkpt>
      <trkpt lat="47.79439" lon="-2.69073">
        <ele>154.60000610352</ele>
        <time>2025-05-15T11:10:29.000Z</time>
      </trkpt>
      <trkpt lat="47.79436" lon="-2.69073">
        <ele>154.60000610352</ele>
        <time>2025-05-15T11:10:30.000Z</time>
      </trkpt>
      <trkpt lat="47.79434" lon="-2.69073">
        <ele>154.80000305176</ele>
        <time>2025-05-15T11:10:31.000Z</time>
      </trkpt>
      <trkpt lat="47.79432" lon="-2.69073">
        <ele>154.80000305176</ele>
        <time>2025-05-15T11:10:32.000Z</time>
      </trkpt>
      <trkpt lat="47.79429" lon="-2.69074">
        <ele>155</ele>
        <time>2025-05-15T11:10:33.000Z</time>
      </trkpt>
      <trkpt lat="47.79425" lon="-2.69073">
        <ele>155.39999389648</ele>
        <time>2025-05-15T11:10:35.000Z</time>
      </trkpt>
      <trkpt lat="47.79422" lon="-2.69073">
        <ele>155.80000305176</ele>
        <time>2025-05-15T11:10:36.000Z</time>
      </trkpt>
      <trkpt lat="47.79421" lon="-2.69072">
        <ele>156</ele>
        <time>2025-05-15T11:10:37.000Z</time>
      </trkpt>
      <trkpt lat="47.79417" lon="-2.69072">
        <ele>156.19999694824</ele>
        <time>2025-05-15T11:10:39.000Z</time>
      </trkpt>
      <trkpt lat="47.79409" lon="-2.6907">
        <ele>156.80000305176</ele>
        <time>2025-05-15T11:10:42.000Z</time>
      </trkpt>
      <trkpt lat="47.79407" lon="-2.69069">
        <ele>157</ele>
        <time>2025-05-15T11:10:43.000Z</time>
      </trkpt>
      <trkpt lat="47.79405" lon="-2.69069">
        <ele>157.19999694824</ele>
        <time>2025-05-15T11:10:44.000Z</time>
      </trkpt>
      <trkpt lat="47.79403" lon="-2.69069">
        <ele>157.39999389648</ele>
        <time>2025-05-15T11:10:45.000Z</time>
      </trkpt>
      <trkpt lat="47.79401" lon="-2.69067">
        <ele>157.60000610352</ele>
        <time>2025-05-15T11:10:46.000Z</time>
      </trkpt>
      <trkpt lat="47.794" lon="-2.69065">
        <ele>157.60000610352</ele>
        <time>2025-05-15T11:10:47.000Z</time>
      </trkpt>
      <trkpt lat="47.79399" lon="-2.69062">
        <ele>158</ele>
        <time>2025-05-15T11:10:48.000Z</time>
      </trkpt>
      <trkpt lat="47.79399" lon="-2.6906">
        <ele>158.19999694824</ele>
        <time>2025-05-15T11:10:49.000Z</time>
      </trkpt>
      <trkpt lat="47.79398" lon="-2.69056">
        <ele>158.19999694824</ele>
        <time>2025-05-15T11:10:50.000Z</time>
      </trkpt>
      <trkpt lat="47.79398" lon="-2.69052">
        <ele>158.39999389648</ele>
        <time>2025-05-15T11:10:51.000Z</time>
      </trkpt>
      <trkpt lat="47.79398" lon="-2.69048">
        <ele>158.39999389648</ele>
        <time>2025-05-15T11:10:52.000Z</time>
      </trkpt>
      <trkpt lat="47.79398" lon="-2.69045">
        <ele>158.60000610352</ele>
        <time>2025-05-15T11:10:53.000Z</time>
      </trkpt>
      <trkpt lat="47.79397" lon="-2.69041">
        <ele>158.80000305176</ele>
        <time>2025-05-15T11:10:54.000Z</time>
      </trkpt>
      <trkpt lat="47.79397" lon="-2.69039">
        <ele>158.80000305176</ele>
        <time>2025-05-15T11:10:55.000Z</time>
      </trkpt>
      <trkpt lat="47.79396" lon="-2.69035">
        <ele>159.19999694824</ele>
        <time>2025-05-15T11:10:56.000Z</time>
      </trkpt>
      <trkpt lat="47.79396" lon="-2.69032">
        <ele>159.19999694824</ele>
        <time>2025-05-15T11:10:57.000Z</time>
      </trkpt>
      <trkpt lat="47.79396" lon="-2.69029">
        <ele>159.39999389648</ele>
        <time>2025-05-15T11:10:58.000Z</time>
      </trkpt>
      <trkpt lat="47.79395" lon="-2.69025">
        <ele>159.39999389648</ele>
        <time>2025-05-15T11:10:59.000Z</time>
      </trkpt>
      <trkpt lat="47.79395" lon="-2.69023">
        <ele>159.60000610352</ele>
        <time>2025-05-15T11:11:00.000Z</time>
      </trkpt>
      <trkpt lat="47.79395" lon="-2.6902">
        <ele>159.60000610352</ele>
        <time>2025-05-15T11:11:01.000Z</time>
      </trkpt>
      <trkpt lat="47.79395" lon="-2.69017">
        <ele>159.80000305176</ele>
        <time>2025-05-15T11:11:02.000Z</time>
      </trkpt>
      <trkpt lat="47.79395" lon="-2.69014">
        <ele>159.80000305176</ele>
        <time>2025-05-15T11:11:03.000Z</time>
      </trkpt>
      <trkpt lat="47.79394" lon="-2.69011">
        <ele>159.80000305176</ele>
        <time>2025-05-15T11:11:04.000Z</time>
      </trkpt>
      <trkpt lat="47.79394" lon="-2.69007">
        <ele>160.19999694824</ele>
        <time>2025-05-15T11:11:05.000Z</time>
      </trkpt>
      <trkpt lat="47.79394" lon="-2.69004">
        <ele>160.19999694824</ele>
        <time>2025-05-15T11:11:06.000Z</time>
      </trkpt>
      <trkpt lat="47.79394" lon="-2.69001">
        <ele>160.39999389648</ele>
        <time>2025-05-15T11:11:07.000Z</time>
      </trkpt>
      <trkpt lat="47.79394" lon="-2.68998">
        <ele>160.39999389648</ele>
        <time>2025-05-15T11:11:08.000Z</time>
      </trkpt>
      <trkpt lat="47.79393" lon="-2.68995">
        <ele>160.60000610352</ele>
        <time>2025-05-15T11:11:09.000Z</time>
      </trkpt>
      <trkpt lat="47.79393" lon="-2.68992">
        <ele>160.80000305176</ele>
        <time>2025-05-15T11:11:10.000Z</time>
      </trkpt>
      <trkpt lat="47.79392" lon="-2.68988">
        <ele>161</ele>
        <time>2025-05-15T11:11:11.000Z</time>
      </trkpt>
      <trkpt lat="47.79392" lon="-2.68985">
        <ele>161</ele>
        <time>2025-05-15T11:11:12.000Z</time>
      </trkpt>
      <trkpt lat="47.79391" lon="-2.68982">
        <ele>161.19999694824</ele>
        <time>2025-05-15T11:11:13.000Z</time>
      </trkpt>
      <trkpt lat="47.79391" lon="-2.68979">
        <ele>161.60000610352</ele>
        <time>2025-05-15T11:11:14.000Z</time>
      </trkpt>
      <trkpt lat="47.79391" lon="-2.68975">
        <ele>161.60000610352</ele>
        <time>2025-05-15T11:11:15.000Z</time>
      </trkpt>
      <trkpt lat="47.79391" lon="-2.68972">
        <ele>161.80000305176</ele>
        <time>2025-05-15T11:11:16.000Z</time>
      </trkpt>
      <trkpt lat="47.7939" lon="-2.68969">
        <ele>161.80000305176</ele>
        <time>2025-05-15T11:11:17.000Z</time>
      </trkpt>
      <trkpt lat="47.7939" lon="-2.68966">
        <ele>161.80000305176</ele>
        <time>2025-05-15T11:11:18.000Z</time>
      </trkpt>
      <trkpt lat="47.7939" lon="-2.68963">
        <ele>161.80000305176</ele>
        <time>2025-05-15T11:11:19.000Z</time>
      </trkpt>
      <trkpt lat="47.7939" lon="-2.68959">
        <ele>162</ele>
        <time>2025-05-15T11:11:20.000Z</time>
      </trkpt>
      <trkpt lat="47.7939" lon="-2.68957">
        <ele>162</ele>
        <time>2025-05-15T11:11:21.000Z</time>
      </trkpt>
      <trkpt lat="47.7939" lon="-2.68954">
        <ele>162</ele>
        <time>2025-05-15T11:11:22.000Z</time>
      </trkpt>
      <trkpt lat="47.79391" lon="-2.68952">
        <ele>162.19999694824</ele>
        <time>2025-05-15T11:11:23.000Z</time>
      </trkpt>
      <trkpt lat="47.79391" lon="-2.68949">
        <ele>162.19999694824</ele>
        <time>2025-05-15T11:11:24.000Z</time>
      </trkpt>
      <trkpt lat="47.79391" lon="-2.68946">
        <ele>162.19999694824</ele>
        <time>2025-05-15T11:11:25.000Z</time>
      </trkpt>
      <trkpt lat="47.79391" lon="-2.68943">
        <ele>162.60000610352</ele>
        <time>2025-05-15T11:11:26.000Z</time>
      </trkpt>
      <trkpt lat="47.79391" lon="-2.68939">
        <ele>162.60000610352</ele>
        <time>2025-05-15T11:11:27.000Z</time>
      </trkpt>
      <trkpt lat="47.7939" lon="-2.68936">
        <ele>162.80000305176</ele>
        <time>2025-05-15T11:11:28.000Z</time>
      </trkpt>
      <trkpt lat="47.79391" lon="-2.68933">
        <ele>162.80000305176</ele>
        <time>2025-05-15T11:11:29.000Z</time>
      </trkpt>
      <trkpt lat="47.79389" lon="-2.6892">
        <ele>163.39999389648</ele>
        <time>2025-05-15T11:11:33.000Z</time>
      </trkpt>
      <trkpt lat="47.79387" lon="-2.68917">
        <ele>163.39999389648</ele>
        <time>2025-05-15T11:11:34.000Z</time>
      </trkpt>
      <trkpt lat="47.79386" lon="-2.68914">
        <ele>163.60000610352</ele>
        <time>2025-05-15T11:11:35.000Z</time>
      </trkpt>
      <trkpt lat="47.79385" lon="-2.68911">
        <ele>163.60000610352</ele>
        <time>2025-05-15T11:11:36.000Z</time>
      </trkpt>
      <trkpt lat="47.79385" lon="-2.68903">
        <ele>163.60000610352</ele>
        <time>2025-05-15T11:11:38.000Z</time>
      </trkpt>
      <trkpt lat="47.79384" lon="-2.68893">
        <ele>163.60000610352</ele>
        <time>2025-05-15T11:11:40.000Z</time>
      </trkpt>
      <trkpt lat="47.79383" lon="-2.68889">
        <ele>163.39999389648</ele>
        <time>2025-05-15T11:11:41.000Z</time>
      </trkpt>
      <trkpt lat="47.79382" lon="-2.68884">
        <ele>163.60000610352</ele>
        <time>2025-05-15T11:11:42.000Z</time>
      </trkpt>
      <trkpt lat="47.79382" lon="-2.68878">
        <ele>163.39999389648</ele>
        <time>2025-05-15T11:11:43.000Z</time>
      </trkpt>
      <trkpt lat="47.79381" lon="-2.68872">
        <ele>163.39999389648</ele>
        <time>2025-05-15T11:11:44.000Z</time>
      </trkpt>
      <trkpt lat="47.7938" lon="-2.68862">
        <ele>163.19999694824</ele>
        <time>2025-05-15T11:11:46.000Z</time>
      </trkpt>
      <trkpt lat="47.79379" lon="-2.68857">
        <ele>163.19999694824</ele>
        <time>2025-05-15T11:11:47.000Z</time>
      </trkpt>
      <trkpt lat="47.79377" lon="-2.68852">
        <ele>163.19999694824</ele>
        <time>2025-05-15T11:11:48.000Z</time>
      </trkpt>
      <trkpt lat="47.79375" lon="-2.68835">
        <ele>163.19999694824</ele>
        <time>2025-05-15T11:11:51.000Z</time>
      </trkpt>
      <trkpt lat="47.79375" lon="-2.68829">
        <ele>163.39999389648</ele>
        <time>2025-05-15T11:11:52.000Z</time>
      </trkpt>
      <trkpt lat="47.79376" lon="-2.68822">
        <ele>163.39999389648</ele>
        <time>2025-05-15T11:11:53.000Z</time>
      </trkpt>
      <trkpt lat="47.79376" lon="-2.68816">
        <ele>163.39999389648</ele>
        <time>2025-05-15T11:11:54.000Z</time>
      </trkpt>
      <trkpt lat="47.79377" lon="-2.68811">
        <ele>163.39999389648</ele>
        <time>2025-05-15T11:11:55.000Z</time>
      </trkpt>
      <trkpt lat="47.79376" lon="-2.68807">
        <ele>163.39999389648</ele>
        <time>2025-05-15T11:11:56.000Z</time>
      </trkpt>
      <trkpt lat="47.79375" lon="-2.68801">
        <ele>163.39999389648</ele>
        <time>2025-05-15T11:11:57.000Z</time>
      </trkpt>
      <trkpt lat="47.79373" lon="-2.68794">
        <ele>163.39999389648</ele>
        <time>2025-05-15T11:11:58.000Z</time>
      </trkpt>
      <trkpt lat="47.79374" lon="-2.6879">
        <ele>163.60000610352</ele>
        <time>2025-05-15T11:11:59.000Z</time>
      </trkpt>
      <trkpt lat="47.79375" lon="-2.68776">
        <ele>163.60000610352</ele>
        <time>2025-05-15T11:12:01.000Z</time>
      </trkpt>
      <trkpt lat="47.79376" lon="-2.68771">
        <ele>163.60000610352</ele>
        <time>2025-05-15T11:12:02.000Z</time>
      </trkpt>
      <trkpt lat="47.79373" lon="-2.68763">
        <ele>163.80000305176</ele>
        <time>2025-05-15T11:12:04.000Z</time>
      </trkpt>
      <trkpt lat="47.7937" lon="-2.6876">
        <ele>163.80000305176</ele>
        <time>2025-05-15T11:12:05.000Z</time>
      </trkpt>
      <trkpt lat="47.79367" lon="-2.68759">
        <ele>163.80000305176</ele>
        <time>2025-05-15T11:12:06.000Z</time>
      </trkpt>
      <trkpt lat="47.79362" lon="-2.6876">
        <ele>163.60000610352</ele>
        <time>2025-05-15T11:12:08.000Z</time>
      </trkpt>
      <trkpt lat="47.79357" lon="-2.68762">
        <ele>163.80000305176</ele>
        <time>2025-05-15T11:12:10.000Z</time>
      </trkpt>
      <trkpt lat="47.79354" lon="-2.68762">
        <ele>163.80000305176</ele>
        <time>2025-05-15T11:12:11.000Z</time>
      </trkpt>
      <trkpt lat="47.79351" lon="-2.68763">
        <ele>163.80000305176</ele>
        <time>2025-05-15T11:12:12.000Z</time>
      </trkpt>
      <trkpt lat="47.7935" lon="-2.68762">
        <ele>164</ele>
        <time>2025-05-15T11:12:13.000Z</time>
      </trkpt>
      <trkpt lat="47.79349" lon="-2.6876">
        <ele>164</ele>
        <time>2025-05-15T11:12:14.000Z</time>
      </trkpt>
      <trkpt lat="47.79349" lon="-2.68756">
        <ele>164.19999694824</ele>
        <time>2025-05-15T11:12:15.000Z</time>
      </trkpt>
      <trkpt lat="47.79349" lon="-2.68743">
        <ele>164.19999694824</ele>
        <time>2025-05-15T11:12:18.000Z</time>
      </trkpt>
      <trkpt lat="47.79349" lon="-2.68737">
        <ele>164.19999694824</ele>
        <time>2025-05-15T11:12:19.000Z</time>
      </trkpt>
      <trkpt lat="47.79349" lon="-2.6872">
        <ele>164</ele>
        <time>2025-05-15T11:12:22.000Z</time>
      </trkpt>
      <trkpt lat="47.7935" lon="-2.68707">
        <ele>163.80000305176</ele>
        <time>2025-05-15T11:12:24.000Z</time>
      </trkpt>
      <trkpt lat="47.79351" lon="-2.68691">
        <ele>163.19999694824</ele>
        <time>2025-05-15T11:12:26.000Z</time>
      </trkpt>
      <trkpt lat="47.79352" lon="-2.68668">
        <ele>162.19999694824</ele>
        <time>2025-05-15T11:12:29.000Z</time>
      </trkpt>
      <trkpt lat="47.79352" lon="-2.68661">
        <ele>162.19999694824</ele>
        <time>2025-05-15T11:12:30.000Z</time>
      </trkpt>
      <trkpt lat="47.79353" lon="-2.68654">
        <ele>161.80000305176</ele>
        <time>2025-05-15T11:12:31.000Z</time>
      </trkpt>
      <trkpt lat="47.79353" lon="-2.68647">
        <ele>161.39999389648</ele>
        <time>2025-05-15T11:12:32.000Z</time>
      </trkpt>
      <trkpt lat="47.79353" lon="-2.6864">
        <ele>160.60000610352</ele>
        <time>2025-05-15T11:12:33.000Z</time>
      </trkpt>
      <trkpt lat="47.79354" lon="-2.68633">
        <ele>160.39999389648</ele>
        <time>2025-05-15T11:12:34.000Z</time>
      </trkpt>
      <trkpt lat="47.79353" lon="-2.68627">
        <ele>160.19999694824</ele>
        <time>2025-05-15T11:12:35.000Z</time>
      </trkpt>
      <trkpt lat="47.79351" lon="-2.68621">
        <ele>160</ele>
        <time>2025-05-15T11:12:36.000Z</time>
      </trkpt>
      <trkpt lat="47.79347" lon="-2.68617">
        <ele>160</ele>
        <time>2025-05-15T11:12:37.000Z</time>
      </trkpt>
      <trkpt lat="47.79344" lon="-2.68614">
        <ele>160</ele>
        <time>2025-05-15T11:12:38.000Z</time>
      </trkpt>
      <trkpt lat="47.79341" lon="-2.68611">
        <ele>160</ele>
        <time>2025-05-15T11:12:39.000Z</time>
      </trkpt>
      <trkpt lat="47.79337" lon="-2.68608">
        <ele>160.19999694824</ele>
        <time>2025-05-15T11:12:40.000Z</time>
      </trkpt>
      <trkpt lat="47.79334" lon="-2.68606">
        <ele>160.19999694824</ele>
        <time>2025-05-15T11:12:41.000Z</time>
      </trkpt>
      <trkpt lat="47.79331" lon="-2.68603">
        <ele>160.19999694824</ele>
        <time>2025-05-15T11:12:42.000Z</time>
      </trkpt>
      <trkpt lat="47.7933" lon="-2.686">
        <ele>160.19999694824</ele>
        <time>2025-05-15T11:12:43.000Z</time>
      </trkpt>
      <trkpt lat="47.79328" lon="-2.68597">
        <ele>160.39999389648</ele>
        <time>2025-05-15T11:12:44.000Z</time>
      </trkpt>
      <trkpt lat="47.79325" lon="-2.68593">
        <ele>160.60000610352</ele>
        <time>2025-05-15T11:12:45.000Z</time>
      </trkpt>
      <trkpt lat="47.79324" lon="-2.68589">
        <ele>160.80000305176</ele>
        <time>2025-05-15T11:12:46.000Z</time>
      </trkpt>
      <trkpt lat="47.79323" lon="-2.68584">
        <ele>161.19999694824</ele>
        <time>2025-05-15T11:12:47.000Z</time>
      </trkpt>
      <trkpt lat="47.79323" lon="-2.68579">
        <ele>161.19999694824</ele>
        <time>2025-05-15T11:12:48.000Z</time>
      </trkpt>
      <trkpt lat="47.79323" lon="-2.68574">
        <ele>161.80000305176</ele>
        <time>2025-05-15T11:12:49.000Z</time>
      </trkpt>
      <trkpt lat="47.79323" lon="-2.6857">
        <ele>162</ele>
        <time>2025-05-15T11:12:50.000Z</time>
      </trkpt>
      <trkpt lat="47.79323" lon="-2.68568">
        <ele>162.60000610352</ele>
        <time>2025-05-15T11:12:51.000Z</time>
      </trkpt>
      <trkpt lat="47.79323" lon="-2.68566">
        <ele>163</ele>
        <time>2025-05-15T11:12:52.000Z</time>
      </trkpt>
      <trkpt lat="47.79321" lon="-2.68564">
        <ele>163</ele>
        <time>2025-05-15T11:12:53.000Z</time>
      </trkpt>
      <trkpt lat="47.79321" lon="-2.68559">
        <ele>163.39999389648</ele>
        <time>2025-05-15T11:12:54.000Z</time>
      </trkpt>
      <trkpt lat="47.79324" lon="-2.68551">
        <ele>163.60000610352</ele>
        <time>2025-05-15T11:12:56.000Z</time>
      </trkpt>
      <trkpt lat="47.79323" lon="-2.68548">
        <ele>163.80000305176</ele>
        <time>2025-05-15T11:12:57.000Z</time>
      </trkpt>
      <trkpt lat="47.79323" lon="-2.68543">
        <ele>163.80000305176</ele>
        <time>2025-05-15T11:12:58.000Z</time>
      </trkpt>
      <trkpt lat="47.79323" lon="-2.68538">
        <ele>164</ele>
        <time>2025-05-15T11:12:59.000Z</time>
      </trkpt>
      <trkpt lat="47.79324" lon="-2.68534">
        <ele>164</ele>
        <time>2025-05-15T11:13:00.000Z</time>
      </trkpt>
      <trkpt lat="47.79324" lon="-2.68531">
        <ele>164.39999389648</ele>
        <time>2025-05-15T11:13:01.000Z</time>
      </trkpt>
      <trkpt lat="47.79326" lon="-2.6852">
        <ele>164.60000610352</ele>
        <time>2025-05-15T11:13:03.000Z</time>
      </trkpt>
      <trkpt lat="47.79327" lon="-2.68516">
        <ele>164.80000305176</ele>
        <time>2025-05-15T11:13:04.000Z</time>
      </trkpt>
      <trkpt lat="47.79327" lon="-2.68512">
        <ele>165</ele>
        <time>2025-05-15T11:13:05.000Z</time>
      </trkpt>
      <trkpt lat="47.79327" lon="-2.68509">
        <ele>165</ele>
        <time>2025-05-15T11:13:06.000Z</time>
      </trkpt>
      <trkpt lat="47.79328" lon="-2.68505">
        <ele>165.19999694824</ele>
        <time>2025-05-15T11:13:07.000Z</time>
      </trkpt>
      <trkpt lat="47.79328" lon="-2.68501">
        <ele>165.19999694824</ele>
        <time>2025-05-15T11:13:08.000Z</time>
      </trkpt>
      <trkpt lat="47.79329" lon="-2.68497">
        <ele>165.19999694824</ele>
        <time>2025-05-15T11:13:09.000Z</time>
      </trkpt>
      <trkpt lat="47.79329" lon="-2.68493">
        <ele>165.60000610352</ele>
        <time>2025-05-15T11:13:10.000Z</time>
      </trkpt>
      <trkpt lat="47.79329" lon="-2.68489">
        <ele>165.60000610352</ele>
        <time>2025-05-15T11:13:11.000Z</time>
      </trkpt>
      <trkpt lat="47.79329" lon="-2.68485">
        <ele>165.60000610352</ele>
        <time>2025-05-15T11:13:12.000Z</time>
      </trkpt>
      <trkpt lat="47.7933" lon="-2.68481">
        <ele>165.80000305176</ele>
        <time>2025-05-15T11:13:13.000Z</time>
      </trkpt>
      <trkpt lat="47.7933" lon="-2.68476">
        <ele>165.80000305176</ele>
        <time>2025-05-15T11:13:14.000Z</time>
      </trkpt>
      <trkpt lat="47.79331" lon="-2.68472">
        <ele>166</ele>
        <time>2025-05-15T11:13:15.000Z</time>
      </trkpt>
      <trkpt lat="47.79332" lon="-2.68468">
        <ele>166</ele>
        <time>2025-05-15T11:13:16.000Z</time>
      </trkpt>
      <trkpt lat="47.79333" lon="-2.68463">
        <ele>166</ele>
        <time>2025-05-15T11:13:17.000Z</time>
      </trkpt>
      <trkpt lat="47.79333" lon="-2.68458">
        <ele>166</ele>
        <time>2025-05-15T11:13:18.000Z</time>
      </trkpt>
      <trkpt lat="47.79334" lon="-2.68453">
        <ele>166</ele>
        <time>2025-05-15T11:13:19.000Z</time>
      </trkpt>
      <trkpt lat="47.79334" lon="-2.68448">
        <ele>166</ele>
        <time>2025-05-15T11:13:20.000Z</time>
      </trkpt>
      <trkpt lat="47.79335" lon="-2.68441">
        <ele>166</ele>
        <time>2025-05-15T11:13:21.000Z</time>
      </trkpt>
      <trkpt lat="47.79336" lon="-2.68435">
        <ele>166</ele>
        <time>2025-05-15T11:13:22.000Z</time>
      </trkpt>
      <trkpt lat="47.79337" lon="-2.68429">
        <ele>166.19999694824</ele>
        <time>2025-05-15T11:13:23.000Z</time>
      </trkpt>
      <trkpt lat="47.79337" lon="-2.68422">
        <ele>166.19999694824</ele>
        <time>2025-05-15T11:13:24.000Z</time>
      </trkpt>
      <trkpt lat="47.79339" lon="-2.684">
        <ele>166</ele>
        <time>2025-05-15T11:13:27.000Z</time>
      </trkpt>
      <trkpt lat="47.79345" lon="-2.68348">
        <ele>165.80000305176</ele>
        <time>2025-05-15T11:13:33.000Z</time>
      </trkpt>
      <trkpt lat="47.79346" lon="-2.6834">
        <ele>165.80000305176</ele>
        <time>2025-05-15T11:13:34.000Z</time>
      </trkpt>
      <trkpt lat="47.79346" lon="-2.68331">
        <ele>165.80000305176</ele>
        <time>2025-05-15T11:13:35.000Z</time>
      </trkpt>
      <trkpt lat="47.79347" lon="-2.68323">
        <ele>166</ele>
        <time>2025-05-15T11:13:36.000Z</time>
      </trkpt>
      <trkpt lat="47.79348" lon="-2.68315">
        <ele>166</ele>
        <time>2025-05-15T11:13:37.000Z</time>
      </trkpt>
      <trkpt lat="47.79348" lon="-2.68307">
        <ele>166</ele>
        <time>2025-05-15T11:13:38.000Z</time>
      </trkpt>
      <trkpt lat="47.79349" lon="-2.683">
        <ele>166</ele>
        <time>2025-05-15T11:13:39.000Z</time>
      </trkpt>
      <trkpt lat="47.7935" lon="-2.68292">
        <ele>166</ele>
        <time>2025-05-15T11:13:40.000Z</time>
      </trkpt>
      <trkpt lat="47.79351" lon="-2.68285">
        <ele>166</ele>
        <time>2025-05-15T11:13:41.000Z</time>
      </trkpt>
      <trkpt lat="47.79351" lon="-2.68278">
        <ele>166</ele>
        <time>2025-05-15T11:13:42.000Z</time>
      </trkpt>
      <trkpt lat="47.79352" lon="-2.68271">
        <ele>166</ele>
        <time>2025-05-15T11:13:43.000Z</time>
      </trkpt>
      <trkpt lat="47.79356" lon="-2.68226">
        <ele>166.80000305176</ele>
        <time>2025-05-15T11:13:49.000Z</time>
      </trkpt>
      <trkpt lat="47.79366" lon="-2.68182">
        <ele>166.80000305176</ele>
        <time>2025-05-15T11:13:54.000Z</time>
      </trkpt>
      <trkpt lat="47.79382" lon="-2.68119">
        <ele>165.80000305176</ele>
        <time>2025-05-15T11:14:01.000Z</time>
      </trkpt>
      <trkpt lat="47.79386" lon="-2.68101">
        <ele>165.80000305176</ele>
        <time>2025-05-15T11:14:03.000Z</time>
      </trkpt>
      <trkpt lat="47.79389" lon="-2.68092">
        <ele>165.60000610352</ele>
        <time>2025-05-15T11:14:04.000Z</time>
      </trkpt>
      <trkpt lat="47.79394" lon="-2.68075">
        <ele>165.60000610352</ele>
        <time>2025-05-15T11:14:06.000Z</time>
      </trkpt>
      <trkpt lat="47.79396" lon="-2.68067">
        <ele>165.39999389648</ele>
        <time>2025-05-15T11:14:07.000Z</time>
      </trkpt>
      <trkpt lat="47.79398" lon="-2.68059">
        <ele>165.39999389648</ele>
        <time>2025-05-15T11:14:08.000Z</time>
      </trkpt>
      <trkpt lat="47.79402" lon="-2.68043">
        <ele>165.39999389648</ele>
        <time>2025-05-15T11:14:10.000Z</time>
      </trkpt>
      <trkpt lat="47.79403" lon="-2.68036">
        <ele>165.39999389648</ele>
        <time>2025-05-15T11:14:11.000Z</time>
      </trkpt>
      <trkpt lat="47.79402" lon="-2.68029">
        <ele>165.39999389648</ele>
        <time>2025-05-15T11:14:12.000Z</time>
      </trkpt>
      <trkpt lat="47.79399" lon="-2.68021">
        <ele>165.39999389648</ele>
        <time>2025-05-15T11:14:13.000Z</time>
      </trkpt>
      <trkpt lat="47.79396" lon="-2.68017">
        <ele>165.39999389648</ele>
        <time>2025-05-15T11:14:14.000Z</time>
      </trkpt>
      <trkpt lat="47.79391" lon="-2.68015">
        <ele>165.39999389648</ele>
        <time>2025-05-15T11:14:15.000Z</time>
      </trkpt>
      <trkpt lat="47.79386" lon="-2.68014">
        <ele>165.39999389648</ele>
        <time>2025-05-15T11:14:16.000Z</time>
      </trkpt>
      <trkpt lat="47.7938" lon="-2.68013">
        <ele>165.39999389648</ele>
        <time>2025-05-15T11:14:17.000Z</time>
      </trkpt>
      <trkpt lat="47.79375" lon="-2.68012">
        <ele>165.39999389648</ele>
        <time>2025-05-15T11:14:18.000Z</time>
      </trkpt>
      <trkpt lat="47.7937" lon="-2.68011">
        <ele>165.80000305176</ele>
        <time>2025-05-15T11:14:19.000Z</time>
      </trkpt>
      <trkpt lat="47.79365" lon="-2.68011">
        <ele>165.80000305176</ele>
        <time>2025-05-15T11:14:20.000Z</time>
      </trkpt>
      <trkpt lat="47.7936" lon="-2.6801">
        <ele>165.80000305176</ele>
        <time>2025-05-15T11:14:21.000Z</time>
      </trkpt>
      <trkpt lat="47.79356" lon="-2.68009">
        <ele>165.80000305176</ele>
        <time>2025-05-15T11:14:22.000Z</time>
      </trkpt>
      <trkpt lat="47.79351" lon="-2.68009">
        <ele>165.80000305176</ele>
        <time>2025-05-15T11:14:23.000Z</time>
      </trkpt>
      <trkpt lat="47.79346" lon="-2.68008">
        <ele>165.80000305176</ele>
        <time>2025-05-15T11:14:24.000Z</time>
      </trkpt>
      <trkpt lat="47.79341" lon="-2.68008">
        <ele>165.80000305176</ele>
        <time>2025-05-15T11:14:25.000Z</time>
      </trkpt>
      <trkpt lat="47.79337" lon="-2.68007">
        <ele>166</ele>
        <time>2025-05-15T11:14:26.000Z</time>
      </trkpt>
      <trkpt lat="47.79329" lon="-2.68005">
        <ele>166.19999694824</ele>
        <time>2025-05-15T11:14:28.000Z</time>
      </trkpt>
      <trkpt lat="47.79318" lon="-2.68004">
        <ele>166.39999389648</ele>
        <time>2025-05-15T11:14:30.000Z</time>
      </trkpt>
      <trkpt lat="47.79288" lon="-2.68">
        <ele>167</ele>
        <time>2025-05-15T11:14:37.000Z</time>
      </trkpt>
      <trkpt lat="47.79283" lon="-2.67999">
        <ele>167.19999694824</ele>
        <time>2025-05-15T11:14:38.000Z</time>
      </trkpt>
      <trkpt lat="47.79278" lon="-2.67999">
        <ele>167.19999694824</ele>
        <time>2025-05-15T11:14:39.000Z</time>
      </trkpt>
      <trkpt lat="47.79235" lon="-2.67993">
        <ele>167.39999389648</ele>
        <time>2025-05-15T11:14:48.000Z</time>
      </trkpt>
      <trkpt lat="47.79199" lon="-2.67987">
        <ele>167.19999694824</ele>
        <time>2025-05-15T11:14:55.000Z</time>
      </trkpt>
      <trkpt lat="47.79196" lon="-2.67985">
        <ele>167</ele>
        <time>2025-05-15T11:14:56.000Z</time>
      </trkpt>
      <trkpt lat="47.79192" lon="-2.67981">
        <ele>167</ele>
        <time>2025-05-15T11:14:57.000Z</time>
      </trkpt>
      <trkpt lat="47.79191" lon="-2.67979">
        <ele>166.60000610352</ele>
        <time>2025-05-15T11:14:58.000Z</time>
      </trkpt>
      <trkpt lat="47.7919" lon="-2.67978">
        <ele>166.80000305176</ele>
        <time>2025-05-15T11:14:59.000Z</time>
      </trkpt>
      <trkpt lat="47.7919" lon="-2.67977">
        <ele>166.60000610352</ele>
        <time>2025-05-15T11:15:00.000Z</time>
      </trkpt>
      <trkpt lat="47.7919" lon="-2.67976">
        <ele>166.60000610352</ele>
        <time>2025-05-15T11:15:01.000Z</time>
      </trkpt>
      <trkpt lat="47.79189" lon="-2.67975">
        <ele>166.39999389648</ele>
        <time>2025-05-15T11:15:02.000Z</time>
      </trkpt>
      <trkpt lat="47.7919" lon="-2.67971">
        <ele>166.39999389648</ele>
        <time>2025-05-15T11:15:03.000Z</time>
      </trkpt>
      <trkpt lat="47.79191" lon="-2.67966">
        <ele>166.19999694824</ele>
        <time>2025-05-15T11:15:04.000Z</time>
      </trkpt>
      <trkpt lat="47.79193" lon="-2.67962">
        <ele>166.19999694824</ele>
        <time>2025-05-15T11:15:05.000Z</time>
      </trkpt>
      <trkpt lat="47.79199" lon="-2.67955">
        <ele>166.19999694824</ele>
        <time>2025-05-15T11:15:07.000Z</time>
      </trkpt>
      <trkpt lat="47.79202" lon="-2.67951">
        <ele>166.19999694824</ele>
        <time>2025-05-15T11:15:08.000Z</time>
      </trkpt>
      <trkpt lat="47.79204" lon="-2.67946">
        <ele>166.19999694824</ele>
        <time>2025-05-15T11:15:09.000Z</time>
      </trkpt>
      <trkpt lat="47.79206" lon="-2.6794">
        <ele>166.19999694824</ele>
        <time>2025-05-15T11:15:10.000Z</time>
      </trkpt>
      <trkpt lat="47.79206" lon="-2.67934">
        <ele>166.19999694824</ele>
        <time>2025-05-15T11:15:11.000Z</time>
      </trkpt>
      <trkpt lat="47.79206" lon="-2.67921">
        <ele>166.60000610352</ele>
        <time>2025-05-15T11:15:13.000Z</time>
      </trkpt>
      <trkpt lat="47.79206" lon="-2.67915">
        <ele>166.60000610352</ele>
        <time>2025-05-15T11:15:14.000Z</time>
      </trkpt>
      <trkpt lat="47.79207" lon="-2.679">
        <ele>166.60000610352</ele>
        <time>2025-05-15T11:15:17.000Z</time>
      </trkpt>
      <trkpt lat="47.79208" lon="-2.67895">
        <ele>166.60000610352</ele>
        <time>2025-05-15T11:15:18.000Z</time>
      </trkpt>
      <trkpt lat="47.79209" lon="-2.6789">
        <ele>166.60000610352</ele>
        <time>2025-05-15T11:15:19.000Z</time>
      </trkpt>
      <trkpt lat="47.7921" lon="-2.6788">
        <ele>166.60000610352</ele>
        <time>2025-05-15T11:15:21.000Z</time>
      </trkpt>
      <trkpt lat="47.7921" lon="-2.67875">
        <ele>166.60000610352</ele>
        <time>2025-05-15T11:15:22.000Z</time>
      </trkpt>
      <trkpt lat="47.79211" lon="-2.67869">
        <ele>166.60000610352</ele>
        <time>2025-05-15T11:15:23.000Z</time>
      </trkpt>
      <trkpt lat="47.79212" lon="-2.67863">
        <ele>166.60000610352</ele>
        <time>2025-05-15T11:15:24.000Z</time>
      </trkpt>
      <trkpt lat="47.79213" lon="-2.67857">
        <ele>166.60000610352</ele>
        <time>2025-05-15T11:15:25.000Z</time>
      </trkpt>
      <trkpt lat="47.79213" lon="-2.6785">
        <ele>166.60000610352</ele>
        <time>2025-05-15T11:15:26.000Z</time>
      </trkpt>
      <trkpt lat="47.79213" lon="-2.67835">
        <ele>166.60000610352</ele>
        <time>2025-05-15T11:15:28.000Z</time>
      </trkpt>
      <trkpt lat="47.79213" lon="-2.67826">
        <ele>166.80000305176</ele>
        <time>2025-05-15T11:15:29.000Z</time>
      </trkpt>
      <trkpt lat="47.79214" lon="-2.6781">
        <ele>166.80000305176</ele>
        <time>2025-05-15T11:15:31.000Z</time>
      </trkpt>
      <trkpt lat="47.79215" lon="-2.67795">
        <ele>166.80000305176</ele>
        <time>2025-05-15T11:15:33.000Z</time>
      </trkpt>
      <trkpt lat="47.79215" lon="-2.67789">
        <ele>167.19999694824</ele>
        <time>2025-05-15T11:15:34.000Z</time>
      </trkpt>
      <trkpt lat="47.79216" lon="-2.67776">
        <ele>167.19999694824</ele>
        <time>2025-05-15T11:15:36.000Z</time>
      </trkpt>
      <trkpt lat="47.79217" lon="-2.67767">
        <ele>167.39999389648</ele>
        <time>2025-05-15T11:15:37.000Z</time>
      </trkpt>
      <trkpt lat="47.79218" lon="-2.67745">
        <ele>167.60000610352</ele>
        <time>2025-05-15T11:15:40.000Z</time>
      </trkpt>
      <trkpt lat="47.79219" lon="-2.67739">
        <ele>167.60000610352</ele>
        <time>2025-05-15T11:15:41.000Z</time>
      </trkpt>
      <trkpt lat="47.79222" lon="-2.67685">
        <ele>167.80000305176</ele>
        <time>2025-05-15T11:15:48.000Z</time>
      </trkpt>
      <trkpt lat="47.79222" lon="-2.67677">
        <ele>168</ele>
        <time>2025-05-15T11:15:49.000Z</time>
      </trkpt>
      <trkpt lat="47.79223" lon="-2.67669">
        <ele>168</ele>
        <time>2025-05-15T11:15:50.000Z</time>
      </trkpt>
      <trkpt lat="47.79225" lon="-2.67637">
        <ele>167.60000610352</ele>
        <time>2025-05-15T11:15:54.000Z</time>
      </trkpt>
      <trkpt lat="47.79226" lon="-2.67622">
        <ele>167.60000610352</ele>
        <time>2025-05-15T11:15:56.000Z</time>
      </trkpt>
      <trkpt lat="47.79226" lon="-2.67614">
        <ele>167.60000610352</ele>
        <time>2025-05-15T11:15:57.000Z</time>
      </trkpt>
      <trkpt lat="47.79226" lon="-2.67605">
        <ele>167.60000610352</ele>
        <time>2025-05-15T11:15:58.000Z</time>
      </trkpt>
      <trkpt lat="47.79226" lon="-2.67595">
        <ele>167.80000305176</ele>
        <time>2025-05-15T11:15:59.000Z</time>
      </trkpt>
      <trkpt lat="47.79227" lon="-2.67586">
        <ele>167.80000305176</ele>
        <time>2025-05-15T11:16:00.000Z</time>
      </trkpt>
      <trkpt lat="47.79226" lon="-2.67578">
        <ele>167.80000305176</ele>
        <time>2025-05-15T11:16:01.000Z</time>
      </trkpt>
      <trkpt lat="47.79226" lon="-2.67572">
        <ele>167.80000305176</ele>
        <time>2025-05-15T11:16:02.000Z</time>
      </trkpt>
      <trkpt lat="47.79226" lon="-2.67563">
        <ele>167.80000305176</ele>
        <time>2025-05-15T11:16:03.000Z</time>
      </trkpt>
      <trkpt lat="47.79225" lon="-2.67555">
        <ele>167.80000305176</ele>
        <time>2025-05-15T11:16:04.000Z</time>
      </trkpt>
      <trkpt lat="47.79225" lon="-2.67547">
        <ele>168</ele>
        <time>2025-05-15T11:16:05.000Z</time>
      </trkpt>
      <trkpt lat="47.79225" lon="-2.67541">
        <ele>168</ele>
        <time>2025-05-15T11:16:06.000Z</time>
      </trkpt>
      <trkpt lat="47.79225" lon="-2.67534">
        <ele>168.19999694824</ele>
        <time>2025-05-15T11:16:07.000Z</time>
      </trkpt>
      <trkpt lat="47.79224" lon="-2.67528">
        <ele>168.19999694824</ele>
        <time>2025-05-15T11:16:08.000Z</time>
      </trkpt>
      <trkpt lat="47.79224" lon="-2.67521">
        <ele>168.19999694824</ele>
        <time>2025-05-15T11:16:09.000Z</time>
      </trkpt>
      <trkpt lat="47.79224" lon="-2.67494">
        <ele>168.19999694824</ele>
        <time>2025-05-15T11:16:13.000Z</time>
      </trkpt>
      <trkpt lat="47.79224" lon="-2.6746">
        <ele>168.60000610352</ele>
        <time>2025-05-15T11:16:18.000Z</time>
      </trkpt>
      <trkpt lat="47.79223" lon="-2.67446">
        <ele>168.60000610352</ele>
        <time>2025-05-15T11:16:20.000Z</time>
      </trkpt>
      <trkpt lat="47.79224" lon="-2.67395">
        <ele>168.39999389648</ele>
        <time>2025-05-15T11:16:26.000Z</time>
      </trkpt>
      <trkpt lat="47.79224" lon="-2.67332">
        <ele>167.60000610352</ele>
        <time>2025-05-15T11:16:32.000Z</time>
      </trkpt>
      <trkpt lat="47.79224" lon="-2.67321">
        <ele>167.60000610352</ele>
        <time>2025-05-15T11:16:33.000Z</time>
      </trkpt>
      <trkpt lat="47.79224" lon="-2.67311">
        <ele>167.39999389648</ele>
        <time>2025-05-15T11:16:34.000Z</time>
      </trkpt>
      <trkpt lat="47.79223" lon="-2.67292">
        <ele>167.19999694824</ele>
        <time>2025-05-15T11:16:36.000Z</time>
      </trkpt>
      <trkpt lat="47.79222" lon="-2.67279">
        <ele>167</ele>
        <time>2025-05-15T11:16:37.000Z</time>
      </trkpt>
      <trkpt lat="47.79222" lon="-2.67269">
        <ele>166</ele>
        <time>2025-05-15T11:16:38.000Z</time>
      </trkpt>
      <trkpt lat="47.79222" lon="-2.67258">
        <ele>165.80000305176</ele>
        <time>2025-05-15T11:16:39.000Z</time>
      </trkpt>
      <trkpt lat="47.79222" lon="-2.67249">
        <ele>165.19999694824</ele>
        <time>2025-05-15T11:16:40.000Z</time>
      </trkpt>
      <trkpt lat="47.79222" lon="-2.6724">
        <ele>164.80000305176</ele>
        <time>2025-05-15T11:16:41.000Z</time>
      </trkpt>
      <trkpt lat="47.79222" lon="-2.67232">
        <ele>164.39999389648</ele>
        <time>2025-05-15T11:16:42.000Z</time>
      </trkpt>
      <trkpt lat="47.79222" lon="-2.67223">
        <ele>164.19999694824</ele>
        <time>2025-05-15T11:16:43.000Z</time>
      </trkpt>
      <trkpt lat="47.79222" lon="-2.67214">
        <ele>163.80000305176</ele>
        <time>2025-05-15T11:16:44.000Z</time>
      </trkpt>
      <trkpt lat="47.79222" lon="-2.67206">
        <ele>163.60000610352</ele>
        <time>2025-05-15T11:16:45.000Z</time>
      </trkpt>
      <trkpt lat="47.79221" lon="-2.67199">
        <ele>163.60000610352</ele>
        <time>2025-05-15T11:16:46.000Z</time>
      </trkpt>
      <trkpt lat="47.7922" lon="-2.67185">
        <ele>163.60000610352</ele>
        <time>2025-05-15T11:16:48.000Z</time>
      </trkpt>
      <trkpt lat="47.7922" lon="-2.67146">
        <ele>163.19999694824</ele>
        <time>2025-05-15T11:16:53.000Z</time>
      </trkpt>
      <trkpt lat="47.7922" lon="-2.67138">
        <ele>163</ele>
        <time>2025-05-15T11:16:54.000Z</time>
      </trkpt>
      <trkpt lat="47.7922" lon="-2.6713">
        <ele>163</ele>
        <time>2025-05-15T11:16:55.000Z</time>
      </trkpt>
      <trkpt lat="47.7922" lon="-2.67121">
        <ele>163</ele>
        <time>2025-05-15T11:16:56.000Z</time>
      </trkpt>
      <trkpt lat="47.79219" lon="-2.67094">
        <ele>161.80000305176</ele>
        <time>2025-05-15T11:16:59.000Z</time>
      </trkpt>
      <trkpt lat="47.79219" lon="-2.67057">
        <ele>160.80000305176</ele>
        <time>2025-05-15T11:17:03.000Z</time>
      </trkpt>
      <trkpt lat="47.7922" lon="-2.67048">
        <ele>160.80000305176</ele>
        <time>2025-05-15T11:17:04.000Z</time>
      </trkpt>
      <trkpt lat="47.7922" lon="-2.67039">
        <ele>160.60000610352</ele>
        <time>2025-05-15T11:17:05.000Z</time>
      </trkpt>
      <trkpt lat="47.7922" lon="-2.67032">
        <ele>160.19999694824</ele>
        <time>2025-05-15T11:17:06.000Z</time>
      </trkpt>
      <trkpt lat="47.7922" lon="-2.67022">
        <ele>159.80000305176</ele>
        <time>2025-05-15T11:17:07.000Z</time>
      </trkpt>
      <trkpt lat="47.7922" lon="-2.67014">
        <ele>159.60000610352</ele>
        <time>2025-05-15T11:17:08.000Z</time>
      </trkpt>
      <trkpt lat="47.7922" lon="-2.67007">
        <ele>159.19999694824</ele>
        <time>2025-05-15T11:17:09.000Z</time>
      </trkpt>
      <trkpt lat="47.79221" lon="-2.66989">
        <ele>159</ele>
        <time>2025-05-15T11:17:11.000Z</time>
      </trkpt>
      <trkpt lat="47.79221" lon="-2.66973">
        <ele>158.60000610352</ele>
        <time>2025-05-15T11:17:13.000Z</time>
      </trkpt>
      <trkpt lat="47.79221" lon="-2.66965">
        <ele>158.39999389648</ele>
        <time>2025-05-15T11:17:14.000Z</time>
      </trkpt>
      <trkpt lat="47.79221" lon="-2.66956">
        <ele>158.19999694824</ele>
        <time>2025-05-15T11:17:15.000Z</time>
      </trkpt>
      <trkpt lat="47.79221" lon="-2.66948">
        <ele>158</ele>
        <time>2025-05-15T11:17:16.000Z</time>
      </trkpt>
      <trkpt lat="47.79221" lon="-2.6694">
        <ele>158</ele>
        <time>2025-05-15T11:17:17.000Z</time>
      </trkpt>
      <trkpt lat="47.79221" lon="-2.66933">
        <ele>157.80000305176</ele>
        <time>2025-05-15T11:17:18.000Z</time>
      </trkpt>
      <trkpt lat="47.7922" lon="-2.66926">
        <ele>157.60000610352</ele>
        <time>2025-05-15T11:17:19.000Z</time>
      </trkpt>
      <trkpt lat="47.7922" lon="-2.66919">
        <ele>157.60000610352</ele>
        <time>2025-05-15T11:17:20.000Z</time>
      </trkpt>
      <trkpt lat="47.79219" lon="-2.66913">
        <ele>157.60000610352</ele>
        <time>2025-05-15T11:17:21.000Z</time>
      </trkpt>
      <trkpt lat="47.79219" lon="-2.66905">
        <ele>157.39999389648</ele>
        <time>2025-05-15T11:17:22.000Z</time>
      </trkpt>
      <trkpt lat="47.79217" lon="-2.66863">
        <ele>156.80000305176</ele>
        <time>2025-05-15T11:17:28.000Z</time>
      </trkpt>
      <trkpt lat="47.79217" lon="-2.66856">
        <ele>156.80000305176</ele>
        <time>2025-05-15T11:17:29.000Z</time>
      </trkpt>
      <trkpt lat="47.79217" lon="-2.66849">
        <ele>156.80000305176</ele>
        <time>2025-05-15T11:17:30.000Z</time>
      </trkpt>
      <trkpt lat="47.79217" lon="-2.66842">
        <ele>156.80000305176</ele>
        <time>2025-05-15T11:17:31.000Z</time>
      </trkpt>
      <trkpt lat="47.79217" lon="-2.66836">
        <ele>156.60000610352</ele>
        <time>2025-05-15T11:17:32.000Z</time>
      </trkpt>
      <trkpt lat="47.79217" lon="-2.66831">
        <ele>156.60000610352</ele>
        <time>2025-05-15T11:17:33.000Z</time>
      </trkpt>
      <trkpt lat="47.79216" lon="-2.66828">
        <ele>156.60000610352</ele>
        <time>2025-05-15T11:17:34.000Z</time>
      </trkpt>
      <trkpt lat="47.79216" lon="-2.66825">
        <ele>156.60000610352</ele>
        <time>2025-05-15T11:17:35.000Z</time>
      </trkpt>
      <trkpt lat="47.79216" lon="-2.66822">
        <ele>156.60000610352</ele>
        <time>2025-05-15T11:17:36.000Z</time>
      </trkpt>
      <trkpt lat="47.79216" lon="-2.66819">
        <ele>156.60000610352</ele>
        <time>2025-05-15T11:17:37.000Z</time>
      </trkpt>
      <trkpt lat="47.79216" lon="-2.66816">
        <ele>156.60000610352</ele>
        <time>2025-05-15T11:17:38.000Z</time>
      </trkpt>
      <trkpt lat="47.79216" lon="-2.66814">
        <ele>156.60000610352</ele>
        <time>2025-05-15T11:17:39.000Z</time>
      </trkpt>
      <trkpt lat="47.79216" lon="-2.66811">
        <ele>156.60000610352</ele>
        <time>2025-05-15T11:17:40.000Z</time>
      </trkpt>
      <trkpt lat="47.79216" lon="-2.66805">
        <ele>156.80000305176</ele>
        <time>2025-05-15T11:17:42.000Z</time>
      </trkpt>
      <trkpt lat="47.7922" lon="-2.66792">
        <ele>156.80000305176</ele>
        <time>2025-05-15T11:17:46.000Z</time>
      </trkpt>
      <trkpt lat="47.79223" lon="-2.66788">
        <ele>156.80000305176</ele>
        <time>2025-05-15T11:17:47.000Z</time>
      </trkpt>
      <trkpt lat="47.79225" lon="-2.66785">
        <ele>157</ele>
        <time>2025-05-15T11:17:48.000Z</time>
      </trkpt>
      <trkpt lat="47.79241" lon="-2.66757">
        <ele>157.60000610352</ele>
        <time>2025-05-15T11:17:55.000Z</time>
      </trkpt>
      <trkpt lat="47.79243" lon="-2.66754">
        <ele>157.80000305176</ele>
        <time>2025-05-15T11:17:56.000Z</time>
      </trkpt>
      <trkpt lat="47.79248" lon="-2.66746">
        <ele>157.80000305176</ele>
        <time>2025-05-15T11:17:58.000Z</time>
      </trkpt>
      <trkpt lat="47.79251" lon="-2.66742">
        <ele>157.80000305176</ele>
        <time>2025-05-15T11:17:59.000Z</time>
      </trkpt>
      <trkpt lat="47.79256" lon="-2.66736">
        <ele>157.80000305176</ele>
        <time>2025-05-15T11:18:01.000Z</time>
      </trkpt>
      <trkpt lat="47.79258" lon="-2.66732">
        <ele>158</ele>
        <time>2025-05-15T11:18:02.000Z</time>
      </trkpt>
      <trkpt lat="47.7926" lon="-2.66729">
        <ele>158</ele>
        <time>2025-05-15T11:18:03.000Z</time>
      </trkpt>
      <trkpt lat="47.79262" lon="-2.66725">
        <ele>158.19999694824</ele>
        <time>2025-05-15T11:18:04.000Z</time>
      </trkpt>
      <trkpt lat="47.79265" lon="-2.66722">
        <ele>158.19999694824</ele>
        <time>2025-05-15T11:18:05.000Z</time>
      </trkpt>
      <trkpt lat="47.79267" lon="-2.66719">
        <ele>158.19999694824</ele>
        <time>2025-05-15T11:18:06.000Z</time>
      </trkpt>
      <trkpt lat="47.79275" lon="-2.6671">
        <ele>158.19999694824</ele>
        <time>2025-05-15T11:18:09.000Z</time>
      </trkpt>
      <trkpt lat="47.79278" lon="-2.66707">
        <ele>158.19999694824</ele>
        <time>2025-05-15T11:18:10.000Z</time>
      </trkpt>
      <trkpt lat="47.79296" lon="-2.66694">
        <ele>159</ele>
        <time>2025-05-15T11:18:16.000Z</time>
      </trkpt>
      <trkpt lat="47.79299" lon="-2.66692">
        <ele>159.19999694824</ele>
        <time>2025-05-15T11:18:17.000Z</time>
      </trkpt>
      <trkpt lat="47.79302" lon="-2.66689">
        <ele>159.19999694824</ele>
        <time>2025-05-15T11:18:18.000Z</time>
      </trkpt>
      <trkpt lat="47.79305" lon="-2.66686">
        <ele>159.39999389648</ele>
        <time>2025-05-15T11:18:19.000Z</time>
      </trkpt>
      <trkpt lat="47.79307" lon="-2.66683">
        <ele>159.39999389648</ele>
        <time>2025-05-15T11:18:20.000Z</time>
      </trkpt>
      <trkpt lat="47.79309" lon="-2.6668">
        <ele>159.39999389648</ele>
        <time>2025-05-15T11:18:21.000Z</time>
      </trkpt>
      <trkpt lat="47.79312" lon="-2.66676">
        <ele>159.39999389648</ele>
        <time>2025-05-15T11:18:22.000Z</time>
      </trkpt>
      <trkpt lat="47.79318" lon="-2.66664">
        <ele>160</ele>
        <time>2025-05-15T11:18:25.000Z</time>
      </trkpt>
      <trkpt lat="47.7932" lon="-2.6666">
        <ele>160</ele>
        <time>2025-05-15T11:18:26.000Z</time>
      </trkpt>
      <trkpt lat="47.79325" lon="-2.6664">
        <ele>159.80000305176</ele>
        <time>2025-05-15T11:18:30.000Z</time>
      </trkpt>
      <trkpt lat="47.79328" lon="-2.66625">
        <ele>160</ele>
        <time>2025-05-15T11:18:33.000Z</time>
      </trkpt>
      <trkpt lat="47.79336" lon="-2.66593">
        <ele>159.80000305176</ele>
        <time>2025-05-15T11:18:39.000Z</time>
      </trkpt>
      <trkpt lat="47.79338" lon="-2.66587">
        <ele>159.80000305176</ele>
        <time>2025-05-15T11:18:40.000Z</time>
      </trkpt>
      <trkpt lat="47.79341" lon="-2.66583">
        <ele>159.80000305176</ele>
        <time>2025-05-15T11:18:41.000Z</time>
      </trkpt>
      <trkpt lat="47.79345" lon="-2.66581">
        <ele>159.80000305176</ele>
        <time>2025-05-15T11:18:42.000Z</time>
      </trkpt>
      <trkpt lat="47.79349" lon="-2.66581">
        <ele>159.80000305176</ele>
        <time>2025-05-15T11:18:43.000Z</time>
      </trkpt>
      <trkpt lat="47.79353" lon="-2.66583">
        <ele>159.80000305176</ele>
        <time>2025-05-15T11:18:44.000Z</time>
      </trkpt>
      <trkpt lat="47.79362" lon="-2.66589">
        <ele>159.80000305176</ele>
        <time>2025-05-15T11:18:47.000Z</time>
      </trkpt>
      <trkpt lat="47.79369" lon="-2.66594">
        <ele>160</ele>
        <time>2025-05-15T11:18:49.000Z</time>
      </trkpt>
      <trkpt lat="47.79373" lon="-2.66596">
        <ele>160</ele>
        <time>2025-05-15T11:18:50.000Z</time>
      </trkpt>
      <trkpt lat="47.79381" lon="-2.66599">
        <ele>160</ele>
        <time>2025-05-15T11:18:52.000Z</time>
      </trkpt>
      <trkpt lat="47.79393" lon="-2.66601">
        <ele>160.19999694824</ele>
        <time>2025-05-15T11:18:55.000Z</time>
      </trkpt>
      <trkpt lat="47.79409" lon="-2.66603">
        <ele>160</ele>
        <time>2025-05-15T11:18:59.000Z</time>
      </trkpt>
      <trkpt lat="47.79413" lon="-2.66604">
        <ele>160</ele>
        <time>2025-05-15T11:19:00.000Z</time>
      </trkpt>
      <trkpt lat="47.79416" lon="-2.66604">
        <ele>160</ele>
        <time>2025-05-15T11:19:01.000Z</time>
      </trkpt>
      <trkpt lat="47.79419" lon="-2.66605">
        <ele>160</ele>
        <time>2025-05-15T11:19:02.000Z</time>
      </trkpt>
      <trkpt lat="47.79422" lon="-2.66605">
        <ele>159.80000305176</ele>
        <time>2025-05-15T11:19:03.000Z</time>
      </trkpt>
      <trkpt lat="47.79425" lon="-2.66605">
        <ele>159.80000305176</ele>
        <time>2025-05-15T11:19:04.000Z</time>
      </trkpt>
      <trkpt lat="47.79428" lon="-2.66606">
        <ele>159.80000305176</ele>
        <time>2025-05-15T11:19:05.000Z</time>
      </trkpt>
      <trkpt lat="47.79447" lon="-2.66604">
        <ele>159.60000610352</ele>
        <time>2025-05-15T11:19:10.000Z</time>
      </trkpt>
      <trkpt lat="47.79453" lon="-2.66602">
        <ele>159.39999389648</ele>
        <time>2025-05-15T11:19:12.000Z</time>
      </trkpt>
      <trkpt lat="47.79456" lon="-2.66599">
        <ele>159.39999389648</ele>
        <time>2025-05-15T11:19:13.000Z</time>
      </trkpt>
      <trkpt lat="47.79458" lon="-2.66597">
        <ele>159.39999389648</ele>
        <time>2025-05-15T11:19:14.000Z</time>
      </trkpt>
      <trkpt lat="47.79458" lon="-2.66594">
        <ele>159.39999389648</ele>
        <time>2025-05-15T11:19:15.000Z</time>
      </trkpt>
      <trkpt lat="47.79459" lon="-2.66591">
        <ele>159.39999389648</ele>
        <time>2025-05-15T11:19:16.000Z</time>
      </trkpt>
      <trkpt lat="47.7946" lon="-2.66588">
        <ele>159.39999389648</ele>
        <time>2025-05-15T11:19:17.000Z</time>
      </trkpt>
      <trkpt lat="47.79461" lon="-2.66585">
        <ele>159.39999389648</ele>
        <time>2025-05-15T11:19:18.000Z</time>
      </trkpt>
      <trkpt lat="47.79462" lon="-2.66584">
        <ele>159.39999389648</ele>
        <time>2025-05-15T11:19:19.000Z</time>
      </trkpt>
      <trkpt lat="47.79463" lon="-2.66582">
        <ele>159.39999389648</ele>
        <time>2025-05-15T11:19:20.000Z</time>
      </trkpt>
      <trkpt lat="47.79464" lon="-2.66581">
        <ele>159.60000610352</ele>
        <time>2025-05-15T11:19:21.000Z</time>
      </trkpt>
      <trkpt lat="47.79464" lon="-2.66581">
        <ele>159.60000610352</ele>
        <time>2025-05-15T11:19:22.000Z</time>
      </trkpt>
      <trkpt lat="47.79471" lon="-2.66562">
        <ele>160.39999389648</ele>
        <time>2025-05-15T11:19:28.000Z</time>
      </trkpt>
      <trkpt lat="47.79472" lon="-2.66559">
        <ele>160.39999389648</ele>
        <time>2025-05-15T11:19:29.000Z</time>
      </trkpt>
      <trkpt lat="47.79473" lon="-2.66554">
        <ele>160.39999389648</ele>
        <time>2025-05-15T11:19:30.000Z</time>
      </trkpt>
      <trkpt lat="47.79479" lon="-2.66541">
        <ele>161</ele>
        <time>2025-05-15T11:19:35.000Z</time>
      </trkpt>
      <trkpt lat="47.7948" lon="-2.66538">
        <ele>161</ele>
        <time>2025-05-15T11:19:36.000Z</time>
      </trkpt>
      <trkpt lat="47.79482" lon="-2.66535">
        <ele>161.19999694824</ele>
        <time>2025-05-15T11:19:37.000Z</time>
      </trkpt>
      <trkpt lat="47.79485" lon="-2.6653">
        <ele>161.19999694824</ele>
        <time>2025-05-15T11:19:38.000Z</time>
      </trkpt>
      <trkpt lat="47.79488" lon="-2.66526">
        <ele>161.39999389648</ele>
        <time>2025-05-15T11:19:39.000Z</time>
      </trkpt>
      <trkpt lat="47.79489" lon="-2.66524">
        <ele>161.60000610352</ele>
        <time>2025-05-15T11:19:40.000Z</time>
      </trkpt>
      <trkpt lat="47.7949" lon="-2.66521">
        <ele>161.60000610352</ele>
        <time>2025-05-15T11:19:41.000Z</time>
      </trkpt>
      <trkpt lat="47.79493" lon="-2.66515">
        <ele>161.80000305176</ele>
        <time>2025-05-15T11:19:43.000Z</time>
      </trkpt>
      <trkpt lat="47.79494" lon="-2.66512">
        <ele>161.80000305176</ele>
        <time>2025-05-15T11:19:44.000Z</time>
      </trkpt>
      <trkpt lat="47.79496" lon="-2.66509">
        <ele>162</ele>
        <time>2025-05-15T11:19:45.000Z</time>
      </trkpt>
      <trkpt lat="47.79498" lon="-2.66506">
        <ele>162.19999694824</ele>
        <time>2025-05-15T11:19:46.000Z</time>
      </trkpt>
      <trkpt lat="47.79502" lon="-2.665">
        <ele>162.19999694824</ele>
        <time>2025-05-15T11:19:47.000Z</time>
      </trkpt>
      <trkpt lat="47.79513" lon="-2.66475">
        <ele>163.19999694824</ele>
        <time>2025-05-15T11:19:52.000Z</time>
      </trkpt>
      <trkpt lat="47.79513" lon="-2.66472">
        <ele>163.39999389648</ele>
        <time>2025-05-15T11:19:53.000Z</time>
      </trkpt>
      <trkpt lat="47.79514" lon="-2.66467">
        <ele>163.60000610352</ele>
        <time>2025-05-15T11:19:55.000Z</time>
      </trkpt>
      <trkpt lat="47.79514" lon="-2.66461">
        <ele>163.80000305176</ele>
        <time>2025-05-15T11:19:56.000Z</time>
      </trkpt>
      <trkpt lat="47.79513" lon="-2.66455">
        <ele>163.80000305176</ele>
        <time>2025-05-15T11:19:57.000Z</time>
      </trkpt>
      <trkpt lat="47.79512" lon="-2.66452">
        <ele>164</ele>
        <time>2025-05-15T11:19:58.000Z</time>
      </trkpt>
      <trkpt lat="47.79512" lon="-2.66449">
        <ele>164</ele>
        <time>2025-05-15T11:19:59.000Z</time>
      </trkpt>
      <trkpt lat="47.79513" lon="-2.66447">
        <ele>164</ele>
        <time>2025-05-15T11:20:00.000Z</time>
      </trkpt>
      <trkpt lat="47.79514" lon="-2.66444">
        <ele>164.19999694824</ele>
        <time>2025-05-15T11:20:01.000Z</time>
      </trkpt>
      <trkpt lat="47.79514" lon="-2.6644">
        <ele>164.60000610352</ele>
        <time>2025-05-15T11:20:02.000Z</time>
      </trkpt>
      <trkpt lat="47.79514" lon="-2.66436">
        <ele>164.60000610352</ele>
        <time>2025-05-15T11:20:03.000Z</time>
      </trkpt>
      <trkpt lat="47.79513" lon="-2.66431">
        <ele>164.60000610352</ele>
        <time>2025-05-15T11:20:04.000Z</time>
      </trkpt>
      <trkpt lat="47.79514" lon="-2.66426">
        <ele>164.60000610352</ele>
        <time>2025-05-15T11:20:05.000Z</time>
      </trkpt>
      <trkpt lat="47.79514" lon="-2.66423">
        <ele>164.60000610352</ele>
        <time>2025-05-15T11:20:06.000Z</time>
      </trkpt>
      <trkpt lat="47.79514" lon="-2.66417">
        <ele>164.60000610352</ele>
        <time>2025-05-15T11:20:07.000Z</time>
      </trkpt>
      <trkpt lat="47.79513" lon="-2.66411">
        <ele>164.60000610352</ele>
        <time>2025-05-15T11:20:08.000Z</time>
      </trkpt>
      <trkpt lat="47.79515" lon="-2.66406">
        <ele>164.60000610352</ele>
        <time>2025-05-15T11:20:09.000Z</time>
      </trkpt>
      <trkpt lat="47.79516" lon="-2.66401">
        <ele>164.60000610352</ele>
        <time>2025-05-15T11:20:10.000Z</time>
      </trkpt>
      <trkpt lat="47.79519" lon="-2.6639">
        <ele>164.80000305176</ele>
        <time>2025-05-15T11:20:12.000Z</time>
      </trkpt>
      <trkpt lat="47.79518" lon="-2.66387">
        <ele>164.60000610352</ele>
        <time>2025-05-15T11:20:13.000Z</time>
      </trkpt>
      <trkpt lat="47.79518" lon="-2.66383">
        <ele>164.39999389648</ele>
        <time>2025-05-15T11:20:14.000Z</time>
      </trkpt>
      <trkpt lat="47.79518" lon="-2.66378">
        <ele>164.39999389648</ele>
        <time>2025-05-15T11:20:15.000Z</time>
      </trkpt>
      <trkpt lat="47.79518" lon="-2.66372">
        <ele>164.39999389648</ele>
        <time>2025-05-15T11:20:16.000Z</time>
      </trkpt>
      <trkpt lat="47.79518" lon="-2.66364">
        <ele>164.39999389648</ele>
        <time>2025-05-15T11:20:17.000Z</time>
      </trkpt>
      <trkpt lat="47.79518" lon="-2.66356">
        <ele>164.39999389648</ele>
        <time>2025-05-15T11:20:18.000Z</time>
      </trkpt>
      <trkpt lat="47.79518" lon="-2.66352">
        <ele>164.39999389648</ele>
        <time>2025-05-15T11:20:19.000Z</time>
      </trkpt>
      <trkpt lat="47.79521" lon="-2.66322">
        <ele>163.80000305176</ele>
        <time>2025-05-15T11:20:24.000Z</time>
      </trkpt>
      <trkpt lat="47.79522" lon="-2.66317">
        <ele>163.39999389648</ele>
        <time>2025-05-15T11:20:25.000Z</time>
      </trkpt>
      <trkpt lat="47.79522" lon="-2.66312">
        <ele>163.39999389648</ele>
        <time>2025-05-15T11:20:26.000Z</time>
      </trkpt>
      <trkpt lat="47.79522" lon="-2.66299">
        <ele>163.19999694824</ele>
        <time>2025-05-15T11:20:28.000Z</time>
      </trkpt>
      <trkpt lat="47.79521" lon="-2.66293">
        <ele>163</ele>
        <time>2025-05-15T11:20:29.000Z</time>
      </trkpt>
      <trkpt lat="47.79521" lon="-2.66286">
        <ele>163</ele>
        <time>2025-05-15T11:20:30.000Z</time>
      </trkpt>
      <trkpt lat="47.79521" lon="-2.66281">
        <ele>162.80000305176</ele>
        <time>2025-05-15T11:20:31.000Z</time>
      </trkpt>
      <trkpt lat="47.79522" lon="-2.66273">
        <ele>162.60000610352</ele>
        <time>2025-05-15T11:20:33.000Z</time>
      </trkpt>
      <trkpt lat="47.79521" lon="-2.66267">
        <ele>162.60000610352</ele>
        <time>2025-05-15T11:20:34.000Z</time>
      </trkpt>
      <trkpt lat="47.79521" lon="-2.66264">
        <ele>162.60000610352</ele>
        <time>2025-05-15T11:20:35.000Z</time>
      </trkpt>
      <trkpt lat="47.7952" lon="-2.66261">
        <ele>162.39999389648</ele>
        <time>2025-05-15T11:20:36.000Z</time>
      </trkpt>
      <trkpt lat="47.7952" lon="-2.66258">
        <ele>162.39999389648</ele>
        <time>2025-05-15T11:20:37.000Z</time>
      </trkpt>
      <trkpt lat="47.79519" lon="-2.66254">
        <ele>162</ele>
        <time>2025-05-15T11:20:38.000Z</time>
      </trkpt>
      <trkpt lat="47.79516" lon="-2.66245">
        <ele>161.80000305176</ele>
        <time>2025-05-15T11:20:40.000Z</time>
      </trkpt>
      <trkpt lat="47.79516" lon="-2.66241">
        <ele>161.80000305176</ele>
        <time>2025-05-15T11:20:41.000Z</time>
      </trkpt>
      <trkpt lat="47.79515" lon="-2.66235">
        <ele>161.60000610352</ele>
        <time>2025-05-15T11:20:42.000Z</time>
      </trkpt>
      <trkpt lat="47.79516" lon="-2.66232">
        <ele>161.60000610352</ele>
        <time>2025-05-15T11:20:43.000Z</time>
      </trkpt>
      <trkpt lat="47.79518" lon="-2.66228">
        <ele>161.60000610352</ele>
        <time>2025-05-15T11:20:44.000Z</time>
      </trkpt>
      <trkpt lat="47.79518" lon="-2.66221">
        <ele>161.39999389648</ele>
        <time>2025-05-15T11:20:45.000Z</time>
      </trkpt>
      <trkpt lat="47.79518" lon="-2.66221">
        <ele>161.19999694824</ele>
        <time>2025-05-15T11:20:46.000Z</time>
      </trkpt>
      <trkpt lat="47.79518" lon="-2.66221">
        <ele>161.19999694824</ele>
        <time>2025-05-15T11:20:47.000Z</time>
      </trkpt>
      <trkpt lat="47.79518" lon="-2.66221">
        <ele>161.19999694824</ele>
        <time>2025-05-15T11:20:48.000Z</time>
      </trkpt>
      <trkpt lat="47.7952" lon="-2.6622">
        <ele>161.19999694824</ele>
        <time>2025-05-15T11:20:57.000Z</time>
      </trkpt>
      <trkpt lat="47.79521" lon="-2.66219">
        <ele>161.19999694824</ele>
        <time>2025-05-15T11:20:58.000Z</time>
      </trkpt>
      <trkpt lat="47.79523" lon="-2.66219">
        <ele>161.19999694824</ele>
        <time>2025-05-15T11:20:59.000Z</time>
      </trkpt>
      <trkpt lat="47.79524" lon="-2.66218">
        <ele>161.19999694824</ele>
        <time>2025-05-15T11:21:00.000Z</time>
      </trkpt>
      <trkpt lat="47.79527" lon="-2.66216">
        <ele>161</ele>
        <time>2025-05-15T11:21:02.000Z</time>
      </trkpt>
      <trkpt lat="47.79534" lon="-2.66208">
        <ele>161</ele>
        <time>2025-05-15T11:21:06.000Z</time>
      </trkpt>
      <trkpt lat="47.79535" lon="-2.66206">
        <ele>161</ele>
        <time>2025-05-15T11:21:07.000Z</time>
      </trkpt>
      <trkpt lat="47.79535" lon="-2.66205">
        <ele>161</ele>
        <time>2025-05-15T11:21:08.000Z</time>
      </trkpt>
      <trkpt lat="47.7954" lon="-2.66199">
        <ele>160.80000305176</ele>
        <time>2025-05-15T11:21:11.000Z</time>
      </trkpt>
      <trkpt lat="47.7954" lon="-2.66198">
        <ele>160.80000305176</ele>
        <time>2025-05-15T11:21:12.000Z</time>
      </trkpt>
      <trkpt lat="47.79545" lon="-2.66193">
        <ele>160.60000610352</ele>
        <time>2025-05-15T11:21:24.000Z</time>
      </trkpt>
      <trkpt lat="47.79549" lon="-2.66193">
        <ele>160.60000610352</ele>
        <time>2025-05-15T11:21:26.000Z</time>
      </trkpt>
      <trkpt lat="47.79551" lon="-2.66193">
        <ele>160.60000610352</ele>
        <time>2025-05-15T11:21:27.000Z</time>
      </trkpt>
      <trkpt lat="47.79552" lon="-2.66192">
        <ele>160.60000610352</ele>
        <time>2025-05-15T11:21:28.000Z</time>
      </trkpt>
      <trkpt lat="47.79554" lon="-2.66192">
        <ele>160.60000610352</ele>
        <time>2025-05-15T11:21:29.000Z</time>
      </trkpt>
      <trkpt lat="47.79555" lon="-2.66191">
        <ele>160.60000610352</ele>
        <time>2025-05-15T11:21:30.000Z</time>
      </trkpt>
      <trkpt lat="47.79557" lon="-2.66191">
        <ele>160.60000610352</ele>
        <time>2025-05-15T11:21:31.000Z</time>
      </trkpt>
      <trkpt lat="47.79559" lon="-2.66191">
        <ele>160.60000610352</ele>
        <time>2025-05-15T11:21:32.000Z</time>
      </trkpt>
      <trkpt lat="47.79562" lon="-2.6619">
        <ele>160.60000610352</ele>
        <time>2025-05-15T11:21:33.000Z</time>
      </trkpt>
      <trkpt lat="47.79563" lon="-2.66189">
        <ele>160.60000610352</ele>
        <time>2025-05-15T11:21:34.000Z</time>
      </trkpt>
      <trkpt lat="47.79568" lon="-2.66191">
        <ele>160.80000305176</ele>
        <time>2025-05-15T11:21:36.000Z</time>
      </trkpt>
      <trkpt lat="47.7957" lon="-2.66192">
        <ele>160.80000305176</ele>
        <time>2025-05-15T11:21:37.000Z</time>
      </trkpt>
      <trkpt lat="47.79572" lon="-2.66193">
        <ele>160.60000610352</ele>
        <time>2025-05-15T11:21:38.000Z</time>
      </trkpt>
      <trkpt lat="47.79574" lon="-2.66192">
        <ele>160.80000305176</ele>
        <time>2025-05-15T11:21:39.000Z</time>
      </trkpt>
      <trkpt lat="47.79576" lon="-2.66192">
        <ele>160.80000305176</ele>
        <time>2025-05-15T11:21:40.000Z</time>
      </trkpt>
      <trkpt lat="47.79582" lon="-2.66192">
        <ele>160.80000305176</ele>
        <time>2025-05-15T11:21:43.000Z</time>
      </trkpt>
      <trkpt lat="47.79585" lon="-2.66192">
        <ele>160.80000305176</ele>
        <time>2025-05-15T11:21:44.000Z</time>
      </trkpt>
      <trkpt lat="47.79588" lon="-2.66191">
        <ele>160.60000610352</ele>
        <time>2025-05-15T11:21:45.000Z</time>
      </trkpt>
      <trkpt lat="47.7959" lon="-2.66193">
        <ele>160.60000610352</ele>
        <time>2025-05-15T11:21:46.000Z</time>
      </trkpt>
      <trkpt lat="47.79591" lon="-2.66192">
        <ele>160.60000610352</ele>
        <time>2025-05-15T11:21:47.000Z</time>
      </trkpt>
      <trkpt lat="47.79593" lon="-2.66192">
        <ele>160.60000610352</ele>
        <time>2025-05-15T11:21:48.000Z</time>
      </trkpt>
      <trkpt lat="47.79595" lon="-2.66191">
        <ele>160.39999389648</ele>
        <time>2025-05-15T11:21:49.000Z</time>
      </trkpt>
      <trkpt lat="47.796" lon="-2.66197">
        <ele>160.19999694824</ele>
        <time>2025-05-15T11:21:52.000Z</time>
      </trkpt>
      <trkpt lat="47.79603" lon="-2.66204">
        <ele>160.19999694824</ele>
        <time>2025-05-15T11:21:54.000Z</time>
      </trkpt>
      <trkpt lat="47.79604" lon="-2.66208">
        <ele>160.19999694824</ele>
        <time>2025-05-15T11:21:55.000Z</time>
      </trkpt>
      <trkpt lat="47.79605" lon="-2.66212">
        <ele>160.19999694824</ele>
        <time>2025-05-15T11:21:56.000Z</time>
      </trkpt>
      <trkpt lat="47.79605" lon="-2.66214">
        <ele>160.19999694824</ele>
        <time>2025-05-15T11:21:57.000Z</time>
      </trkpt>
      <trkpt lat="47.79603" lon="-2.66215">
        <ele>160.19999694824</ele>
        <time>2025-05-15T11:21:58.000Z</time>
      </trkpt>
      <trkpt lat="47.79601" lon="-2.66217">
        <ele>160.19999694824</ele>
        <time>2025-05-15T11:21:59.000Z</time>
      </trkpt>
      <trkpt lat="47.79594" lon="-2.66219">
        <ele>160.39999389648</ele>
        <time>2025-05-15T11:22:02.000Z</time>
      </trkpt>
      <trkpt lat="47.79591" lon="-2.66219">
        <ele>160.60000610352</ele>
        <time>2025-05-15T11:22:03.000Z</time>
      </trkpt>
      <trkpt lat="47.79589" lon="-2.66218">
        <ele>160.60000610352</ele>
        <time>2025-05-15T11:22:04.000Z</time>
      </trkpt>
      <trkpt lat="47.79585" lon="-2.66213">
        <ele>160.60000610352</ele>
        <time>2025-05-15T11:22:07.000Z</time>
      </trkpt>
      <trkpt lat="47.79583" lon="-2.66212">
        <ele>160.60000610352</ele>
        <time>2025-05-15T11:22:08.000Z</time>
      </trkpt>
      <trkpt lat="47.79582" lon="-2.66211">
        <ele>160.80000305176</ele>
        <time>2025-05-15T11:22:09.000Z</time>
      </trkpt>
      <trkpt lat="47.79581" lon="-2.66207">
        <ele>160.60000610352</ele>
        <time>2025-05-15T11:22:11.000Z</time>
      </trkpt>
      <trkpt lat="47.7958" lon="-2.66205">
        <ele>160.80000305176</ele>
        <time>2025-05-15T11:22:12.000Z</time>
      </trkpt>
      <trkpt lat="47.79581" lon="-2.66202">
        <ele>160.39999389648</ele>
        <time>2025-05-15T11:22:29.000Z</time>
      </trkpt>
      <trkpt lat="47.79583" lon="-2.66202">
        <ele>160.39999389648</ele>
        <time>2025-05-15T11:22:31.000Z</time>
      </trkpt>
      <trkpt lat="47.79588" lon="-2.662">
        <ele>160.39999389648</ele>
        <time>2025-05-15T11:22:34.000Z</time>
      </trkpt>
      <trkpt lat="47.7959" lon="-2.662">
        <ele>160.39999389648</ele>
        <time>2025-05-15T11:22:36.000Z</time>
      </trkpt>
      <trkpt lat="47.79592" lon="-2.662">
        <ele>160.39999389648</ele>
        <time>2025-05-15T11:22:37.000Z</time>
      </trkpt>
      <trkpt lat="47.79596" lon="-2.66198">
        <ele>160.39999389648</ele>
        <time>2025-05-15T11:22:39.000Z</time>
      </trkpt>
      <trkpt lat="47.79597" lon="-2.66197">
        <ele>160.39999389648</ele>
        <time>2025-05-15T11:22:40.000Z</time>
      </trkpt>
      <trkpt lat="47.79599" lon="-2.66194">
        <ele>160.60000610352</ele>
        <time>2025-05-15T11:22:41.000Z</time>
      </trkpt>
      <trkpt lat="47.79601" lon="-2.66192">
        <ele>160.60000610352</ele>
        <time>2025-05-15T11:22:42.000Z</time>
      </trkpt>
      <trkpt lat="47.79602" lon="-2.66191">
        <ele>160.39999389648</ele>
        <time>2025-05-15T11:22:43.000Z</time>
      </trkpt>
      <trkpt lat="47.79606" lon="-2.6619">
        <ele>160.19999694824</ele>
        <time>2025-05-15T11:22:46.000Z</time>
      </trkpt>
      <trkpt lat="47.79606" lon="-2.66188">
        <ele>159.60000610352</ele>
        <time>2025-05-15T11:23:12.000Z</time>
      </trkpt>
      <trkpt lat="47.79606" lon="-2.66187">
        <ele>159.60000610352</ele>
        <time>2025-05-15T11:23:13.000Z</time>
      </trkpt>
      <trkpt lat="47.79608" lon="-2.66182">
        <ele>159.60000610352</ele>
        <time>2025-05-15T11:23:17.000Z</time>
      </trkpt>
      <trkpt lat="47.7961" lon="-2.66178">
        <ele>159.19999694824</ele>
        <time>2025-05-15T11:23:20.000Z</time>
      </trkpt>
      <trkpt lat="47.79611" lon="-2.66177">
        <ele>159.19999694824</ele>
        <time>2025-05-15T11:23:21.000Z</time>
      </trkpt>
      <trkpt lat="47.79611" lon="-2.66176">
        <ele>159.19999694824</ele>
        <time>2025-05-15T11:23:22.000Z</time>
      </trkpt>
      <trkpt lat="47.79611" lon="-2.66176">
        <ele>159.19999694824</ele>
        <time>2025-05-15T11:23:23.000Z</time>
      </trkpt>
      <trkpt lat="47.79611" lon="-2.66175">
        <ele>159</ele>
        <time>2025-05-15T11:23:38.000Z</time>
      </trkpt>
      <trkpt lat="47.7961" lon="-2.66173">
        <ele>159.19999694824</ele>
        <time>2025-05-15T11:23:40.000Z</time>
      </trkpt>
      <trkpt lat="47.79609" lon="-2.66172">
        <ele>159.19999694824</ele>
        <time>2025-05-15T11:23:41.000Z</time>
      </trkpt>
      <trkpt lat="47.79608" lon="-2.6617">
        <ele>159.19999694824</ele>
        <time>2025-05-15T11:23:42.000Z</time>
      </trkpt>
      <trkpt lat="47.79606" lon="-2.66167">
        <ele>159.39999389648</ele>
        <time>2025-05-15T11:23:46.000Z</time>
      </trkpt>
      <trkpt lat="47.79606" lon="-2.66166">
        <ele>159.39999389648</ele>
        <time>2025-05-15T11:23:47.000Z</time>
      </trkpt>
      <trkpt lat="47.79605" lon="-2.66166">
        <ele>159.19999694824</ele>
        <time>2025-05-15T11:23:48.000Z</time>
      </trkpt>
      <trkpt lat="47.79604" lon="-2.66166">
        <ele>159.19999694824</ele>
        <time>2025-05-15T11:23:49.000Z</time>
      </trkpt>
      <trkpt lat="47.79605" lon="-2.66165">
        <ele>159</ele>
        <time>2025-05-15T11:24:08.000Z</time>
      </trkpt>
      <trkpt lat="47.79606" lon="-2.66164">
        <ele>159</ele>
        <time>2025-05-15T11:24:09.000Z</time>
      </trkpt>
      <trkpt lat="47.79606" lon="-2.66165">
        <ele>159</ele>
        <time>2025-05-15T11:24:10.000Z</time>
      </trkpt>
      <trkpt lat="47.79606" lon="-2.6617">
        <ele>159</ele>
        <time>2025-05-15T11:24:14.000Z</time>
      </trkpt>
      <trkpt lat="47.79606" lon="-2.66171">
        <ele>159</ele>
        <time>2025-05-15T11:24:15.000Z</time>
      </trkpt>
      <trkpt lat="47.79606" lon="-2.66171">
        <ele>159</ele>
        <time>2025-05-15T11:24:16.000Z</time>
      </trkpt>
      <trkpt lat="47.79606" lon="-2.66172">
        <ele>159</ele>
        <time>2025-05-15T11:24:17.000Z</time>
      </trkpt>
      <trkpt lat="47.79606" lon="-2.66174">
        <ele>159</ele>
        <time>2025-05-15T11:24:19.000Z</time>
      </trkpt>
      <trkpt lat="47.79606" lon="-2.66176">
        <ele>159</ele>
        <time>2025-05-15T11:24:20.000Z</time>
      </trkpt>
      <trkpt lat="47.79606" lon="-2.66178">
        <ele>159</ele>
        <time>2025-05-15T11:24:21.000Z</time>
      </trkpt>
      <trkpt lat="47.79607" lon="-2.6618">
        <ele>159.19999694824</ele>
        <time>2025-05-15T11:24:22.000Z</time>
      </trkpt>
      <trkpt lat="47.79607" lon="-2.66182">
        <ele>159.19999694824</ele>
        <time>2025-05-15T11:24:23.000Z</time>
      </trkpt>
      <trkpt lat="47.79607" lon="-2.66183">
        <ele>159.19999694824</ele>
        <time>2025-05-15T11:24:24.000Z</time>
      </trkpt>
      <trkpt lat="47.79606" lon="-2.66184">
        <ele>159.19999694824</ele>
        <time>2025-05-15T11:24:25.000Z</time>
      </trkpt>
      <trkpt lat="47.79605" lon="-2.66185">
        <ele>159.39999389648</ele>
        <time>2025-05-15T11:24:26.000Z</time>
      </trkpt>
      <trkpt lat="47.79604" lon="-2.66186">
        <ele>159.39999389648</ele>
        <time>2025-05-15T11:24:27.000Z</time>
      </trkpt>
      <trkpt lat="47.79603" lon="-2.66187">
        <ele>159.60000610352</ele>
        <time>2025-05-15T11:24:29.000Z</time>
      </trkpt>
      <trkpt lat="47.796" lon="-2.66188">
        <ele>159.60000610352</ele>
        <time>2025-05-15T11:24:40.000Z</time>
      </trkpt>
      <trkpt lat="47.79598" lon="-2.66188">
        <ele>159.60000610352</ele>
        <time>2025-05-15T11:24:41.000Z</time>
      </trkpt>
      <trkpt lat="47.79597" lon="-2.66187">
        <ele>159.60000610352</ele>
        <time>2025-05-15T11:24:42.000Z</time>
      </trkpt>
      <trkpt lat="47.79596" lon="-2.66187">
        <ele>159.60000610352</ele>
        <time>2025-05-15T11:24:43.000Z</time>
      </trkpt>
      <trkpt lat="47.79595" lon="-2.66183">
        <ele>159.60000610352</ele>
        <time>2025-05-15T11:24:45.000Z</time>
      </trkpt>
      <trkpt lat="47.79594" lon="-2.66181">
        <ele>159.60000610352</ele>
        <time>2025-05-15T11:24:46.000Z</time>
      </trkpt>
      <trkpt lat="47.79593" lon="-2.66179">
        <ele>159.60000610352</ele>
        <time>2025-05-15T11:24:47.000Z</time>
      </trkpt>
      <trkpt lat="47.79592" lon="-2.66176">
        <ele>159.60000610352</ele>
        <time>2025-05-15T11:24:48.000Z</time>
      </trkpt>
      <trkpt lat="47.79591" lon="-2.66175">
        <ele>159.60000610352</ele>
        <time>2025-05-15T11:24:49.000Z</time>
      </trkpt>
      <trkpt lat="47.79589" lon="-2.66174">
        <ele>159.39999389648</ele>
        <time>2025-05-15T11:24:50.000Z</time>
      </trkpt>
      <trkpt lat="47.79587" lon="-2.66172">
        <ele>159.39999389648</ele>
        <time>2025-05-15T11:24:51.000Z</time>
      </trkpt>
      <trkpt lat="47.79586" lon="-2.6617">
        <ele>159.60000610352</ele>
        <time>2025-05-15T11:24:52.000Z</time>
      </trkpt>
      <trkpt lat="47.79586" lon="-2.66167">
        <ele>159.60000610352</ele>
        <time>2025-05-15T11:24:53.000Z</time>
      </trkpt>
      <trkpt lat="47.79586" lon="-2.66165">
        <ele>159.60000610352</ele>
        <time>2025-05-15T11:24:54.000Z</time>
      </trkpt>
      <trkpt lat="47.79585" lon="-2.66161">
        <ele>159.60000610352</ele>
        <time>2025-05-15T11:24:55.000Z</time>
      </trkpt>
      <trkpt lat="47.79586" lon="-2.66158">
        <ele>159.60000610352</ele>
        <time>2025-05-15T11:24:56.000Z</time>
      </trkpt>
      <trkpt lat="47.79586" lon="-2.66156">
        <ele>159.60000610352</ele>
        <time>2025-05-15T11:24:57.000Z</time>
      </trkpt>
      <trkpt lat="47.79585" lon="-2.66154">
        <ele>159.60000610352</ele>
        <time>2025-05-15T11:24:58.000Z</time>
      </trkpt>
      <trkpt lat="47.79585" lon="-2.66151">
        <ele>159.60000610352</ele>
        <time>2025-05-15T11:24:59.000Z</time>
      </trkpt>
      <trkpt lat="47.79586" lon="-2.66149">
        <ele>159.60000610352</ele>
        <time>2025-05-15T11:25:00.000Z</time>
      </trkpt>
      <trkpt lat="47.79587" lon="-2.66146">
        <ele>159.39999389648</ele>
        <time>2025-05-15T11:25:01.000Z</time>
      </trkpt>
      <trkpt lat="47.79588" lon="-2.66144">
        <ele>159.39999389648</ele>
        <time>2025-05-15T11:25:02.000Z</time>
      </trkpt>
      <trkpt lat="47.79589" lon="-2.66143">
        <ele>159.39999389648</ele>
        <time>2025-05-15T11:25:03.000Z</time>
      </trkpt>
      <trkpt lat="47.7959" lon="-2.66141">
        <ele>159.39999389648</ele>
        <time>2025-05-15T11:25:04.000Z</time>
      </trkpt>
      <trkpt lat="47.79592" lon="-2.66134">
        <ele>159.19999694824</ele>
        <time>2025-05-15T11:25:06.000Z</time>
      </trkpt>
      <trkpt lat="47.79593" lon="-2.66129">
        <ele>159.19999694824</ele>
        <time>2025-05-15T11:25:07.000Z</time>
      </trkpt>
      <trkpt lat="47.79594" lon="-2.66123">
        <ele>159.19999694824</ele>
        <time>2025-05-15T11:25:08.000Z</time>
      </trkpt>
      <trkpt lat="47.79594" lon="-2.66119">
        <ele>159.39999389648</ele>
        <time>2025-05-15T11:25:09.000Z</time>
      </trkpt>
      <trkpt lat="47.79594" lon="-2.66115">
        <ele>159.39999389648</ele>
        <time>2025-05-15T11:25:10.000Z</time>
      </trkpt>
      <trkpt lat="47.79596" lon="-2.6611">
        <ele>159.39999389648</ele>
        <time>2025-05-15T11:25:12.000Z</time>
      </trkpt>
      <trkpt lat="47.79596" lon="-2.66108">
        <ele>159.39999389648</ele>
        <time>2025-05-15T11:25:13.000Z</time>
      </trkpt>
      <trkpt lat="47.79598" lon="-2.66105">
        <ele>159.39999389648</ele>
        <time>2025-05-15T11:25:14.000Z</time>
      </trkpt>
      <trkpt lat="47.79599" lon="-2.66101">
        <ele>159.60000610352</ele>
        <time>2025-05-15T11:25:15.000Z</time>
      </trkpt>
      <trkpt lat="47.796" lon="-2.66097">
        <ele>159.60000610352</ele>
        <time>2025-05-15T11:25:16.000Z</time>
      </trkpt>
      <trkpt lat="47.79606" lon="-2.66088">
        <ele>159.60000610352</ele>
        <time>2025-05-15T11:25:20.000Z</time>
      </trkpt>
      <trkpt lat="47.79607" lon="-2.66085">
        <ele>159.60000610352</ele>
        <time>2025-05-15T11:25:21.000Z</time>
      </trkpt>
      <trkpt lat="47.79609" lon="-2.66083">
        <ele>159.60000610352</ele>
        <time>2025-05-15T11:25:22.000Z</time>
      </trkpt>
      <trkpt lat="47.79608" lon="-2.66081">
        <ele>159.60000610352</ele>
        <time>2025-05-15T11:25:23.000Z</time>
      </trkpt>
      <trkpt lat="47.79608" lon="-2.66078">
        <ele>159.60000610352</ele>
        <time>2025-05-15T11:25:24.000Z</time>
      </trkpt>
      <trkpt lat="47.79608" lon="-2.66076">
        <ele>159.60000610352</ele>
        <time>2025-05-15T11:25:25.000Z</time>
      </trkpt>
      <trkpt lat="47.79608" lon="-2.66074">
        <ele>159.60000610352</ele>
        <time>2025-05-15T11:25:26.000Z</time>
      </trkpt>
      <trkpt lat="47.79607" lon="-2.66072">
        <ele>159.60000610352</ele>
        <time>2025-05-15T11:25:28.000Z</time>
      </trkpt>
      <trkpt lat="47.79607" lon="-2.66072">
        <ele>159.60000610352</ele>
        <time>2025-05-15T11:25:29.000Z</time>
      </trkpt>
      <trkpt lat="47.79607" lon="-2.66072">
        <ele>159.60000610352</ele>
        <time>2025-05-15T11:25:30.000Z</time>
      </trkpt>
      <trkpt lat="47.7961" lon="-2.66067">
        <ele>159.80000305176</ele>
        <time>2025-05-15T11:25:33.000Z</time>
      </trkpt>
      <trkpt lat="47.7961" lon="-2.66065">
        <ele>160</ele>
        <time>2025-05-15T11:25:34.000Z</time>
      </trkpt>
      <trkpt lat="47.79619" lon="-2.6605">
        <ele>159.80000305176</ele>
        <time>2025-05-15T11:25:40.000Z</time>
      </trkpt>
      <trkpt lat="47.7962" lon="-2.66048">
        <ele>159.60000610352</ele>
        <time>2025-05-15T11:25:41.000Z</time>
      </trkpt>
      <trkpt lat="47.79628" lon="-2.66038">
        <ele>159.19999694824</ele>
        <time>2025-05-15T11:25:45.000Z</time>
      </trkpt>
      <trkpt lat="47.79631" lon="-2.66033">
        <ele>158.80000305176</ele>
        <time>2025-05-15T11:25:47.000Z</time>
      </trkpt>
      <trkpt lat="47.79634" lon="-2.66027">
        <ele>158.39999389648</ele>
        <time>2025-05-15T11:26:16.000Z</time>
      </trkpt>
      <trkpt lat="47.79636" lon="-2.66025">
        <ele>158.60000610352</ele>
        <time>2025-05-15T11:26:17.000Z</time>
      </trkpt>
      <trkpt lat="47.79636" lon="-2.66024">
        <ele>158.60000610352</ele>
        <time>2025-05-15T11:26:18.000Z</time>
      </trkpt>
      <trkpt lat="47.79642" lon="-2.66015">
        <ele>158.39999389648</ele>
        <time>2025-05-15T11:26:21.000Z</time>
      </trkpt>
      <trkpt lat="47.79646" lon="-2.66006">
        <ele>158.39999389648</ele>
        <time>2025-05-15T11:26:23.000Z</time>
      </trkpt>
      <trkpt lat="47.79649" lon="-2.66001">
        <ele>158.19999694824</ele>
        <time>2025-05-15T11:26:24.000Z</time>
      </trkpt>
      <trkpt lat="47.79653" lon="-2.65994">
        <ele>158</ele>
        <time>2025-05-15T11:26:26.000Z</time>
      </trkpt>
      <trkpt lat="47.79654" lon="-2.6599">
        <ele>158</ele>
        <time>2025-05-15T11:26:27.000Z</time>
      </trkpt>
      <trkpt lat="47.79657" lon="-2.65985">
        <ele>158</ele>
        <time>2025-05-15T11:26:28.000Z</time>
      </trkpt>
      <trkpt lat="47.79663" lon="-2.65979">
        <ele>157.80000305176</ele>
        <time>2025-05-15T11:26:30.000Z</time>
      </trkpt>
      <trkpt lat="47.79667" lon="-2.65974">
        <ele>157.60000610352</ele>
        <time>2025-05-15T11:26:32.000Z</time>
      </trkpt>
      <trkpt lat="47.79669" lon="-2.6597">
        <ele>157.39999389648</ele>
        <time>2025-05-15T11:26:33.000Z</time>
      </trkpt>
      <trkpt lat="47.79676" lon="-2.65961">
        <ele>157.39999389648</ele>
        <time>2025-05-15T11:26:35.000Z</time>
      </trkpt>
      <trkpt lat="47.79679" lon="-2.65956">
        <ele>157.39999389648</ele>
        <time>2025-05-15T11:26:36.000Z</time>
      </trkpt>
      <trkpt lat="47.79683" lon="-2.65951">
        <ele>157.19999694824</ele>
        <time>2025-05-15T11:26:37.000Z</time>
      </trkpt>
      <trkpt lat="47.79685" lon="-2.65947">
        <ele>157.19999694824</ele>
        <time>2025-05-15T11:26:38.000Z</time>
      </trkpt>
      <trkpt lat="47.79688" lon="-2.65936">
        <ele>157</ele>
        <time>2025-05-15T11:26:40.000Z</time>
      </trkpt>
      <trkpt lat="47.79695" lon="-2.65916">
        <ele>156.60000610352</ele>
        <time>2025-05-15T11:26:43.000Z</time>
      </trkpt>
      <trkpt lat="47.79698" lon="-2.65904">
        <ele>156.60000610352</ele>
        <time>2025-05-15T11:26:45.000Z</time>
      </trkpt>
      <trkpt lat="47.79701" lon="-2.659">
        <ele>156.39999389648</ele>
        <time>2025-05-15T11:26:46.000Z</time>
      </trkpt>
      <trkpt lat="47.79701" lon="-2.65895">
        <ele>156.39999389648</ele>
        <time>2025-05-15T11:26:47.000Z</time>
      </trkpt>
      <trkpt lat="47.79701" lon="-2.65891">
        <ele>156.19999694824</ele>
        <time>2025-05-15T11:26:48.000Z</time>
      </trkpt>
      <trkpt lat="47.797" lon="-2.65889">
        <ele>156.19999694824</ele>
        <time>2025-05-15T11:26:49.000Z</time>
      </trkpt>
      <trkpt lat="47.79699" lon="-2.65886">
        <ele>156.19999694824</ele>
        <time>2025-05-15T11:26:50.000Z</time>
      </trkpt>
      <trkpt lat="47.79699" lon="-2.65884">
        <ele>156</ele>
        <time>2025-05-15T11:26:51.000Z</time>
      </trkpt>
      <trkpt lat="47.79699" lon="-2.65884">
        <ele>156</ele>
        <time>2025-05-15T11:26:52.000Z</time>
      </trkpt>
      <trkpt lat="47.79697" lon="-2.65884">
        <ele>156</ele>
        <time>2025-05-15T11:26:53.000Z</time>
      </trkpt>
      <trkpt lat="47.79695" lon="-2.65881">
        <ele>156.19999694824</ele>
        <time>2025-05-15T11:26:54.000Z</time>
      </trkpt>
      <trkpt lat="47.79691" lon="-2.65879">
        <ele>156.19999694824</ele>
        <time>2025-05-15T11:26:55.000Z</time>
      </trkpt>
      <trkpt lat="47.79688" lon="-2.65878">
        <ele>156.19999694824</ele>
        <time>2025-05-15T11:26:56.000Z</time>
      </trkpt>
      <trkpt lat="47.79686" lon="-2.65877">
        <ele>156.39999389648</ele>
        <time>2025-05-15T11:26:57.000Z</time>
      </trkpt>
      <trkpt lat="47.79685" lon="-2.65876">
        <ele>156.39999389648</ele>
        <time>2025-05-15T11:26:58.000Z</time>
      </trkpt>
      <trkpt lat="47.79684" lon="-2.65875">
        <ele>156.39999389648</ele>
        <time>2025-05-15T11:26:59.000Z</time>
      </trkpt>
      <trkpt lat="47.79683" lon="-2.65875">
        <ele>157</ele>
        <time>2025-05-15T11:27:01.000Z</time>
      </trkpt>
      <trkpt lat="47.79682" lon="-2.65874">
        <ele>157.39999389648</ele>
        <time>2025-05-15T11:27:02.000Z</time>
      </trkpt>
      <trkpt lat="47.79681" lon="-2.65873">
        <ele>157.80000305176</ele>
        <time>2025-05-15T11:27:03.000Z</time>
      </trkpt>
      <trkpt lat="47.7968" lon="-2.65873">
        <ele>158</ele>
        <time>2025-05-15T11:27:04.000Z</time>
      </trkpt>
      <trkpt lat="47.79679" lon="-2.65872">
        <ele>158.19999694824</ele>
        <time>2025-05-15T11:27:05.000Z</time>
      </trkpt>
      <trkpt lat="47.79678" lon="-2.65872">
        <ele>158.60000610352</ele>
        <time>2025-05-15T11:27:06.000Z</time>
      </trkpt>
      <trkpt lat="47.79674" lon="-2.65868">
        <ele>159.19999694824</ele>
        <time>2025-05-15T11:27:09.000Z</time>
      </trkpt>
      <trkpt lat="47.79672" lon="-2.65867">
        <ele>159.39999389648</ele>
        <time>2025-05-15T11:27:10.000Z</time>
      </trkpt>
      <trkpt lat="47.79671" lon="-2.65867">
        <ele>159.60000610352</ele>
        <time>2025-05-15T11:27:11.000Z</time>
      </trkpt>
      <trkpt lat="47.79669" lon="-2.65865">
        <ele>160.19999694824</ele>
        <time>2025-05-15T11:27:13.000Z</time>
      </trkpt>
      <trkpt lat="47.79667" lon="-2.65864">
        <ele>160.19999694824</ele>
        <time>2025-05-15T11:27:14.000Z</time>
      </trkpt>
      <trkpt lat="47.79666" lon="-2.65863">
        <ele>160.60000610352</ele>
        <time>2025-05-15T11:27:15.000Z</time>
      </trkpt>
      <trkpt lat="47.79664" lon="-2.65862">
        <ele>160.80000305176</ele>
        <time>2025-05-15T11:27:16.000Z</time>
      </trkpt>
      <trkpt lat="47.79663" lon="-2.65861">
        <ele>160.80000305176</ele>
        <time>2025-05-15T11:27:17.000Z</time>
      </trkpt>
      <trkpt lat="47.79662" lon="-2.6586">
        <ele>161</ele>
        <time>2025-05-15T11:27:18.000Z</time>
      </trkpt>
      <trkpt lat="47.79661" lon="-2.65859">
        <ele>161.19999694824</ele>
        <time>2025-05-15T11:27:19.000Z</time>
      </trkpt>
      <trkpt lat="47.7966" lon="-2.65858">
        <ele>161.39999389648</ele>
        <time>2025-05-15T11:27:20.000Z</time>
      </trkpt>
      <trkpt lat="47.79659" lon="-2.65857">
        <ele>161.19999694824</ele>
        <time>2025-05-15T11:27:21.000Z</time>
      </trkpt>
      <trkpt lat="47.79658" lon="-2.65857">
        <ele>161.60000610352</ele>
        <time>2025-05-15T11:27:22.000Z</time>
      </trkpt>
      <trkpt lat="47.79658" lon="-2.65856">
        <ele>161.60000610352</ele>
        <time>2025-05-15T11:27:23.000Z</time>
      </trkpt>
      <trkpt lat="47.79657" lon="-2.65856">
        <ele>161.80000305176</ele>
        <time>2025-05-15T11:27:24.000Z</time>
      </trkpt>
      <trkpt lat="47.79657" lon="-2.65856">
        <ele>162</ele>
        <time>2025-05-15T11:27:25.000Z</time>
      </trkpt>
      <trkpt lat="47.79656" lon="-2.65855">
        <ele>162.19999694824</ele>
        <time>2025-05-15T11:27:26.000Z</time>
      </trkpt>
      <trkpt lat="47.79654" lon="-2.65854">
        <ele>162.19999694824</ele>
        <time>2025-05-15T11:27:27.000Z</time>
      </trkpt>
      <trkpt lat="47.79652" lon="-2.65853">
        <ele>162.39999389648</ele>
        <time>2025-05-15T11:27:28.000Z</time>
      </trkpt>
      <trkpt lat="47.79649" lon="-2.65852">
        <ele>162.39999389648</ele>
        <time>2025-05-15T11:27:29.000Z</time>
      </trkpt>
      <trkpt lat="47.79646" lon="-2.6585">
        <ele>162.60000610352</ele>
        <time>2025-05-15T11:27:30.000Z</time>
      </trkpt>
      <trkpt lat="47.79643" lon="-2.65848">
        <ele>162.60000610352</ele>
        <time>2025-05-15T11:27:31.000Z</time>
      </trkpt>
      <trkpt lat="47.7964" lon="-2.65846">
        <ele>162.60000610352</ele>
        <time>2025-05-15T11:27:32.000Z</time>
      </trkpt>
      <trkpt lat="47.79637" lon="-2.65845">
        <ele>162.80000305176</ele>
        <time>2025-05-15T11:27:33.000Z</time>
      </trkpt>
      <trkpt lat="47.79634" lon="-2.65843">
        <ele>162.80000305176</ele>
        <time>2025-05-15T11:27:34.000Z</time>
      </trkpt>
      <trkpt lat="47.79631" lon="-2.65841">
        <ele>162.80000305176</ele>
        <time>2025-05-15T11:27:35.000Z</time>
      </trkpt>
      <trkpt lat="47.79628" lon="-2.6584">
        <ele>162.80000305176</ele>
        <time>2025-05-15T11:27:36.000Z</time>
      </trkpt>
      <trkpt lat="47.79625" lon="-2.65839">
        <ele>162.80000305176</ele>
        <time>2025-05-15T11:27:37.000Z</time>
      </trkpt>
      <trkpt lat="47.79621" lon="-2.65836">
        <ele>162.80000305176</ele>
        <time>2025-05-15T11:27:38.000Z</time>
      </trkpt>
      <trkpt lat="47.79618" lon="-2.65834">
        <ele>163</ele>
        <time>2025-05-15T11:27:39.000Z</time>
      </trkpt>
      <trkpt lat="47.79614" lon="-2.65832">
        <ele>163</ele>
        <time>2025-05-15T11:27:40.000Z</time>
      </trkpt>
      <trkpt lat="47.79611" lon="-2.6583">
        <ele>163</ele>
        <time>2025-05-15T11:27:41.000Z</time>
      </trkpt>
      <trkpt lat="47.79609" lon="-2.65829">
        <ele>163.19999694824</ele>
        <time>2025-05-15T11:27:42.000Z</time>
      </trkpt>
      <trkpt lat="47.79606" lon="-2.65827">
        <ele>163.19999694824</ele>
        <time>2025-05-15T11:27:43.000Z</time>
      </trkpt>
      <trkpt lat="47.79602" lon="-2.65824">
        <ele>163.19999694824</ele>
        <time>2025-05-15T11:27:44.000Z</time>
      </trkpt>
      <trkpt lat="47.79598" lon="-2.6582">
        <ele>163.39999389648</ele>
        <time>2025-05-15T11:27:45.000Z</time>
      </trkpt>
      <trkpt lat="47.79595" lon="-2.65819">
        <ele>163.39999389648</ele>
        <time>2025-05-15T11:27:46.000Z</time>
      </trkpt>
      <trkpt lat="47.79591" lon="-2.65817">
        <ele>163.39999389648</ele>
        <time>2025-05-15T11:27:47.000Z</time>
      </trkpt>
      <trkpt lat="47.7959" lon="-2.65817">
        <ele>163.19999694824</ele>
        <time>2025-05-15T11:27:48.000Z</time>
      </trkpt>
      <trkpt lat="47.79588" lon="-2.65815">
        <ele>163</ele>
        <time>2025-05-15T11:28:06.000Z</time>
      </trkpt>
      <trkpt lat="47.79587" lon="-2.65813">
        <ele>163</ele>
        <time>2025-05-15T11:28:07.000Z</time>
      </trkpt>
      <trkpt lat="47.79586" lon="-2.65812">
        <ele>163.19999694824</ele>
        <time>2025-05-15T11:28:08.000Z</time>
      </trkpt>
      <trkpt lat="47.7957" lon="-2.658">
        <ele>163.19999694824</ele>
        <time>2025-05-15T11:28:14.000Z</time>
      </trkpt>
      <trkpt lat="47.79561" lon="-2.65794">
        <ele>163</ele>
        <time>2025-05-15T11:28:16.000Z</time>
      </trkpt>
      <trkpt lat="47.79549" lon="-2.65785">
        <ele>162.80000305176</ele>
        <time>2025-05-15T11:28:19.000Z</time>
      </trkpt>
      <trkpt lat="47.79544" lon="-2.65782">
        <ele>162.60000610352</ele>
        <time>2025-05-15T11:28:20.000Z</time>
      </trkpt>
      <trkpt lat="47.79532" lon="-2.65775">
        <ele>162</ele>
        <time>2025-05-15T11:28:23.000Z</time>
      </trkpt>
      <trkpt lat="47.79528" lon="-2.65772">
        <ele>161.80000305176</ele>
        <time>2025-05-15T11:28:24.000Z</time>
      </trkpt>
      <trkpt lat="47.79524" lon="-2.65769">
        <ele>161.80000305176</ele>
        <time>2025-05-15T11:28:25.000Z</time>
      </trkpt>
      <trkpt lat="47.7952" lon="-2.65766">
        <ele>161.60000610352</ele>
        <time>2025-05-15T11:28:26.000Z</time>
      </trkpt>
      <trkpt lat="47.79517" lon="-2.65764">
        <ele>161.60000610352</ele>
        <time>2025-05-15T11:28:27.000Z</time>
      </trkpt>
      <trkpt lat="47.79514" lon="-2.65761">
        <ele>161.39999389648</ele>
        <time>2025-05-15T11:28:28.000Z</time>
      </trkpt>
      <trkpt lat="47.79509" lon="-2.65759">
        <ele>161.60000610352</ele>
        <time>2025-05-15T11:28:29.000Z</time>
      </trkpt>
      <trkpt lat="47.79502" lon="-2.65756">
        <ele>161.19999694824</ele>
        <time>2025-05-15T11:28:31.000Z</time>
      </trkpt>
      <trkpt lat="47.79495" lon="-2.65753">
        <ele>161.19999694824</ele>
        <time>2025-05-15T11:28:33.000Z</time>
      </trkpt>
      <trkpt lat="47.79487" lon="-2.65748">
        <ele>161.19999694824</ele>
        <time>2025-05-15T11:28:35.000Z</time>
      </trkpt>
      <trkpt lat="47.79483" lon="-2.65746">
        <ele>161</ele>
        <time>2025-05-15T11:28:36.000Z</time>
      </trkpt>
      <trkpt lat="47.79479" lon="-2.65746">
        <ele>161</ele>
        <time>2025-05-15T11:28:37.000Z</time>
      </trkpt>
      <trkpt lat="47.79477" lon="-2.65747">
        <ele>161</ele>
        <time>2025-05-15T11:28:38.000Z</time>
      </trkpt>
      <trkpt lat="47.79475" lon="-2.65748">
        <ele>161</ele>
        <time>2025-05-15T11:28:39.000Z</time>
      </trkpt>
      <trkpt lat="47.79473" lon="-2.65748">
        <ele>161</ele>
        <time>2025-05-15T11:28:40.000Z</time>
      </trkpt>
      <trkpt lat="47.79472" lon="-2.65748">
        <ele>161</ele>
        <time>2025-05-15T11:28:41.000Z</time>
      </trkpt>
      <trkpt lat="47.7947" lon="-2.65747">
        <ele>161</ele>
        <time>2025-05-15T11:28:42.000Z</time>
      </trkpt>
      <trkpt lat="47.79468" lon="-2.65747">
        <ele>161</ele>
        <time>2025-05-15T11:28:43.000Z</time>
      </trkpt>
      <trkpt lat="47.79461" lon="-2.65748">
        <ele>161</ele>
        <time>2025-05-15T11:28:46.000Z</time>
      </trkpt>
      <trkpt lat="47.79458" lon="-2.65748">
        <ele>161</ele>
        <time>2025-05-15T11:28:47.000Z</time>
      </trkpt>
      <trkpt lat="47.79456" lon="-2.65747">
        <ele>161</ele>
        <time>2025-05-15T11:28:48.000Z</time>
      </trkpt>
      <trkpt lat="47.79453" lon="-2.65745">
        <ele>160.60000610352</ele>
        <time>2025-05-15T11:28:49.000Z</time>
      </trkpt>
      <trkpt lat="47.79451" lon="-2.65744">
        <ele>160.60000610352</ele>
        <time>2025-05-15T11:28:50.000Z</time>
      </trkpt>
      <trkpt lat="47.79449" lon="-2.65744">
        <ele>160.60000610352</ele>
        <time>2025-05-15T11:28:51.000Z</time>
      </trkpt>
      <trkpt lat="47.79446" lon="-2.65743">
        <ele>160.60000610352</ele>
        <time>2025-05-15T11:28:52.000Z</time>
      </trkpt>
      <trkpt lat="47.79435" lon="-2.65741">
        <ele>160.39999389648</ele>
        <time>2025-05-15T11:28:56.000Z</time>
      </trkpt>
      <trkpt lat="47.79431" lon="-2.65741">
        <ele>160.60000610352</ele>
        <time>2025-05-15T11:28:58.000Z</time>
      </trkpt>
      <trkpt lat="47.79428" lon="-2.65739">
        <ele>160.60000610352</ele>
        <time>2025-05-15T11:28:59.000Z</time>
      </trkpt>
      <trkpt lat="47.79426" lon="-2.65738">
        <ele>160.80000305176</ele>
        <time>2025-05-15T11:29:00.000Z</time>
      </trkpt>
      <trkpt lat="47.79423" lon="-2.65735">
        <ele>160.80000305176</ele>
        <time>2025-05-15T11:29:01.000Z</time>
      </trkpt>
      <trkpt lat="47.7942" lon="-2.65733">
        <ele>160.80000305176</ele>
        <time>2025-05-15T11:29:02.000Z</time>
      </trkpt>
      <trkpt lat="47.79418" lon="-2.65731">
        <ele>160.80000305176</ele>
        <time>2025-05-15T11:29:03.000Z</time>
      </trkpt>
      <trkpt lat="47.79413" lon="-2.65726">
        <ele>160.60000610352</ele>
        <time>2025-05-15T11:29:05.000Z</time>
      </trkpt>
      <trkpt lat="47.79409" lon="-2.65725">
        <ele>160.80000305176</ele>
        <time>2025-05-15T11:29:07.000Z</time>
      </trkpt>
      <trkpt lat="47.79405" lon="-2.65724">
        <ele>160.80000305176</ele>
        <time>2025-05-15T11:29:08.000Z</time>
      </trkpt>
      <trkpt lat="47.79403" lon="-2.65725">
        <ele>160.80000305176</ele>
        <time>2025-05-15T11:29:09.000Z</time>
      </trkpt>
      <trkpt lat="47.79401" lon="-2.65725">
        <ele>160.80000305176</ele>
        <time>2025-05-15T11:29:10.000Z</time>
      </trkpt>
      <trkpt lat="47.79397" lon="-2.65725">
        <ele>160.80000305176</ele>
        <time>2025-05-15T11:29:11.000Z</time>
      </trkpt>
      <trkpt lat="47.79392" lon="-2.65725">
        <ele>160.80000305176</ele>
        <time>2025-05-15T11:29:12.000Z</time>
      </trkpt>
      <trkpt lat="47.79389" lon="-2.65723">
        <ele>160.80000305176</ele>
        <time>2025-05-15T11:29:13.000Z</time>
      </trkpt>
      <trkpt lat="47.79386" lon="-2.6572">
        <ele>160.60000610352</ele>
        <time>2025-05-15T11:29:14.000Z</time>
      </trkpt>
      <trkpt lat="47.79384" lon="-2.65718">
        <ele>160.60000610352</ele>
        <time>2025-05-15T11:29:15.000Z</time>
      </trkpt>
      <trkpt lat="47.79382" lon="-2.65716">
        <ele>160.80000305176</ele>
        <time>2025-05-15T11:29:16.000Z</time>
      </trkpt>
      <trkpt lat="47.7938" lon="-2.65711">
        <ele>160.60000610352</ele>
        <time>2025-05-15T11:29:18.000Z</time>
      </trkpt>
      <trkpt lat="47.7938" lon="-2.65709">
        <ele>160.60000610352</ele>
        <time>2025-05-15T11:29:19.000Z</time>
      </trkpt>
      <trkpt lat="47.79379" lon="-2.65705">
        <ele>160.60000610352</ele>
        <time>2025-05-15T11:29:20.000Z</time>
      </trkpt>
      <trkpt lat="47.79378" lon="-2.65703">
        <ele>160.60000610352</ele>
        <time>2025-05-15T11:29:21.000Z</time>
      </trkpt>
      <trkpt lat="47.79375" lon="-2.65696">
        <ele>160.39999389648</ele>
        <time>2025-05-15T11:29:23.000Z</time>
      </trkpt>
      <trkpt lat="47.79373" lon="-2.65692">
        <ele>160.39999389648</ele>
        <time>2025-05-15T11:29:24.000Z</time>
      </trkpt>
      <trkpt lat="47.79371" lon="-2.65689">
        <ele>160.80000305176</ele>
        <time>2025-05-15T11:29:25.000Z</time>
      </trkpt>
      <trkpt lat="47.79367" lon="-2.65683">
        <ele>160.80000305176</ele>
        <time>2025-05-15T11:29:26.000Z</time>
      </trkpt>
      <trkpt lat="47.79366" lon="-2.65679">
        <ele>161</ele>
        <time>2025-05-15T11:29:27.000Z</time>
      </trkpt>
      <trkpt lat="47.79349" lon="-2.65666">
        <ele>161</ele>
        <time>2025-05-15T11:29:32.000Z</time>
      </trkpt>
      <trkpt lat="47.79346" lon="-2.65664">
        <ele>161</ele>
        <time>2025-05-15T11:29:33.000Z</time>
      </trkpt>
      <trkpt lat="47.79342" lon="-2.65662">
        <ele>161</ele>
        <time>2025-05-15T11:29:34.000Z</time>
      </trkpt>
      <trkpt lat="47.7934" lon="-2.6566">
        <ele>161</ele>
        <time>2025-05-15T11:29:35.000Z</time>
      </trkpt>
      <trkpt lat="47.79338" lon="-2.65659">
        <ele>160.80000305176</ele>
        <time>2025-05-15T11:29:36.000Z</time>
      </trkpt>
      <trkpt lat="47.79338" lon="-2.65658">
        <ele>160.80000305176</ele>
        <time>2025-05-15T11:29:37.000Z</time>
      </trkpt>
      <trkpt lat="47.79337" lon="-2.65657">
        <ele>160.80000305176</ele>
        <time>2025-05-15T11:29:47.000Z</time>
      </trkpt>
      <trkpt lat="47.79336" lon="-2.65655">
        <ele>160.80000305176</ele>
        <time>2025-05-15T11:29:48.000Z</time>
      </trkpt>
      <trkpt lat="47.79334" lon="-2.65653">
        <ele>161</ele>
        <time>2025-05-15T11:29:49.000Z</time>
      </trkpt>
      <trkpt lat="47.7933" lon="-2.65649">
        <ele>161.39999389648</ele>
        <time>2025-05-15T11:29:52.000Z</time>
      </trkpt>
      <trkpt lat="47.79326" lon="-2.65647">
        <ele>161.39999389648</ele>
        <time>2025-05-15T11:29:55.000Z</time>
      </trkpt>
      <trkpt lat="47.79324" lon="-2.65646">
        <ele>161.39999389648</ele>
        <time>2025-05-15T11:29:56.000Z</time>
      </trkpt>
      <trkpt lat="47.79323" lon="-2.65645">
        <ele>161.39999389648</ele>
        <time>2025-05-15T11:29:57.000Z</time>
      </trkpt>
      <trkpt lat="47.7932" lon="-2.65645">
        <ele>161.39999389648</ele>
        <time>2025-05-15T11:29:58.000Z</time>
      </trkpt>
      <trkpt lat="47.79315" lon="-2.65642">
        <ele>161.39999389648</ele>
        <time>2025-05-15T11:30:01.000Z</time>
      </trkpt>
      <trkpt lat="47.79304" lon="-2.65634">
        <ele>161.39999389648</ele>
        <time>2025-05-15T11:30:05.000Z</time>
      </trkpt>
      <trkpt lat="47.79301" lon="-2.65632">
        <ele>161.60000610352</ele>
        <time>2025-05-15T11:30:06.000Z</time>
      </trkpt>
      <trkpt lat="47.79301" lon="-2.65632">
        <ele>161.60000610352</ele>
        <time>2025-05-15T11:30:07.000Z</time>
      </trkpt>
      <trkpt lat="47.79299" lon="-2.65631">
        <ele>161.80000305176</ele>
        <time>2025-05-15T11:30:08.000Z</time>
      </trkpt>
      <trkpt lat="47.79293" lon="-2.65626">
        <ele>162.19999694824</ele>
        <time>2025-05-15T11:30:10.000Z</time>
      </trkpt>
      <trkpt lat="47.79289" lon="-2.65622">
        <ele>162.19999694824</ele>
        <time>2025-05-15T11:30:12.000Z</time>
      </trkpt>
      <trkpt lat="47.79287" lon="-2.6562">
        <ele>162.39999389648</ele>
        <time>2025-05-15T11:30:13.000Z</time>
      </trkpt>
      <trkpt lat="47.79286" lon="-2.65619">
        <ele>162.39999389648</ele>
        <time>2025-05-15T11:30:14.000Z</time>
      </trkpt>
      <trkpt lat="47.7928" lon="-2.65614">
        <ele>162.39999389648</ele>
        <time>2025-05-15T11:30:18.000Z</time>
      </trkpt>
      <trkpt lat="47.79271" lon="-2.65611">
        <ele>162.39999389648</ele>
        <time>2025-05-15T11:30:21.000Z</time>
      </trkpt>
      <trkpt lat="47.79266" lon="-2.65608">
        <ele>162.60000610352</ele>
        <time>2025-05-15T11:30:22.000Z</time>
      </trkpt>
      <trkpt lat="47.79262" lon="-2.65606">
        <ele>162.60000610352</ele>
        <time>2025-05-15T11:30:23.000Z</time>
      </trkpt>
      <trkpt lat="47.79258" lon="-2.65604">
        <ele>162.60000610352</ele>
        <time>2025-05-15T11:30:24.000Z</time>
      </trkpt>
      <trkpt lat="47.79249" lon="-2.656">
        <ele>162.60000610352</ele>
        <time>2025-05-15T11:30:26.000Z</time>
      </trkpt>
      <trkpt lat="47.79239" lon="-2.65592">
        <ele>162.60000610352</ele>
        <time>2025-05-15T11:30:29.000Z</time>
      </trkpt>
      <trkpt lat="47.79235" lon="-2.6559">
        <ele>162.60000610352</ele>
        <time>2025-05-15T11:30:30.000Z</time>
      </trkpt>
      <trkpt lat="47.79231" lon="-2.65587">
        <ele>162.39999389648</ele>
        <time>2025-05-15T11:30:31.000Z</time>
      </trkpt>
      <trkpt lat="47.79226" lon="-2.65582">
        <ele>162.39999389648</ele>
        <time>2025-05-15T11:30:32.000Z</time>
      </trkpt>
      <trkpt lat="47.79219" lon="-2.65576">
        <ele>162.39999389648</ele>
        <time>2025-05-15T11:30:34.000Z</time>
      </trkpt>
      <trkpt lat="47.79217" lon="-2.65573">
        <ele>162.19999694824</ele>
        <time>2025-05-15T11:30:35.000Z</time>
      </trkpt>
      <trkpt lat="47.79214" lon="-2.6557">
        <ele>162.19999694824</ele>
        <time>2025-05-15T11:30:36.000Z</time>
      </trkpt>
      <trkpt lat="47.79211" lon="-2.65567">
        <ele>162.19999694824</ele>
        <time>2025-05-15T11:30:37.000Z</time>
      </trkpt>
      <trkpt lat="47.79204" lon="-2.65555">
        <ele>162.19999694824</ele>
        <time>2025-05-15T11:30:40.000Z</time>
      </trkpt>
      <trkpt lat="47.79205" lon="-2.65541">
        <ele>162</ele>
        <time>2025-05-15T11:30:43.000Z</time>
      </trkpt>
      <trkpt lat="47.79204" lon="-2.65538">
        <ele>162</ele>
        <time>2025-05-15T11:30:44.000Z</time>
      </trkpt>
      <trkpt lat="47.79203" lon="-2.65532">
        <ele>162.19999694824</ele>
        <time>2025-05-15T11:30:45.000Z</time>
      </trkpt>
      <trkpt lat="47.79203" lon="-2.65524">
        <ele>162.19999694824</ele>
        <time>2025-05-15T11:30:46.000Z</time>
      </trkpt>
      <trkpt lat="47.79203" lon="-2.65515">
        <ele>162</ele>
        <time>2025-05-15T11:30:47.000Z</time>
      </trkpt>
      <trkpt lat="47.79201" lon="-2.65506">
        <ele>162</ele>
        <time>2025-05-15T11:30:48.000Z</time>
      </trkpt>
      <trkpt lat="47.792" lon="-2.65495">
        <ele>162</ele>
        <time>2025-05-15T11:30:50.000Z</time>
      </trkpt>
      <trkpt lat="47.79201" lon="-2.65488">
        <ele>162.19999694824</ele>
        <time>2025-05-15T11:30:51.000Z</time>
      </trkpt>
      <trkpt lat="47.79201" lon="-2.6548">
        <ele>162.19999694824</ele>
        <time>2025-05-15T11:30:52.000Z</time>
      </trkpt>
      <trkpt lat="47.79202" lon="-2.65473">
        <ele>162</ele>
        <time>2025-05-15T11:30:53.000Z</time>
      </trkpt>
      <trkpt lat="47.79202" lon="-2.6546">
        <ele>162</ele>
        <time>2025-05-15T11:30:55.000Z</time>
      </trkpt>
      <trkpt lat="47.79201" lon="-2.65453">
        <ele>161.80000305176</ele>
        <time>2025-05-15T11:30:56.000Z</time>
      </trkpt>
      <trkpt lat="47.79202" lon="-2.65447">
        <ele>161.80000305176</ele>
        <time>2025-05-15T11:30:57.000Z</time>
      </trkpt>
      <trkpt lat="47.79202" lon="-2.65434">
        <ele>161.80000305176</ele>
        <time>2025-05-15T11:30:59.000Z</time>
      </trkpt>
      <trkpt lat="47.792" lon="-2.6542">
        <ele>161.80000305176</ele>
        <time>2025-05-15T11:31:01.000Z</time>
      </trkpt>
      <trkpt lat="47.792" lon="-2.65413">
        <ele>162</ele>
        <time>2025-05-15T11:31:02.000Z</time>
      </trkpt>
      <trkpt lat="47.79201" lon="-2.65399">
        <ele>161.80000305176</ele>
        <time>2025-05-15T11:31:03.000Z</time>
      </trkpt>
      <trkpt lat="47.79201" lon="-2.65388">
        <ele>161.80000305176</ele>
        <time>2025-05-15T11:31:05.000Z</time>
      </trkpt>
      <trkpt lat="47.792" lon="-2.65382">
        <ele>162.19999694824</ele>
        <time>2025-05-15T11:31:06.000Z</time>
      </trkpt>
      <trkpt lat="47.79198" lon="-2.65372">
        <ele>162.39999389648</ele>
        <time>2025-05-15T11:31:08.000Z</time>
      </trkpt>
      <trkpt lat="47.79197" lon="-2.65362">
        <ele>162.39999389648</ele>
        <time>2025-05-15T11:31:10.000Z</time>
      </trkpt>
      <trkpt lat="47.79197" lon="-2.65359">
        <ele>162.39999389648</ele>
        <time>2025-05-15T11:31:11.000Z</time>
      </trkpt>
      <trkpt lat="47.79196" lon="-2.65353">
        <ele>162.39999389648</ele>
        <time>2025-05-15T11:31:12.000Z</time>
      </trkpt>
      <trkpt lat="47.79196" lon="-2.65338">
        <ele>162.39999389648</ele>
        <time>2025-05-15T11:31:14.000Z</time>
      </trkpt>
      <trkpt lat="47.79198" lon="-2.65331">
        <ele>162.19999694824</ele>
        <time>2025-05-15T11:31:15.000Z</time>
      </trkpt>
      <trkpt lat="47.79199" lon="-2.65325">
        <ele>162.19999694824</ele>
        <time>2025-05-15T11:31:16.000Z</time>
      </trkpt>
      <trkpt lat="47.792" lon="-2.65319">
        <ele>162.19999694824</ele>
        <time>2025-05-15T11:31:17.000Z</time>
      </trkpt>
      <trkpt lat="47.79198" lon="-2.65312">
        <ele>162.19999694824</ele>
        <time>2025-05-15T11:31:18.000Z</time>
      </trkpt>
      <trkpt lat="47.79195" lon="-2.65298">
        <ele>162.19999694824</ele>
        <time>2025-05-15T11:31:20.000Z</time>
      </trkpt>
      <trkpt lat="47.79194" lon="-2.65288">
        <ele>162.19999694824</ele>
        <time>2025-05-15T11:31:21.000Z</time>
      </trkpt>
      <trkpt lat="47.79196" lon="-2.65279">
        <ele>162.19999694824</ele>
        <time>2025-05-15T11:31:22.000Z</time>
      </trkpt>
      <trkpt lat="47.79195" lon="-2.65269">
        <ele>162.39999389648</ele>
        <time>2025-05-15T11:31:24.000Z</time>
      </trkpt>
      <trkpt lat="47.79195" lon="-2.65258">
        <ele>162.39999389648</ele>
        <time>2025-05-15T11:31:26.000Z</time>
      </trkpt>
      <trkpt lat="47.79196" lon="-2.65245">
        <ele>162.39999389648</ele>
        <time>2025-05-15T11:31:28.000Z</time>
      </trkpt>
      <trkpt lat="47.79196" lon="-2.65237">
        <ele>162.60000610352</ele>
        <time>2025-05-15T11:31:29.000Z</time>
      </trkpt>
      <trkpt lat="47.79194" lon="-2.65221">
        <ele>162.60000610352</ele>
        <time>2025-05-15T11:31:31.000Z</time>
      </trkpt>
      <trkpt lat="47.79194" lon="-2.65215">
        <ele>162.60000610352</ele>
        <time>2025-05-15T11:31:32.000Z</time>
      </trkpt>
      <trkpt lat="47.79194" lon="-2.65197">
        <ele>162.80000305176</ele>
        <time>2025-05-15T11:31:34.000Z</time>
      </trkpt>
      <trkpt lat="47.79194" lon="-2.6519">
        <ele>162.80000305176</ele>
        <time>2025-05-15T11:31:35.000Z</time>
      </trkpt>
      <trkpt lat="47.79195" lon="-2.65183">
        <ele>162.80000305176</ele>
        <time>2025-05-15T11:31:36.000Z</time>
      </trkpt>
      <trkpt lat="47.79195" lon="-2.65176">
        <ele>162.80000305176</ele>
        <time>2025-05-15T11:31:37.000Z</time>
      </trkpt>
      <trkpt lat="47.79193" lon="-2.65166">
        <ele>163.19999694824</ele>
        <time>2025-05-15T11:31:38.000Z</time>
      </trkpt>
      <trkpt lat="47.79193" lon="-2.6516">
        <ele>163.19999694824</ele>
        <time>2025-05-15T11:31:39.000Z</time>
      </trkpt>
      <trkpt lat="47.79191" lon="-2.6515">
        <ele>163.39999389648</ele>
        <time>2025-05-15T11:31:41.000Z</time>
      </trkpt>
      <trkpt lat="47.79189" lon="-2.65142">
        <ele>163.39999389648</ele>
        <time>2025-05-15T11:31:42.000Z</time>
      </trkpt>
      <trkpt lat="47.79191" lon="-2.65122">
        <ele>163.39999389648</ele>
        <time>2025-05-15T11:31:44.000Z</time>
      </trkpt>
      <trkpt lat="47.79193" lon="-2.65115">
        <ele>163.39999389648</ele>
        <time>2025-05-15T11:31:45.000Z</time>
      </trkpt>
      <trkpt lat="47.79194" lon="-2.65107">
        <ele>163.39999389648</ele>
        <time>2025-05-15T11:31:46.000Z</time>
      </trkpt>
      <trkpt lat="47.79194" lon="-2.65101">
        <ele>163.39999389648</ele>
        <time>2025-05-15T11:31:47.000Z</time>
      </trkpt>
      <trkpt lat="47.79193" lon="-2.65073">
        <ele>163.19999694824</ele>
        <time>2025-05-15T11:31:51.000Z</time>
      </trkpt>
      <trkpt lat="47.79193" lon="-2.65066">
        <ele>163</ele>
        <time>2025-05-15T11:31:52.000Z</time>
      </trkpt>
      <trkpt lat="47.79194" lon="-2.65062">
        <ele>163</ele>
        <time>2025-05-15T11:31:53.000Z</time>
      </trkpt>
      <trkpt lat="47.79194" lon="-2.65053">
        <ele>162.80000305176</ele>
        <time>2025-05-15T11:31:54.000Z</time>
      </trkpt>
      <trkpt lat="47.79196" lon="-2.65048">
        <ele>162.80000305176</ele>
        <time>2025-05-15T11:31:55.000Z</time>
      </trkpt>
      <trkpt lat="47.79194" lon="-2.65039">
        <ele>162.80000305176</ele>
        <time>2025-05-15T11:31:56.000Z</time>
      </trkpt>
      <trkpt lat="47.79193" lon="-2.65033">
        <ele>162.80000305176</ele>
        <time>2025-05-15T11:31:57.000Z</time>
      </trkpt>
      <trkpt lat="47.79194" lon="-2.65025">
        <ele>162.80000305176</ele>
        <time>2025-05-15T11:31:58.000Z</time>
      </trkpt>
      <trkpt lat="47.79194" lon="-2.65019">
        <ele>162.80000305176</ele>
        <time>2025-05-15T11:31:59.000Z</time>
      </trkpt>
      <trkpt lat="47.79193" lon="-2.64994">
        <ele>163.19999694824</ele>
        <time>2025-05-15T11:32:02.000Z</time>
      </trkpt>
      <trkpt lat="47.79193" lon="-2.64985">
        <ele>163.19999694824</ele>
        <time>2025-05-15T11:32:03.000Z</time>
      </trkpt>
      <trkpt lat="47.79193" lon="-2.64976">
        <ele>163.19999694824</ele>
        <time>2025-05-15T11:32:04.000Z</time>
      </trkpt>
      <trkpt lat="47.79193" lon="-2.64952">
        <ele>163</ele>
        <time>2025-05-15T11:32:06.000Z</time>
      </trkpt>
      <trkpt lat="47.79191" lon="-2.64927">
        <ele>163</ele>
        <time>2025-05-15T11:32:08.000Z</time>
      </trkpt>
      <trkpt lat="47.79191" lon="-2.6492">
        <ele>163</ele>
        <time>2025-05-15T11:32:09.000Z</time>
      </trkpt>
      <trkpt lat="47.79192" lon="-2.64914">
        <ele>163</ele>
        <time>2025-05-15T11:32:10.000Z</time>
      </trkpt>
      <trkpt lat="47.79192" lon="-2.64902">
        <ele>163</ele>
        <time>2025-05-15T11:32:12.000Z</time>
      </trkpt>
      <trkpt lat="47.79193" lon="-2.64886">
        <ele>163</ele>
        <time>2025-05-15T11:32:14.000Z</time>
      </trkpt>
      <trkpt lat="47.79194" lon="-2.64875">
        <ele>163</ele>
        <time>2025-05-15T11:32:15.000Z</time>
      </trkpt>
      <trkpt lat="47.79193" lon="-2.64861">
        <ele>163</ele>
        <time>2025-05-15T11:32:16.000Z</time>
      </trkpt>
      <trkpt lat="47.79192" lon="-2.6485">
        <ele>163</ele>
        <time>2025-05-15T11:32:17.000Z</time>
      </trkpt>
      <trkpt lat="47.79191" lon="-2.64843">
        <ele>163</ele>
        <time>2025-05-15T11:32:18.000Z</time>
      </trkpt>
      <trkpt lat="47.79191" lon="-2.64833">
        <ele>163</ele>
        <time>2025-05-15T11:32:20.000Z</time>
      </trkpt>
      <trkpt lat="47.79192" lon="-2.64827">
        <ele>162.80000305176</ele>
        <time>2025-05-15T11:32:21.000Z</time>
      </trkpt>
      <trkpt lat="47.79194" lon="-2.64819">
        <ele>162.80000305176</ele>
        <time>2025-05-15T11:32:22.000Z</time>
      </trkpt>
      <trkpt lat="47.79196" lon="-2.64811">
        <ele>162.80000305176</ele>
        <time>2025-05-15T11:32:23.000Z</time>
      </trkpt>
      <trkpt lat="47.79195" lon="-2.64804">
        <ele>162.80000305176</ele>
        <time>2025-05-15T11:32:24.000Z</time>
      </trkpt>
      <trkpt lat="47.79194" lon="-2.64798">
        <ele>162.80000305176</ele>
        <time>2025-05-15T11:32:25.000Z</time>
      </trkpt>
      <trkpt lat="47.79194" lon="-2.64793">
        <ele>162.80000305176</ele>
        <time>2025-05-15T11:32:26.000Z</time>
      </trkpt>
      <trkpt lat="47.79193" lon="-2.64784">
        <ele>162.60000610352</ele>
        <time>2025-05-15T11:32:27.000Z</time>
      </trkpt>
      <trkpt lat="47.79193" lon="-2.64778">
        <ele>162.60000610352</ele>
        <time>2025-05-15T11:32:28.000Z</time>
      </trkpt>
      <trkpt lat="47.79194" lon="-2.64774">
        <ele>162.60000610352</ele>
        <time>2025-05-15T11:32:29.000Z</time>
      </trkpt>
      <trkpt lat="47.79193" lon="-2.64767">
        <ele>162.60000610352</ele>
        <time>2025-05-15T11:32:30.000Z</time>
      </trkpt>
      <trkpt lat="47.79193" lon="-2.6476">
        <ele>162.60000610352</ele>
        <time>2025-05-15T11:32:31.000Z</time>
      </trkpt>
      <trkpt lat="47.79193" lon="-2.64753">
        <ele>162.60000610352</ele>
        <time>2025-05-15T11:32:32.000Z</time>
      </trkpt>
      <trkpt lat="47.79194" lon="-2.64744">
        <ele>162.60000610352</ele>
        <time>2025-05-15T11:32:33.000Z</time>
      </trkpt>
      <trkpt lat="47.79193" lon="-2.64734">
        <ele>162.60000610352</ele>
        <time>2025-05-15T11:32:34.000Z</time>
      </trkpt>
      <trkpt lat="47.79194" lon="-2.64724">
        <ele>162.60000610352</ele>
        <time>2025-05-15T11:32:35.000Z</time>
      </trkpt>
      <trkpt lat="47.79194" lon="-2.64716">
        <ele>162.80000305176</ele>
        <time>2025-05-15T11:32:36.000Z</time>
      </trkpt>
      <trkpt lat="47.79193" lon="-2.6471">
        <ele>162.80000305176</ele>
        <time>2025-05-15T11:32:37.000Z</time>
      </trkpt>
      <trkpt lat="47.79192" lon="-2.64701">
        <ele>162.80000305176</ele>
        <time>2025-05-15T11:32:38.000Z</time>
      </trkpt>
      <trkpt lat="47.7919" lon="-2.64685">
        <ele>162.60000610352</ele>
        <time>2025-05-15T11:32:39.000Z</time>
      </trkpt>
      <trkpt lat="47.7919" lon="-2.64675">
        <ele>162.60000610352</ele>
        <time>2025-05-15T11:32:40.000Z</time>
      </trkpt>
      <trkpt lat="47.7919" lon="-2.64665">
        <ele>162.60000610352</ele>
        <time>2025-05-15T11:32:41.000Z</time>
      </trkpt>
      <trkpt lat="47.79191" lon="-2.6466">
        <ele>162.80000305176</ele>
        <time>2025-05-15T11:32:42.000Z</time>
      </trkpt>
      <trkpt lat="47.79192" lon="-2.64656">
        <ele>162.80000305176</ele>
        <time>2025-05-15T11:32:43.000Z</time>
      </trkpt>
      <trkpt lat="47.79193" lon="-2.64649">
        <ele>162.80000305176</ele>
        <time>2025-05-15T11:32:44.000Z</time>
      </trkpt>
      <trkpt lat="47.79192" lon="-2.64644">
        <ele>162.80000305176</ele>
        <time>2025-05-15T11:32:45.000Z</time>
      </trkpt>
      <trkpt lat="47.79191" lon="-2.64639">
        <ele>162.80000305176</ele>
        <time>2025-05-15T11:32:46.000Z</time>
      </trkpt>
      <trkpt lat="47.79191" lon="-2.64634">
        <ele>162.80000305176</ele>
        <time>2025-05-15T11:32:47.000Z</time>
      </trkpt>
      <trkpt lat="47.79192" lon="-2.64629">
        <ele>163</ele>
        <time>2025-05-15T11:32:48.000Z</time>
      </trkpt>
      <trkpt lat="47.79192" lon="-2.64625">
        <ele>163.19999694824</ele>
        <time>2025-05-15T11:32:49.000Z</time>
      </trkpt>
      <trkpt lat="47.79192" lon="-2.64622">
        <ele>163.39999389648</ele>
        <time>2025-05-15T11:32:50.000Z</time>
      </trkpt>
      <trkpt lat="47.79191" lon="-2.64619">
        <ele>163.39999389648</ele>
        <time>2025-05-15T11:32:51.000Z</time>
      </trkpt>
      <trkpt lat="47.7919" lon="-2.64613">
        <ele>163.60000610352</ele>
        <time>2025-05-15T11:32:52.000Z</time>
      </trkpt>
      <trkpt lat="47.7919" lon="-2.64606">
        <ele>163.80000305176</ele>
        <time>2025-05-15T11:32:53.000Z</time>
      </trkpt>
      <trkpt lat="47.79189" lon="-2.64603">
        <ele>163.80000305176</ele>
        <time>2025-05-15T11:32:54.000Z</time>
      </trkpt>
      <trkpt lat="47.7919" lon="-2.64599">
        <ele>163.80000305176</ele>
        <time>2025-05-15T11:32:55.000Z</time>
      </trkpt>
      <trkpt lat="47.79191" lon="-2.64596">
        <ele>164</ele>
        <time>2025-05-15T11:32:56.000Z</time>
      </trkpt>
      <trkpt lat="47.79191" lon="-2.64592">
        <ele>164.39999389648</ele>
        <time>2025-05-15T11:32:57.000Z</time>
      </trkpt>
      <trkpt lat="47.79191" lon="-2.64589">
        <ele>164.60000610352</ele>
        <time>2025-05-15T11:32:58.000Z</time>
      </trkpt>
      <trkpt lat="47.79192" lon="-2.64586">
        <ele>164.80000305176</ele>
        <time>2025-05-15T11:32:59.000Z</time>
      </trkpt>
      <trkpt lat="47.79194" lon="-2.64582">
        <ele>165.19999694824</ele>
        <time>2025-05-15T11:33:00.000Z</time>
      </trkpt>
      <trkpt lat="47.79194" lon="-2.64572">
        <ele>165.39999389648</ele>
        <time>2025-05-15T11:33:02.000Z</time>
      </trkpt>
      <trkpt lat="47.79192" lon="-2.64565">
        <ele>165.80000305176</ele>
        <time>2025-05-15T11:33:05.000Z</time>
      </trkpt>
      <trkpt lat="47.79191" lon="-2.64559">
        <ele>165.80000305176</ele>
        <time>2025-05-15T11:33:06.000Z</time>
      </trkpt>
      <trkpt lat="47.7919" lon="-2.64552">
        <ele>166</ele>
        <time>2025-05-15T11:33:07.000Z</time>
      </trkpt>
      <trkpt lat="47.7919" lon="-2.64548">
        <ele>166.19999694824</ele>
        <time>2025-05-15T11:33:08.000Z</time>
      </trkpt>
      <trkpt lat="47.7919" lon="-2.64545">
        <ele>166.39999389648</ele>
        <time>2025-05-15T11:33:09.000Z</time>
      </trkpt>
      <trkpt lat="47.7919" lon="-2.64539">
        <ele>166.39999389648</ele>
        <time>2025-05-15T11:33:10.000Z</time>
      </trkpt>
      <trkpt lat="47.79192" lon="-2.64537">
        <ele>166.39999389648</ele>
        <time>2025-05-15T11:33:11.000Z</time>
      </trkpt>
      <trkpt lat="47.79192" lon="-2.64532">
        <ele>166.39999389648</ele>
        <time>2025-05-15T11:33:12.000Z</time>
      </trkpt>
      <trkpt lat="47.79192" lon="-2.64527">
        <ele>166.60000610352</ele>
        <time>2025-05-15T11:33:13.000Z</time>
      </trkpt>
      <trkpt lat="47.79193" lon="-2.64523">
        <ele>166.60000610352</ele>
        <time>2025-05-15T11:33:14.000Z</time>
      </trkpt>
      <trkpt lat="47.79193" lon="-2.64518">
        <ele>166.80000305176</ele>
        <time>2025-05-15T11:33:15.000Z</time>
      </trkpt>
      <trkpt lat="47.79192" lon="-2.64513">
        <ele>166.80000305176</ele>
        <time>2025-05-15T11:33:16.000Z</time>
      </trkpt>
      <trkpt lat="47.79192" lon="-2.64509">
        <ele>167</ele>
        <time>2025-05-15T11:33:17.000Z</time>
      </trkpt>
      <trkpt lat="47.79194" lon="-2.64505">
        <ele>167.19999694824</ele>
        <time>2025-05-15T11:33:18.000Z</time>
      </trkpt>
      <trkpt lat="47.79194" lon="-2.64501">
        <ele>167.19999694824</ele>
        <time>2025-05-15T11:33:19.000Z</time>
      </trkpt>
      <trkpt lat="47.79194" lon="-2.64497">
        <ele>167.19999694824</ele>
        <time>2025-05-15T11:33:20.000Z</time>
      </trkpt>
      <trkpt lat="47.79194" lon="-2.64495">
        <ele>167.19999694824</ele>
        <time>2025-05-15T11:33:21.000Z</time>
      </trkpt>
      <trkpt lat="47.79193" lon="-2.64494">
        <ele>167.39999389648</ele>
        <time>2025-05-15T11:33:22.000Z</time>
      </trkpt>
      <trkpt lat="47.79192" lon="-2.64492">
        <ele>167.39999389648</ele>
        <time>2025-05-15T11:33:23.000Z</time>
      </trkpt>
      <trkpt lat="47.7919" lon="-2.64487">
        <ele>167.60000610352</ele>
        <time>2025-05-15T11:33:24.000Z</time>
      </trkpt>
      <trkpt lat="47.79188" lon="-2.64484">
        <ele>167.60000610352</ele>
        <time>2025-05-15T11:33:25.000Z</time>
      </trkpt>
      <trkpt lat="47.79186" lon="-2.64478">
        <ele>167.60000610352</ele>
        <time>2025-05-15T11:33:26.000Z</time>
      </trkpt>
      <trkpt lat="47.79184" lon="-2.64472">
        <ele>167.80000305176</ele>
        <time>2025-05-15T11:33:27.000Z</time>
      </trkpt>
      <trkpt lat="47.79184" lon="-2.64469">
        <ele>168</ele>
        <time>2025-05-15T11:33:28.000Z</time>
      </trkpt>
      <trkpt lat="47.79183" lon="-2.64462">
        <ele>168.19999694824</ele>
        <time>2025-05-15T11:33:29.000Z</time>
      </trkpt>
      <trkpt lat="47.79182" lon="-2.64455">
        <ele>168.19999694824</ele>
        <time>2025-05-15T11:33:30.000Z</time>
      </trkpt>
      <trkpt lat="47.7918" lon="-2.64449">
        <ele>168.19999694824</ele>
        <time>2025-05-15T11:33:31.000Z</time>
      </trkpt>
      <trkpt lat="47.79178" lon="-2.64445">
        <ele>168.39999389648</ele>
        <time>2025-05-15T11:33:32.000Z</time>
      </trkpt>
      <trkpt lat="47.79176" lon="-2.6444">
        <ele>168.39999389648</ele>
        <time>2025-05-15T11:33:33.000Z</time>
      </trkpt>
      <trkpt lat="47.79175" lon="-2.64437">
        <ele>168.39999389648</ele>
        <time>2025-05-15T11:33:34.000Z</time>
      </trkpt>
      <trkpt lat="47.79174" lon="-2.64434">
        <ele>168.19999694824</ele>
        <time>2025-05-15T11:33:35.000Z</time>
      </trkpt>
      <trkpt lat="47.79173" lon="-2.64432">
        <ele>168.39999389648</ele>
        <time>2025-05-15T11:33:36.000Z</time>
      </trkpt>
      <trkpt lat="47.79173" lon="-2.6443">
        <ele>168.19999694824</ele>
        <time>2025-05-15T11:33:37.000Z</time>
      </trkpt>
      <trkpt lat="47.79173" lon="-2.64427">
        <ele>168.19999694824</ele>
        <time>2025-05-15T11:33:39.000Z</time>
      </trkpt>
      <trkpt lat="47.79174" lon="-2.64426">
        <ele>168.19999694824</ele>
        <time>2025-05-15T11:33:40.000Z</time>
      </trkpt>
      <trkpt lat="47.79176" lon="-2.64413">
        <ele>168.19999694824</ele>
        <time>2025-05-15T11:33:44.000Z</time>
      </trkpt>
      <trkpt lat="47.79175" lon="-2.64404">
        <ele>168.19999694824</ele>
        <time>2025-05-15T11:33:46.000Z</time>
      </trkpt>
      <trkpt lat="47.79174" lon="-2.64398">
        <ele>168.19999694824</ele>
        <time>2025-05-15T11:33:47.000Z</time>
      </trkpt>
      <trkpt lat="47.79172" lon="-2.64393">
        <ele>168.19999694824</ele>
        <time>2025-05-15T11:33:48.000Z</time>
      </trkpt>
      <trkpt lat="47.79168" lon="-2.64381">
        <ele>168.39999389648</ele>
        <time>2025-05-15T11:33:50.000Z</time>
      </trkpt>
      <trkpt lat="47.79166" lon="-2.64374">
        <ele>168.19999694824</ele>
        <time>2025-05-15T11:33:51.000Z</time>
      </trkpt>
      <trkpt lat="47.79157" lon="-2.64331">
        <ele>167.80000305176</ele>
        <time>2025-05-15T11:33:56.000Z</time>
      </trkpt>
      <trkpt lat="47.7915" lon="-2.64296">
        <ele>167.19999694824</ele>
        <time>2025-05-15T11:33:59.000Z</time>
      </trkpt>
      <trkpt lat="47.79146" lon="-2.64282">
        <ele>167</ele>
        <time>2025-05-15T11:34:00.000Z</time>
      </trkpt>
      <trkpt lat="47.79144" lon="-2.64268">
        <ele>166.60000610352</ele>
        <time>2025-05-15T11:34:01.000Z</time>
      </trkpt>
      <trkpt lat="47.79136" lon="-2.64226">
        <ele>165.80000305176</ele>
        <time>2025-05-15T11:34:04.000Z</time>
      </trkpt>
      <trkpt lat="47.7913" lon="-2.64199">
        <ele>165</ele>
        <time>2025-05-15T11:34:06.000Z</time>
      </trkpt>
      <trkpt lat="47.79121" lon="-2.64172">
        <ele>164.19999694824</ele>
        <time>2025-05-15T11:34:08.000Z</time>
      </trkpt>
      <trkpt lat="47.79112" lon="-2.6414">
        <ele>163.60000610352</ele>
        <time>2025-05-15T11:34:10.000Z</time>
      </trkpt>
      <trkpt lat="47.79109" lon="-2.64124">
        <ele>163</ele>
        <time>2025-05-15T11:34:11.000Z</time>
      </trkpt>
      <trkpt lat="47.79103" lon="-2.64094">
        <ele>162</ele>
        <time>2025-05-15T11:34:13.000Z</time>
      </trkpt>
      <trkpt lat="47.791" lon="-2.64079">
        <ele>161.39999389648</ele>
        <time>2025-05-15T11:34:14.000Z</time>
      </trkpt>
      <trkpt lat="47.79097" lon="-2.64064">
        <ele>160.60000610352</ele>
        <time>2025-05-15T11:34:15.000Z</time>
      </trkpt>
      <trkpt lat="47.79094" lon="-2.64051">
        <ele>160.39999389648</ele>
        <time>2025-05-15T11:34:16.000Z</time>
      </trkpt>
      <trkpt lat="47.79088" lon="-2.64013">
        <ele>160</ele>
        <time>2025-05-15T11:34:19.000Z</time>
      </trkpt>
      <trkpt lat="47.79086" lon="-2.64">
        <ele>159.80000305176</ele>
        <time>2025-05-15T11:34:20.000Z</time>
      </trkpt>
      <trkpt lat="47.79083" lon="-2.63987">
        <ele>159.39999389648</ele>
        <time>2025-05-15T11:34:21.000Z</time>
      </trkpt>
      <trkpt lat="47.79079" lon="-2.63976">
        <ele>159</ele>
        <time>2025-05-15T11:34:22.000Z</time>
      </trkpt>
      <trkpt lat="47.79075" lon="-2.63961">
        <ele>158.60000610352</ele>
        <time>2025-05-15T11:34:23.000Z</time>
      </trkpt>
      <trkpt lat="47.79074" lon="-2.6395">
        <ele>158.39999389648</ele>
        <time>2025-05-15T11:34:24.000Z</time>
      </trkpt>
      <trkpt lat="47.79072" lon="-2.63938">
        <ele>158.19999694824</ele>
        <time>2025-05-15T11:34:25.000Z</time>
      </trkpt>
      <trkpt lat="47.79071" lon="-2.63926">
        <ele>158.19999694824</ele>
        <time>2025-05-15T11:34:26.000Z</time>
      </trkpt>
      <trkpt lat="47.79069" lon="-2.63915">
        <ele>158.19999694824</ele>
        <time>2025-05-15T11:34:27.000Z</time>
      </trkpt>
      <trkpt lat="47.79067" lon="-2.63906">
        <ele>158</ele>
        <time>2025-05-15T11:34:28.000Z</time>
      </trkpt>
      <trkpt lat="47.79063" lon="-2.63897">
        <ele>158</ele>
        <time>2025-05-15T11:34:29.000Z</time>
      </trkpt>
      <trkpt lat="47.79059" lon="-2.63887">
        <ele>157.60000610352</ele>
        <time>2025-05-15T11:34:30.000Z</time>
      </trkpt>
      <trkpt lat="47.79057" lon="-2.63876">
        <ele>157.39999389648</ele>
        <time>2025-05-15T11:34:31.000Z</time>
      </trkpt>
      <trkpt lat="47.79057" lon="-2.63865">
        <ele>157.19999694824</ele>
        <time>2025-05-15T11:34:32.000Z</time>
      </trkpt>
      <trkpt lat="47.79054" lon="-2.63859">
        <ele>156.80000305176</ele>
        <time>2025-05-15T11:34:33.000Z</time>
      </trkpt>
      <trkpt lat="47.79052" lon="-2.63856">
        <ele>156.60000610352</ele>
        <time>2025-05-15T11:34:34.000Z</time>
      </trkpt>
      <trkpt lat="47.79048" lon="-2.63853">
        <ele>156.19999694824</ele>
        <time>2025-05-15T11:34:35.000Z</time>
      </trkpt>
      <trkpt lat="47.79044" lon="-2.63852">
        <ele>156.19999694824</ele>
        <time>2025-05-15T11:34:36.000Z</time>
      </trkpt>
      <trkpt lat="47.79038" lon="-2.63851">
        <ele>156</ele>
        <time>2025-05-15T11:34:37.000Z</time>
      </trkpt>
      <trkpt lat="47.79033" lon="-2.63851">
        <ele>156</ele>
        <time>2025-05-15T11:34:38.000Z</time>
      </trkpt>
      <trkpt lat="47.7903" lon="-2.63853">
        <ele>155.80000305176</ele>
        <time>2025-05-15T11:34:39.000Z</time>
      </trkpt>
      <trkpt lat="47.79028" lon="-2.63855">
        <ele>155.80000305176</ele>
        <time>2025-05-15T11:34:40.000Z</time>
      </trkpt>
      <trkpt lat="47.79026" lon="-2.63858">
        <ele>155.60000610352</ele>
        <time>2025-05-15T11:34:41.000Z</time>
      </trkpt>
      <trkpt lat="47.79023" lon="-2.63861">
        <ele>155.39999389648</ele>
        <time>2025-05-15T11:34:42.000Z</time>
      </trkpt>
      <trkpt lat="47.79018" lon="-2.63866">
        <ele>155.39999389648</ele>
        <time>2025-05-15T11:34:43.000Z</time>
      </trkpt>
      <trkpt lat="47.79015" lon="-2.63869">
        <ele>155.39999389648</ele>
        <time>2025-05-15T11:34:44.000Z</time>
      </trkpt>
      <trkpt lat="47.79012" lon="-2.63871">
        <ele>155.39999389648</ele>
        <time>2025-05-15T11:34:45.000Z</time>
      </trkpt>
      <trkpt lat="47.79007" lon="-2.63876">
        <ele>155.19999694824</ele>
        <time>2025-05-15T11:34:47.000Z</time>
      </trkpt>
      <trkpt lat="47.79005" lon="-2.63878">
        <ele>155</ele>
        <time>2025-05-15T11:34:48.000Z</time>
      </trkpt>
      <trkpt lat="47.79002" lon="-2.6388">
        <ele>155</ele>
        <time>2025-05-15T11:34:49.000Z</time>
      </trkpt>
      <trkpt lat="47.78998" lon="-2.63882">
        <ele>155</ele>
        <time>2025-05-15T11:34:50.000Z</time>
      </trkpt>
      <trkpt lat="47.78992" lon="-2.63888">
        <ele>154.60000610352</ele>
        <time>2025-05-15T11:34:53.000Z</time>
      </trkpt>
      <trkpt lat="47.78991" lon="-2.63891">
        <ele>154.80000305176</ele>
        <time>2025-05-15T11:34:54.000Z</time>
      </trkpt>
      <trkpt lat="47.7899" lon="-2.63895">
        <ele>154.80000305176</ele>
        <time>2025-05-15T11:34:55.000Z</time>
      </trkpt>
      <trkpt lat="47.78989" lon="-2.63899">
        <ele>154.60000610352</ele>
        <time>2025-05-15T11:34:56.000Z</time>
      </trkpt>
      <trkpt lat="47.78988" lon="-2.63903">
        <ele>154.60000610352</ele>
        <time>2025-05-15T11:34:57.000Z</time>
      </trkpt>
      <trkpt lat="47.78985" lon="-2.63908">
        <ele>154.39999389648</ele>
        <time>2025-05-15T11:34:58.000Z</time>
      </trkpt>
      <trkpt lat="47.78983" lon="-2.63915">
        <ele>154.19999694824</ele>
        <time>2025-05-15T11:34:59.000Z</time>
      </trkpt>
      <trkpt lat="47.78981" lon="-2.63918">
        <ele>154</ele>
        <time>2025-05-15T11:35:00.000Z</time>
      </trkpt>
      <trkpt lat="47.78978" lon="-2.63923">
        <ele>154</ele>
        <time>2025-05-15T11:35:01.000Z</time>
      </trkpt>
      <trkpt lat="47.78976" lon="-2.63927">
        <ele>153.80000305176</ele>
        <time>2025-05-15T11:35:02.000Z</time>
      </trkpt>
      <trkpt lat="47.78974" lon="-2.63933">
        <ele>153.60000610352</ele>
        <time>2025-05-15T11:35:03.000Z</time>
      </trkpt>
      <trkpt lat="47.78972" lon="-2.63939">
        <ele>153.39999389648</ele>
        <time>2025-05-15T11:35:04.000Z</time>
      </trkpt>
      <trkpt lat="47.78971" lon="-2.63943">
        <ele>153.39999389648</ele>
        <time>2025-05-15T11:35:05.000Z</time>
      </trkpt>
      <trkpt lat="47.78969" lon="-2.63949">
        <ele>153.39999389648</ele>
        <time>2025-05-15T11:35:06.000Z</time>
      </trkpt>
      <trkpt lat="47.78968" lon="-2.63952">
        <ele>153.19999694824</ele>
        <time>2025-05-15T11:35:07.000Z</time>
      </trkpt>
      <trkpt lat="47.78966" lon="-2.63955">
        <ele>153.19999694824</ele>
        <time>2025-05-15T11:35:08.000Z</time>
      </trkpt>
      <trkpt lat="47.78964" lon="-2.63958">
        <ele>153.19999694824</ele>
        <time>2025-05-15T11:35:09.000Z</time>
      </trkpt>
      <trkpt lat="47.78961" lon="-2.63963">
        <ele>153.19999694824</ele>
        <time>2025-05-15T11:35:10.000Z</time>
      </trkpt>
      <trkpt lat="47.78959" lon="-2.63966">
        <ele>153.19999694824</ele>
        <time>2025-05-15T11:35:11.000Z</time>
      </trkpt>
      <trkpt lat="47.78955" lon="-2.63974">
        <ele>153.19999694824</ele>
        <time>2025-05-15T11:35:13.000Z</time>
      </trkpt>
      <trkpt lat="47.78953" lon="-2.63977">
        <ele>153.19999694824</ele>
        <time>2025-05-15T11:35:14.000Z</time>
      </trkpt>
      <trkpt lat="47.78948" lon="-2.63979">
        <ele>153.39999389648</ele>
        <time>2025-05-15T11:35:15.000Z</time>
      </trkpt>
      <trkpt lat="47.78936" lon="-2.63986">
        <ele>153</ele>
        <time>2025-05-15T11:35:18.000Z</time>
      </trkpt>
      <trkpt lat="47.78933" lon="-2.63987">
        <ele>153</ele>
        <time>2025-05-15T11:35:19.000Z</time>
      </trkpt>
      <trkpt lat="47.78931" lon="-2.63987">
        <ele>152.60000610352</ele>
        <time>2025-05-15T11:35:20.000Z</time>
      </trkpt>
      <trkpt lat="47.7893" lon="-2.63985">
        <ele>152.19999694824</ele>
        <time>2025-05-15T11:35:21.000Z</time>
      </trkpt>
      <trkpt lat="47.78928" lon="-2.63983">
        <ele>151.60000610352</ele>
        <time>2025-05-15T11:35:22.000Z</time>
      </trkpt>
      <trkpt lat="47.78928" lon="-2.63981">
        <ele>151.39999389648</ele>
        <time>2025-05-15T11:35:23.000Z</time>
      </trkpt>
      <trkpt lat="47.78928" lon="-2.63978">
        <ele>151</ele>
        <time>2025-05-15T11:35:24.000Z</time>
      </trkpt>
      <trkpt lat="47.78931" lon="-2.63972">
        <ele>150.80000305176</ele>
        <time>2025-05-15T11:35:26.000Z</time>
      </trkpt>
      <trkpt lat="47.7893" lon="-2.63967">
        <ele>150.60000610352</ele>
        <time>2025-05-15T11:35:27.000Z</time>
      </trkpt>
      <trkpt lat="47.78929" lon="-2.6396">
        <ele>150.39999389648</ele>
        <time>2025-05-15T11:35:29.000Z</time>
      </trkpt>
      <trkpt lat="47.7893" lon="-2.63955">
        <ele>150.19999694824</ele>
        <time>2025-05-15T11:35:30.000Z</time>
      </trkpt>
      <trkpt lat="47.7893" lon="-2.63951">
        <ele>150.19999694824</ele>
        <time>2025-05-15T11:35:31.000Z</time>
      </trkpt>
      <trkpt lat="47.7893" lon="-2.63946">
        <ele>150.19999694824</ele>
        <time>2025-05-15T11:35:32.000Z</time>
      </trkpt>
      <trkpt lat="47.78931" lon="-2.63943">
        <ele>150.19999694824</ele>
        <time>2025-05-15T11:35:33.000Z</time>
      </trkpt>
      <trkpt lat="47.78931" lon="-2.63942">
        <ele>150.19999694824</ele>
        <time>2025-05-15T11:35:34.000Z</time>
      </trkpt>
      <trkpt lat="47.78932" lon="-2.6394">
        <ele>150.19999694824</ele>
        <time>2025-05-15T11:35:35.000Z</time>
      </trkpt>
      <trkpt lat="47.78932" lon="-2.63938">
        <ele>150.19999694824</ele>
        <time>2025-05-15T11:35:36.000Z</time>
      </trkpt>
      <trkpt lat="47.78932" lon="-2.63935">
        <ele>150.19999694824</ele>
        <time>2025-05-15T11:35:37.000Z</time>
      </trkpt>
      <trkpt lat="47.78932" lon="-2.63932">
        <ele>150.39999389648</ele>
        <time>2025-05-15T11:35:38.000Z</time>
      </trkpt>
      <trkpt lat="47.78931" lon="-2.63929">
        <ele>150.39999389648</ele>
        <time>2025-05-15T11:35:39.000Z</time>
      </trkpt>
      <trkpt lat="47.78931" lon="-2.63925">
        <ele>150.60000610352</ele>
        <time>2025-05-15T11:35:40.000Z</time>
      </trkpt>
      <trkpt lat="47.78931" lon="-2.63911">
        <ele>150.60000610352</ele>
        <time>2025-05-15T11:35:43.000Z</time>
      </trkpt>
      <trkpt lat="47.78928" lon="-2.63897">
        <ele>150.60000610352</ele>
        <time>2025-05-15T11:35:46.000Z</time>
      </trkpt>
      <trkpt lat="47.78929" lon="-2.63891">
        <ele>150.60000610352</ele>
        <time>2025-05-15T11:35:47.000Z</time>
      </trkpt>
      <trkpt lat="47.7893" lon="-2.63884">
        <ele>150.60000610352</ele>
        <time>2025-05-15T11:35:48.000Z</time>
      </trkpt>
      <trkpt lat="47.78931" lon="-2.63876">
        <ele>150.39999389648</ele>
        <time>2025-05-15T11:35:49.000Z</time>
      </trkpt>
      <trkpt lat="47.7893" lon="-2.63867">
        <ele>150.39999389648</ele>
        <time>2025-05-15T11:35:50.000Z</time>
      </trkpt>
      <trkpt lat="47.78929" lon="-2.63859">
        <ele>150.19999694824</ele>
        <time>2025-05-15T11:35:51.000Z</time>
      </trkpt>
      <trkpt lat="47.7893" lon="-2.63854">
        <ele>150.19999694824</ele>
        <time>2025-05-15T11:35:52.000Z</time>
      </trkpt>
      <trkpt lat="47.78931" lon="-2.63851">
        <ele>150.19999694824</ele>
        <time>2025-05-15T11:35:53.000Z</time>
      </trkpt>
      <trkpt lat="47.78932" lon="-2.63847">
        <ele>150.19999694824</ele>
        <time>2025-05-15T11:35:54.000Z</time>
      </trkpt>
      <trkpt lat="47.78932" lon="-2.63843">
        <ele>150.19999694824</ele>
        <time>2025-05-15T11:35:55.000Z</time>
      </trkpt>
      <trkpt lat="47.78931" lon="-2.63837">
        <ele>150.39999389648</ele>
        <time>2025-05-15T11:35:57.000Z</time>
      </trkpt>
      <trkpt lat="47.78931" lon="-2.63834">
        <ele>150.19999694824</ele>
        <time>2025-05-15T11:35:58.000Z</time>
      </trkpt>
      <trkpt lat="47.7893" lon="-2.6383">
        <ele>150.19999694824</ele>
        <time>2025-05-15T11:35:59.000Z</time>
      </trkpt>
      <trkpt lat="47.78928" lon="-2.63813">
        <ele>150.19999694824</ele>
        <time>2025-05-15T11:36:01.000Z</time>
      </trkpt>
      <trkpt lat="47.78927" lon="-2.63809">
        <ele>150.19999694824</ele>
        <time>2025-05-15T11:36:02.000Z</time>
      </trkpt>
      <trkpt lat="47.78928" lon="-2.63806">
        <ele>150.19999694824</ele>
        <time>2025-05-15T11:36:03.000Z</time>
      </trkpt>
      <trkpt lat="47.78927" lon="-2.63801">
        <ele>150</ele>
        <time>2025-05-15T11:36:04.000Z</time>
      </trkpt>
      <trkpt lat="47.78926" lon="-2.63794">
        <ele>150</ele>
        <time>2025-05-15T11:36:05.000Z</time>
      </trkpt>
      <trkpt lat="47.78925" lon="-2.6378">
        <ele>149.80000305176</ele>
        <time>2025-05-15T11:36:07.000Z</time>
      </trkpt>
      <trkpt lat="47.78925" lon="-2.63774">
        <ele>149.80000305176</ele>
        <time>2025-05-15T11:36:08.000Z</time>
      </trkpt>
      <trkpt lat="47.78925" lon="-2.6377">
        <ele>149.80000305176</ele>
        <time>2025-05-15T11:36:09.000Z</time>
      </trkpt>
      <trkpt lat="47.78925" lon="-2.63759">
        <ele>149.80000305176</ele>
        <time>2025-05-15T11:36:11.000Z</time>
      </trkpt>
      <trkpt lat="47.78924" lon="-2.63754">
        <ele>149.60000610352</ele>
        <time>2025-05-15T11:36:12.000Z</time>
      </trkpt>
      <trkpt lat="47.78924" lon="-2.63741">
        <ele>149.39999389648</ele>
        <time>2025-05-15T11:36:14.000Z</time>
      </trkpt>
      <trkpt lat="47.78925" lon="-2.63734">
        <ele>149.19999694824</ele>
        <time>2025-05-15T11:36:15.000Z</time>
      </trkpt>
      <trkpt lat="47.78924" lon="-2.63716">
        <ele>148.80000305176</ele>
        <time>2025-05-15T11:36:18.000Z</time>
      </trkpt>
      <trkpt lat="47.78924" lon="-2.63712">
        <ele>148.80000305176</ele>
        <time>2025-05-15T11:36:19.000Z</time>
      </trkpt>
      <trkpt lat="47.78923" lon="-2.6371">
        <ele>148.60000610352</ele>
        <time>2025-05-15T11:36:20.000Z</time>
      </trkpt>
      <trkpt lat="47.78922" lon="-2.63709">
        <ele>148.60000610352</ele>
        <time>2025-05-15T11:36:21.000Z</time>
      </trkpt>
      <trkpt lat="47.78921" lon="-2.63706">
        <ele>148.80000305176</ele>
        <time>2025-05-15T11:36:22.000Z</time>
      </trkpt>
      <trkpt lat="47.78921" lon="-2.63703">
        <ele>148.80000305176</ele>
        <time>2025-05-15T11:36:23.000Z</time>
      </trkpt>
      <trkpt lat="47.78922" lon="-2.63691">
        <ele>148.39999389648</ele>
        <time>2025-05-15T11:36:29.000Z</time>
      </trkpt>
      <trkpt lat="47.78921" lon="-2.63689">
        <ele>148.60000610352</ele>
        <time>2025-05-15T11:36:30.000Z</time>
      </trkpt>
      <trkpt lat="47.78921" lon="-2.63686">
        <ele>148.60000610352</ele>
        <time>2025-05-15T11:36:31.000Z</time>
      </trkpt>
      <trkpt lat="47.7892" lon="-2.63684">
        <ele>148.60000610352</ele>
        <time>2025-05-15T11:36:32.000Z</time>
      </trkpt>
      <trkpt lat="47.7892" lon="-2.63682">
        <ele>148.60000610352</ele>
        <time>2025-05-15T11:36:33.000Z</time>
      </trkpt>
      <trkpt lat="47.78919" lon="-2.63676">
        <ele>149</ele>
        <time>2025-05-15T11:36:35.000Z</time>
      </trkpt>
      <trkpt lat="47.78919" lon="-2.63672">
        <ele>149</ele>
        <time>2025-05-15T11:36:36.000Z</time>
      </trkpt>
      <trkpt lat="47.78919" lon="-2.63669">
        <ele>149.39999389648</ele>
        <time>2025-05-15T11:36:37.000Z</time>
      </trkpt>
      <trkpt lat="47.78919" lon="-2.63665">
        <ele>149.60000610352</ele>
        <time>2025-05-15T11:36:38.000Z</time>
      </trkpt>
      <trkpt lat="47.78919" lon="-2.63658">
        <ele>149.80000305176</ele>
        <time>2025-05-15T11:36:39.000Z</time>
      </trkpt>
      <trkpt lat="47.78919" lon="-2.63655">
        <ele>149.80000305176</ele>
        <time>2025-05-15T11:36:40.000Z</time>
      </trkpt>
      <trkpt lat="47.78919" lon="-2.63649">
        <ele>150</ele>
        <time>2025-05-15T11:36:42.000Z</time>
      </trkpt>
      <trkpt lat="47.7892" lon="-2.63645">
        <ele>150.19999694824</ele>
        <time>2025-05-15T11:36:43.000Z</time>
      </trkpt>
      <trkpt lat="47.78921" lon="-2.63642">
        <ele>150.19999694824</ele>
        <time>2025-05-15T11:36:44.000Z</time>
      </trkpt>
      <trkpt lat="47.78921" lon="-2.63637">
        <ele>150.19999694824</ele>
        <time>2025-05-15T11:36:45.000Z</time>
      </trkpt>
      <trkpt lat="47.78921" lon="-2.63627">
        <ele>150.39999389648</ele>
        <time>2025-05-15T11:36:47.000Z</time>
      </trkpt>
      <trkpt lat="47.78921" lon="-2.63623">
        <ele>150.60000610352</ele>
        <time>2025-05-15T11:36:48.000Z</time>
      </trkpt>
      <trkpt lat="47.78921" lon="-2.63618">
        <ele>150.60000610352</ele>
        <time>2025-05-15T11:36:49.000Z</time>
      </trkpt>
      <trkpt lat="47.78921" lon="-2.63611">
        <ele>150.80000305176</ele>
        <time>2025-05-15T11:36:50.000Z</time>
      </trkpt>
      <trkpt lat="47.78921" lon="-2.63605">
        <ele>150.80000305176</ele>
        <time>2025-05-15T11:36:51.000Z</time>
      </trkpt>
      <trkpt lat="47.7892" lon="-2.63594">
        <ele>150.80000305176</ele>
        <time>2025-05-15T11:36:53.000Z</time>
      </trkpt>
      <trkpt lat="47.78921" lon="-2.63589">
        <ele>150.80000305176</ele>
        <time>2025-05-15T11:36:54.000Z</time>
      </trkpt>
      <trkpt lat="47.78922" lon="-2.63584">
        <ele>150.80000305176</ele>
        <time>2025-05-15T11:36:55.000Z</time>
      </trkpt>
      <trkpt lat="47.78922" lon="-2.63579">
        <ele>150.80000305176</ele>
        <time>2025-05-15T11:36:56.000Z</time>
      </trkpt>
      <trkpt lat="47.78921" lon="-2.63558">
        <ele>151.39999389648</ele>
        <time>2025-05-15T11:36:59.000Z</time>
      </trkpt>
      <trkpt lat="47.78922" lon="-2.63549">
        <ele>151.60000610352</ele>
        <time>2025-05-15T11:37:01.000Z</time>
      </trkpt>
      <trkpt lat="47.78922" lon="-2.63546">
        <ele>151.60000610352</ele>
        <time>2025-05-15T11:37:02.000Z</time>
      </trkpt>
      <trkpt lat="47.78922" lon="-2.63539">
        <ele>151.80000305176</ele>
        <time>2025-05-15T11:37:04.000Z</time>
      </trkpt>
      <trkpt lat="47.78921" lon="-2.6352">
        <ele>151.80000305176</ele>
        <time>2025-05-15T11:37:07.000Z</time>
      </trkpt>
      <trkpt lat="47.78921" lon="-2.63508">
        <ele>151.60000610352</ele>
        <time>2025-05-15T11:37:09.000Z</time>
      </trkpt>
      <trkpt lat="47.7892" lon="-2.63501">
        <ele>151.60000610352</ele>
        <time>2025-05-15T11:37:10.000Z</time>
      </trkpt>
      <trkpt lat="47.78919" lon="-2.6349">
        <ele>151.60000610352</ele>
        <time>2025-05-15T11:37:12.000Z</time>
      </trkpt>
      <trkpt lat="47.7892" lon="-2.63484">
        <ele>151.19999694824</ele>
        <time>2025-05-15T11:37:14.000Z</time>
      </trkpt>
      <trkpt lat="47.7892" lon="-2.63479">
        <ele>151</ele>
        <time>2025-05-15T11:37:15.000Z</time>
      </trkpt>
      <trkpt lat="47.78922" lon="-2.63457">
        <ele>150.80000305176</ele>
        <time>2025-05-15T11:37:18.000Z</time>
      </trkpt>
      <trkpt lat="47.78924" lon="-2.63453">
        <ele>150.80000305176</ele>
        <time>2025-05-15T11:37:19.000Z</time>
      </trkpt>
      <trkpt lat="47.78926" lon="-2.63449">
        <ele>150.80000305176</ele>
        <time>2025-05-15T11:37:20.000Z</time>
      </trkpt>
      <trkpt lat="47.78929" lon="-2.63444">
        <ele>150.80000305176</ele>
        <time>2025-05-15T11:37:21.000Z</time>
      </trkpt>
      <trkpt lat="47.78929" lon="-2.6344">
        <ele>150.60000610352</ele>
        <time>2025-05-15T11:37:22.000Z</time>
      </trkpt>
      <trkpt lat="47.7893" lon="-2.6343">
        <ele>150.39999389648</ele>
        <time>2025-05-15T11:37:24.000Z</time>
      </trkpt>
      <trkpt lat="47.7893" lon="-2.63426">
        <ele>150.19999694824</ele>
        <time>2025-05-15T11:37:25.000Z</time>
      </trkpt>
      <trkpt lat="47.78931" lon="-2.63421">
        <ele>150.19999694824</ele>
        <time>2025-05-15T11:37:26.000Z</time>
      </trkpt>
      <trkpt lat="47.78931" lon="-2.63418">
        <ele>150.19999694824</ele>
        <time>2025-05-15T11:37:27.000Z</time>
      </trkpt>
      <trkpt lat="47.78932" lon="-2.63413">
        <ele>150</ele>
        <time>2025-05-15T11:37:28.000Z</time>
      </trkpt>
      <trkpt lat="47.78931" lon="-2.63408">
        <ele>150</ele>
        <time>2025-05-15T11:37:29.000Z</time>
      </trkpt>
      <trkpt lat="47.7893" lon="-2.63404">
        <ele>149.80000305176</ele>
        <time>2025-05-15T11:37:30.000Z</time>
      </trkpt>
      <trkpt lat="47.78928" lon="-2.63392">
        <ele>149.39999389648</ele>
        <time>2025-05-15T11:37:33.000Z</time>
      </trkpt>
      <trkpt lat="47.78928" lon="-2.63388">
        <ele>149.39999389648</ele>
        <time>2025-05-15T11:37:34.000Z</time>
      </trkpt>
      <trkpt lat="47.78927" lon="-2.63366">
        <ele>149.19999694824</ele>
        <time>2025-05-15T11:37:38.000Z</time>
      </trkpt>
      <trkpt lat="47.78929" lon="-2.63352">
        <ele>149</ele>
        <time>2025-05-15T11:37:40.000Z</time>
      </trkpt>
      <trkpt lat="47.78928" lon="-2.63348">
        <ele>149</ele>
        <time>2025-05-15T11:37:41.000Z</time>
      </trkpt>
      <trkpt lat="47.78928" lon="-2.63344">
        <ele>149</ele>
        <time>2025-05-15T11:37:42.000Z</time>
      </trkpt>
      <trkpt lat="47.7893" lon="-2.63335">
        <ele>148.80000305176</ele>
        <time>2025-05-15T11:37:44.000Z</time>
      </trkpt>
      <trkpt lat="47.7893" lon="-2.63325">
        <ele>148.80000305176</ele>
        <time>2025-05-15T11:37:45.000Z</time>
      </trkpt>
      <trkpt lat="47.78931" lon="-2.63321">
        <ele>148.80000305176</ele>
        <time>2025-05-15T11:37:46.000Z</time>
      </trkpt>
      <trkpt lat="47.78931" lon="-2.63318">
        <ele>148.80000305176</ele>
        <time>2025-05-15T11:37:47.000Z</time>
      </trkpt>
      <trkpt lat="47.7893" lon="-2.63312">
        <ele>148.60000610352</ele>
        <time>2025-05-15T11:37:48.000Z</time>
      </trkpt>
      <trkpt lat="47.7893" lon="-2.63307">
        <ele>148.60000610352</ele>
        <time>2025-05-15T11:37:49.000Z</time>
      </trkpt>
      <trkpt lat="47.7893" lon="-2.633">
        <ele>148.60000610352</ele>
        <time>2025-05-15T11:37:50.000Z</time>
      </trkpt>
      <trkpt lat="47.7893" lon="-2.63295">
        <ele>148.39999389648</ele>
        <time>2025-05-15T11:37:51.000Z</time>
      </trkpt>
      <trkpt lat="47.78932" lon="-2.63287">
        <ele>148.39999389648</ele>
        <time>2025-05-15T11:37:52.000Z</time>
      </trkpt>
      <trkpt lat="47.78932" lon="-2.63282">
        <ele>148.39999389648</ele>
        <time>2025-05-15T11:37:53.000Z</time>
      </trkpt>
      <trkpt lat="47.78933" lon="-2.63275">
        <ele>148.19999694824</ele>
        <time>2025-05-15T11:37:54.000Z</time>
      </trkpt>
      <trkpt lat="47.78935" lon="-2.63267">
        <ele>148.19999694824</ele>
        <time>2025-05-15T11:37:55.000Z</time>
      </trkpt>
      <trkpt lat="47.78937" lon="-2.63254">
        <ele>148</ele>
        <time>2025-05-15T11:37:57.000Z</time>
      </trkpt>
      <trkpt lat="47.78937" lon="-2.63247">
        <ele>148</ele>
        <time>2025-05-15T11:37:58.000Z</time>
      </trkpt>
      <trkpt lat="47.78938" lon="-2.63236">
        <ele>147.80000305176</ele>
        <time>2025-05-15T11:38:00.000Z</time>
      </trkpt>
      <trkpt lat="47.78938" lon="-2.63231">
        <ele>147.39999389648</ele>
        <time>2025-05-15T11:38:01.000Z</time>
      </trkpt>
      <trkpt lat="47.78938" lon="-2.63227">
        <ele>147</ele>
        <time>2025-05-15T11:38:02.000Z</time>
      </trkpt>
      <trkpt lat="47.78939" lon="-2.6322">
        <ele>146.60000610352</ele>
        <time>2025-05-15T11:38:03.000Z</time>
      </trkpt>
      <trkpt lat="47.78939" lon="-2.63216">
        <ele>146.39999389648</ele>
        <time>2025-05-15T11:38:04.000Z</time>
      </trkpt>
      <trkpt lat="47.78939" lon="-2.63215">
        <ele>145.80000305176</ele>
        <time>2025-05-15T11:38:05.000Z</time>
      </trkpt>
      <trkpt lat="47.78939" lon="-2.63215">
        <ele>145.19999694824</ele>
        <time>2025-05-15T11:38:08.000Z</time>
      </trkpt>
      <trkpt lat="47.78939" lon="-2.63215">
        <ele>145</ele>
        <time>2025-05-15T11:38:09.000Z</time>
      </trkpt>
      <trkpt lat="47.78938" lon="-2.63212">
        <ele>144.80000305176</ele>
        <time>2025-05-15T11:38:11.000Z</time>
      </trkpt>
      <trkpt lat="47.78938" lon="-2.63208">
        <ele>144.60000610352</ele>
        <time>2025-05-15T11:38:12.000Z</time>
      </trkpt>
      <trkpt lat="47.7894" lon="-2.63191">
        <ele>144.80000305176</ele>
        <time>2025-05-15T11:38:17.000Z</time>
      </trkpt>
      <trkpt lat="47.78942" lon="-2.63177">
        <ele>145</ele>
        <time>2025-05-15T11:38:21.000Z</time>
      </trkpt>
      <trkpt lat="47.78942" lon="-2.63175">
        <ele>145</ele>
        <time>2025-05-15T11:38:23.000Z</time>
      </trkpt>
      <trkpt lat="47.78942" lon="-2.6317">
        <ele>145.19999694824</ele>
        <time>2025-05-15T11:38:24.000Z</time>
      </trkpt>
      <trkpt lat="47.78942" lon="-2.63164">
        <ele>145.60000610352</ele>
        <time>2025-05-15T11:38:26.000Z</time>
      </trkpt>
      <trkpt lat="47.78941" lon="-2.63161">
        <ele>145.80000305176</ele>
        <time>2025-05-15T11:38:27.000Z</time>
      </trkpt>
      <trkpt lat="47.78942" lon="-2.63158">
        <ele>145.80000305176</ele>
        <time>2025-05-15T11:38:28.000Z</time>
      </trkpt>
      <trkpt lat="47.78942" lon="-2.63154">
        <ele>146.19999694824</ele>
        <time>2025-05-15T11:38:29.000Z</time>
      </trkpt>
      <trkpt lat="47.78943" lon="-2.6315">
        <ele>146.39999389648</ele>
        <time>2025-05-15T11:38:30.000Z</time>
      </trkpt>
      <trkpt lat="47.78944" lon="-2.63147">
        <ele>146.60000610352</ele>
        <time>2025-05-15T11:38:31.000Z</time>
      </trkpt>
      <trkpt lat="47.78948" lon="-2.63127">
        <ele>146.80000305176</ele>
        <time>2025-05-15T11:38:34.000Z</time>
      </trkpt>
      <trkpt lat="47.78949" lon="-2.6312">
        <ele>147</ele>
        <time>2025-05-15T11:38:35.000Z</time>
      </trkpt>
      <trkpt lat="47.78952" lon="-2.63116">
        <ele>147.19999694824</ele>
        <time>2025-05-15T11:38:36.000Z</time>
      </trkpt>
      <trkpt lat="47.78954" lon="-2.63111">
        <ele>147.39999389648</ele>
        <time>2025-05-15T11:38:37.000Z</time>
      </trkpt>
      <trkpt lat="47.78955" lon="-2.63109">
        <ele>147.60000610352</ele>
        <time>2025-05-15T11:38:38.000Z</time>
      </trkpt>
      <trkpt lat="47.78958" lon="-2.63103">
        <ele>147.60000610352</ele>
        <time>2025-05-15T11:38:39.000Z</time>
      </trkpt>
      <trkpt lat="47.78959" lon="-2.63099">
        <ele>147.60000610352</ele>
        <time>2025-05-15T11:38:40.000Z</time>
      </trkpt>
      <trkpt lat="47.7896" lon="-2.63095">
        <ele>147.60000610352</ele>
        <time>2025-05-15T11:38:41.000Z</time>
      </trkpt>
      <trkpt lat="47.78964" lon="-2.63087">
        <ele>147.80000305176</ele>
        <time>2025-05-15T11:38:43.000Z</time>
      </trkpt>
      <trkpt lat="47.78967" lon="-2.63083">
        <ele>148.19999694824</ele>
        <time>2025-05-15T11:38:45.000Z</time>
      </trkpt>
      <trkpt lat="47.7897" lon="-2.6308">
        <ele>148.39999389648</ele>
        <time>2025-05-15T11:38:46.000Z</time>
      </trkpt>
      <trkpt lat="47.78972" lon="-2.63077">
        <ele>148.60000610352</ele>
        <time>2025-05-15T11:38:47.000Z</time>
      </trkpt>
      <trkpt lat="47.78975" lon="-2.63075">
        <ele>148.80000305176</ele>
        <time>2025-05-15T11:38:48.000Z</time>
      </trkpt>
      <trkpt lat="47.78977" lon="-2.63074">
        <ele>149</ele>
        <time>2025-05-15T11:38:49.000Z</time>
      </trkpt>
      <trkpt lat="47.78979" lon="-2.63072">
        <ele>149</ele>
        <time>2025-05-15T11:38:50.000Z</time>
      </trkpt>
      <trkpt lat="47.7898" lon="-2.63069">
        <ele>149</ele>
        <time>2025-05-15T11:38:51.000Z</time>
      </trkpt>
      <trkpt lat="47.78982" lon="-2.63067">
        <ele>149.19999694824</ele>
        <time>2025-05-15T11:38:52.000Z</time>
      </trkpt>
      <trkpt lat="47.78983" lon="-2.63064">
        <ele>149.19999694824</ele>
        <time>2025-05-15T11:38:53.000Z</time>
      </trkpt>
      <trkpt lat="47.78986" lon="-2.63061">
        <ele>149.19999694824</ele>
        <time>2025-05-15T11:38:54.000Z</time>
      </trkpt>
      <trkpt lat="47.78988" lon="-2.63059">
        <ele>149.19999694824</ele>
        <time>2025-05-15T11:38:55.000Z</time>
      </trkpt>
      <trkpt lat="47.78991" lon="-2.63058">
        <ele>149.39999389648</ele>
        <time>2025-05-15T11:38:56.000Z</time>
      </trkpt>
      <trkpt lat="47.78993" lon="-2.63055">
        <ele>149.39999389648</ele>
        <time>2025-05-15T11:38:57.000Z</time>
      </trkpt>
      <trkpt lat="47.78996" lon="-2.63051">
        <ele>149.39999389648</ele>
        <time>2025-05-15T11:38:58.000Z</time>
      </trkpt>
      <trkpt lat="47.78999" lon="-2.63049">
        <ele>149.60000610352</ele>
        <time>2025-05-15T11:38:59.000Z</time>
      </trkpt>
      <trkpt lat="47.79001" lon="-2.63047">
        <ele>149.60000610352</ele>
        <time>2025-05-15T11:39:00.000Z</time>
      </trkpt>
      <trkpt lat="47.79002" lon="-2.63045">
        <ele>149.60000610352</ele>
        <time>2025-05-15T11:39:01.000Z</time>
      </trkpt>
      <trkpt lat="47.79004" lon="-2.63043">
        <ele>149.60000610352</ele>
        <time>2025-05-15T11:39:02.000Z</time>
      </trkpt>
      <trkpt lat="47.79004" lon="-2.6304">
        <ele>149.80000305176</ele>
        <time>2025-05-15T11:39:03.000Z</time>
      </trkpt>
      <trkpt lat="47.79005" lon="-2.63037">
        <ele>149.80000305176</ele>
        <time>2025-05-15T11:39:04.000Z</time>
      </trkpt>
      <trkpt lat="47.79007" lon="-2.63035">
        <ele>149.80000305176</ele>
        <time>2025-05-15T11:39:05.000Z</time>
      </trkpt>
      <trkpt lat="47.79014" lon="-2.63031">
        <ele>150</ele>
        <time>2025-05-15T11:39:07.000Z</time>
      </trkpt>
      <trkpt lat="47.79022" lon="-2.63032">
        <ele>150.19999694824</ele>
        <time>2025-05-15T11:39:09.000Z</time>
      </trkpt>
      <trkpt lat="47.79024" lon="-2.63031">
        <ele>150.19999694824</ele>
        <time>2025-05-15T11:39:10.000Z</time>
      </trkpt>
      <trkpt lat="47.79029" lon="-2.63025">
        <ele>150.39999389648</ele>
        <time>2025-05-15T11:39:12.000Z</time>
      </trkpt>
      <trkpt lat="47.79029" lon="-2.63021">
        <ele>150.39999389648</ele>
        <time>2025-05-15T11:39:13.000Z</time>
      </trkpt>
      <trkpt lat="47.79043" lon="-2.63006">
        <ele>150.19999694824</ele>
        <time>2025-05-15T11:39:17.000Z</time>
      </trkpt>
      <trkpt lat="47.79045" lon="-2.63005">
        <ele>150.19999694824</ele>
        <time>2025-05-15T11:39:18.000Z</time>
      </trkpt>
      <trkpt lat="47.79048" lon="-2.63004">
        <ele>150.19999694824</ele>
        <time>2025-05-15T11:39:19.000Z</time>
      </trkpt>
      <trkpt lat="47.79051" lon="-2.63001">
        <ele>150.19999694824</ele>
        <time>2025-05-15T11:39:20.000Z</time>
      </trkpt>
      <trkpt lat="47.79054" lon="-2.62996">
        <ele>150</ele>
        <time>2025-05-15T11:39:21.000Z</time>
      </trkpt>
      <trkpt lat="47.79057" lon="-2.62993">
        <ele>149.80000305176</ele>
        <time>2025-05-15T11:39:22.000Z</time>
      </trkpt>
      <trkpt lat="47.79063" lon="-2.6299">
        <ele>149.80000305176</ele>
        <time>2025-05-15T11:39:23.000Z</time>
      </trkpt>
      <trkpt lat="47.79072" lon="-2.62985">
        <ele>149.60000610352</ele>
        <time>2025-05-15T11:39:25.000Z</time>
      </trkpt>
      <trkpt lat="47.79076" lon="-2.62978">
        <ele>149.60000610352</ele>
        <time>2025-05-15T11:39:27.000Z</time>
      </trkpt>
      <trkpt lat="47.79077" lon="-2.6297">
        <ele>149.39999389648</ele>
        <time>2025-05-15T11:39:28.000Z</time>
      </trkpt>
      <trkpt lat="47.79078" lon="-2.62963">
        <ele>149.39999389648</ele>
        <time>2025-05-15T11:39:29.000Z</time>
      </trkpt>
      <trkpt lat="47.79084" lon="-2.62953">
        <ele>148.80000305176</ele>
        <time>2025-05-15T11:39:31.000Z</time>
      </trkpt>
      <trkpt lat="47.79086" lon="-2.62948">
        <ele>148.60000610352</ele>
        <time>2025-05-15T11:39:32.000Z</time>
      </trkpt>
      <trkpt lat="47.79088" lon="-2.62945">
        <ele>148.19999694824</ele>
        <time>2025-05-15T11:39:33.000Z</time>
      </trkpt>
      <trkpt lat="47.79091" lon="-2.62942">
        <ele>148</ele>
        <time>2025-05-15T11:39:34.000Z</time>
      </trkpt>
      <trkpt lat="47.79094" lon="-2.62939">
        <ele>148</ele>
        <time>2025-05-15T11:39:35.000Z</time>
      </trkpt>
      <trkpt lat="47.79096" lon="-2.62937">
        <ele>148</ele>
        <time>2025-05-15T11:39:36.000Z</time>
      </trkpt>
      <trkpt lat="47.79099" lon="-2.62936">
        <ele>147.80000305176</ele>
        <time>2025-05-15T11:39:37.000Z</time>
      </trkpt>
      <trkpt lat="47.79101" lon="-2.62932">
        <ele>147.80000305176</ele>
        <time>2025-05-15T11:39:38.000Z</time>
      </trkpt>
      <trkpt lat="47.79104" lon="-2.62927">
        <ele>147.80000305176</ele>
        <time>2025-05-15T11:39:39.000Z</time>
      </trkpt>
      <trkpt lat="47.79109" lon="-2.62922">
        <ele>147.60000610352</ele>
        <time>2025-05-15T11:39:40.000Z</time>
      </trkpt>
      <trkpt lat="47.79114" lon="-2.62914">
        <ele>147.19999694824</ele>
        <time>2025-05-15T11:39:42.000Z</time>
      </trkpt>
      <trkpt lat="47.7912" lon="-2.62909">
        <ele>147</ele>
        <time>2025-05-15T11:39:44.000Z</time>
      </trkpt>
      <trkpt lat="47.79124" lon="-2.62905">
        <ele>147</ele>
        <time>2025-05-15T11:39:45.000Z</time>
      </trkpt>
      <trkpt lat="47.7913" lon="-2.62903">
        <ele>146.60000610352</ele>
        <time>2025-05-15T11:39:46.000Z</time>
      </trkpt>
      <trkpt lat="47.79135" lon="-2.62902">
        <ele>146.60000610352</ele>
        <time>2025-05-15T11:39:47.000Z</time>
      </trkpt>
      <trkpt lat="47.79141" lon="-2.62896">
        <ele>146.39999389648</ele>
        <time>2025-05-15T11:39:48.000Z</time>
      </trkpt>
      <trkpt lat="47.79143" lon="-2.62891">
        <ele>146.19999694824</ele>
        <time>2025-05-15T11:39:49.000Z</time>
      </trkpt>
      <trkpt lat="47.79145" lon="-2.62886">
        <ele>146.19999694824</ele>
        <time>2025-05-15T11:39:50.000Z</time>
      </trkpt>
      <trkpt lat="47.79149" lon="-2.62882">
        <ele>145.60000610352</ele>
        <time>2025-05-15T11:39:51.000Z</time>
      </trkpt>
      <trkpt lat="47.79153" lon="-2.62879">
        <ele>145.60000610352</ele>
        <time>2025-05-15T11:39:52.000Z</time>
      </trkpt>
      <trkpt lat="47.79155" lon="-2.62875">
        <ele>145.39999389648</ele>
        <time>2025-05-15T11:39:53.000Z</time>
      </trkpt>
      <trkpt lat="47.7916" lon="-2.62872">
        <ele>145.39999389648</ele>
        <time>2025-05-15T11:39:54.000Z</time>
      </trkpt>
      <trkpt lat="47.79164" lon="-2.62868">
        <ele>145</ele>
        <time>2025-05-15T11:39:55.000Z</time>
      </trkpt>
      <trkpt lat="47.79166" lon="-2.62865">
        <ele>144.80000305176</ele>
        <time>2025-05-15T11:39:56.000Z</time>
      </trkpt>
      <trkpt lat="47.79169" lon="-2.62861">
        <ele>144.60000610352</ele>
        <time>2025-05-15T11:39:57.000Z</time>
      </trkpt>
      <trkpt lat="47.7917" lon="-2.6286">
        <ele>144.60000610352</ele>
        <time>2025-05-15T11:39:58.000Z</time>
      </trkpt>
      <trkpt lat="47.79172" lon="-2.6286">
        <ele>144.39999389648</ele>
        <time>2025-05-15T11:39:59.000Z</time>
      </trkpt>
      <trkpt lat="47.79174" lon="-2.62858">
        <ele>144.19999694824</ele>
        <time>2025-05-15T11:40:00.000Z</time>
      </trkpt>
      <trkpt lat="47.79175" lon="-2.62857">
        <ele>144.19999694824</ele>
        <time>2025-05-15T11:40:01.000Z</time>
      </trkpt>
      <trkpt lat="47.79176" lon="-2.62853">
        <ele>144</ele>
        <time>2025-05-15T11:40:02.000Z</time>
      </trkpt>
      <trkpt lat="47.79186" lon="-2.62841">
        <ele>144</ele>
        <time>2025-05-15T11:40:05.000Z</time>
      </trkpt>
      <trkpt lat="47.79189" lon="-2.62838">
        <ele>144</ele>
        <time>2025-05-15T11:40:06.000Z</time>
      </trkpt>
      <trkpt lat="47.79192" lon="-2.62835">
        <ele>143.80000305176</ele>
        <time>2025-05-15T11:40:07.000Z</time>
      </trkpt>
      <trkpt lat="47.79196" lon="-2.62832">
        <ele>144</ele>
        <time>2025-05-15T11:40:08.000Z</time>
      </trkpt>
      <trkpt lat="47.79204" lon="-2.62824">
        <ele>144</ele>
        <time>2025-05-15T11:40:10.000Z</time>
      </trkpt>
      <trkpt lat="47.79208" lon="-2.6282">
        <ele>143.60000610352</ele>
        <time>2025-05-15T11:40:11.000Z</time>
      </trkpt>
      <trkpt lat="47.79213" lon="-2.62818">
        <ele>143.60000610352</ele>
        <time>2025-05-15T11:40:12.000Z</time>
      </trkpt>
      <trkpt lat="47.79217" lon="-2.62821">
        <ele>143.39999389648</ele>
        <time>2025-05-15T11:40:13.000Z</time>
      </trkpt>
      <trkpt lat="47.7922" lon="-2.6282">
        <ele>143.39999389648</ele>
        <time>2025-05-15T11:40:14.000Z</time>
      </trkpt>
      <trkpt lat="47.7923" lon="-2.62825">
        <ele>143</ele>
        <time>2025-05-15T11:40:17.000Z</time>
      </trkpt>
      <trkpt lat="47.79234" lon="-2.62827">
        <ele>143</ele>
        <time>2025-05-15T11:40:18.000Z</time>
      </trkpt>
      <trkpt lat="47.79237" lon="-2.62829">
        <ele>143</ele>
        <time>2025-05-15T11:40:19.000Z</time>
      </trkpt>
      <trkpt lat="47.79242" lon="-2.62831">
        <ele>143</ele>
        <time>2025-05-15T11:40:20.000Z</time>
      </trkpt>
      <trkpt lat="47.7925" lon="-2.62831">
        <ele>143</ele>
        <time>2025-05-15T11:40:22.000Z</time>
      </trkpt>
      <trkpt lat="47.79252" lon="-2.62833">
        <ele>143</ele>
        <time>2025-05-15T11:40:23.000Z</time>
      </trkpt>
      <trkpt lat="47.79255" lon="-2.62834">
        <ele>143</ele>
        <time>2025-05-15T11:40:24.000Z</time>
      </trkpt>
      <trkpt lat="47.79257" lon="-2.62835">
        <ele>143</ele>
        <time>2025-05-15T11:40:25.000Z</time>
      </trkpt>
      <trkpt lat="47.79257" lon="-2.62835">
        <ele>143</ele>
        <time>2025-05-15T11:40:28.000Z</time>
      </trkpt>
      <trkpt lat="47.79257" lon="-2.62835">
        <ele>143</ele>
        <time>2025-05-15T11:40:29.000Z</time>
      </trkpt>
      <trkpt lat="47.79257" lon="-2.62835">
        <ele>142.80000305176</ele>
        <time>2025-05-15T11:40:30.000Z</time>
      </trkpt>
      <trkpt lat="47.79257" lon="-2.62835">
        <ele>142.60000610352</ele>
        <time>2025-05-15T11:40:31.000Z</time>
      </trkpt>
      <trkpt lat="47.79258" lon="-2.62835">
        <ele>142</ele>
        <time>2025-05-15T11:40:39.000Z</time>
      </trkpt>
      <trkpt lat="47.79258" lon="-2.62833">
        <ele>142</ele>
        <time>2025-05-15T11:40:41.000Z</time>
      </trkpt>
      <trkpt lat="47.79258" lon="-2.62831">
        <ele>142.19999694824</ele>
        <time>2025-05-15T11:40:42.000Z</time>
      </trkpt>
      <trkpt lat="47.79259" lon="-2.62828">
        <ele>142</ele>
        <time>2025-05-15T11:40:44.000Z</time>
      </trkpt>
      <trkpt lat="47.7926" lon="-2.62821">
        <ele>142</ele>
        <time>2025-05-15T11:40:46.000Z</time>
      </trkpt>
      <trkpt lat="47.79264" lon="-2.62804">
        <ele>141.80000305176</ele>
        <time>2025-05-15T11:40:49.000Z</time>
      </trkpt>
      <trkpt lat="47.79265" lon="-2.62798">
        <ele>141.60000610352</ele>
        <time>2025-05-15T11:40:50.000Z</time>
      </trkpt>
      <trkpt lat="47.79266" lon="-2.62793">
        <ele>141.39999389648</ele>
        <time>2025-05-15T11:40:51.000Z</time>
      </trkpt>
      <trkpt lat="47.79269" lon="-2.62783">
        <ele>140.80000305176</ele>
        <time>2025-05-15T11:40:53.000Z</time>
      </trkpt>
      <trkpt lat="47.7927" lon="-2.62778">
        <ele>140.60000610352</ele>
        <time>2025-05-15T11:40:54.000Z</time>
      </trkpt>
      <trkpt lat="47.79272" lon="-2.62773">
        <ele>140.39999389648</ele>
        <time>2025-05-15T11:40:55.000Z</time>
      </trkpt>
      <trkpt lat="47.79276" lon="-2.62759">
        <ele>140</ele>
        <time>2025-05-15T11:40:58.000Z</time>
      </trkpt>
      <trkpt lat="47.79278" lon="-2.62752">
        <ele>139.60000610352</ele>
        <time>2025-05-15T11:40:59.000Z</time>
      </trkpt>
      <trkpt lat="47.79279" lon="-2.62745">
        <ele>139.39999389648</ele>
        <time>2025-05-15T11:41:00.000Z</time>
      </trkpt>
      <trkpt lat="47.79281" lon="-2.62736">
        <ele>139.19999694824</ele>
        <time>2025-05-15T11:41:01.000Z</time>
      </trkpt>
      <trkpt lat="47.79282" lon="-2.62732">
        <ele>139</ele>
        <time>2025-05-15T11:41:02.000Z</time>
      </trkpt>
      <trkpt lat="47.79283" lon="-2.62726">
        <ele>139</ele>
        <time>2025-05-15T11:41:03.000Z</time>
      </trkpt>
      <trkpt lat="47.79284" lon="-2.62723">
        <ele>139</ele>
        <time>2025-05-15T11:41:04.000Z</time>
      </trkpt>
      <trkpt lat="47.79284" lon="-2.6272">
        <ele>138.80000305176</ele>
        <time>2025-05-15T11:41:05.000Z</time>
      </trkpt>
      <trkpt lat="47.79284" lon="-2.62718">
        <ele>138.80000305176</ele>
        <time>2025-05-15T11:41:06.000Z</time>
      </trkpt>
      <trkpt lat="47.79284" lon="-2.62717">
        <ele>138.80000305176</ele>
        <time>2025-05-15T11:41:07.000Z</time>
      </trkpt>
      <trkpt lat="47.79284" lon="-2.62716">
        <ele>139</ele>
        <time>2025-05-15T11:41:08.000Z</time>
      </trkpt>
      <trkpt lat="47.79286" lon="-2.6271">
        <ele>139</ele>
        <time>2025-05-15T11:41:10.000Z</time>
      </trkpt>
      <trkpt lat="47.79286" lon="-2.62708">
        <ele>139</ele>
        <time>2025-05-15T11:41:11.000Z</time>
      </trkpt>
      <trkpt lat="47.79286" lon="-2.62704">
        <ele>139</ele>
        <time>2025-05-15T11:41:12.000Z</time>
      </trkpt>
      <trkpt lat="47.79287" lon="-2.62701">
        <ele>139</ele>
        <time>2025-05-15T11:41:13.000Z</time>
      </trkpt>
      <trkpt lat="47.79287" lon="-2.62698">
        <ele>139</ele>
        <time>2025-05-15T11:41:14.000Z</time>
      </trkpt>
      <trkpt lat="47.79288" lon="-2.62695">
        <ele>139</ele>
        <time>2025-05-15T11:41:15.000Z</time>
      </trkpt>
      <trkpt lat="47.79289" lon="-2.62692">
        <ele>139</ele>
        <time>2025-05-15T11:41:16.000Z</time>
      </trkpt>
      <trkpt lat="47.7929" lon="-2.62689">
        <ele>139</ele>
        <time>2025-05-15T11:41:17.000Z</time>
      </trkpt>
      <trkpt lat="47.7929" lon="-2.62685">
        <ele>139</ele>
        <time>2025-05-15T11:41:18.000Z</time>
      </trkpt>
      <trkpt lat="47.7929" lon="-2.62682">
        <ele>139.19999694824</ele>
        <time>2025-05-15T11:41:19.000Z</time>
      </trkpt>
      <trkpt lat="47.79291" lon="-2.62677">
        <ele>139.39999389648</ele>
        <time>2025-05-15T11:41:20.000Z</time>
      </trkpt>
      <trkpt lat="47.79292" lon="-2.62673">
        <ele>139.39999389648</ele>
        <time>2025-05-15T11:41:21.000Z</time>
      </trkpt>
      <trkpt lat="47.79292" lon="-2.6267">
        <ele>139.39999389648</ele>
        <time>2025-05-15T11:41:22.000Z</time>
      </trkpt>
      <trkpt lat="47.79294" lon="-2.62667">
        <ele>139.80000305176</ele>
        <time>2025-05-15T11:41:23.000Z</time>
      </trkpt>
      <trkpt lat="47.79294" lon="-2.62664">
        <ele>140</ele>
        <time>2025-05-15T11:41:24.000Z</time>
      </trkpt>
      <trkpt lat="47.79295" lon="-2.6266">
        <ele>140.19999694824</ele>
        <time>2025-05-15T11:41:25.000Z</time>
      </trkpt>
      <trkpt lat="47.79294" lon="-2.62654">
        <ele>140.60000610352</ele>
        <time>2025-05-15T11:41:27.000Z</time>
      </trkpt>
      <trkpt lat="47.79293" lon="-2.6265">
        <ele>140.60000610352</ele>
        <time>2025-05-15T11:41:28.000Z</time>
      </trkpt>
      <trkpt lat="47.79292" lon="-2.62645">
        <ele>140.80000305176</ele>
        <time>2025-05-15T11:41:29.000Z</time>
      </trkpt>
      <trkpt lat="47.79293" lon="-2.62642">
        <ele>140.80000305176</ele>
        <time>2025-05-15T11:41:30.000Z</time>
      </trkpt>
      <trkpt lat="47.79294" lon="-2.62638">
        <ele>140.80000305176</ele>
        <time>2025-05-15T11:41:32.000Z</time>
      </trkpt>
      <trkpt lat="47.79294" lon="-2.62637">
        <ele>140.80000305176</ele>
        <time>2025-05-15T11:41:33.000Z</time>
      </trkpt>
      <trkpt lat="47.79294" lon="-2.62635">
        <ele>140.80000305176</ele>
        <time>2025-05-15T11:41:35.000Z</time>
      </trkpt>
      <trkpt lat="47.79298" lon="-2.62636">
        <ele>140.80000305176</ele>
        <time>2025-05-15T11:41:39.000Z</time>
      </trkpt>
      <trkpt lat="47.79299" lon="-2.62635">
        <ele>141</ele>
        <time>2025-05-15T11:41:41.000Z</time>
      </trkpt>
      <trkpt lat="47.793" lon="-2.62634">
        <ele>141.19999694824</ele>
        <time>2025-05-15T11:41:42.000Z</time>
      </trkpt>
      <trkpt lat="47.793" lon="-2.62634">
        <ele>141.19999694824</ele>
        <time>2025-05-15T11:41:43.000Z</time>
      </trkpt>
      <trkpt lat="47.79301" lon="-2.6263">
        <ele>141.80000305176</ele>
        <time>2025-05-15T11:41:59.000Z</time>
      </trkpt>
      <trkpt lat="47.79301" lon="-2.62629">
        <ele>141.80000305176</ele>
        <time>2025-05-15T11:42:00.000Z</time>
      </trkpt>
      <trkpt lat="47.79306" lon="-2.62628">
        <ele>142</ele>
        <time>2025-05-15T11:42:05.000Z</time>
      </trkpt>
      <trkpt lat="47.79306" lon="-2.62628">
        <ele>142</ele>
        <time>2025-05-15T11:42:06.000Z</time>
      </trkpt>
      <trkpt lat="47.79308" lon="-2.62628">
        <ele>142</ele>
        <time>2025-05-15T11:42:08.000Z</time>
      </trkpt>
      <trkpt lat="47.79311" lon="-2.6263">
        <ele>142</ele>
        <time>2025-05-15T11:42:10.000Z</time>
      </trkpt>
      <trkpt lat="47.79313" lon="-2.62631">
        <ele>142</ele>
        <time>2025-05-15T11:42:11.000Z</time>
      </trkpt>
      <trkpt lat="47.79316" lon="-2.62633">
        <ele>142</ele>
        <time>2025-05-15T11:42:12.000Z</time>
      </trkpt>
      <trkpt lat="47.79321" lon="-2.62637">
        <ele>141.80000305176</ele>
        <time>2025-05-15T11:42:14.000Z</time>
      </trkpt>
      <trkpt lat="47.79336" lon="-2.62639">
        <ele>142</ele>
        <time>2025-05-15T11:42:18.000Z</time>
      </trkpt>
      <trkpt lat="47.79344" lon="-2.62637">
        <ele>141.80000305176</ele>
        <time>2025-05-15T11:42:20.000Z</time>
      </trkpt>
      <trkpt lat="47.79347" lon="-2.62636">
        <ele>141.60000610352</ele>
        <time>2025-05-15T11:42:21.000Z</time>
      </trkpt>
      <trkpt lat="47.79351" lon="-2.62634">
        <ele>141.60000610352</ele>
        <time>2025-05-15T11:42:22.000Z</time>
      </trkpt>
      <trkpt lat="47.79358" lon="-2.62631">
        <ele>141.60000610352</ele>
        <time>2025-05-15T11:42:24.000Z</time>
      </trkpt>
      <trkpt lat="47.7936" lon="-2.62628">
        <ele>141.60000610352</ele>
        <time>2025-05-15T11:42:25.000Z</time>
      </trkpt>
      <trkpt lat="47.79366" lon="-2.62624">
        <ele>141.60000610352</ele>
        <time>2025-05-15T11:42:27.000Z</time>
      </trkpt>
      <trkpt lat="47.79371" lon="-2.62621">
        <ele>141.39999389648</ele>
        <time>2025-05-15T11:42:28.000Z</time>
      </trkpt>
      <trkpt lat="47.79376" lon="-2.62619">
        <ele>141.19999694824</ele>
        <time>2025-05-15T11:42:29.000Z</time>
      </trkpt>
      <trkpt lat="47.7938" lon="-2.62616">
        <ele>141</ele>
        <time>2025-05-15T11:42:30.000Z</time>
      </trkpt>
      <trkpt lat="47.79385" lon="-2.62611">
        <ele>141</ele>
        <time>2025-05-15T11:42:31.000Z</time>
      </trkpt>
      <trkpt lat="47.79387" lon="-2.62608">
        <ele>141</ele>
        <time>2025-05-15T11:42:32.000Z</time>
      </trkpt>
      <trkpt lat="47.79389" lon="-2.62604">
        <ele>141</ele>
        <time>2025-05-15T11:42:33.000Z</time>
      </trkpt>
      <trkpt lat="47.7939" lon="-2.62601">
        <ele>140.80000305176</ele>
        <time>2025-05-15T11:42:34.000Z</time>
      </trkpt>
      <trkpt lat="47.7939" lon="-2.62597">
        <ele>140.80000305176</ele>
        <time>2025-05-15T11:42:35.000Z</time>
      </trkpt>
      <trkpt lat="47.79392" lon="-2.62594">
        <ele>140.60000610352</ele>
        <time>2025-05-15T11:42:36.000Z</time>
      </trkpt>
      <trkpt lat="47.79397" lon="-2.62583">
        <ele>140.60000610352</ele>
        <time>2025-05-15T11:42:38.000Z</time>
      </trkpt>
      <trkpt lat="47.79398" lon="-2.62572">
        <ele>140.60000610352</ele>
        <time>2025-05-15T11:42:40.000Z</time>
      </trkpt>
      <trkpt lat="47.79398" lon="-2.62565">
        <ele>140.80000305176</ele>
        <time>2025-05-15T11:42:42.000Z</time>
      </trkpt>
      <trkpt lat="47.79401" lon="-2.62558">
        <ele>141</ele>
        <time>2025-05-15T11:42:44.000Z</time>
      </trkpt>
      <trkpt lat="47.79401" lon="-2.62552">
        <ele>141</ele>
        <time>2025-05-15T11:42:45.000Z</time>
      </trkpt>
      <trkpt lat="47.794" lon="-2.62547">
        <ele>141</ele>
        <time>2025-05-15T11:42:46.000Z</time>
      </trkpt>
      <trkpt lat="47.79399" lon="-2.62543">
        <ele>141</ele>
        <time>2025-05-15T11:42:47.000Z</time>
      </trkpt>
      <trkpt lat="47.79399" lon="-2.6254">
        <ele>141</ele>
        <time>2025-05-15T11:42:48.000Z</time>
      </trkpt>
      <trkpt lat="47.79399" lon="-2.62537">
        <ele>141</ele>
        <time>2025-05-15T11:42:49.000Z</time>
      </trkpt>
      <trkpt lat="47.79399" lon="-2.62535">
        <ele>141</ele>
        <time>2025-05-15T11:42:50.000Z</time>
      </trkpt>
      <trkpt lat="47.79402" lon="-2.62534">
        <ele>141</ele>
        <time>2025-05-15T11:42:51.000Z</time>
      </trkpt>
      <trkpt lat="47.79403" lon="-2.62534">
        <ele>141</ele>
        <time>2025-05-15T11:42:52.000Z</time>
      </trkpt>
      <trkpt lat="47.79403" lon="-2.62533">
        <ele>141</ele>
        <time>2025-05-15T11:42:53.000Z</time>
      </trkpt>
      <trkpt lat="47.79403" lon="-2.62534">
        <ele>141</ele>
        <time>2025-05-15T11:42:54.000Z</time>
      </trkpt>
      <trkpt lat="47.79405" lon="-2.62533">
        <ele>140.80000305176</ele>
        <time>2025-05-15T11:42:56.000Z</time>
      </trkpt>
      <trkpt lat="47.79405" lon="-2.62533">
        <ele>140.80000305176</ele>
        <time>2025-05-15T11:42:57.000Z</time>
      </trkpt>
      <trkpt lat="47.79405" lon="-2.62532">
        <ele>140.80000305176</ele>
        <time>2025-05-15T11:42:58.000Z</time>
      </trkpt>
      <trkpt lat="47.79405" lon="-2.6253">
        <ele>140.80000305176</ele>
        <time>2025-05-15T11:42:59.000Z</time>
      </trkpt>
      <trkpt lat="47.79407" lon="-2.62524">
        <ele>140.60000610352</ele>
        <time>2025-05-15T11:43:02.000Z</time>
      </trkpt>
      <trkpt lat="47.79408" lon="-2.62522">
        <ele>140.60000610352</ele>
        <time>2025-05-15T11:43:03.000Z</time>
      </trkpt>
      <trkpt lat="47.79409" lon="-2.62521">
        <ele>140.60000610352</ele>
        <time>2025-05-15T11:43:04.000Z</time>
      </trkpt>
      <trkpt lat="47.7941" lon="-2.62519">
        <ele>140.19999694824</ele>
        <time>2025-05-15T11:43:18.000Z</time>
      </trkpt>
      <trkpt lat="47.7941" lon="-2.62517">
        <ele>140.19999694824</ele>
        <time>2025-05-15T11:43:19.000Z</time>
      </trkpt>
      <trkpt lat="47.79411" lon="-2.62514">
        <ele>140.19999694824</ele>
        <time>2025-05-15T11:43:20.000Z</time>
      </trkpt>
      <trkpt lat="47.79421" lon="-2.62504">
        <ele>139.80000305176</ele>
        <time>2025-05-15T11:43:25.000Z</time>
      </trkpt>
      <trkpt lat="47.79424" lon="-2.62501">
        <ele>139.80000305176</ele>
        <time>2025-05-15T11:43:26.000Z</time>
      </trkpt>
      <trkpt lat="47.79426" lon="-2.62501">
        <ele>139.60000610352</ele>
        <time>2025-05-15T11:43:27.000Z</time>
      </trkpt>
      <trkpt lat="47.79429" lon="-2.62501">
        <ele>139.60000610352</ele>
        <time>2025-05-15T11:43:28.000Z</time>
      </trkpt>
      <trkpt lat="47.79432" lon="-2.625">
        <ele>139.60000610352</ele>
        <time>2025-05-15T11:43:29.000Z</time>
      </trkpt>
      <trkpt lat="47.79436" lon="-2.62499">
        <ele>139.60000610352</ele>
        <time>2025-05-15T11:43:30.000Z</time>
      </trkpt>
      <trkpt lat="47.79447" lon="-2.62495">
        <ele>139.39999389648</ele>
        <time>2025-05-15T11:43:32.000Z</time>
      </trkpt>
      <trkpt lat="47.7945" lon="-2.62494">
        <ele>139.19999694824</ele>
        <time>2025-05-15T11:43:33.000Z</time>
      </trkpt>
      <trkpt lat="47.79452" lon="-2.62493">
        <ele>139.19999694824</ele>
        <time>2025-05-15T11:43:34.000Z</time>
      </trkpt>
      <trkpt lat="47.79454" lon="-2.62492">
        <ele>139</ele>
        <time>2025-05-15T11:43:35.000Z</time>
      </trkpt>
      <trkpt lat="47.79455" lon="-2.62491">
        <ele>138.80000305176</ele>
        <time>2025-05-15T11:43:36.000Z</time>
      </trkpt>
      <trkpt lat="47.79457" lon="-2.62491">
        <ele>138.60000610352</ele>
        <time>2025-05-15T11:43:37.000Z</time>
      </trkpt>
      <trkpt lat="47.79457" lon="-2.62489">
        <ele>138.60000610352</ele>
        <time>2025-05-15T11:43:38.000Z</time>
      </trkpt>
      <trkpt lat="47.79458" lon="-2.62489">
        <ele>138.39999389648</ele>
        <time>2025-05-15T11:43:39.000Z</time>
      </trkpt>
      <trkpt lat="47.79458" lon="-2.62489">
        <ele>138.39999389648</ele>
        <time>2025-05-15T11:43:40.000Z</time>
      </trkpt>
      <trkpt lat="47.79458" lon="-2.62489">
        <ele>138.39999389648</ele>
        <time>2025-05-15T11:43:41.000Z</time>
      </trkpt>
      <trkpt lat="47.79458" lon="-2.62489">
        <ele>138.19999694824</ele>
        <time>2025-05-15T11:43:42.000Z</time>
      </trkpt>
      <trkpt lat="47.79459" lon="-2.62489">
        <ele>138</ele>
        <time>2025-05-15T11:43:54.000Z</time>
      </trkpt>
      <trkpt lat="47.79466" lon="-2.62489">
        <ele>138</ele>
        <time>2025-05-15T11:43:58.000Z</time>
      </trkpt>
      <trkpt lat="47.79467" lon="-2.62489">
        <ele>137.80000305176</ele>
        <time>2025-05-15T11:43:59.000Z</time>
      </trkpt>
      <trkpt lat="47.79468" lon="-2.6249">
        <ele>137.80000305176</ele>
        <time>2025-05-15T11:44:00.000Z</time>
      </trkpt>
      <trkpt lat="47.79471" lon="-2.62491">
        <ele>137.60000610352</ele>
        <time>2025-05-15T11:44:02.000Z</time>
      </trkpt>
      <trkpt lat="47.79472" lon="-2.62491">
        <ele>137.60000610352</ele>
        <time>2025-05-15T11:44:03.000Z</time>
      </trkpt>
      <trkpt lat="47.79474" lon="-2.62492">
        <ele>137.60000610352</ele>
        <time>2025-05-15T11:44:04.000Z</time>
      </trkpt>
      <trkpt lat="47.79476" lon="-2.62493">
        <ele>137.60000610352</ele>
        <time>2025-05-15T11:44:05.000Z</time>
      </trkpt>
      <trkpt lat="47.79482" lon="-2.62497">
        <ele>137.19999694824</ele>
        <time>2025-05-15T11:44:09.000Z</time>
      </trkpt>
      <trkpt lat="47.79487" lon="-2.62499">
        <ele>137.19999694824</ele>
        <time>2025-05-15T11:44:11.000Z</time>
      </trkpt>
      <trkpt lat="47.7949" lon="-2.62501">
        <ele>137.19999694824</ele>
        <time>2025-05-15T11:44:12.000Z</time>
      </trkpt>
      <trkpt lat="47.79505" lon="-2.62508">
        <ele>137</ele>
        <time>2025-05-15T11:44:17.000Z</time>
      </trkpt>
      <trkpt lat="47.79508" lon="-2.62508">
        <ele>137</ele>
        <time>2025-05-15T11:44:18.000Z</time>
      </trkpt>
      <trkpt lat="47.79511" lon="-2.6251">
        <ele>137</ele>
        <time>2025-05-15T11:44:19.000Z</time>
      </trkpt>
      <trkpt lat="47.79524" lon="-2.62516">
        <ele>137</ele>
        <time>2025-05-15T11:44:22.000Z</time>
      </trkpt>
      <trkpt lat="47.79526" lon="-2.62519">
        <ele>137</ele>
        <time>2025-05-15T11:44:23.000Z</time>
      </trkpt>
      <trkpt lat="47.79527" lon="-2.62522">
        <ele>137</ele>
        <time>2025-05-15T11:44:24.000Z</time>
      </trkpt>
      <trkpt lat="47.79528" lon="-2.62526">
        <ele>137</ele>
        <time>2025-05-15T11:44:25.000Z</time>
      </trkpt>
      <trkpt lat="47.79529" lon="-2.62531">
        <ele>136.80000305176</ele>
        <time>2025-05-15T11:44:26.000Z</time>
      </trkpt>
      <trkpt lat="47.79531" lon="-2.62536">
        <ele>136.80000305176</ele>
        <time>2025-05-15T11:44:27.000Z</time>
      </trkpt>
      <trkpt lat="47.79533" lon="-2.62538">
        <ele>136.60000610352</ele>
        <time>2025-05-15T11:44:28.000Z</time>
      </trkpt>
      <trkpt lat="47.79537" lon="-2.62539">
        <ele>136.60000610352</ele>
        <time>2025-05-15T11:44:30.000Z</time>
      </trkpt>
      <trkpt lat="47.79549" lon="-2.62541">
        <ele>136.60000610352</ele>
        <time>2025-05-15T11:44:35.000Z</time>
      </trkpt>
      <trkpt lat="47.79552" lon="-2.62539">
        <ele>136.60000610352</ele>
        <time>2025-05-15T11:44:36.000Z</time>
      </trkpt>
      <trkpt lat="47.79555" lon="-2.62538">
        <ele>136.80000305176</ele>
        <time>2025-05-15T11:44:37.000Z</time>
      </trkpt>
      <trkpt lat="47.79556" lon="-2.62535">
        <ele>137</ele>
        <time>2025-05-15T11:44:38.000Z</time>
      </trkpt>
      <trkpt lat="47.79558" lon="-2.62533">
        <ele>137</ele>
        <time>2025-05-15T11:44:39.000Z</time>
      </trkpt>
      <trkpt lat="47.79559" lon="-2.62531">
        <ele>137.19999694824</ele>
        <time>2025-05-15T11:44:40.000Z</time>
      </trkpt>
      <trkpt lat="47.79561" lon="-2.62529">
        <ele>137.19999694824</ele>
        <time>2025-05-15T11:44:41.000Z</time>
      </trkpt>
      <trkpt lat="47.79563" lon="-2.62527">
        <ele>137.39999389648</ele>
        <time>2025-05-15T11:44:42.000Z</time>
      </trkpt>
      <trkpt lat="47.79563" lon="-2.62523">
        <ele>137.60000610352</ele>
        <time>2025-05-15T11:44:43.000Z</time>
      </trkpt>
      <trkpt lat="47.79562" lon="-2.6252">
        <ele>137.80000305176</ele>
        <time>2025-05-15T11:44:44.000Z</time>
      </trkpt>
      <trkpt lat="47.79562" lon="-2.62517">
        <ele>138</ele>
        <time>2025-05-15T11:44:45.000Z</time>
      </trkpt>
      <trkpt lat="47.79562" lon="-2.62515">
        <ele>138.19999694824</ele>
        <time>2025-05-15T11:44:46.000Z</time>
      </trkpt>
      <trkpt lat="47.79563" lon="-2.62513">
        <ele>138.19999694824</ele>
        <time>2025-05-15T11:44:47.000Z</time>
      </trkpt>
      <trkpt lat="47.79563" lon="-2.6251">
        <ele>138.39999389648</ele>
        <time>2025-05-15T11:44:48.000Z</time>
      </trkpt>
      <trkpt lat="47.79563" lon="-2.62508">
        <ele>138.60000610352</ele>
        <time>2025-05-15T11:44:49.000Z</time>
      </trkpt>
      <trkpt lat="47.79562" lon="-2.62505">
        <ele>138.60000610352</ele>
        <time>2025-05-15T11:44:50.000Z</time>
      </trkpt>
      <trkpt lat="47.79562" lon="-2.62502">
        <ele>138.80000305176</ele>
        <time>2025-05-15T11:44:51.000Z</time>
      </trkpt>
      <trkpt lat="47.79561" lon="-2.62499">
        <ele>138.80000305176</ele>
        <time>2025-05-15T11:44:52.000Z</time>
      </trkpt>
      <trkpt lat="47.79561" lon="-2.62496">
        <ele>138.80000305176</ele>
        <time>2025-05-15T11:44:53.000Z</time>
      </trkpt>
      <trkpt lat="47.79561" lon="-2.62491">
        <ele>139</ele>
        <time>2025-05-15T11:44:55.000Z</time>
      </trkpt>
      <trkpt lat="47.79563" lon="-2.6248">
        <ele>139.19999694824</ele>
        <time>2025-05-15T11:44:58.000Z</time>
      </trkpt>
      <trkpt lat="47.79562" lon="-2.62475">
        <ele>139.19999694824</ele>
        <time>2025-05-15T11:44:59.000Z</time>
      </trkpt>
      <trkpt lat="47.79562" lon="-2.62471">
        <ele>139.39999389648</ele>
        <time>2025-05-15T11:45:00.000Z</time>
      </trkpt>
      <trkpt lat="47.79563" lon="-2.62467">
        <ele>139.39999389648</ele>
        <time>2025-05-15T11:45:01.000Z</time>
      </trkpt>
      <trkpt lat="47.79563" lon="-2.62463">
        <ele>139.60000610352</ele>
        <time>2025-05-15T11:45:02.000Z</time>
      </trkpt>
      <trkpt lat="47.79564" lon="-2.62453">
        <ele>139.60000610352</ele>
        <time>2025-05-15T11:45:04.000Z</time>
      </trkpt>
      <trkpt lat="47.79564" lon="-2.62449">
        <ele>140</ele>
        <time>2025-05-15T11:45:05.000Z</time>
      </trkpt>
      <trkpt lat="47.79564" lon="-2.62445">
        <ele>139.80000305176</ele>
        <time>2025-05-15T11:45:06.000Z</time>
      </trkpt>
      <trkpt lat="47.79567" lon="-2.62441">
        <ele>140.19999694824</ele>
        <time>2025-05-15T11:45:07.000Z</time>
      </trkpt>
      <trkpt lat="47.79569" lon="-2.62436">
        <ele>140.19999694824</ele>
        <time>2025-05-15T11:45:08.000Z</time>
      </trkpt>
      <trkpt lat="47.79571" lon="-2.62432">
        <ele>140.19999694824</ele>
        <time>2025-05-15T11:45:09.000Z</time>
      </trkpt>
      <trkpt lat="47.79572" lon="-2.62428">
        <ele>140.19999694824</ele>
        <time>2025-05-15T11:45:10.000Z</time>
      </trkpt>
      <trkpt lat="47.79575" lon="-2.62423">
        <ele>140.39999389648</ele>
        <time>2025-05-15T11:45:11.000Z</time>
      </trkpt>
      <trkpt lat="47.79579" lon="-2.62411">
        <ele>140.60000610352</ele>
        <time>2025-05-15T11:45:14.000Z</time>
      </trkpt>
      <trkpt lat="47.79581" lon="-2.62404">
        <ele>140.80000305176</ele>
        <time>2025-05-15T11:45:16.000Z</time>
      </trkpt>
      <trkpt lat="47.79584" lon="-2.62391">
        <ele>141.19999694824</ele>
        <time>2025-05-15T11:45:18.000Z</time>
      </trkpt>
      <trkpt lat="47.79585" lon="-2.62382">
        <ele>141.19999694824</ele>
        <time>2025-05-15T11:45:19.000Z</time>
      </trkpt>
      <trkpt lat="47.79586" lon="-2.62377">
        <ele>141.39999389648</ele>
        <time>2025-05-15T11:45:20.000Z</time>
      </trkpt>
      <trkpt lat="47.79586" lon="-2.62371">
        <ele>141.39999389648</ele>
        <time>2025-05-15T11:45:21.000Z</time>
      </trkpt>
      <trkpt lat="47.79587" lon="-2.62368">
        <ele>141.39999389648</ele>
        <time>2025-05-15T11:45:22.000Z</time>
      </trkpt>
      <trkpt lat="47.79587" lon="-2.62363">
        <ele>141.39999389648</ele>
        <time>2025-05-15T11:45:23.000Z</time>
      </trkpt>
      <trkpt lat="47.79586" lon="-2.62354">
        <ele>141.60000610352</ele>
        <time>2025-05-15T11:45:25.000Z</time>
      </trkpt>
      <trkpt lat="47.79586" lon="-2.6235">
        <ele>141.80000305176</ele>
        <time>2025-05-15T11:45:26.000Z</time>
      </trkpt>
      <trkpt lat="47.79586" lon="-2.62347">
        <ele>141.80000305176</ele>
        <time>2025-05-15T11:45:27.000Z</time>
      </trkpt>
      <trkpt lat="47.79586" lon="-2.62343">
        <ele>141.80000305176</ele>
        <time>2025-05-15T11:45:28.000Z</time>
      </trkpt>
      <trkpt lat="47.79585" lon="-2.62315">
        <ele>142.19999694824</ele>
        <time>2025-05-15T11:45:33.000Z</time>
      </trkpt>
      <trkpt lat="47.79588" lon="-2.62304">
        <ele>142.19999694824</ele>
        <time>2025-05-15T11:45:35.000Z</time>
      </trkpt>
      <trkpt lat="47.79594" lon="-2.6229">
        <ele>142.60000610352</ele>
        <time>2025-05-15T11:45:38.000Z</time>
      </trkpt>
      <trkpt lat="47.79595" lon="-2.62287">
        <ele>142.60000610352</ele>
        <time>2025-05-15T11:45:39.000Z</time>
      </trkpt>
      <trkpt lat="47.79597" lon="-2.62282">
        <ele>142.60000610352</ele>
        <time>2025-05-15T11:45:40.000Z</time>
      </trkpt>
      <trkpt lat="47.79599" lon="-2.62277">
        <ele>142.80000305176</ele>
        <time>2025-05-15T11:45:41.000Z</time>
      </trkpt>
      <trkpt lat="47.79601" lon="-2.62271">
        <ele>143</ele>
        <time>2025-05-15T11:45:42.000Z</time>
      </trkpt>
      <trkpt lat="47.79601" lon="-2.62266">
        <ele>143</ele>
        <time>2025-05-15T11:45:43.000Z</time>
      </trkpt>
      <trkpt lat="47.79602" lon="-2.62262">
        <ele>143</ele>
        <time>2025-05-15T11:45:44.000Z</time>
      </trkpt>
      <trkpt lat="47.79607" lon="-2.6225">
        <ele>143</ele>
        <time>2025-05-15T11:45:46.000Z</time>
      </trkpt>
      <trkpt lat="47.79611" lon="-2.62238">
        <ele>143</ele>
        <time>2025-05-15T11:45:49.000Z</time>
      </trkpt>
      <trkpt lat="47.79616" lon="-2.6223">
        <ele>142.80000305176</ele>
        <time>2025-05-15T11:45:51.000Z</time>
      </trkpt>
      <trkpt lat="47.79619" lon="-2.62225">
        <ele>142.60000610352</ele>
        <time>2025-05-15T11:45:52.000Z</time>
      </trkpt>
      <trkpt lat="47.79622" lon="-2.62217">
        <ele>142.39999389648</ele>
        <time>2025-05-15T11:45:53.000Z</time>
      </trkpt>
      <trkpt lat="47.79627" lon="-2.62205">
        <ele>142.19999694824</ele>
        <time>2025-05-15T11:45:55.000Z</time>
      </trkpt>
      <trkpt lat="47.79628" lon="-2.622">
        <ele>142</ele>
        <time>2025-05-15T11:45:56.000Z</time>
      </trkpt>
      <trkpt lat="47.79629" lon="-2.62194">
        <ele>142</ele>
        <time>2025-05-15T11:45:57.000Z</time>
      </trkpt>
      <trkpt lat="47.79629" lon="-2.62188">
        <ele>141.80000305176</ele>
        <time>2025-05-15T11:45:58.000Z</time>
      </trkpt>
      <trkpt lat="47.79629" lon="-2.62182">
        <ele>141.60000610352</ele>
        <time>2025-05-15T11:45:59.000Z</time>
      </trkpt>
      <trkpt lat="47.79631" lon="-2.62175">
        <ele>141.39999389648</ele>
        <time>2025-05-15T11:46:00.000Z</time>
      </trkpt>
      <trkpt lat="47.79636" lon="-2.6217">
        <ele>141.19999694824</ele>
        <time>2025-05-15T11:46:01.000Z</time>
      </trkpt>
      <trkpt lat="47.79637" lon="-2.62166">
        <ele>141.19999694824</ele>
        <time>2025-05-15T11:46:02.000Z</time>
      </trkpt>
      <trkpt lat="47.79637" lon="-2.62161">
        <ele>140.80000305176</ele>
        <time>2025-05-15T11:46:03.000Z</time>
      </trkpt>
      <trkpt lat="47.79638" lon="-2.62156">
        <ele>140.60000610352</ele>
        <time>2025-05-15T11:46:04.000Z</time>
      </trkpt>
      <trkpt lat="47.79641" lon="-2.62151">
        <ele>140.19999694824</ele>
        <time>2025-05-15T11:46:05.000Z</time>
      </trkpt>
      <trkpt lat="47.79643" lon="-2.62145">
        <ele>140</ele>
        <time>2025-05-15T11:46:06.000Z</time>
      </trkpt>
      <trkpt lat="47.79644" lon="-2.62141">
        <ele>139.80000305176</ele>
        <time>2025-05-15T11:46:07.000Z</time>
      </trkpt>
      <trkpt lat="47.79645" lon="-2.62138">
        <ele>139.60000610352</ele>
        <time>2025-05-15T11:46:08.000Z</time>
      </trkpt>
      <trkpt lat="47.79647" lon="-2.62133">
        <ele>139.39999389648</ele>
        <time>2025-05-15T11:46:09.000Z</time>
      </trkpt>
      <trkpt lat="47.79648" lon="-2.62127">
        <ele>139.19999694824</ele>
        <time>2025-05-15T11:46:10.000Z</time>
      </trkpt>
      <trkpt lat="47.79652" lon="-2.62121">
        <ele>139</ele>
        <time>2025-05-15T11:46:11.000Z</time>
      </trkpt>
      <trkpt lat="47.79659" lon="-2.62109">
        <ele>138.80000305176</ele>
        <time>2025-05-15T11:46:13.000Z</time>
      </trkpt>
      <trkpt lat="47.79663" lon="-2.62099">
        <ele>138.60000610352</ele>
        <time>2025-05-15T11:46:15.000Z</time>
      </trkpt>
      <trkpt lat="47.79667" lon="-2.62089">
        <ele>138.19999694824</ele>
        <time>2025-05-15T11:46:17.000Z</time>
      </trkpt>
      <trkpt lat="47.79667" lon="-2.62085">
        <ele>138</ele>
        <time>2025-05-15T11:46:18.000Z</time>
      </trkpt>
      <trkpt lat="47.79669" lon="-2.62083">
        <ele>138</ele>
        <time>2025-05-15T11:46:19.000Z</time>
      </trkpt>
      <trkpt lat="47.79672" lon="-2.62078">
        <ele>137.80000305176</ele>
        <time>2025-05-15T11:46:20.000Z</time>
      </trkpt>
      <trkpt lat="47.79677" lon="-2.62072">
        <ele>137.80000305176</ele>
        <time>2025-05-15T11:46:21.000Z</time>
      </trkpt>
      <trkpt lat="47.7968" lon="-2.62066">
        <ele>137.80000305176</ele>
        <time>2025-05-15T11:46:22.000Z</time>
      </trkpt>
      <trkpt lat="47.79685" lon="-2.62061">
        <ele>137.39999389648</ele>
        <time>2025-05-15T11:46:23.000Z</time>
      </trkpt>
      <trkpt lat="47.7969" lon="-2.62058">
        <ele>137.19999694824</ele>
        <time>2025-05-15T11:46:24.000Z</time>
      </trkpt>
      <trkpt lat="47.79695" lon="-2.62052">
        <ele>136.60000610352</ele>
        <time>2025-05-15T11:46:26.000Z</time>
      </trkpt>
      <trkpt lat="47.79697" lon="-2.62044">
        <ele>136.39999389648</ele>
        <time>2025-05-15T11:46:27.000Z</time>
      </trkpt>
      <trkpt lat="47.79698" lon="-2.62039">
        <ele>136.19999694824</ele>
        <time>2025-05-15T11:46:28.000Z</time>
      </trkpt>
      <trkpt lat="47.79701" lon="-2.62035">
        <ele>136.19999694824</ele>
        <time>2025-05-15T11:46:29.000Z</time>
      </trkpt>
      <trkpt lat="47.79703" lon="-2.62032">
        <ele>136</ele>
        <time>2025-05-15T11:46:30.000Z</time>
      </trkpt>
      <trkpt lat="47.79708" lon="-2.62027">
        <ele>136</ele>
        <time>2025-05-15T11:46:31.000Z</time>
      </trkpt>
      <trkpt lat="47.79712" lon="-2.62024">
        <ele>135.80000305176</ele>
        <time>2025-05-15T11:46:32.000Z</time>
      </trkpt>
      <trkpt lat="47.79715" lon="-2.6202">
        <ele>135.80000305176</ele>
        <time>2025-05-15T11:46:33.000Z</time>
      </trkpt>
      <trkpt lat="47.79719" lon="-2.62015">
        <ele>135.60000610352</ele>
        <time>2025-05-15T11:46:35.000Z</time>
      </trkpt>
      <trkpt lat="47.79722" lon="-2.6201">
        <ele>135.39999389648</ele>
        <time>2025-05-15T11:46:36.000Z</time>
      </trkpt>
      <trkpt lat="47.79729" lon="-2.62005">
        <ele>135.39999389648</ele>
        <time>2025-05-15T11:46:37.000Z</time>
      </trkpt>
      <trkpt lat="47.79732" lon="-2.61995">
        <ele>135.39999389648</ele>
        <time>2025-05-15T11:46:39.000Z</time>
      </trkpt>
      <trkpt lat="47.79738" lon="-2.61988">
        <ele>135.39999389648</ele>
        <time>2025-05-15T11:46:41.000Z</time>
      </trkpt>
      <trkpt lat="47.79748" lon="-2.61977">
        <ele>135.39999389648</ele>
        <time>2025-05-15T11:46:43.000Z</time>
      </trkpt>
      <trkpt lat="47.79751" lon="-2.61971">
        <ele>135.39999389648</ele>
        <time>2025-05-15T11:46:44.000Z</time>
      </trkpt>
      <trkpt lat="47.79768" lon="-2.6196">
        <ele>135.19999694824</ele>
        <time>2025-05-15T11:46:46.000Z</time>
      </trkpt>
      <trkpt lat="47.79773" lon="-2.61948">
        <ele>135</ele>
        <time>2025-05-15T11:46:48.000Z</time>
      </trkpt>
      <trkpt lat="47.79773" lon="-2.61942">
        <ele>135</ele>
        <time>2025-05-15T11:46:49.000Z</time>
      </trkpt>
      <trkpt lat="47.79775" lon="-2.61938">
        <ele>134.80000305176</ele>
        <time>2025-05-15T11:46:50.000Z</time>
      </trkpt>
      <trkpt lat="47.79778" lon="-2.61934">
        <ele>134.80000305176</ele>
        <time>2025-05-15T11:46:51.000Z</time>
      </trkpt>
      <trkpt lat="47.79788" lon="-2.61924">
        <ele>134.60000610352</ele>
        <time>2025-05-15T11:46:53.000Z</time>
      </trkpt>
      <trkpt lat="47.79791" lon="-2.61919">
        <ele>134.39999389648</ele>
        <time>2025-05-15T11:46:54.000Z</time>
      </trkpt>
      <trkpt lat="47.79793" lon="-2.61914">
        <ele>134.39999389648</ele>
        <time>2025-05-15T11:46:55.000Z</time>
      </trkpt>
      <trkpt lat="47.79795" lon="-2.6191">
        <ele>134.39999389648</ele>
        <time>2025-05-15T11:46:56.000Z</time>
      </trkpt>
      <trkpt lat="47.79796" lon="-2.61906">
        <ele>134.19999694824</ele>
        <time>2025-05-15T11:46:57.000Z</time>
      </trkpt>
      <trkpt lat="47.79795" lon="-2.61902">
        <ele>134.19999694824</ele>
        <time>2025-05-15T11:46:58.000Z</time>
      </trkpt>
      <trkpt lat="47.79795" lon="-2.61899">
        <ele>134.19999694824</ele>
        <time>2025-05-15T11:46:59.000Z</time>
      </trkpt>
      <trkpt lat="47.79794" lon="-2.61897">
        <ele>134.19999694824</ele>
        <time>2025-05-15T11:47:00.000Z</time>
      </trkpt>
      <trkpt lat="47.79792" lon="-2.61895">
        <ele>134</ele>
        <time>2025-05-15T11:47:01.000Z</time>
      </trkpt>
      <trkpt lat="47.79791" lon="-2.6189">
        <ele>133.80000305176</ele>
        <time>2025-05-15T11:47:03.000Z</time>
      </trkpt>
      <trkpt lat="47.79791" lon="-2.61886">
        <ele>133.80000305176</ele>
        <time>2025-05-15T11:47:04.000Z</time>
      </trkpt>
      <trkpt lat="47.79793" lon="-2.61884">
        <ele>133.60000610352</ele>
        <time>2025-05-15T11:47:05.000Z</time>
      </trkpt>
      <trkpt lat="47.79793" lon="-2.61881">
        <ele>133.60000610352</ele>
        <time>2025-05-15T11:47:06.000Z</time>
      </trkpt>
      <trkpt lat="47.79793" lon="-2.61876">
        <ele>133.60000610352</ele>
        <time>2025-05-15T11:47:07.000Z</time>
      </trkpt>
      <trkpt lat="47.79795" lon="-2.61864">
        <ele>133.39999389648</ele>
        <time>2025-05-15T11:47:09.000Z</time>
      </trkpt>
      <trkpt lat="47.79798" lon="-2.61855">
        <ele>133.39999389648</ele>
        <time>2025-05-15T11:47:11.000Z</time>
      </trkpt>
      <trkpt lat="47.79798" lon="-2.61851">
        <ele>133.19999694824</ele>
        <time>2025-05-15T11:47:12.000Z</time>
      </trkpt>
      <trkpt lat="47.79798" lon="-2.6185">
        <ele>133</ele>
        <time>2025-05-15T11:47:13.000Z</time>
      </trkpt>
      <trkpt lat="47.79798" lon="-2.6185">
        <ele>133</ele>
        <time>2025-05-15T11:47:14.000Z</time>
      </trkpt>
      <trkpt lat="47.79797" lon="-2.61849">
        <ele>132.80000305176</ele>
        <time>2025-05-15T11:47:15.000Z</time>
      </trkpt>
      <trkpt lat="47.79796" lon="-2.61847">
        <ele>132.80000305176</ele>
        <time>2025-05-15T11:47:16.000Z</time>
      </trkpt>
      <trkpt lat="47.79794" lon="-2.61845">
        <ele>132.60000610352</ele>
        <time>2025-05-15T11:47:17.000Z</time>
      </trkpt>
      <trkpt lat="47.79794" lon="-2.61842">
        <ele>132.39999389648</ele>
        <time>2025-05-15T11:47:18.000Z</time>
      </trkpt>
      <trkpt lat="47.79793" lon="-2.6184">
        <ele>132.19999694824</ele>
        <time>2025-05-15T11:47:19.000Z</time>
      </trkpt>
      <trkpt lat="47.79794" lon="-2.61836">
        <ele>132</ele>
        <time>2025-05-15T11:47:20.000Z</time>
      </trkpt>
      <trkpt lat="47.79793" lon="-2.6183">
        <ele>132</ele>
        <time>2025-05-15T11:47:21.000Z</time>
      </trkpt>
      <trkpt lat="47.79793" lon="-2.61821">
        <ele>131.80000305176</ele>
        <time>2025-05-15T11:47:22.000Z</time>
      </trkpt>
      <trkpt lat="47.79792" lon="-2.61817">
        <ele>131.80000305176</ele>
        <time>2025-05-15T11:47:23.000Z</time>
      </trkpt>
      <trkpt lat="47.79794" lon="-2.61808">
        <ele>131.60000610352</ele>
        <time>2025-05-15T11:47:25.000Z</time>
      </trkpt>
      <trkpt lat="47.79795" lon="-2.61802">
        <ele>131.39999389648</ele>
        <time>2025-05-15T11:47:26.000Z</time>
      </trkpt>
      <trkpt lat="47.79795" lon="-2.61796">
        <ele>131.19999694824</ele>
        <time>2025-05-15T11:47:27.000Z</time>
      </trkpt>
      <trkpt lat="47.79796" lon="-2.61791">
        <ele>131.19999694824</ele>
        <time>2025-05-15T11:47:28.000Z</time>
      </trkpt>
      <trkpt lat="47.79798" lon="-2.6178">
        <ele>131</ele>
        <time>2025-05-15T11:47:30.000Z</time>
      </trkpt>
      <trkpt lat="47.79799" lon="-2.61772">
        <ele>130.80000305176</ele>
        <time>2025-05-15T11:47:31.000Z</time>
      </trkpt>
      <trkpt lat="47.79799" lon="-2.61768">
        <ele>130.80000305176</ele>
        <time>2025-05-15T11:47:32.000Z</time>
      </trkpt>
      <trkpt lat="47.79798" lon="-2.61763">
        <ele>130.60000610352</ele>
        <time>2025-05-15T11:47:33.000Z</time>
      </trkpt>
      <trkpt lat="47.79799" lon="-2.61758">
        <ele>130.60000610352</ele>
        <time>2025-05-15T11:47:34.000Z</time>
      </trkpt>
      <trkpt lat="47.798" lon="-2.61753">
        <ele>130.60000610352</ele>
        <time>2025-05-15T11:47:35.000Z</time>
      </trkpt>
      <trkpt lat="47.79801" lon="-2.61749">
        <ele>130.60000610352</ele>
        <time>2025-05-15T11:47:36.000Z</time>
      </trkpt>
      <trkpt lat="47.79804" lon="-2.61742">
        <ele>130.60000610352</ele>
        <time>2025-05-15T11:47:37.000Z</time>
      </trkpt>
      <trkpt lat="47.79806" lon="-2.61725">
        <ele>130.60000610352</ele>
        <time>2025-05-15T11:47:38.000Z</time>
      </trkpt>
      <trkpt lat="47.79807" lon="-2.61712">
        <ele>130.60000610352</ele>
        <time>2025-05-15T11:47:40.000Z</time>
      </trkpt>
      <trkpt lat="47.79806" lon="-2.61707">
        <ele>130.39999389648</ele>
        <time>2025-05-15T11:47:41.000Z</time>
      </trkpt>
      <trkpt lat="47.79806" lon="-2.617">
        <ele>130.39999389648</ele>
        <time>2025-05-15T11:47:42.000Z</time>
      </trkpt>
      <trkpt lat="47.79806" lon="-2.61694">
        <ele>130.39999389648</ele>
        <time>2025-05-15T11:47:43.000Z</time>
      </trkpt>
      <trkpt lat="47.79805" lon="-2.61679">
        <ele>130.39999389648</ele>
        <time>2025-05-15T11:47:45.000Z</time>
      </trkpt>
      <trkpt lat="47.79805" lon="-2.61671">
        <ele>130.39999389648</ele>
        <time>2025-05-15T11:47:46.000Z</time>
      </trkpt>
      <trkpt lat="47.79808" lon="-2.61665">
        <ele>130.39999389648</ele>
        <time>2025-05-15T11:47:47.000Z</time>
      </trkpt>
      <trkpt lat="47.79809" lon="-2.61654">
        <ele>130.39999389648</ele>
        <time>2025-05-15T11:47:48.000Z</time>
      </trkpt>
      <trkpt lat="47.7981" lon="-2.61654">
        <ele>130.39999389648</ele>
        <time>2025-05-15T11:47:49.000Z</time>
      </trkpt>
      <trkpt lat="47.7981" lon="-2.61654">
        <ele>130.39999389648</ele>
        <time>2025-05-15T11:47:50.000Z</time>
      </trkpt>
      <trkpt lat="47.79811" lon="-2.61653">
        <ele>130.39999389648</ele>
        <time>2025-05-15T11:47:52.000Z</time>
      </trkpt>
      <trkpt lat="47.79813" lon="-2.61653">
        <ele>130.60000610352</ele>
        <time>2025-05-15T11:47:53.000Z</time>
      </trkpt>
      <trkpt lat="47.79814" lon="-2.61653">
        <ele>130.60000610352</ele>
        <time>2025-05-15T11:47:54.000Z</time>
      </trkpt>
      <trkpt lat="47.79815" lon="-2.61653">
        <ele>130.60000610352</ele>
        <time>2025-05-15T11:47:55.000Z</time>
      </trkpt>
      <trkpt lat="47.79815" lon="-2.61652">
        <ele>130.60000610352</ele>
        <time>2025-05-15T11:47:56.000Z</time>
      </trkpt>
      <trkpt lat="47.79815" lon="-2.61651">
        <ele>130.60000610352</ele>
        <time>2025-05-15T11:47:57.000Z</time>
      </trkpt>
      <trkpt lat="47.79817" lon="-2.61649">
        <ele>130.60000610352</ele>
        <time>2025-05-15T11:47:58.000Z</time>
      </trkpt>
      <trkpt lat="47.79821" lon="-2.61647">
        <ele>130.60000610352</ele>
        <time>2025-05-15T11:47:59.000Z</time>
      </trkpt>
      <trkpt lat="47.79824" lon="-2.61642">
        <ele>130.60000610352</ele>
        <time>2025-05-15T11:48:00.000Z</time>
      </trkpt>
      <trkpt lat="47.79826" lon="-2.61638">
        <ele>130.39999389648</ele>
        <time>2025-05-15T11:48:01.000Z</time>
      </trkpt>
      <trkpt lat="47.79826" lon="-2.61636">
        <ele>130.39999389648</ele>
        <time>2025-05-15T11:48:02.000Z</time>
      </trkpt>
      <trkpt lat="47.79825" lon="-2.61634">
        <ele>130.39999389648</ele>
        <time>2025-05-15T11:48:03.000Z</time>
      </trkpt>
      <trkpt lat="47.79821" lon="-2.61633">
        <ele>130.19999694824</ele>
        <time>2025-05-15T11:48:05.000Z</time>
      </trkpt>
      <trkpt lat="47.79819" lon="-2.61629">
        <ele>130</ele>
        <time>2025-05-15T11:48:07.000Z</time>
      </trkpt>
      <trkpt lat="47.79819" lon="-2.61626">
        <ele>129.80000305176</ele>
        <time>2025-05-15T11:48:08.000Z</time>
      </trkpt>
      <trkpt lat="47.79819" lon="-2.61624">
        <ele>129.80000305176</ele>
        <time>2025-05-15T11:48:09.000Z</time>
      </trkpt>
      <trkpt lat="47.79821" lon="-2.61621">
        <ele>129.60000610352</ele>
        <time>2025-05-15T11:48:10.000Z</time>
      </trkpt>
      <trkpt lat="47.79824" lon="-2.61613">
        <ele>129.39999389648</ele>
        <time>2025-05-15T11:48:12.000Z</time>
      </trkpt>
      <trkpt lat="47.79826" lon="-2.6161">
        <ele>129.19999694824</ele>
        <time>2025-05-15T11:48:13.000Z</time>
      </trkpt>
      <trkpt lat="47.79827" lon="-2.61606">
        <ele>129</ele>
        <time>2025-05-15T11:48:14.000Z</time>
      </trkpt>
      <trkpt lat="47.79829" lon="-2.61594">
        <ele>128.80000305176</ele>
        <time>2025-05-15T11:48:16.000Z</time>
      </trkpt>
      <trkpt lat="47.7983" lon="-2.61585">
        <ele>128.80000305176</ele>
        <time>2025-05-15T11:48:17.000Z</time>
      </trkpt>
      <trkpt lat="47.79831" lon="-2.61573">
        <ele>128.80000305176</ele>
        <time>2025-05-15T11:48:19.000Z</time>
      </trkpt>
      <trkpt lat="47.79833" lon="-2.61564">
        <ele>128.80000305176</ele>
        <time>2025-05-15T11:48:20.000Z</time>
      </trkpt>
      <trkpt lat="47.79835" lon="-2.61556">
        <ele>128.80000305176</ele>
        <time>2025-05-15T11:48:22.000Z</time>
      </trkpt>
      <trkpt lat="47.79835" lon="-2.61553">
        <ele>128.80000305176</ele>
        <time>2025-05-15T11:48:23.000Z</time>
      </trkpt>
      <trkpt lat="47.79835" lon="-2.6155">
        <ele>128.80000305176</ele>
        <time>2025-05-15T11:48:24.000Z</time>
      </trkpt>
      <trkpt lat="47.79835" lon="-2.61547">
        <ele>128.80000305176</ele>
        <time>2025-05-15T11:48:25.000Z</time>
      </trkpt>
      <trkpt lat="47.79835" lon="-2.61543">
        <ele>128.80000305176</ele>
        <time>2025-05-15T11:48:26.000Z</time>
      </trkpt>
      <trkpt lat="47.79834" lon="-2.61536">
        <ele>128.80000305176</ele>
        <time>2025-05-15T11:48:27.000Z</time>
      </trkpt>
      <trkpt lat="47.79834" lon="-2.61527">
        <ele>128.60000610352</ele>
        <time>2025-05-15T11:48:28.000Z</time>
      </trkpt>
      <trkpt lat="47.79834" lon="-2.61511">
        <ele>128.60000610352</ele>
        <time>2025-05-15T11:48:30.000Z</time>
      </trkpt>
      <trkpt lat="47.79835" lon="-2.61502">
        <ele>128.39999389648</ele>
        <time>2025-05-15T11:48:31.000Z</time>
      </trkpt>
      <trkpt lat="47.79837" lon="-2.61486">
        <ele>128.39999389648</ele>
        <time>2025-05-15T11:48:33.000Z</time>
      </trkpt>
      <trkpt lat="47.7984" lon="-2.61466">
        <ele>128.39999389648</ele>
        <time>2025-05-15T11:48:35.000Z</time>
      </trkpt>
      <trkpt lat="47.79841" lon="-2.6146">
        <ele>128.19999694824</ele>
        <time>2025-05-15T11:48:36.000Z</time>
      </trkpt>
      <trkpt lat="47.7984" lon="-2.61451">
        <ele>128</ele>
        <time>2025-05-15T11:48:37.000Z</time>
      </trkpt>
      <trkpt lat="47.79841" lon="-2.61443">
        <ele>127.59999847412</ele>
        <time>2025-05-15T11:48:38.000Z</time>
      </trkpt>
      <trkpt lat="47.79841" lon="-2.61437">
        <ele>127.19999694824</ele>
        <time>2025-05-15T11:48:39.000Z</time>
      </trkpt>
      <trkpt lat="47.7984" lon="-2.61434">
        <ele>127</ele>
        <time>2025-05-15T11:48:40.000Z</time>
      </trkpt>
      <trkpt lat="47.79839" lon="-2.61431">
        <ele>127</ele>
        <time>2025-05-15T11:48:41.000Z</time>
      </trkpt>
      <trkpt lat="47.79837" lon="-2.61429">
        <ele>127</ele>
        <time>2025-05-15T11:48:42.000Z</time>
      </trkpt>
      <trkpt lat="47.79835" lon="-2.61423">
        <ele>126.80000305176</ele>
        <time>2025-05-15T11:48:43.000Z</time>
      </trkpt>
      <trkpt lat="47.79835" lon="-2.61418">
        <ele>126.80000305176</ele>
        <time>2025-05-15T11:48:44.000Z</time>
      </trkpt>
      <trkpt lat="47.79837" lon="-2.61412">
        <ele>126.80000305176</ele>
        <time>2025-05-15T11:48:45.000Z</time>
      </trkpt>
      <trkpt lat="47.79837" lon="-2.61404">
        <ele>126.80000305176</ele>
        <time>2025-05-15T11:48:46.000Z</time>
      </trkpt>
      <trkpt lat="47.79838" lon="-2.61397">
        <ele>126.59999847412</ele>
        <time>2025-05-15T11:48:47.000Z</time>
      </trkpt>
      <trkpt lat="47.79837" lon="-2.61389">
        <ele>126.59999847412</ele>
        <time>2025-05-15T11:48:49.000Z</time>
      </trkpt>
      <trkpt lat="47.79838" lon="-2.6139">
        <ele>126.40000152588</ele>
        <time>2025-05-15T11:48:50.000Z</time>
      </trkpt>
      <trkpt lat="47.79835" lon="-2.61393">
        <ele>126.40000152588</ele>
        <time>2025-05-15T11:48:51.000Z</time>
      </trkpt>
      <trkpt lat="47.79827" lon="-2.6139">
        <ele>126.19999694824</ele>
        <time>2025-05-15T11:48:54.000Z</time>
      </trkpt>
      <trkpt lat="47.79826" lon="-2.61386">
        <ele>126.19999694824</ele>
        <time>2025-05-15T11:48:55.000Z</time>
      </trkpt>
      <trkpt lat="47.79824" lon="-2.61382">
        <ele>125.80000305176</ele>
        <time>2025-05-15T11:48:56.000Z</time>
      </trkpt>
      <trkpt lat="47.79823" lon="-2.6138">
        <ele>125.59999847412</ele>
        <time>2025-05-15T11:48:57.000Z</time>
      </trkpt>
      <trkpt lat="47.79823" lon="-2.61379">
        <ele>125.59999847412</ele>
        <time>2025-05-15T11:48:58.000Z</time>
      </trkpt>
      <trkpt lat="47.79823" lon="-2.61376">
        <ele>124.59999847412</ele>
        <time>2025-05-15T11:49:06.000Z</time>
      </trkpt>
      <trkpt lat="47.79823" lon="-2.61376">
        <ele>124.59999847412</ele>
        <time>2025-05-15T11:49:07.000Z</time>
      </trkpt>
      <trkpt lat="47.79822" lon="-2.61375">
        <ele>124.59999847412</ele>
        <time>2025-05-15T11:49:08.000Z</time>
      </trkpt>
      <trkpt lat="47.7982" lon="-2.61373">
        <ele>124.40000152588</ele>
        <time>2025-05-15T11:49:10.000Z</time>
      </trkpt>
      <trkpt lat="47.7982" lon="-2.61372">
        <ele>124.40000152588</ele>
        <time>2025-05-15T11:49:11.000Z</time>
      </trkpt>
      <trkpt lat="47.79819" lon="-2.61371">
        <ele>124.40000152588</ele>
        <time>2025-05-15T11:49:12.000Z</time>
      </trkpt>
      <trkpt lat="47.79818" lon="-2.6137">
        <ele>124.40000152588</ele>
        <time>2025-05-15T11:49:13.000Z</time>
      </trkpt>
      <trkpt lat="47.79816" lon="-2.61368">
        <ele>124</ele>
        <time>2025-05-15T11:49:14.000Z</time>
      </trkpt>
      <trkpt lat="47.79816" lon="-2.61367">
        <ele>123.80000305176</ele>
        <time>2025-05-15T11:49:15.000Z</time>
      </trkpt>
      <trkpt lat="47.79816" lon="-2.61367">
        <ele>123.80000305176</ele>
        <time>2025-05-15T11:49:16.000Z</time>
      </trkpt>
      <trkpt lat="47.79815" lon="-2.61366">
        <ele>123.80000305176</ele>
        <time>2025-05-15T11:49:17.000Z</time>
      </trkpt>
      <trkpt lat="47.79813" lon="-2.61365">
        <ele>123.40000152588</ele>
        <time>2025-05-15T11:49:22.000Z</time>
      </trkpt>
      <trkpt lat="47.79813" lon="-2.61365">
        <ele>123.40000152588</ele>
        <time>2025-05-15T11:49:23.000Z</time>
      </trkpt>
      <trkpt lat="47.79812" lon="-2.61362">
        <ele>123.19999694824</ele>
        <time>2025-05-15T11:49:27.000Z</time>
      </trkpt>
      <trkpt lat="47.79812" lon="-2.61362">
        <ele>123.19999694824</ele>
        <time>2025-05-15T11:49:29.000Z</time>
      </trkpt>
      <trkpt lat="47.79812" lon="-2.61362">
        <ele>123.19999694824</ele>
        <time>2025-05-15T11:49:30.000Z</time>
      </trkpt>
      <trkpt lat="47.79812" lon="-2.61362">
        <ele>123.19999694824</ele>
        <time>2025-05-15T11:49:36.000Z</time>
      </trkpt>
      <trkpt lat="47.79809" lon="-2.61358">
        <ele>123.59999847412</ele>
        <time>2025-05-15T11:49:39.000Z</time>
      </trkpt>
      <trkpt lat="47.79809" lon="-2.61355">
        <ele>123.59999847412</ele>
        <time>2025-05-15T11:49:40.000Z</time>
      </trkpt>
      <trkpt lat="47.79808" lon="-2.61351">
        <ele>123.80000305176</ele>
        <time>2025-05-15T11:49:41.000Z</time>
      </trkpt>
      <trkpt lat="47.79808" lon="-2.61346">
        <ele>124</ele>
        <time>2025-05-15T11:49:42.000Z</time>
      </trkpt>
      <trkpt lat="47.79807" lon="-2.61345">
        <ele>124</ele>
        <time>2025-05-15T11:49:43.000Z</time>
      </trkpt>
      <trkpt lat="47.79806" lon="-2.61345">
        <ele>124</ele>
        <time>2025-05-15T11:49:44.000Z</time>
      </trkpt>
      <trkpt lat="47.79804" lon="-2.61346">
        <ele>124</ele>
        <time>2025-05-15T11:49:46.000Z</time>
      </trkpt>
      <trkpt lat="47.79803" lon="-2.61346">
        <ele>124.19999694824</ele>
        <time>2025-05-15T11:49:47.000Z</time>
      </trkpt>
      <trkpt lat="47.798" lon="-2.61346">
        <ele>124.19999694824</ele>
        <time>2025-05-15T11:49:48.000Z</time>
      </trkpt>
      <trkpt lat="47.79798" lon="-2.61346">
        <ele>124.19999694824</ele>
        <time>2025-05-15T11:49:49.000Z</time>
      </trkpt>
      <trkpt lat="47.79795" lon="-2.61344">
        <ele>124.19999694824</ele>
        <time>2025-05-15T11:49:50.000Z</time>
      </trkpt>
      <trkpt lat="47.79793" lon="-2.61341">
        <ele>124.19999694824</ele>
        <time>2025-05-15T11:49:52.000Z</time>
      </trkpt>
      <trkpt lat="47.79793" lon="-2.61341">
        <ele>124.19999694824</ele>
        <time>2025-05-15T11:49:53.000Z</time>
      </trkpt>
      <trkpt lat="47.79788" lon="-2.6134">
        <ele>124.19999694824</ele>
        <time>2025-05-15T11:49:56.000Z</time>
      </trkpt>
      <trkpt lat="47.79786" lon="-2.61341">
        <ele>124.40000152588</ele>
        <time>2025-05-15T11:49:57.000Z</time>
      </trkpt>
      <trkpt lat="47.79784" lon="-2.6134">
        <ele>125</ele>
        <time>2025-05-15T11:50:00.000Z</time>
      </trkpt>
      <trkpt lat="47.79783" lon="-2.6134">
        <ele>125</ele>
        <time>2025-05-15T11:50:01.000Z</time>
      </trkpt>
      <trkpt lat="47.79783" lon="-2.6134">
        <ele>125</ele>
        <time>2025-05-15T11:50:02.000Z</time>
      </trkpt>
      <trkpt lat="47.79783" lon="-2.61339">
        <ele>125</ele>
        <time>2025-05-15T11:50:03.000Z</time>
      </trkpt>
      <trkpt lat="47.79783" lon="-2.61337">
        <ele>125.40000152588</ele>
        <time>2025-05-15T11:50:04.000Z</time>
      </trkpt>
      <trkpt lat="47.79782" lon="-2.6133">
        <ele>125.80000305176</ele>
        <time>2025-05-15T11:50:06.000Z</time>
      </trkpt>
      <trkpt lat="47.79782" lon="-2.61327">
        <ele>125.80000305176</ele>
        <time>2025-05-15T11:50:07.000Z</time>
      </trkpt>
      <trkpt lat="47.79782" lon="-2.61319">
        <ele>126</ele>
        <time>2025-05-15T11:50:09.000Z</time>
      </trkpt>
      <trkpt lat="47.79783" lon="-2.61315">
        <ele>126</ele>
        <time>2025-05-15T11:50:10.000Z</time>
      </trkpt>
      <trkpt lat="47.79783" lon="-2.61312">
        <ele>125.80000305176</ele>
        <time>2025-05-15T11:50:11.000Z</time>
      </trkpt>
      <trkpt lat="47.79784" lon="-2.6131">
        <ele>125.80000305176</ele>
        <time>2025-05-15T11:50:12.000Z</time>
      </trkpt>
      <trkpt lat="47.79785" lon="-2.61308">
        <ele>125.59999847412</ele>
        <time>2025-05-15T11:50:13.000Z</time>
      </trkpt>
      <trkpt lat="47.79785" lon="-2.61307">
        <ele>125.59999847412</ele>
        <time>2025-05-15T11:50:14.000Z</time>
      </trkpt>
      <trkpt lat="47.79785" lon="-2.61306">
        <ele>125.59999847412</ele>
        <time>2025-05-15T11:50:15.000Z</time>
      </trkpt>
      <trkpt lat="47.79782" lon="-2.61303">
        <ele>125.40000152588</ele>
        <time>2025-05-15T11:50:18.000Z</time>
      </trkpt>
      <trkpt lat="47.79785" lon="-2.61303">
        <ele>125.59999847412</ele>
        <time>2025-05-15T11:50:21.000Z</time>
      </trkpt>
      <trkpt lat="47.79787" lon="-2.61298">
        <ele>125.59999847412</ele>
        <time>2025-05-15T11:50:23.000Z</time>
      </trkpt>
      <trkpt lat="47.79791" lon="-2.6129">
        <ele>125.59999847412</ele>
        <time>2025-05-15T11:50:25.000Z</time>
      </trkpt>
      <trkpt lat="47.79792" lon="-2.61286">
        <ele>125.40000152588</ele>
        <time>2025-05-15T11:50:26.000Z</time>
      </trkpt>
      <trkpt lat="47.79794" lon="-2.61283">
        <ele>125.40000152588</ele>
        <time>2025-05-15T11:50:27.000Z</time>
      </trkpt>
      <trkpt lat="47.79797" lon="-2.61278">
        <ele>125.40000152588</ele>
        <time>2025-05-15T11:50:28.000Z</time>
      </trkpt>
      <trkpt lat="47.79805" lon="-2.61261">
        <ele>125.19999694824</ele>
        <time>2025-05-15T11:50:31.000Z</time>
      </trkpt>
      <trkpt lat="47.79815" lon="-2.61249">
        <ele>125.19999694824</ele>
        <time>2025-05-15T11:50:34.000Z</time>
      </trkpt>
      <trkpt lat="47.79821" lon="-2.61238">
        <ele>125</ele>
        <time>2025-05-15T11:50:36.000Z</time>
      </trkpt>
      <trkpt lat="47.79826" lon="-2.61233">
        <ele>124.80000305176</ele>
        <time>2025-05-15T11:50:37.000Z</time>
      </trkpt>
      <trkpt lat="47.7983" lon="-2.61227">
        <ele>124.40000152588</ele>
        <time>2025-05-15T11:50:38.000Z</time>
      </trkpt>
      <trkpt lat="47.79833" lon="-2.61222">
        <ele>124.19999694824</ele>
        <time>2025-05-15T11:50:39.000Z</time>
      </trkpt>
      <trkpt lat="47.79838" lon="-2.61215">
        <ele>124</ele>
        <time>2025-05-15T11:50:40.000Z</time>
      </trkpt>
      <trkpt lat="47.79841" lon="-2.61209">
        <ele>124</ele>
        <time>2025-05-15T11:50:41.000Z</time>
      </trkpt>
      <trkpt lat="47.79844" lon="-2.61201">
        <ele>124</ele>
        <time>2025-05-15T11:50:42.000Z</time>
      </trkpt>
      <trkpt lat="47.79846" lon="-2.61196">
        <ele>124</ele>
        <time>2025-05-15T11:50:43.000Z</time>
      </trkpt>
      <trkpt lat="47.79848" lon="-2.61194">
        <ele>123.80000305176</ele>
        <time>2025-05-15T11:50:44.000Z</time>
      </trkpt>
      <trkpt lat="47.79849" lon="-2.61191">
        <ele>123.80000305176</ele>
        <time>2025-05-15T11:50:45.000Z</time>
      </trkpt>
      <trkpt lat="47.79849" lon="-2.61187">
        <ele>123.59999847412</ele>
        <time>2025-05-15T11:50:46.000Z</time>
      </trkpt>
      <trkpt lat="47.79849" lon="-2.61182">
        <ele>123.59999847412</ele>
        <time>2025-05-15T11:50:47.000Z</time>
      </trkpt>
      <trkpt lat="47.79849" lon="-2.61179">
        <ele>123.59999847412</ele>
        <time>2025-05-15T11:50:48.000Z</time>
      </trkpt>
      <trkpt lat="47.79849" lon="-2.61175">
        <ele>123.59999847412</ele>
        <time>2025-05-15T11:50:49.000Z</time>
      </trkpt>
      <trkpt lat="47.79847" lon="-2.61167">
        <ele>123.59999847412</ele>
        <time>2025-05-15T11:50:51.000Z</time>
      </trkpt>
      <trkpt lat="47.79847" lon="-2.61155">
        <ele>123.59999847412</ele>
        <time>2025-05-15T11:50:53.000Z</time>
      </trkpt>
      <trkpt lat="47.79847" lon="-2.61145">
        <ele>123.59999847412</ele>
        <time>2025-05-15T11:50:55.000Z</time>
      </trkpt>
      <trkpt lat="47.79847" lon="-2.61138">
        <ele>123.59999847412</ele>
        <time>2025-05-15T11:50:56.000Z</time>
      </trkpt>
      <trkpt lat="47.79847" lon="-2.61133">
        <ele>123.59999847412</ele>
        <time>2025-05-15T11:50:57.000Z</time>
      </trkpt>
      <trkpt lat="47.79844" lon="-2.6112">
        <ele>123.80000305176</ele>
        <time>2025-05-15T11:50:59.000Z</time>
      </trkpt>
      <trkpt lat="47.79839" lon="-2.61104">
        <ele>124</ele>
        <time>2025-05-15T11:51:01.000Z</time>
      </trkpt>
      <trkpt lat="47.79838" lon="-2.61097">
        <ele>123.80000305176</ele>
        <time>2025-05-15T11:51:02.000Z</time>
      </trkpt>
      <trkpt lat="47.79837" lon="-2.61091">
        <ele>123.80000305176</ele>
        <time>2025-05-15T11:51:03.000Z</time>
      </trkpt>
      <trkpt lat="47.79836" lon="-2.61084">
        <ele>123.80000305176</ele>
        <time>2025-05-15T11:51:04.000Z</time>
      </trkpt>
      <trkpt lat="47.79836" lon="-2.61077">
        <ele>123.59999847412</ele>
        <time>2025-05-15T11:51:05.000Z</time>
      </trkpt>
      <trkpt lat="47.79835" lon="-2.61071">
        <ele>123.59999847412</ele>
        <time>2025-05-15T11:51:06.000Z</time>
      </trkpt>
      <trkpt lat="47.79836" lon="-2.61065">
        <ele>123.59999847412</ele>
        <time>2025-05-15T11:51:07.000Z</time>
      </trkpt>
      <trkpt lat="47.79835" lon="-2.61058">
        <ele>123.40000152588</ele>
        <time>2025-05-15T11:51:08.000Z</time>
      </trkpt>
      <trkpt lat="47.79833" lon="-2.61052">
        <ele>123</ele>
        <time>2025-05-15T11:51:09.000Z</time>
      </trkpt>
      <trkpt lat="47.79831" lon="-2.61048">
        <ele>123</ele>
        <time>2025-05-15T11:51:10.000Z</time>
      </trkpt>
      <trkpt lat="47.79829" lon="-2.61044">
        <ele>122.80000305176</ele>
        <time>2025-05-15T11:51:11.000Z</time>
      </trkpt>
      <trkpt lat="47.79827" lon="-2.61039">
        <ele>122.80000305176</ele>
        <time>2025-05-15T11:51:12.000Z</time>
      </trkpt>
      <trkpt lat="47.79824" lon="-2.61034">
        <ele>122.80000305176</ele>
        <time>2025-05-15T11:51:13.000Z</time>
      </trkpt>
      <trkpt lat="47.79821" lon="-2.61031">
        <ele>122.80000305176</ele>
        <time>2025-05-15T11:51:14.000Z</time>
      </trkpt>
      <trkpt lat="47.79818" lon="-2.61027">
        <ele>122.80000305176</ele>
        <time>2025-05-15T11:51:15.000Z</time>
      </trkpt>
      <trkpt lat="47.79816" lon="-2.61021">
        <ele>123</ele>
        <time>2025-05-15T11:51:17.000Z</time>
      </trkpt>
      <trkpt lat="47.79815" lon="-2.61018">
        <ele>123.19999694824</ele>
        <time>2025-05-15T11:51:18.000Z</time>
      </trkpt>
      <trkpt lat="47.79815" lon="-2.61013">
        <ele>123.40000152588</ele>
        <time>2025-05-15T11:51:19.000Z</time>
      </trkpt>
      <trkpt lat="47.79814" lon="-2.61008">
        <ele>123.59999847412</ele>
        <time>2025-05-15T11:51:20.000Z</time>
      </trkpt>
      <trkpt lat="47.79811" lon="-2.61004">
        <ele>123.80000305176</ele>
        <time>2025-05-15T11:51:21.000Z</time>
      </trkpt>
      <trkpt lat="47.79808" lon="-2.61002">
        <ele>123.80000305176</ele>
        <time>2025-05-15T11:51:22.000Z</time>
      </trkpt>
      <trkpt lat="47.79807" lon="-2.60998">
        <ele>124.19999694824</ele>
        <time>2025-05-15T11:51:23.000Z</time>
      </trkpt>
      <trkpt lat="47.79805" lon="-2.60994">
        <ele>124.40000152588</ele>
        <time>2025-05-15T11:51:24.000Z</time>
      </trkpt>
      <trkpt lat="47.79804" lon="-2.60991">
        <ele>124.59999847412</ele>
        <time>2025-05-15T11:51:25.000Z</time>
      </trkpt>
      <trkpt lat="47.79805" lon="-2.60983">
        <ele>124.80000305176</ele>
        <time>2025-05-15T11:51:27.000Z</time>
      </trkpt>
      <trkpt lat="47.79802" lon="-2.60979">
        <ele>124.80000305176</ele>
        <time>2025-05-15T11:51:28.000Z</time>
      </trkpt>
      <trkpt lat="47.798" lon="-2.60976">
        <ele>125.19999694824</ele>
        <time>2025-05-15T11:51:29.000Z</time>
      </trkpt>
      <trkpt lat="47.79799" lon="-2.60973">
        <ele>125.40000152588</ele>
        <time>2025-05-15T11:51:30.000Z</time>
      </trkpt>
      <trkpt lat="47.79798" lon="-2.60969">
        <ele>125.40000152588</ele>
        <time>2025-05-15T11:51:31.000Z</time>
      </trkpt>
      <trkpt lat="47.79797" lon="-2.60966">
        <ele>125.59999847412</ele>
        <time>2025-05-15T11:51:32.000Z</time>
      </trkpt>
      <trkpt lat="47.79793" lon="-2.60962">
        <ele>125.59999847412</ele>
        <time>2025-05-15T11:51:33.000Z</time>
      </trkpt>
      <trkpt lat="47.79791" lon="-2.60959">
        <ele>125.59999847412</ele>
        <time>2025-05-15T11:51:34.000Z</time>
      </trkpt>
      <trkpt lat="47.79788" lon="-2.60955">
        <ele>125.59999847412</ele>
        <time>2025-05-15T11:51:35.000Z</time>
      </trkpt>
      <trkpt lat="47.79786" lon="-2.60951">
        <ele>125.59999847412</ele>
        <time>2025-05-15T11:51:36.000Z</time>
      </trkpt>
      <trkpt lat="47.79784" lon="-2.60947">
        <ele>125.59999847412</ele>
        <time>2025-05-15T11:51:37.000Z</time>
      </trkpt>
      <trkpt lat="47.79778" lon="-2.60944">
        <ele>125.59999847412</ele>
        <time>2025-05-15T11:51:39.000Z</time>
      </trkpt>
      <trkpt lat="47.79775" lon="-2.60942">
        <ele>125.59999847412</ele>
        <time>2025-05-15T11:51:40.000Z</time>
      </trkpt>
      <trkpt lat="47.79766" lon="-2.60937">
        <ele>125.80000305176</ele>
        <time>2025-05-15T11:51:42.000Z</time>
      </trkpt>
      <trkpt lat="47.79765" lon="-2.60935">
        <ele>125.80000305176</ele>
        <time>2025-05-15T11:51:43.000Z</time>
      </trkpt>
      <trkpt lat="47.79764" lon="-2.60932">
        <ele>125.80000305176</ele>
        <time>2025-05-15T11:51:44.000Z</time>
      </trkpt>
      <trkpt lat="47.79762" lon="-2.6093">
        <ele>126</ele>
        <time>2025-05-15T11:51:45.000Z</time>
      </trkpt>
      <trkpt lat="47.7976" lon="-2.60925">
        <ele>126</ele>
        <time>2025-05-15T11:51:46.000Z</time>
      </trkpt>
      <trkpt lat="47.7976" lon="-2.60925">
        <ele>126.19999694824</ele>
        <time>2025-05-15T11:51:47.000Z</time>
      </trkpt>
      <trkpt lat="47.79759" lon="-2.60924">
        <ele>126.40000152588</ele>
        <time>2025-05-15T11:51:48.000Z</time>
      </trkpt>
      <trkpt lat="47.79757" lon="-2.60923">
        <ele>126.40000152588</ele>
        <time>2025-05-15T11:51:49.000Z</time>
      </trkpt>
      <trkpt lat="47.79756" lon="-2.6092">
        <ele>126.59999847412</ele>
        <time>2025-05-15T11:51:50.000Z</time>
      </trkpt>
      <trkpt lat="47.79754" lon="-2.60919">
        <ele>126.59999847412</ele>
        <time>2025-05-15T11:51:51.000Z</time>
      </trkpt>
      <trkpt lat="47.79753" lon="-2.60917">
        <ele>126.59999847412</ele>
        <time>2025-05-15T11:51:52.000Z</time>
      </trkpt>
      <trkpt lat="47.7975" lon="-2.60915">
        <ele>126.59999847412</ele>
        <time>2025-05-15T11:51:53.000Z</time>
      </trkpt>
      <trkpt lat="47.79748" lon="-2.60914">
        <ele>126.80000305176</ele>
        <time>2025-05-15T11:51:54.000Z</time>
      </trkpt>
      <trkpt lat="47.79746" lon="-2.60911">
        <ele>126.80000305176</ele>
        <time>2025-05-15T11:51:55.000Z</time>
      </trkpt>
      <trkpt lat="47.79745" lon="-2.60909">
        <ele>127</ele>
        <time>2025-05-15T11:51:56.000Z</time>
      </trkpt>
      <trkpt lat="47.79743" lon="-2.60907">
        <ele>127.19999694824</ele>
        <time>2025-05-15T11:51:57.000Z</time>
      </trkpt>
      <trkpt lat="47.79741" lon="-2.60904">
        <ele>127.19999694824</ele>
        <time>2025-05-15T11:51:58.000Z</time>
      </trkpt>
      <trkpt lat="47.79737" lon="-2.60899">
        <ele>127.59999847412</ele>
        <time>2025-05-15T11:52:00.000Z</time>
      </trkpt>
      <trkpt lat="47.79735" lon="-2.60897">
        <ele>127.59999847412</ele>
        <time>2025-05-15T11:52:01.000Z</time>
      </trkpt>
      <trkpt lat="47.79732" lon="-2.60894">
        <ele>127.59999847412</ele>
        <time>2025-05-15T11:52:02.000Z</time>
      </trkpt>
      <trkpt lat="47.79729" lon="-2.60891">
        <ele>127.59999847412</ele>
        <time>2025-05-15T11:52:03.000Z</time>
      </trkpt>
      <trkpt lat="47.79727" lon="-2.60889">
        <ele>127.59999847412</ele>
        <time>2025-05-15T11:52:04.000Z</time>
      </trkpt>
      <trkpt lat="47.79726" lon="-2.60885">
        <ele>127.59999847412</ele>
        <time>2025-05-15T11:52:05.000Z</time>
      </trkpt>
      <trkpt lat="47.79724" lon="-2.6088">
        <ele>127.59999847412</ele>
        <time>2025-05-15T11:52:06.000Z</time>
      </trkpt>
      <trkpt lat="47.79722" lon="-2.60877">
        <ele>127.59999847412</ele>
        <time>2025-05-15T11:52:07.000Z</time>
      </trkpt>
      <trkpt lat="47.7972" lon="-2.60873">
        <ele>127.59999847412</ele>
        <time>2025-05-15T11:52:08.000Z</time>
      </trkpt>
      <trkpt lat="47.79717" lon="-2.60867">
        <ele>127.80000305176</ele>
        <time>2025-05-15T11:52:10.000Z</time>
      </trkpt>
      <trkpt lat="47.79719" lon="-2.60864">
        <ele>127.80000305176</ele>
        <time>2025-05-15T11:52:11.000Z</time>
      </trkpt>
      <trkpt lat="47.79721" lon="-2.60856">
        <ele>128.19999694824</ele>
        <time>2025-05-15T11:52:12.000Z</time>
      </trkpt>
      <trkpt lat="47.79722" lon="-2.60853">
        <ele>128.19999694824</ele>
        <time>2025-05-15T11:52:13.000Z</time>
      </trkpt>
      <trkpt lat="47.79722" lon="-2.6085">
        <ele>128.19999694824</ele>
        <time>2025-05-15T11:52:14.000Z</time>
      </trkpt>
      <trkpt lat="47.79722" lon="-2.60847">
        <ele>128.39999389648</ele>
        <time>2025-05-15T11:52:15.000Z</time>
      </trkpt>
      <trkpt lat="47.79724" lon="-2.60843">
        <ele>128.39999389648</ele>
        <time>2025-05-15T11:52:16.000Z</time>
      </trkpt>
      <trkpt lat="47.79728" lon="-2.6084">
        <ele>128.19999694824</ele>
        <time>2025-05-15T11:52:17.000Z</time>
      </trkpt>
      <trkpt lat="47.7973" lon="-2.60835">
        <ele>128.19999694824</ele>
        <time>2025-05-15T11:52:18.000Z</time>
      </trkpt>
      <trkpt lat="47.79732" lon="-2.60829">
        <ele>128.19999694824</ele>
        <time>2025-05-15T11:52:19.000Z</time>
      </trkpt>
      <trkpt lat="47.79733" lon="-2.60825">
        <ele>128.19999694824</ele>
        <time>2025-05-15T11:52:20.000Z</time>
      </trkpt>
      <trkpt lat="47.79735" lon="-2.60823">
        <ele>128.39999389648</ele>
        <time>2025-05-15T11:52:21.000Z</time>
      </trkpt>
      <trkpt lat="47.79736" lon="-2.60821">
        <ele>128.19999694824</ele>
        <time>2025-05-15T11:52:22.000Z</time>
      </trkpt>
      <trkpt lat="47.79736" lon="-2.6082">
        <ele>128</ele>
        <time>2025-05-15T11:52:23.000Z</time>
      </trkpt>
      <trkpt lat="47.79738" lon="-2.60819">
        <ele>128.39999389648</ele>
        <time>2025-05-15T11:52:25.000Z</time>
      </trkpt>
      <trkpt lat="47.7974" lon="-2.60818">
        <ele>128.39999389648</ele>
        <time>2025-05-15T11:52:26.000Z</time>
      </trkpt>
      <trkpt lat="47.7974" lon="-2.60816">
        <ele>128.19999694824</ele>
        <time>2025-05-15T11:52:27.000Z</time>
      </trkpt>
      <trkpt lat="47.7974" lon="-2.60814">
        <ele>128</ele>
        <time>2025-05-15T11:52:28.000Z</time>
      </trkpt>
      <trkpt lat="47.79741" lon="-2.60812">
        <ele>128.19999694824</ele>
        <time>2025-05-15T11:52:29.000Z</time>
      </trkpt>
      <trkpt lat="47.79742" lon="-2.6081">
        <ele>128.39999389648</ele>
        <time>2025-05-15T11:52:30.000Z</time>
      </trkpt>
      <trkpt lat="47.79744" lon="-2.60805">
        <ele>128.60000610352</ele>
        <time>2025-05-15T11:52:32.000Z</time>
      </trkpt>
      <trkpt lat="47.79745" lon="-2.60803">
        <ele>128.60000610352</ele>
        <time>2025-05-15T11:52:33.000Z</time>
      </trkpt>
      <trkpt lat="47.79748" lon="-2.60799">
        <ele>128.60000610352</ele>
        <time>2025-05-15T11:52:34.000Z</time>
      </trkpt>
      <trkpt lat="47.79751" lon="-2.60797">
        <ele>128.60000610352</ele>
        <time>2025-05-15T11:52:35.000Z</time>
      </trkpt>
      <trkpt lat="47.79753" lon="-2.60796">
        <ele>128.60000610352</ele>
        <time>2025-05-15T11:52:36.000Z</time>
      </trkpt>
      <trkpt lat="47.79754" lon="-2.60794">
        <ele>128.60000610352</ele>
        <time>2025-05-15T11:52:37.000Z</time>
      </trkpt>
      <trkpt lat="47.79757" lon="-2.60793">
        <ele>128.80000305176</ele>
        <time>2025-05-15T11:52:38.000Z</time>
      </trkpt>
      <trkpt lat="47.79758" lon="-2.60791">
        <ele>128.80000305176</ele>
        <time>2025-05-15T11:52:39.000Z</time>
      </trkpt>
      <trkpt lat="47.79764" lon="-2.60785">
        <ele>129.19999694824</ele>
        <time>2025-05-15T11:52:42.000Z</time>
      </trkpt>
      <trkpt lat="47.79766" lon="-2.60784">
        <ele>129.19999694824</ele>
        <time>2025-05-15T11:52:43.000Z</time>
      </trkpt>
      <trkpt lat="47.79768" lon="-2.60781">
        <ele>129.39999389648</ele>
        <time>2025-05-15T11:52:44.000Z</time>
      </trkpt>
      <trkpt lat="47.79771" lon="-2.60775">
        <ele>129.39999389648</ele>
        <time>2025-05-15T11:52:45.000Z</time>
      </trkpt>
      <trkpt lat="47.79781" lon="-2.60767">
        <ele>129.19999694824</ele>
        <time>2025-05-15T11:52:48.000Z</time>
      </trkpt>
      <trkpt lat="47.79784" lon="-2.60764">
        <ele>129.39999389648</ele>
        <time>2025-05-15T11:52:49.000Z</time>
      </trkpt>
      <trkpt lat="47.79786" lon="-2.60762">
        <ele>129.39999389648</ele>
        <time>2025-05-15T11:52:50.000Z</time>
      </trkpt>
      <trkpt lat="47.79786" lon="-2.6076">
        <ele>129.60000610352</ele>
        <time>2025-05-15T11:52:51.000Z</time>
      </trkpt>
      <trkpt lat="47.79785" lon="-2.60754">
        <ele>129.60000610352</ele>
        <time>2025-05-15T11:52:53.000Z</time>
      </trkpt>
      <trkpt lat="47.79783" lon="-2.60737">
        <ele>129.60000610352</ele>
        <time>2025-05-15T11:52:57.000Z</time>
      </trkpt>
      <trkpt lat="47.79785" lon="-2.60732">
        <ele>129.60000610352</ele>
        <time>2025-05-15T11:52:58.000Z</time>
      </trkpt>
      <trkpt lat="47.79788" lon="-2.60726">
        <ele>129.60000610352</ele>
        <time>2025-05-15T11:52:59.000Z</time>
      </trkpt>
      <trkpt lat="47.79789" lon="-2.60721">
        <ele>129.60000610352</ele>
        <time>2025-05-15T11:53:00.000Z</time>
      </trkpt>
      <trkpt lat="47.79789" lon="-2.60715">
        <ele>129.60000610352</ele>
        <time>2025-05-15T11:53:01.000Z</time>
      </trkpt>
      <trkpt lat="47.79788" lon="-2.60709">
        <ele>129.60000610352</ele>
        <time>2025-05-15T11:53:02.000Z</time>
      </trkpt>
      <trkpt lat="47.79786" lon="-2.60702">
        <ele>129.39999389648</ele>
        <time>2025-05-15T11:53:03.000Z</time>
      </trkpt>
      <trkpt lat="47.79788" lon="-2.60694">
        <ele>129.39999389648</ele>
        <time>2025-05-15T11:53:04.000Z</time>
      </trkpt>
      <trkpt lat="47.79787" lon="-2.60686">
        <ele>129.39999389648</ele>
        <time>2025-05-15T11:53:05.000Z</time>
      </trkpt>
      <trkpt lat="47.79789" lon="-2.60681">
        <ele>129.39999389648</ele>
        <time>2025-05-15T11:53:06.000Z</time>
      </trkpt>
      <trkpt lat="47.79789" lon="-2.60672">
        <ele>129.39999389648</ele>
        <time>2025-05-15T11:53:07.000Z</time>
      </trkpt>
      <trkpt lat="47.79789" lon="-2.60668">
        <ele>129.39999389648</ele>
        <time>2025-05-15T11:53:08.000Z</time>
      </trkpt>
      <trkpt lat="47.79793" lon="-2.60662">
        <ele>129.39999389648</ele>
        <time>2025-05-15T11:53:09.000Z</time>
      </trkpt>
      <trkpt lat="47.79793" lon="-2.60658">
        <ele>129.39999389648</ele>
        <time>2025-05-15T11:53:10.000Z</time>
      </trkpt>
      <trkpt lat="47.79795" lon="-2.60654">
        <ele>129.39999389648</ele>
        <time>2025-05-15T11:53:11.000Z</time>
      </trkpt>
      <trkpt lat="47.79796" lon="-2.60648">
        <ele>129.39999389648</ele>
        <time>2025-05-15T11:53:12.000Z</time>
      </trkpt>
      <trkpt lat="47.79795" lon="-2.6064">
        <ele>129.39999389648</ele>
        <time>2025-05-15T11:53:13.000Z</time>
      </trkpt>
      <trkpt lat="47.79795" lon="-2.60632">
        <ele>129.39999389648</ele>
        <time>2025-05-15T11:53:14.000Z</time>
      </trkpt>
      <trkpt lat="47.79795" lon="-2.60619">
        <ele>129.39999389648</ele>
        <time>2025-05-15T11:53:16.000Z</time>
      </trkpt>
      <trkpt lat="47.79794" lon="-2.606">
        <ele>129.19999694824</ele>
        <time>2025-05-15T11:53:18.000Z</time>
      </trkpt>
      <trkpt lat="47.79795" lon="-2.60593">
        <ele>129.19999694824</ele>
        <time>2025-05-15T11:53:19.000Z</time>
      </trkpt>
      <trkpt lat="47.79795" lon="-2.60589">
        <ele>129</ele>
        <time>2025-05-15T11:53:20.000Z</time>
      </trkpt>
      <trkpt lat="47.79799" lon="-2.60583">
        <ele>128.80000305176</ele>
        <time>2025-05-15T11:53:21.000Z</time>
      </trkpt>
      <trkpt lat="47.79802" lon="-2.60578">
        <ele>128.39999389648</ele>
        <time>2025-05-15T11:53:22.000Z</time>
      </trkpt>
      <trkpt lat="47.79807" lon="-2.6057">
        <ele>128.19999694824</ele>
        <time>2025-05-15T11:53:23.000Z</time>
      </trkpt>
      <trkpt lat="47.79811" lon="-2.60565">
        <ele>128</ele>
        <time>2025-05-15T11:53:24.000Z</time>
      </trkpt>
      <trkpt lat="47.79815" lon="-2.60545">
        <ele>127.40000152588</ele>
        <time>2025-05-15T11:53:28.000Z</time>
      </trkpt>
      <trkpt lat="47.79816" lon="-2.60535">
        <ele>127</ele>
        <time>2025-05-15T11:53:29.000Z</time>
      </trkpt>
      <trkpt lat="47.79817" lon="-2.60529">
        <ele>127</ele>
        <time>2025-05-15T11:53:30.000Z</time>
      </trkpt>
      <trkpt lat="47.79817" lon="-2.60523">
        <ele>126.80000305176</ele>
        <time>2025-05-15T11:53:31.000Z</time>
      </trkpt>
      <trkpt lat="47.79817" lon="-2.60517">
        <ele>126.59999847412</ele>
        <time>2025-05-15T11:53:32.000Z</time>
      </trkpt>
      <trkpt lat="47.79816" lon="-2.60501">
        <ele>125.40000152588</ele>
        <time>2025-05-15T11:53:34.000Z</time>
      </trkpt>
      <trkpt lat="47.79816" lon="-2.60473">
        <ele>124.80000305176</ele>
        <time>2025-05-15T11:53:37.000Z</time>
      </trkpt>
      <trkpt lat="47.7982" lon="-2.60461">
        <ele>124.80000305176</ele>
        <time>2025-05-15T11:53:38.000Z</time>
      </trkpt>
      <trkpt lat="47.79822" lon="-2.60445">
        <ele>124.59999847412</ele>
        <time>2025-05-15T11:53:40.000Z</time>
      </trkpt>
      <trkpt lat="47.79821" lon="-2.60427">
        <ele>124.19999694824</ele>
        <time>2025-05-15T11:53:42.000Z</time>
      </trkpt>
      <trkpt lat="47.7982" lon="-2.60419">
        <ele>124</ele>
        <time>2025-05-15T11:53:43.000Z</time>
      </trkpt>
      <trkpt lat="47.79822" lon="-2.60401">
        <ele>123.80000305176</ele>
        <time>2025-05-15T11:53:45.000Z</time>
      </trkpt>
      <trkpt lat="47.79824" lon="-2.60394">
        <ele>123.59999847412</ele>
        <time>2025-05-15T11:53:46.000Z</time>
      </trkpt>
      <trkpt lat="47.79828" lon="-2.60383">
        <ele>123.40000152588</ele>
        <time>2025-05-15T11:53:47.000Z</time>
      </trkpt>
      <trkpt lat="47.79829" lon="-2.60374">
        <ele>123.19999694824</ele>
        <time>2025-05-15T11:53:48.000Z</time>
      </trkpt>
      <trkpt lat="47.7983" lon="-2.60367">
        <ele>122.59999847412</ele>
        <time>2025-05-15T11:53:49.000Z</time>
      </trkpt>
      <trkpt lat="47.7983" lon="-2.60358">
        <ele>122.19999694824</ele>
        <time>2025-05-15T11:53:50.000Z</time>
      </trkpt>
      <trkpt lat="47.79827" lon="-2.60348">
        <ele>122</ele>
        <time>2025-05-15T11:53:51.000Z</time>
      </trkpt>
      <trkpt lat="47.79826" lon="-2.60342">
        <ele>121.80000305176</ele>
        <time>2025-05-15T11:53:52.000Z</time>
      </trkpt>
      <trkpt lat="47.79826" lon="-2.60335">
        <ele>121.80000305176</ele>
        <time>2025-05-15T11:53:53.000Z</time>
      </trkpt>
      <trkpt lat="47.79826" lon="-2.60331">
        <ele>121.40000152588</ele>
        <time>2025-05-15T11:53:54.000Z</time>
      </trkpt>
      <trkpt lat="47.79827" lon="-2.60327">
        <ele>121.19999694824</ele>
        <time>2025-05-15T11:53:55.000Z</time>
      </trkpt>
      <trkpt lat="47.79827" lon="-2.60327">
        <ele>121</ele>
        <time>2025-05-15T11:53:56.000Z</time>
      </trkpt>
      <trkpt lat="47.79827" lon="-2.60324">
        <ele>120.40000152588</ele>
        <time>2025-05-15T11:54:06.000Z</time>
      </trkpt>
      <trkpt lat="47.79827" lon="-2.60323">
        <ele>120.40000152588</ele>
        <time>2025-05-15T11:54:07.000Z</time>
      </trkpt>
      <trkpt lat="47.79828" lon="-2.60321">
        <ele>120.40000152588</ele>
        <time>2025-05-15T11:54:08.000Z</time>
      </trkpt>
      <trkpt lat="47.7983" lon="-2.60319">
        <ele>120.19999694824</ele>
        <time>2025-05-15T11:54:09.000Z</time>
      </trkpt>
      <trkpt lat="47.79831" lon="-2.60316">
        <ele>120.19999694824</ele>
        <time>2025-05-15T11:54:10.000Z</time>
      </trkpt>
      <trkpt lat="47.79833" lon="-2.60305">
        <ele>120</ele>
        <time>2025-05-15T11:54:13.000Z</time>
      </trkpt>
      <trkpt lat="47.79834" lon="-2.60299">
        <ele>119.80000305176</ele>
        <time>2025-05-15T11:54:14.000Z</time>
      </trkpt>
      <trkpt lat="47.79834" lon="-2.60294">
        <ele>119.80000305176</ele>
        <time>2025-05-15T11:54:15.000Z</time>
      </trkpt>
      <trkpt lat="47.79837" lon="-2.60274">
        <ele>119.59999847412</ele>
        <time>2025-05-15T11:54:19.000Z</time>
      </trkpt>
      <trkpt lat="47.7984" lon="-2.60263">
        <ele>119.59999847412</ele>
        <time>2025-05-15T11:54:21.000Z</time>
      </trkpt>
      <trkpt lat="47.79842" lon="-2.6025">
        <ele>119.59999847412</ele>
        <time>2025-05-15T11:54:23.000Z</time>
      </trkpt>
      <trkpt lat="47.79842" lon="-2.60233">
        <ele>119.59999847412</ele>
        <time>2025-05-15T11:54:25.000Z</time>
      </trkpt>
      <trkpt lat="47.79843" lon="-2.60226">
        <ele>119.59999847412</ele>
        <time>2025-05-15T11:54:26.000Z</time>
      </trkpt>
      <trkpt lat="47.79845" lon="-2.60212">
        <ele>119.40000152588</ele>
        <time>2025-05-15T11:54:28.000Z</time>
      </trkpt>
      <trkpt lat="47.79846" lon="-2.60205">
        <ele>119.40000152588</ele>
        <time>2025-05-15T11:54:29.000Z</time>
      </trkpt>
      <trkpt lat="47.79852" lon="-2.60182">
        <ele>119</ele>
        <time>2025-05-15T11:54:32.000Z</time>
      </trkpt>
      <trkpt lat="47.79853" lon="-2.60175">
        <ele>119</ele>
        <time>2025-05-15T11:54:33.000Z</time>
      </trkpt>
      <trkpt lat="47.79854" lon="-2.60162">
        <ele>119</ele>
        <time>2025-05-15T11:54:35.000Z</time>
      </trkpt>
      <trkpt lat="47.79854" lon="-2.60157">
        <ele>119</ele>
        <time>2025-05-15T11:54:36.000Z</time>
      </trkpt>
      <trkpt lat="47.79855" lon="-2.60135">
        <ele>119.19999694824</ele>
        <time>2025-05-15T11:54:39.000Z</time>
      </trkpt>
      <trkpt lat="47.79859" lon="-2.60118">
        <ele>119.19999694824</ele>
        <time>2025-05-15T11:54:42.000Z</time>
      </trkpt>
      <trkpt lat="47.79861" lon="-2.60104">
        <ele>119</ele>
        <time>2025-05-15T11:54:44.000Z</time>
      </trkpt>
      <trkpt lat="47.79863" lon="-2.60098">
        <ele>118.80000305176</ele>
        <time>2025-05-15T11:54:45.000Z</time>
      </trkpt>
      <trkpt lat="47.79864" lon="-2.60093">
        <ele>118.80000305176</ele>
        <time>2025-05-15T11:54:46.000Z</time>
      </trkpt>
      <trkpt lat="47.79866" lon="-2.60088">
        <ele>118.59999847412</ele>
        <time>2025-05-15T11:54:47.000Z</time>
      </trkpt>
      <trkpt lat="47.79867" lon="-2.60084">
        <ele>118.19999694824</ele>
        <time>2025-05-15T11:54:48.000Z</time>
      </trkpt>
      <trkpt lat="47.79866" lon="-2.60081">
        <ele>118.19999694824</ele>
        <time>2025-05-15T11:54:49.000Z</time>
      </trkpt>
      <trkpt lat="47.79866" lon="-2.60077">
        <ele>117.59999847412</ele>
        <time>2025-05-15T11:54:50.000Z</time>
      </trkpt>
      <trkpt lat="47.79865" lon="-2.60076">
        <ele>117.40000152588</ele>
        <time>2025-05-15T11:54:51.000Z</time>
      </trkpt>
      <trkpt lat="47.79864" lon="-2.60075">
        <ele>116</ele>
        <time>2025-05-15T11:54:54.000Z</time>
      </trkpt>
      <trkpt lat="47.79862" lon="-2.60074">
        <ele>115.80000305176</ele>
        <time>2025-05-15T11:54:55.000Z</time>
      </trkpt>
      <trkpt lat="47.79861" lon="-2.60074">
        <ele>115.80000305176</ele>
        <time>2025-05-15T11:54:56.000Z</time>
      </trkpt>
      <trkpt lat="47.79856" lon="-2.60073">
        <ele>115.59999847412</ele>
        <time>2025-05-15T11:54:58.000Z</time>
      </trkpt>
      <trkpt lat="47.79853" lon="-2.60073">
        <ele>115.40000152588</ele>
        <time>2025-05-15T11:54:59.000Z</time>
      </trkpt>
      <trkpt lat="47.79847" lon="-2.60073">
        <ele>115.40000152588</ele>
        <time>2025-05-15T11:55:01.000Z</time>
      </trkpt>
      <trkpt lat="47.79831" lon="-2.6007">
        <ele>115.19999694824</ele>
        <time>2025-05-15T11:55:06.000Z</time>
      </trkpt>
      <trkpt lat="47.79827" lon="-2.60067">
        <ele>115.19999694824</ele>
        <time>2025-05-15T11:55:07.000Z</time>
      </trkpt>
      <trkpt lat="47.79824" lon="-2.60064">
        <ele>115</ele>
        <time>2025-05-15T11:55:08.000Z</time>
      </trkpt>
      <trkpt lat="47.79821" lon="-2.60061">
        <ele>114.80000305176</ele>
        <time>2025-05-15T11:55:09.000Z</time>
      </trkpt>
      <trkpt lat="47.79819" lon="-2.60057">
        <ele>114.59999847412</ele>
        <time>2025-05-15T11:55:10.000Z</time>
      </trkpt>
      <trkpt lat="47.79818" lon="-2.60054">
        <ele>114.59999847412</ele>
        <time>2025-05-15T11:55:11.000Z</time>
      </trkpt>
      <trkpt lat="47.79816" lon="-2.60051">
        <ele>114.40000152588</ele>
        <time>2025-05-15T11:55:12.000Z</time>
      </trkpt>
      <trkpt lat="47.7981" lon="-2.60048">
        <ele>114</ele>
        <time>2025-05-15T11:55:14.000Z</time>
      </trkpt>
      <trkpt lat="47.79806" lon="-2.60045">
        <ele>113.59999847412</ele>
        <time>2025-05-15T11:55:15.000Z</time>
      </trkpt>
      <trkpt lat="47.79803" lon="-2.60042">
        <ele>113.40000152588</ele>
        <time>2025-05-15T11:55:16.000Z</time>
      </trkpt>
      <trkpt lat="47.79798" lon="-2.60041">
        <ele>113.19999694824</ele>
        <time>2025-05-15T11:55:17.000Z</time>
      </trkpt>
      <trkpt lat="47.79794" lon="-2.60039">
        <ele>113.19999694824</ele>
        <time>2025-05-15T11:55:18.000Z</time>
      </trkpt>
      <trkpt lat="47.7979" lon="-2.60038">
        <ele>112.80000305176</ele>
        <time>2025-05-15T11:55:19.000Z</time>
      </trkpt>
      <trkpt lat="47.79786" lon="-2.60036">
        <ele>112.59999847412</ele>
        <time>2025-05-15T11:55:20.000Z</time>
      </trkpt>
      <trkpt lat="47.79782" lon="-2.60033">
        <ele>112.19999694824</ele>
        <time>2025-05-15T11:55:21.000Z</time>
      </trkpt>
      <trkpt lat="47.79777" lon="-2.60028">
        <ele>111.80000305176</ele>
        <time>2025-05-15T11:55:23.000Z</time>
      </trkpt>
      <trkpt lat="47.79775" lon="-2.60027">
        <ele>111.80000305176</ele>
        <time>2025-05-15T11:55:24.000Z</time>
      </trkpt>
      <trkpt lat="47.79772" lon="-2.60026">
        <ele>111.80000305176</ele>
        <time>2025-05-15T11:55:25.000Z</time>
      </trkpt>
      <trkpt lat="47.79768" lon="-2.60027">
        <ele>111.80000305176</ele>
        <time>2025-05-15T11:55:26.000Z</time>
      </trkpt>
      <trkpt lat="47.79766" lon="-2.60029">
        <ele>111.80000305176</ele>
        <time>2025-05-15T11:55:27.000Z</time>
      </trkpt>
      <trkpt lat="47.79764" lon="-2.6003">
        <ele>111.80000305176</ele>
        <time>2025-05-15T11:55:28.000Z</time>
      </trkpt>
      <trkpt lat="47.79762" lon="-2.60031">
        <ele>111.80000305176</ele>
        <time>2025-05-15T11:55:29.000Z</time>
      </trkpt>
      <trkpt lat="47.7976" lon="-2.60032">
        <ele>111.80000305176</ele>
        <time>2025-05-15T11:55:30.000Z</time>
      </trkpt>
      <trkpt lat="47.79755" lon="-2.60031">
        <ele>111.80000305176</ele>
        <time>2025-05-15T11:55:32.000Z</time>
      </trkpt>
      <trkpt lat="47.79753" lon="-2.60027">
        <ele>111.80000305176</ele>
        <time>2025-05-15T11:55:33.000Z</time>
      </trkpt>
      <trkpt lat="47.79746" lon="-2.6002">
        <ele>111.80000305176</ele>
        <time>2025-05-15T11:55:35.000Z</time>
      </trkpt>
      <trkpt lat="47.79743" lon="-2.60019">
        <ele>111.80000305176</ele>
        <time>2025-05-15T11:55:36.000Z</time>
      </trkpt>
      <trkpt lat="47.7974" lon="-2.60019">
        <ele>111.80000305176</ele>
        <time>2025-05-15T11:55:37.000Z</time>
      </trkpt>
      <trkpt lat="47.79738" lon="-2.6002">
        <ele>111.80000305176</ele>
        <time>2025-05-15T11:55:38.000Z</time>
      </trkpt>
      <trkpt lat="47.79734" lon="-2.6002">
        <ele>111.80000305176</ele>
        <time>2025-05-15T11:55:39.000Z</time>
      </trkpt>
      <trkpt lat="47.79731" lon="-2.60021">
        <ele>111.80000305176</ele>
        <time>2025-05-15T11:55:40.000Z</time>
      </trkpt>
      <trkpt lat="47.79729" lon="-2.60021">
        <ele>111.80000305176</ele>
        <time>2025-05-15T11:55:41.000Z</time>
      </trkpt>
      <trkpt lat="47.79727" lon="-2.60019">
        <ele>111.80000305176</ele>
        <time>2025-05-15T11:55:42.000Z</time>
      </trkpt>
      <trkpt lat="47.79723" lon="-2.60017">
        <ele>111.80000305176</ele>
        <time>2025-05-15T11:55:43.000Z</time>
      </trkpt>
      <trkpt lat="47.7972" lon="-2.60013">
        <ele>111.80000305176</ele>
        <time>2025-05-15T11:55:44.000Z</time>
      </trkpt>
      <trkpt lat="47.79717" lon="-2.60008">
        <ele>111.80000305176</ele>
        <time>2025-05-15T11:55:45.000Z</time>
      </trkpt>
      <trkpt lat="47.79713" lon="-2.60003">
        <ele>111.80000305176</ele>
        <time>2025-05-15T11:55:46.000Z</time>
      </trkpt>
      <trkpt lat="47.79712" lon="-2.59997">
        <ele>111.80000305176</ele>
        <time>2025-05-15T11:55:47.000Z</time>
      </trkpt>
      <trkpt lat="47.79711" lon="-2.59991">
        <ele>111.80000305176</ele>
        <time>2025-05-15T11:55:48.000Z</time>
      </trkpt>
      <trkpt lat="47.7971" lon="-2.59982">
        <ele>111.80000305176</ele>
        <time>2025-05-15T11:55:49.000Z</time>
      </trkpt>
      <trkpt lat="47.7971" lon="-2.59976">
        <ele>111.80000305176</ele>
        <time>2025-05-15T11:55:50.000Z</time>
      </trkpt>
      <trkpt lat="47.7971" lon="-2.59972">
        <ele>111.80000305176</ele>
        <time>2025-05-15T11:55:51.000Z</time>
      </trkpt>
      <trkpt lat="47.79708" lon="-2.59968">
        <ele>111.40000152588</ele>
        <time>2025-05-15T11:55:52.000Z</time>
      </trkpt>
      <trkpt lat="47.79707" lon="-2.59965">
        <ele>111</ele>
        <time>2025-05-15T11:55:53.000Z</time>
      </trkpt>
      <trkpt lat="47.79704" lon="-2.59956">
        <ele>110.40000152588</ele>
        <time>2025-05-15T11:55:55.000Z</time>
      </trkpt>
      <trkpt lat="47.79701" lon="-2.59951">
        <ele>110.19999694824</ele>
        <time>2025-05-15T11:55:56.000Z</time>
      </trkpt>
      <trkpt lat="47.79696" lon="-2.59939">
        <ele>109.40000152588</ele>
        <time>2025-05-15T11:55:59.000Z</time>
      </trkpt>
      <trkpt lat="47.79693" lon="-2.5993">
        <ele>109.19999694824</ele>
        <time>2025-05-15T11:56:01.000Z</time>
      </trkpt>
      <trkpt lat="47.7969" lon="-2.59926">
        <ele>109</ele>
        <time>2025-05-15T11:56:02.000Z</time>
      </trkpt>
      <trkpt lat="47.79687" lon="-2.59922">
        <ele>108.80000305176</ele>
        <time>2025-05-15T11:56:03.000Z</time>
      </trkpt>
      <trkpt lat="47.79687" lon="-2.59918">
        <ele>108.59999847412</ele>
        <time>2025-05-15T11:56:04.000Z</time>
      </trkpt>
      <trkpt lat="47.79687" lon="-2.59914">
        <ele>108.19999694824</ele>
        <time>2025-05-15T11:56:05.000Z</time>
      </trkpt>
      <trkpt lat="47.79688" lon="-2.5991">
        <ele>108</ele>
        <time>2025-05-15T11:56:06.000Z</time>
      </trkpt>
      <trkpt lat="47.7969" lon="-2.59905">
        <ele>107.80000305176</ele>
        <time>2025-05-15T11:56:07.000Z</time>
      </trkpt>
      <trkpt lat="47.79692" lon="-2.59902">
        <ele>107.80000305176</ele>
        <time>2025-05-15T11:56:08.000Z</time>
      </trkpt>
      <trkpt lat="47.79694" lon="-2.599">
        <ele>107.80000305176</ele>
        <time>2025-05-15T11:56:09.000Z</time>
      </trkpt>
      <trkpt lat="47.79696" lon="-2.59896">
        <ele>107.59999847412</ele>
        <time>2025-05-15T11:56:10.000Z</time>
      </trkpt>
      <trkpt lat="47.79699" lon="-2.59889">
        <ele>107.19999694824</ele>
        <time>2025-05-15T11:56:11.000Z</time>
      </trkpt>
      <trkpt lat="47.79701" lon="-2.59883">
        <ele>107</ele>
        <time>2025-05-15T11:56:12.000Z</time>
      </trkpt>
      <trkpt lat="47.79701" lon="-2.59877">
        <ele>106.40000152588</ele>
        <time>2025-05-15T11:56:13.000Z</time>
      </trkpt>
      <trkpt lat="47.79702" lon="-2.5987">
        <ele>105.80000305176</ele>
        <time>2025-05-15T11:56:14.000Z</time>
      </trkpt>
      <trkpt lat="47.79702" lon="-2.59866">
        <ele>105.59999847412</ele>
        <time>2025-05-15T11:56:15.000Z</time>
      </trkpt>
      <trkpt lat="47.79703" lon="-2.59864">
        <ele>104.80000305176</ele>
        <time>2025-05-15T11:56:17.000Z</time>
      </trkpt>
      <trkpt lat="47.79705" lon="-2.59862">
        <ele>104</ele>
        <time>2025-05-15T11:56:18.000Z</time>
      </trkpt>
      <trkpt lat="47.79708" lon="-2.59861">
        <ele>103.59999847412</ele>
        <time>2025-05-15T11:56:19.000Z</time>
      </trkpt>
      <trkpt lat="47.7971" lon="-2.5986">
        <ele>103.19999694824</ele>
        <time>2025-05-15T11:56:20.000Z</time>
      </trkpt>
      <trkpt lat="47.79713" lon="-2.5986">
        <ele>103</ele>
        <time>2025-05-15T11:56:21.000Z</time>
      </trkpt>
      <trkpt lat="47.79715" lon="-2.59857">
        <ele>102.40000152588</ele>
        <time>2025-05-15T11:56:23.000Z</time>
      </trkpt>
      <trkpt lat="47.79718" lon="-2.59855">
        <ele>102.19999694824</ele>
        <time>2025-05-15T11:56:24.000Z</time>
      </trkpt>
      <trkpt lat="47.79725" lon="-2.59851">
        <ele>101.80000305176</ele>
        <time>2025-05-15T11:56:26.000Z</time>
      </trkpt>
      <trkpt lat="47.7973" lon="-2.59848">
        <ele>101.59999847412</ele>
        <time>2025-05-15T11:56:27.000Z</time>
      </trkpt>
      <trkpt lat="47.79735" lon="-2.59845">
        <ele>101.40000152588</ele>
        <time>2025-05-15T11:56:28.000Z</time>
      </trkpt>
      <trkpt lat="47.79738" lon="-2.59843">
        <ele>101.19999694824</ele>
        <time>2025-05-15T11:56:29.000Z</time>
      </trkpt>
      <trkpt lat="47.79741" lon="-2.59844">
        <ele>101.19999694824</ele>
        <time>2025-05-15T11:56:30.000Z</time>
      </trkpt>
      <trkpt lat="47.79745" lon="-2.59844">
        <ele>101</ele>
        <time>2025-05-15T11:56:31.000Z</time>
      </trkpt>
      <trkpt lat="47.79746" lon="-2.59843">
        <ele>100.59999847412</ele>
        <time>2025-05-15T11:56:32.000Z</time>
      </trkpt>
      <trkpt lat="47.79753" lon="-2.59842">
        <ele>100</ele>
        <time>2025-05-15T11:56:34.000Z</time>
      </trkpt>
      <trkpt lat="47.79755" lon="-2.59843">
        <ele>99.800003051758</ele>
        <time>2025-05-15T11:56:35.000Z</time>
      </trkpt>
      <trkpt lat="47.79757" lon="-2.59845">
        <ele>99.400001525879</ele>
        <time>2025-05-15T11:56:36.000Z</time>
      </trkpt>
      <trkpt lat="47.79759" lon="-2.59847">
        <ele>99.400001525879</ele>
        <time>2025-05-15T11:56:37.000Z</time>
      </trkpt>
      <trkpt lat="47.79761" lon="-2.59849">
        <ele>99</ele>
        <time>2025-05-15T11:56:38.000Z</time>
      </trkpt>
      <trkpt lat="47.79763" lon="-2.59851">
        <ele>99</ele>
        <time>2025-05-15T11:56:39.000Z</time>
      </trkpt>
      <trkpt lat="47.79766" lon="-2.59854">
        <ele>98.800003051758</ele>
        <time>2025-05-15T11:56:40.000Z</time>
      </trkpt>
      <trkpt lat="47.79768" lon="-2.59856">
        <ele>98.199996948242</ele>
        <time>2025-05-15T11:56:41.000Z</time>
      </trkpt>
      <trkpt lat="47.79771" lon="-2.5986">
        <ele>98</ele>
        <time>2025-05-15T11:56:42.000Z</time>
      </trkpt>
      <trkpt lat="47.79774" lon="-2.59863">
        <ele>97.599998474121</ele>
        <time>2025-05-15T11:56:43.000Z</time>
      </trkpt>
      <trkpt lat="47.79775" lon="-2.59865">
        <ele>97.400001525879</ele>
        <time>2025-05-15T11:56:44.000Z</time>
      </trkpt>
      <trkpt lat="47.79777" lon="-2.59867">
        <ele>97.199996948242</ele>
        <time>2025-05-15T11:56:45.000Z</time>
      </trkpt>
      <trkpt lat="47.79781" lon="-2.59865">
        <ele>97.199996948242</ele>
        <time>2025-05-15T11:56:46.000Z</time>
      </trkpt>
      <trkpt lat="47.79785" lon="-2.59862">
        <ele>96.800003051758</ele>
        <time>2025-05-15T11:56:47.000Z</time>
      </trkpt>
      <trkpt lat="47.79787" lon="-2.59859">
        <ele>96.599998474121</ele>
        <time>2025-05-15T11:56:48.000Z</time>
      </trkpt>
      <trkpt lat="47.79788" lon="-2.59856">
        <ele>96.199996948242</ele>
        <time>2025-05-15T11:56:49.000Z</time>
      </trkpt>
      <trkpt lat="47.79789" lon="-2.59853">
        <ele>95.800003051758</ele>
        <time>2025-05-15T11:56:50.000Z</time>
      </trkpt>
      <trkpt lat="47.7979" lon="-2.5985">
        <ele>95.400001525879</ele>
        <time>2025-05-15T11:56:51.000Z</time>
      </trkpt>
      <trkpt lat="47.79792" lon="-2.59847">
        <ele>94.800003051758</ele>
        <time>2025-05-15T11:56:52.000Z</time>
      </trkpt>
      <trkpt lat="47.79794" lon="-2.59842">
        <ele>94.800003051758</ele>
        <time>2025-05-15T11:56:53.000Z</time>
      </trkpt>
      <trkpt lat="47.79795" lon="-2.59838">
        <ele>94</ele>
        <time>2025-05-15T11:56:54.000Z</time>
      </trkpt>
      <trkpt lat="47.79795" lon="-2.59835">
        <ele>93.400001525879</ele>
        <time>2025-05-15T11:56:55.000Z</time>
      </trkpt>
      <trkpt lat="47.79795" lon="-2.59833">
        <ele>92.800003051758</ele>
        <time>2025-05-15T11:56:56.000Z</time>
      </trkpt>
      <trkpt lat="47.79794" lon="-2.59831">
        <ele>92.400001525879</ele>
        <time>2025-05-15T11:56:57.000Z</time>
      </trkpt>
      <trkpt lat="47.79793" lon="-2.5983">
        <ele>92.199996948242</ele>
        <time>2025-05-15T11:56:58.000Z</time>
      </trkpt>
      <trkpt lat="47.79792" lon="-2.59829">
        <ele>92.199996948242</ele>
        <time>2025-05-15T11:56:59.000Z</time>
      </trkpt>
      <trkpt lat="47.79793" lon="-2.59827">
        <ele>92</ele>
        <time>2025-05-15T11:57:00.000Z</time>
      </trkpt>
      <trkpt lat="47.79793" lon="-2.59825">
        <ele>91.800003051758</ele>
        <time>2025-05-15T11:57:01.000Z</time>
      </trkpt>
      <trkpt lat="47.79793" lon="-2.59823">
        <ele>92</ele>
        <time>2025-05-15T11:57:02.000Z</time>
      </trkpt>
      <trkpt lat="47.79793" lon="-2.59823">
        <ele>91.800003051758</ele>
        <time>2025-05-15T11:57:03.000Z</time>
      </trkpt>
      <trkpt lat="47.79792" lon="-2.59822">
        <ele>92</ele>
        <time>2025-05-15T11:57:04.000Z</time>
      </trkpt>
      <trkpt lat="47.79792" lon="-2.59822">
        <ele>92</ele>
        <time>2025-05-15T11:57:05.000Z</time>
      </trkpt>
      <trkpt lat="47.79793" lon="-2.59821">
        <ele>92</ele>
        <time>2025-05-15T11:57:06.000Z</time>
      </trkpt>
      <trkpt lat="47.79793" lon="-2.59821">
        <ele>92.199996948242</ele>
        <time>2025-05-15T11:57:07.000Z</time>
      </trkpt>
      <trkpt lat="47.79794" lon="-2.59819">
        <ele>93.400001525879</ele>
        <time>2025-05-15T11:57:29.000Z</time>
      </trkpt>
      <trkpt lat="47.79794" lon="-2.59819">
        <ele>93.400001525879</ele>
        <time>2025-05-15T11:57:30.000Z</time>
      </trkpt>
      <trkpt lat="47.79796" lon="-2.59817">
        <ele>93.400001525879</ele>
        <time>2025-05-15T11:57:32.000Z</time>
      </trkpt>
      <trkpt lat="47.79798" lon="-2.59819">
        <ele>93.599998474121</ele>
        <time>2025-05-15T11:57:36.000Z</time>
      </trkpt>
      <trkpt lat="47.79799" lon="-2.5982">
        <ele>93.599998474121</ele>
        <time>2025-05-15T11:57:37.000Z</time>
      </trkpt>
      <trkpt lat="47.798" lon="-2.5982">
        <ele>93.599998474121</ele>
        <time>2025-05-15T11:57:38.000Z</time>
      </trkpt>
      <trkpt lat="47.798" lon="-2.5982">
        <ele>93.800003051758</ele>
        <time>2025-05-15T11:57:39.000Z</time>
      </trkpt>
      <trkpt lat="47.79801" lon="-2.59821">
        <ele>93.800003051758</ele>
        <time>2025-05-15T11:57:40.000Z</time>
      </trkpt>
      <trkpt lat="47.79801" lon="-2.59821">
        <ele>93.800003051758</ele>
        <time>2025-05-15T11:57:41.000Z</time>
      </trkpt>
      <trkpt lat="47.79801" lon="-2.59821">
        <ele>94</ele>
        <time>2025-05-15T11:57:42.000Z</time>
      </trkpt>
      <trkpt lat="47.79802" lon="-2.59821">
        <ele>94</ele>
        <time>2025-05-15T11:57:43.000Z</time>
      </trkpt>
      <trkpt lat="47.79801" lon="-2.59822">
        <ele>94.599998474121</ele>
        <time>2025-05-15T11:57:44.000Z</time>
      </trkpt>
      <trkpt lat="47.79803" lon="-2.59822">
        <ele>94.599998474121</ele>
        <time>2025-05-15T11:57:45.000Z</time>
      </trkpt>
      <trkpt lat="47.79806" lon="-2.59823">
        <ele>94.800003051758</ele>
        <time>2025-05-15T11:57:46.000Z</time>
      </trkpt>
      <trkpt lat="47.79806" lon="-2.59823">
        <ele>94.800003051758</ele>
        <time>2025-05-15T11:57:47.000Z</time>
      </trkpt>
      <trkpt lat="47.79806" lon="-2.59823">
        <ele>95.199996948242</ele>
        <time>2025-05-15T11:57:50.000Z</time>
      </trkpt>
      <trkpt lat="47.79811" lon="-2.59829">
        <ele>95.199996948242</ele>
        <time>2025-05-15T11:57:54.000Z</time>
      </trkpt>
      <trkpt lat="47.79814" lon="-2.59832">
        <ele>95.199996948242</ele>
        <time>2025-05-15T11:57:56.000Z</time>
      </trkpt>
      <trkpt lat="47.79814" lon="-2.59832">
        <ele>95.199996948242</ele>
        <time>2025-05-15T11:57:57.000Z</time>
      </trkpt>
      <trkpt lat="47.79816" lon="-2.59832">
        <ele>95.199996948242</ele>
        <time>2025-05-15T11:57:58.000Z</time>
      </trkpt>
      <trkpt lat="47.7982" lon="-2.59832">
        <ele>94.800003051758</ele>
        <time>2025-05-15T11:57:59.000Z</time>
      </trkpt>
      <trkpt lat="47.79822" lon="-2.59833">
        <ele>94.199996948242</ele>
        <time>2025-05-15T11:58:00.000Z</time>
      </trkpt>
      <trkpt lat="47.79835" lon="-2.59838">
        <ele>93.800003051758</ele>
        <time>2025-05-15T11:58:03.000Z</time>
      </trkpt>
      <trkpt lat="47.79837" lon="-2.59839">
        <ele>93.400001525879</ele>
        <time>2025-05-15T11:58:04.000Z</time>
      </trkpt>
      <trkpt lat="47.79839" lon="-2.5984">
        <ele>93</ele>
        <time>2025-05-15T11:58:05.000Z</time>
      </trkpt>
      <trkpt lat="47.79841" lon="-2.59841">
        <ele>92.400001525879</ele>
        <time>2025-05-15T11:58:06.000Z</time>
      </trkpt>
      <trkpt lat="47.79849" lon="-2.59844">
        <ele>91.599998474121</ele>
        <time>2025-05-15T11:58:09.000Z</time>
      </trkpt>
      <trkpt lat="47.79854" lon="-2.59844">
        <ele>91.400001525879</ele>
        <time>2025-05-15T11:58:10.000Z</time>
      </trkpt>
      <trkpt lat="47.79858" lon="-2.59843">
        <ele>91.199996948242</ele>
        <time>2025-05-15T11:58:11.000Z</time>
      </trkpt>
      <trkpt lat="47.79859" lon="-2.59843">
        <ele>91</ele>
        <time>2025-05-15T11:58:12.000Z</time>
      </trkpt>
      <trkpt lat="47.7986" lon="-2.59843">
        <ele>90.800003051758</ele>
        <time>2025-05-15T11:58:13.000Z</time>
      </trkpt>
      <trkpt lat="47.79862" lon="-2.59843">
        <ele>90.800003051758</ele>
        <time>2025-05-15T11:58:14.000Z</time>
      </trkpt>
      <trkpt lat="47.79864" lon="-2.59843">
        <ele>90.599998474121</ele>
        <time>2025-05-15T11:58:15.000Z</time>
      </trkpt>
      <trkpt lat="47.79866" lon="-2.59843">
        <ele>90.400001525879</ele>
        <time>2025-05-15T11:58:16.000Z</time>
      </trkpt>
      <trkpt lat="47.79873" lon="-2.59843">
        <ele>90.199996948242</ele>
        <time>2025-05-15T11:58:28.000Z</time>
      </trkpt>
      <trkpt lat="47.79877" lon="-2.59841">
        <ele>90.199996948242</ele>
        <time>2025-05-15T11:58:32.000Z</time>
      </trkpt>
      <trkpt lat="47.79881" lon="-2.5984">
        <ele>90.599998474121</ele>
        <time>2025-05-15T11:58:38.000Z</time>
      </trkpt>
      <trkpt lat="47.79881" lon="-2.5984">
        <ele>90.599998474121</ele>
        <time>2025-05-15T11:58:39.000Z</time>
      </trkpt>
      <trkpt lat="47.79881" lon="-2.5984">
        <ele>91</ele>
        <time>2025-05-15T11:58:40.000Z</time>
      </trkpt>
      <trkpt lat="47.79881" lon="-2.5984">
        <ele>91</ele>
        <time>2025-05-15T11:58:41.000Z</time>
      </trkpt>
      <trkpt lat="47.79881" lon="-2.5984">
        <ele>91.400001525879</ele>
        <time>2025-05-15T11:58:44.000Z</time>
      </trkpt>
      <trkpt lat="47.79881" lon="-2.5984">
        <ele>91.800003051758</ele>
        <time>2025-05-15T11:58:48.000Z</time>
      </trkpt>
      <trkpt lat="47.79882" lon="-2.5984">
        <ele>92.199996948242</ele>
        <time>2025-05-15T11:58:49.000Z</time>
      </trkpt>
      <trkpt lat="47.79886" lon="-2.59839">
        <ele>92.400001525879</ele>
        <time>2025-05-15T11:58:50.000Z</time>
      </trkpt>
      <trkpt lat="47.7989" lon="-2.59838">
        <ele>92.400001525879</ele>
        <time>2025-05-15T11:58:51.000Z</time>
      </trkpt>
      <trkpt lat="47.79899" lon="-2.59835">
        <ele>92.599998474121</ele>
        <time>2025-05-15T11:58:53.000Z</time>
      </trkpt>
      <trkpt lat="47.79901" lon="-2.59832">
        <ele>93</ele>
        <time>2025-05-15T11:58:55.000Z</time>
      </trkpt>
      <trkpt lat="47.79901" lon="-2.59832">
        <ele>93</ele>
        <time>2025-05-15T11:58:56.000Z</time>
      </trkpt>
      <trkpt lat="47.79901" lon="-2.59832">
        <ele>93.199996948242</ele>
        <time>2025-05-15T11:58:57.000Z</time>
      </trkpt>
      <trkpt lat="47.79905" lon="-2.59829">
        <ele>93.599998474121</ele>
        <time>2025-05-15T11:58:59.000Z</time>
      </trkpt>
      <trkpt lat="47.79906" lon="-2.59828">
        <ele>93.800003051758</ele>
        <time>2025-05-15T11:59:00.000Z</time>
      </trkpt>
      <trkpt lat="47.79906" lon="-2.59827">
        <ele>93.800003051758</ele>
        <time>2025-05-15T11:59:01.000Z</time>
      </trkpt>
      <trkpt lat="47.7991" lon="-2.59825">
        <ele>94.199996948242</ele>
        <time>2025-05-15T11:59:03.000Z</time>
      </trkpt>
      <trkpt lat="47.7991" lon="-2.59824">
        <ele>94.400001525879</ele>
        <time>2025-05-15T11:59:04.000Z</time>
      </trkpt>
      <trkpt lat="47.7991" lon="-2.59824">
        <ele>94.800003051758</ele>
        <time>2025-05-15T11:59:05.000Z</time>
      </trkpt>
      <trkpt lat="47.7991" lon="-2.59824">
        <ele>95</ele>
        <time>2025-05-15T11:59:06.000Z</time>
      </trkpt>
      <trkpt lat="47.7991" lon="-2.59824">
        <ele>95.199996948242</ele>
        <time>2025-05-15T11:59:07.000Z</time>
      </trkpt>
      <trkpt lat="47.79912" lon="-2.59823">
        <ele>95.199996948242</ele>
        <time>2025-05-15T11:59:08.000Z</time>
      </trkpt>
      <trkpt lat="47.79912" lon="-2.59824">
        <ele>95.400001525879</ele>
        <time>2025-05-15T11:59:09.000Z</time>
      </trkpt>
      <trkpt lat="47.79912" lon="-2.59824">
        <ele>95.599998474121</ele>
        <time>2025-05-15T11:59:10.000Z</time>
      </trkpt>
      <trkpt lat="47.79912" lon="-2.59824">
        <ele>95.800003051758</ele>
        <time>2025-05-15T11:59:11.000Z</time>
      </trkpt>
      <trkpt lat="47.79912" lon="-2.59824">
        <ele>96</ele>
        <time>2025-05-15T11:59:12.000Z</time>
      </trkpt>
      <trkpt lat="47.79915" lon="-2.59823">
        <ele>96.199996948242</ele>
        <time>2025-05-15T11:59:13.000Z</time>
      </trkpt>
      <trkpt lat="47.79915" lon="-2.59823">
        <ele>96.400001525879</ele>
        <time>2025-05-15T11:59:14.000Z</time>
      </trkpt>
      <trkpt lat="47.79915" lon="-2.59823">
        <ele>96.599998474121</ele>
        <time>2025-05-15T11:59:15.000Z</time>
      </trkpt>
      <trkpt lat="47.79915" lon="-2.59823">
        <ele>96.599998474121</ele>
        <time>2025-05-15T11:59:16.000Z</time>
      </trkpt>
      <trkpt lat="47.79915" lon="-2.59823">
        <ele>96.800003051758</ele>
        <time>2025-05-15T11:59:17.000Z</time>
      </trkpt>
      <trkpt lat="47.79919" lon="-2.59823">
        <ele>97.199996948242</ele>
        <time>2025-05-15T11:59:18.000Z</time>
      </trkpt>
      <trkpt lat="47.79921" lon="-2.59822">
        <ele>97.400001525879</ele>
        <time>2025-05-15T11:59:19.000Z</time>
      </trkpt>
      <trkpt lat="47.79923" lon="-2.59821">
        <ele>97.400001525879</ele>
        <time>2025-05-15T11:59:20.000Z</time>
      </trkpt>
      <trkpt lat="47.79925" lon="-2.5982">
        <ele>97.599998474121</ele>
        <time>2025-05-15T11:59:21.000Z</time>
      </trkpt>
      <trkpt lat="47.79926" lon="-2.5982">
        <ele>97.599998474121</ele>
        <time>2025-05-15T11:59:22.000Z</time>
      </trkpt>
      <trkpt lat="47.79927" lon="-2.5982">
        <ele>97.800003051758</ele>
        <time>2025-05-15T11:59:23.000Z</time>
      </trkpt>
      <trkpt lat="47.79927" lon="-2.5982">
        <ele>97.800003051758</ele>
        <time>2025-05-15T11:59:24.000Z</time>
      </trkpt>
      <trkpt lat="47.79927" lon="-2.5982">
        <ele>98</ele>
        <time>2025-05-15T11:59:25.000Z</time>
      </trkpt>
      <trkpt lat="47.79927" lon="-2.5982">
        <ele>98</ele>
        <time>2025-05-15T11:59:26.000Z</time>
      </trkpt>
      <trkpt lat="47.79927" lon="-2.5982">
        <ele>98</ele>
        <time>2025-05-15T11:59:27.000Z</time>
      </trkpt>
      <trkpt lat="47.7993" lon="-2.59819">
        <ele>98</ele>
        <time>2025-05-15T11:59:28.000Z</time>
      </trkpt>
      <trkpt lat="47.7993" lon="-2.59819">
        <ele>98.199996948242</ele>
        <time>2025-05-15T11:59:29.000Z</time>
      </trkpt>
      <trkpt lat="47.7993" lon="-2.59819">
        <ele>98.400001525879</ele>
        <time>2025-05-15T11:59:30.000Z</time>
      </trkpt>
      <trkpt lat="47.7993" lon="-2.59819">
        <ele>98.599998474121</ele>
        <time>2025-05-15T11:59:31.000Z</time>
      </trkpt>
      <trkpt lat="47.7993" lon="-2.59819">
        <ele>98.800003051758</ele>
        <time>2025-05-15T11:59:32.000Z</time>
      </trkpt>
      <trkpt lat="47.79933" lon="-2.59818">
        <ele>99</ele>
        <time>2025-05-15T11:59:33.000Z</time>
      </trkpt>
      <trkpt lat="47.79933" lon="-2.59818">
        <ele>99</ele>
        <time>2025-05-15T11:59:34.000Z</time>
      </trkpt>
      <trkpt lat="47.79935" lon="-2.59817">
        <ele>99</ele>
        <time>2025-05-15T11:59:35.000Z</time>
      </trkpt>
      <trkpt lat="47.79937" lon="-2.59816">
        <ele>99.199996948242</ele>
        <time>2025-05-15T11:59:36.000Z</time>
      </trkpt>
      <trkpt lat="47.79937" lon="-2.59817">
        <ele>99.199996948242</ele>
        <time>2025-05-15T11:59:37.000Z</time>
      </trkpt>
      <trkpt lat="47.79937" lon="-2.59817">
        <ele>99.199996948242</ele>
        <time>2025-05-15T11:59:38.000Z</time>
      </trkpt>
      <trkpt lat="47.79941" lon="-2.59816">
        <ele>99.400001525879</ele>
        <time>2025-05-15T11:59:39.000Z</time>
      </trkpt>
      <trkpt lat="47.79946" lon="-2.59817">
        <ele>99.400001525879</ele>
        <time>2025-05-15T11:59:40.000Z</time>
      </trkpt>
      <trkpt lat="47.79951" lon="-2.59817">
        <ele>99.400001525879</ele>
        <time>2025-05-15T11:59:41.000Z</time>
      </trkpt>
      <trkpt lat="47.79955" lon="-2.59818">
        <ele>99.599998474121</ele>
        <time>2025-05-15T11:59:42.000Z</time>
      </trkpt>
      <trkpt lat="47.79959" lon="-2.59818">
        <ele>99.599998474121</ele>
        <time>2025-05-15T11:59:43.000Z</time>
      </trkpt>
      <trkpt lat="47.79963" lon="-2.59819">
        <ele>99.599998474121</ele>
        <time>2025-05-15T11:59:44.000Z</time>
      </trkpt>
      <trkpt lat="47.79966" lon="-2.5982">
        <ele>99.800003051758</ele>
        <time>2025-05-15T11:59:45.000Z</time>
      </trkpt>
      <trkpt lat="47.79968" lon="-2.5982">
        <ele>100.19999694824</ele>
        <time>2025-05-15T11:59:46.000Z</time>
      </trkpt>
      <trkpt lat="47.79971" lon="-2.59822">
        <ele>100.40000152588</ele>
        <time>2025-05-15T11:59:47.000Z</time>
      </trkpt>
      <trkpt lat="47.79974" lon="-2.59823">
        <ele>100.59999847412</ele>
        <time>2025-05-15T11:59:48.000Z</time>
      </trkpt>
      <trkpt lat="47.79982" lon="-2.59824">
        <ele>100.80000305176</ele>
        <time>2025-05-15T11:59:49.000Z</time>
      </trkpt>
      <trkpt lat="47.79985" lon="-2.59826">
        <ele>100.80000305176</ele>
        <time>2025-05-15T11:59:50.000Z</time>
      </trkpt>
      <trkpt lat="47.79988" lon="-2.59827">
        <ele>100.80000305176</ele>
        <time>2025-05-15T11:59:51.000Z</time>
      </trkpt>
      <trkpt lat="47.79993" lon="-2.59829">
        <ele>101</ele>
        <time>2025-05-15T11:59:52.000Z</time>
      </trkpt>
      <trkpt lat="47.79999" lon="-2.5983">
        <ele>101</ele>
        <time>2025-05-15T11:59:53.000Z</time>
      </trkpt>
      <trkpt lat="47.80005" lon="-2.5983">
        <ele>101</ele>
        <time>2025-05-15T11:59:54.000Z</time>
      </trkpt>
      <trkpt lat="47.80009" lon="-2.59831">
        <ele>101.19999694824</ele>
        <time>2025-05-15T11:59:55.000Z</time>
      </trkpt>
      <trkpt lat="47.8001" lon="-2.59832">
        <ele>101.19999694824</ele>
        <time>2025-05-15T11:59:56.000Z</time>
      </trkpt>
      <trkpt lat="47.80012" lon="-2.59832">
        <ele>101.19999694824</ele>
        <time>2025-05-15T11:59:57.000Z</time>
      </trkpt>
      <trkpt lat="47.80015" lon="-2.59833">
        <ele>101.19999694824</ele>
        <time>2025-05-15T11:59:58.000Z</time>
      </trkpt>
      <trkpt lat="47.80016" lon="-2.59834">
        <ele>101.19999694824</ele>
        <time>2025-05-15T11:59:59.000Z</time>
      </trkpt>
      <trkpt lat="47.80019" lon="-2.59835">
        <ele>101.40000152588</ele>
        <time>2025-05-15T12:00:00.000Z</time>
      </trkpt>
      <trkpt lat="47.80022" lon="-2.59835">
        <ele>101.40000152588</ele>
        <time>2025-05-15T12:00:01.000Z</time>
      </trkpt>
      <trkpt lat="47.80023" lon="-2.59834">
        <ele>101.59999847412</ele>
        <time>2025-05-15T12:00:02.000Z</time>
      </trkpt>
      <trkpt lat="47.80025" lon="-2.59834">
        <ele>101.59999847412</ele>
        <time>2025-05-15T12:00:03.000Z</time>
      </trkpt>
      <trkpt lat="47.80025" lon="-2.59835">
        <ele>101.80000305176</ele>
        <time>2025-05-15T12:00:04.000Z</time>
      </trkpt>
      <trkpt lat="47.80034" lon="-2.59833">
        <ele>102.19999694824</ele>
        <time>2025-05-15T12:00:06.000Z</time>
      </trkpt>
      <trkpt lat="47.80036" lon="-2.59832">
        <ele>102.40000152588</ele>
        <time>2025-05-15T12:00:08.000Z</time>
      </trkpt>
      <trkpt lat="47.80037" lon="-2.59832">
        <ele>102.40000152588</ele>
        <time>2025-05-15T12:00:09.000Z</time>
      </trkpt>
      <trkpt lat="47.80037" lon="-2.59832">
        <ele>102.40000152588</ele>
        <time>2025-05-15T12:00:10.000Z</time>
      </trkpt>
      <trkpt lat="47.80043" lon="-2.59832">
        <ele>102.40000152588</ele>
        <time>2025-05-15T12:00:12.000Z</time>
      </trkpt>
      <trkpt lat="47.80046" lon="-2.5983">
        <ele>102.40000152588</ele>
        <time>2025-05-15T12:00:14.000Z</time>
      </trkpt>
      <trkpt lat="47.80048" lon="-2.5983">
        <ele>102.40000152588</ele>
        <time>2025-05-15T12:00:15.000Z</time>
      </trkpt>
      <trkpt lat="47.8005" lon="-2.59829">
        <ele>102.40000152588</ele>
        <time>2025-05-15T12:00:16.000Z</time>
      </trkpt>
      <trkpt lat="47.80054" lon="-2.59827">
        <ele>102.40000152588</ele>
        <time>2025-05-15T12:00:18.000Z</time>
      </trkpt>
      <trkpt lat="47.80064" lon="-2.59822">
        <ele>102.59999847412</ele>
        <time>2025-05-15T12:00:22.000Z</time>
      </trkpt>
      <trkpt lat="47.80065" lon="-2.59821">
        <ele>102.59999847412</ele>
        <time>2025-05-15T12:00:23.000Z</time>
      </trkpt>
      <trkpt lat="47.80069" lon="-2.59818">
        <ele>103</ele>
        <time>2025-05-15T12:00:24.000Z</time>
      </trkpt>
      <trkpt lat="47.80083" lon="-2.59811">
        <ele>103.19999694824</ele>
        <time>2025-05-15T12:00:28.000Z</time>
      </trkpt>
      <trkpt lat="47.80087" lon="-2.59811">
        <ele>103.19999694824</ele>
        <time>2025-05-15T12:00:29.000Z</time>
      </trkpt>
      <trkpt lat="47.8009" lon="-2.59809">
        <ele>103.19999694824</ele>
        <time>2025-05-15T12:00:30.000Z</time>
      </trkpt>
      <trkpt lat="47.80091" lon="-2.59808">
        <ele>103.19999694824</ele>
        <time>2025-05-15T12:00:31.000Z</time>
      </trkpt>
      <trkpt lat="47.80094" lon="-2.59805">
        <ele>103.19999694824</ele>
        <time>2025-05-15T12:00:32.000Z</time>
      </trkpt>
      <trkpt lat="47.80096" lon="-2.59804">
        <ele>103.40000152588</ele>
        <time>2025-05-15T12:00:33.000Z</time>
      </trkpt>
      <trkpt lat="47.80097" lon="-2.59804">
        <ele>103.40000152588</ele>
        <time>2025-05-15T12:00:34.000Z</time>
      </trkpt>
      <trkpt lat="47.80097" lon="-2.59803">
        <ele>103.59999847412</ele>
        <time>2025-05-15T12:00:35.000Z</time>
      </trkpt>
      <trkpt lat="47.80098" lon="-2.59804">
        <ele>103.80000305176</ele>
        <time>2025-05-15T12:00:36.000Z</time>
      </trkpt>
      <trkpt lat="47.80099" lon="-2.59804">
        <ele>104</ele>
        <time>2025-05-15T12:00:37.000Z</time>
      </trkpt>
      <trkpt lat="47.80101" lon="-2.59803">
        <ele>104.19999694824</ele>
        <time>2025-05-15T12:00:38.000Z</time>
      </trkpt>
      <trkpt lat="47.80101" lon="-2.59801">
        <ele>104.40000152588</ele>
        <time>2025-05-15T12:00:39.000Z</time>
      </trkpt>
      <trkpt lat="47.80103" lon="-2.59798">
        <ele>104.59999847412</ele>
        <time>2025-05-15T12:00:41.000Z</time>
      </trkpt>
      <trkpt lat="47.80104" lon="-2.59797">
        <ele>105</ele>
        <time>2025-05-15T12:00:42.000Z</time>
      </trkpt>
      <trkpt lat="47.80104" lon="-2.59796">
        <ele>105</ele>
        <time>2025-05-15T12:00:43.000Z</time>
      </trkpt>
      <trkpt lat="47.80107" lon="-2.59794">
        <ele>105.40000152588</ele>
        <time>2025-05-15T12:00:45.000Z</time>
      </trkpt>
      <trkpt lat="47.80107" lon="-2.59792">
        <ele>105.59999847412</ele>
        <time>2025-05-15T12:00:46.000Z</time>
      </trkpt>
      <trkpt lat="47.80107" lon="-2.5979">
        <ele>105.80000305176</ele>
        <time>2025-05-15T12:00:47.000Z</time>
      </trkpt>
      <trkpt lat="47.80108" lon="-2.59788">
        <ele>105.80000305176</ele>
        <time>2025-05-15T12:00:48.000Z</time>
      </trkpt>
      <trkpt lat="47.80108" lon="-2.59787">
        <ele>106.19999694824</ele>
        <time>2025-05-15T12:00:49.000Z</time>
      </trkpt>
      <trkpt lat="47.80108" lon="-2.59786">
        <ele>106.40000152588</ele>
        <time>2025-05-15T12:00:50.000Z</time>
      </trkpt>
      <trkpt lat="47.80108" lon="-2.59785">
        <ele>106.59999847412</ele>
        <time>2025-05-15T12:00:51.000Z</time>
      </trkpt>
      <trkpt lat="47.80108" lon="-2.59785">
        <ele>106.80000305176</ele>
        <time>2025-05-15T12:00:52.000Z</time>
      </trkpt>
      <trkpt lat="47.80108" lon="-2.59785">
        <ele>107.19999694824</ele>
        <time>2025-05-15T12:00:53.000Z</time>
      </trkpt>
      <trkpt lat="47.80108" lon="-2.59785">
        <ele>107.40000152588</ele>
        <time>2025-05-15T12:00:54.000Z</time>
      </trkpt>
      <trkpt lat="47.80108" lon="-2.59785">
        <ele>107.59999847412</ele>
        <time>2025-05-15T12:00:55.000Z</time>
      </trkpt>
      <trkpt lat="47.80108" lon="-2.59785">
        <ele>107.80000305176</ele>
        <time>2025-05-15T12:00:56.000Z</time>
      </trkpt>
      <trkpt lat="47.80108" lon="-2.59785">
        <ele>108</ele>
        <time>2025-05-15T12:00:57.000Z</time>
      </trkpt>
      <trkpt lat="47.8011" lon="-2.59783">
        <ele>108.40000152588</ele>
        <time>2025-05-15T12:00:58.000Z</time>
      </trkpt>
      <trkpt lat="47.8011" lon="-2.59783">
        <ele>108.40000152588</ele>
        <time>2025-05-15T12:00:59.000Z</time>
      </trkpt>
      <trkpt lat="47.80111" lon="-2.59782">
        <ele>108.80000305176</ele>
        <time>2025-05-15T12:01:00.000Z</time>
      </trkpt>
      <trkpt lat="47.80113" lon="-2.59782">
        <ele>108.80000305176</ele>
        <time>2025-05-15T12:01:01.000Z</time>
      </trkpt>
      <trkpt lat="47.80116" lon="-2.59781">
        <ele>109</ele>
        <time>2025-05-15T12:01:02.000Z</time>
      </trkpt>
      <trkpt lat="47.8012" lon="-2.5978">
        <ele>109</ele>
        <time>2025-05-15T12:01:03.000Z</time>
      </trkpt>
      <trkpt lat="47.80123" lon="-2.59779">
        <ele>109.19999694824</ele>
        <time>2025-05-15T12:01:04.000Z</time>
      </trkpt>
      <trkpt lat="47.80126" lon="-2.59779">
        <ele>109.19999694824</ele>
        <time>2025-05-15T12:01:05.000Z</time>
      </trkpt>
      <trkpt lat="47.80128" lon="-2.59778">
        <ele>109.40000152588</ele>
        <time>2025-05-15T12:01:06.000Z</time>
      </trkpt>
      <trkpt lat="47.80133" lon="-2.59778">
        <ele>109.59999847412</ele>
        <time>2025-05-15T12:01:07.000Z</time>
      </trkpt>
      <trkpt lat="47.80137" lon="-2.59777">
        <ele>109.80000305176</ele>
        <time>2025-05-15T12:01:08.000Z</time>
      </trkpt>
      <trkpt lat="47.80141" lon="-2.59775">
        <ele>109.80000305176</ele>
        <time>2025-05-15T12:01:09.000Z</time>
      </trkpt>
      <trkpt lat="47.80143" lon="-2.59775">
        <ele>110</ele>
        <time>2025-05-15T12:01:10.000Z</time>
      </trkpt>
      <trkpt lat="47.80145" lon="-2.59775">
        <ele>110</ele>
        <time>2025-05-15T12:01:11.000Z</time>
      </trkpt>
      <trkpt lat="47.80147" lon="-2.59774">
        <ele>110</ele>
        <time>2025-05-15T12:01:12.000Z</time>
      </trkpt>
      <trkpt lat="47.80151" lon="-2.59774">
        <ele>110.19999694824</ele>
        <time>2025-05-15T12:01:13.000Z</time>
      </trkpt>
      <trkpt lat="47.80153" lon="-2.59774">
        <ele>110.40000152588</ele>
        <time>2025-05-15T12:01:14.000Z</time>
      </trkpt>
      <trkpt lat="47.80156" lon="-2.59774">
        <ele>110.40000152588</ele>
        <time>2025-05-15T12:01:15.000Z</time>
      </trkpt>
      <trkpt lat="47.80158" lon="-2.59774">
        <ele>110.59999847412</ele>
        <time>2025-05-15T12:01:16.000Z</time>
      </trkpt>
      <trkpt lat="47.80161" lon="-2.59774">
        <ele>110.59999847412</ele>
        <time>2025-05-15T12:01:17.000Z</time>
      </trkpt>
      <trkpt lat="47.80163" lon="-2.59774">
        <ele>110.59999847412</ele>
        <time>2025-05-15T12:01:18.000Z</time>
      </trkpt>
      <trkpt lat="47.80167" lon="-2.59773">
        <ele>110.59999847412</ele>
        <time>2025-05-15T12:01:19.000Z</time>
      </trkpt>
      <trkpt lat="47.80169" lon="-2.59772">
        <ele>110.80000305176</ele>
        <time>2025-05-15T12:01:29.000Z</time>
      </trkpt>
      <trkpt lat="47.8017" lon="-2.59773">
        <ele>110.59999847412</ele>
        <time>2025-05-15T12:01:30.000Z</time>
      </trkpt>
      <trkpt lat="47.80171" lon="-2.59776">
        <ele>110.40000152588</ele>
        <time>2025-05-15T12:01:31.000Z</time>
      </trkpt>
      <trkpt lat="47.80177" lon="-2.59785">
        <ele>110</ele>
        <time>2025-05-15T12:01:35.000Z</time>
      </trkpt>
      <trkpt lat="47.80178" lon="-2.59789">
        <ele>109.80000305176</ele>
        <time>2025-05-15T12:01:36.000Z</time>
      </trkpt>
      <trkpt lat="47.80179" lon="-2.59795">
        <ele>109.59999847412</ele>
        <time>2025-05-15T12:01:37.000Z</time>
      </trkpt>
      <trkpt lat="47.80181" lon="-2.59801">
        <ele>109.19999694824</ele>
        <time>2025-05-15T12:01:38.000Z</time>
      </trkpt>
      <trkpt lat="47.80185" lon="-2.59813">
        <ele>108.40000152588</ele>
        <time>2025-05-15T12:01:40.000Z</time>
      </trkpt>
      <trkpt lat="47.80186" lon="-2.59824">
        <ele>107.59999847412</ele>
        <time>2025-05-15T12:01:42.000Z</time>
      </trkpt>
      <trkpt lat="47.80189" lon="-2.59829">
        <ele>107</ele>
        <time>2025-05-15T12:01:43.000Z</time>
      </trkpt>
      <trkpt lat="47.8019" lon="-2.59833">
        <ele>106.80000305176</ele>
        <time>2025-05-15T12:01:44.000Z</time>
      </trkpt>
      <trkpt lat="47.80192" lon="-2.59836">
        <ele>105.80000305176</ele>
        <time>2025-05-15T12:01:45.000Z</time>
      </trkpt>
      <trkpt lat="47.80193" lon="-2.59839">
        <ele>105.40000152588</ele>
        <time>2025-05-15T12:01:46.000Z</time>
      </trkpt>
      <trkpt lat="47.80192" lon="-2.59841">
        <ele>104.59999847412</ele>
        <time>2025-05-15T12:01:47.000Z</time>
      </trkpt>
      <trkpt lat="47.80191" lon="-2.59846">
        <ele>104</ele>
        <time>2025-05-15T12:01:48.000Z</time>
      </trkpt>
      <trkpt lat="47.80191" lon="-2.5985">
        <ele>103.80000305176</ele>
        <time>2025-05-15T12:01:49.000Z</time>
      </trkpt>
      <trkpt lat="47.80192" lon="-2.59852">
        <ele>103</ele>
        <time>2025-05-15T12:01:50.000Z</time>
      </trkpt>
      <trkpt lat="47.80193" lon="-2.59854">
        <ele>102</ele>
        <time>2025-05-15T12:01:51.000Z</time>
      </trkpt>
      <trkpt lat="47.80195" lon="-2.59854">
        <ele>101</ele>
        <time>2025-05-15T12:01:52.000Z</time>
      </trkpt>
      <trkpt lat="47.80196" lon="-2.59854">
        <ele>100.59999847412</ele>
        <time>2025-05-15T12:01:53.000Z</time>
      </trkpt>
      <trkpt lat="47.80197" lon="-2.59856">
        <ele>100.40000152588</ele>
        <time>2025-05-15T12:01:54.000Z</time>
      </trkpt>
      <trkpt lat="47.80198" lon="-2.59857">
        <ele>100.19999694824</ele>
        <time>2025-05-15T12:01:55.000Z</time>
      </trkpt>
      <trkpt lat="47.80199" lon="-2.59857">
        <ele>100</ele>
        <time>2025-05-15T12:02:00.000Z</time>
      </trkpt>
      <trkpt lat="47.80201" lon="-2.59856">
        <ele>100.19999694824</ele>
        <time>2025-05-15T12:02:03.000Z</time>
      </trkpt>
      <trkpt lat="47.80202" lon="-2.59855">
        <ele>100.19999694824</ele>
        <time>2025-05-15T12:02:04.000Z</time>
      </trkpt>
      <trkpt lat="47.80202" lon="-2.59855">
        <ele>100.19999694824</ele>
        <time>2025-05-15T12:02:05.000Z</time>
      </trkpt>
      <trkpt lat="47.80202" lon="-2.59855">
        <ele>100.59999847412</ele>
        <time>2025-05-15T12:02:09.000Z</time>
      </trkpt>
      <trkpt lat="47.80202" lon="-2.59855">
        <ele>100.80000305176</ele>
        <time>2025-05-15T12:02:11.000Z</time>
      </trkpt>
      <trkpt lat="47.80202" lon="-2.59854">
        <ele>101.59999847412</ele>
        <time>2025-05-15T12:02:19.000Z</time>
      </trkpt>
      <trkpt lat="47.80202" lon="-2.59854">
        <ele>101.59999847412</ele>
        <time>2025-05-15T12:02:20.000Z</time>
      </trkpt>
      <trkpt lat="47.80206" lon="-2.59846">
        <ele>102.40000152588</ele>
        <time>2025-05-15T12:02:27.000Z</time>
      </trkpt>
      <trkpt lat="47.80206" lon="-2.59846">
        <ele>102.59999847412</ele>
        <time>2025-05-15T12:02:28.000Z</time>
      </trkpt>
      <trkpt lat="47.80209" lon="-2.59844">
        <ele>102.80000305176</ele>
        <time>2025-05-15T12:02:29.000Z</time>
      </trkpt>
      <trkpt lat="47.80208" lon="-2.59844">
        <ele>103.40000152588</ele>
        <time>2025-05-15T12:02:30.000Z</time>
      </trkpt>
      <trkpt lat="47.80209" lon="-2.59843">
        <ele>103.80000305176</ele>
        <time>2025-05-15T12:02:31.000Z</time>
      </trkpt>
      <trkpt lat="47.80211" lon="-2.59842">
        <ele>104</ele>
        <time>2025-05-15T12:02:32.000Z</time>
      </trkpt>
      <trkpt lat="47.80211" lon="-2.59842">
        <ele>104</ele>
        <time>2025-05-15T12:02:33.000Z</time>
      </trkpt>
      <trkpt lat="47.80213" lon="-2.59841">
        <ele>104.19999694824</ele>
        <time>2025-05-15T12:02:36.000Z</time>
      </trkpt>
      <trkpt lat="47.80217" lon="-2.5984">
        <ele>104.19999694824</ele>
        <time>2025-05-15T12:02:37.000Z</time>
      </trkpt>
      <trkpt lat="47.80221" lon="-2.5984">
        <ele>104.19999694824</ele>
        <time>2025-05-15T12:02:38.000Z</time>
      </trkpt>
      <trkpt lat="47.80225" lon="-2.5984">
        <ele>104</ele>
        <time>2025-05-15T12:02:39.000Z</time>
      </trkpt>
      <trkpt lat="47.80232" lon="-2.59838">
        <ele>103.80000305176</ele>
        <time>2025-05-15T12:02:40.000Z</time>
      </trkpt>
      <trkpt lat="47.80237" lon="-2.59837">
        <ele>103.59999847412</ele>
        <time>2025-05-15T12:02:41.000Z</time>
      </trkpt>
      <trkpt lat="47.8024" lon="-2.59836">
        <ele>103.40000152588</ele>
        <time>2025-05-15T12:02:42.000Z</time>
      </trkpt>
      <trkpt lat="47.80243" lon="-2.59835">
        <ele>103.40000152588</ele>
        <time>2025-05-15T12:02:43.000Z</time>
      </trkpt>
      <trkpt lat="47.80245" lon="-2.59835">
        <ele>103.40000152588</ele>
        <time>2025-05-15T12:02:44.000Z</time>
      </trkpt>
      <trkpt lat="47.80248" lon="-2.59834">
        <ele>103.40000152588</ele>
        <time>2025-05-15T12:02:45.000Z</time>
      </trkpt>
      <trkpt lat="47.80254" lon="-2.59831">
        <ele>103</ele>
        <time>2025-05-15T12:02:47.000Z</time>
      </trkpt>
      <trkpt lat="47.80259" lon="-2.59829">
        <ele>103.19999694824</ele>
        <time>2025-05-15T12:02:49.000Z</time>
      </trkpt>
      <trkpt lat="47.80261" lon="-2.59827">
        <ele>103.40000152588</ele>
        <time>2025-05-15T12:02:50.000Z</time>
      </trkpt>
      <trkpt lat="47.80267" lon="-2.59819">
        <ele>104</ele>
        <time>2025-05-15T12:02:53.000Z</time>
      </trkpt>
      <trkpt lat="47.80269" lon="-2.59817">
        <ele>104.19999694824</ele>
        <time>2025-05-15T12:02:54.000Z</time>
      </trkpt>
      <trkpt lat="47.80272" lon="-2.59813">
        <ele>104.59999847412</ele>
        <time>2025-05-15T12:02:55.000Z</time>
      </trkpt>
      <trkpt lat="47.80284" lon="-2.59802">
        <ele>104.80000305176</ele>
        <time>2025-05-15T12:02:59.000Z</time>
      </trkpt>
      <trkpt lat="47.80284" lon="-2.59798">
        <ele>104.80000305176</ele>
        <time>2025-05-15T12:03:00.000Z</time>
      </trkpt>
      <trkpt lat="47.80284" lon="-2.59795">
        <ele>104.80000305176</ele>
        <time>2025-05-15T12:03:01.000Z</time>
      </trkpt>
      <trkpt lat="47.80284" lon="-2.59792">
        <ele>105</ele>
        <time>2025-05-15T12:03:02.000Z</time>
      </trkpt>
      <trkpt lat="47.80286" lon="-2.59788">
        <ele>105</ele>
        <time>2025-05-15T12:03:03.000Z</time>
      </trkpt>
      <trkpt lat="47.80287" lon="-2.59784">
        <ele>105</ele>
        <time>2025-05-15T12:03:04.000Z</time>
      </trkpt>
      <trkpt lat="47.80289" lon="-2.59778">
        <ele>105</ele>
        <time>2025-05-15T12:03:06.000Z</time>
      </trkpt>
      <trkpt lat="47.80289" lon="-2.59775">
        <ele>105</ele>
        <time>2025-05-15T12:03:07.000Z</time>
      </trkpt>
      <trkpt lat="47.80287" lon="-2.59771">
        <ele>105</ele>
        <time>2025-05-15T12:03:08.000Z</time>
      </trkpt>
      <trkpt lat="47.80288" lon="-2.59769">
        <ele>105</ele>
        <time>2025-05-15T12:03:09.000Z</time>
      </trkpt>
      <trkpt lat="47.80287" lon="-2.59767">
        <ele>105</ele>
        <time>2025-05-15T12:03:10.000Z</time>
      </trkpt>
      <trkpt lat="47.80286" lon="-2.59765">
        <ele>105</ele>
        <time>2025-05-15T12:03:11.000Z</time>
      </trkpt>
      <trkpt lat="47.80284" lon="-2.59764">
        <ele>105</ele>
        <time>2025-05-15T12:03:12.000Z</time>
      </trkpt>
      <trkpt lat="47.80283" lon="-2.59763">
        <ele>105</ele>
        <time>2025-05-15T12:03:13.000Z</time>
      </trkpt>
      <trkpt lat="47.8028" lon="-2.5976">
        <ele>105.19999694824</ele>
        <time>2025-05-15T12:03:15.000Z</time>
      </trkpt>
      <trkpt lat="47.80279" lon="-2.59759">
        <ele>105.40000152588</ele>
        <time>2025-05-15T12:03:16.000Z</time>
      </trkpt>
      <trkpt lat="47.80277" lon="-2.59757">
        <ele>105.59999847412</ele>
        <time>2025-05-15T12:03:18.000Z</time>
      </trkpt>
      <trkpt lat="47.80276" lon="-2.59755">
        <ele>105.59999847412</ele>
        <time>2025-05-15T12:03:19.000Z</time>
      </trkpt>
      <trkpt lat="47.80275" lon="-2.59754">
        <ele>106</ele>
        <time>2025-05-15T12:03:20.000Z</time>
      </trkpt>
      <trkpt lat="47.80275" lon="-2.59753">
        <ele>106.19999694824</ele>
        <time>2025-05-15T12:03:21.000Z</time>
      </trkpt>
      <trkpt lat="47.80275" lon="-2.59753">
        <ele>107.59999847412</ele>
        <time>2025-05-15T12:03:35.000Z</time>
      </trkpt>
      <trkpt lat="47.80275" lon="-2.59756">
        <ele>107.59999847412</ele>
        <time>2025-05-15T12:03:38.000Z</time>
      </trkpt>
      <trkpt lat="47.80276" lon="-2.59757">
        <ele>107.59999847412</ele>
        <time>2025-05-15T12:03:39.000Z</time>
      </trkpt>
      <trkpt lat="47.80277" lon="-2.59758">
        <ele>107.40000152588</ele>
        <time>2025-05-15T12:03:40.000Z</time>
      </trkpt>
      <trkpt lat="47.80278" lon="-2.59759">
        <ele>107.19999694824</ele>
        <time>2025-05-15T12:03:41.000Z</time>
      </trkpt>
      <trkpt lat="47.80278" lon="-2.59759">
        <ele>107.19999694824</ele>
        <time>2025-05-15T12:03:42.000Z</time>
      </trkpt>
      <trkpt lat="47.80279" lon="-2.59758">
        <ele>106.80000305176</ele>
        <time>2025-05-15T12:03:43.000Z</time>
      </trkpt>
      <trkpt lat="47.80279" lon="-2.59756">
        <ele>106.59999847412</ele>
        <time>2025-05-15T12:03:44.000Z</time>
      </trkpt>
      <trkpt lat="47.8028" lon="-2.59754">
        <ele>106.40000152588</ele>
        <time>2025-05-15T12:03:45.000Z</time>
      </trkpt>
      <trkpt lat="47.80282" lon="-2.59752">
        <ele>106.19999694824</ele>
        <time>2025-05-15T12:03:46.000Z</time>
      </trkpt>
      <trkpt lat="47.80282" lon="-2.5975">
        <ele>106</ele>
        <time>2025-05-15T12:03:47.000Z</time>
      </trkpt>
      <trkpt lat="47.80283" lon="-2.59748">
        <ele>105.40000152588</ele>
        <time>2025-05-15T12:03:49.000Z</time>
      </trkpt>
      <trkpt lat="47.80285" lon="-2.59745">
        <ele>105.19999694824</ele>
        <time>2025-05-15T12:03:50.000Z</time>
      </trkpt>
      <trkpt lat="47.80286" lon="-2.59742">
        <ele>105</ele>
        <time>2025-05-15T12:03:51.000Z</time>
      </trkpt>
      <trkpt lat="47.8029" lon="-2.59731">
        <ele>105</ele>
        <time>2025-05-15T12:03:53.000Z</time>
      </trkpt>
      <trkpt lat="47.80291" lon="-2.59725">
        <ele>104.80000305176</ele>
        <time>2025-05-15T12:03:54.000Z</time>
      </trkpt>
      <trkpt lat="47.80293" lon="-2.59719">
        <ele>104.80000305176</ele>
        <time>2025-05-15T12:03:55.000Z</time>
      </trkpt>
      <trkpt lat="47.80295" lon="-2.59704">
        <ele>104.19999694824</ele>
        <time>2025-05-15T12:03:57.000Z</time>
      </trkpt>
      <trkpt lat="47.80298" lon="-2.59697">
        <ele>103.59999847412</ele>
        <time>2025-05-15T12:03:58.000Z</time>
      </trkpt>
      <trkpt lat="47.80301" lon="-2.59691">
        <ele>103.40000152588</ele>
        <time>2025-05-15T12:03:59.000Z</time>
      </trkpt>
      <trkpt lat="47.80303" lon="-2.59684">
        <ele>103.19999694824</ele>
        <time>2025-05-15T12:04:00.000Z</time>
      </trkpt>
      <trkpt lat="47.80306" lon="-2.59677">
        <ele>102.80000305176</ele>
        <time>2025-05-15T12:04:01.000Z</time>
      </trkpt>
      <trkpt lat="47.80308" lon="-2.59674">
        <ele>102.40000152588</ele>
        <time>2025-05-15T12:04:02.000Z</time>
      </trkpt>
      <trkpt lat="47.80308" lon="-2.59671">
        <ele>102</ele>
        <time>2025-05-15T12:04:03.000Z</time>
      </trkpt>
      <trkpt lat="47.80311" lon="-2.59665">
        <ele>101.80000305176</ele>
        <time>2025-05-15T12:04:04.000Z</time>
      </trkpt>
      <trkpt lat="47.8031" lon="-2.59659">
        <ele>101.40000152588</ele>
        <time>2025-05-15T12:04:05.000Z</time>
      </trkpt>
      <trkpt lat="47.8031" lon="-2.59656">
        <ele>101.19999694824</ele>
        <time>2025-05-15T12:04:06.000Z</time>
      </trkpt>
      <trkpt lat="47.80311" lon="-2.59651">
        <ele>100.80000305176</ele>
        <time>2025-05-15T12:04:07.000Z</time>
      </trkpt>
      <trkpt lat="47.80324" lon="-2.59637">
        <ele>99.800003051758</ele>
        <time>2025-05-15T12:04:10.000Z</time>
      </trkpt>
      <trkpt lat="47.80328" lon="-2.59631">
        <ele>99.800003051758</ele>
        <time>2025-05-15T12:04:11.000Z</time>
      </trkpt>
      <trkpt lat="47.80334" lon="-2.59621">
        <ele>99.400001525879</ele>
        <time>2025-05-15T12:04:12.000Z</time>
      </trkpt>
      <trkpt lat="47.80339" lon="-2.59614">
        <ele>99</ele>
        <time>2025-05-15T12:04:13.000Z</time>
      </trkpt>
      <trkpt lat="47.80342" lon="-2.59607">
        <ele>98.599998474121</ele>
        <time>2025-05-15T12:04:14.000Z</time>
      </trkpt>
      <trkpt lat="47.80344" lon="-2.59599">
        <ele>98.400001525879</ele>
        <time>2025-05-15T12:04:15.000Z</time>
      </trkpt>
      <trkpt lat="47.80346" lon="-2.59592">
        <ele>98.199996948242</ele>
        <time>2025-05-15T12:04:16.000Z</time>
      </trkpt>
      <trkpt lat="47.80348" lon="-2.59586">
        <ele>97.199996948242</ele>
        <time>2025-05-15T12:04:17.000Z</time>
      </trkpt>
      <trkpt lat="47.80348" lon="-2.59585">
        <ele>96.800003051758</ele>
        <time>2025-05-15T12:04:18.000Z</time>
      </trkpt>
      <trkpt lat="47.80349" lon="-2.59584">
        <ele>96.400001525879</ele>
        <time>2025-05-15T12:04:19.000Z</time>
      </trkpt>
      <trkpt lat="47.80352" lon="-2.59588">
        <ele>96</ele>
        <time>2025-05-15T12:04:21.000Z</time>
      </trkpt>
      <trkpt lat="47.80358" lon="-2.59597">
        <ele>95</ele>
        <time>2025-05-15T12:04:24.000Z</time>
      </trkpt>
      <trkpt lat="47.8036" lon="-2.59601">
        <ele>94.400001525879</ele>
        <time>2025-05-15T12:04:25.000Z</time>
      </trkpt>
      <trkpt lat="47.80363" lon="-2.59605">
        <ele>93.800003051758</ele>
        <time>2025-05-15T12:04:26.000Z</time>
      </trkpt>
      <trkpt lat="47.80365" lon="-2.59608">
        <ele>93.400001525879</ele>
        <time>2025-05-15T12:04:27.000Z</time>
      </trkpt>
      <trkpt lat="47.80367" lon="-2.59611">
        <ele>92.400001525879</ele>
        <time>2025-05-15T12:04:28.000Z</time>
      </trkpt>
      <trkpt lat="47.80369" lon="-2.59613">
        <ele>92</ele>
        <time>2025-05-15T12:04:29.000Z</time>
      </trkpt>
      <trkpt lat="47.80371" lon="-2.59616">
        <ele>91.400001525879</ele>
        <time>2025-05-15T12:04:30.000Z</time>
      </trkpt>
      <trkpt lat="47.80371" lon="-2.5962">
        <ele>91.199996948242</ele>
        <time>2025-05-15T12:04:31.000Z</time>
      </trkpt>
      <trkpt lat="47.80373" lon="-2.59623">
        <ele>90.800003051758</ele>
        <time>2025-05-15T12:04:32.000Z</time>
      </trkpt>
      <trkpt lat="47.80373" lon="-2.59625">
        <ele>90.199996948242</ele>
        <time>2025-05-15T12:04:33.000Z</time>
      </trkpt>
      <trkpt lat="47.80375" lon="-2.59628">
        <ele>89.800003051758</ele>
        <time>2025-05-15T12:04:34.000Z</time>
      </trkpt>
      <trkpt lat="47.80378" lon="-2.59633">
        <ele>88.800003051758</ele>
        <time>2025-05-15T12:04:35.000Z</time>
      </trkpt>
      <trkpt lat="47.80378" lon="-2.59637">
        <ele>88.199996948242</ele>
        <time>2025-05-15T12:04:36.000Z</time>
      </trkpt>
      <trkpt lat="47.80377" lon="-2.59641">
        <ele>87.599998474121</ele>
        <time>2025-05-15T12:04:37.000Z</time>
      </trkpt>
      <trkpt lat="47.80376" lon="-2.59645">
        <ele>87.400001525879</ele>
        <time>2025-05-15T12:04:38.000Z</time>
      </trkpt>
      <trkpt lat="47.80375" lon="-2.59649">
        <ele>86.800003051758</ele>
        <time>2025-05-15T12:04:39.000Z</time>
      </trkpt>
      <trkpt lat="47.80375" lon="-2.59655">
        <ele>86.599998474121</ele>
        <time>2025-05-15T12:04:40.000Z</time>
      </trkpt>
      <trkpt lat="47.80374" lon="-2.59659">
        <ele>86</ele>
        <time>2025-05-15T12:04:41.000Z</time>
      </trkpt>
      <trkpt lat="47.80373" lon="-2.59671">
        <ele>85.199996948242</ele>
        <time>2025-05-15T12:04:43.000Z</time>
      </trkpt>
      <trkpt lat="47.80371" lon="-2.59679">
        <ele>84.199996948242</ele>
        <time>2025-05-15T12:04:44.000Z</time>
      </trkpt>
      <trkpt lat="47.8037" lon="-2.59685">
        <ele>83.800003051758</ele>
        <time>2025-05-15T12:04:45.000Z</time>
      </trkpt>
      <trkpt lat="47.80369" lon="-2.5969">
        <ele>83.199996948242</ele>
        <time>2025-05-15T12:04:46.000Z</time>
      </trkpt>
      <trkpt lat="47.80369" lon="-2.59697">
        <ele>83</ele>
        <time>2025-05-15T12:04:47.000Z</time>
      </trkpt>
      <trkpt lat="47.80369" lon="-2.59708">
        <ele>82.400001525879</ele>
        <time>2025-05-15T12:04:48.000Z</time>
      </trkpt>
      <trkpt lat="47.80369" lon="-2.59713">
        <ele>82.199996948242</ele>
        <time>2025-05-15T12:04:49.000Z</time>
      </trkpt>
      <trkpt lat="47.80365" lon="-2.59718">
        <ele>81.800003051758</ele>
        <time>2025-05-15T12:04:50.000Z</time>
      </trkpt>
      <trkpt lat="47.80364" lon="-2.59724">
        <ele>81.400001525879</ele>
        <time>2025-05-15T12:04:51.000Z</time>
      </trkpt>
      <trkpt lat="47.80366" lon="-2.59739">
        <ele>81.199996948242</ele>
        <time>2025-05-15T12:04:52.000Z</time>
      </trkpt>
      <trkpt lat="47.80367" lon="-2.59752">
        <ele>80.400001525879</ele>
        <time>2025-05-15T12:04:53.000Z</time>
      </trkpt>
      <trkpt lat="47.80366" lon="-2.59758">
        <ele>80</ele>
        <time>2025-05-15T12:04:54.000Z</time>
      </trkpt>
      <trkpt lat="47.80367" lon="-2.59765">
        <ele>79.599998474121</ele>
        <time>2025-05-15T12:04:55.000Z</time>
      </trkpt>
      <trkpt lat="47.80372" lon="-2.5978">
        <ele>78.800003051758</ele>
        <time>2025-05-15T12:04:57.000Z</time>
      </trkpt>
      <trkpt lat="47.80374" lon="-2.59784">
        <ele>78.400001525879</ele>
        <time>2025-05-15T12:04:58.000Z</time>
      </trkpt>
      <trkpt lat="47.80377" lon="-2.59791">
        <ele>78</ele>
        <time>2025-05-15T12:04:59.000Z</time>
      </trkpt>
      <trkpt lat="47.80378" lon="-2.59797">
        <ele>77.400001525879</ele>
        <time>2025-05-15T12:05:00.000Z</time>
      </trkpt>
      <trkpt lat="47.80377" lon="-2.59802">
        <ele>77</ele>
        <time>2025-05-15T12:05:01.000Z</time>
      </trkpt>
      <trkpt lat="47.80379" lon="-2.59808">
        <ele>76.599998474121</ele>
        <time>2025-05-15T12:05:02.000Z</time>
      </trkpt>
      <trkpt lat="47.8038" lon="-2.59814">
        <ele>76.400001525879</ele>
        <time>2025-05-15T12:05:03.000Z</time>
      </trkpt>
      <trkpt lat="47.80382" lon="-2.59817">
        <ele>76</ele>
        <time>2025-05-15T12:05:04.000Z</time>
      </trkpt>
      <trkpt lat="47.80382" lon="-2.59822">
        <ele>75.599998474121</ele>
        <time>2025-05-15T12:05:05.000Z</time>
      </trkpt>
      <trkpt lat="47.80383" lon="-2.59828">
        <ele>75.199996948242</ele>
        <time>2025-05-15T12:05:06.000Z</time>
      </trkpt>
      <trkpt lat="47.80383" lon="-2.59841">
        <ele>74.599998474121</ele>
        <time>2025-05-15T12:05:08.000Z</time>
      </trkpt>
      <trkpt lat="47.80384" lon="-2.59846">
        <ele>74.400001525879</ele>
        <time>2025-05-15T12:05:09.000Z</time>
      </trkpt>
      <trkpt lat="47.80384" lon="-2.59851">
        <ele>74</ele>
        <time>2025-05-15T12:05:10.000Z</time>
      </trkpt>
      <trkpt lat="47.80383" lon="-2.59857">
        <ele>73.800003051758</ele>
        <time>2025-05-15T12:05:11.000Z</time>
      </trkpt>
      <trkpt lat="47.80383" lon="-2.59861">
        <ele>73.599998474121</ele>
        <time>2025-05-15T12:05:12.000Z</time>
      </trkpt>
      <trkpt lat="47.80383" lon="-2.59861">
        <ele>73.199996948242</ele>
        <time>2025-05-15T12:05:13.000Z</time>
      </trkpt>
      <trkpt lat="47.80383" lon="-2.59861">
        <ele>72.400001525879</ele>
        <time>2025-05-15T12:09:04.000Z</time>
      </trkpt>
      <trkpt lat="47.80383" lon="-2.59861">
        <ele>72.400001525879</ele>
        <time>2025-05-15T12:09:05.000Z</time>
      </trkpt>
      <trkpt lat="47.80382" lon="-2.59863">
        <ele>72.599998474121</ele>
        <time>2025-05-15T12:09:14.000Z</time>
      </trkpt>
      <trkpt lat="47.80382" lon="-2.59864">
        <ele>72.400001525879</ele>
        <time>2025-05-15T12:09:17.000Z</time>
      </trkpt>
      <trkpt lat="47.80382" lon="-2.59864">
        <ele>72.400001525879</ele>
        <time>2025-05-15T12:09:18.000Z</time>
      </trkpt>
      <trkpt lat="47.8038" lon="-2.59866">
        <ele>72.400001525879</ele>
        <time>2025-05-15T12:09:29.000Z</time>
      </trkpt>
      <trkpt lat="47.8038" lon="-2.59866">
        <ele>72.400001525879</ele>
        <time>2025-05-15T12:09:30.000Z</time>
      </trkpt>
      <trkpt lat="47.8038" lon="-2.59872">
        <ele>72.400001525879</ele>
        <time>2025-05-15T12:09:36.000Z</time>
      </trkpt>
      <trkpt lat="47.80381" lon="-2.59877">
        <ele>72.400001525879</ele>
        <time>2025-05-15T12:09:38.000Z</time>
      </trkpt>
      <trkpt lat="47.8038" lon="-2.59879">
        <ele>72.400001525879</ele>
        <time>2025-05-15T12:09:40.000Z</time>
      </trkpt>
      <trkpt lat="47.80381" lon="-2.5988">
        <ele>72.400001525879</ele>
        <time>2025-05-15T12:09:41.000Z</time>
      </trkpt>
      <trkpt lat="47.80382" lon="-2.59881">
        <ele>72.599998474121</ele>
        <time>2025-05-15T12:09:42.000Z</time>
      </trkpt>
      <trkpt lat="47.80382" lon="-2.59881">
        <ele>72.599998474121</ele>
        <time>2025-05-15T12:09:43.000Z</time>
      </trkpt>
      <trkpt lat="47.80386" lon="-2.59883">
        <ele>72.599998474121</ele>
        <time>2025-05-15T12:09:50.000Z</time>
      </trkpt>
      <trkpt lat="47.80391" lon="-2.59888">
        <ele>72.599998474121</ele>
        <time>2025-05-15T12:09:53.000Z</time>
      </trkpt>
      <trkpt lat="47.80392" lon="-2.59889">
        <ele>73</ele>
        <time>2025-05-15T12:09:59.000Z</time>
      </trkpt>
      <trkpt lat="47.80392" lon="-2.59889">
        <ele>73.599998474121</ele>
        <time>2025-05-15T12:10:02.000Z</time>
      </trkpt>
      <trkpt lat="47.80392" lon="-2.59889">
        <ele>73.800003051758</ele>
        <time>2025-05-15T12:10:03.000Z</time>
      </trkpt>
      <trkpt lat="47.80401" lon="-2.59897">
        <ele>75</ele>
        <time>2025-05-15T12:10:09.000Z</time>
      </trkpt>
      <trkpt lat="47.80402" lon="-2.59898">
        <ele>75.199996948242</ele>
        <time>2025-05-15T12:10:10.000Z</time>
      </trkpt>
      <trkpt lat="47.80402" lon="-2.59898">
        <ele>75.199996948242</ele>
        <time>2025-05-15T12:10:11.000Z</time>
      </trkpt>
      <trkpt lat="47.80402" lon="-2.59898">
        <ele>75.400001525879</ele>
        <time>2025-05-15T12:10:12.000Z</time>
      </trkpt>
      <trkpt lat="47.80402" lon="-2.59898">
        <ele>75.400001525879</ele>
        <time>2025-05-15T12:10:13.000Z</time>
      </trkpt>
      <trkpt lat="47.80402" lon="-2.59899">
        <ele>75.599998474121</ele>
        <time>2025-05-15T12:10:14.000Z</time>
      </trkpt>
      <trkpt lat="47.80402" lon="-2.59899">
        <ele>75.800003051758</ele>
        <time>2025-05-15T12:10:15.000Z</time>
      </trkpt>
      <trkpt lat="47.80403" lon="-2.599">
        <ele>76</ele>
        <time>2025-05-15T12:10:16.000Z</time>
      </trkpt>
      <trkpt lat="47.80405" lon="-2.59902">
        <ele>76</ele>
        <time>2025-05-15T12:10:17.000Z</time>
      </trkpt>
      <trkpt lat="47.80406" lon="-2.59904">
        <ele>76.400001525879</ele>
        <time>2025-05-15T12:10:18.000Z</time>
      </trkpt>
      <trkpt lat="47.80408" lon="-2.59906">
        <ele>76.800003051758</ele>
        <time>2025-05-15T12:10:19.000Z</time>
      </trkpt>
      <trkpt lat="47.80408" lon="-2.59906">
        <ele>77</ele>
        <time>2025-05-15T12:10:20.000Z</time>
      </trkpt>
      <trkpt lat="47.80408" lon="-2.59906">
        <ele>77.400001525879</ele>
        <time>2025-05-15T12:10:21.000Z</time>
      </trkpt>
      <trkpt lat="47.80408" lon="-2.59906">
        <ele>77.800003051758</ele>
        <time>2025-05-15T12:10:22.000Z</time>
      </trkpt>
      <trkpt lat="47.80408" lon="-2.59906">
        <ele>78</ele>
        <time>2025-05-15T12:10:23.000Z</time>
      </trkpt>
      <trkpt lat="47.80408" lon="-2.59906">
        <ele>78.199996948242</ele>
        <time>2025-05-15T12:10:24.000Z</time>
      </trkpt>
      <trkpt lat="47.80408" lon="-2.59908">
        <ele>78.400001525879</ele>
        <time>2025-05-15T12:10:25.000Z</time>
      </trkpt>
      <trkpt lat="47.80408" lon="-2.59908">
        <ele>78.400001525879</ele>
        <time>2025-05-15T12:10:26.000Z</time>
      </trkpt>
      <trkpt lat="47.80409" lon="-2.59909">
        <ele>78.599998474121</ele>
        <time>2025-05-15T12:10:27.000Z</time>
      </trkpt>
      <trkpt lat="47.80411" lon="-2.5991">
        <ele>78.800003051758</ele>
        <time>2025-05-15T12:10:28.000Z</time>
      </trkpt>
      <trkpt lat="47.80413" lon="-2.59911">
        <ele>79</ele>
        <time>2025-05-15T12:10:29.000Z</time>
      </trkpt>
      <trkpt lat="47.80415" lon="-2.59914">
        <ele>79.199996948242</ele>
        <time>2025-05-15T12:10:30.000Z</time>
      </trkpt>
      <trkpt lat="47.80417" lon="-2.59916">
        <ele>79.199996948242</ele>
        <time>2025-05-15T12:10:31.000Z</time>
      </trkpt>
      <trkpt lat="47.8042" lon="-2.59917">
        <ele>79.599998474121</ele>
        <time>2025-05-15T12:10:32.000Z</time>
      </trkpt>
      <trkpt lat="47.80423" lon="-2.59918">
        <ele>80</ele>
        <time>2025-05-15T12:10:33.000Z</time>
      </trkpt>
      <trkpt lat="47.80423" lon="-2.59918">
        <ele>80</ele>
        <time>2025-05-15T12:10:34.000Z</time>
      </trkpt>
      <trkpt lat="47.80424" lon="-2.59919">
        <ele>80.199996948242</ele>
        <time>2025-05-15T12:10:35.000Z</time>
      </trkpt>
      <trkpt lat="47.80424" lon="-2.59919">
        <ele>80.199996948242</ele>
        <time>2025-05-15T12:10:36.000Z</time>
      </trkpt>
      <trkpt lat="47.80424" lon="-2.59919">
        <ele>80.400001525879</ele>
        <time>2025-05-15T12:10:37.000Z</time>
      </trkpt>
      <trkpt lat="47.80424" lon="-2.59919">
        <ele>80.599998474121</ele>
        <time>2025-05-15T12:10:38.000Z</time>
      </trkpt>
      <trkpt lat="47.80425" lon="-2.5992">
        <ele>81</ele>
        <time>2025-05-15T12:10:39.000Z</time>
      </trkpt>
      <trkpt lat="47.80426" lon="-2.59922">
        <ele>81.199996948242</ele>
        <time>2025-05-15T12:10:40.000Z</time>
      </trkpt>
      <trkpt lat="47.80427" lon="-2.59924">
        <ele>81.400001525879</ele>
        <time>2025-05-15T12:10:41.000Z</time>
      </trkpt>
      <trkpt lat="47.80428" lon="-2.59926">
        <ele>81.800003051758</ele>
        <time>2025-05-15T12:10:42.000Z</time>
      </trkpt>
      <trkpt lat="47.8043" lon="-2.59927">
        <ele>81.800003051758</ele>
        <time>2025-05-15T12:10:43.000Z</time>
      </trkpt>
      <trkpt lat="47.80432" lon="-2.59928">
        <ele>82</ele>
        <time>2025-05-15T12:10:44.000Z</time>
      </trkpt>
      <trkpt lat="47.80434" lon="-2.5993">
        <ele>82</ele>
        <time>2025-05-15T12:10:45.000Z</time>
      </trkpt>
      <trkpt lat="47.80436" lon="-2.59931">
        <ele>82.199996948242</ele>
        <time>2025-05-15T12:10:46.000Z</time>
      </trkpt>
      <trkpt lat="47.80438" lon="-2.59932">
        <ele>82.400001525879</ele>
        <time>2025-05-15T12:10:47.000Z</time>
      </trkpt>
      <trkpt lat="47.80439" lon="-2.59933">
        <ele>82.599998474121</ele>
        <time>2025-05-15T12:10:48.000Z</time>
      </trkpt>
      <trkpt lat="47.80442" lon="-2.59934">
        <ele>82.800003051758</ele>
        <time>2025-05-15T12:10:49.000Z</time>
      </trkpt>
      <trkpt lat="47.80442" lon="-2.59934">
        <ele>83</ele>
        <time>2025-05-15T12:10:50.000Z</time>
      </trkpt>
      <trkpt lat="47.80442" lon="-2.59934">
        <ele>83.199996948242</ele>
        <time>2025-05-15T12:10:51.000Z</time>
      </trkpt>
      <trkpt lat="47.80443" lon="-2.59935">
        <ele>83.400001525879</ele>
        <time>2025-05-15T12:10:52.000Z</time>
      </trkpt>
      <trkpt lat="47.80444" lon="-2.59935">
        <ele>83.599998474121</ele>
        <time>2025-05-15T12:10:53.000Z</time>
      </trkpt>
      <trkpt lat="47.80444" lon="-2.59935">
        <ele>83.800003051758</ele>
        <time>2025-05-15T12:10:54.000Z</time>
      </trkpt>
      <trkpt lat="47.80444" lon="-2.59935">
        <ele>84</ele>
        <time>2025-05-15T12:10:55.000Z</time>
      </trkpt>
      <trkpt lat="47.80444" lon="-2.59935">
        <ele>84.199996948242</ele>
        <time>2025-05-15T12:10:56.000Z</time>
      </trkpt>
      <trkpt lat="47.80444" lon="-2.59935">
        <ele>84.400001525879</ele>
        <time>2025-05-15T12:10:57.000Z</time>
      </trkpt>
      <trkpt lat="47.80445" lon="-2.59935">
        <ele>84.400001525879</ele>
        <time>2025-05-15T12:10:58.000Z</time>
      </trkpt>
      <trkpt lat="47.80446" lon="-2.59935">
        <ele>84.599998474121</ele>
        <time>2025-05-15T12:10:59.000Z</time>
      </trkpt>
      <trkpt lat="47.80446" lon="-2.59935">
        <ele>85</ele>
        <time>2025-05-15T12:11:00.000Z</time>
      </trkpt>
      <trkpt lat="47.80446" lon="-2.59935">
        <ele>85.400001525879</ele>
        <time>2025-05-15T12:11:01.000Z</time>
      </trkpt>
      <trkpt lat="47.80446" lon="-2.59935">
        <ele>85.599998474121</ele>
        <time>2025-05-15T12:11:02.000Z</time>
      </trkpt>
      <trkpt lat="47.80447" lon="-2.59936">
        <ele>85.800003051758</ele>
        <time>2025-05-15T12:11:03.000Z</time>
      </trkpt>
      <trkpt lat="47.80447" lon="-2.59936">
        <ele>85.800003051758</ele>
        <time>2025-05-15T12:11:04.000Z</time>
      </trkpt>
      <trkpt lat="47.80447" lon="-2.59936">
        <ele>86</ele>
        <time>2025-05-15T12:11:05.000Z</time>
      </trkpt>
      <trkpt lat="47.80449" lon="-2.59936">
        <ele>86</ele>
        <time>2025-05-15T12:11:06.000Z</time>
      </trkpt>
      <trkpt lat="47.80452" lon="-2.59937">
        <ele>86.199996948242</ele>
        <time>2025-05-15T12:11:07.000Z</time>
      </trkpt>
      <trkpt lat="47.80455" lon="-2.59938">
        <ele>86.400001525879</ele>
        <time>2025-05-15T12:11:08.000Z</time>
      </trkpt>
      <trkpt lat="47.80458" lon="-2.59938">
        <ele>86.599998474121</ele>
        <time>2025-05-15T12:11:09.000Z</time>
      </trkpt>
      <trkpt lat="47.8046" lon="-2.59938">
        <ele>86.800003051758</ele>
        <time>2025-05-15T12:11:10.000Z</time>
      </trkpt>
      <trkpt lat="47.80465" lon="-2.59939">
        <ele>87</ele>
        <time>2025-05-15T12:11:11.000Z</time>
      </trkpt>
      <trkpt lat="47.8047" lon="-2.59939">
        <ele>87</ele>
        <time>2025-05-15T12:11:12.000Z</time>
      </trkpt>
      <trkpt lat="47.80475" lon="-2.5994">
        <ele>87.199996948242</ele>
        <time>2025-05-15T12:11:13.000Z</time>
      </trkpt>
      <trkpt lat="47.80478" lon="-2.59942">
        <ele>87.400001525879</ele>
        <time>2025-05-15T12:11:14.000Z</time>
      </trkpt>
      <trkpt lat="47.80481" lon="-2.59944">
        <ele>87.599998474121</ele>
        <time>2025-05-15T12:11:15.000Z</time>
      </trkpt>
      <trkpt lat="47.80482" lon="-2.59944">
        <ele>87.800003051758</ele>
        <time>2025-05-15T12:11:16.000Z</time>
      </trkpt>
      <trkpt lat="47.80483" lon="-2.59944">
        <ele>88</ele>
        <time>2025-05-15T12:11:17.000Z</time>
      </trkpt>
      <trkpt lat="47.80484" lon="-2.59945">
        <ele>88.199996948242</ele>
        <time>2025-05-15T12:11:18.000Z</time>
      </trkpt>
      <trkpt lat="47.80486" lon="-2.59946">
        <ele>88.199996948242</ele>
        <time>2025-05-15T12:11:19.000Z</time>
      </trkpt>
      <trkpt lat="47.80487" lon="-2.59946">
        <ele>88.400001525879</ele>
        <time>2025-05-15T12:11:20.000Z</time>
      </trkpt>
      <trkpt lat="47.80489" lon="-2.59947">
        <ele>88.599998474121</ele>
        <time>2025-05-15T12:11:21.000Z</time>
      </trkpt>
      <trkpt lat="47.80491" lon="-2.59948">
        <ele>88.800003051758</ele>
        <time>2025-05-15T12:11:22.000Z</time>
      </trkpt>
      <trkpt lat="47.80492" lon="-2.59949">
        <ele>88.800003051758</ele>
        <time>2025-05-15T12:11:23.000Z</time>
      </trkpt>
      <trkpt lat="47.80494" lon="-2.5995">
        <ele>88.800003051758</ele>
        <time>2025-05-15T12:11:24.000Z</time>
      </trkpt>
      <trkpt lat="47.80496" lon="-2.5995">
        <ele>89</ele>
        <time>2025-05-15T12:11:25.000Z</time>
      </trkpt>
      <trkpt lat="47.80499" lon="-2.5995">
        <ele>89</ele>
        <time>2025-05-15T12:11:26.000Z</time>
      </trkpt>
      <trkpt lat="47.80503" lon="-2.59952">
        <ele>89</ele>
        <time>2025-05-15T12:11:27.000Z</time>
      </trkpt>
      <trkpt lat="47.80508" lon="-2.59953">
        <ele>89.199996948242</ele>
        <time>2025-05-15T12:11:28.000Z</time>
      </trkpt>
      <trkpt lat="47.80513" lon="-2.59954">
        <ele>89.199996948242</ele>
        <time>2025-05-15T12:11:29.000Z</time>
      </trkpt>
      <trkpt lat="47.80516" lon="-2.59954">
        <ele>89.199996948242</ele>
        <time>2025-05-15T12:11:30.000Z</time>
      </trkpt>
      <trkpt lat="47.80519" lon="-2.59955">
        <ele>89.199996948242</ele>
        <time>2025-05-15T12:11:31.000Z</time>
      </trkpt>
      <trkpt lat="47.80523" lon="-2.59955">
        <ele>89.199996948242</ele>
        <time>2025-05-15T12:11:32.000Z</time>
      </trkpt>
      <trkpt lat="47.80526" lon="-2.59955">
        <ele>89.199996948242</ele>
        <time>2025-05-15T12:11:33.000Z</time>
      </trkpt>
      <trkpt lat="47.80531" lon="-2.59955">
        <ele>89.199996948242</ele>
        <time>2025-05-15T12:11:34.000Z</time>
      </trkpt>
      <trkpt lat="47.80535" lon="-2.59956">
        <ele>89</ele>
        <time>2025-05-15T12:11:35.000Z</time>
      </trkpt>
      <trkpt lat="47.8054" lon="-2.59956">
        <ele>89</ele>
        <time>2025-05-15T12:11:36.000Z</time>
      </trkpt>
      <trkpt lat="47.80546" lon="-2.59954">
        <ele>88.800003051758</ele>
        <time>2025-05-15T12:11:37.000Z</time>
      </trkpt>
      <trkpt lat="47.80553" lon="-2.59954">
        <ele>88.599998474121</ele>
        <time>2025-05-15T12:11:38.000Z</time>
      </trkpt>
      <trkpt lat="47.80558" lon="-2.59954">
        <ele>88.599998474121</ele>
        <time>2025-05-15T12:11:39.000Z</time>
      </trkpt>
      <trkpt lat="47.80563" lon="-2.59955">
        <ele>88</ele>
        <time>2025-05-15T12:11:40.000Z</time>
      </trkpt>
      <trkpt lat="47.80567" lon="-2.59956">
        <ele>87.599998474121</ele>
        <time>2025-05-15T12:11:41.000Z</time>
      </trkpt>
      <trkpt lat="47.80571" lon="-2.59957">
        <ele>87.199996948242</ele>
        <time>2025-05-15T12:11:42.000Z</time>
      </trkpt>
      <trkpt lat="47.80575" lon="-2.59957">
        <ele>86.800003051758</ele>
        <time>2025-05-15T12:11:43.000Z</time>
      </trkpt>
      <trkpt lat="47.80578" lon="-2.59958">
        <ele>86</ele>
        <time>2025-05-15T12:11:44.000Z</time>
      </trkpt>
      <trkpt lat="47.80581" lon="-2.59958">
        <ele>85.199996948242</ele>
        <time>2025-05-15T12:11:45.000Z</time>
      </trkpt>
      <trkpt lat="47.80586" lon="-2.59958">
        <ele>85</ele>
        <time>2025-05-15T12:11:46.000Z</time>
      </trkpt>
      <trkpt lat="47.8059" lon="-2.59959">
        <ele>84.599998474121</ele>
        <time>2025-05-15T12:11:47.000Z</time>
      </trkpt>
      <trkpt lat="47.80596" lon="-2.59969">
        <ele>83</ele>
        <time>2025-05-15T12:11:49.000Z</time>
      </trkpt>
      <trkpt lat="47.80598" lon="-2.59974">
        <ele>82.800003051758</ele>
        <time>2025-05-15T12:11:50.000Z</time>
      </trkpt>
      <trkpt lat="47.80603" lon="-2.59981">
        <ele>81.800003051758</ele>
        <time>2025-05-15T12:11:51.000Z</time>
      </trkpt>
      <trkpt lat="47.80609" lon="-2.59987">
        <ele>81.199996948242</ele>
        <time>2025-05-15T12:11:52.000Z</time>
      </trkpt>
      <trkpt lat="47.80612" lon="-2.5999">
        <ele>80.400001525879</ele>
        <time>2025-05-15T12:11:53.000Z</time>
      </trkpt>
      <trkpt lat="47.80614" lon="-2.59992">
        <ele>79.800003051758</ele>
        <time>2025-05-15T12:11:54.000Z</time>
      </trkpt>
      <trkpt lat="47.80616" lon="-2.59994">
        <ele>79.599998474121</ele>
        <time>2025-05-15T12:11:55.000Z</time>
      </trkpt>
      <trkpt lat="47.80622" lon="-2.60001">
        <ele>79</ele>
        <time>2025-05-15T12:11:56.000Z</time>
      </trkpt>
      <trkpt lat="47.80626" lon="-2.60005">
        <ele>79</ele>
        <time>2025-05-15T12:11:57.000Z</time>
      </trkpt>
      <trkpt lat="47.80631" lon="-2.60009">
        <ele>78.599998474121</ele>
        <time>2025-05-15T12:11:58.000Z</time>
      </trkpt>
      <trkpt lat="47.80637" lon="-2.60018">
        <ele>78.199996948242</ele>
        <time>2025-05-15T12:12:01.000Z</time>
      </trkpt>
      <trkpt lat="47.8064" lon="-2.60023">
        <ele>78</ele>
        <time>2025-05-15T12:12:02.000Z</time>
      </trkpt>
      <trkpt lat="47.80641" lon="-2.60025">
        <ele>77.800003051758</ele>
        <time>2025-05-15T12:12:03.000Z</time>
      </trkpt>
      <trkpt lat="47.80642" lon="-2.60026">
        <ele>77.599998474121</ele>
        <time>2025-05-15T12:12:04.000Z</time>
      </trkpt>
      <trkpt lat="47.80644" lon="-2.60027">
        <ele>77</ele>
        <time>2025-05-15T12:12:05.000Z</time>
      </trkpt>
      <trkpt lat="47.80648" lon="-2.60031">
        <ele>75.800003051758</ele>
        <time>2025-05-15T12:12:07.000Z</time>
      </trkpt>
      <trkpt lat="47.8065" lon="-2.60032">
        <ele>75.400001525879</ele>
        <time>2025-05-15T12:12:08.000Z</time>
      </trkpt>
      <trkpt lat="47.8065" lon="-2.60032">
        <ele>75.199996948242</ele>
        <time>2025-05-15T12:12:09.000Z</time>
      </trkpt>
      <trkpt lat="47.8065" lon="-2.60032">
        <ele>74</ele>
        <time>2025-05-15T12:12:12.000Z</time>
      </trkpt>
      <trkpt lat="47.80651" lon="-2.60036">
        <ele>73.599998474121</ele>
        <time>2025-05-15T12:12:16.000Z</time>
      </trkpt>
      <trkpt lat="47.80651" lon="-2.60038">
        <ele>73.599998474121</ele>
        <time>2025-05-15T12:12:17.000Z</time>
      </trkpt>
      <trkpt lat="47.80652" lon="-2.60041">
        <ele>73.599998474121</ele>
        <time>2025-05-15T12:12:18.000Z</time>
      </trkpt>
      <trkpt lat="47.80653" lon="-2.60043">
        <ele>73.599998474121</ele>
        <time>2025-05-15T12:12:19.000Z</time>
      </trkpt>
      <trkpt lat="47.80655" lon="-2.6005">
        <ele>73.400001525879</ele>
        <time>2025-05-15T12:12:21.000Z</time>
      </trkpt>
      <trkpt lat="47.80659" lon="-2.60058">
        <ele>73.199996948242</ele>
        <time>2025-05-15T12:12:23.000Z</time>
      </trkpt>
      <trkpt lat="47.80662" lon="-2.60065">
        <ele>72.800003051758</ele>
        <time>2025-05-15T12:12:24.000Z</time>
      </trkpt>
      <trkpt lat="47.80665" lon="-2.6007">
        <ele>72.599998474121</ele>
        <time>2025-05-15T12:12:25.000Z</time>
      </trkpt>
      <trkpt lat="47.80672" lon="-2.60084">
        <ele>72.400001525879</ele>
        <time>2025-05-15T12:12:27.000Z</time>
      </trkpt>
      <trkpt lat="47.80678" lon="-2.60097">
        <ele>72</ele>
        <time>2025-05-15T12:12:29.000Z</time>
      </trkpt>
      <trkpt lat="47.80683" lon="-2.60108">
        <ele>72</ele>
        <time>2025-05-15T12:12:31.000Z</time>
      </trkpt>
      <trkpt lat="47.80691" lon="-2.60116">
        <ele>71.800003051758</ele>
        <time>2025-05-15T12:12:32.000Z</time>
      </trkpt>
      <trkpt lat="47.80695" lon="-2.60123">
        <ele>71.800003051758</ele>
        <time>2025-05-15T12:12:33.000Z</time>
      </trkpt>
      <trkpt lat="47.80697" lon="-2.60128">
        <ele>71.800003051758</ele>
        <time>2025-05-15T12:12:34.000Z</time>
      </trkpt>
      <trkpt lat="47.80698" lon="-2.60132">
        <ele>71.800003051758</ele>
        <time>2025-05-15T12:12:35.000Z</time>
      </trkpt>
      <trkpt lat="47.80698" lon="-2.60133">
        <ele>71.800003051758</ele>
        <time>2025-05-15T12:12:36.000Z</time>
      </trkpt>
      <trkpt lat="47.80698" lon="-2.60133">
        <ele>71.800003051758</ele>
        <time>2025-05-15T12:12:37.000Z</time>
      </trkpt>
      <trkpt lat="47.807" lon="-2.60135">
        <ele>71.599998474121</ele>
        <time>2025-05-15T12:12:39.000Z</time>
      </trkpt>
      <trkpt lat="47.80702" lon="-2.60137">
        <ele>71.599998474121</ele>
        <time>2025-05-15T12:12:40.000Z</time>
      </trkpt>
      <trkpt lat="47.80704" lon="-2.60139">
        <ele>71.800003051758</ele>
        <time>2025-05-15T12:12:41.000Z</time>
      </trkpt>
      <trkpt lat="47.80704" lon="-2.6014">
        <ele>72</ele>
        <time>2025-05-15T12:12:45.000Z</time>
      </trkpt>
      <trkpt lat="47.80704" lon="-2.6014">
        <ele>72</ele>
        <time>2025-05-15T12:12:46.000Z</time>
      </trkpt>
      <trkpt lat="47.80704" lon="-2.60142">
        <ele>72.599998474121</ele>
        <time>2025-05-15T12:12:54.000Z</time>
      </trkpt>
      <trkpt lat="47.80705" lon="-2.60146">
        <ele>72.599998474121</ele>
        <time>2025-05-15T12:12:57.000Z</time>
      </trkpt>
      <trkpt lat="47.80705" lon="-2.60147">
        <ele>72.400001525879</ele>
        <time>2025-05-15T12:12:58.000Z</time>
      </trkpt>
      <trkpt lat="47.80707" lon="-2.60155">
        <ele>72.199996948242</ele>
        <time>2025-05-15T12:13:01.000Z</time>
      </trkpt>
      <trkpt lat="47.80708" lon="-2.60155">
        <ele>72.199996948242</ele>
        <time>2025-05-15T12:13:02.000Z</time>
      </trkpt>
      <trkpt lat="47.80709" lon="-2.60159">
        <ele>72.199996948242</ele>
        <time>2025-05-15T12:13:03.000Z</time>
      </trkpt>
      <trkpt lat="47.80711" lon="-2.60166">
        <ele>72</ele>
        <time>2025-05-15T12:13:04.000Z</time>
      </trkpt>
      <trkpt lat="47.80715" lon="-2.60173">
        <ele>72</ele>
        <time>2025-05-15T12:13:07.000Z</time>
      </trkpt>
      <trkpt lat="47.80715" lon="-2.60175">
        <ele>72</ele>
        <time>2025-05-15T12:13:08.000Z</time>
      </trkpt>
      <trkpt lat="47.80716" lon="-2.60179">
        <ele>72</ele>
        <time>2025-05-15T12:13:10.000Z</time>
      </trkpt>
      <trkpt lat="47.80718" lon="-2.60183">
        <ele>72</ele>
        <time>2025-05-15T12:13:12.000Z</time>
      </trkpt>
      <trkpt lat="47.8072" lon="-2.60185">
        <ele>72</ele>
        <time>2025-05-15T12:13:13.000Z</time>
      </trkpt>
      <trkpt lat="47.80722" lon="-2.60187">
        <ele>72</ele>
        <time>2025-05-15T12:13:14.000Z</time>
      </trkpt>
      <trkpt lat="47.80724" lon="-2.60189">
        <ele>72</ele>
        <time>2025-05-15T12:13:15.000Z</time>
      </trkpt>
      <trkpt lat="47.80727" lon="-2.60192">
        <ele>72</ele>
        <time>2025-05-15T12:13:16.000Z</time>
      </trkpt>
      <trkpt lat="47.80731" lon="-2.60195">
        <ele>72</ele>
        <time>2025-05-15T12:13:17.000Z</time>
      </trkpt>
      <trkpt lat="47.80738" lon="-2.60201">
        <ele>72.199996948242</ele>
        <time>2025-05-15T12:13:19.000Z</time>
      </trkpt>
      <trkpt lat="47.80741" lon="-2.60202">
        <ele>72.199996948242</ele>
        <time>2025-05-15T12:13:20.000Z</time>
      </trkpt>
      <trkpt lat="47.80744" lon="-2.60204">
        <ele>72.400001525879</ele>
        <time>2025-05-15T12:13:21.000Z</time>
      </trkpt>
      <trkpt lat="47.80745" lon="-2.60205">
        <ele>72.400001525879</ele>
        <time>2025-05-15T12:13:23.000Z</time>
      </trkpt>
      <trkpt lat="47.80748" lon="-2.60209">
        <ele>72.599998474121</ele>
        <time>2025-05-15T12:13:26.000Z</time>
      </trkpt>
      <trkpt lat="47.80754" lon="-2.60217">
        <ele>72.599998474121</ele>
        <time>2025-05-15T12:13:30.000Z</time>
      </trkpt>
      <trkpt lat="47.80758" lon="-2.6022">
        <ele>72.800003051758</ele>
        <time>2025-05-15T12:13:31.000Z</time>
      </trkpt>
      <trkpt lat="47.8076" lon="-2.60222">
        <ele>72.800003051758</ele>
        <time>2025-05-15T12:13:32.000Z</time>
      </trkpt>
      <trkpt lat="47.8078" lon="-2.6024">
        <ele>72.599998474121</ele>
        <time>2025-05-15T12:13:38.000Z</time>
      </trkpt>
      <trkpt lat="47.8079" lon="-2.60246">
        <ele>72.400001525879</ele>
        <time>2025-05-15T12:13:41.000Z</time>
      </trkpt>
      <trkpt lat="47.80805" lon="-2.60252">
        <ele>72.400001525879</ele>
        <time>2025-05-15T12:13:44.000Z</time>
      </trkpt>
      <trkpt lat="47.8081" lon="-2.60254">
        <ele>72.400001525879</ele>
        <time>2025-05-15T12:13:45.000Z</time>
      </trkpt>
      <trkpt lat="47.80815" lon="-2.60256">
        <ele>72.400001525879</ele>
        <time>2025-05-15T12:13:46.000Z</time>
      </trkpt>
      <trkpt lat="47.80819" lon="-2.60257">
        <ele>72.400001525879</ele>
        <time>2025-05-15T12:13:47.000Z</time>
      </trkpt>
      <trkpt lat="47.80823" lon="-2.60259">
        <ele>72.400001525879</ele>
        <time>2025-05-15T12:13:48.000Z</time>
      </trkpt>
      <trkpt lat="47.80825" lon="-2.60262">
        <ele>72.199996948242</ele>
        <time>2025-05-15T12:13:49.000Z</time>
      </trkpt>
      <trkpt lat="47.80827" lon="-2.60265">
        <ele>72.199996948242</ele>
        <time>2025-05-15T12:13:50.000Z</time>
      </trkpt>
      <trkpt lat="47.8083" lon="-2.60269">
        <ele>72.199996948242</ele>
        <time>2025-05-15T12:13:51.000Z</time>
      </trkpt>
      <trkpt lat="47.80831" lon="-2.60273">
        <ele>72.599998474121</ele>
        <time>2025-05-15T12:13:52.000Z</time>
      </trkpt>
      <trkpt lat="47.80833" lon="-2.60277">
        <ele>72.800003051758</ele>
        <time>2025-05-15T12:13:53.000Z</time>
      </trkpt>
      <trkpt lat="47.80832" lon="-2.6028">
        <ele>72.800003051758</ele>
        <time>2025-05-15T12:13:54.000Z</time>
      </trkpt>
      <trkpt lat="47.80831" lon="-2.60282">
        <ele>73</ele>
        <time>2025-05-15T12:13:55.000Z</time>
      </trkpt>
      <trkpt lat="47.80829" lon="-2.60284">
        <ele>73</ele>
        <time>2025-05-15T12:13:56.000Z</time>
      </trkpt>
      <trkpt lat="47.80828" lon="-2.60285">
        <ele>73.199996948242</ele>
        <time>2025-05-15T12:13:57.000Z</time>
      </trkpt>
      <trkpt lat="47.80826" lon="-2.60286">
        <ele>73.400001525879</ele>
        <time>2025-05-15T12:13:58.000Z</time>
      </trkpt>
      <trkpt lat="47.80824" lon="-2.60287">
        <ele>74</ele>
        <time>2025-05-15T12:13:59.000Z</time>
      </trkpt>
      <trkpt lat="47.80823" lon="-2.60288">
        <ele>74.400001525879</ele>
        <time>2025-05-15T12:14:00.000Z</time>
      </trkpt>
      <trkpt lat="47.80822" lon="-2.60288">
        <ele>75</ele>
        <time>2025-05-15T12:14:01.000Z</time>
      </trkpt>
      <trkpt lat="47.80821" lon="-2.60288">
        <ele>75.599998474121</ele>
        <time>2025-05-15T12:14:02.000Z</time>
      </trkpt>
      <trkpt lat="47.80814" lon="-2.60287">
        <ele>76.800003051758</ele>
        <time>2025-05-15T12:14:04.000Z</time>
      </trkpt>
      <trkpt lat="47.80812" lon="-2.60288">
        <ele>76.800003051758</ele>
        <time>2025-05-15T12:14:05.000Z</time>
      </trkpt>
      <trkpt lat="47.80807" lon="-2.60288">
        <ele>77</ele>
        <time>2025-05-15T12:14:06.000Z</time>
      </trkpt>
      <trkpt lat="47.80806" lon="-2.60289">
        <ele>77.199996948242</ele>
        <time>2025-05-15T12:14:07.000Z</time>
      </trkpt>
      <trkpt lat="47.80805" lon="-2.6029">
        <ele>77.400001525879</ele>
        <time>2025-05-15T12:14:08.000Z</time>
      </trkpt>
      <trkpt lat="47.80803" lon="-2.60289">
        <ele>77.400001525879</ele>
        <time>2025-05-15T12:14:09.000Z</time>
      </trkpt>
      <trkpt lat="47.80801" lon="-2.6029">
        <ele>77.599998474121</ele>
        <time>2025-05-15T12:14:10.000Z</time>
      </trkpt>
      <trkpt lat="47.80799" lon="-2.6029">
        <ele>77.800003051758</ele>
        <time>2025-05-15T12:14:11.000Z</time>
      </trkpt>
      <trkpt lat="47.80797" lon="-2.60291">
        <ele>77.800003051758</ele>
        <time>2025-05-15T12:14:12.000Z</time>
      </trkpt>
      <trkpt lat="47.80796" lon="-2.60291">
        <ele>77.800003051758</ele>
        <time>2025-05-15T12:14:13.000Z</time>
      </trkpt>
      <trkpt lat="47.80795" lon="-2.60291">
        <ele>78</ele>
        <time>2025-05-15T12:14:14.000Z</time>
      </trkpt>
      <trkpt lat="47.80795" lon="-2.60292">
        <ele>78.400001525879</ele>
        <time>2025-05-15T12:14:15.000Z</time>
      </trkpt>
      <trkpt lat="47.80793" lon="-2.60292">
        <ele>78.400001525879</ele>
        <time>2025-05-15T12:14:16.000Z</time>
      </trkpt>
      <trkpt lat="47.80792" lon="-2.60292">
        <ele>78.599998474121</ele>
        <time>2025-05-15T12:14:17.000Z</time>
      </trkpt>
      <trkpt lat="47.80791" lon="-2.60293">
        <ele>78.800003051758</ele>
        <time>2025-05-15T12:14:18.000Z</time>
      </trkpt>
      <trkpt lat="47.80789" lon="-2.60293">
        <ele>79.199996948242</ele>
        <time>2025-05-15T12:14:19.000Z</time>
      </trkpt>
      <trkpt lat="47.80788" lon="-2.60293">
        <ele>79.599998474121</ele>
        <time>2025-05-15T12:14:20.000Z</time>
      </trkpt>
      <trkpt lat="47.80787" lon="-2.60294">
        <ele>79.599998474121</ele>
        <time>2025-05-15T12:14:21.000Z</time>
      </trkpt>
      <trkpt lat="47.80786" lon="-2.60294">
        <ele>79.800003051758</ele>
        <time>2025-05-15T12:14:22.000Z</time>
      </trkpt>
      <trkpt lat="47.80785" lon="-2.60295">
        <ele>79.800003051758</ele>
        <time>2025-05-15T12:14:23.000Z</time>
      </trkpt>
      <trkpt lat="47.80784" lon="-2.60296">
        <ele>80</ele>
        <time>2025-05-15T12:14:24.000Z</time>
      </trkpt>
      <trkpt lat="47.80784" lon="-2.60297">
        <ele>80.199996948242</ele>
        <time>2025-05-15T12:14:25.000Z</time>
      </trkpt>
      <trkpt lat="47.80784" lon="-2.60299">
        <ele>80.400001525879</ele>
        <time>2025-05-15T12:14:26.000Z</time>
      </trkpt>
      <trkpt lat="47.80784" lon="-2.60301">
        <ele>80.400001525879</ele>
        <time>2025-05-15T12:14:27.000Z</time>
      </trkpt>
      <trkpt lat="47.80784" lon="-2.60303">
        <ele>80.599998474121</ele>
        <time>2025-05-15T12:14:28.000Z</time>
      </trkpt>
      <trkpt lat="47.80783" lon="-2.60305">
        <ele>81</ele>
        <time>2025-05-15T12:14:29.000Z</time>
      </trkpt>
      <trkpt lat="47.80782" lon="-2.60307">
        <ele>81.199996948242</ele>
        <time>2025-05-15T12:14:30.000Z</time>
      </trkpt>
      <trkpt lat="47.80782" lon="-2.60309">
        <ele>81.400001525879</ele>
        <time>2025-05-15T12:14:31.000Z</time>
      </trkpt>
      <trkpt lat="47.80782" lon="-2.60311">
        <ele>81.400001525879</ele>
        <time>2025-05-15T12:14:32.000Z</time>
      </trkpt>
      <trkpt lat="47.80782" lon="-2.60314">
        <ele>81.599998474121</ele>
        <time>2025-05-15T12:14:33.000Z</time>
      </trkpt>
      <trkpt lat="47.80783" lon="-2.60316">
        <ele>81.800003051758</ele>
        <time>2025-05-15T12:14:34.000Z</time>
      </trkpt>
      <trkpt lat="47.80783" lon="-2.60318">
        <ele>82.199996948242</ele>
        <time>2025-05-15T12:14:35.000Z</time>
      </trkpt>
      <trkpt lat="47.80783" lon="-2.6032">
        <ele>82.400001525879</ele>
        <time>2025-05-15T12:14:36.000Z</time>
      </trkpt>
      <trkpt lat="47.80783" lon="-2.60322">
        <ele>82.800003051758</ele>
        <time>2025-05-15T12:14:37.000Z</time>
      </trkpt>
      <trkpt lat="47.80782" lon="-2.60323">
        <ele>83</ele>
        <time>2025-05-15T12:14:38.000Z</time>
      </trkpt>
      <trkpt lat="47.80783" lon="-2.60325">
        <ele>83</ele>
        <time>2025-05-15T12:14:39.000Z</time>
      </trkpt>
      <trkpt lat="47.80783" lon="-2.60327">
        <ele>83.199996948242</ele>
        <time>2025-05-15T12:14:40.000Z</time>
      </trkpt>
      <trkpt lat="47.80782" lon="-2.6033">
        <ele>83.199996948242</ele>
        <time>2025-05-15T12:14:41.000Z</time>
      </trkpt>
      <trkpt lat="47.80783" lon="-2.60332">
        <ele>83.400001525879</ele>
        <time>2025-05-15T12:14:42.000Z</time>
      </trkpt>
      <trkpt lat="47.80784" lon="-2.60334">
        <ele>83.599998474121</ele>
        <time>2025-05-15T12:14:43.000Z</time>
      </trkpt>
      <trkpt lat="47.80785" lon="-2.60336">
        <ele>83.599998474121</ele>
        <time>2025-05-15T12:14:44.000Z</time>
      </trkpt>
      <trkpt lat="47.80786" lon="-2.60339">
        <ele>83.800003051758</ele>
        <time>2025-05-15T12:14:45.000Z</time>
      </trkpt>
      <trkpt lat="47.80785" lon="-2.60341">
        <ele>83.800003051758</ele>
        <time>2025-05-15T12:14:46.000Z</time>
      </trkpt>
      <trkpt lat="47.80783" lon="-2.60344">
        <ele>84</ele>
        <time>2025-05-15T12:14:47.000Z</time>
      </trkpt>
      <trkpt lat="47.80782" lon="-2.60346">
        <ele>84.199996948242</ele>
        <time>2025-05-15T12:14:48.000Z</time>
      </trkpt>
      <trkpt lat="47.80784" lon="-2.60348">
        <ele>84.400001525879</ele>
        <time>2025-05-15T12:14:49.000Z</time>
      </trkpt>
      <trkpt lat="47.80785" lon="-2.6035">
        <ele>84.400001525879</ele>
        <time>2025-05-15T12:14:50.000Z</time>
      </trkpt>
      <trkpt lat="47.80786" lon="-2.60353">
        <ele>84.599998474121</ele>
        <time>2025-05-15T12:14:51.000Z</time>
      </trkpt>
      <trkpt lat="47.80786" lon="-2.60356">
        <ele>84.599998474121</ele>
        <time>2025-05-15T12:14:52.000Z</time>
      </trkpt>
      <trkpt lat="47.80786" lon="-2.60357">
        <ele>84.599998474121</ele>
        <time>2025-05-15T12:14:53.000Z</time>
      </trkpt>
      <trkpt lat="47.80785" lon="-2.60359">
        <ele>84.800003051758</ele>
        <time>2025-05-15T12:14:54.000Z</time>
      </trkpt>
      <trkpt lat="47.80785" lon="-2.60361">
        <ele>84.800003051758</ele>
        <time>2025-05-15T12:14:55.000Z</time>
      </trkpt>
      <trkpt lat="47.80785" lon="-2.60363">
        <ele>85.199996948242</ele>
        <time>2025-05-15T12:14:56.000Z</time>
      </trkpt>
      <trkpt lat="47.80784" lon="-2.60365">
        <ele>85.199996948242</ele>
        <time>2025-05-15T12:14:57.000Z</time>
      </trkpt>
      <trkpt lat="47.80784" lon="-2.60367">
        <ele>85.400001525879</ele>
        <time>2025-05-15T12:14:58.000Z</time>
      </trkpt>
      <trkpt lat="47.80784" lon="-2.60369">
        <ele>85.599998474121</ele>
        <time>2025-05-15T12:14:59.000Z</time>
      </trkpt>
      <trkpt lat="47.80784" lon="-2.60371">
        <ele>85.599998474121</ele>
        <time>2025-05-15T12:15:00.000Z</time>
      </trkpt>
      <trkpt lat="47.80785" lon="-2.60374">
        <ele>85.599998474121</ele>
        <time>2025-05-15T12:15:01.000Z</time>
      </trkpt>
      <trkpt lat="47.80786" lon="-2.60376">
        <ele>85.800003051758</ele>
        <time>2025-05-15T12:15:02.000Z</time>
      </trkpt>
      <trkpt lat="47.80785" lon="-2.60377">
        <ele>85.800003051758</ele>
        <time>2025-05-15T12:15:03.000Z</time>
      </trkpt>
      <trkpt lat="47.80785" lon="-2.60379">
        <ele>86.400001525879</ele>
        <time>2025-05-15T12:15:12.000Z</time>
      </trkpt>
      <trkpt lat="47.80785" lon="-2.60381">
        <ele>86.400001525879</ele>
        <time>2025-05-15T12:15:13.000Z</time>
      </trkpt>
      <trkpt lat="47.80785" lon="-2.60384">
        <ele>86.400001525879</ele>
        <time>2025-05-15T12:15:14.000Z</time>
      </trkpt>
      <trkpt lat="47.80785" lon="-2.60386">
        <ele>86.400001525879</ele>
        <time>2025-05-15T12:15:15.000Z</time>
      </trkpt>
      <trkpt lat="47.80782" lon="-2.60391">
        <ele>86.599998474121</ele>
        <time>2025-05-15T12:15:17.000Z</time>
      </trkpt>
      <trkpt lat="47.80782" lon="-2.60393">
        <ele>86.800003051758</ele>
        <time>2025-05-15T12:15:18.000Z</time>
      </trkpt>
      <trkpt lat="47.80783" lon="-2.60396">
        <ele>86.800003051758</ele>
        <time>2025-05-15T12:15:19.000Z</time>
      </trkpt>
      <trkpt lat="47.80783" lon="-2.60399">
        <ele>87</ele>
        <time>2025-05-15T12:15:20.000Z</time>
      </trkpt>
      <trkpt lat="47.80784" lon="-2.60402">
        <ele>87</ele>
        <time>2025-05-15T12:15:21.000Z</time>
      </trkpt>
      <trkpt lat="47.80785" lon="-2.6041">
        <ele>87.400001525879</ele>
        <time>2025-05-15T12:15:24.000Z</time>
      </trkpt>
      <trkpt lat="47.80789" lon="-2.60418">
        <ele>87.800003051758</ele>
        <time>2025-05-15T12:15:27.000Z</time>
      </trkpt>
      <trkpt lat="47.80793" lon="-2.60426">
        <ele>88</ele>
        <time>2025-05-15T12:15:30.000Z</time>
      </trkpt>
      <trkpt lat="47.80795" lon="-2.6043">
        <ele>88.199996948242</ele>
        <time>2025-05-15T12:15:32.000Z</time>
      </trkpt>
      <trkpt lat="47.80797" lon="-2.60433">
        <ele>88.199996948242</ele>
        <time>2025-05-15T12:15:33.000Z</time>
      </trkpt>
      <trkpt lat="47.808" lon="-2.60436">
        <ele>88.400001525879</ele>
        <time>2025-05-15T12:15:35.000Z</time>
      </trkpt>
      <trkpt lat="47.80801" lon="-2.60437">
        <ele>88.400001525879</ele>
        <time>2025-05-15T12:15:36.000Z</time>
      </trkpt>
      <trkpt lat="47.80802" lon="-2.60439">
        <ele>88.599998474121</ele>
        <time>2025-05-15T12:15:37.000Z</time>
      </trkpt>
      <trkpt lat="47.80804" lon="-2.6044">
        <ele>88.599998474121</ele>
        <time>2025-05-15T12:15:38.000Z</time>
      </trkpt>
      <trkpt lat="47.80806" lon="-2.60441">
        <ele>88.800003051758</ele>
        <time>2025-05-15T12:15:39.000Z</time>
      </trkpt>
      <trkpt lat="47.80808" lon="-2.60442">
        <ele>89.199996948242</ele>
        <time>2025-05-15T12:15:40.000Z</time>
      </trkpt>
      <trkpt lat="47.80809" lon="-2.60443">
        <ele>89.400001525879</ele>
        <time>2025-05-15T12:15:41.000Z</time>
      </trkpt>
      <trkpt lat="47.80822" lon="-2.60447">
        <ele>90.400001525879</ele>
        <time>2025-05-15T12:15:45.000Z</time>
      </trkpt>
      <trkpt lat="47.80824" lon="-2.60448">
        <ele>90.599998474121</ele>
        <time>2025-05-15T12:15:46.000Z</time>
      </trkpt>
      <trkpt lat="47.80826" lon="-2.60449">
        <ele>90.800003051758</ele>
        <time>2025-05-15T12:15:47.000Z</time>
      </trkpt>
      <trkpt lat="47.80828" lon="-2.60449">
        <ele>90.800003051758</ele>
        <time>2025-05-15T12:15:48.000Z</time>
      </trkpt>
      <trkpt lat="47.80832" lon="-2.60449">
        <ele>91</ele>
        <time>2025-05-15T12:15:49.000Z</time>
      </trkpt>
      <trkpt lat="47.80835" lon="-2.6045">
        <ele>91.199996948242</ele>
        <time>2025-05-15T12:15:50.000Z</time>
      </trkpt>
      <trkpt lat="47.80838" lon="-2.60451">
        <ele>91.400001525879</ele>
        <time>2025-05-15T12:15:51.000Z</time>
      </trkpt>
      <trkpt lat="47.80841" lon="-2.60452">
        <ele>91.400001525879</ele>
        <time>2025-05-15T12:15:52.000Z</time>
      </trkpt>
      <trkpt lat="47.80845" lon="-2.60453">
        <ele>91.599998474121</ele>
        <time>2025-05-15T12:15:53.000Z</time>
      </trkpt>
      <trkpt lat="47.80847" lon="-2.60453">
        <ele>91.599998474121</ele>
        <time>2025-05-15T12:15:54.000Z</time>
      </trkpt>
      <trkpt lat="47.80849" lon="-2.60454">
        <ele>91.599998474121</ele>
        <time>2025-05-15T12:15:55.000Z</time>
      </trkpt>
      <trkpt lat="47.80852" lon="-2.60455">
        <ele>91.599998474121</ele>
        <time>2025-05-15T12:15:56.000Z</time>
      </trkpt>
      <trkpt lat="47.80855" lon="-2.60455">
        <ele>91.800003051758</ele>
        <time>2025-05-15T12:15:57.000Z</time>
      </trkpt>
      <trkpt lat="47.80857" lon="-2.60455">
        <ele>91.800003051758</ele>
        <time>2025-05-15T12:15:58.000Z</time>
      </trkpt>
      <trkpt lat="47.8086" lon="-2.60456">
        <ele>92.199996948242</ele>
        <time>2025-05-15T12:15:59.000Z</time>
      </trkpt>
      <trkpt lat="47.80863" lon="-2.60456">
        <ele>92.199996948242</ele>
        <time>2025-05-15T12:16:00.000Z</time>
      </trkpt>
      <trkpt lat="47.80865" lon="-2.60457">
        <ele>92.199996948242</ele>
        <time>2025-05-15T12:16:01.000Z</time>
      </trkpt>
      <trkpt lat="47.80867" lon="-2.60458">
        <ele>92.400001525879</ele>
        <time>2025-05-15T12:16:02.000Z</time>
      </trkpt>
      <trkpt lat="47.80868" lon="-2.6046">
        <ele>92.400001525879</ele>
        <time>2025-05-15T12:16:03.000Z</time>
      </trkpt>
      <trkpt lat="47.80869" lon="-2.60463">
        <ele>92.800003051758</ele>
        <time>2025-05-15T12:16:04.000Z</time>
      </trkpt>
      <trkpt lat="47.8087" lon="-2.60466">
        <ele>93</ele>
        <time>2025-05-15T12:16:05.000Z</time>
      </trkpt>
      <trkpt lat="47.80872" lon="-2.60469">
        <ele>93.199996948242</ele>
        <time>2025-05-15T12:16:06.000Z</time>
      </trkpt>
      <trkpt lat="47.80873" lon="-2.60471">
        <ele>93.400001525879</ele>
        <time>2025-05-15T12:16:07.000Z</time>
      </trkpt>
      <trkpt lat="47.80873" lon="-2.60472">
        <ele>93.599998474121</ele>
        <time>2025-05-15T12:16:08.000Z</time>
      </trkpt>
      <trkpt lat="47.80873" lon="-2.60472">
        <ele>93.800003051758</ele>
        <time>2025-05-15T12:16:09.000Z</time>
      </trkpt>
      <trkpt lat="47.80872" lon="-2.60473">
        <ele>94</ele>
        <time>2025-05-15T12:16:10.000Z</time>
      </trkpt>
      <trkpt lat="47.80873" lon="-2.60474">
        <ele>94</ele>
        <time>2025-05-15T12:16:11.000Z</time>
      </trkpt>
      <trkpt lat="47.80873" lon="-2.60475">
        <ele>94.199996948242</ele>
        <time>2025-05-15T12:16:12.000Z</time>
      </trkpt>
      <trkpt lat="47.80872" lon="-2.60476">
        <ele>94.400001525879</ele>
        <time>2025-05-15T12:16:13.000Z</time>
      </trkpt>
      <trkpt lat="47.80871" lon="-2.60476">
        <ele>94.400001525879</ele>
        <time>2025-05-15T12:16:14.000Z</time>
      </trkpt>
      <trkpt lat="47.80871" lon="-2.60477">
        <ele>94.599998474121</ele>
        <time>2025-05-15T12:16:15.000Z</time>
      </trkpt>
      <trkpt lat="47.80871" lon="-2.60478">
        <ele>94.800003051758</ele>
        <time>2025-05-15T12:16:16.000Z</time>
      </trkpt>
      <trkpt lat="47.8087" lon="-2.60478">
        <ele>94.800003051758</ele>
        <time>2025-05-15T12:16:17.000Z</time>
      </trkpt>
      <trkpt lat="47.80869" lon="-2.6048">
        <ele>94.800003051758</ele>
        <time>2025-05-15T12:16:18.000Z</time>
      </trkpt>
      <trkpt lat="47.80868" lon="-2.60482">
        <ele>95</ele>
        <time>2025-05-15T12:16:19.000Z</time>
      </trkpt>
      <trkpt lat="47.80867" lon="-2.60484">
        <ele>95</ele>
        <time>2025-05-15T12:16:20.000Z</time>
      </trkpt>
      <trkpt lat="47.80866" lon="-2.60486">
        <ele>95</ele>
        <time>2025-05-15T12:16:21.000Z</time>
      </trkpt>
      <trkpt lat="47.80865" lon="-2.60488">
        <ele>95</ele>
        <time>2025-05-15T12:16:22.000Z</time>
      </trkpt>
      <trkpt lat="47.80865" lon="-2.60489">
        <ele>95</ele>
        <time>2025-05-15T12:16:23.000Z</time>
      </trkpt>
      <trkpt lat="47.80865" lon="-2.60489">
        <ele>95</ele>
        <time>2025-05-15T12:16:24.000Z</time>
      </trkpt>
      <trkpt lat="47.80864" lon="-2.60492">
        <ele>95.199996948242</ele>
        <time>2025-05-15T12:18:21.000Z</time>
      </trkpt>
      <trkpt lat="47.80859" lon="-2.60502">
        <ele>95.400001525879</ele>
        <time>2025-05-15T12:18:26.000Z</time>
      </trkpt>
      <trkpt lat="47.80858" lon="-2.60504">
        <ele>95.400001525879</ele>
        <time>2025-05-15T12:18:27.000Z</time>
      </trkpt>
      <trkpt lat="47.80857" lon="-2.60508">
        <ele>95.400001525879</ele>
        <time>2025-05-15T12:18:28.000Z</time>
      </trkpt>
      <trkpt lat="47.80855" lon="-2.60511">
        <ele>95.400001525879</ele>
        <time>2025-05-15T12:18:29.000Z</time>
      </trkpt>
      <trkpt lat="47.80855" lon="-2.60515">
        <ele>95.599998474121</ele>
        <time>2025-05-15T12:18:30.000Z</time>
      </trkpt>
      <trkpt lat="47.8085" lon="-2.60522">
        <ele>95.599998474121</ele>
        <time>2025-05-15T12:18:33.000Z</time>
      </trkpt>
      <trkpt lat="47.80848" lon="-2.60524">
        <ele>95.599998474121</ele>
        <time>2025-05-15T12:18:34.000Z</time>
      </trkpt>
      <trkpt lat="47.8084" lon="-2.60533">
        <ele>95.599998474121</ele>
        <time>2025-05-15T12:18:37.000Z</time>
      </trkpt>
      <trkpt lat="47.8084" lon="-2.60535">
        <ele>95.599998474121</ele>
        <time>2025-05-15T12:18:38.000Z</time>
      </trkpt>
      <trkpt lat="47.80839" lon="-2.60538">
        <ele>95.599998474121</ele>
        <time>2025-05-15T12:18:39.000Z</time>
      </trkpt>
      <trkpt lat="47.8084" lon="-2.60542">
        <ele>95.599998474121</ele>
        <time>2025-05-15T12:18:40.000Z</time>
      </trkpt>
      <trkpt lat="47.80839" lon="-2.60545">
        <ele>95.800003051758</ele>
        <time>2025-05-15T12:18:41.000Z</time>
      </trkpt>
      <trkpt lat="47.80838" lon="-2.60549">
        <ele>95.800003051758</ele>
        <time>2025-05-15T12:18:42.000Z</time>
      </trkpt>
      <trkpt lat="47.80831" lon="-2.60561">
        <ele>95.800003051758</ele>
        <time>2025-05-15T12:18:44.000Z</time>
      </trkpt>
      <trkpt lat="47.80831" lon="-2.60562">
        <ele>95.800003051758</ele>
        <time>2025-05-15T12:18:45.000Z</time>
      </trkpt>
      <trkpt lat="47.80831" lon="-2.60564">
        <ele>95.800003051758</ele>
        <time>2025-05-15T12:18:46.000Z</time>
      </trkpt>
      <trkpt lat="47.80831" lon="-2.60564">
        <ele>95.800003051758</ele>
        <time>2025-05-15T12:18:47.000Z</time>
      </trkpt>
      <trkpt lat="47.80831" lon="-2.60564">
        <ele>95.800003051758</ele>
        <time>2025-05-15T12:18:48.000Z</time>
      </trkpt>
      <trkpt lat="47.8083" lon="-2.60566">
        <ele>95.800003051758</ele>
        <time>2025-05-15T12:18:51.000Z</time>
      </trkpt>
      <trkpt lat="47.8083" lon="-2.60567">
        <ele>95.800003051758</ele>
        <time>2025-05-15T12:18:52.000Z</time>
      </trkpt>
      <trkpt lat="47.80829" lon="-2.60569">
        <ele>95.800003051758</ele>
        <time>2025-05-15T12:18:53.000Z</time>
      </trkpt>
      <trkpt lat="47.80826" lon="-2.60573">
        <ele>95.800003051758</ele>
        <time>2025-05-15T12:18:54.000Z</time>
      </trkpt>
      <trkpt lat="47.80824" lon="-2.60575">
        <ele>95.800003051758</ele>
        <time>2025-05-15T12:18:55.000Z</time>
      </trkpt>
      <trkpt lat="47.80822" lon="-2.60576">
        <ele>95.800003051758</ele>
        <time>2025-05-15T12:18:56.000Z</time>
      </trkpt>
      <trkpt lat="47.8082" lon="-2.60577">
        <ele>96</ele>
        <time>2025-05-15T12:18:57.000Z</time>
      </trkpt>
      <trkpt lat="47.80818" lon="-2.60579">
        <ele>96</ele>
        <time>2025-05-15T12:18:58.000Z</time>
      </trkpt>
      <trkpt lat="47.80815" lon="-2.60581">
        <ele>96</ele>
        <time>2025-05-15T12:18:59.000Z</time>
      </trkpt>
      <trkpt lat="47.80815" lon="-2.60581">
        <ele>96</ele>
        <time>2025-05-15T12:19:00.000Z</time>
      </trkpt>
      <trkpt lat="47.80812" lon="-2.60584">
        <ele>96</ele>
        <time>2025-05-15T12:19:03.000Z</time>
      </trkpt>
      <trkpt lat="47.80809" lon="-2.60582">
        <ele>96</ele>
        <time>2025-05-15T12:19:04.000Z</time>
      </trkpt>
      <trkpt lat="47.80803" lon="-2.60582">
        <ele>96</ele>
        <time>2025-05-15T12:19:06.000Z</time>
      </trkpt>
      <trkpt lat="47.80798" lon="-2.60583">
        <ele>96</ele>
        <time>2025-05-15T12:19:07.000Z</time>
      </trkpt>
      <trkpt lat="47.80795" lon="-2.60586">
        <ele>96</ele>
        <time>2025-05-15T12:19:08.000Z</time>
      </trkpt>
      <trkpt lat="47.80793" lon="-2.6059">
        <ele>96</ele>
        <time>2025-05-15T12:19:09.000Z</time>
      </trkpt>
      <trkpt lat="47.80792" lon="-2.60598">
        <ele>96.199996948242</ele>
        <time>2025-05-15T12:19:11.000Z</time>
      </trkpt>
      <trkpt lat="47.80792" lon="-2.60601">
        <ele>96.599998474121</ele>
        <time>2025-05-15T12:19:12.000Z</time>
      </trkpt>
      <trkpt lat="47.80792" lon="-2.60604">
        <ele>96.800003051758</ele>
        <time>2025-05-15T12:19:13.000Z</time>
      </trkpt>
      <trkpt lat="47.80789" lon="-2.60608">
        <ele>97</ele>
        <time>2025-05-15T12:19:14.000Z</time>
      </trkpt>
      <trkpt lat="47.80788" lon="-2.60611">
        <ele>97.199996948242</ele>
        <time>2025-05-15T12:19:15.000Z</time>
      </trkpt>
      <trkpt lat="47.80786" lon="-2.60615">
        <ele>97.199996948242</ele>
        <time>2025-05-15T12:19:16.000Z</time>
      </trkpt>
      <trkpt lat="47.80784" lon="-2.60619">
        <ele>97.400001525879</ele>
        <time>2025-05-15T12:19:17.000Z</time>
      </trkpt>
      <trkpt lat="47.80782" lon="-2.60621">
        <ele>97.400001525879</ele>
        <time>2025-05-15T12:19:18.000Z</time>
      </trkpt>
      <trkpt lat="47.8078" lon="-2.60624">
        <ele>97.599998474121</ele>
        <time>2025-05-15T12:19:19.000Z</time>
      </trkpt>
      <trkpt lat="47.80778" lon="-2.60627">
        <ele>97.599998474121</ele>
        <time>2025-05-15T12:19:20.000Z</time>
      </trkpt>
      <trkpt lat="47.80766" lon="-2.60638">
        <ele>97.800003051758</ele>
        <time>2025-05-15T12:19:23.000Z</time>
      </trkpt>
      <trkpt lat="47.8076" lon="-2.60644">
        <ele>98</ele>
        <time>2025-05-15T12:19:25.000Z</time>
      </trkpt>
      <trkpt lat="47.80752" lon="-2.60651">
        <ele>98.199996948242</ele>
        <time>2025-05-15T12:19:27.000Z</time>
      </trkpt>
      <trkpt lat="47.80748" lon="-2.60653">
        <ele>98.199996948242</ele>
        <time>2025-05-15T12:19:28.000Z</time>
      </trkpt>
      <trkpt lat="47.80745" lon="-2.60656">
        <ele>98.400001525879</ele>
        <time>2025-05-15T12:19:29.000Z</time>
      </trkpt>
      <trkpt lat="47.80742" lon="-2.60658">
        <ele>98.599998474121</ele>
        <time>2025-05-15T12:19:30.000Z</time>
      </trkpt>
      <trkpt lat="47.8074" lon="-2.6066">
        <ele>98.800003051758</ele>
        <time>2025-05-15T12:19:31.000Z</time>
      </trkpt>
      <trkpt lat="47.80738" lon="-2.60662">
        <ele>99</ele>
        <time>2025-05-15T12:19:32.000Z</time>
      </trkpt>
      <trkpt lat="47.80734" lon="-2.60665">
        <ele>99</ele>
        <time>2025-05-15T12:19:33.000Z</time>
      </trkpt>
      <trkpt lat="47.80731" lon="-2.60668">
        <ele>99</ele>
        <time>2025-05-15T12:19:34.000Z</time>
      </trkpt>
      <trkpt lat="47.80725" lon="-2.60669">
        <ele>99</ele>
        <time>2025-05-15T12:19:35.000Z</time>
      </trkpt>
      <trkpt lat="47.80724" lon="-2.6067">
        <ele>99</ele>
        <time>2025-05-15T12:19:36.000Z</time>
      </trkpt>
      <trkpt lat="47.80723" lon="-2.6067">
        <ele>99.599998474121</ele>
        <time>2025-05-15T12:19:38.000Z</time>
      </trkpt>
      <trkpt lat="47.80721" lon="-2.6067">
        <ele>99.599998474121</ele>
        <time>2025-05-15T12:19:39.000Z</time>
      </trkpt>
      <trkpt lat="47.8072" lon="-2.6067">
        <ele>99.800003051758</ele>
        <time>2025-05-15T12:19:40.000Z</time>
      </trkpt>
      <trkpt lat="47.80719" lon="-2.60669">
        <ele>100</ele>
        <time>2025-05-15T12:19:41.000Z</time>
      </trkpt>
      <trkpt lat="47.80717" lon="-2.60669">
        <ele>100</ele>
        <time>2025-05-15T12:19:42.000Z</time>
      </trkpt>
      <trkpt lat="47.80715" lon="-2.60668">
        <ele>100</ele>
        <time>2025-05-15T12:19:43.000Z</time>
      </trkpt>
      <trkpt lat="47.80713" lon="-2.60667">
        <ele>100.19999694824</ele>
        <time>2025-05-15T12:19:44.000Z</time>
      </trkpt>
      <trkpt lat="47.80712" lon="-2.60667">
        <ele>100.19999694824</ele>
        <time>2025-05-15T12:19:45.000Z</time>
      </trkpt>
      <trkpt lat="47.8071" lon="-2.60667">
        <ele>100.40000152588</ele>
        <time>2025-05-15T12:19:46.000Z</time>
      </trkpt>
      <trkpt lat="47.80707" lon="-2.60666">
        <ele>100.59999847412</ele>
        <time>2025-05-15T12:19:47.000Z</time>
      </trkpt>
      <trkpt lat="47.80705" lon="-2.60665">
        <ele>100.59999847412</ele>
        <time>2025-05-15T12:19:48.000Z</time>
      </trkpt>
      <trkpt lat="47.80703" lon="-2.60664">
        <ele>100.80000305176</ele>
        <time>2025-05-15T12:19:49.000Z</time>
      </trkpt>
      <trkpt lat="47.80701" lon="-2.60662">
        <ele>100.80000305176</ele>
        <time>2025-05-15T12:19:50.000Z</time>
      </trkpt>
      <trkpt lat="47.807" lon="-2.60661">
        <ele>101.19999694824</ele>
        <time>2025-05-15T12:19:51.000Z</time>
      </trkpt>
      <trkpt lat="47.80699" lon="-2.6066">
        <ele>101.59999847412</ele>
        <time>2025-05-15T12:19:52.000Z</time>
      </trkpt>
      <trkpt lat="47.80698" lon="-2.60658">
        <ele>102.19999694824</ele>
        <time>2025-05-15T12:19:53.000Z</time>
      </trkpt>
      <trkpt lat="47.80696" lon="-2.60657">
        <ele>102.40000152588</ele>
        <time>2025-05-15T12:19:54.000Z</time>
      </trkpt>
      <trkpt lat="47.80694" lon="-2.60655">
        <ele>102.59999847412</ele>
        <time>2025-05-15T12:19:55.000Z</time>
      </trkpt>
      <trkpt lat="47.80692" lon="-2.60653">
        <ele>102.80000305176</ele>
        <time>2025-05-15T12:19:56.000Z</time>
      </trkpt>
      <trkpt lat="47.80689" lon="-2.60651">
        <ele>103</ele>
        <time>2025-05-15T12:19:57.000Z</time>
      </trkpt>
      <trkpt lat="47.80687" lon="-2.6065">
        <ele>103.19999694824</ele>
        <time>2025-05-15T12:19:58.000Z</time>
      </trkpt>
      <trkpt lat="47.80684" lon="-2.60648">
        <ele>103.40000152588</ele>
        <time>2025-05-15T12:19:59.000Z</time>
      </trkpt>
      <trkpt lat="47.80683" lon="-2.60647">
        <ele>103.40000152588</ele>
        <time>2025-05-15T12:20:00.000Z</time>
      </trkpt>
      <trkpt lat="47.80681" lon="-2.60646">
        <ele>103.40000152588</ele>
        <time>2025-05-15T12:20:01.000Z</time>
      </trkpt>
      <trkpt lat="47.80678" lon="-2.60644">
        <ele>103.40000152588</ele>
        <time>2025-05-15T12:20:02.000Z</time>
      </trkpt>
      <trkpt lat="47.80674" lon="-2.60641">
        <ele>103.40000152588</ele>
        <time>2025-05-15T12:20:03.000Z</time>
      </trkpt>
      <trkpt lat="47.80672" lon="-2.60639">
        <ele>103.40000152588</ele>
        <time>2025-05-15T12:20:04.000Z</time>
      </trkpt>
      <trkpt lat="47.80667" lon="-2.60638">
        <ele>103.40000152588</ele>
        <time>2025-05-15T12:20:05.000Z</time>
      </trkpt>
      <trkpt lat="47.80666" lon="-2.60637">
        <ele>103.40000152588</ele>
        <time>2025-05-15T12:20:06.000Z</time>
      </trkpt>
      <trkpt lat="47.80666" lon="-2.60637">
        <ele>103.40000152588</ele>
        <time>2025-05-15T12:20:07.000Z</time>
      </trkpt>
      <trkpt lat="47.80665" lon="-2.60637">
        <ele>103.40000152588</ele>
        <time>2025-05-15T12:20:08.000Z</time>
      </trkpt>
      <trkpt lat="47.80664" lon="-2.60637">
        <ele>103.40000152588</ele>
        <time>2025-05-15T12:20:09.000Z</time>
      </trkpt>
      <trkpt lat="47.80662" lon="-2.60638">
        <ele>103.40000152588</ele>
        <time>2025-05-15T12:20:10.000Z</time>
      </trkpt>
      <trkpt lat="47.80661" lon="-2.60638">
        <ele>103.40000152588</ele>
        <time>2025-05-15T12:20:11.000Z</time>
      </trkpt>
      <trkpt lat="47.80659" lon="-2.60638">
        <ele>103.59999847412</ele>
        <time>2025-05-15T12:20:12.000Z</time>
      </trkpt>
      <trkpt lat="47.80657" lon="-2.60638">
        <ele>103.59999847412</ele>
        <time>2025-05-15T12:20:13.000Z</time>
      </trkpt>
      <trkpt lat="47.80655" lon="-2.60638">
        <ele>103.80000305176</ele>
        <time>2025-05-15T12:20:14.000Z</time>
      </trkpt>
      <trkpt lat="47.80653" lon="-2.60638">
        <ele>103.80000305176</ele>
        <time>2025-05-15T12:20:15.000Z</time>
      </trkpt>
      <trkpt lat="47.8065" lon="-2.60639">
        <ele>104</ele>
        <time>2025-05-15T12:20:16.000Z</time>
      </trkpt>
      <trkpt lat="47.80644" lon="-2.60641">
        <ele>104.59999847412</ele>
        <time>2025-05-15T12:20:21.000Z</time>
      </trkpt>
      <trkpt lat="47.80641" lon="-2.60641">
        <ele>105</ele>
        <time>2025-05-15T12:20:24.000Z</time>
      </trkpt>
      <trkpt lat="47.8064" lon="-2.6064">
        <ele>105.19999694824</ele>
        <time>2025-05-15T12:20:25.000Z</time>
      </trkpt>
      <trkpt lat="47.80637" lon="-2.6064">
        <ele>105.19999694824</ele>
        <time>2025-05-15T12:20:27.000Z</time>
      </trkpt>
      <trkpt lat="47.80635" lon="-2.6064">
        <ele>105.40000152588</ele>
        <time>2025-05-15T12:20:28.000Z</time>
      </trkpt>
      <trkpt lat="47.80633" lon="-2.6064">
        <ele>105.40000152588</ele>
        <time>2025-05-15T12:20:29.000Z</time>
      </trkpt>
      <trkpt lat="47.80632" lon="-2.60641">
        <ele>105.59999847412</ele>
        <time>2025-05-15T12:20:30.000Z</time>
      </trkpt>
      <trkpt lat="47.80628" lon="-2.60641">
        <ele>105.80000305176</ele>
        <time>2025-05-15T12:20:31.000Z</time>
      </trkpt>
      <trkpt lat="47.80624" lon="-2.60642">
        <ele>106.19999694824</ele>
        <time>2025-05-15T12:20:32.000Z</time>
      </trkpt>
      <trkpt lat="47.80622" lon="-2.60643">
        <ele>106.19999694824</ele>
        <time>2025-05-15T12:20:33.000Z</time>
      </trkpt>
      <trkpt lat="47.80621" lon="-2.60643">
        <ele>106.19999694824</ele>
        <time>2025-05-15T12:20:34.000Z</time>
      </trkpt>
      <trkpt lat="47.80619" lon="-2.60644">
        <ele>106.40000152588</ele>
        <time>2025-05-15T12:20:35.000Z</time>
      </trkpt>
      <trkpt lat="47.80617" lon="-2.60645">
        <ele>106.59999847412</ele>
        <time>2025-05-15T12:20:36.000Z</time>
      </trkpt>
      <trkpt lat="47.80615" lon="-2.60645">
        <ele>106.80000305176</ele>
        <time>2025-05-15T12:20:37.000Z</time>
      </trkpt>
      <trkpt lat="47.80613" lon="-2.60645">
        <ele>107.19999694824</ele>
        <time>2025-05-15T12:20:38.000Z</time>
      </trkpt>
      <trkpt lat="47.80612" lon="-2.60646">
        <ele>107.40000152588</ele>
        <time>2025-05-15T12:20:39.000Z</time>
      </trkpt>
      <trkpt lat="47.80611" lon="-2.60646">
        <ele>107.59999847412</ele>
        <time>2025-05-15T12:20:40.000Z</time>
      </trkpt>
      <trkpt lat="47.80609" lon="-2.60648">
        <ele>107.80000305176</ele>
        <time>2025-05-15T12:20:41.000Z</time>
      </trkpt>
      <trkpt lat="47.80609" lon="-2.60648">
        <ele>107.80000305176</ele>
        <time>2025-05-15T12:20:42.000Z</time>
      </trkpt>
      <trkpt lat="47.80609" lon="-2.60648">
        <ele>108.19999694824</ele>
        <time>2025-05-15T12:20:43.000Z</time>
      </trkpt>
      <trkpt lat="47.80607" lon="-2.60648">
        <ele>109.40000152588</ele>
        <time>2025-05-15T12:20:51.000Z</time>
      </trkpt>
      <trkpt lat="47.80606" lon="-2.60648">
        <ele>109.40000152588</ele>
        <time>2025-05-15T12:20:52.000Z</time>
      </trkpt>
      <trkpt lat="47.80606" lon="-2.60648">
        <ele>109.40000152588</ele>
        <time>2025-05-15T12:20:53.000Z</time>
      </trkpt>
      <trkpt lat="47.80604" lon="-2.60648">
        <ele>109.40000152588</ele>
        <time>2025-05-15T12:20:54.000Z</time>
      </trkpt>
      <trkpt lat="47.80603" lon="-2.60648">
        <ele>109.59999847412</ele>
        <time>2025-05-15T12:20:55.000Z</time>
      </trkpt>
      <trkpt lat="47.80603" lon="-2.60648">
        <ele>109.59999847412</ele>
        <time>2025-05-15T12:20:56.000Z</time>
      </trkpt>
      <trkpt lat="47.80601" lon="-2.60648">
        <ele>109.59999847412</ele>
        <time>2025-05-15T12:20:57.000Z</time>
      </trkpt>
      <trkpt lat="47.80599" lon="-2.60648">
        <ele>109.59999847412</ele>
        <time>2025-05-15T12:20:58.000Z</time>
      </trkpt>
      <trkpt lat="47.80596" lon="-2.60648">
        <ele>109.80000305176</ele>
        <time>2025-05-15T12:20:59.000Z</time>
      </trkpt>
      <trkpt lat="47.80594" lon="-2.60648">
        <ele>109.80000305176</ele>
        <time>2025-05-15T12:21:00.000Z</time>
      </trkpt>
      <trkpt lat="47.80592" lon="-2.60648">
        <ele>109.80000305176</ele>
        <time>2025-05-15T12:21:01.000Z</time>
      </trkpt>
      <trkpt lat="47.80591" lon="-2.60648">
        <ele>110</ele>
        <time>2025-05-15T12:21:02.000Z</time>
      </trkpt>
      <trkpt lat="47.80589" lon="-2.60648">
        <ele>110.19999694824</ele>
        <time>2025-05-15T12:21:03.000Z</time>
      </trkpt>
      <trkpt lat="47.80587" lon="-2.60648">
        <ele>110.59999847412</ele>
        <time>2025-05-15T12:21:04.000Z</time>
      </trkpt>
      <trkpt lat="47.80585" lon="-2.60649">
        <ele>110.59999847412</ele>
        <time>2025-05-15T12:21:05.000Z</time>
      </trkpt>
      <trkpt lat="47.80583" lon="-2.60649">
        <ele>110.80000305176</ele>
        <time>2025-05-15T12:21:06.000Z</time>
      </trkpt>
      <trkpt lat="47.80581" lon="-2.60649">
        <ele>111</ele>
        <time>2025-05-15T12:21:07.000Z</time>
      </trkpt>
      <trkpt lat="47.80578" lon="-2.60649">
        <ele>111.19999694824</ele>
        <time>2025-05-15T12:21:08.000Z</time>
      </trkpt>
      <trkpt lat="47.80576" lon="-2.6065">
        <ele>111.40000152588</ele>
        <time>2025-05-15T12:21:09.000Z</time>
      </trkpt>
      <trkpt lat="47.80574" lon="-2.6065">
        <ele>111.59999847412</ele>
        <time>2025-05-15T12:21:10.000Z</time>
      </trkpt>
      <trkpt lat="47.80573" lon="-2.60651">
        <ele>111.59999847412</ele>
        <time>2025-05-15T12:21:11.000Z</time>
      </trkpt>
      <trkpt lat="47.80571" lon="-2.60652">
        <ele>111.80000305176</ele>
        <time>2025-05-15T12:21:12.000Z</time>
      </trkpt>
      <trkpt lat="47.8057" lon="-2.60652">
        <ele>112</ele>
        <time>2025-05-15T12:21:13.000Z</time>
      </trkpt>
      <trkpt lat="47.80568" lon="-2.60654">
        <ele>112</ele>
        <time>2025-05-15T12:21:14.000Z</time>
      </trkpt>
      <trkpt lat="47.80565" lon="-2.60654">
        <ele>112.19999694824</ele>
        <time>2025-05-15T12:21:15.000Z</time>
      </trkpt>
      <trkpt lat="47.80564" lon="-2.60654">
        <ele>112.40000152588</ele>
        <time>2025-05-15T12:21:16.000Z</time>
      </trkpt>
      <trkpt lat="47.80564" lon="-2.60654">
        <ele>112.40000152588</ele>
        <time>2025-05-15T12:21:17.000Z</time>
      </trkpt>
      <trkpt lat="47.80563" lon="-2.60654">
        <ele>112.59999847412</ele>
        <time>2025-05-15T12:21:18.000Z</time>
      </trkpt>
      <trkpt lat="47.80561" lon="-2.60653">
        <ele>113</ele>
        <time>2025-05-15T12:21:19.000Z</time>
      </trkpt>
      <trkpt lat="47.80557" lon="-2.60654">
        <ele>113.19999694824</ele>
        <time>2025-05-15T12:21:20.000Z</time>
      </trkpt>
      <trkpt lat="47.80557" lon="-2.60654">
        <ele>113.40000152588</ele>
        <time>2025-05-15T12:21:21.000Z</time>
      </trkpt>
      <trkpt lat="47.80555" lon="-2.60654">
        <ele>113.59999847412</ele>
        <time>2025-05-15T12:21:22.000Z</time>
      </trkpt>
      <trkpt lat="47.80554" lon="-2.60654">
        <ele>113.59999847412</ele>
        <time>2025-05-15T12:21:23.000Z</time>
      </trkpt>
      <trkpt lat="47.80553" lon="-2.60654">
        <ele>113.80000305176</ele>
        <time>2025-05-15T12:21:24.000Z</time>
      </trkpt>
      <trkpt lat="47.80552" lon="-2.60654">
        <ele>113.80000305176</ele>
        <time>2025-05-15T12:21:25.000Z</time>
      </trkpt>
      <trkpt lat="47.80548" lon="-2.60653">
        <ele>114</ele>
        <time>2025-05-15T12:21:26.000Z</time>
      </trkpt>
      <trkpt lat="47.80546" lon="-2.60654">
        <ele>114</ele>
        <time>2025-05-15T12:21:27.000Z</time>
      </trkpt>
      <trkpt lat="47.80545" lon="-2.60654">
        <ele>114.19999694824</ele>
        <time>2025-05-15T12:21:28.000Z</time>
      </trkpt>
      <trkpt lat="47.80543" lon="-2.60653">
        <ele>114.19999694824</ele>
        <time>2025-05-15T12:21:29.000Z</time>
      </trkpt>
      <trkpt lat="47.80541" lon="-2.60653">
        <ele>114.40000152588</ele>
        <time>2025-05-15T12:21:30.000Z</time>
      </trkpt>
      <trkpt lat="47.80539" lon="-2.60653">
        <ele>114.59999847412</ele>
        <time>2025-05-15T12:21:31.000Z</time>
      </trkpt>
      <trkpt lat="47.80537" lon="-2.60653">
        <ele>114.59999847412</ele>
        <time>2025-05-15T12:21:32.000Z</time>
      </trkpt>
      <trkpt lat="47.80535" lon="-2.60653">
        <ele>114.80000305176</ele>
        <time>2025-05-15T12:21:33.000Z</time>
      </trkpt>
      <trkpt lat="47.80533" lon="-2.60653">
        <ele>114.80000305176</ele>
        <time>2025-05-15T12:21:34.000Z</time>
      </trkpt>
      <trkpt lat="47.80531" lon="-2.60654">
        <ele>114.80000305176</ele>
        <time>2025-05-15T12:21:35.000Z</time>
      </trkpt>
      <trkpt lat="47.80528" lon="-2.60654">
        <ele>115</ele>
        <time>2025-05-15T12:21:36.000Z</time>
      </trkpt>
      <trkpt lat="47.80525" lon="-2.60656">
        <ele>115</ele>
        <time>2025-05-15T12:21:37.000Z</time>
      </trkpt>
      <trkpt lat="47.80523" lon="-2.60656">
        <ele>115</ele>
        <time>2025-05-15T12:21:38.000Z</time>
      </trkpt>
      <trkpt lat="47.80522" lon="-2.60655">
        <ele>115.19999694824</ele>
        <time>2025-05-15T12:21:39.000Z</time>
      </trkpt>
      <trkpt lat="47.80521" lon="-2.60655">
        <ele>115.19999694824</ele>
        <time>2025-05-15T12:21:40.000Z</time>
      </trkpt>
      <trkpt lat="47.80519" lon="-2.60655">
        <ele>115.40000152588</ele>
        <time>2025-05-15T12:21:41.000Z</time>
      </trkpt>
      <trkpt lat="47.80519" lon="-2.60655">
        <ele>115.40000152588</ele>
        <time>2025-05-15T12:21:42.000Z</time>
      </trkpt>
      <trkpt lat="47.80518" lon="-2.60656">
        <ele>115.59999847412</ele>
        <time>2025-05-15T12:21:43.000Z</time>
      </trkpt>
      <trkpt lat="47.80517" lon="-2.60656">
        <ele>115.59999847412</ele>
        <time>2025-05-15T12:21:44.000Z</time>
      </trkpt>
      <trkpt lat="47.80515" lon="-2.60656">
        <ele>115.80000305176</ele>
        <time>2025-05-15T12:21:45.000Z</time>
      </trkpt>
      <trkpt lat="47.80513" lon="-2.60657">
        <ele>115.80000305176</ele>
        <time>2025-05-15T12:21:46.000Z</time>
      </trkpt>
      <trkpt lat="47.80511" lon="-2.60657">
        <ele>116</ele>
        <time>2025-05-15T12:21:47.000Z</time>
      </trkpt>
      <trkpt lat="47.8051" lon="-2.60658">
        <ele>116.19999694824</ele>
        <time>2025-05-15T12:21:48.000Z</time>
      </trkpt>
      <trkpt lat="47.80506" lon="-2.60658">
        <ele>116.40000152588</ele>
        <time>2025-05-15T12:21:49.000Z</time>
      </trkpt>
      <trkpt lat="47.80503" lon="-2.60657">
        <ele>116.40000152588</ele>
        <time>2025-05-15T12:21:50.000Z</time>
      </trkpt>
      <trkpt lat="47.80501" lon="-2.60658">
        <ele>116.40000152588</ele>
        <time>2025-05-15T12:21:51.000Z</time>
      </trkpt>
      <trkpt lat="47.80498" lon="-2.60658">
        <ele>116.59999847412</ele>
        <time>2025-05-15T12:21:52.000Z</time>
      </trkpt>
      <trkpt lat="47.80497" lon="-2.60658">
        <ele>116.59999847412</ele>
        <time>2025-05-15T12:21:53.000Z</time>
      </trkpt>
      <trkpt lat="47.80497" lon="-2.60659">
        <ele>116.59999847412</ele>
        <time>2025-05-15T12:21:54.000Z</time>
      </trkpt>
      <trkpt lat="47.80494" lon="-2.60659">
        <ele>116.59999847412</ele>
        <time>2025-05-15T12:21:55.000Z</time>
      </trkpt>
      <trkpt lat="47.80493" lon="-2.60659">
        <ele>116.80000305176</ele>
        <time>2025-05-15T12:21:56.000Z</time>
      </trkpt>
      <trkpt lat="47.80492" lon="-2.60659">
        <ele>116.80000305176</ele>
        <time>2025-05-15T12:21:57.000Z</time>
      </trkpt>
      <trkpt lat="47.80491" lon="-2.60658">
        <ele>117</ele>
        <time>2025-05-15T12:21:58.000Z</time>
      </trkpt>
      <trkpt lat="47.80489" lon="-2.60659">
        <ele>117</ele>
        <time>2025-05-15T12:22:00.000Z</time>
      </trkpt>
      <trkpt lat="47.80487" lon="-2.60659">
        <ele>117.19999694824</ele>
        <time>2025-05-15T12:22:02.000Z</time>
      </trkpt>
      <trkpt lat="47.80484" lon="-2.60658">
        <ele>117.59999847412</ele>
        <time>2025-05-15T12:22:05.000Z</time>
      </trkpt>
      <trkpt lat="47.80483" lon="-2.60659">
        <ele>117.59999847412</ele>
        <time>2025-05-15T12:22:06.000Z</time>
      </trkpt>
      <trkpt lat="47.80481" lon="-2.6066">
        <ele>117.80000305176</ele>
        <time>2025-05-15T12:22:07.000Z</time>
      </trkpt>
      <trkpt lat="47.80474" lon="-2.6066">
        <ele>118</ele>
        <time>2025-05-15T12:22:10.000Z</time>
      </trkpt>
      <trkpt lat="47.80471" lon="-2.60661">
        <ele>118</ele>
        <time>2025-05-15T12:22:11.000Z</time>
      </trkpt>
      <trkpt lat="47.80466" lon="-2.60662">
        <ele>118</ele>
        <time>2025-05-15T12:22:13.000Z</time>
      </trkpt>
      <trkpt lat="47.80452" lon="-2.60661">
        <ele>118.19999694824</ele>
        <time>2025-05-15T12:22:17.000Z</time>
      </trkpt>
      <trkpt lat="47.8045" lon="-2.60661">
        <ele>118.59999847412</ele>
        <time>2025-05-15T12:22:18.000Z</time>
      </trkpt>
      <trkpt lat="47.80447" lon="-2.60661">
        <ele>118.80000305176</ele>
        <time>2025-05-15T12:22:19.000Z</time>
      </trkpt>
      <trkpt lat="47.80445" lon="-2.60661">
        <ele>118.59999847412</ele>
        <time>2025-05-15T12:22:20.000Z</time>
      </trkpt>
      <trkpt lat="47.80442" lon="-2.6066">
        <ele>118.59999847412</ele>
        <time>2025-05-15T12:22:21.000Z</time>
      </trkpt>
      <trkpt lat="47.80438" lon="-2.60659">
        <ele>118.80000305176</ele>
        <time>2025-05-15T12:22:22.000Z</time>
      </trkpt>
      <trkpt lat="47.80435" lon="-2.60658">
        <ele>118.80000305176</ele>
        <time>2025-05-15T12:22:23.000Z</time>
      </trkpt>
      <trkpt lat="47.80433" lon="-2.60657">
        <ele>119</ele>
        <time>2025-05-15T12:22:24.000Z</time>
      </trkpt>
      <trkpt lat="47.80432" lon="-2.60657">
        <ele>119</ele>
        <time>2025-05-15T12:22:25.000Z</time>
      </trkpt>
      <trkpt lat="47.80431" lon="-2.60657">
        <ele>119.19999694824</ele>
        <time>2025-05-15T12:22:26.000Z</time>
      </trkpt>
      <trkpt lat="47.8043" lon="-2.60656">
        <ele>119.40000152588</ele>
        <time>2025-05-15T12:22:27.000Z</time>
      </trkpt>
      <trkpt lat="47.80427" lon="-2.60655">
        <ele>119.59999847412</ele>
        <time>2025-05-15T12:22:29.000Z</time>
      </trkpt>
      <trkpt lat="47.80426" lon="-2.60654">
        <ele>119.59999847412</ele>
        <time>2025-05-15T12:22:30.000Z</time>
      </trkpt>
      <trkpt lat="47.80423" lon="-2.60653">
        <ele>120</ele>
        <time>2025-05-15T12:22:31.000Z</time>
      </trkpt>
      <trkpt lat="47.8042" lon="-2.60652">
        <ele>120.19999694824</ele>
        <time>2025-05-15T12:22:33.000Z</time>
      </trkpt>
      <trkpt lat="47.80419" lon="-2.60652">
        <ele>120.19999694824</ele>
        <time>2025-05-15T12:22:34.000Z</time>
      </trkpt>
      <trkpt lat="47.80419" lon="-2.60652">
        <ele>120.19999694824</ele>
        <time>2025-05-15T12:22:35.000Z</time>
      </trkpt>
      <trkpt lat="47.80418" lon="-2.60652">
        <ele>120.40000152588</ele>
        <time>2025-05-15T12:22:36.000Z</time>
      </trkpt>
      <trkpt lat="47.80412" lon="-2.60651">
        <ele>121</ele>
        <time>2025-05-15T12:22:39.000Z</time>
      </trkpt>
      <trkpt lat="47.80409" lon="-2.60649">
        <ele>121.19999694824</ele>
        <time>2025-05-15T12:22:40.000Z</time>
      </trkpt>
      <trkpt lat="47.80404" lon="-2.60648">
        <ele>121.40000152588</ele>
        <time>2025-05-15T12:22:42.000Z</time>
      </trkpt>
      <trkpt lat="47.80403" lon="-2.60648">
        <ele>121.59999847412</ele>
        <time>2025-05-15T12:22:43.000Z</time>
      </trkpt>
      <trkpt lat="47.80402" lon="-2.60648">
        <ele>121.80000305176</ele>
        <time>2025-05-15T12:22:44.000Z</time>
      </trkpt>
      <trkpt lat="47.80402" lon="-2.60648">
        <ele>122.19999694824</ele>
        <time>2025-05-15T12:22:45.000Z</time>
      </trkpt>
      <trkpt lat="47.80402" lon="-2.60648">
        <ele>122.40000152588</ele>
        <time>2025-05-15T12:22:46.000Z</time>
      </trkpt>
      <trkpt lat="47.80398" lon="-2.60648">
        <ele>122.59999847412</ele>
        <time>2025-05-15T12:22:47.000Z</time>
      </trkpt>
      <trkpt lat="47.80395" lon="-2.60647">
        <ele>122.80000305176</ele>
        <time>2025-05-15T12:22:48.000Z</time>
      </trkpt>
      <trkpt lat="47.80392" lon="-2.60646">
        <ele>123</ele>
        <time>2025-05-15T12:22:49.000Z</time>
      </trkpt>
      <trkpt lat="47.8039" lon="-2.60646">
        <ele>123</ele>
        <time>2025-05-15T12:22:50.000Z</time>
      </trkpt>
      <trkpt lat="47.80389" lon="-2.60646">
        <ele>123.19999694824</ele>
        <time>2025-05-15T12:22:51.000Z</time>
      </trkpt>
      <trkpt lat="47.80387" lon="-2.60646">
        <ele>123.40000152588</ele>
        <time>2025-05-15T12:22:52.000Z</time>
      </trkpt>
      <trkpt lat="47.80385" lon="-2.60644">
        <ele>123.40000152588</ele>
        <time>2025-05-15T12:22:53.000Z</time>
      </trkpt>
      <trkpt lat="47.80383" lon="-2.60644">
        <ele>123.80000305176</ele>
        <time>2025-05-15T12:22:54.000Z</time>
      </trkpt>
      <trkpt lat="47.8038" lon="-2.60642">
        <ele>124</ele>
        <time>2025-05-15T12:22:55.000Z</time>
      </trkpt>
      <trkpt lat="47.80378" lon="-2.60641">
        <ele>124</ele>
        <time>2025-05-15T12:22:56.000Z</time>
      </trkpt>
      <trkpt lat="47.80378" lon="-2.60641">
        <ele>124.19999694824</ele>
        <time>2025-05-15T12:22:57.000Z</time>
      </trkpt>
      <trkpt lat="47.80377" lon="-2.60641">
        <ele>124.40000152588</ele>
        <time>2025-05-15T12:22:58.000Z</time>
      </trkpt>
      <trkpt lat="47.80376" lon="-2.60641">
        <ele>124.59999847412</ele>
        <time>2025-05-15T12:22:59.000Z</time>
      </trkpt>
      <trkpt lat="47.80374" lon="-2.60641">
        <ele>124.80000305176</ele>
        <time>2025-05-15T12:23:00.000Z</time>
      </trkpt>
      <trkpt lat="47.80372" lon="-2.6064">
        <ele>124.80000305176</ele>
        <time>2025-05-15T12:23:01.000Z</time>
      </trkpt>
      <trkpt lat="47.8037" lon="-2.6064">
        <ele>125</ele>
        <time>2025-05-15T12:23:02.000Z</time>
      </trkpt>
      <trkpt lat="47.8037" lon="-2.6064">
        <ele>125.19999694824</ele>
        <time>2025-05-15T12:23:03.000Z</time>
      </trkpt>
      <trkpt lat="47.80368" lon="-2.60639">
        <ele>125.19999694824</ele>
        <time>2025-05-15T12:23:04.000Z</time>
      </trkpt>
      <trkpt lat="47.80366" lon="-2.60639">
        <ele>125.40000152588</ele>
        <time>2025-05-15T12:23:05.000Z</time>
      </trkpt>
      <trkpt lat="47.80364" lon="-2.60639">
        <ele>125.40000152588</ele>
        <time>2025-05-15T12:23:06.000Z</time>
      </trkpt>
      <trkpt lat="47.80362" lon="-2.60639">
        <ele>125.40000152588</ele>
        <time>2025-05-15T12:23:07.000Z</time>
      </trkpt>
      <trkpt lat="47.8036" lon="-2.60638">
        <ele>125.59999847412</ele>
        <time>2025-05-15T12:23:08.000Z</time>
      </trkpt>
      <trkpt lat="47.80358" lon="-2.60637">
        <ele>125.80000305176</ele>
        <time>2025-05-15T12:23:09.000Z</time>
      </trkpt>
      <trkpt lat="47.80357" lon="-2.60637">
        <ele>125.80000305176</ele>
        <time>2025-05-15T12:23:10.000Z</time>
      </trkpt>
      <trkpt lat="47.80355" lon="-2.60638">
        <ele>126</ele>
        <time>2025-05-15T12:23:11.000Z</time>
      </trkpt>
      <trkpt lat="47.80353" lon="-2.60638">
        <ele>126.19999694824</ele>
        <time>2025-05-15T12:23:12.000Z</time>
      </trkpt>
      <trkpt lat="47.80352" lon="-2.60639">
        <ele>126.40000152588</ele>
        <time>2025-05-15T12:23:13.000Z</time>
      </trkpt>
      <trkpt lat="47.80351" lon="-2.60639">
        <ele>126.59999847412</ele>
        <time>2025-05-15T12:23:14.000Z</time>
      </trkpt>
      <trkpt lat="47.80349" lon="-2.60639">
        <ele>126.80000305176</ele>
        <time>2025-05-15T12:23:15.000Z</time>
      </trkpt>
      <trkpt lat="47.80347" lon="-2.60639">
        <ele>127</ele>
        <time>2025-05-15T12:23:16.000Z</time>
      </trkpt>
      <trkpt lat="47.80345" lon="-2.60638">
        <ele>127</ele>
        <time>2025-05-15T12:23:17.000Z</time>
      </trkpt>
      <trkpt lat="47.80341" lon="-2.60637">
        <ele>127</ele>
        <time>2025-05-15T12:23:18.000Z</time>
      </trkpt>
      <trkpt lat="47.80339" lon="-2.60636">
        <ele>127.19999694824</ele>
        <time>2025-05-15T12:23:19.000Z</time>
      </trkpt>
      <trkpt lat="47.80338" lon="-2.60636">
        <ele>127.19999694824</ele>
        <time>2025-05-15T12:23:20.000Z</time>
      </trkpt>
      <trkpt lat="47.80338" lon="-2.60636">
        <ele>127.59999847412</ele>
        <time>2025-05-15T12:23:21.000Z</time>
      </trkpt>
      <trkpt lat="47.80337" lon="-2.60636">
        <ele>127.59999847412</ele>
        <time>2025-05-15T12:23:22.000Z</time>
      </trkpt>
      <trkpt lat="47.80336" lon="-2.60636">
        <ele>127.80000305176</ele>
        <time>2025-05-15T12:23:23.000Z</time>
      </trkpt>
      <trkpt lat="47.80335" lon="-2.60636">
        <ele>127.80000305176</ele>
        <time>2025-05-15T12:23:24.000Z</time>
      </trkpt>
      <trkpt lat="47.80334" lon="-2.60636">
        <ele>128</ele>
        <time>2025-05-15T12:23:25.000Z</time>
      </trkpt>
      <trkpt lat="47.80331" lon="-2.60636">
        <ele>128.19999694824</ele>
        <time>2025-05-15T12:23:26.000Z</time>
      </trkpt>
      <trkpt lat="47.80329" lon="-2.60635">
        <ele>128.19999694824</ele>
        <time>2025-05-15T12:23:27.000Z</time>
      </trkpt>
      <trkpt lat="47.80327" lon="-2.60635">
        <ele>128.39999389648</ele>
        <time>2025-05-15T12:23:28.000Z</time>
      </trkpt>
      <trkpt lat="47.80326" lon="-2.60635">
        <ele>128.60000610352</ele>
        <time>2025-05-15T12:23:29.000Z</time>
      </trkpt>
      <trkpt lat="47.80325" lon="-2.60635">
        <ele>128.80000305176</ele>
        <time>2025-05-15T12:23:30.000Z</time>
      </trkpt>
      <trkpt lat="47.80325" lon="-2.60634">
        <ele>128.80000305176</ele>
        <time>2025-05-15T12:23:31.000Z</time>
      </trkpt>
      <trkpt lat="47.80324" lon="-2.60634">
        <ele>128.80000305176</ele>
        <time>2025-05-15T12:23:32.000Z</time>
      </trkpt>
      <trkpt lat="47.80324" lon="-2.60634">
        <ele>129</ele>
        <time>2025-05-15T12:23:33.000Z</time>
      </trkpt>
      <trkpt lat="47.80322" lon="-2.60635">
        <ele>129</ele>
        <time>2025-05-15T12:23:34.000Z</time>
      </trkpt>
      <trkpt lat="47.80322" lon="-2.60635">
        <ele>129</ele>
        <time>2025-05-15T12:23:35.000Z</time>
      </trkpt>
      <trkpt lat="47.80319" lon="-2.60634">
        <ele>129</ele>
        <time>2025-05-15T12:23:36.000Z</time>
      </trkpt>
      <trkpt lat="47.80318" lon="-2.60635">
        <ele>129</ele>
        <time>2025-05-15T12:23:37.000Z</time>
      </trkpt>
      <trkpt lat="47.80315" lon="-2.60635">
        <ele>129.19999694824</ele>
        <time>2025-05-15T12:23:38.000Z</time>
      </trkpt>
      <trkpt lat="47.80314" lon="-2.60634">
        <ele>129.19999694824</ele>
        <time>2025-05-15T12:23:39.000Z</time>
      </trkpt>
      <trkpt lat="47.80312" lon="-2.60634">
        <ele>129.19999694824</ele>
        <time>2025-05-15T12:23:40.000Z</time>
      </trkpt>
      <trkpt lat="47.8031" lon="-2.60633">
        <ele>129.19999694824</ele>
        <time>2025-05-15T12:23:41.000Z</time>
      </trkpt>
      <trkpt lat="47.80308" lon="-2.60633">
        <ele>129.19999694824</ele>
        <time>2025-05-15T12:23:42.000Z</time>
      </trkpt>
      <trkpt lat="47.80304" lon="-2.60632">
        <ele>129.19999694824</ele>
        <time>2025-05-15T12:23:43.000Z</time>
      </trkpt>
      <trkpt lat="47.80301" lon="-2.60632">
        <ele>129.39999389648</ele>
        <time>2025-05-15T12:23:44.000Z</time>
      </trkpt>
      <trkpt lat="47.803" lon="-2.60632">
        <ele>129.39999389648</ele>
        <time>2025-05-15T12:23:45.000Z</time>
      </trkpt>
      <trkpt lat="47.80295" lon="-2.60632">
        <ele>129.39999389648</ele>
        <time>2025-05-15T12:23:48.000Z</time>
      </trkpt>
      <trkpt lat="47.80281" lon="-2.60637">
        <ele>129.39999389648</ele>
        <time>2025-05-15T12:23:54.000Z</time>
      </trkpt>
      <trkpt lat="47.80279" lon="-2.60639">
        <ele>129.60000610352</ele>
        <time>2025-05-15T12:23:55.000Z</time>
      </trkpt>
      <trkpt lat="47.80275" lon="-2.6064">
        <ele>129.60000610352</ele>
        <time>2025-05-15T12:23:56.000Z</time>
      </trkpt>
      <trkpt lat="47.80273" lon="-2.60642">
        <ele>129.60000610352</ele>
        <time>2025-05-15T12:23:57.000Z</time>
      </trkpt>
      <trkpt lat="47.80272" lon="-2.60644">
        <ele>129.60000610352</ele>
        <time>2025-05-15T12:23:58.000Z</time>
      </trkpt>
      <trkpt lat="47.80272" lon="-2.60645">
        <ele>129.60000610352</ele>
        <time>2025-05-15T12:23:59.000Z</time>
      </trkpt>
      <trkpt lat="47.80271" lon="-2.60646">
        <ele>129.80000305176</ele>
        <time>2025-05-15T12:24:00.000Z</time>
      </trkpt>
      <trkpt lat="47.8027" lon="-2.60647">
        <ele>129.80000305176</ele>
        <time>2025-05-15T12:24:01.000Z</time>
      </trkpt>
      <trkpt lat="47.80268" lon="-2.60653">
        <ele>129.80000305176</ele>
        <time>2025-05-15T12:24:03.000Z</time>
      </trkpt>
      <trkpt lat="47.80267" lon="-2.60657">
        <ele>130</ele>
        <time>2025-05-15T12:24:04.000Z</time>
      </trkpt>
      <trkpt lat="47.80267" lon="-2.60659">
        <ele>130</ele>
        <time>2025-05-15T12:24:05.000Z</time>
      </trkpt>
      <trkpt lat="47.80266" lon="-2.60661">
        <ele>130</ele>
        <time>2025-05-15T12:24:06.000Z</time>
      </trkpt>
      <trkpt lat="47.80266" lon="-2.60664">
        <ele>130</ele>
        <time>2025-05-15T12:24:07.000Z</time>
      </trkpt>
      <trkpt lat="47.80265" lon="-2.60666">
        <ele>130.39999389648</ele>
        <time>2025-05-15T12:24:08.000Z</time>
      </trkpt>
      <trkpt lat="47.80263" lon="-2.60668">
        <ele>130.60000610352</ele>
        <time>2025-05-15T12:24:09.000Z</time>
      </trkpt>
      <trkpt lat="47.80262" lon="-2.6067">
        <ele>130.60000610352</ele>
        <time>2025-05-15T12:24:10.000Z</time>
      </trkpt>
      <trkpt lat="47.80261" lon="-2.60671">
        <ele>130.80000305176</ele>
        <time>2025-05-15T12:24:11.000Z</time>
      </trkpt>
      <trkpt lat="47.80261" lon="-2.60672">
        <ele>131</ele>
        <time>2025-05-15T12:24:12.000Z</time>
      </trkpt>
      <trkpt lat="47.80261" lon="-2.60673">
        <ele>131.19999694824</ele>
        <time>2025-05-15T12:24:13.000Z</time>
      </trkpt>
      <trkpt lat="47.80262" lon="-2.60674">
        <ele>131.39999389648</ele>
        <time>2025-05-15T12:24:14.000Z</time>
      </trkpt>
      <trkpt lat="47.80261" lon="-2.60675">
        <ele>131.60000610352</ele>
        <time>2025-05-15T12:24:15.000Z</time>
      </trkpt>
      <trkpt lat="47.80258" lon="-2.6068">
        <ele>132</ele>
        <time>2025-05-15T12:24:17.000Z</time>
      </trkpt>
      <trkpt lat="47.80257" lon="-2.60682">
        <ele>132.39999389648</ele>
        <time>2025-05-15T12:24:18.000Z</time>
      </trkpt>
      <trkpt lat="47.80258" lon="-2.60686">
        <ele>132.60000610352</ele>
        <time>2025-05-15T12:24:21.000Z</time>
      </trkpt>
      <trkpt lat="47.80258" lon="-2.60686">
        <ele>132.80000305176</ele>
        <time>2025-05-15T12:24:22.000Z</time>
      </trkpt>
      <trkpt lat="47.80258" lon="-2.60686">
        <ele>132.80000305176</ele>
        <time>2025-05-15T12:24:23.000Z</time>
      </trkpt>
      <trkpt lat="47.80258" lon="-2.60688">
        <ele>133</ele>
        <time>2025-05-15T12:24:24.000Z</time>
      </trkpt>
      <trkpt lat="47.80258" lon="-2.6069">
        <ele>133</ele>
        <time>2025-05-15T12:24:25.000Z</time>
      </trkpt>
      <trkpt lat="47.80258" lon="-2.6069">
        <ele>133.39999389648</ele>
        <time>2025-05-15T12:24:26.000Z</time>
      </trkpt>
      <trkpt lat="47.80258" lon="-2.6069">
        <ele>133.39999389648</ele>
        <time>2025-05-15T12:24:27.000Z</time>
      </trkpt>
      <trkpt lat="47.80258" lon="-2.6069">
        <ele>133.60000610352</ele>
        <time>2025-05-15T12:24:28.000Z</time>
      </trkpt>
      <trkpt lat="47.80259" lon="-2.60691">
        <ele>133.80000305176</ele>
        <time>2025-05-15T12:24:29.000Z</time>
      </trkpt>
      <trkpt lat="47.80259" lon="-2.60693">
        <ele>134</ele>
        <time>2025-05-15T12:24:30.000Z</time>
      </trkpt>
      <trkpt lat="47.8026" lon="-2.60695">
        <ele>134</ele>
        <time>2025-05-15T12:24:31.000Z</time>
      </trkpt>
      <trkpt lat="47.80261" lon="-2.60696">
        <ele>134</ele>
        <time>2025-05-15T12:24:32.000Z</time>
      </trkpt>
      <trkpt lat="47.80263" lon="-2.60698">
        <ele>134.19999694824</ele>
        <time>2025-05-15T12:24:33.000Z</time>
      </trkpt>
      <trkpt lat="47.80264" lon="-2.607">
        <ele>134.19999694824</ele>
        <time>2025-05-15T12:24:34.000Z</time>
      </trkpt>
      <trkpt lat="47.80265" lon="-2.607">
        <ele>134.19999694824</ele>
        <time>2025-05-15T12:24:35.000Z</time>
      </trkpt>
      <trkpt lat="47.80265" lon="-2.607">
        <ele>134.39999389648</ele>
        <time>2025-05-15T12:24:36.000Z</time>
      </trkpt>
      <trkpt lat="47.80265" lon="-2.607">
        <ele>134.39999389648</ele>
        <time>2025-05-15T12:24:37.000Z</time>
      </trkpt>
      <trkpt lat="47.80265" lon="-2.607">
        <ele>134.39999389648</ele>
        <time>2025-05-15T12:24:38.000Z</time>
      </trkpt>
      <trkpt lat="47.80265" lon="-2.607">
        <ele>134.60000610352</ele>
        <time>2025-05-15T12:24:39.000Z</time>
      </trkpt>
      <trkpt lat="47.80265" lon="-2.60702">
        <ele>134.80000305176</ele>
        <time>2025-05-15T12:24:40.000Z</time>
      </trkpt>
      <trkpt lat="47.80266" lon="-2.60703">
        <ele>134.80000305176</ele>
        <time>2025-05-15T12:24:41.000Z</time>
      </trkpt>
      <trkpt lat="47.80266" lon="-2.60703">
        <ele>135</ele>
        <time>2025-05-15T12:24:42.000Z</time>
      </trkpt>
      <trkpt lat="47.80267" lon="-2.60705">
        <ele>135</ele>
        <time>2025-05-15T12:24:43.000Z</time>
      </trkpt>
      <trkpt lat="47.80268" lon="-2.60709">
        <ele>135.19999694824</ele>
        <time>2025-05-15T12:24:44.000Z</time>
      </trkpt>
      <trkpt lat="47.80269" lon="-2.60713">
        <ele>135.19999694824</ele>
        <time>2025-05-15T12:24:45.000Z</time>
      </trkpt>
      <trkpt lat="47.80271" lon="-2.60717">
        <ele>135.19999694824</ele>
        <time>2025-05-15T12:24:46.000Z</time>
      </trkpt>
      <trkpt lat="47.80272" lon="-2.6072">
        <ele>135.39999389648</ele>
        <time>2025-05-15T12:24:47.000Z</time>
      </trkpt>
      <trkpt lat="47.80273" lon="-2.60723">
        <ele>135.39999389648</ele>
        <time>2025-05-15T12:24:48.000Z</time>
      </trkpt>
      <trkpt lat="47.80274" lon="-2.60726">
        <ele>135.60000610352</ele>
        <time>2025-05-15T12:24:49.000Z</time>
      </trkpt>
      <trkpt lat="47.80274" lon="-2.60729">
        <ele>135.60000610352</ele>
        <time>2025-05-15T12:24:50.000Z</time>
      </trkpt>
      <trkpt lat="47.80275" lon="-2.60733">
        <ele>135.80000305176</ele>
        <time>2025-05-15T12:24:51.000Z</time>
      </trkpt>
      <trkpt lat="47.80277" lon="-2.60736">
        <ele>136</ele>
        <time>2025-05-15T12:24:52.000Z</time>
      </trkpt>
      <trkpt lat="47.80277" lon="-2.60737">
        <ele>136</ele>
        <time>2025-05-15T12:24:53.000Z</time>
      </trkpt>
      <trkpt lat="47.80277" lon="-2.60737">
        <ele>136</ele>
        <time>2025-05-15T12:24:54.000Z</time>
      </trkpt>
      <trkpt lat="47.80278" lon="-2.60739">
        <ele>136</ele>
        <time>2025-05-15T12:24:55.000Z</time>
      </trkpt>
      <trkpt lat="47.8028" lon="-2.60742">
        <ele>136.19999694824</ele>
        <time>2025-05-15T12:24:56.000Z</time>
      </trkpt>
      <trkpt lat="47.80282" lon="-2.60746">
        <ele>136.19999694824</ele>
        <time>2025-05-15T12:24:57.000Z</time>
      </trkpt>
      <trkpt lat="47.80283" lon="-2.60749">
        <ele>136.39999389648</ele>
        <time>2025-05-15T12:24:58.000Z</time>
      </trkpt>
      <trkpt lat="47.80284" lon="-2.60752">
        <ele>136.39999389648</ele>
        <time>2025-05-15T12:24:59.000Z</time>
      </trkpt>
      <trkpt lat="47.80289" lon="-2.60763">
        <ele>136.80000305176</ele>
        <time>2025-05-15T12:25:01.000Z</time>
      </trkpt>
      <trkpt lat="47.8029" lon="-2.60768">
        <ele>136.80000305176</ele>
        <time>2025-05-15T12:25:02.000Z</time>
      </trkpt>
      <trkpt lat="47.80294" lon="-2.60773">
        <ele>137</ele>
        <time>2025-05-15T12:25:03.000Z</time>
      </trkpt>
      <trkpt lat="47.80293" lon="-2.60773">
        <ele>137.19999694824</ele>
        <time>2025-05-15T12:25:04.000Z</time>
      </trkpt>
      <trkpt lat="47.80295" lon="-2.60777">
        <ele>137.39999389648</ele>
        <time>2025-05-15T12:25:05.000Z</time>
      </trkpt>
      <trkpt lat="47.80295" lon="-2.60777">
        <ele>137.39999389648</ele>
        <time>2025-05-15T12:25:06.000Z</time>
      </trkpt>
      <trkpt lat="47.80295" lon="-2.60777">
        <ele>137.60000610352</ele>
        <time>2025-05-15T12:25:07.000Z</time>
      </trkpt>
      <trkpt lat="47.80295" lon="-2.60777">
        <ele>137.80000305176</ele>
        <time>2025-05-15T12:25:08.000Z</time>
      </trkpt>
      <trkpt lat="47.80295" lon="-2.60777">
        <ele>137.80000305176</ele>
        <time>2025-05-15T12:25:09.000Z</time>
      </trkpt>
      <trkpt lat="47.80295" lon="-2.60777">
        <ele>138</ele>
        <time>2025-05-15T12:25:10.000Z</time>
      </trkpt>
      <trkpt lat="47.80296" lon="-2.60779">
        <ele>138</ele>
        <time>2025-05-15T12:25:11.000Z</time>
      </trkpt>
      <trkpt lat="47.80297" lon="-2.60779">
        <ele>138.19999694824</ele>
        <time>2025-05-15T12:25:12.000Z</time>
      </trkpt>
      <trkpt lat="47.80297" lon="-2.60781">
        <ele>138.19999694824</ele>
        <time>2025-05-15T12:25:13.000Z</time>
      </trkpt>
      <trkpt lat="47.80298" lon="-2.60782">
        <ele>138</ele>
        <time>2025-05-15T12:25:14.000Z</time>
      </trkpt>
      <trkpt lat="47.80299" lon="-2.60783">
        <ele>138.19999694824</ele>
        <time>2025-05-15T12:25:15.000Z</time>
      </trkpt>
      <trkpt lat="47.80301" lon="-2.60785">
        <ele>138.19999694824</ele>
        <time>2025-05-15T12:25:16.000Z</time>
      </trkpt>
      <trkpt lat="47.80302" lon="-2.60788">
        <ele>138.39999389648</ele>
        <time>2025-05-15T12:25:17.000Z</time>
      </trkpt>
      <trkpt lat="47.80302" lon="-2.60792">
        <ele>138.19999694824</ele>
        <time>2025-05-15T12:25:18.000Z</time>
      </trkpt>
      <trkpt lat="47.80303" lon="-2.60796">
        <ele>138.19999694824</ele>
        <time>2025-05-15T12:25:19.000Z</time>
      </trkpt>
      <trkpt lat="47.80303" lon="-2.60797">
        <ele>138.19999694824</ele>
        <time>2025-05-15T12:25:20.000Z</time>
      </trkpt>
      <trkpt lat="47.80307" lon="-2.60802">
        <ele>137.80000305176</ele>
        <time>2025-05-15T12:25:22.000Z</time>
      </trkpt>
      <trkpt lat="47.8031" lon="-2.60802">
        <ele>137.80000305176</ele>
        <time>2025-05-15T12:25:23.000Z</time>
      </trkpt>
      <trkpt lat="47.80313" lon="-2.60804">
        <ele>137.80000305176</ele>
        <time>2025-05-15T12:25:24.000Z</time>
      </trkpt>
      <trkpt lat="47.80315" lon="-2.60807">
        <ele>137.80000305176</ele>
        <time>2025-05-15T12:25:25.000Z</time>
      </trkpt>
      <trkpt lat="47.80319" lon="-2.60811">
        <ele>137.80000305176</ele>
        <time>2025-05-15T12:25:26.000Z</time>
      </trkpt>
      <trkpt lat="47.80323" lon="-2.60814">
        <ele>137.60000610352</ele>
        <time>2025-05-15T12:25:27.000Z</time>
      </trkpt>
      <trkpt lat="47.80328" lon="-2.60818">
        <ele>137.39999389648</ele>
        <time>2025-05-15T12:25:28.000Z</time>
      </trkpt>
      <trkpt lat="47.80334" lon="-2.60825">
        <ele>137.19999694824</ele>
        <time>2025-05-15T12:25:29.000Z</time>
      </trkpt>
      <trkpt lat="47.80334" lon="-2.60826">
        <ele>137</ele>
        <time>2025-05-15T12:25:30.000Z</time>
      </trkpt>
      <trkpt lat="47.80336" lon="-2.60827">
        <ele>136.80000305176</ele>
        <time>2025-05-15T12:25:31.000Z</time>
      </trkpt>
      <trkpt lat="47.80338" lon="-2.60827">
        <ele>136.19999694824</ele>
        <time>2025-05-15T12:25:32.000Z</time>
      </trkpt>
      <trkpt lat="47.8034" lon="-2.60825">
        <ele>136</ele>
        <time>2025-05-15T12:25:33.000Z</time>
      </trkpt>
      <trkpt lat="47.80343" lon="-2.60825">
        <ele>135.80000305176</ele>
        <time>2025-05-15T12:25:34.000Z</time>
      </trkpt>
      <trkpt lat="47.80346" lon="-2.60824">
        <ele>135.60000610352</ele>
        <time>2025-05-15T12:25:35.000Z</time>
      </trkpt>
      <trkpt lat="47.8035" lon="-2.60823">
        <ele>135.39999389648</ele>
        <time>2025-05-15T12:25:36.000Z</time>
      </trkpt>
      <trkpt lat="47.80354" lon="-2.60821">
        <ele>135.39999389648</ele>
        <time>2025-05-15T12:25:37.000Z</time>
      </trkpt>
      <trkpt lat="47.80359" lon="-2.60819">
        <ele>135</ele>
        <time>2025-05-15T12:25:38.000Z</time>
      </trkpt>
      <trkpt lat="47.80362" lon="-2.60819">
        <ele>134.60000610352</ele>
        <time>2025-05-15T12:25:39.000Z</time>
      </trkpt>
      <trkpt lat="47.80365" lon="-2.60817">
        <ele>134</ele>
        <time>2025-05-15T12:25:40.000Z</time>
      </trkpt>
      <trkpt lat="47.80368" lon="-2.60816">
        <ele>133.19999694824</ele>
        <time>2025-05-15T12:25:41.000Z</time>
      </trkpt>
      <trkpt lat="47.80371" lon="-2.60814">
        <ele>132.80000305176</ele>
        <time>2025-05-15T12:25:42.000Z</time>
      </trkpt>
      <trkpt lat="47.80373" lon="-2.60812">
        <ele>132.39999389648</ele>
        <time>2025-05-15T12:25:43.000Z</time>
      </trkpt>
      <trkpt lat="47.80375" lon="-2.6081">
        <ele>132.19999694824</ele>
        <time>2025-05-15T12:25:44.000Z</time>
      </trkpt>
      <trkpt lat="47.80378" lon="-2.60807">
        <ele>132</ele>
        <time>2025-05-15T12:25:45.000Z</time>
      </trkpt>
      <trkpt lat="47.80383" lon="-2.60802">
        <ele>131.39999389648</ele>
        <time>2025-05-15T12:25:46.000Z</time>
      </trkpt>
      <trkpt lat="47.8039" lon="-2.60799">
        <ele>130.60000610352</ele>
        <time>2025-05-15T12:25:47.000Z</time>
      </trkpt>
      <trkpt lat="47.804" lon="-2.60799">
        <ele>130.19999694824</ele>
        <time>2025-05-15T12:25:48.000Z</time>
      </trkpt>
      <trkpt lat="47.80407" lon="-2.60799">
        <ele>130</ele>
        <time>2025-05-15T12:25:49.000Z</time>
      </trkpt>
      <trkpt lat="47.8041" lon="-2.608">
        <ele>129.80000305176</ele>
        <time>2025-05-15T12:25:50.000Z</time>
      </trkpt>
      <trkpt lat="47.80414" lon="-2.60801">
        <ele>129.60000610352</ele>
        <time>2025-05-15T12:25:51.000Z</time>
      </trkpt>
      <trkpt lat="47.80417" lon="-2.60802">
        <ele>129.39999389648</ele>
        <time>2025-05-15T12:25:52.000Z</time>
      </trkpt>
      <trkpt lat="47.80425" lon="-2.60801">
        <ele>129.39999389648</ele>
        <time>2025-05-15T12:25:54.000Z</time>
      </trkpt>
      <trkpt lat="47.8043" lon="-2.60802">
        <ele>129.39999389648</ele>
        <time>2025-05-15T12:25:55.000Z</time>
      </trkpt>
      <trkpt lat="47.80432" lon="-2.60804">
        <ele>129.60000610352</ele>
        <time>2025-05-15T12:25:56.000Z</time>
      </trkpt>
      <trkpt lat="47.80435" lon="-2.60808">
        <ele>130</ele>
        <time>2025-05-15T12:25:57.000Z</time>
      </trkpt>
      <trkpt lat="47.80438" lon="-2.60813">
        <ele>130</ele>
        <time>2025-05-15T12:25:58.000Z</time>
      </trkpt>
      <trkpt lat="47.80439" lon="-2.60816">
        <ele>130.19999694824</ele>
        <time>2025-05-15T12:25:59.000Z</time>
      </trkpt>
      <trkpt lat="47.80441" lon="-2.60818">
        <ele>130.39999389648</ele>
        <time>2025-05-15T12:26:00.000Z</time>
      </trkpt>
      <trkpt lat="47.80443" lon="-2.60822">
        <ele>130.60000610352</ele>
        <time>2025-05-15T12:26:01.000Z</time>
      </trkpt>
      <trkpt lat="47.80443" lon="-2.60826">
        <ele>130.60000610352</ele>
        <time>2025-05-15T12:26:02.000Z</time>
      </trkpt>
      <trkpt lat="47.80444" lon="-2.6083">
        <ele>131</ele>
        <time>2025-05-15T12:26:03.000Z</time>
      </trkpt>
      <trkpt lat="47.80445" lon="-2.60833">
        <ele>131</ele>
        <time>2025-05-15T12:26:04.000Z</time>
      </trkpt>
      <trkpt lat="47.80445" lon="-2.60838">
        <ele>131.39999389648</ele>
        <time>2025-05-15T12:26:05.000Z</time>
      </trkpt>
      <trkpt lat="47.80445" lon="-2.60838">
        <ele>131.60000610352</ele>
        <time>2025-05-15T12:26:06.000Z</time>
      </trkpt>
      <trkpt lat="47.80445" lon="-2.6084">
        <ele>131.80000305176</ele>
        <time>2025-05-15T12:26:07.000Z</time>
      </trkpt>
      <trkpt lat="47.80445" lon="-2.60842">
        <ele>131.80000305176</ele>
        <time>2025-05-15T12:26:08.000Z</time>
      </trkpt>
      <trkpt lat="47.80445" lon="-2.60844">
        <ele>132</ele>
        <time>2025-05-15T12:26:09.000Z</time>
      </trkpt>
      <trkpt lat="47.80444" lon="-2.60849">
        <ele>132.19999694824</ele>
        <time>2025-05-15T12:26:11.000Z</time>
      </trkpt>
      <trkpt lat="47.80442" lon="-2.60852">
        <ele>132.39999389648</ele>
        <time>2025-05-15T12:26:12.000Z</time>
      </trkpt>
      <trkpt lat="47.80442" lon="-2.60854">
        <ele>132.39999389648</ele>
        <time>2025-05-15T12:26:13.000Z</time>
      </trkpt>
      <trkpt lat="47.80441" lon="-2.6086">
        <ele>132.39999389648</ele>
        <time>2025-05-15T12:26:15.000Z</time>
      </trkpt>
      <trkpt lat="47.80441" lon="-2.60863">
        <ele>132.39999389648</ele>
        <time>2025-05-15T12:26:16.000Z</time>
      </trkpt>
      <trkpt lat="47.8044" lon="-2.60867">
        <ele>132.39999389648</ele>
        <time>2025-05-15T12:26:17.000Z</time>
      </trkpt>
      <trkpt lat="47.8044" lon="-2.60873">
        <ele>132.39999389648</ele>
        <time>2025-05-15T12:26:19.000Z</time>
      </trkpt>
      <trkpt lat="47.80441" lon="-2.60876">
        <ele>132.39999389648</ele>
        <time>2025-05-15T12:26:20.000Z</time>
      </trkpt>
      <trkpt lat="47.80443" lon="-2.60883">
        <ele>132.39999389648</ele>
        <time>2025-05-15T12:26:21.000Z</time>
      </trkpt>
      <trkpt lat="47.80444" lon="-2.60889">
        <ele>132.39999389648</ele>
        <time>2025-05-15T12:26:22.000Z</time>
      </trkpt>
      <trkpt lat="47.80446" lon="-2.60898">
        <ele>132.39999389648</ele>
        <time>2025-05-15T12:26:24.000Z</time>
      </trkpt>
      <trkpt lat="47.80447" lon="-2.60901">
        <ele>132.39999389648</ele>
        <time>2025-05-15T12:26:25.000Z</time>
      </trkpt>
      <trkpt lat="47.80447" lon="-2.60907">
        <ele>132.19999694824</ele>
        <time>2025-05-15T12:26:26.000Z</time>
      </trkpt>
      <trkpt lat="47.80445" lon="-2.60912">
        <ele>132</ele>
        <time>2025-05-15T12:26:27.000Z</time>
      </trkpt>
      <trkpt lat="47.80444" lon="-2.6092">
        <ele>131.80000305176</ele>
        <time>2025-05-15T12:26:28.000Z</time>
      </trkpt>
      <trkpt lat="47.80444" lon="-2.60925">
        <ele>131.80000305176</ele>
        <time>2025-05-15T12:26:29.000Z</time>
      </trkpt>
      <trkpt lat="47.80444" lon="-2.60929">
        <ele>131.80000305176</ele>
        <time>2025-05-15T12:26:30.000Z</time>
      </trkpt>
      <trkpt lat="47.80442" lon="-2.60932">
        <ele>131.80000305176</ele>
        <time>2025-05-15T12:26:31.000Z</time>
      </trkpt>
      <trkpt lat="47.80439" lon="-2.60932">
        <ele>131.60000610352</ele>
        <time>2025-05-15T12:26:32.000Z</time>
      </trkpt>
      <trkpt lat="47.80435" lon="-2.60935">
        <ele>131.60000610352</ele>
        <time>2025-05-15T12:26:33.000Z</time>
      </trkpt>
      <trkpt lat="47.80435" lon="-2.60935">
        <ele>131.60000610352</ele>
        <time>2025-05-15T12:26:34.000Z</time>
      </trkpt>
      <trkpt lat="47.80434" lon="-2.60935">
        <ele>131.60000610352</ele>
        <time>2025-05-15T12:26:35.000Z</time>
      </trkpt>
      <trkpt lat="47.80434" lon="-2.60934">
        <ele>131.60000610352</ele>
        <time>2025-05-15T12:26:36.000Z</time>
      </trkpt>
      <trkpt lat="47.80434" lon="-2.60934">
        <ele>131.60000610352</ele>
        <time>2025-05-15T12:26:37.000Z</time>
      </trkpt>
      <trkpt lat="47.80433" lon="-2.60934">
        <ele>131.80000305176</ele>
        <time>2025-05-15T12:26:38.000Z</time>
      </trkpt>
      <trkpt lat="47.80433" lon="-2.60933">
        <ele>131.80000305176</ele>
        <time>2025-05-15T12:26:39.000Z</time>
      </trkpt>
      <trkpt lat="47.80432" lon="-2.60934">
        <ele>131.80000305176</ele>
        <time>2025-05-15T12:26:40.000Z</time>
      </trkpt>
      <trkpt lat="47.80429" lon="-2.60932">
        <ele>132.19999694824</ele>
        <time>2025-05-15T12:26:42.000Z</time>
      </trkpt>
      <trkpt lat="47.80428" lon="-2.60931">
        <ele>132.39999389648</ele>
        <time>2025-05-15T12:26:43.000Z</time>
      </trkpt>
      <trkpt lat="47.80427" lon="-2.60929">
        <ele>132.39999389648</ele>
        <time>2025-05-15T12:26:44.000Z</time>
      </trkpt>
      <trkpt lat="47.80427" lon="-2.60929">
        <ele>132.80000305176</ele>
        <time>2025-05-15T12:26:46.000Z</time>
      </trkpt>
      <trkpt lat="47.80426" lon="-2.60929">
        <ele>133</ele>
        <time>2025-05-15T12:26:47.000Z</time>
      </trkpt>
      <trkpt lat="47.80426" lon="-2.60929">
        <ele>133</ele>
        <time>2025-05-15T12:26:48.000Z</time>
      </trkpt>
      <trkpt lat="47.80426" lon="-2.60929">
        <ele>133.19999694824</ele>
        <time>2025-05-15T12:26:49.000Z</time>
      </trkpt>
      <trkpt lat="47.80425" lon="-2.60929">
        <ele>133.39999389648</ele>
        <time>2025-05-15T12:26:50.000Z</time>
      </trkpt>
      <trkpt lat="47.80425" lon="-2.60929">
        <ele>133.39999389648</ele>
        <time>2025-05-15T12:26:51.000Z</time>
      </trkpt>
      <trkpt lat="47.80424" lon="-2.60929">
        <ele>133.60000610352</ele>
        <time>2025-05-15T12:26:52.000Z</time>
      </trkpt>
      <trkpt lat="47.80419" lon="-2.60931">
        <ele>134</ele>
        <time>2025-05-15T12:26:55.000Z</time>
      </trkpt>
      <trkpt lat="47.80417" lon="-2.60932">
        <ele>134.39999389648</ele>
        <time>2025-05-15T12:26:56.000Z</time>
      </trkpt>
      <trkpt lat="47.80415" lon="-2.60934">
        <ele>134.19999694824</ele>
        <time>2025-05-15T12:26:57.000Z</time>
      </trkpt>
      <trkpt lat="47.80415" lon="-2.60935">
        <ele>134.19999694824</ele>
        <time>2025-05-15T12:26:58.000Z</time>
      </trkpt>
      <trkpt lat="47.80414" lon="-2.60935">
        <ele>134.39999389648</ele>
        <time>2025-05-15T12:26:59.000Z</time>
      </trkpt>
      <trkpt lat="47.80413" lon="-2.60939">
        <ele>134.60000610352</ele>
        <time>2025-05-15T12:27:01.000Z</time>
      </trkpt>
      <trkpt lat="47.80412" lon="-2.60941">
        <ele>134.80000305176</ele>
        <time>2025-05-15T12:27:02.000Z</time>
      </trkpt>
      <trkpt lat="47.80409" lon="-2.60943">
        <ele>134.80000305176</ele>
        <time>2025-05-15T12:27:03.000Z</time>
      </trkpt>
      <trkpt lat="47.80407" lon="-2.60946">
        <ele>135</ele>
        <time>2025-05-15T12:27:04.000Z</time>
      </trkpt>
      <trkpt lat="47.80404" lon="-2.60949">
        <ele>135</ele>
        <time>2025-05-15T12:27:05.000Z</time>
      </trkpt>
      <trkpt lat="47.80403" lon="-2.60951">
        <ele>135</ele>
        <time>2025-05-15T12:27:06.000Z</time>
      </trkpt>
      <trkpt lat="47.80402" lon="-2.60953">
        <ele>135.19999694824</ele>
        <time>2025-05-15T12:27:07.000Z</time>
      </trkpt>
      <trkpt lat="47.80398" lon="-2.60956">
        <ele>135.19999694824</ele>
        <time>2025-05-15T12:27:09.000Z</time>
      </trkpt>
      <trkpt lat="47.80397" lon="-2.60957">
        <ele>135.19999694824</ele>
        <time>2025-05-15T12:27:10.000Z</time>
      </trkpt>
      <trkpt lat="47.80395" lon="-2.60959">
        <ele>135.39999389648</ele>
        <time>2025-05-15T12:27:11.000Z</time>
      </trkpt>
      <trkpt lat="47.80393" lon="-2.6096">
        <ele>135.39999389648</ele>
        <time>2025-05-15T12:27:12.000Z</time>
      </trkpt>
      <trkpt lat="47.80392" lon="-2.60961">
        <ele>135.60000610352</ele>
        <time>2025-05-15T12:27:13.000Z</time>
      </trkpt>
      <trkpt lat="47.8039" lon="-2.60961">
        <ele>135.60000610352</ele>
        <time>2025-05-15T12:27:14.000Z</time>
      </trkpt>
      <trkpt lat="47.8039" lon="-2.60961">
        <ele>135.80000305176</ele>
        <time>2025-05-15T12:27:15.000Z</time>
      </trkpt>
      <trkpt lat="47.8039" lon="-2.60961">
        <ele>135.80000305176</ele>
        <time>2025-05-15T12:27:16.000Z</time>
      </trkpt>
      <trkpt lat="47.8039" lon="-2.60961">
        <ele>136</ele>
        <time>2025-05-15T12:27:17.000Z</time>
      </trkpt>
      <trkpt lat="47.80387" lon="-2.60961">
        <ele>136.39999389648</ele>
        <time>2025-05-15T12:27:18.000Z</time>
      </trkpt>
      <trkpt lat="47.80385" lon="-2.60961">
        <ele>136.60000610352</ele>
        <time>2025-05-15T12:27:19.000Z</time>
      </trkpt>
      <trkpt lat="47.80384" lon="-2.6096">
        <ele>136.80000305176</ele>
        <time>2025-05-15T12:27:20.000Z</time>
      </trkpt>
      <trkpt lat="47.80384" lon="-2.6096">
        <ele>137</ele>
        <time>2025-05-15T12:27:21.000Z</time>
      </trkpt>
      <trkpt lat="47.80384" lon="-2.6096">
        <ele>137.19999694824</ele>
        <time>2025-05-15T12:27:22.000Z</time>
      </trkpt>
      <trkpt lat="47.80383" lon="-2.60959">
        <ele>137.39999389648</ele>
        <time>2025-05-15T12:27:23.000Z</time>
      </trkpt>
      <trkpt lat="47.80381" lon="-2.60958">
        <ele>137.60000610352</ele>
        <time>2025-05-15T12:27:24.000Z</time>
      </trkpt>
      <trkpt lat="47.8038" lon="-2.60957">
        <ele>137.80000305176</ele>
        <time>2025-05-15T12:27:25.000Z</time>
      </trkpt>
      <trkpt lat="47.80379" lon="-2.60955">
        <ele>138</ele>
        <time>2025-05-15T12:27:26.000Z</time>
      </trkpt>
      <trkpt lat="47.80379" lon="-2.60953">
        <ele>138</ele>
        <time>2025-05-15T12:27:27.000Z</time>
      </trkpt>
      <trkpt lat="47.80378" lon="-2.60951">
        <ele>138</ele>
        <time>2025-05-15T12:27:28.000Z</time>
      </trkpt>
      <trkpt lat="47.80377" lon="-2.60947">
        <ele>138.19999694824</ele>
        <time>2025-05-15T12:27:29.000Z</time>
      </trkpt>
      <trkpt lat="47.80376" lon="-2.60944">
        <ele>138.19999694824</ele>
        <time>2025-05-15T12:27:30.000Z</time>
      </trkpt>
      <trkpt lat="47.80375" lon="-2.60941">
        <ele>138.19999694824</ele>
        <time>2025-05-15T12:27:31.000Z</time>
      </trkpt>
      <trkpt lat="47.80372" lon="-2.60938">
        <ele>138.39999389648</ele>
        <time>2025-05-15T12:27:32.000Z</time>
      </trkpt>
      <trkpt lat="47.80369" lon="-2.60934">
        <ele>138.39999389648</ele>
        <time>2025-05-15T12:27:33.000Z</time>
      </trkpt>
      <trkpt lat="47.80367" lon="-2.60931">
        <ele>138.39999389648</ele>
        <time>2025-05-15T12:27:34.000Z</time>
      </trkpt>
      <trkpt lat="47.80365" lon="-2.60928">
        <ele>138.39999389648</ele>
        <time>2025-05-15T12:27:35.000Z</time>
      </trkpt>
      <trkpt lat="47.80364" lon="-2.60926">
        <ele>138.39999389648</ele>
        <time>2025-05-15T12:27:36.000Z</time>
      </trkpt>
      <trkpt lat="47.80362" lon="-2.60925">
        <ele>138.39999389648</ele>
        <time>2025-05-15T12:27:37.000Z</time>
      </trkpt>
      <trkpt lat="47.80362" lon="-2.60925">
        <ele>138.39999389648</ele>
        <time>2025-05-15T12:27:38.000Z</time>
      </trkpt>
      <trkpt lat="47.80362" lon="-2.60925">
        <ele>138.60000610352</ele>
        <time>2025-05-15T12:27:39.000Z</time>
      </trkpt>
      <trkpt lat="47.80362" lon="-2.60925">
        <ele>138.80000305176</ele>
        <time>2025-05-15T12:27:40.000Z</time>
      </trkpt>
      <trkpt lat="47.80362" lon="-2.60925">
        <ele>138.80000305176</ele>
        <time>2025-05-15T12:27:41.000Z</time>
      </trkpt>
      <trkpt lat="47.80362" lon="-2.60926">
        <ele>139</ele>
        <time>2025-05-15T12:27:42.000Z</time>
      </trkpt>
      <trkpt lat="47.80362" lon="-2.60928">
        <ele>139</ele>
        <time>2025-05-15T12:27:43.000Z</time>
      </trkpt>
      <trkpt lat="47.80361" lon="-2.60929">
        <ele>139</ele>
        <time>2025-05-15T12:27:44.000Z</time>
      </trkpt>
      <trkpt lat="47.80355" lon="-2.60932">
        <ele>139</ele>
        <time>2025-05-15T12:27:48.000Z</time>
      </trkpt>
      <trkpt lat="47.80353" lon="-2.60931">
        <ele>139.19999694824</ele>
        <time>2025-05-15T12:27:50.000Z</time>
      </trkpt>
      <trkpt lat="47.80351" lon="-2.6093">
        <ele>139.80000305176</ele>
        <time>2025-05-15T12:27:52.000Z</time>
      </trkpt>
      <trkpt lat="47.80348" lon="-2.6093">
        <ele>140.19999694824</ele>
        <time>2025-05-15T12:27:54.000Z</time>
      </trkpt>
      <trkpt lat="47.80347" lon="-2.6093">
        <ele>140.39999389648</ele>
        <time>2025-05-15T12:27:55.000Z</time>
      </trkpt>
      <trkpt lat="47.80345" lon="-2.6093">
        <ele>140.60000610352</ele>
        <time>2025-05-15T12:27:56.000Z</time>
      </trkpt>
      <trkpt lat="47.80343" lon="-2.60931">
        <ele>140.60000610352</ele>
        <time>2025-05-15T12:27:57.000Z</time>
      </trkpt>
      <trkpt lat="47.80342" lon="-2.60933">
        <ele>140.80000305176</ele>
        <time>2025-05-15T12:27:58.000Z</time>
      </trkpt>
      <trkpt lat="47.80341" lon="-2.60935">
        <ele>141</ele>
        <time>2025-05-15T12:27:59.000Z</time>
      </trkpt>
      <trkpt lat="47.80341" lon="-2.60936">
        <ele>141.19999694824</ele>
        <time>2025-05-15T12:28:00.000Z</time>
      </trkpt>
      <trkpt lat="47.80341" lon="-2.60936">
        <ele>141.39999389648</ele>
        <time>2025-05-15T12:28:01.000Z</time>
      </trkpt>
      <trkpt lat="47.80341" lon="-2.60936">
        <ele>141.39999389648</ele>
        <time>2025-05-15T12:28:02.000Z</time>
      </trkpt>
      <trkpt lat="47.8034" lon="-2.60936">
        <ele>141.60000610352</ele>
        <time>2025-05-15T12:28:03.000Z</time>
      </trkpt>
      <trkpt lat="47.80339" lon="-2.60938">
        <ele>141.60000610352</ele>
        <time>2025-05-15T12:28:04.000Z</time>
      </trkpt>
      <trkpt lat="47.80338" lon="-2.60938">
        <ele>141.80000305176</ele>
        <time>2025-05-15T12:28:05.000Z</time>
      </trkpt>
      <trkpt lat="47.80338" lon="-2.60938">
        <ele>142</ele>
        <time>2025-05-15T12:28:06.000Z</time>
      </trkpt>
      <trkpt lat="47.80338" lon="-2.60938">
        <ele>142</ele>
        <time>2025-05-15T12:28:07.000Z</time>
      </trkpt>
      <trkpt lat="47.80337" lon="-2.60938">
        <ele>142</ele>
        <time>2025-05-15T12:28:08.000Z</time>
      </trkpt>
      <trkpt lat="47.80335" lon="-2.60939">
        <ele>142.19999694824</ele>
        <time>2025-05-15T12:28:09.000Z</time>
      </trkpt>
      <trkpt lat="47.80335" lon="-2.60939">
        <ele>142.19999694824</ele>
        <time>2025-05-15T12:28:10.000Z</time>
      </trkpt>
      <trkpt lat="47.80334" lon="-2.60939">
        <ele>142.39999389648</ele>
        <time>2025-05-15T12:28:11.000Z</time>
      </trkpt>
      <trkpt lat="47.80332" lon="-2.60941">
        <ele>142.39999389648</ele>
        <time>2025-05-15T12:28:12.000Z</time>
      </trkpt>
      <trkpt lat="47.8033" lon="-2.60943">
        <ele>142.60000610352</ele>
        <time>2025-05-15T12:28:13.000Z</time>
      </trkpt>
      <trkpt lat="47.80329" lon="-2.60945">
        <ele>142.60000610352</ele>
        <time>2025-05-15T12:28:14.000Z</time>
      </trkpt>
      <trkpt lat="47.80329" lon="-2.60945">
        <ele>142.80000305176</ele>
        <time>2025-05-15T12:28:15.000Z</time>
      </trkpt>
      <trkpt lat="47.80328" lon="-2.60946">
        <ele>142.80000305176</ele>
        <time>2025-05-15T12:28:16.000Z</time>
      </trkpt>
      <trkpt lat="47.80328" lon="-2.60947">
        <ele>142.80000305176</ele>
        <time>2025-05-15T12:28:17.000Z</time>
      </trkpt>
      <trkpt lat="47.80327" lon="-2.60947">
        <ele>142.80000305176</ele>
        <time>2025-05-15T12:28:18.000Z</time>
      </trkpt>
      <trkpt lat="47.80325" lon="-2.60949">
        <ele>143</ele>
        <time>2025-05-15T12:28:19.000Z</time>
      </trkpt>
      <trkpt lat="47.80322" lon="-2.6095">
        <ele>143</ele>
        <time>2025-05-15T12:28:20.000Z</time>
      </trkpt>
      <trkpt lat="47.80322" lon="-2.60949">
        <ele>143</ele>
        <time>2025-05-15T12:28:21.000Z</time>
      </trkpt>
      <trkpt lat="47.8032" lon="-2.6095">
        <ele>143</ele>
        <time>2025-05-15T12:28:22.000Z</time>
      </trkpt>
      <trkpt lat="47.8032" lon="-2.60949">
        <ele>143.19999694824</ele>
        <time>2025-05-15T12:28:23.000Z</time>
      </trkpt>
      <trkpt lat="47.80318" lon="-2.60951">
        <ele>143.19999694824</ele>
        <time>2025-05-15T12:28:24.000Z</time>
      </trkpt>
      <trkpt lat="47.80317" lon="-2.60952">
        <ele>143.39999389648</ele>
        <time>2025-05-15T12:28:25.000Z</time>
      </trkpt>
      <trkpt lat="47.80315" lon="-2.60954">
        <ele>143.39999389648</ele>
        <time>2025-05-15T12:28:26.000Z</time>
      </trkpt>
      <trkpt lat="47.80314" lon="-2.60953">
        <ele>143.39999389648</ele>
        <time>2025-05-15T12:28:27.000Z</time>
      </trkpt>
      <trkpt lat="47.80313" lon="-2.60954">
        <ele>143.60000610352</ele>
        <time>2025-05-15T12:28:28.000Z</time>
      </trkpt>
      <trkpt lat="47.80309" lon="-2.60954">
        <ele>144.19999694824</ele>
        <time>2025-05-15T12:28:32.000Z</time>
      </trkpt>
      <trkpt lat="47.80307" lon="-2.60953">
        <ele>144.19999694824</ele>
        <time>2025-05-15T12:28:33.000Z</time>
      </trkpt>
      <trkpt lat="47.80306" lon="-2.60951">
        <ele>144.39999389648</ele>
        <time>2025-05-15T12:28:34.000Z</time>
      </trkpt>
      <trkpt lat="47.80305" lon="-2.60949">
        <ele>144.39999389648</ele>
        <time>2025-05-15T12:28:35.000Z</time>
      </trkpt>
      <trkpt lat="47.80304" lon="-2.60947">
        <ele>144.39999389648</ele>
        <time>2025-05-15T12:28:36.000Z</time>
      </trkpt>
      <trkpt lat="47.80303" lon="-2.60945">
        <ele>144.39999389648</ele>
        <time>2025-05-15T12:28:37.000Z</time>
      </trkpt>
      <trkpt lat="47.80301" lon="-2.60944">
        <ele>144.39999389648</ele>
        <time>2025-05-15T12:28:38.000Z</time>
      </trkpt>
      <trkpt lat="47.80301" lon="-2.60943">
        <ele>144.39999389648</ele>
        <time>2025-05-15T12:28:39.000Z</time>
      </trkpt>
      <trkpt lat="47.80301" lon="-2.60943">
        <ele>144.39999389648</ele>
        <time>2025-05-15T12:28:40.000Z</time>
      </trkpt>
      <trkpt lat="47.80301" lon="-2.60943">
        <ele>144.39999389648</ele>
        <time>2025-05-15T12:28:41.000Z</time>
      </trkpt>
      <trkpt lat="47.80299" lon="-2.60942">
        <ele>144.19999694824</ele>
        <time>2025-05-15T12:28:42.000Z</time>
      </trkpt>
      <trkpt lat="47.80297" lon="-2.60941">
        <ele>144.19999694824</ele>
        <time>2025-05-15T12:28:43.000Z</time>
      </trkpt>
      <trkpt lat="47.80293" lon="-2.6094">
        <ele>144</ele>
        <time>2025-05-15T12:28:44.000Z</time>
      </trkpt>
      <trkpt lat="47.80288" lon="-2.60941">
        <ele>144</ele>
        <time>2025-05-15T12:28:46.000Z</time>
      </trkpt>
      <trkpt lat="47.80287" lon="-2.60941">
        <ele>144</ele>
        <time>2025-05-15T12:28:47.000Z</time>
      </trkpt>
      <trkpt lat="47.80285" lon="-2.60942">
        <ele>144</ele>
        <time>2025-05-15T12:28:48.000Z</time>
      </trkpt>
      <trkpt lat="47.80282" lon="-2.60944">
        <ele>144.19999694824</ele>
        <time>2025-05-15T12:28:49.000Z</time>
      </trkpt>
      <trkpt lat="47.8028" lon="-2.60945">
        <ele>144.19999694824</ele>
        <time>2025-05-15T12:28:50.000Z</time>
      </trkpt>
      <trkpt lat="47.80279" lon="-2.60945">
        <ele>144.19999694824</ele>
        <time>2025-05-15T12:28:51.000Z</time>
      </trkpt>
      <trkpt lat="47.80278" lon="-2.60945">
        <ele>144.19999694824</ele>
        <time>2025-05-15T12:28:52.000Z</time>
      </trkpt>
      <trkpt lat="47.80277" lon="-2.60945">
        <ele>144.19999694824</ele>
        <time>2025-05-15T12:28:53.000Z</time>
      </trkpt>
      <trkpt lat="47.80276" lon="-2.60945">
        <ele>144.19999694824</ele>
        <time>2025-05-15T12:28:54.000Z</time>
      </trkpt>
      <trkpt lat="47.80274" lon="-2.60946">
        <ele>144.19999694824</ele>
        <time>2025-05-15T12:28:55.000Z</time>
      </trkpt>
      <trkpt lat="47.80273" lon="-2.60946">
        <ele>144.19999694824</ele>
        <time>2025-05-15T12:28:56.000Z</time>
      </trkpt>
      <trkpt lat="47.80273" lon="-2.60947">
        <ele>144.19999694824</ele>
        <time>2025-05-15T12:28:57.000Z</time>
      </trkpt>
      <trkpt lat="47.80273" lon="-2.60947">
        <ele>144</ele>
        <time>2025-05-15T12:28:59.000Z</time>
      </trkpt>
      <trkpt lat="47.80268" lon="-2.60946">
        <ele>144</ele>
        <time>2025-05-15T12:29:04.000Z</time>
      </trkpt>
      <trkpt lat="47.80267" lon="-2.60945">
        <ele>144</ele>
        <time>2025-05-15T12:29:05.000Z</time>
      </trkpt>
      <trkpt lat="47.80267" lon="-2.60945">
        <ele>144</ele>
        <time>2025-05-15T12:29:06.000Z</time>
      </trkpt>
      <trkpt lat="47.80266" lon="-2.60944">
        <ele>143.60000610352</ele>
        <time>2025-05-15T12:29:09.000Z</time>
      </trkpt>
      <trkpt lat="47.80263" lon="-2.60942">
        <ele>143.39999389648</ele>
        <time>2025-05-15T12:29:10.000Z</time>
      </trkpt>
      <trkpt lat="47.80259" lon="-2.6094">
        <ele>143.19999694824</ele>
        <time>2025-05-15T12:29:11.000Z</time>
      </trkpt>
      <trkpt lat="47.80257" lon="-2.60936">
        <ele>143.19999694824</ele>
        <time>2025-05-15T12:29:13.000Z</time>
      </trkpt>
      <trkpt lat="47.80255" lon="-2.60935">
        <ele>143</ele>
        <time>2025-05-15T12:29:14.000Z</time>
      </trkpt>
      <trkpt lat="47.8025" lon="-2.60931">
        <ele>143</ele>
        <time>2025-05-15T12:29:16.000Z</time>
      </trkpt>
      <trkpt lat="47.80248" lon="-2.60929">
        <ele>143</ele>
        <time>2025-05-15T12:29:17.000Z</time>
      </trkpt>
      <trkpt lat="47.80246" lon="-2.60926">
        <ele>142.80000305176</ele>
        <time>2025-05-15T12:29:18.000Z</time>
      </trkpt>
      <trkpt lat="47.80242" lon="-2.60923">
        <ele>142.80000305176</ele>
        <time>2025-05-15T12:29:19.000Z</time>
      </trkpt>
      <trkpt lat="47.80239" lon="-2.60922">
        <ele>142.80000305176</ele>
        <time>2025-05-15T12:29:20.000Z</time>
      </trkpt>
      <trkpt lat="47.80236" lon="-2.60921">
        <ele>142.60000610352</ele>
        <time>2025-05-15T12:29:21.000Z</time>
      </trkpt>
      <trkpt lat="47.80234" lon="-2.60919">
        <ele>142.60000610352</ele>
        <time>2025-05-15T12:29:22.000Z</time>
      </trkpt>
      <trkpt lat="47.80226" lon="-2.60912">
        <ele>142.39999389648</ele>
        <time>2025-05-15T12:29:24.000Z</time>
      </trkpt>
      <trkpt lat="47.80224" lon="-2.60907">
        <ele>142.39999389648</ele>
        <time>2025-05-15T12:29:25.000Z</time>
      </trkpt>
      <trkpt lat="47.80221" lon="-2.60903">
        <ele>142</ele>
        <time>2025-05-15T12:29:26.000Z</time>
      </trkpt>
      <trkpt lat="47.80217" lon="-2.60901">
        <ele>141.80000305176</ele>
        <time>2025-05-15T12:29:27.000Z</time>
      </trkpt>
      <trkpt lat="47.80215" lon="-2.60897">
        <ele>141.60000610352</ele>
        <time>2025-05-15T12:29:28.000Z</time>
      </trkpt>
      <trkpt lat="47.80213" lon="-2.60894">
        <ele>141.60000610352</ele>
        <time>2025-05-15T12:29:29.000Z</time>
      </trkpt>
      <trkpt lat="47.80212" lon="-2.60893">
        <ele>141.39999389648</ele>
        <time>2025-05-15T12:29:30.000Z</time>
      </trkpt>
      <trkpt lat="47.8021" lon="-2.60892">
        <ele>141.19999694824</ele>
        <time>2025-05-15T12:29:31.000Z</time>
      </trkpt>
      <trkpt lat="47.80209" lon="-2.60892">
        <ele>140.60000610352</ele>
        <time>2025-05-15T12:29:32.000Z</time>
      </trkpt>
      <trkpt lat="47.80207" lon="-2.6089">
        <ele>140.39999389648</ele>
        <time>2025-05-15T12:29:33.000Z</time>
      </trkpt>
      <trkpt lat="47.80204" lon="-2.60888">
        <ele>140.19999694824</ele>
        <time>2025-05-15T12:29:34.000Z</time>
      </trkpt>
      <trkpt lat="47.80203" lon="-2.60888">
        <ele>140.19999694824</ele>
        <time>2025-05-15T12:29:35.000Z</time>
      </trkpt>
      <trkpt lat="47.80203" lon="-2.60888">
        <ele>140.19999694824</ele>
        <time>2025-05-15T12:29:36.000Z</time>
      </trkpt>
      <trkpt lat="47.80202" lon="-2.60888">
        <ele>140.19999694824</ele>
        <time>2025-05-15T12:29:37.000Z</time>
      </trkpt>
      <trkpt lat="47.80202" lon="-2.60889">
        <ele>140.19999694824</ele>
        <time>2025-05-15T12:29:40.000Z</time>
      </trkpt>
      <trkpt lat="47.80198" lon="-2.60888">
        <ele>140.19999694824</ele>
        <time>2025-05-15T12:29:43.000Z</time>
      </trkpt>
      <trkpt lat="47.80198" lon="-2.60887">
        <ele>140.19999694824</ele>
        <time>2025-05-15T12:29:44.000Z</time>
      </trkpt>
      <trkpt lat="47.80195" lon="-2.60885">
        <ele>139.80000305176</ele>
        <time>2025-05-15T12:29:46.000Z</time>
      </trkpt>
      <trkpt lat="47.80193" lon="-2.60883">
        <ele>139.80000305176</ele>
        <time>2025-05-15T12:29:47.000Z</time>
      </trkpt>
      <trkpt lat="47.80191" lon="-2.60881">
        <ele>139.60000610352</ele>
        <time>2025-05-15T12:29:48.000Z</time>
      </trkpt>
      <trkpt lat="47.80189" lon="-2.60878">
        <ele>139.39999389648</ele>
        <time>2025-05-15T12:29:49.000Z</time>
      </trkpt>
      <trkpt lat="47.80189" lon="-2.60876">
        <ele>139.39999389648</ele>
        <time>2025-05-15T12:29:50.000Z</time>
      </trkpt>
      <trkpt lat="47.8019" lon="-2.60876">
        <ele>139.19999694824</ele>
        <time>2025-05-15T12:29:51.000Z</time>
      </trkpt>
      <trkpt lat="47.8019" lon="-2.60876">
        <ele>139.19999694824</ele>
        <time>2025-05-15T12:29:52.000Z</time>
      </trkpt>
      <trkpt lat="47.80189" lon="-2.60875">
        <ele>139.19999694824</ele>
        <time>2025-05-15T12:29:54.000Z</time>
      </trkpt>
      <trkpt lat="47.80188" lon="-2.60873">
        <ele>139.19999694824</ele>
        <time>2025-05-15T12:29:55.000Z</time>
      </trkpt>
      <trkpt lat="47.80188" lon="-2.6087">
        <ele>139.19999694824</ele>
        <time>2025-05-15T12:29:57.000Z</time>
      </trkpt>
      <trkpt lat="47.80188" lon="-2.6087">
        <ele>139.19999694824</ele>
        <time>2025-05-15T12:29:58.000Z</time>
      </trkpt>
      <trkpt lat="47.80188" lon="-2.60869">
        <ele>139.19999694824</ele>
        <time>2025-05-15T12:29:59.000Z</time>
      </trkpt>
      <trkpt lat="47.80188" lon="-2.60868">
        <ele>139.19999694824</ele>
        <time>2025-05-15T12:30:00.000Z</time>
      </trkpt>
      <trkpt lat="47.80188" lon="-2.60867">
        <ele>139.19999694824</ele>
        <time>2025-05-15T12:30:02.000Z</time>
      </trkpt>
      <trkpt lat="47.80186" lon="-2.60865">
        <ele>139.19999694824</ele>
        <time>2025-05-15T12:30:04.000Z</time>
      </trkpt>
      <trkpt lat="47.80182" lon="-2.60861">
        <ele>139</ele>
        <time>2025-05-15T12:30:06.000Z</time>
      </trkpt>
      <trkpt lat="47.80179" lon="-2.60859">
        <ele>139</ele>
        <time>2025-05-15T12:30:07.000Z</time>
      </trkpt>
      <trkpt lat="47.80177" lon="-2.60859">
        <ele>138.39999389648</ele>
        <time>2025-05-15T12:30:08.000Z</time>
      </trkpt>
      <trkpt lat="47.80177" lon="-2.60859">
        <ele>138</ele>
        <time>2025-05-15T12:30:09.000Z</time>
      </trkpt>
      <trkpt lat="47.80177" lon="-2.60859">
        <ele>137.39999389648</ele>
        <time>2025-05-15T12:30:10.000Z</time>
      </trkpt>
      <trkpt lat="47.80176" lon="-2.60859">
        <ele>137</ele>
        <time>2025-05-15T12:30:11.000Z</time>
      </trkpt>
      <trkpt lat="47.80174" lon="-2.60861">
        <ele>136.39999389648</ele>
        <time>2025-05-15T12:30:13.000Z</time>
      </trkpt>
      <trkpt lat="47.80173" lon="-2.60862">
        <ele>136.19999694824</ele>
        <time>2025-05-15T12:30:14.000Z</time>
      </trkpt>
      <trkpt lat="47.80172" lon="-2.60864">
        <ele>135.80000305176</ele>
        <time>2025-05-15T12:30:15.000Z</time>
      </trkpt>
      <trkpt lat="47.80171" lon="-2.60867">
        <ele>135.80000305176</ele>
        <time>2025-05-15T12:30:16.000Z</time>
      </trkpt>
      <trkpt lat="47.80171" lon="-2.60868">
        <ele>135.80000305176</ele>
        <time>2025-05-15T12:30:17.000Z</time>
      </trkpt>
      <trkpt lat="47.80171" lon="-2.6087">
        <ele>135.60000610352</ele>
        <time>2025-05-15T12:30:18.000Z</time>
      </trkpt>
      <trkpt lat="47.80171" lon="-2.6087">
        <ele>135.80000305176</ele>
        <time>2025-05-15T12:30:19.000Z</time>
      </trkpt>
      <trkpt lat="47.80171" lon="-2.60873">
        <ele>135.60000610352</ele>
        <time>2025-05-15T12:30:21.000Z</time>
      </trkpt>
      <trkpt lat="47.80172" lon="-2.60875">
        <ele>135.80000305176</ele>
        <time>2025-05-15T12:30:22.000Z</time>
      </trkpt>
      <trkpt lat="47.80173" lon="-2.60876">
        <ele>135.80000305176</ele>
        <time>2025-05-15T12:30:23.000Z</time>
      </trkpt>
      <trkpt lat="47.80173" lon="-2.60877">
        <ele>135.80000305176</ele>
        <time>2025-05-15T12:30:24.000Z</time>
      </trkpt>
      <trkpt lat="47.80173" lon="-2.60879">
        <ele>135.80000305176</ele>
        <time>2025-05-15T12:30:25.000Z</time>
      </trkpt>
      <trkpt lat="47.80173" lon="-2.60881">
        <ele>136.19999694824</ele>
        <time>2025-05-15T12:30:26.000Z</time>
      </trkpt>
      <trkpt lat="47.80173" lon="-2.60881">
        <ele>136.39999389648</ele>
        <time>2025-05-15T12:30:27.000Z</time>
      </trkpt>
      <trkpt lat="47.80173" lon="-2.60882">
        <ele>137</ele>
        <time>2025-05-15T12:30:29.000Z</time>
      </trkpt>
      <trkpt lat="47.80172" lon="-2.60884">
        <ele>137.19999694824</ele>
        <time>2025-05-15T12:30:30.000Z</time>
      </trkpt>
      <trkpt lat="47.80171" lon="-2.60886">
        <ele>137.39999389648</ele>
        <time>2025-05-15T12:30:31.000Z</time>
      </trkpt>
      <trkpt lat="47.8017" lon="-2.60888">
        <ele>137.39999389648</ele>
        <time>2025-05-15T12:30:32.000Z</time>
      </trkpt>
      <trkpt lat="47.80171" lon="-2.6089">
        <ele>137.80000305176</ele>
        <time>2025-05-15T12:30:33.000Z</time>
      </trkpt>
      <trkpt lat="47.80171" lon="-2.60893">
        <ele>137.80000305176</ele>
        <time>2025-05-15T12:30:34.000Z</time>
      </trkpt>
      <trkpt lat="47.80172" lon="-2.60895">
        <ele>138</ele>
        <time>2025-05-15T12:30:35.000Z</time>
      </trkpt>
      <trkpt lat="47.80171" lon="-2.60901">
        <ele>138</ele>
        <time>2025-05-15T12:30:37.000Z</time>
      </trkpt>
      <trkpt lat="47.8017" lon="-2.60904">
        <ele>138.19999694824</ele>
        <time>2025-05-15T12:30:38.000Z</time>
      </trkpt>
      <trkpt lat="47.8017" lon="-2.60905">
        <ele>138.19999694824</ele>
        <time>2025-05-15T12:30:39.000Z</time>
      </trkpt>
      <trkpt lat="47.8017" lon="-2.60908">
        <ele>138.19999694824</ele>
        <time>2025-05-15T12:30:40.000Z</time>
      </trkpt>
      <trkpt lat="47.80171" lon="-2.60914">
        <ele>138.39999389648</ele>
        <time>2025-05-15T12:30:42.000Z</time>
      </trkpt>
      <trkpt lat="47.80171" lon="-2.60917">
        <ele>138.60000610352</ele>
        <time>2025-05-15T12:30:43.000Z</time>
      </trkpt>
      <trkpt lat="47.80171" lon="-2.60919">
        <ele>138.60000610352</ele>
        <time>2025-05-15T12:30:44.000Z</time>
      </trkpt>
      <trkpt lat="47.80172" lon="-2.60928">
        <ele>139</ele>
        <time>2025-05-15T12:30:47.000Z</time>
      </trkpt>
      <trkpt lat="47.80172" lon="-2.60929">
        <ele>139</ele>
        <time>2025-05-15T12:30:48.000Z</time>
      </trkpt>
      <trkpt lat="47.80172" lon="-2.6093">
        <ele>139.19999694824</ele>
        <time>2025-05-15T12:30:49.000Z</time>
      </trkpt>
      <trkpt lat="47.80172" lon="-2.60932">
        <ele>139.39999389648</ele>
        <time>2025-05-15T12:30:50.000Z</time>
      </trkpt>
      <trkpt lat="47.80173" lon="-2.60934">
        <ele>139.39999389648</ele>
        <time>2025-05-15T12:30:51.000Z</time>
      </trkpt>
      <trkpt lat="47.80174" lon="-2.60936">
        <ele>139.60000610352</ele>
        <time>2025-05-15T12:30:52.000Z</time>
      </trkpt>
      <trkpt lat="47.80175" lon="-2.60938">
        <ele>139.80000305176</ele>
        <time>2025-05-15T12:30:53.000Z</time>
      </trkpt>
      <trkpt lat="47.80175" lon="-2.60939">
        <ele>139.80000305176</ele>
        <time>2025-05-15T12:30:54.000Z</time>
      </trkpt>
      <trkpt lat="47.80175" lon="-2.6094">
        <ele>140</ele>
        <time>2025-05-15T12:30:55.000Z</time>
      </trkpt>
      <trkpt lat="47.80176" lon="-2.60942">
        <ele>140</ele>
        <time>2025-05-15T12:30:56.000Z</time>
      </trkpt>
      <trkpt lat="47.80176" lon="-2.60942">
        <ele>140</ele>
        <time>2025-05-15T12:30:57.000Z</time>
      </trkpt>
      <trkpt lat="47.80176" lon="-2.60942">
        <ele>140.19999694824</ele>
        <time>2025-05-15T12:30:58.000Z</time>
      </trkpt>
      <trkpt lat="47.80176" lon="-2.60942">
        <ele>140.19999694824</ele>
        <time>2025-05-15T12:30:59.000Z</time>
      </trkpt>
      <trkpt lat="47.80176" lon="-2.60942">
        <ele>140.19999694824</ele>
        <time>2025-05-15T12:31:00.000Z</time>
      </trkpt>
      <trkpt lat="47.80176" lon="-2.60942">
        <ele>140.19999694824</ele>
        <time>2025-05-15T12:31:01.000Z</time>
      </trkpt>
      <trkpt lat="47.80176" lon="-2.60942">
        <ele>140.39999389648</ele>
        <time>2025-05-15T12:31:02.000Z</time>
      </trkpt>
      <trkpt lat="47.80176" lon="-2.60942">
        <ele>140.39999389648</ele>
        <time>2025-05-15T12:31:03.000Z</time>
      </trkpt>
      <trkpt lat="47.80176" lon="-2.60942">
        <ele>140.39999389648</ele>
        <time>2025-05-15T12:31:04.000Z</time>
      </trkpt>
      <trkpt lat="47.80176" lon="-2.60942">
        <ele>140.39999389648</ele>
        <time>2025-05-15T12:31:05.000Z</time>
      </trkpt>
      <trkpt lat="47.80176" lon="-2.60942">
        <ele>140.60000610352</ele>
        <time>2025-05-15T12:31:06.000Z</time>
      </trkpt>
      <trkpt lat="47.80178" lon="-2.60947">
        <ele>140.60000610352</ele>
        <time>2025-05-15T12:31:07.000Z</time>
      </trkpt>
      <trkpt lat="47.80178" lon="-2.60953">
        <ele>140.60000610352</ele>
        <time>2025-05-15T12:31:10.000Z</time>
      </trkpt>
      <trkpt lat="47.80179" lon="-2.60956">
        <ele>140.60000610352</ele>
        <time>2025-05-15T12:31:11.000Z</time>
      </trkpt>
      <trkpt lat="47.80181" lon="-2.60971">
        <ele>140.80000305176</ele>
        <time>2025-05-15T12:31:14.000Z</time>
      </trkpt>
      <trkpt lat="47.80182" lon="-2.60976">
        <ele>140.80000305176</ele>
        <time>2025-05-15T12:31:15.000Z</time>
      </trkpt>
      <trkpt lat="47.80182" lon="-2.6098">
        <ele>141</ele>
        <time>2025-05-15T12:31:16.000Z</time>
      </trkpt>
      <trkpt lat="47.80182" lon="-2.60986">
        <ele>141.19999694824</ele>
        <time>2025-05-15T12:31:17.000Z</time>
      </trkpt>
      <trkpt lat="47.80181" lon="-2.60992">
        <ele>141</ele>
        <time>2025-05-15T12:31:18.000Z</time>
      </trkpt>
      <trkpt lat="47.80182" lon="-2.60997">
        <ele>141</ele>
        <time>2025-05-15T12:31:19.000Z</time>
      </trkpt>
      <trkpt lat="47.80184" lon="-2.61003">
        <ele>141.19999694824</ele>
        <time>2025-05-15T12:31:21.000Z</time>
      </trkpt>
      <trkpt lat="47.80185" lon="-2.61006">
        <ele>141.39999389648</ele>
        <time>2025-05-15T12:31:22.000Z</time>
      </trkpt>
      <trkpt lat="47.80187" lon="-2.6101">
        <ele>141.39999389648</ele>
        <time>2025-05-15T12:31:23.000Z</time>
      </trkpt>
      <trkpt lat="47.80191" lon="-2.61021">
        <ele>141.60000610352</ele>
        <time>2025-05-15T12:31:25.000Z</time>
      </trkpt>
      <trkpt lat="47.80194" lon="-2.61027">
        <ele>141.80000305176</ele>
        <time>2025-05-15T12:31:26.000Z</time>
      </trkpt>
      <trkpt lat="47.80195" lon="-2.61031">
        <ele>141.80000305176</ele>
        <time>2025-05-15T12:31:27.000Z</time>
      </trkpt>
      <trkpt lat="47.80195" lon="-2.61034">
        <ele>142</ele>
        <time>2025-05-15T12:31:28.000Z</time>
      </trkpt>
      <trkpt lat="47.80194" lon="-2.6104">
        <ele>142</ele>
        <time>2025-05-15T12:31:29.000Z</time>
      </trkpt>
      <trkpt lat="47.80194" lon="-2.61042">
        <ele>142.19999694824</ele>
        <time>2025-05-15T12:31:30.000Z</time>
      </trkpt>
      <trkpt lat="47.80195" lon="-2.61046">
        <ele>142.19999694824</ele>
        <time>2025-05-15T12:31:31.000Z</time>
      </trkpt>
      <trkpt lat="47.80195" lon="-2.6105">
        <ele>142.19999694824</ele>
        <time>2025-05-15T12:31:32.000Z</time>
      </trkpt>
      <trkpt lat="47.80197" lon="-2.61065">
        <ele>142.39999389648</ele>
        <time>2025-05-15T12:31:36.000Z</time>
      </trkpt>
      <trkpt lat="47.80197" lon="-2.61065">
        <ele>142.39999389648</ele>
        <time>2025-05-15T12:31:37.000Z</time>
      </trkpt>
      <trkpt lat="47.80198" lon="-2.61066">
        <ele>142.39999389648</ele>
        <time>2025-05-15T12:31:39.000Z</time>
      </trkpt>
      <trkpt lat="47.80202" lon="-2.61074">
        <ele>142.19999694824</ele>
        <time>2025-05-15T12:31:41.000Z</time>
      </trkpt>
      <trkpt lat="47.80204" lon="-2.61079">
        <ele>142</ele>
        <time>2025-05-15T12:31:42.000Z</time>
      </trkpt>
      <trkpt lat="47.80206" lon="-2.61082">
        <ele>142</ele>
        <time>2025-05-15T12:31:43.000Z</time>
      </trkpt>
      <trkpt lat="47.80208" lon="-2.61088">
        <ele>142</ele>
        <time>2025-05-15T12:31:45.000Z</time>
      </trkpt>
      <trkpt lat="47.80208" lon="-2.61092">
        <ele>142</ele>
        <time>2025-05-15T12:31:46.000Z</time>
      </trkpt>
      <trkpt lat="47.80208" lon="-2.61095">
        <ele>142</ele>
        <time>2025-05-15T12:31:47.000Z</time>
      </trkpt>
      <trkpt lat="47.80207" lon="-2.61101">
        <ele>142</ele>
        <time>2025-05-15T12:31:49.000Z</time>
      </trkpt>
      <trkpt lat="47.80209" lon="-2.6111">
        <ele>141.80000305176</ele>
        <time>2025-05-15T12:31:51.000Z</time>
      </trkpt>
      <trkpt lat="47.8021" lon="-2.61118">
        <ele>141.60000610352</ele>
        <time>2025-05-15T12:31:53.000Z</time>
      </trkpt>
      <trkpt lat="47.80212" lon="-2.6113">
        <ele>141.19999694824</ele>
        <time>2025-05-15T12:31:55.000Z</time>
      </trkpt>
      <trkpt lat="47.80212" lon="-2.61136">
        <ele>141.19999694824</ele>
        <time>2025-05-15T12:31:56.000Z</time>
      </trkpt>
      <trkpt lat="47.80212" lon="-2.61143">
        <ele>141.19999694824</ele>
        <time>2025-05-15T12:31:57.000Z</time>
      </trkpt>
      <trkpt lat="47.80212" lon="-2.61148">
        <ele>141</ele>
        <time>2025-05-15T12:31:58.000Z</time>
      </trkpt>
      <trkpt lat="47.80212" lon="-2.61153">
        <ele>141</ele>
        <time>2025-05-15T12:31:59.000Z</time>
      </trkpt>
      <trkpt lat="47.80212" lon="-2.61158">
        <ele>141</ele>
        <time>2025-05-15T12:32:00.000Z</time>
      </trkpt>
      <trkpt lat="47.80213" lon="-2.61163">
        <ele>140.80000305176</ele>
        <time>2025-05-15T12:32:01.000Z</time>
      </trkpt>
      <trkpt lat="47.80213" lon="-2.61168">
        <ele>140.60000610352</ele>
        <time>2025-05-15T12:32:02.000Z</time>
      </trkpt>
      <trkpt lat="47.80212" lon="-2.61172">
        <ele>140.19999694824</ele>
        <time>2025-05-15T12:32:03.000Z</time>
      </trkpt>
      <trkpt lat="47.80212" lon="-2.61176">
        <ele>140</ele>
        <time>2025-05-15T12:32:04.000Z</time>
      </trkpt>
      <trkpt lat="47.80212" lon="-2.6118">
        <ele>139.80000305176</ele>
        <time>2025-05-15T12:32:05.000Z</time>
      </trkpt>
      <trkpt lat="47.80218" lon="-2.61195">
        <ele>139.39999389648</ele>
        <time>2025-05-15T12:32:07.000Z</time>
      </trkpt>
      <trkpt lat="47.80218" lon="-2.61201">
        <ele>139.39999389648</ele>
        <time>2025-05-15T12:32:08.000Z</time>
      </trkpt>
      <trkpt lat="47.80218" lon="-2.61206">
        <ele>138.80000305176</ele>
        <time>2025-05-15T12:32:09.000Z</time>
      </trkpt>
      <trkpt lat="47.80217" lon="-2.61211">
        <ele>138.39999389648</ele>
        <time>2025-05-15T12:32:10.000Z</time>
      </trkpt>
      <trkpt lat="47.80223" lon="-2.61231">
        <ele>138</ele>
        <time>2025-05-15T12:32:12.000Z</time>
      </trkpt>
      <trkpt lat="47.8022" lon="-2.6124">
        <ele>137.80000305176</ele>
        <time>2025-05-15T12:32:13.000Z</time>
      </trkpt>
      <trkpt lat="47.80211" lon="-2.61257">
        <ele>137.19999694824</ele>
        <time>2025-05-15T12:32:16.000Z</time>
      </trkpt>
      <trkpt lat="47.80207" lon="-2.61262">
        <ele>137.19999694824</ele>
        <time>2025-05-15T12:32:17.000Z</time>
      </trkpt>
      <trkpt lat="47.80203" lon="-2.61268">
        <ele>137</ele>
        <time>2025-05-15T12:32:18.000Z</time>
      </trkpt>
      <trkpt lat="47.80199" lon="-2.61276">
        <ele>136.80000305176</ele>
        <time>2025-05-15T12:32:19.000Z</time>
      </trkpt>
      <trkpt lat="47.80194" lon="-2.61293">
        <ele>136.39999389648</ele>
        <time>2025-05-15T12:32:21.000Z</time>
      </trkpt>
      <trkpt lat="47.80179" lon="-2.6132">
        <ele>136.39999389648</ele>
        <time>2025-05-15T12:32:23.000Z</time>
      </trkpt>
      <trkpt lat="47.8017" lon="-2.6133">
        <ele>136.39999389648</ele>
        <time>2025-05-15T12:32:24.000Z</time>
      </trkpt>
      <trkpt lat="47.80155" lon="-2.61347">
        <ele>136</ele>
        <time>2025-05-15T12:32:26.000Z</time>
      </trkpt>
      <trkpt lat="47.80147" lon="-2.61352">
        <ele>135.39999389648</ele>
        <time>2025-05-15T12:32:27.000Z</time>
      </trkpt>
      <trkpt lat="47.80138" lon="-2.61367">
        <ele>134.80000305176</ele>
        <time>2025-05-15T12:32:28.000Z</time>
      </trkpt>
      <trkpt lat="47.80125" lon="-2.61387">
        <ele>134.19999694824</ele>
        <time>2025-05-15T12:32:30.000Z</time>
      </trkpt>
      <trkpt lat="47.80115" lon="-2.614">
        <ele>134</ele>
        <time>2025-05-15T12:32:32.000Z</time>
      </trkpt>
      <trkpt lat="47.8011" lon="-2.61408">
        <ele>133.80000305176</ele>
        <time>2025-05-15T12:32:33.000Z</time>
      </trkpt>
      <trkpt lat="47.80103" lon="-2.61419">
        <ele>133.60000610352</ele>
        <time>2025-05-15T12:32:34.000Z</time>
      </trkpt>
      <trkpt lat="47.80097" lon="-2.61429">
        <ele>133.39999389648</ele>
        <time>2025-05-15T12:32:35.000Z</time>
      </trkpt>
      <trkpt lat="47.80089" lon="-2.61448">
        <ele>132.80000305176</ele>
        <time>2025-05-15T12:32:37.000Z</time>
      </trkpt>
      <trkpt lat="47.80085" lon="-2.61454">
        <ele>132.60000610352</ele>
        <time>2025-05-15T12:32:38.000Z</time>
      </trkpt>
      <trkpt lat="47.8008" lon="-2.61461">
        <ele>132.19999694824</ele>
        <time>2025-05-15T12:32:39.000Z</time>
      </trkpt>
      <trkpt lat="47.80076" lon="-2.61468">
        <ele>132.19999694824</ele>
        <time>2025-05-15T12:32:40.000Z</time>
      </trkpt>
      <trkpt lat="47.80073" lon="-2.61472">
        <ele>132</ele>
        <time>2025-05-15T12:32:41.000Z</time>
      </trkpt>
      <trkpt lat="47.80069" lon="-2.61479">
        <ele>132</ele>
        <time>2025-05-15T12:32:42.000Z</time>
      </trkpt>
      <trkpt lat="47.80065" lon="-2.61484">
        <ele>132.19999694824</ele>
        <time>2025-05-15T12:32:43.000Z</time>
      </trkpt>
      <trkpt lat="47.80063" lon="-2.61487">
        <ele>132</ele>
        <time>2025-05-15T12:32:44.000Z</time>
      </trkpt>
      <trkpt lat="47.8006" lon="-2.61491">
        <ele>132</ele>
        <time>2025-05-15T12:32:45.000Z</time>
      </trkpt>
      <trkpt lat="47.80057" lon="-2.61496">
        <ele>132</ele>
        <time>2025-05-15T12:32:46.000Z</time>
      </trkpt>
      <trkpt lat="47.80052" lon="-2.61501">
        <ele>132</ele>
        <time>2025-05-15T12:32:47.000Z</time>
      </trkpt>
      <trkpt lat="47.8005" lon="-2.61506">
        <ele>132</ele>
        <time>2025-05-15T12:32:48.000Z</time>
      </trkpt>
      <trkpt lat="47.80045" lon="-2.61519">
        <ele>132</ele>
        <time>2025-05-15T12:32:49.000Z</time>
      </trkpt>
      <trkpt lat="47.80041" lon="-2.61528">
        <ele>132</ele>
        <time>2025-05-15T12:32:51.000Z</time>
      </trkpt>
      <trkpt lat="47.80037" lon="-2.61533">
        <ele>132.19999694824</ele>
        <time>2025-05-15T12:32:52.000Z</time>
      </trkpt>
      <trkpt lat="47.80033" lon="-2.61537">
        <ele>132.19999694824</ele>
        <time>2025-05-15T12:32:53.000Z</time>
      </trkpt>
      <trkpt lat="47.80032" lon="-2.6154">
        <ele>132.19999694824</ele>
        <time>2025-05-15T12:32:54.000Z</time>
      </trkpt>
      <trkpt lat="47.80028" lon="-2.61548">
        <ele>132.19999694824</ele>
        <time>2025-05-15T12:32:55.000Z</time>
      </trkpt>
      <trkpt lat="47.80025" lon="-2.61554">
        <ele>132.19999694824</ele>
        <time>2025-05-15T12:32:56.000Z</time>
      </trkpt>
      <trkpt lat="47.80019" lon="-2.61562">
        <ele>132</ele>
        <time>2025-05-15T12:32:57.000Z</time>
      </trkpt>
      <trkpt lat="47.80013" lon="-2.61568">
        <ele>132</ele>
        <time>2025-05-15T12:32:58.000Z</time>
      </trkpt>
      <trkpt lat="47.80011" lon="-2.6157">
        <ele>132.19999694824</ele>
        <time>2025-05-15T12:32:59.000Z</time>
      </trkpt>
      <trkpt lat="47.80009" lon="-2.61572">
        <ele>132.19999694824</ele>
        <time>2025-05-15T12:33:00.000Z</time>
      </trkpt>
      <trkpt lat="47.80009" lon="-2.61574">
        <ele>132.19999694824</ele>
        <time>2025-05-15T12:33:01.000Z</time>
      </trkpt>
      <trkpt lat="47.80008" lon="-2.61577">
        <ele>132.19999694824</ele>
        <time>2025-05-15T12:33:02.000Z</time>
      </trkpt>
      <trkpt lat="47.80008" lon="-2.61578">
        <ele>132.19999694824</ele>
        <time>2025-05-15T12:33:03.000Z</time>
      </trkpt>
      <trkpt lat="47.80007" lon="-2.61578">
        <ele>133</ele>
        <time>2025-05-15T12:33:10.000Z</time>
      </trkpt>
      <trkpt lat="47.80005" lon="-2.61583">
        <ele>133</ele>
        <time>2025-05-15T12:33:14.000Z</time>
      </trkpt>
      <trkpt lat="47.80005" lon="-2.61584">
        <ele>132.80000305176</ele>
        <time>2025-05-15T12:33:15.000Z</time>
      </trkpt>
      <trkpt lat="47.80003" lon="-2.61585">
        <ele>132.39999389648</ele>
        <time>2025-05-15T12:33:18.000Z</time>
      </trkpt>
      <trkpt lat="47.80003" lon="-2.61586">
        <ele>132.39999389648</ele>
        <time>2025-05-15T12:33:20.000Z</time>
      </trkpt>
      <trkpt lat="47.80003" lon="-2.61589">
        <ele>132.39999389648</ele>
        <time>2025-05-15T12:33:21.000Z</time>
      </trkpt>
      <trkpt lat="47.80003" lon="-2.61592">
        <ele>132.39999389648</ele>
        <time>2025-05-15T12:33:22.000Z</time>
      </trkpt>
      <trkpt lat="47.80003" lon="-2.61596">
        <ele>132.39999389648</ele>
        <time>2025-05-15T12:33:23.000Z</time>
      </trkpt>
      <trkpt lat="47.8" lon="-2.61604">
        <ele>132.19999694824</ele>
        <time>2025-05-15T12:33:25.000Z</time>
      </trkpt>
      <trkpt lat="47.79999" lon="-2.61607">
        <ele>132.19999694824</ele>
        <time>2025-05-15T12:33:26.000Z</time>
      </trkpt>
      <trkpt lat="47.79998" lon="-2.61614">
        <ele>132.39999389648</ele>
        <time>2025-05-15T12:33:28.000Z</time>
      </trkpt>
      <trkpt lat="47.79995" lon="-2.61626">
        <ele>132.60000610352</ele>
        <time>2025-05-15T12:33:30.000Z</time>
      </trkpt>
      <trkpt lat="47.7999" lon="-2.61649">
        <ele>132.39999389648</ele>
        <time>2025-05-15T12:33:34.000Z</time>
      </trkpt>
      <trkpt lat="47.79991" lon="-2.61667">
        <ele>132.39999389648</ele>
        <time>2025-05-15T12:33:37.000Z</time>
      </trkpt>
      <trkpt lat="47.79986" lon="-2.61689">
        <ele>132.39999389648</ele>
        <time>2025-05-15T12:33:40.000Z</time>
      </trkpt>
      <trkpt lat="47.79988" lon="-2.61696">
        <ele>132.39999389648</ele>
        <time>2025-05-15T12:33:41.000Z</time>
      </trkpt>
      <trkpt lat="47.7999" lon="-2.617">
        <ele>132.19999694824</ele>
        <time>2025-05-15T12:33:42.000Z</time>
      </trkpt>
      <trkpt lat="47.79991" lon="-2.61702">
        <ele>132.19999694824</ele>
        <time>2025-05-15T12:33:43.000Z</time>
      </trkpt>
      <trkpt lat="47.79992" lon="-2.61705">
        <ele>132.39999389648</ele>
        <time>2025-05-15T12:33:44.000Z</time>
      </trkpt>
      <trkpt lat="47.79992" lon="-2.61708">
        <ele>132.19999694824</ele>
        <time>2025-05-15T12:33:45.000Z</time>
      </trkpt>
      <trkpt lat="47.79993" lon="-2.61717">
        <ele>132.19999694824</ele>
        <time>2025-05-15T12:33:46.000Z</time>
      </trkpt>
      <trkpt lat="47.80001" lon="-2.61736">
        <ele>132.19999694824</ele>
        <time>2025-05-15T12:33:51.000Z</time>
      </trkpt>
      <trkpt lat="47.80002" lon="-2.61741">
        <ele>132.19999694824</ele>
        <time>2025-05-15T12:33:52.000Z</time>
      </trkpt>
      <trkpt lat="47.79997" lon="-2.61745">
        <ele>132.19999694824</ele>
        <time>2025-05-15T12:33:53.000Z</time>
      </trkpt>
      <trkpt lat="47.79996" lon="-2.61752">
        <ele>132.19999694824</ele>
        <time>2025-05-15T12:33:54.000Z</time>
      </trkpt>
      <trkpt lat="47.79998" lon="-2.61757">
        <ele>132.19999694824</ele>
        <time>2025-05-15T12:33:55.000Z</time>
      </trkpt>
      <trkpt lat="47.79996" lon="-2.61763">
        <ele>132.19999694824</ele>
        <time>2025-05-15T12:33:56.000Z</time>
      </trkpt>
      <trkpt lat="47.79997" lon="-2.61768">
        <ele>132.19999694824</ele>
        <time>2025-05-15T12:33:57.000Z</time>
      </trkpt>
      <trkpt lat="47.79996" lon="-2.61777">
        <ele>132.19999694824</ele>
        <time>2025-05-15T12:33:58.000Z</time>
      </trkpt>
      <trkpt lat="47.79996" lon="-2.6178">
        <ele>132.19999694824</ele>
        <time>2025-05-15T12:33:59.000Z</time>
      </trkpt>
      <trkpt lat="47.79993" lon="-2.61784">
        <ele>132.39999389648</ele>
        <time>2025-05-15T12:34:00.000Z</time>
      </trkpt>
      <trkpt lat="47.7999" lon="-2.61788">
        <ele>132.39999389648</ele>
        <time>2025-05-15T12:34:01.000Z</time>
      </trkpt>
      <trkpt lat="47.79988" lon="-2.61793">
        <ele>132.39999389648</ele>
        <time>2025-05-15T12:34:02.000Z</time>
      </trkpt>
      <trkpt lat="47.79988" lon="-2.61796">
        <ele>132.39999389648</ele>
        <time>2025-05-15T12:34:03.000Z</time>
      </trkpt>
      <trkpt lat="47.79986" lon="-2.61798">
        <ele>132.60000610352</ele>
        <time>2025-05-15T12:34:04.000Z</time>
      </trkpt>
      <trkpt lat="47.79986" lon="-2.61799">
        <ele>132.60000610352</ele>
        <time>2025-05-15T12:34:05.000Z</time>
      </trkpt>
      <trkpt lat="47.79985" lon="-2.61802">
        <ele>132.80000305176</ele>
        <time>2025-05-15T12:34:06.000Z</time>
      </trkpt>
      <trkpt lat="47.79984" lon="-2.61806">
        <ele>133</ele>
        <time>2025-05-15T12:34:07.000Z</time>
      </trkpt>
      <trkpt lat="47.79984" lon="-2.61812">
        <ele>133</ele>
        <time>2025-05-15T12:34:08.000Z</time>
      </trkpt>
      <trkpt lat="47.79987" lon="-2.61821">
        <ele>133.19999694824</ele>
        <time>2025-05-15T12:34:11.000Z</time>
      </trkpt>
      <trkpt lat="47.79987" lon="-2.61821">
        <ele>133.39999389648</ele>
        <time>2025-05-15T12:34:12.000Z</time>
      </trkpt>
      <trkpt lat="47.79988" lon="-2.61822">
        <ele>133.39999389648</ele>
        <time>2025-05-15T12:34:13.000Z</time>
      </trkpt>
      <trkpt lat="47.79988" lon="-2.61824">
        <ele>133.39999389648</ele>
        <time>2025-05-15T12:34:14.000Z</time>
      </trkpt>
      <trkpt lat="47.79989" lon="-2.61827">
        <ele>133.39999389648</ele>
        <time>2025-05-15T12:34:15.000Z</time>
      </trkpt>
      <trkpt lat="47.79991" lon="-2.61829">
        <ele>133.60000610352</ele>
        <time>2025-05-15T12:34:16.000Z</time>
      </trkpt>
      <trkpt lat="47.79993" lon="-2.61832">
        <ele>133.60000610352</ele>
        <time>2025-05-15T12:34:18.000Z</time>
      </trkpt>
      <trkpt lat="47.79993" lon="-2.61832">
        <ele>133.80000305176</ele>
        <time>2025-05-15T12:34:19.000Z</time>
      </trkpt>
      <trkpt lat="47.79996" lon="-2.61834">
        <ele>133.60000610352</ele>
        <time>2025-05-15T12:34:20.000Z</time>
      </trkpt>
      <trkpt lat="47.8" lon="-2.61835">
        <ele>133.60000610352</ele>
        <time>2025-05-15T12:34:22.000Z</time>
      </trkpt>
      <trkpt lat="47.80003" lon="-2.61836">
        <ele>133.60000610352</ele>
        <time>2025-05-15T12:34:23.000Z</time>
      </trkpt>
      <trkpt lat="47.80006" lon="-2.61836">
        <ele>133.39999389648</ele>
        <time>2025-05-15T12:34:24.000Z</time>
      </trkpt>
      <trkpt lat="47.80008" lon="-2.61837">
        <ele>133.39999389648</ele>
        <time>2025-05-15T12:34:25.000Z</time>
      </trkpt>
      <trkpt lat="47.8001" lon="-2.61838">
        <ele>133</ele>
        <time>2025-05-15T12:34:26.000Z</time>
      </trkpt>
      <trkpt lat="47.80011" lon="-2.61839">
        <ele>132.80000305176</ele>
        <time>2025-05-15T12:34:27.000Z</time>
      </trkpt>
      <trkpt lat="47.80016" lon="-2.6184">
        <ele>132.19999694824</ele>
        <time>2025-05-15T12:34:29.000Z</time>
      </trkpt>
      <trkpt lat="47.80019" lon="-2.6184">
        <ele>131.80000305176</ele>
        <time>2025-05-15T12:34:30.000Z</time>
      </trkpt>
      <trkpt lat="47.80023" lon="-2.61841">
        <ele>131.60000610352</ele>
        <time>2025-05-15T12:34:31.000Z</time>
      </trkpt>
      <trkpt lat="47.80033" lon="-2.61845">
        <ele>130.60000610352</ele>
        <time>2025-05-15T12:34:33.000Z</time>
      </trkpt>
      <trkpt lat="47.80039" lon="-2.61848">
        <ele>129.80000305176</ele>
        <time>2025-05-15T12:34:35.000Z</time>
      </trkpt>
      <trkpt lat="47.80043" lon="-2.6185">
        <ele>129.39999389648</ele>
        <time>2025-05-15T12:34:36.000Z</time>
      </trkpt>
      <trkpt lat="47.80047" lon="-2.61853">
        <ele>129.19999694824</ele>
        <time>2025-05-15T12:34:37.000Z</time>
      </trkpt>
      <trkpt lat="47.80054" lon="-2.61858">
        <ele>128.39999389648</ele>
        <time>2025-05-15T12:34:38.000Z</time>
      </trkpt>
      <trkpt lat="47.80059" lon="-2.61863">
        <ele>128.19999694824</ele>
        <time>2025-05-15T12:34:39.000Z</time>
      </trkpt>
      <trkpt lat="47.80064" lon="-2.61872">
        <ele>127.59999847412</ele>
        <time>2025-05-15T12:34:41.000Z</time>
      </trkpt>
      <trkpt lat="47.80073" lon="-2.61881">
        <ele>127.19999694824</ele>
        <time>2025-05-15T12:34:43.000Z</time>
      </trkpt>
      <trkpt lat="47.80077" lon="-2.61886">
        <ele>127</ele>
        <time>2025-05-15T12:34:44.000Z</time>
      </trkpt>
      <trkpt lat="47.80084" lon="-2.61892">
        <ele>126.80000305176</ele>
        <time>2025-05-15T12:34:45.000Z</time>
      </trkpt>
      <trkpt lat="47.80086" lon="-2.61896">
        <ele>126.59999847412</ele>
        <time>2025-05-15T12:34:46.000Z</time>
      </trkpt>
      <trkpt lat="47.80089" lon="-2.619">
        <ele>126.40000152588</ele>
        <time>2025-05-15T12:34:47.000Z</time>
      </trkpt>
      <trkpt lat="47.80094" lon="-2.61909">
        <ele>126.40000152588</ele>
        <time>2025-05-15T12:34:49.000Z</time>
      </trkpt>
      <trkpt lat="47.80102" lon="-2.61917">
        <ele>126.40000152588</ele>
        <time>2025-05-15T12:34:50.000Z</time>
      </trkpt>
      <trkpt lat="47.80107" lon="-2.61923">
        <ele>126.19999694824</ele>
        <time>2025-05-15T12:34:51.000Z</time>
      </trkpt>
      <trkpt lat="47.80109" lon="-2.61928">
        <ele>126</ele>
        <time>2025-05-15T12:34:52.000Z</time>
      </trkpt>
      <trkpt lat="47.80112" lon="-2.61932">
        <ele>125.59999847412</ele>
        <time>2025-05-15T12:34:53.000Z</time>
      </trkpt>
      <trkpt lat="47.80126" lon="-2.6195">
        <ele>124.80000305176</ele>
        <time>2025-05-15T12:34:56.000Z</time>
      </trkpt>
      <trkpt lat="47.80127" lon="-2.61956">
        <ele>124.80000305176</ele>
        <time>2025-05-15T12:34:57.000Z</time>
      </trkpt>
      <trkpt lat="47.80128" lon="-2.61963">
        <ele>124.59999847412</ele>
        <time>2025-05-15T12:34:58.000Z</time>
      </trkpt>
      <trkpt lat="47.8013" lon="-2.61968">
        <ele>124.40000152588</ele>
        <time>2025-05-15T12:34:59.000Z</time>
      </trkpt>
      <trkpt lat="47.8013" lon="-2.61974">
        <ele>124.19999694824</ele>
        <time>2025-05-15T12:35:00.000Z</time>
      </trkpt>
      <trkpt lat="47.80136" lon="-2.61987">
        <ele>124</ele>
        <time>2025-05-15T12:35:03.000Z</time>
      </trkpt>
      <trkpt lat="47.80142" lon="-2.61994">
        <ele>123.80000305176</ele>
        <time>2025-05-15T12:35:04.000Z</time>
      </trkpt>
      <trkpt lat="47.80145" lon="-2.61997">
        <ele>123.59999847412</ele>
        <time>2025-05-15T12:35:05.000Z</time>
      </trkpt>
      <trkpt lat="47.80153" lon="-2.62006">
        <ele>123</ele>
        <time>2025-05-15T12:35:07.000Z</time>
      </trkpt>
      <trkpt lat="47.80159" lon="-2.62009">
        <ele>122.80000305176</ele>
        <time>2025-05-15T12:35:08.000Z</time>
      </trkpt>
      <trkpt lat="47.80162" lon="-2.62013">
        <ele>122.40000152588</ele>
        <time>2025-05-15T12:35:09.000Z</time>
      </trkpt>
      <trkpt lat="47.80163" lon="-2.62018">
        <ele>122</ele>
        <time>2025-05-15T12:35:10.000Z</time>
      </trkpt>
      <trkpt lat="47.80162" lon="-2.62022">
        <ele>121.19999694824</ele>
        <time>2025-05-15T12:35:11.000Z</time>
      </trkpt>
      <trkpt lat="47.80163" lon="-2.62026">
        <ele>121</ele>
        <time>2025-05-15T12:35:12.000Z</time>
      </trkpt>
      <trkpt lat="47.80166" lon="-2.62035">
        <ele>120.40000152588</ele>
        <time>2025-05-15T12:35:13.000Z</time>
      </trkpt>
      <trkpt lat="47.80169" lon="-2.62041">
        <ele>120</ele>
        <time>2025-05-15T12:35:14.000Z</time>
      </trkpt>
      <trkpt lat="47.8017" lon="-2.62047">
        <ele>119.59999847412</ele>
        <time>2025-05-15T12:35:15.000Z</time>
      </trkpt>
      <trkpt lat="47.80171" lon="-2.62053">
        <ele>119.40000152588</ele>
        <time>2025-05-15T12:35:16.000Z</time>
      </trkpt>
      <trkpt lat="47.80175" lon="-2.62057">
        <ele>119.19999694824</ele>
        <time>2025-05-15T12:35:17.000Z</time>
      </trkpt>
      <trkpt lat="47.80174" lon="-2.62058">
        <ele>119</ele>
        <time>2025-05-15T12:35:18.000Z</time>
      </trkpt>
      <trkpt lat="47.80177" lon="-2.62062">
        <ele>118.80000305176</ele>
        <time>2025-05-15T12:35:19.000Z</time>
      </trkpt>
      <trkpt lat="47.80179" lon="-2.62065">
        <ele>118.59999847412</ele>
        <time>2025-05-15T12:35:20.000Z</time>
      </trkpt>
      <trkpt lat="47.80181" lon="-2.62067">
        <ele>118.59999847412</ele>
        <time>2025-05-15T12:35:21.000Z</time>
      </trkpt>
      <trkpt lat="47.80181" lon="-2.62071">
        <ele>118.19999694824</ele>
        <time>2025-05-15T12:35:22.000Z</time>
      </trkpt>
      <trkpt lat="47.8018" lon="-2.62075">
        <ele>118</ele>
        <time>2025-05-15T12:35:23.000Z</time>
      </trkpt>
      <trkpt lat="47.80181" lon="-2.62078">
        <ele>118</ele>
        <time>2025-05-15T12:35:24.000Z</time>
      </trkpt>
      <trkpt lat="47.8018" lon="-2.62081">
        <ele>117.40000152588</ele>
        <time>2025-05-15T12:35:25.000Z</time>
      </trkpt>
      <trkpt lat="47.80179" lon="-2.62084">
        <ele>117.19999694824</ele>
        <time>2025-05-15T12:35:26.000Z</time>
      </trkpt>
      <trkpt lat="47.80178" lon="-2.62089">
        <ele>117</ele>
        <time>2025-05-15T12:35:27.000Z</time>
      </trkpt>
      <trkpt lat="47.80175" lon="-2.62094">
        <ele>116.80000305176</ele>
        <time>2025-05-15T12:35:28.000Z</time>
      </trkpt>
      <trkpt lat="47.80172" lon="-2.62097">
        <ele>116.59999847412</ele>
        <time>2025-05-15T12:35:29.000Z</time>
      </trkpt>
      <trkpt lat="47.8017" lon="-2.62101">
        <ele>116.59999847412</ele>
        <time>2025-05-15T12:35:30.000Z</time>
      </trkpt>
      <trkpt lat="47.80171" lon="-2.62106">
        <ele>116.40000152588</ele>
        <time>2025-05-15T12:35:31.000Z</time>
      </trkpt>
      <trkpt lat="47.8017" lon="-2.6211">
        <ele>116.19999694824</ele>
        <time>2025-05-15T12:35:32.000Z</time>
      </trkpt>
      <trkpt lat="47.80169" lon="-2.62112">
        <ele>116</ele>
        <time>2025-05-15T12:35:33.000Z</time>
      </trkpt>
      <trkpt lat="47.80168" lon="-2.62115">
        <ele>116</ele>
        <time>2025-05-15T12:35:34.000Z</time>
      </trkpt>
      <trkpt lat="47.80169" lon="-2.6212">
        <ele>116</ele>
        <time>2025-05-15T12:35:35.000Z</time>
      </trkpt>
      <trkpt lat="47.80168" lon="-2.62123">
        <ele>115.80000305176</ele>
        <time>2025-05-15T12:35:36.000Z</time>
      </trkpt>
      <trkpt lat="47.80168" lon="-2.62127">
        <ele>115.80000305176</ele>
        <time>2025-05-15T12:35:37.000Z</time>
      </trkpt>
      <trkpt lat="47.80166" lon="-2.62129">
        <ele>115.80000305176</ele>
        <time>2025-05-15T12:35:38.000Z</time>
      </trkpt>
      <trkpt lat="47.80166" lon="-2.6213">
        <ele>115.80000305176</ele>
        <time>2025-05-15T12:35:39.000Z</time>
      </trkpt>
      <trkpt lat="47.80165" lon="-2.62131">
        <ele>115.80000305176</ele>
        <time>2025-05-15T12:35:40.000Z</time>
      </trkpt>
      <trkpt lat="47.80165" lon="-2.62133">
        <ele>116</ele>
        <time>2025-05-15T12:35:41.000Z</time>
      </trkpt>
      <trkpt lat="47.80165" lon="-2.62136">
        <ele>116.19999694824</ele>
        <time>2025-05-15T12:35:44.000Z</time>
      </trkpt>
      <trkpt lat="47.80165" lon="-2.62138">
        <ele>116.19999694824</ele>
        <time>2025-05-15T12:35:45.000Z</time>
      </trkpt>
      <trkpt lat="47.80164" lon="-2.62141">
        <ele>116.19999694824</ele>
        <time>2025-05-15T12:35:46.000Z</time>
      </trkpt>
      <trkpt lat="47.80162" lon="-2.62146">
        <ele>116.40000152588</ele>
        <time>2025-05-15T12:35:48.000Z</time>
      </trkpt>
      <trkpt lat="47.80157" lon="-2.62157">
        <ele>116.40000152588</ele>
        <time>2025-05-15T12:35:51.000Z</time>
      </trkpt>
      <trkpt lat="47.80154" lon="-2.62166">
        <ele>116.40000152588</ele>
        <time>2025-05-15T12:35:53.000Z</time>
      </trkpt>
      <trkpt lat="47.80154" lon="-2.62169">
        <ele>116.40000152588</ele>
        <time>2025-05-15T12:35:54.000Z</time>
      </trkpt>
      <trkpt lat="47.80154" lon="-2.62174">
        <ele>116.40000152588</ele>
        <time>2025-05-15T12:35:55.000Z</time>
      </trkpt>
      <trkpt lat="47.80153" lon="-2.62179">
        <ele>116.40000152588</ele>
        <time>2025-05-15T12:35:56.000Z</time>
      </trkpt>
      <trkpt lat="47.80153" lon="-2.62184">
        <ele>116.40000152588</ele>
        <time>2025-05-15T12:35:57.000Z</time>
      </trkpt>
      <trkpt lat="47.80154" lon="-2.62187">
        <ele>116.19999694824</ele>
        <time>2025-05-15T12:35:58.000Z</time>
      </trkpt>
      <trkpt lat="47.80153" lon="-2.62187">
        <ele>116</ele>
        <time>2025-05-15T12:35:59.000Z</time>
      </trkpt>
      <trkpt lat="47.80153" lon="-2.62188">
        <ele>116</ele>
        <time>2025-05-15T12:36:00.000Z</time>
      </trkpt>
      <trkpt lat="47.80153" lon="-2.62187">
        <ele>115.80000305176</ele>
        <time>2025-05-15T12:36:01.000Z</time>
      </trkpt>
      <trkpt lat="47.80153" lon="-2.62188">
        <ele>115.59999847412</ele>
        <time>2025-05-15T12:36:02.000Z</time>
      </trkpt>
      <trkpt lat="47.80152" lon="-2.6219">
        <ele>115.59999847412</ele>
        <time>2025-05-15T12:36:03.000Z</time>
      </trkpt>
      <trkpt lat="47.80151" lon="-2.62193">
        <ele>115.40000152588</ele>
        <time>2025-05-15T12:36:04.000Z</time>
      </trkpt>
      <trkpt lat="47.80151" lon="-2.62195">
        <ele>115.40000152588</ele>
        <time>2025-05-15T12:36:05.000Z</time>
      </trkpt>
      <trkpt lat="47.8015" lon="-2.62199">
        <ele>115.40000152588</ele>
        <time>2025-05-15T12:36:06.000Z</time>
      </trkpt>
      <trkpt lat="47.80148" lon="-2.62203">
        <ele>115.40000152588</ele>
        <time>2025-05-15T12:36:07.000Z</time>
      </trkpt>
      <trkpt lat="47.80146" lon="-2.62205">
        <ele>115.19999694824</ele>
        <time>2025-05-15T12:36:08.000Z</time>
      </trkpt>
      <trkpt lat="47.80146" lon="-2.62206">
        <ele>115.19999694824</ele>
        <time>2025-05-15T12:36:09.000Z</time>
      </trkpt>
      <trkpt lat="47.80146" lon="-2.62206">
        <ele>115</ele>
        <time>2025-05-15T12:36:10.000Z</time>
      </trkpt>
      <trkpt lat="47.80145" lon="-2.62207">
        <ele>115</ele>
        <time>2025-05-15T12:36:11.000Z</time>
      </trkpt>
      <trkpt lat="47.80145" lon="-2.62211">
        <ele>114.80000305176</ele>
        <time>2025-05-15T12:36:12.000Z</time>
      </trkpt>
      <trkpt lat="47.80145" lon="-2.62215">
        <ele>114.80000305176</ele>
        <time>2025-05-15T12:36:13.000Z</time>
      </trkpt>
      <trkpt lat="47.80145" lon="-2.62216">
        <ele>114.80000305176</ele>
        <time>2025-05-15T12:36:14.000Z</time>
      </trkpt>
      <trkpt lat="47.80145" lon="-2.62216">
        <ele>114.80000305176</ele>
        <time>2025-05-15T12:36:15.000Z</time>
      </trkpt>
      <trkpt lat="47.80145" lon="-2.62217">
        <ele>114.59999847412</ele>
        <time>2025-05-15T12:36:16.000Z</time>
      </trkpt>
      <trkpt lat="47.80144" lon="-2.62223">
        <ele>114.19999694824</ele>
        <time>2025-05-15T12:36:19.000Z</time>
      </trkpt>
      <trkpt lat="47.80143" lon="-2.62227">
        <ele>114.19999694824</ele>
        <time>2025-05-15T12:36:21.000Z</time>
      </trkpt>
      <trkpt lat="47.80143" lon="-2.6223">
        <ele>114.19999694824</ele>
        <time>2025-05-15T12:36:22.000Z</time>
      </trkpt>
      <trkpt lat="47.80142" lon="-2.62232">
        <ele>114.19999694824</ele>
        <time>2025-05-15T12:36:23.000Z</time>
      </trkpt>
      <trkpt lat="47.80139" lon="-2.62242">
        <ele>114.19999694824</ele>
        <time>2025-05-15T12:36:26.000Z</time>
      </trkpt>
      <trkpt lat="47.80139" lon="-2.62242">
        <ele>114.19999694824</ele>
        <time>2025-05-15T12:36:27.000Z</time>
      </trkpt>
      <trkpt lat="47.80138" lon="-2.62244">
        <ele>114.59999847412</ele>
        <time>2025-05-15T12:36:28.000Z</time>
      </trkpt>
      <trkpt lat="47.80138" lon="-2.62246">
        <ele>114.80000305176</ele>
        <time>2025-05-15T12:36:29.000Z</time>
      </trkpt>
      <trkpt lat="47.80137" lon="-2.62246">
        <ele>115.19999694824</ele>
        <time>2025-05-15T12:36:30.000Z</time>
      </trkpt>
      <trkpt lat="47.80137" lon="-2.62248">
        <ele>115.19999694824</ele>
        <time>2025-05-15T12:36:31.000Z</time>
      </trkpt>
      <trkpt lat="47.80137" lon="-2.6225">
        <ele>115.40000152588</ele>
        <time>2025-05-15T12:36:32.000Z</time>
      </trkpt>
      <trkpt lat="47.80137" lon="-2.62253">
        <ele>115.80000305176</ele>
        <time>2025-05-15T12:36:33.000Z</time>
      </trkpt>
      <trkpt lat="47.80137" lon="-2.62253">
        <ele>116</ele>
        <time>2025-05-15T12:36:34.000Z</time>
      </trkpt>
      <trkpt lat="47.80137" lon="-2.62253">
        <ele>116.40000152588</ele>
        <time>2025-05-15T12:36:35.000Z</time>
      </trkpt>
      <trkpt lat="47.80137" lon="-2.62257">
        <ele>118</ele>
        <time>2025-05-15T12:36:46.000Z</time>
      </trkpt>
      <trkpt lat="47.80137" lon="-2.62259">
        <ele>118</ele>
        <time>2025-05-15T12:36:47.000Z</time>
      </trkpt>
      <trkpt lat="47.80137" lon="-2.62259">
        <ele>118</ele>
        <time>2025-05-15T12:36:48.000Z</time>
      </trkpt>
      <trkpt lat="47.80137" lon="-2.62259">
        <ele>118</ele>
        <time>2025-05-15T12:36:49.000Z</time>
      </trkpt>
      <trkpt lat="47.80137" lon="-2.62259">
        <ele>118</ele>
        <time>2025-05-15T12:36:50.000Z</time>
      </trkpt>
      <trkpt lat="47.80137" lon="-2.62259">
        <ele>118.19999694824</ele>
        <time>2025-05-15T12:36:51.000Z</time>
      </trkpt>
      <trkpt lat="47.80137" lon="-2.62259">
        <ele>118.19999694824</ele>
        <time>2025-05-15T12:36:52.000Z</time>
      </trkpt>
      <trkpt lat="47.80137" lon="-2.62261">
        <ele>118.19999694824</ele>
        <time>2025-05-15T12:36:53.000Z</time>
      </trkpt>
      <trkpt lat="47.80135" lon="-2.62263">
        <ele>118.19999694824</ele>
        <time>2025-05-15T12:36:54.000Z</time>
      </trkpt>
      <trkpt lat="47.80133" lon="-2.62265">
        <ele>118.19999694824</ele>
        <time>2025-05-15T12:36:55.000Z</time>
      </trkpt>
      <trkpt lat="47.80132" lon="-2.62266">
        <ele>118.19999694824</ele>
        <time>2025-05-15T12:36:56.000Z</time>
      </trkpt>
      <trkpt lat="47.80132" lon="-2.62266">
        <ele>118.40000152588</ele>
        <time>2025-05-15T12:36:57.000Z</time>
      </trkpt>
      <trkpt lat="47.80132" lon="-2.62266">
        <ele>118.40000152588</ele>
        <time>2025-05-15T12:36:58.000Z</time>
      </trkpt>
      <trkpt lat="47.80131" lon="-2.62269">
        <ele>118.80000305176</ele>
        <time>2025-05-15T12:37:01.000Z</time>
      </trkpt>
      <trkpt lat="47.80131" lon="-2.6227">
        <ele>118.80000305176</ele>
        <time>2025-05-15T12:37:02.000Z</time>
      </trkpt>
      <trkpt lat="47.8013" lon="-2.62271">
        <ele>118.80000305176</ele>
        <time>2025-05-15T12:37:03.000Z</time>
      </trkpt>
      <trkpt lat="47.8013" lon="-2.62274">
        <ele>119</ele>
        <time>2025-05-15T12:37:04.000Z</time>
      </trkpt>
      <trkpt lat="47.80129" lon="-2.62278">
        <ele>119</ele>
        <time>2025-05-15T12:37:05.000Z</time>
      </trkpt>
      <trkpt lat="47.80129" lon="-2.62279">
        <ele>119.19999694824</ele>
        <time>2025-05-15T12:37:06.000Z</time>
      </trkpt>
      <trkpt lat="47.80129" lon="-2.62281">
        <ele>119.19999694824</ele>
        <time>2025-05-15T12:37:07.000Z</time>
      </trkpt>
      <trkpt lat="47.80129" lon="-2.62284">
        <ele>119.40000152588</ele>
        <time>2025-05-15T12:37:08.000Z</time>
      </trkpt>
      <trkpt lat="47.80128" lon="-2.62287">
        <ele>119.59999847412</ele>
        <time>2025-05-15T12:37:09.000Z</time>
      </trkpt>
      <trkpt lat="47.80125" lon="-2.62292">
        <ele>119.80000305176</ele>
        <time>2025-05-15T12:37:10.000Z</time>
      </trkpt>
      <trkpt lat="47.80123" lon="-2.62295">
        <ele>120</ele>
        <time>2025-05-15T12:37:12.000Z</time>
      </trkpt>
      <trkpt lat="47.80122" lon="-2.62298">
        <ele>120.40000152588</ele>
        <time>2025-05-15T12:37:14.000Z</time>
      </trkpt>
      <trkpt lat="47.80119" lon="-2.62306">
        <ele>121</ele>
        <time>2025-05-15T12:37:19.000Z</time>
      </trkpt>
      <trkpt lat="47.80118" lon="-2.62309">
        <ele>121</ele>
        <time>2025-05-15T12:37:20.000Z</time>
      </trkpt>
      <trkpt lat="47.80118" lon="-2.62311">
        <ele>121</ele>
        <time>2025-05-15T12:37:21.000Z</time>
      </trkpt>
      <trkpt lat="47.80118" lon="-2.62311">
        <ele>121.19999694824</ele>
        <time>2025-05-15T12:37:22.000Z</time>
      </trkpt>
      <trkpt lat="47.80118" lon="-2.62311">
        <ele>121.40000152588</ele>
        <time>2025-05-15T12:37:23.000Z</time>
      </trkpt>
      <trkpt lat="47.80118" lon="-2.62311">
        <ele>121.59999847412</ele>
        <time>2025-05-15T12:37:24.000Z</time>
      </trkpt>
      <trkpt lat="47.80116" lon="-2.62316">
        <ele>121.80000305176</ele>
        <time>2025-05-15T12:37:25.000Z</time>
      </trkpt>
      <trkpt lat="47.80116" lon="-2.62316">
        <ele>121.80000305176</ele>
        <time>2025-05-15T12:37:26.000Z</time>
      </trkpt>
      <trkpt lat="47.80115" lon="-2.62318">
        <ele>122</ele>
        <time>2025-05-15T12:37:27.000Z</time>
      </trkpt>
      <trkpt lat="47.80113" lon="-2.6232">
        <ele>122</ele>
        <time>2025-05-15T12:37:28.000Z</time>
      </trkpt>
      <trkpt lat="47.80112" lon="-2.6232">
        <ele>122</ele>
        <time>2025-05-15T12:37:29.000Z</time>
      </trkpt>
      <trkpt lat="47.8011" lon="-2.62322">
        <ele>122.19999694824</ele>
        <time>2025-05-15T12:37:30.000Z</time>
      </trkpt>
      <trkpt lat="47.80108" lon="-2.62326">
        <ele>122.19999694824</ele>
        <time>2025-05-15T12:37:31.000Z</time>
      </trkpt>
      <trkpt lat="47.80106" lon="-2.62327">
        <ele>122.40000152588</ele>
        <time>2025-05-15T12:37:32.000Z</time>
      </trkpt>
      <trkpt lat="47.80106" lon="-2.62328">
        <ele>122.59999847412</ele>
        <time>2025-05-15T12:37:33.000Z</time>
      </trkpt>
      <trkpt lat="47.80106" lon="-2.62328">
        <ele>122.59999847412</ele>
        <time>2025-05-15T12:37:34.000Z</time>
      </trkpt>
      <trkpt lat="47.80103" lon="-2.62331">
        <ele>123</ele>
        <time>2025-05-15T12:37:35.000Z</time>
      </trkpt>
      <trkpt lat="47.801" lon="-2.62335">
        <ele>123</ele>
        <time>2025-05-15T12:37:36.000Z</time>
      </trkpt>
      <trkpt lat="47.801" lon="-2.62335">
        <ele>123.19999694824</ele>
        <time>2025-05-15T12:37:37.000Z</time>
      </trkpt>
      <trkpt lat="47.801" lon="-2.62335">
        <ele>123.40000152588</ele>
        <time>2025-05-15T12:37:38.000Z</time>
      </trkpt>
      <trkpt lat="47.801" lon="-2.62335">
        <ele>123.59999847412</ele>
        <time>2025-05-15T12:37:39.000Z</time>
      </trkpt>
      <trkpt lat="47.801" lon="-2.62335">
        <ele>123.59999847412</ele>
        <time>2025-05-15T12:37:40.000Z</time>
      </trkpt>
      <trkpt lat="47.801" lon="-2.62335">
        <ele>123.59999847412</ele>
        <time>2025-05-15T12:37:41.000Z</time>
      </trkpt>
      <trkpt lat="47.801" lon="-2.62335">
        <ele>123.80000305176</ele>
        <time>2025-05-15T12:37:42.000Z</time>
      </trkpt>
      <trkpt lat="47.801" lon="-2.62335">
        <ele>123.80000305176</ele>
        <time>2025-05-15T12:37:43.000Z</time>
      </trkpt>
      <trkpt lat="47.80098" lon="-2.62337">
        <ele>124</ele>
        <time>2025-05-15T12:37:44.000Z</time>
      </trkpt>
      <trkpt lat="47.80097" lon="-2.62337">
        <ele>124</ele>
        <time>2025-05-15T12:37:45.000Z</time>
      </trkpt>
      <trkpt lat="47.80097" lon="-2.62337">
        <ele>124</ele>
        <time>2025-05-15T12:37:46.000Z</time>
      </trkpt>
      <trkpt lat="47.80097" lon="-2.62337">
        <ele>124.19999694824</ele>
        <time>2025-05-15T12:37:47.000Z</time>
      </trkpt>
      <trkpt lat="47.80093" lon="-2.62343">
        <ele>124.19999694824</ele>
        <time>2025-05-15T12:37:48.000Z</time>
      </trkpt>
      <trkpt lat="47.80089" lon="-2.62349">
        <ele>124.40000152588</ele>
        <time>2025-05-15T12:37:49.000Z</time>
      </trkpt>
      <trkpt lat="47.80087" lon="-2.62351">
        <ele>124.40000152588</ele>
        <time>2025-05-15T12:37:50.000Z</time>
      </trkpt>
      <trkpt lat="47.80087" lon="-2.62351">
        <ele>124.59999847412</ele>
        <time>2025-05-15T12:37:51.000Z</time>
      </trkpt>
      <trkpt lat="47.80087" lon="-2.62351">
        <ele>124.80000305176</ele>
        <time>2025-05-15T12:37:52.000Z</time>
      </trkpt>
      <trkpt lat="47.80087" lon="-2.62351">
        <ele>125</ele>
        <time>2025-05-15T12:37:53.000Z</time>
      </trkpt>
      <trkpt lat="47.80087" lon="-2.62351">
        <ele>125.19999694824</ele>
        <time>2025-05-15T12:37:54.000Z</time>
      </trkpt>
      <trkpt lat="47.80087" lon="-2.62351">
        <ele>125.40000152588</ele>
        <time>2025-05-15T12:37:55.000Z</time>
      </trkpt>
      <trkpt lat="47.80087" lon="-2.62351">
        <ele>125.40000152588</ele>
        <time>2025-05-15T12:37:56.000Z</time>
      </trkpt>
      <trkpt lat="47.80085" lon="-2.62352">
        <ele>125.59999847412</ele>
        <time>2025-05-15T12:37:57.000Z</time>
      </trkpt>
      <trkpt lat="47.80083" lon="-2.62355">
        <ele>125.80000305176</ele>
        <time>2025-05-15T12:37:58.000Z</time>
      </trkpt>
      <trkpt lat="47.8008" lon="-2.62359">
        <ele>125.80000305176</ele>
        <time>2025-05-15T12:37:59.000Z</time>
      </trkpt>
      <trkpt lat="47.80078" lon="-2.62362">
        <ele>126</ele>
        <time>2025-05-15T12:38:00.000Z</time>
      </trkpt>
      <trkpt lat="47.80077" lon="-2.62364">
        <ele>126</ele>
        <time>2025-05-15T12:38:01.000Z</time>
      </trkpt>
      <trkpt lat="47.80075" lon="-2.62367">
        <ele>126</ele>
        <time>2025-05-15T12:38:02.000Z</time>
      </trkpt>
      <trkpt lat="47.80073" lon="-2.6237">
        <ele>126</ele>
        <time>2025-05-15T12:38:03.000Z</time>
      </trkpt>
      <trkpt lat="47.80069" lon="-2.62374">
        <ele>126.19999694824</ele>
        <time>2025-05-15T12:38:04.000Z</time>
      </trkpt>
      <trkpt lat="47.80065" lon="-2.62378">
        <ele>126.19999694824</ele>
        <time>2025-05-15T12:38:05.000Z</time>
      </trkpt>
      <trkpt lat="47.80064" lon="-2.62379">
        <ele>126.19999694824</ele>
        <time>2025-05-15T12:38:06.000Z</time>
      </trkpt>
      <trkpt lat="47.80062" lon="-2.62381">
        <ele>126.40000152588</ele>
        <time>2025-05-15T12:38:07.000Z</time>
      </trkpt>
      <trkpt lat="47.80059" lon="-2.62384">
        <ele>126.59999847412</ele>
        <time>2025-05-15T12:38:08.000Z</time>
      </trkpt>
      <trkpt lat="47.80059" lon="-2.62384">
        <ele>126.80000305176</ele>
        <time>2025-05-15T12:38:09.000Z</time>
      </trkpt>
      <trkpt lat="47.80057" lon="-2.62385">
        <ele>126.80000305176</ele>
        <time>2025-05-15T12:38:10.000Z</time>
      </trkpt>
      <trkpt lat="47.80055" lon="-2.62387">
        <ele>127</ele>
        <time>2025-05-15T12:38:11.000Z</time>
      </trkpt>
      <trkpt lat="47.80054" lon="-2.62389">
        <ele>127</ele>
        <time>2025-05-15T12:38:12.000Z</time>
      </trkpt>
      <trkpt lat="47.80053" lon="-2.62392">
        <ele>127.19999694824</ele>
        <time>2025-05-15T12:38:13.000Z</time>
      </trkpt>
      <trkpt lat="47.80052" lon="-2.62395">
        <ele>127.19999694824</ele>
        <time>2025-05-15T12:38:14.000Z</time>
      </trkpt>
      <trkpt lat="47.80052" lon="-2.62396">
        <ele>127.40000152588</ele>
        <time>2025-05-15T12:38:15.000Z</time>
      </trkpt>
      <trkpt lat="47.80052" lon="-2.62396">
        <ele>127.59999847412</ele>
        <time>2025-05-15T12:38:16.000Z</time>
      </trkpt>
      <trkpt lat="47.80051" lon="-2.62399">
        <ele>127.80000305176</ele>
        <time>2025-05-15T12:38:17.000Z</time>
      </trkpt>
      <trkpt lat="47.80048" lon="-2.62402">
        <ele>128.19999694824</ele>
        <time>2025-05-15T12:38:18.000Z</time>
      </trkpt>
      <trkpt lat="47.80045" lon="-2.62404">
        <ele>128.39999389648</ele>
        <time>2025-05-15T12:38:19.000Z</time>
      </trkpt>
      <trkpt lat="47.80044" lon="-2.62405">
        <ele>128.39999389648</ele>
        <time>2025-05-15T12:38:20.000Z</time>
      </trkpt>
      <trkpt lat="47.8004" lon="-2.62406">
        <ele>128.39999389648</ele>
        <time>2025-05-15T12:38:21.000Z</time>
      </trkpt>
      <trkpt lat="47.80039" lon="-2.62406">
        <ele>129</ele>
        <time>2025-05-15T12:38:22.000Z</time>
      </trkpt>
      <trkpt lat="47.80038" lon="-2.62408">
        <ele>129</ele>
        <time>2025-05-15T12:38:23.000Z</time>
      </trkpt>
      <trkpt lat="47.80036" lon="-2.62411">
        <ele>129.19999694824</ele>
        <time>2025-05-15T12:38:24.000Z</time>
      </trkpt>
      <trkpt lat="47.80036" lon="-2.62412">
        <ele>129.80000305176</ele>
        <time>2025-05-15T12:38:28.000Z</time>
      </trkpt>
      <trkpt lat="47.80036" lon="-2.62412">
        <ele>130</ele>
        <time>2025-05-15T12:38:29.000Z</time>
      </trkpt>
      <trkpt lat="47.80034" lon="-2.62416">
        <ele>130</ele>
        <time>2025-05-15T12:38:30.000Z</time>
      </trkpt>
      <trkpt lat="47.80034" lon="-2.62416">
        <ele>130</ele>
        <time>2025-05-15T12:38:31.000Z</time>
      </trkpt>
      <trkpt lat="47.80033" lon="-2.62417">
        <ele>130</ele>
        <time>2025-05-15T12:38:32.000Z</time>
      </trkpt>
      <trkpt lat="47.80033" lon="-2.62417">
        <ele>130.19999694824</ele>
        <time>2025-05-15T12:38:33.000Z</time>
      </trkpt>
      <trkpt lat="47.80033" lon="-2.62417">
        <ele>130.19999694824</ele>
        <time>2025-05-15T12:38:34.000Z</time>
      </trkpt>
      <trkpt lat="47.80031" lon="-2.62417">
        <ele>130.19999694824</ele>
        <time>2025-05-15T12:38:35.000Z</time>
      </trkpt>
      <trkpt lat="47.8003" lon="-2.62416">
        <ele>130.19999694824</ele>
        <time>2025-05-15T12:38:36.000Z</time>
      </trkpt>
      <trkpt lat="47.80027" lon="-2.62416">
        <ele>130.19999694824</ele>
        <time>2025-05-15T12:38:37.000Z</time>
      </trkpt>
      <trkpt lat="47.80025" lon="-2.62415">
        <ele>130.39999389648</ele>
        <time>2025-05-15T12:38:38.000Z</time>
      </trkpt>
      <trkpt lat="47.80023" lon="-2.62416">
        <ele>130.39999389648</ele>
        <time>2025-05-15T12:38:39.000Z</time>
      </trkpt>
      <trkpt lat="47.8002" lon="-2.62417">
        <ele>130.60000610352</ele>
        <time>2025-05-15T12:38:40.000Z</time>
      </trkpt>
      <trkpt lat="47.80018" lon="-2.62418">
        <ele>130.60000610352</ele>
        <time>2025-05-15T12:38:41.000Z</time>
      </trkpt>
      <trkpt lat="47.80016" lon="-2.62419">
        <ele>130.60000610352</ele>
        <time>2025-05-15T12:38:42.000Z</time>
      </trkpt>
      <trkpt lat="47.80016" lon="-2.62419">
        <ele>130.80000305176</ele>
        <time>2025-05-15T12:38:43.000Z</time>
      </trkpt>
      <trkpt lat="47.80016" lon="-2.62419">
        <ele>130.80000305176</ele>
        <time>2025-05-15T12:38:44.000Z</time>
      </trkpt>
      <trkpt lat="47.80014" lon="-2.62419">
        <ele>131</ele>
        <time>2025-05-15T12:38:45.000Z</time>
      </trkpt>
      <trkpt lat="47.8001" lon="-2.62423">
        <ele>131</ele>
        <time>2025-05-15T12:38:46.000Z</time>
      </trkpt>
      <trkpt lat="47.80006" lon="-2.62427">
        <ele>131.19999694824</ele>
        <time>2025-05-15T12:38:47.000Z</time>
      </trkpt>
      <trkpt lat="47.80003" lon="-2.6243">
        <ele>131.39999389648</ele>
        <time>2025-05-15T12:38:48.000Z</time>
      </trkpt>
      <trkpt lat="47.80001" lon="-2.62432">
        <ele>131.60000610352</ele>
        <time>2025-05-15T12:38:49.000Z</time>
      </trkpt>
      <trkpt lat="47.79997" lon="-2.62433">
        <ele>131.60000610352</ele>
        <time>2025-05-15T12:38:51.000Z</time>
      </trkpt>
      <trkpt lat="47.79995" lon="-2.62433">
        <ele>131.80000305176</ele>
        <time>2025-05-15T12:38:52.000Z</time>
      </trkpt>
      <trkpt lat="47.79993" lon="-2.62433">
        <ele>131.80000305176</ele>
        <time>2025-05-15T12:38:53.000Z</time>
      </trkpt>
      <trkpt lat="47.7999" lon="-2.62435">
        <ele>132</ele>
        <time>2025-05-15T12:38:55.000Z</time>
      </trkpt>
      <trkpt lat="47.79989" lon="-2.62435">
        <ele>132.19999694824</ele>
        <time>2025-05-15T12:38:56.000Z</time>
      </trkpt>
      <trkpt lat="47.79989" lon="-2.62435">
        <ele>132.19999694824</ele>
        <time>2025-05-15T12:38:57.000Z</time>
      </trkpt>
      <trkpt lat="47.79989" lon="-2.62435">
        <ele>132.39999389648</ele>
        <time>2025-05-15T12:38:58.000Z</time>
      </trkpt>
      <trkpt lat="47.79984" lon="-2.6244">
        <ele>132.60000610352</ele>
        <time>2025-05-15T12:39:02.000Z</time>
      </trkpt>
      <trkpt lat="47.7998" lon="-2.62444">
        <ele>132.60000610352</ele>
        <time>2025-05-15T12:39:04.000Z</time>
      </trkpt>
      <trkpt lat="47.79975" lon="-2.62448">
        <ele>132.60000610352</ele>
        <time>2025-05-15T12:39:06.000Z</time>
      </trkpt>
      <trkpt lat="47.79973" lon="-2.62452">
        <ele>132.80000305176</ele>
        <time>2025-05-15T12:39:07.000Z</time>
      </trkpt>
      <trkpt lat="47.79969" lon="-2.62454">
        <ele>132.80000305176</ele>
        <time>2025-05-15T12:39:08.000Z</time>
      </trkpt>
      <trkpt lat="47.79966" lon="-2.62455">
        <ele>132.80000305176</ele>
        <time>2025-05-15T12:39:09.000Z</time>
      </trkpt>
      <trkpt lat="47.7996" lon="-2.62456">
        <ele>132.60000610352</ele>
        <time>2025-05-15T12:39:11.000Z</time>
      </trkpt>
      <trkpt lat="47.79953" lon="-2.6246">
        <ele>132.60000610352</ele>
        <time>2025-05-15T12:39:12.000Z</time>
      </trkpt>
      <trkpt lat="47.7995" lon="-2.62463">
        <ele>132.60000610352</ele>
        <time>2025-05-15T12:39:13.000Z</time>
      </trkpt>
      <trkpt lat="47.79948" lon="-2.62467">
        <ele>132.39999389648</ele>
        <time>2025-05-15T12:39:14.000Z</time>
      </trkpt>
      <trkpt lat="47.79947" lon="-2.62471">
        <ele>132.39999389648</ele>
        <time>2025-05-15T12:39:15.000Z</time>
      </trkpt>
      <trkpt lat="47.79944" lon="-2.62475">
        <ele>132.39999389648</ele>
        <time>2025-05-15T12:39:16.000Z</time>
      </trkpt>
      <trkpt lat="47.79942" lon="-2.6248">
        <ele>132.39999389648</ele>
        <time>2025-05-15T12:39:17.000Z</time>
      </trkpt>
      <trkpt lat="47.79942" lon="-2.62481">
        <ele>132.19999694824</ele>
        <time>2025-05-15T12:39:18.000Z</time>
      </trkpt>
      <trkpt lat="47.7994" lon="-2.62483">
        <ele>132.19999694824</ele>
        <time>2025-05-15T12:39:19.000Z</time>
      </trkpt>
      <trkpt lat="47.79938" lon="-2.62485">
        <ele>132</ele>
        <time>2025-05-15T12:39:20.000Z</time>
      </trkpt>
      <trkpt lat="47.79936" lon="-2.6249">
        <ele>132</ele>
        <time>2025-05-15T12:39:21.000Z</time>
      </trkpt>
      <trkpt lat="47.79923" lon="-2.625">
        <ele>131.80000305176</ele>
        <time>2025-05-15T12:39:24.000Z</time>
      </trkpt>
      <trkpt lat="47.79921" lon="-2.62503">
        <ele>131.80000305176</ele>
        <time>2025-05-15T12:39:25.000Z</time>
      </trkpt>
      <trkpt lat="47.79919" lon="-2.62508">
        <ele>132</ele>
        <time>2025-05-15T12:39:26.000Z</time>
      </trkpt>
      <trkpt lat="47.79919" lon="-2.62511">
        <ele>132</ele>
        <time>2025-05-15T12:39:27.000Z</time>
      </trkpt>
      <trkpt lat="47.79918" lon="-2.62514">
        <ele>132.19999694824</ele>
        <time>2025-05-15T12:39:28.000Z</time>
      </trkpt>
      <trkpt lat="47.79918" lon="-2.62516">
        <ele>132.19999694824</ele>
        <time>2025-05-15T12:39:29.000Z</time>
      </trkpt>
      <trkpt lat="47.79917" lon="-2.62518">
        <ele>132.19999694824</ele>
        <time>2025-05-15T12:39:30.000Z</time>
      </trkpt>
      <trkpt lat="47.79914" lon="-2.62524">
        <ele>132.19999694824</ele>
        <time>2025-05-15T12:39:32.000Z</time>
      </trkpt>
      <trkpt lat="47.79912" lon="-2.6253">
        <ele>132.19999694824</ele>
        <time>2025-05-15T12:39:33.000Z</time>
      </trkpt>
      <trkpt lat="47.79909" lon="-2.62537">
        <ele>132.39999389648</ele>
        <time>2025-05-15T12:39:35.000Z</time>
      </trkpt>
      <trkpt lat="47.79903" lon="-2.62545">
        <ele>132.60000610352</ele>
        <time>2025-05-15T12:39:37.000Z</time>
      </trkpt>
      <trkpt lat="47.79896" lon="-2.62548">
        <ele>132.60000610352</ele>
        <time>2025-05-15T12:39:38.000Z</time>
      </trkpt>
      <trkpt lat="47.79891" lon="-2.62551">
        <ele>132.60000610352</ele>
        <time>2025-05-15T12:39:39.000Z</time>
      </trkpt>
      <trkpt lat="47.79891" lon="-2.62551">
        <ele>132.60000610352</ele>
        <time>2025-05-15T12:39:40.000Z</time>
      </trkpt>
      <trkpt lat="47.7989" lon="-2.62553">
        <ele>132.60000610352</ele>
        <time>2025-05-15T12:39:41.000Z</time>
      </trkpt>
      <trkpt lat="47.79886" lon="-2.62558">
        <ele>132.60000610352</ele>
        <time>2025-05-15T12:39:43.000Z</time>
      </trkpt>
      <trkpt lat="47.79882" lon="-2.62563">
        <ele>132.39999389648</ele>
        <time>2025-05-15T12:39:45.000Z</time>
      </trkpt>
      <trkpt lat="47.7988" lon="-2.62563">
        <ele>132.19999694824</ele>
        <time>2025-05-15T12:39:46.000Z</time>
      </trkpt>
      <trkpt lat="47.79871" lon="-2.62568">
        <ele>132.19999694824</ele>
        <time>2025-05-15T12:39:50.000Z</time>
      </trkpt>
      <trkpt lat="47.79868" lon="-2.62569">
        <ele>132.19999694824</ele>
        <time>2025-05-15T12:39:51.000Z</time>
      </trkpt>
      <trkpt lat="47.79865" lon="-2.6257">
        <ele>132.19999694824</ele>
        <time>2025-05-15T12:39:52.000Z</time>
      </trkpt>
      <trkpt lat="47.79862" lon="-2.62573">
        <ele>132.19999694824</ele>
        <time>2025-05-15T12:39:53.000Z</time>
      </trkpt>
      <trkpt lat="47.79857" lon="-2.62576">
        <ele>132.19999694824</ele>
        <time>2025-05-15T12:39:54.000Z</time>
      </trkpt>
      <trkpt lat="47.7985" lon="-2.62577">
        <ele>132.19999694824</ele>
        <time>2025-05-15T12:39:56.000Z</time>
      </trkpt>
      <trkpt lat="47.79844" lon="-2.62578">
        <ele>132.39999389648</ele>
        <time>2025-05-15T12:39:58.000Z</time>
      </trkpt>
      <trkpt lat="47.7984" lon="-2.62579">
        <ele>132.39999389648</ele>
        <time>2025-05-15T12:39:59.000Z</time>
      </trkpt>
      <trkpt lat="47.79837" lon="-2.6258">
        <ele>132.39999389648</ele>
        <time>2025-05-15T12:40:00.000Z</time>
      </trkpt>
      <trkpt lat="47.79833" lon="-2.6258">
        <ele>132.60000610352</ele>
        <time>2025-05-15T12:40:01.000Z</time>
      </trkpt>
      <trkpt lat="47.79822" lon="-2.62582">
        <ele>132.60000610352</ele>
        <time>2025-05-15T12:40:03.000Z</time>
      </trkpt>
      <trkpt lat="47.79811" lon="-2.62585">
        <ele>132.60000610352</ele>
        <time>2025-05-15T12:40:05.000Z</time>
      </trkpt>
      <trkpt lat="47.79808" lon="-2.62587">
        <ele>132.80000305176</ele>
        <time>2025-05-15T12:40:06.000Z</time>
      </trkpt>
      <trkpt lat="47.79805" lon="-2.62588">
        <ele>132.80000305176</ele>
        <time>2025-05-15T12:40:07.000Z</time>
      </trkpt>
      <trkpt lat="47.79796" lon="-2.62591">
        <ele>132.80000305176</ele>
        <time>2025-05-15T12:40:09.000Z</time>
      </trkpt>
      <trkpt lat="47.79793" lon="-2.62593">
        <ele>132.80000305176</ele>
        <time>2025-05-15T12:40:10.000Z</time>
      </trkpt>
      <trkpt lat="47.79784" lon="-2.62597">
        <ele>132.80000305176</ele>
        <time>2025-05-15T12:40:11.000Z</time>
      </trkpt>
      <trkpt lat="47.79769" lon="-2.62604">
        <ele>132.80000305176</ele>
        <time>2025-05-15T12:40:13.000Z</time>
      </trkpt>
      <trkpt lat="47.79754" lon="-2.62605">
        <ele>132.80000305176</ele>
        <time>2025-05-15T12:40:15.000Z</time>
      </trkpt>
      <trkpt lat="47.7975" lon="-2.62606">
        <ele>132.80000305176</ele>
        <time>2025-05-15T12:40:16.000Z</time>
      </trkpt>
      <trkpt lat="47.79747" lon="-2.62604">
        <ele>132.80000305176</ele>
        <time>2025-05-15T12:40:17.000Z</time>
      </trkpt>
      <trkpt lat="47.79743" lon="-2.62603">
        <ele>132.80000305176</ele>
        <time>2025-05-15T12:40:18.000Z</time>
      </trkpt>
      <trkpt lat="47.79738" lon="-2.62601">
        <ele>132.80000305176</ele>
        <time>2025-05-15T12:40:19.000Z</time>
      </trkpt>
      <trkpt lat="47.79732" lon="-2.62599">
        <ele>132.80000305176</ele>
        <time>2025-05-15T12:40:20.000Z</time>
      </trkpt>
      <trkpt lat="47.79726" lon="-2.62597">
        <ele>133</ele>
        <time>2025-05-15T12:40:21.000Z</time>
      </trkpt>
      <trkpt lat="47.79722" lon="-2.62597">
        <ele>133</ele>
        <time>2025-05-15T12:40:22.000Z</time>
      </trkpt>
      <trkpt lat="47.79719" lon="-2.62597">
        <ele>133.19999694824</ele>
        <time>2025-05-15T12:40:23.000Z</time>
      </trkpt>
      <trkpt lat="47.79714" lon="-2.62596">
        <ele>133.39999389648</ele>
        <time>2025-05-15T12:40:24.000Z</time>
      </trkpt>
      <trkpt lat="47.79711" lon="-2.62594">
        <ele>133.60000610352</ele>
        <time>2025-05-15T12:40:25.000Z</time>
      </trkpt>
      <trkpt lat="47.7971" lon="-2.62591">
        <ele>134.19999694824</ele>
        <time>2025-05-15T12:40:26.000Z</time>
      </trkpt>
      <trkpt lat="47.7971" lon="-2.6259">
        <ele>134.60000610352</ele>
        <time>2025-05-15T12:40:27.000Z</time>
      </trkpt>
      <trkpt lat="47.7971" lon="-2.6259">
        <ele>135</ele>
        <time>2025-05-15T12:40:28.000Z</time>
      </trkpt>
      <trkpt lat="47.7971" lon="-2.62589">
        <ele>135.19999694824</ele>
        <time>2025-05-15T12:40:29.000Z</time>
      </trkpt>
      <trkpt lat="47.79711" lon="-2.62588">
        <ele>135.60000610352</ele>
        <time>2025-05-15T12:40:30.000Z</time>
      </trkpt>
      <trkpt lat="47.79711" lon="-2.62586">
        <ele>135.60000610352</ele>
        <time>2025-05-15T12:40:31.000Z</time>
      </trkpt>
      <trkpt lat="47.79712" lon="-2.62583">
        <ele>136.19999694824</ele>
        <time>2025-05-15T12:40:32.000Z</time>
      </trkpt>
      <trkpt lat="47.79713" lon="-2.62581">
        <ele>136.60000610352</ele>
        <time>2025-05-15T12:40:33.000Z</time>
      </trkpt>
      <trkpt lat="47.79713" lon="-2.62579">
        <ele>136.80000305176</ele>
        <time>2025-05-15T12:40:34.000Z</time>
      </trkpt>
      <trkpt lat="47.79712" lon="-2.62577">
        <ele>136.80000305176</ele>
        <time>2025-05-15T12:40:35.000Z</time>
      </trkpt>
      <trkpt lat="47.79711" lon="-2.62575">
        <ele>136.80000305176</ele>
        <time>2025-05-15T12:40:36.000Z</time>
      </trkpt>
      <trkpt lat="47.7971" lon="-2.62575">
        <ele>137</ele>
        <time>2025-05-15T12:40:37.000Z</time>
      </trkpt>
      <trkpt lat="47.79709" lon="-2.62575">
        <ele>137.19999694824</ele>
        <time>2025-05-15T12:40:38.000Z</time>
      </trkpt>
      <trkpt lat="47.79707" lon="-2.62574">
        <ele>137.19999694824</ele>
        <time>2025-05-15T12:40:39.000Z</time>
      </trkpt>
      <trkpt lat="47.79705" lon="-2.62572">
        <ele>137.19999694824</ele>
        <time>2025-05-15T12:40:40.000Z</time>
      </trkpt>
      <trkpt lat="47.79704" lon="-2.62571">
        <ele>137.39999389648</ele>
        <time>2025-05-15T12:40:41.000Z</time>
      </trkpt>
      <trkpt lat="47.79703" lon="-2.6257">
        <ele>137.39999389648</ele>
        <time>2025-05-15T12:40:42.000Z</time>
      </trkpt>
      <trkpt lat="47.79702" lon="-2.6257">
        <ele>137.60000610352</ele>
        <time>2025-05-15T12:40:43.000Z</time>
      </trkpt>
      <trkpt lat="47.79702" lon="-2.62571">
        <ele>137.80000305176</ele>
        <time>2025-05-15T12:40:44.000Z</time>
      </trkpt>
      <trkpt lat="47.79701" lon="-2.62572">
        <ele>137.80000305176</ele>
        <time>2025-05-15T12:40:45.000Z</time>
      </trkpt>
      <trkpt lat="47.797" lon="-2.62573">
        <ele>138</ele>
        <time>2025-05-15T12:40:46.000Z</time>
      </trkpt>
      <trkpt lat="47.79698" lon="-2.62572">
        <ele>138</ele>
        <time>2025-05-15T12:40:47.000Z</time>
      </trkpt>
      <trkpt lat="47.79696" lon="-2.62571">
        <ele>138</ele>
        <time>2025-05-15T12:40:48.000Z</time>
      </trkpt>
      <trkpt lat="47.79695" lon="-2.62571">
        <ele>138</ele>
        <time>2025-05-15T12:40:49.000Z</time>
      </trkpt>
      <trkpt lat="47.79695" lon="-2.6257">
        <ele>138</ele>
        <time>2025-05-15T12:40:50.000Z</time>
      </trkpt>
      <trkpt lat="47.79695" lon="-2.62569">
        <ele>138.19999694824</ele>
        <time>2025-05-15T12:40:51.000Z</time>
      </trkpt>
      <trkpt lat="47.79694" lon="-2.62569">
        <ele>138.19999694824</ele>
        <time>2025-05-15T12:40:52.000Z</time>
      </trkpt>
      <trkpt lat="47.79692" lon="-2.62568">
        <ele>138.19999694824</ele>
        <time>2025-05-15T12:40:53.000Z</time>
      </trkpt>
      <trkpt lat="47.79689" lon="-2.62567">
        <ele>138.39999389648</ele>
        <time>2025-05-15T12:40:54.000Z</time>
      </trkpt>
      <trkpt lat="47.79686" lon="-2.62565">
        <ele>138.60000610352</ele>
        <time>2025-05-15T12:40:55.000Z</time>
      </trkpt>
      <trkpt lat="47.79684" lon="-2.62564">
        <ele>138.60000610352</ele>
        <time>2025-05-15T12:40:56.000Z</time>
      </trkpt>
      <trkpt lat="47.79681" lon="-2.62563">
        <ele>138.60000610352</ele>
        <time>2025-05-15T12:40:57.000Z</time>
      </trkpt>
      <trkpt lat="47.79677" lon="-2.62563">
        <ele>138.80000305176</ele>
        <time>2025-05-15T12:40:58.000Z</time>
      </trkpt>
      <trkpt lat="47.79674" lon="-2.62563">
        <ele>139</ele>
        <time>2025-05-15T12:40:59.000Z</time>
      </trkpt>
      <trkpt lat="47.7967" lon="-2.62565">
        <ele>139</ele>
        <time>2025-05-15T12:41:00.000Z</time>
      </trkpt>
      <trkpt lat="47.79665" lon="-2.62565">
        <ele>139</ele>
        <time>2025-05-15T12:41:01.000Z</time>
      </trkpt>
      <trkpt lat="47.7966" lon="-2.62564">
        <ele>139</ele>
        <time>2025-05-15T12:41:02.000Z</time>
      </trkpt>
      <trkpt lat="47.79657" lon="-2.62563">
        <ele>139</ele>
        <time>2025-05-15T12:41:03.000Z</time>
      </trkpt>
      <trkpt lat="47.79651" lon="-2.6256">
        <ele>139.19999694824</ele>
        <time>2025-05-15T12:41:05.000Z</time>
      </trkpt>
      <trkpt lat="47.79649" lon="-2.6256">
        <ele>139.39999389648</ele>
        <time>2025-05-15T12:41:06.000Z</time>
      </trkpt>
      <trkpt lat="47.79647" lon="-2.62559">
        <ele>139.39999389648</ele>
        <time>2025-05-15T12:41:07.000Z</time>
      </trkpt>
      <trkpt lat="47.79645" lon="-2.62558">
        <ele>139.60000610352</ele>
        <time>2025-05-15T12:41:08.000Z</time>
      </trkpt>
      <trkpt lat="47.79641" lon="-2.62558">
        <ele>139.80000305176</ele>
        <time>2025-05-15T12:41:10.000Z</time>
      </trkpt>
      <trkpt lat="47.79637" lon="-2.62554">
        <ele>140.19999694824</ele>
        <time>2025-05-15T12:41:12.000Z</time>
      </trkpt>
      <trkpt lat="47.79635" lon="-2.62551">
        <ele>140.19999694824</ele>
        <time>2025-05-15T12:41:13.000Z</time>
      </trkpt>
      <trkpt lat="47.79633" lon="-2.6255">
        <ele>140.39999389648</ele>
        <time>2025-05-15T12:41:14.000Z</time>
      </trkpt>
      <trkpt lat="47.79626" lon="-2.62546">
        <ele>140.39999389648</ele>
        <time>2025-05-15T12:41:17.000Z</time>
      </trkpt>
      <trkpt lat="47.79624" lon="-2.62544">
        <ele>140.19999694824</ele>
        <time>2025-05-15T12:41:18.000Z</time>
      </trkpt>
      <trkpt lat="47.79623" lon="-2.62543">
        <ele>140.19999694824</ele>
        <time>2025-05-15T12:41:19.000Z</time>
      </trkpt>
      <trkpt lat="47.79617" lon="-2.62544">
        <ele>140.19999694824</ele>
        <time>2025-05-15T12:41:21.000Z</time>
      </trkpt>
      <trkpt lat="47.79614" lon="-2.62542">
        <ele>140.19999694824</ele>
        <time>2025-05-15T12:41:22.000Z</time>
      </trkpt>
      <trkpt lat="47.79612" lon="-2.6254">
        <ele>140.19999694824</ele>
        <time>2025-05-15T12:41:23.000Z</time>
      </trkpt>
      <trkpt lat="47.79606" lon="-2.62538">
        <ele>140.19999694824</ele>
        <time>2025-05-15T12:41:25.000Z</time>
      </trkpt>
      <trkpt lat="47.79604" lon="-2.62538">
        <ele>140.19999694824</ele>
        <time>2025-05-15T12:41:26.000Z</time>
      </trkpt>
      <trkpt lat="47.79601" lon="-2.62535">
        <ele>140.19999694824</ele>
        <time>2025-05-15T12:41:27.000Z</time>
      </trkpt>
      <trkpt lat="47.79599" lon="-2.62531">
        <ele>140.19999694824</ele>
        <time>2025-05-15T12:41:28.000Z</time>
      </trkpt>
      <trkpt lat="47.79597" lon="-2.62528">
        <ele>140.39999389648</ele>
        <time>2025-05-15T12:41:29.000Z</time>
      </trkpt>
      <trkpt lat="47.79593" lon="-2.62526">
        <ele>140.39999389648</ele>
        <time>2025-05-15T12:41:30.000Z</time>
      </trkpt>
      <trkpt lat="47.79588" lon="-2.62524">
        <ele>140.60000610352</ele>
        <time>2025-05-15T12:41:32.000Z</time>
      </trkpt>
      <trkpt lat="47.79585" lon="-2.62524">
        <ele>140.60000610352</ele>
        <time>2025-05-15T12:41:33.000Z</time>
      </trkpt>
      <trkpt lat="47.79582" lon="-2.62523">
        <ele>140.60000610352</ele>
        <time>2025-05-15T12:41:34.000Z</time>
      </trkpt>
      <trkpt lat="47.79579" lon="-2.6252">
        <ele>140.80000305176</ele>
        <time>2025-05-15T12:41:35.000Z</time>
      </trkpt>
      <trkpt lat="47.79574" lon="-2.62517">
        <ele>141</ele>
        <time>2025-05-15T12:41:36.000Z</time>
      </trkpt>
      <trkpt lat="47.79571" lon="-2.62513">
        <ele>141</ele>
        <time>2025-05-15T12:41:37.000Z</time>
      </trkpt>
      <trkpt lat="47.79568" lon="-2.62513">
        <ele>140.80000305176</ele>
        <time>2025-05-15T12:41:38.000Z</time>
      </trkpt>
      <trkpt lat="47.79565" lon="-2.62516">
        <ele>140.60000610352</ele>
        <time>2025-05-15T12:41:39.000Z</time>
      </trkpt>
      <trkpt lat="47.79564" lon="-2.62519">
        <ele>140.60000610352</ele>
        <time>2025-05-15T12:41:40.000Z</time>
      </trkpt>
      <trkpt lat="47.79563" lon="-2.62523">
        <ele>140.60000610352</ele>
        <time>2025-05-15T12:41:41.000Z</time>
      </trkpt>
      <trkpt lat="47.79561" lon="-2.62527">
        <ele>140.60000610352</ele>
        <time>2025-05-15T12:41:42.000Z</time>
      </trkpt>
      <trkpt lat="47.7956" lon="-2.62531">
        <ele>140.39999389648</ele>
        <time>2025-05-15T12:41:43.000Z</time>
      </trkpt>
      <trkpt lat="47.79559" lon="-2.62533">
        <ele>140.19999694824</ele>
        <time>2025-05-15T12:41:44.000Z</time>
      </trkpt>
      <trkpt lat="47.79556" lon="-2.62535">
        <ele>140.19999694824</ele>
        <time>2025-05-15T12:41:45.000Z</time>
      </trkpt>
      <trkpt lat="47.79554" lon="-2.62537">
        <ele>140</ele>
        <time>2025-05-15T12:41:46.000Z</time>
      </trkpt>
      <trkpt lat="47.79552" lon="-2.62538">
        <ele>140</ele>
        <time>2025-05-15T12:41:47.000Z</time>
      </trkpt>
      <trkpt lat="47.79548" lon="-2.6254">
        <ele>139.80000305176</ele>
        <time>2025-05-15T12:41:48.000Z</time>
      </trkpt>
      <trkpt lat="47.79546" lon="-2.6254">
        <ele>139.60000610352</ele>
        <time>2025-05-15T12:41:49.000Z</time>
      </trkpt>
      <trkpt lat="47.79543" lon="-2.6254">
        <ele>139.60000610352</ele>
        <time>2025-05-15T12:41:50.000Z</time>
      </trkpt>
      <trkpt lat="47.79541" lon="-2.62542">
        <ele>139.39999389648</ele>
        <time>2025-05-15T12:41:51.000Z</time>
      </trkpt>
      <trkpt lat="47.79539" lon="-2.62545">
        <ele>139.19999694824</ele>
        <time>2025-05-15T12:41:52.000Z</time>
      </trkpt>
      <trkpt lat="47.79538" lon="-2.62548">
        <ele>139.19999694824</ele>
        <time>2025-05-15T12:41:53.000Z</time>
      </trkpt>
      <trkpt lat="47.79537" lon="-2.62551">
        <ele>139</ele>
        <time>2025-05-15T12:41:54.000Z</time>
      </trkpt>
      <trkpt lat="47.79537" lon="-2.62554">
        <ele>138.80000305176</ele>
        <time>2025-05-15T12:41:55.000Z</time>
      </trkpt>
      <trkpt lat="47.79536" lon="-2.62559">
        <ele>138.19999694824</ele>
        <time>2025-05-15T12:41:56.000Z</time>
      </trkpt>
      <trkpt lat="47.79535" lon="-2.62563">
        <ele>138</ele>
        <time>2025-05-15T12:41:57.000Z</time>
      </trkpt>
      <trkpt lat="47.79536" lon="-2.62567">
        <ele>138</ele>
        <time>2025-05-15T12:41:58.000Z</time>
      </trkpt>
      <trkpt lat="47.79536" lon="-2.6257">
        <ele>137.80000305176</ele>
        <time>2025-05-15T12:41:59.000Z</time>
      </trkpt>
      <trkpt lat="47.79535" lon="-2.62576">
        <ele>137.60000610352</ele>
        <time>2025-05-15T12:42:01.000Z</time>
      </trkpt>
      <trkpt lat="47.79536" lon="-2.62583">
        <ele>137.19999694824</ele>
        <time>2025-05-15T12:42:03.000Z</time>
      </trkpt>
      <trkpt lat="47.79535" lon="-2.62587">
        <ele>136.80000305176</ele>
        <time>2025-05-15T12:42:04.000Z</time>
      </trkpt>
      <trkpt lat="47.79535" lon="-2.62593">
        <ele>136.60000610352</ele>
        <time>2025-05-15T12:42:05.000Z</time>
      </trkpt>
      <trkpt lat="47.79535" lon="-2.62606">
        <ele>136.19999694824</ele>
        <time>2025-05-15T12:42:07.000Z</time>
      </trkpt>
      <trkpt lat="47.79538" lon="-2.62622">
        <ele>136</ele>
        <time>2025-05-15T12:42:09.000Z</time>
      </trkpt>
      <trkpt lat="47.79541" lon="-2.62637">
        <ele>135.60000610352</ele>
        <time>2025-05-15T12:42:11.000Z</time>
      </trkpt>
      <trkpt lat="47.79544" lon="-2.62643">
        <ele>135.39999389648</ele>
        <time>2025-05-15T12:42:12.000Z</time>
      </trkpt>
      <trkpt lat="47.7955" lon="-2.62649">
        <ele>135.19999694824</ele>
        <time>2025-05-15T12:42:13.000Z</time>
      </trkpt>
      <trkpt lat="47.79557" lon="-2.62654">
        <ele>134.80000305176</ele>
        <time>2025-05-15T12:42:14.000Z</time>
      </trkpt>
      <trkpt lat="47.79565" lon="-2.6266">
        <ele>134.60000610352</ele>
        <time>2025-05-15T12:42:15.000Z</time>
      </trkpt>
      <trkpt lat="47.79572" lon="-2.62666">
        <ele>134.19999694824</ele>
        <time>2025-05-15T12:42:16.000Z</time>
      </trkpt>
      <trkpt lat="47.79587" lon="-2.62676">
        <ele>133.60000610352</ele>
        <time>2025-05-15T12:42:18.000Z</time>
      </trkpt>
      <trkpt lat="47.79595" lon="-2.62683">
        <ele>133.39999389648</ele>
        <time>2025-05-15T12:42:19.000Z</time>
      </trkpt>
      <trkpt lat="47.796" lon="-2.62688">
        <ele>133</ele>
        <time>2025-05-15T12:42:20.000Z</time>
      </trkpt>
      <trkpt lat="47.79607" lon="-2.62694">
        <ele>133</ele>
        <time>2025-05-15T12:42:21.000Z</time>
      </trkpt>
      <trkpt lat="47.79612" lon="-2.62698">
        <ele>133</ele>
        <time>2025-05-15T12:42:22.000Z</time>
      </trkpt>
      <trkpt lat="47.79619" lon="-2.62702">
        <ele>132.60000610352</ele>
        <time>2025-05-15T12:42:23.000Z</time>
      </trkpt>
      <trkpt lat="47.79624" lon="-2.62704">
        <ele>132.80000305176</ele>
        <time>2025-05-15T12:42:24.000Z</time>
      </trkpt>
      <trkpt lat="47.79628" lon="-2.62705">
        <ele>132.80000305176</ele>
        <time>2025-05-15T12:42:25.000Z</time>
      </trkpt>
      <trkpt lat="47.79631" lon="-2.62705">
        <ele>132.80000305176</ele>
        <time>2025-05-15T12:42:26.000Z</time>
      </trkpt>
      <trkpt lat="47.79633" lon="-2.62705">
        <ele>132.80000305176</ele>
        <time>2025-05-15T12:42:27.000Z</time>
      </trkpt>
      <trkpt lat="47.79645" lon="-2.62708">
        <ele>133.19999694824</ele>
        <time>2025-05-15T12:42:30.000Z</time>
      </trkpt>
      <trkpt lat="47.79657" lon="-2.62713">
        <ele>133.19999694824</ele>
        <time>2025-05-15T12:42:33.000Z</time>
      </trkpt>
      <trkpt lat="47.7967" lon="-2.62717">
        <ele>133.19999694824</ele>
        <time>2025-05-15T12:42:36.000Z</time>
      </trkpt>
      <trkpt lat="47.79685" lon="-2.62723">
        <ele>133</ele>
        <time>2025-05-15T12:42:39.000Z</time>
      </trkpt>
      <trkpt lat="47.79715" lon="-2.6273">
        <ele>132</ele>
        <time>2025-05-15T12:42:44.000Z</time>
      </trkpt>
      <trkpt lat="47.79722" lon="-2.6273">
        <ele>131.39999389648</ele>
        <time>2025-05-15T12:42:45.000Z</time>
      </trkpt>
      <trkpt lat="47.79736" lon="-2.62731">
        <ele>130.80000305176</ele>
        <time>2025-05-15T12:42:47.000Z</time>
      </trkpt>
      <trkpt lat="47.79752" lon="-2.62728">
        <ele>130</ele>
        <time>2025-05-15T12:42:49.000Z</time>
      </trkpt>
      <trkpt lat="47.79761" lon="-2.6273">
        <ele>129.80000305176</ele>
        <time>2025-05-15T12:42:50.000Z</time>
      </trkpt>
      <trkpt lat="47.7977" lon="-2.62734">
        <ele>129.60000610352</ele>
        <time>2025-05-15T12:42:51.000Z</time>
      </trkpt>
      <trkpt lat="47.79777" lon="-2.62741">
        <ele>129.39999389648</ele>
        <time>2025-05-15T12:42:52.000Z</time>
      </trkpt>
      <trkpt lat="47.79781" lon="-2.62748">
        <ele>129.19999694824</ele>
        <time>2025-05-15T12:42:53.000Z</time>
      </trkpt>
      <trkpt lat="47.79786" lon="-2.6276">
        <ele>128.80000305176</ele>
        <time>2025-05-15T12:42:54.000Z</time>
      </trkpt>
      <trkpt lat="47.7979" lon="-2.62771">
        <ele>128.60000610352</ele>
        <time>2025-05-15T12:42:55.000Z</time>
      </trkpt>
      <trkpt lat="47.79792" lon="-2.62781">
        <ele>128.39999389648</ele>
        <time>2025-05-15T12:42:56.000Z</time>
      </trkpt>
      <trkpt lat="47.79793" lon="-2.62789">
        <ele>128.19999694824</ele>
        <time>2025-05-15T12:42:57.000Z</time>
      </trkpt>
      <trkpt lat="47.79793" lon="-2.62796">
        <ele>128.19999694824</ele>
        <time>2025-05-15T12:42:58.000Z</time>
      </trkpt>
      <trkpt lat="47.79795" lon="-2.62804">
        <ele>128.19999694824</ele>
        <time>2025-05-15T12:42:59.000Z</time>
      </trkpt>
      <trkpt lat="47.79796" lon="-2.62812">
        <ele>128.19999694824</ele>
        <time>2025-05-15T12:43:00.000Z</time>
      </trkpt>
      <trkpt lat="47.79798" lon="-2.62821">
        <ele>128.60000610352</ele>
        <time>2025-05-15T12:43:01.000Z</time>
      </trkpt>
      <trkpt lat="47.79799" lon="-2.62828">
        <ele>128.60000610352</ele>
        <time>2025-05-15T12:43:02.000Z</time>
      </trkpt>
      <trkpt lat="47.79806" lon="-2.62865">
        <ele>129.19999694824</ele>
        <time>2025-05-15T12:43:07.000Z</time>
      </trkpt>
      <trkpt lat="47.79809" lon="-2.62884">
        <ele>129.19999694824</ele>
        <time>2025-05-15T12:43:09.000Z</time>
      </trkpt>
      <trkpt lat="47.79812" lon="-2.62893">
        <ele>129</ele>
        <time>2025-05-15T12:43:10.000Z</time>
      </trkpt>
      <trkpt lat="47.79818" lon="-2.6291">
        <ele>128.80000305176</ele>
        <time>2025-05-15T12:43:12.000Z</time>
      </trkpt>
      <trkpt lat="47.79823" lon="-2.62917">
        <ele>128.80000305176</ele>
        <time>2025-05-15T12:43:13.000Z</time>
      </trkpt>
      <trkpt lat="47.79828" lon="-2.62924">
        <ele>128.60000610352</ele>
        <time>2025-05-15T12:43:14.000Z</time>
      </trkpt>
      <trkpt lat="47.79834" lon="-2.62929">
        <ele>128.60000610352</ele>
        <time>2025-05-15T12:43:15.000Z</time>
      </trkpt>
      <trkpt lat="47.7984" lon="-2.62934">
        <ele>128.60000610352</ele>
        <time>2025-05-15T12:43:16.000Z</time>
      </trkpt>
      <trkpt lat="47.79845" lon="-2.62939">
        <ele>128.60000610352</ele>
        <time>2025-05-15T12:43:17.000Z</time>
      </trkpt>
      <trkpt lat="47.79849" lon="-2.62944">
        <ele>128.60000610352</ele>
        <time>2025-05-15T12:43:18.000Z</time>
      </trkpt>
      <trkpt lat="47.79854" lon="-2.6295">
        <ele>128.60000610352</ele>
        <time>2025-05-15T12:43:19.000Z</time>
      </trkpt>
      <trkpt lat="47.79856" lon="-2.62957">
        <ele>128.80000305176</ele>
        <time>2025-05-15T12:43:20.000Z</time>
      </trkpt>
      <trkpt lat="47.79857" lon="-2.62963">
        <ele>128.80000305176</ele>
        <time>2025-05-15T12:43:21.000Z</time>
      </trkpt>
      <trkpt lat="47.79858" lon="-2.62969">
        <ele>128.80000305176</ele>
        <time>2025-05-15T12:43:22.000Z</time>
      </trkpt>
      <trkpt lat="47.79858" lon="-2.62973">
        <ele>129</ele>
        <time>2025-05-15T12:43:23.000Z</time>
      </trkpt>
      <trkpt lat="47.79858" lon="-2.62977">
        <ele>129.19999694824</ele>
        <time>2025-05-15T12:43:24.000Z</time>
      </trkpt>
      <trkpt lat="47.79857" lon="-2.62981">
        <ele>129.39999389648</ele>
        <time>2025-05-15T12:43:25.000Z</time>
      </trkpt>
      <trkpt lat="47.79857" lon="-2.62985">
        <ele>129.80000305176</ele>
        <time>2025-05-15T12:43:26.000Z</time>
      </trkpt>
      <trkpt lat="47.79857" lon="-2.62989">
        <ele>129.80000305176</ele>
        <time>2025-05-15T12:43:27.000Z</time>
      </trkpt>
      <trkpt lat="47.79855" lon="-2.62997">
        <ele>130.19999694824</ele>
        <time>2025-05-15T12:43:29.000Z</time>
      </trkpt>
      <trkpt lat="47.79853" lon="-2.6301">
        <ele>131</ele>
        <time>2025-05-15T12:43:32.000Z</time>
      </trkpt>
      <trkpt lat="47.7985" lon="-2.63019">
        <ele>131.60000610352</ele>
        <time>2025-05-15T12:43:34.000Z</time>
      </trkpt>
      <trkpt lat="47.79848" lon="-2.63027">
        <ele>131.80000305176</ele>
        <time>2025-05-15T12:43:36.000Z</time>
      </trkpt>
      <trkpt lat="47.79846" lon="-2.63036">
        <ele>132</ele>
        <time>2025-05-15T12:43:38.000Z</time>
      </trkpt>
      <trkpt lat="47.79845" lon="-2.63041">
        <ele>132.19999694824</ele>
        <time>2025-05-15T12:43:39.000Z</time>
      </trkpt>
      <trkpt lat="47.79843" lon="-2.63045">
        <ele>132.39999389648</ele>
        <time>2025-05-15T12:43:40.000Z</time>
      </trkpt>
      <trkpt lat="47.79842" lon="-2.6305">
        <ele>132.39999389648</ele>
        <time>2025-05-15T12:43:41.000Z</time>
      </trkpt>
      <trkpt lat="47.79841" lon="-2.63055">
        <ele>132.80000305176</ele>
        <time>2025-05-15T12:43:42.000Z</time>
      </trkpt>
      <trkpt lat="47.7984" lon="-2.6306">
        <ele>133</ele>
        <time>2025-05-15T12:43:43.000Z</time>
      </trkpt>
      <trkpt lat="47.79839" lon="-2.63065">
        <ele>133</ele>
        <time>2025-05-15T12:43:44.000Z</time>
      </trkpt>
      <trkpt lat="47.79837" lon="-2.6307">
        <ele>133.19999694824</ele>
        <time>2025-05-15T12:43:45.000Z</time>
      </trkpt>
      <trkpt lat="47.79836" lon="-2.63074">
        <ele>133.39999389648</ele>
        <time>2025-05-15T12:43:46.000Z</time>
      </trkpt>
      <trkpt lat="47.79835" lon="-2.63079">
        <ele>133.60000610352</ele>
        <time>2025-05-15T12:43:47.000Z</time>
      </trkpt>
      <trkpt lat="47.79834" lon="-2.63083">
        <ele>133.80000305176</ele>
        <time>2025-05-15T12:43:48.000Z</time>
      </trkpt>
      <trkpt lat="47.79833" lon="-2.63087">
        <ele>133.80000305176</ele>
        <time>2025-05-15T12:43:49.000Z</time>
      </trkpt>
      <trkpt lat="47.79832" lon="-2.63091">
        <ele>134.19999694824</ele>
        <time>2025-05-15T12:43:50.000Z</time>
      </trkpt>
      <trkpt lat="47.7983" lon="-2.63095">
        <ele>134.19999694824</ele>
        <time>2025-05-15T12:43:51.000Z</time>
      </trkpt>
      <trkpt lat="47.79829" lon="-2.63099">
        <ele>134.39999389648</ele>
        <time>2025-05-15T12:43:52.000Z</time>
      </trkpt>
      <trkpt lat="47.79828" lon="-2.63103">
        <ele>134.39999389648</ele>
        <time>2025-05-15T12:43:53.000Z</time>
      </trkpt>
      <trkpt lat="47.79827" lon="-2.63108">
        <ele>134.39999389648</ele>
        <time>2025-05-15T12:43:54.000Z</time>
      </trkpt>
      <trkpt lat="47.79826" lon="-2.63112">
        <ele>134.60000610352</ele>
        <time>2025-05-15T12:43:55.000Z</time>
      </trkpt>
      <trkpt lat="47.79826" lon="-2.63116">
        <ele>134.60000610352</ele>
        <time>2025-05-15T12:43:56.000Z</time>
      </trkpt>
      <trkpt lat="47.79825" lon="-2.63121">
        <ele>134.60000610352</ele>
        <time>2025-05-15T12:43:57.000Z</time>
      </trkpt>
      <trkpt lat="47.79825" lon="-2.63125">
        <ele>134.60000610352</ele>
        <time>2025-05-15T12:43:58.000Z</time>
      </trkpt>
      <trkpt lat="47.79825" lon="-2.63129">
        <ele>134.80000305176</ele>
        <time>2025-05-15T12:43:59.000Z</time>
      </trkpt>
      <trkpt lat="47.79825" lon="-2.63134">
        <ele>135</ele>
        <time>2025-05-15T12:44:00.000Z</time>
      </trkpt>
      <trkpt lat="47.79825" lon="-2.63138">
        <ele>135</ele>
        <time>2025-05-15T12:44:01.000Z</time>
      </trkpt>
      <trkpt lat="47.79826" lon="-2.63142">
        <ele>135</ele>
        <time>2025-05-15T12:44:02.000Z</time>
      </trkpt>
      <trkpt lat="47.79826" lon="-2.63146">
        <ele>135</ele>
        <time>2025-05-15T12:44:03.000Z</time>
      </trkpt>
      <trkpt lat="47.79827" lon="-2.63151">
        <ele>135</ele>
        <time>2025-05-15T12:44:04.000Z</time>
      </trkpt>
      <trkpt lat="47.79828" lon="-2.63155">
        <ele>135</ele>
        <time>2025-05-15T12:44:05.000Z</time>
      </trkpt>
      <trkpt lat="47.79829" lon="-2.63161">
        <ele>135</ele>
        <time>2025-05-15T12:44:06.000Z</time>
      </trkpt>
      <trkpt lat="47.7983" lon="-2.63166">
        <ele>135</ele>
        <time>2025-05-15T12:44:07.000Z</time>
      </trkpt>
      <trkpt lat="47.79832" lon="-2.63172">
        <ele>135</ele>
        <time>2025-05-15T12:44:08.000Z</time>
      </trkpt>
      <trkpt lat="47.79833" lon="-2.63177">
        <ele>135</ele>
        <time>2025-05-15T12:44:09.000Z</time>
      </trkpt>
      <trkpt lat="47.79841" lon="-2.63205">
        <ele>135</ele>
        <time>2025-05-15T12:44:14.000Z</time>
      </trkpt>
      <trkpt lat="47.79843" lon="-2.6321">
        <ele>135</ele>
        <time>2025-05-15T12:44:15.000Z</time>
      </trkpt>
      <trkpt lat="47.79845" lon="-2.63215">
        <ele>135</ele>
        <time>2025-05-15T12:44:16.000Z</time>
      </trkpt>
      <trkpt lat="47.79846" lon="-2.6322">
        <ele>135</ele>
        <time>2025-05-15T12:44:17.000Z</time>
      </trkpt>
      <trkpt lat="47.79847" lon="-2.63225">
        <ele>135</ele>
        <time>2025-05-15T12:44:18.000Z</time>
      </trkpt>
      <trkpt lat="47.79848" lon="-2.6323">
        <ele>135</ele>
        <time>2025-05-15T12:44:19.000Z</time>
      </trkpt>
      <trkpt lat="47.79846" lon="-2.63234">
        <ele>135.19999694824</ele>
        <time>2025-05-15T12:44:20.000Z</time>
      </trkpt>
      <trkpt lat="47.79844" lon="-2.63237">
        <ele>135.19999694824</ele>
        <time>2025-05-15T12:44:21.000Z</time>
      </trkpt>
      <trkpt lat="47.79842" lon="-2.6324">
        <ele>135.19999694824</ele>
        <time>2025-05-15T12:44:22.000Z</time>
      </trkpt>
      <trkpt lat="47.7984" lon="-2.63243">
        <ele>135.39999389648</ele>
        <time>2025-05-15T12:44:23.000Z</time>
      </trkpt>
      <trkpt lat="47.79838" lon="-2.63246">
        <ele>135.60000610352</ele>
        <time>2025-05-15T12:44:24.000Z</time>
      </trkpt>
      <trkpt lat="47.79831" lon="-2.63256">
        <ele>136.19999694824</ele>
        <time>2025-05-15T12:44:27.000Z</time>
      </trkpt>
      <trkpt lat="47.79828" lon="-2.63259">
        <ele>136.19999694824</ele>
        <time>2025-05-15T12:44:28.000Z</time>
      </trkpt>
      <trkpt lat="47.79826" lon="-2.63261">
        <ele>136.39999389648</ele>
        <time>2025-05-15T12:44:29.000Z</time>
      </trkpt>
      <trkpt lat="47.79824" lon="-2.63264">
        <ele>136.39999389648</ele>
        <time>2025-05-15T12:44:30.000Z</time>
      </trkpt>
      <trkpt lat="47.79823" lon="-2.63267">
        <ele>136.60000610352</ele>
        <time>2025-05-15T12:44:31.000Z</time>
      </trkpt>
      <trkpt lat="47.79819" lon="-2.63272">
        <ele>136.80000305176</ele>
        <time>2025-05-15T12:44:33.000Z</time>
      </trkpt>
      <trkpt lat="47.79817" lon="-2.63275">
        <ele>136.80000305176</ele>
        <time>2025-05-15T12:44:34.000Z</time>
      </trkpt>
      <trkpt lat="47.79816" lon="-2.63278">
        <ele>137.19999694824</ele>
        <time>2025-05-15T12:44:35.000Z</time>
      </trkpt>
      <trkpt lat="47.79814" lon="-2.6328">
        <ele>137.39999389648</ele>
        <time>2025-05-15T12:44:36.000Z</time>
      </trkpt>
      <trkpt lat="47.79812" lon="-2.63283">
        <ele>137.60000610352</ele>
        <time>2025-05-15T12:44:37.000Z</time>
      </trkpt>
      <trkpt lat="47.79808" lon="-2.63289">
        <ele>137.80000305176</ele>
        <time>2025-05-15T12:44:39.000Z</time>
      </trkpt>
      <trkpt lat="47.79801" lon="-2.63303">
        <ele>138.39999389648</ele>
        <time>2025-05-15T12:44:43.000Z</time>
      </trkpt>
      <trkpt lat="47.798" lon="-2.63307">
        <ele>138.39999389648</ele>
        <time>2025-05-15T12:44:44.000Z</time>
      </trkpt>
      <trkpt lat="47.79799" lon="-2.6331">
        <ele>138.60000610352</ele>
        <time>2025-05-15T12:44:45.000Z</time>
      </trkpt>
      <trkpt lat="47.79798" lon="-2.63314">
        <ele>138.60000610352</ele>
        <time>2025-05-15T12:44:46.000Z</time>
      </trkpt>
      <trkpt lat="47.79797" lon="-2.63318">
        <ele>138.80000305176</ele>
        <time>2025-05-15T12:44:47.000Z</time>
      </trkpt>
      <trkpt lat="47.79797" lon="-2.63322">
        <ele>138.80000305176</ele>
        <time>2025-05-15T12:44:48.000Z</time>
      </trkpt>
      <trkpt lat="47.79796" lon="-2.63326">
        <ele>138.80000305176</ele>
        <time>2025-05-15T12:44:49.000Z</time>
      </trkpt>
      <trkpt lat="47.79796" lon="-2.63332">
        <ele>139</ele>
        <time>2025-05-15T12:44:50.000Z</time>
      </trkpt>
      <trkpt lat="47.79796" lon="-2.63336">
        <ele>139</ele>
        <time>2025-05-15T12:44:51.000Z</time>
      </trkpt>
      <trkpt lat="47.79796" lon="-2.63342">
        <ele>139.19999694824</ele>
        <time>2025-05-15T12:44:52.000Z</time>
      </trkpt>
      <trkpt lat="47.79796" lon="-2.63347">
        <ele>139.19999694824</ele>
        <time>2025-05-15T12:44:53.000Z</time>
      </trkpt>
      <trkpt lat="47.79797" lon="-2.63352">
        <ele>139.39999389648</ele>
        <time>2025-05-15T12:44:54.000Z</time>
      </trkpt>
      <trkpt lat="47.79798" lon="-2.63357">
        <ele>139.39999389648</ele>
        <time>2025-05-15T12:44:55.000Z</time>
      </trkpt>
      <trkpt lat="47.79799" lon="-2.63362">
        <ele>139.60000610352</ele>
        <time>2025-05-15T12:44:56.000Z</time>
      </trkpt>
      <trkpt lat="47.798" lon="-2.63367">
        <ele>139.60000610352</ele>
        <time>2025-05-15T12:44:57.000Z</time>
      </trkpt>
      <trkpt lat="47.79801" lon="-2.63372">
        <ele>139.80000305176</ele>
        <time>2025-05-15T12:44:58.000Z</time>
      </trkpt>
      <trkpt lat="47.79801" lon="-2.63377">
        <ele>139.80000305176</ele>
        <time>2025-05-15T12:44:59.000Z</time>
      </trkpt>
      <trkpt lat="47.79802" lon="-2.63381">
        <ele>140</ele>
        <time>2025-05-15T12:45:00.000Z</time>
      </trkpt>
      <trkpt lat="47.79803" lon="-2.63387">
        <ele>140</ele>
        <time>2025-05-15T12:45:01.000Z</time>
      </trkpt>
      <trkpt lat="47.79804" lon="-2.63394">
        <ele>140</ele>
        <time>2025-05-15T12:45:02.000Z</time>
      </trkpt>
      <trkpt lat="47.79805" lon="-2.634">
        <ele>140.19999694824</ele>
        <time>2025-05-15T12:45:03.000Z</time>
      </trkpt>
      <trkpt lat="47.79806" lon="-2.63405">
        <ele>140.19999694824</ele>
        <time>2025-05-15T12:45:04.000Z</time>
      </trkpt>
      <trkpt lat="47.79807" lon="-2.63411">
        <ele>140.39999389648</ele>
        <time>2025-05-15T12:45:05.000Z</time>
      </trkpt>
      <trkpt lat="47.79807" lon="-2.63416">
        <ele>140.19999694824</ele>
        <time>2025-05-15T12:45:06.000Z</time>
      </trkpt>
      <trkpt lat="47.79808" lon="-2.63422">
        <ele>140.60000610352</ele>
        <time>2025-05-15T12:45:07.000Z</time>
      </trkpt>
      <trkpt lat="47.79808" lon="-2.63428">
        <ele>140.60000610352</ele>
        <time>2025-05-15T12:45:08.000Z</time>
      </trkpt>
      <trkpt lat="47.79809" lon="-2.63434">
        <ele>140.80000305176</ele>
        <time>2025-05-15T12:45:09.000Z</time>
      </trkpt>
      <trkpt lat="47.7981" lon="-2.63443">
        <ele>141.19999694824</ele>
        <time>2025-05-15T12:45:11.000Z</time>
      </trkpt>
      <trkpt lat="47.79818" lon="-2.6349">
        <ele>141.60000610352</ele>
        <time>2025-05-15T12:45:18.000Z</time>
      </trkpt>
      <trkpt lat="47.79829" lon="-2.63562">
        <ele>141.19999694824</ele>
        <time>2025-05-15T12:45:27.000Z</time>
      </trkpt>
      <trkpt lat="47.79831" lon="-2.63588">
        <ele>141.19999694824</ele>
        <time>2025-05-15T12:45:30.000Z</time>
      </trkpt>
      <trkpt lat="47.7983" lon="-2.63604">
        <ele>141</ele>
        <time>2025-05-15T12:45:32.000Z</time>
      </trkpt>
      <trkpt lat="47.79829" lon="-2.63614">
        <ele>140.80000305176</ele>
        <time>2025-05-15T12:45:33.000Z</time>
      </trkpt>
      <trkpt lat="47.79827" lon="-2.6365">
        <ele>140.80000305176</ele>
        <time>2025-05-15T12:45:37.000Z</time>
      </trkpt>
      <trkpt lat="47.79827" lon="-2.63659">
        <ele>140.80000305176</ele>
        <time>2025-05-15T12:45:38.000Z</time>
      </trkpt>
      <trkpt lat="47.79827" lon="-2.63666">
        <ele>140.60000610352</ele>
        <time>2025-05-15T12:45:39.000Z</time>
      </trkpt>
      <trkpt lat="47.79825" lon="-2.63685">
        <ele>140.19999694824</ele>
        <time>2025-05-15T12:45:41.000Z</time>
      </trkpt>
      <trkpt lat="47.79823" lon="-2.6372">
        <ele>138.80000305176</ele>
        <time>2025-05-15T12:45:45.000Z</time>
      </trkpt>
      <trkpt lat="47.7982" lon="-2.6376">
        <ele>137.80000305176</ele>
        <time>2025-05-15T12:45:49.000Z</time>
      </trkpt>
      <trkpt lat="47.79819" lon="-2.63768">
        <ele>137.39999389648</ele>
        <time>2025-05-15T12:45:50.000Z</time>
      </trkpt>
      <trkpt lat="47.79817" lon="-2.638">
        <ele>136.80000305176</ele>
        <time>2025-05-15T12:45:53.000Z</time>
      </trkpt>
      <trkpt lat="47.79816" lon="-2.63823">
        <ele>136.19999694824</ele>
        <time>2025-05-15T12:45:55.000Z</time>
      </trkpt>
      <trkpt lat="47.79815" lon="-2.63849">
        <ele>135.80000305176</ele>
        <time>2025-05-15T12:45:57.000Z</time>
      </trkpt>
      <trkpt lat="47.79814" lon="-2.63861">
        <ele>135.80000305176</ele>
        <time>2025-05-15T12:45:58.000Z</time>
      </trkpt>
      <trkpt lat="47.79815" lon="-2.63871">
        <ele>135.19999694824</ele>
        <time>2025-05-15T12:45:59.000Z</time>
      </trkpt>
      <trkpt lat="47.79816" lon="-2.63881">
        <ele>134.80000305176</ele>
        <time>2025-05-15T12:46:00.000Z</time>
      </trkpt>
      <trkpt lat="47.79821" lon="-2.63888">
        <ele>134.19999694824</ele>
        <time>2025-05-15T12:46:01.000Z</time>
      </trkpt>
      <trkpt lat="47.79825" lon="-2.63892">
        <ele>133.80000305176</ele>
        <time>2025-05-15T12:46:02.000Z</time>
      </trkpt>
      <trkpt lat="47.79832" lon="-2.63895">
        <ele>133.39999389648</ele>
        <time>2025-05-15T12:46:03.000Z</time>
      </trkpt>
      <trkpt lat="47.79839" lon="-2.63896">
        <ele>133</ele>
        <time>2025-05-15T12:46:04.000Z</time>
      </trkpt>
      <trkpt lat="47.79847" lon="-2.63897">
        <ele>132.60000610352</ele>
        <time>2025-05-15T12:46:05.000Z</time>
      </trkpt>
      <trkpt lat="47.79854" lon="-2.63899">
        <ele>132</ele>
        <time>2025-05-15T12:46:06.000Z</time>
      </trkpt>
      <trkpt lat="47.79868" lon="-2.63903">
        <ele>131.60000610352</ele>
        <time>2025-05-15T12:46:08.000Z</time>
      </trkpt>
      <trkpt lat="47.79875" lon="-2.63905">
        <ele>131.60000610352</ele>
        <time>2025-05-15T12:46:09.000Z</time>
      </trkpt>
      <trkpt lat="47.79882" lon="-2.63906">
        <ele>131.39999389648</ele>
        <time>2025-05-15T12:46:10.000Z</time>
      </trkpt>
      <trkpt lat="47.79897" lon="-2.6391">
        <ele>131.19999694824</ele>
        <time>2025-05-15T12:46:12.000Z</time>
      </trkpt>
      <trkpt lat="47.79928" lon="-2.63917">
        <ele>130.39999389648</ele>
        <time>2025-05-15T12:46:17.000Z</time>
      </trkpt>
      <trkpt lat="47.79937" lon="-2.63919">
        <ele>130.19999694824</ele>
        <time>2025-05-15T12:46:18.000Z</time>
      </trkpt>
      <trkpt lat="47.79951" lon="-2.63919">
        <ele>130</ele>
        <time>2025-05-15T12:46:20.000Z</time>
      </trkpt>
      <trkpt lat="47.79962" lon="-2.63919">
        <ele>129.80000305176</ele>
        <time>2025-05-15T12:46:22.000Z</time>
      </trkpt>
      <trkpt lat="47.79969" lon="-2.63918">
        <ele>129.80000305176</ele>
        <time>2025-05-15T12:46:23.000Z</time>
      </trkpt>
      <trkpt lat="47.79975" lon="-2.63915">
        <ele>129.60000610352</ele>
        <time>2025-05-15T12:46:24.000Z</time>
      </trkpt>
      <trkpt lat="47.79981" lon="-2.63912">
        <ele>129.39999389648</ele>
        <time>2025-05-15T12:46:25.000Z</time>
      </trkpt>
      <trkpt lat="47.79987" lon="-2.63908">
        <ele>129.19999694824</ele>
        <time>2025-05-15T12:46:26.000Z</time>
      </trkpt>
      <trkpt lat="47.79992" lon="-2.63906">
        <ele>129.19999694824</ele>
        <time>2025-05-15T12:46:27.000Z</time>
      </trkpt>
      <trkpt lat="47.79997" lon="-2.63907">
        <ele>129</ele>
        <time>2025-05-15T12:46:28.000Z</time>
      </trkpt>
      <trkpt lat="47.79999" lon="-2.63912">
        <ele>128.80000305176</ele>
        <time>2025-05-15T12:46:29.000Z</time>
      </trkpt>
      <trkpt lat="47.8" lon="-2.63919">
        <ele>128.80000305176</ele>
        <time>2025-05-15T12:46:30.000Z</time>
      </trkpt>
      <trkpt lat="47.8" lon="-2.63933">
        <ele>128.60000610352</ele>
        <time>2025-05-15T12:46:32.000Z</time>
      </trkpt>
      <trkpt lat="47.80003" lon="-2.63948">
        <ele>128.60000610352</ele>
        <time>2025-05-15T12:46:34.000Z</time>
      </trkpt>
      <trkpt lat="47.80006" lon="-2.63955">
        <ele>128.60000610352</ele>
        <time>2025-05-15T12:46:35.000Z</time>
      </trkpt>
      <trkpt lat="47.80008" lon="-2.63961">
        <ele>128.39999389648</ele>
        <time>2025-05-15T12:46:36.000Z</time>
      </trkpt>
      <trkpt lat="47.80011" lon="-2.63968">
        <ele>128.39999389648</ele>
        <time>2025-05-15T12:46:37.000Z</time>
      </trkpt>
      <trkpt lat="47.80013" lon="-2.63976">
        <ele>128.39999389648</ele>
        <time>2025-05-15T12:46:38.000Z</time>
      </trkpt>
      <trkpt lat="47.80014" lon="-2.63981">
        <ele>128.39999389648</ele>
        <time>2025-05-15T12:46:39.000Z</time>
      </trkpt>
      <trkpt lat="47.80018" lon="-2.63996">
        <ele>128.39999389648</ele>
        <time>2025-05-15T12:46:41.000Z</time>
      </trkpt>
      <trkpt lat="47.80021" lon="-2.64009">
        <ele>128.39999389648</ele>
        <time>2025-05-15T12:46:43.000Z</time>
      </trkpt>
      <trkpt lat="47.80023" lon="-2.64015">
        <ele>128.19999694824</ele>
        <time>2025-05-15T12:46:44.000Z</time>
      </trkpt>
      <trkpt lat="47.80025" lon="-2.64022">
        <ele>128.19999694824</ele>
        <time>2025-05-15T12:46:45.000Z</time>
      </trkpt>
      <trkpt lat="47.80027" lon="-2.64028">
        <ele>128</ele>
        <time>2025-05-15T12:46:46.000Z</time>
      </trkpt>
      <trkpt lat="47.80028" lon="-2.64034">
        <ele>127.80000305176</ele>
        <time>2025-05-15T12:46:47.000Z</time>
      </trkpt>
      <trkpt lat="47.8003" lon="-2.6404">
        <ele>127.59999847412</ele>
        <time>2025-05-15T12:46:48.000Z</time>
      </trkpt>
      <trkpt lat="47.80039" lon="-2.64071">
        <ele>127.40000152588</ele>
        <time>2025-05-15T12:46:53.000Z</time>
      </trkpt>
      <trkpt lat="47.8004" lon="-2.64075">
        <ele>127.40000152588</ele>
        <time>2025-05-15T12:46:54.000Z</time>
      </trkpt>
      <trkpt lat="47.80042" lon="-2.6408">
        <ele>127.40000152588</ele>
        <time>2025-05-15T12:46:55.000Z</time>
      </trkpt>
      <trkpt lat="47.80046" lon="-2.64091">
        <ele>127.59999847412</ele>
        <time>2025-05-15T12:46:57.000Z</time>
      </trkpt>
      <trkpt lat="47.80054" lon="-2.64102">
        <ele>127.80000305176</ele>
        <time>2025-05-15T12:46:59.000Z</time>
      </trkpt>
      <trkpt lat="47.80077" lon="-2.64136">
        <ele>127.19999694824</ele>
        <time>2025-05-15T12:47:04.000Z</time>
      </trkpt>
      <trkpt lat="47.80088" lon="-2.64146">
        <ele>127.40000152588</ele>
        <time>2025-05-15T12:47:06.000Z</time>
      </trkpt>
      <trkpt lat="47.80093" lon="-2.64149">
        <ele>127.40000152588</ele>
        <time>2025-05-15T12:47:07.000Z</time>
      </trkpt>
      <trkpt lat="47.80098" lon="-2.64153">
        <ele>127</ele>
        <time>2025-05-15T12:47:08.000Z</time>
      </trkpt>
      <trkpt lat="47.80106" lon="-2.64157">
        <ele>126.80000305176</ele>
        <time>2025-05-15T12:47:09.000Z</time>
      </trkpt>
      <trkpt lat="47.80113" lon="-2.64162">
        <ele>126.59999847412</ele>
        <time>2025-05-15T12:47:10.000Z</time>
      </trkpt>
      <trkpt lat="47.80119" lon="-2.64168">
        <ele>126.40000152588</ele>
        <time>2025-05-15T12:47:11.000Z</time>
      </trkpt>
      <trkpt lat="47.80132" lon="-2.64174">
        <ele>126.40000152588</ele>
        <time>2025-05-15T12:47:13.000Z</time>
      </trkpt>
      <trkpt lat="47.80137" lon="-2.64177">
        <ele>126</ele>
        <time>2025-05-15T12:47:14.000Z</time>
      </trkpt>
      <trkpt lat="47.80144" lon="-2.6418">
        <ele>125.80000305176</ele>
        <time>2025-05-15T12:47:15.000Z</time>
      </trkpt>
      <trkpt lat="47.8016" lon="-2.64189">
        <ele>125.19999694824</ele>
        <time>2025-05-15T12:47:17.000Z</time>
      </trkpt>
      <trkpt lat="47.80166" lon="-2.64193">
        <ele>125</ele>
        <time>2025-05-15T12:47:18.000Z</time>
      </trkpt>
      <trkpt lat="47.80177" lon="-2.642">
        <ele>124.40000152588</ele>
        <time>2025-05-15T12:47:20.000Z</time>
      </trkpt>
      <trkpt lat="47.80183" lon="-2.64204">
        <ele>124.19999694824</ele>
        <time>2025-05-15T12:47:21.000Z</time>
      </trkpt>
      <trkpt lat="47.80194" lon="-2.64209">
        <ele>124</ele>
        <time>2025-05-15T12:47:23.000Z</time>
      </trkpt>
      <trkpt lat="47.80199" lon="-2.64211">
        <ele>124</ele>
        <time>2025-05-15T12:47:24.000Z</time>
      </trkpt>
      <trkpt lat="47.80205" lon="-2.64214">
        <ele>124</ele>
        <time>2025-05-15T12:47:25.000Z</time>
      </trkpt>
      <trkpt lat="47.8021" lon="-2.64216">
        <ele>124</ele>
        <time>2025-05-15T12:47:26.000Z</time>
      </trkpt>
      <trkpt lat="47.80212" lon="-2.64218">
        <ele>124</ele>
        <time>2025-05-15T12:47:27.000Z</time>
      </trkpt>
      <trkpt lat="47.80221" lon="-2.64223">
        <ele>124.19999694824</ele>
        <time>2025-05-15T12:47:30.000Z</time>
      </trkpt>
      <trkpt lat="47.80227" lon="-2.64226">
        <ele>124.19999694824</ele>
        <time>2025-05-15T12:47:32.000Z</time>
      </trkpt>
      <trkpt lat="47.80239" lon="-2.64232">
        <ele>124.19999694824</ele>
        <time>2025-05-15T12:47:35.000Z</time>
      </trkpt>
      <trkpt lat="47.80253" lon="-2.64239">
        <ele>123.80000305176</ele>
        <time>2025-05-15T12:47:38.000Z</time>
      </trkpt>
      <trkpt lat="47.8026" lon="-2.64243">
        <ele>123.59999847412</ele>
        <time>2025-05-15T12:47:39.000Z</time>
      </trkpt>
      <trkpt lat="47.80267" lon="-2.64245">
        <ele>123.59999847412</ele>
        <time>2025-05-15T12:47:40.000Z</time>
      </trkpt>
      <trkpt lat="47.80273" lon="-2.64247">
        <ele>123.40000152588</ele>
        <time>2025-05-15T12:47:41.000Z</time>
      </trkpt>
      <trkpt lat="47.80281" lon="-2.6425">
        <ele>123.40000152588</ele>
        <time>2025-05-15T12:47:42.000Z</time>
      </trkpt>
      <trkpt lat="47.80294" lon="-2.64257">
        <ele>123.19999694824</ele>
        <time>2025-05-15T12:47:44.000Z</time>
      </trkpt>
      <trkpt lat="47.8031" lon="-2.64262">
        <ele>123</ele>
        <time>2025-05-15T12:47:47.000Z</time>
      </trkpt>
      <trkpt lat="47.80317" lon="-2.64263">
        <ele>123</ele>
        <time>2025-05-15T12:47:48.000Z</time>
      </trkpt>
      <trkpt lat="47.80324" lon="-2.64263">
        <ele>123</ele>
        <time>2025-05-15T12:47:49.000Z</time>
      </trkpt>
      <trkpt lat="47.80328" lon="-2.64264">
        <ele>123</ele>
        <time>2025-05-15T12:47:50.000Z</time>
      </trkpt>
      <trkpt lat="47.80336" lon="-2.64265">
        <ele>123</ele>
        <time>2025-05-15T12:47:51.000Z</time>
      </trkpt>
      <trkpt lat="47.8034" lon="-2.64267">
        <ele>123</ele>
        <time>2025-05-15T12:47:52.000Z</time>
      </trkpt>
      <trkpt lat="47.80343" lon="-2.64266">
        <ele>123</ele>
        <time>2025-05-15T12:47:53.000Z</time>
      </trkpt>
      <trkpt lat="47.80346" lon="-2.64266">
        <ele>123</ele>
        <time>2025-05-15T12:47:54.000Z</time>
      </trkpt>
      <trkpt lat="47.80351" lon="-2.64266">
        <ele>123.19999694824</ele>
        <time>2025-05-15T12:47:55.000Z</time>
      </trkpt>
      <trkpt lat="47.80357" lon="-2.64268">
        <ele>123.19999694824</ele>
        <time>2025-05-15T12:47:56.000Z</time>
      </trkpt>
      <trkpt lat="47.80364" lon="-2.64269">
        <ele>123.19999694824</ele>
        <time>2025-05-15T12:47:57.000Z</time>
      </trkpt>
      <trkpt lat="47.80369" lon="-2.64271">
        <ele>123.40000152588</ele>
        <time>2025-05-15T12:47:58.000Z</time>
      </trkpt>
      <trkpt lat="47.8037" lon="-2.64271">
        <ele>123.80000305176</ele>
        <time>2025-05-15T12:47:59.000Z</time>
      </trkpt>
      <trkpt lat="47.80371" lon="-2.64269">
        <ele>124</ele>
        <time>2025-05-15T12:48:00.000Z</time>
      </trkpt>
      <trkpt lat="47.80372" lon="-2.64268">
        <ele>124.80000305176</ele>
        <time>2025-05-15T12:48:01.000Z</time>
      </trkpt>
      <trkpt lat="47.80372" lon="-2.64267">
        <ele>125.19999694824</ele>
        <time>2025-05-15T12:48:02.000Z</time>
      </trkpt>
      <trkpt lat="47.80375" lon="-2.64266">
        <ele>125.40000152588</ele>
        <time>2025-05-15T12:48:03.000Z</time>
      </trkpt>
      <trkpt lat="47.80376" lon="-2.64265">
        <ele>125.80000305176</ele>
        <time>2025-05-15T12:48:04.000Z</time>
      </trkpt>
      <trkpt lat="47.80379" lon="-2.64263">
        <ele>126.19999694824</ele>
        <time>2025-05-15T12:48:06.000Z</time>
      </trkpt>
      <trkpt lat="47.8038" lon="-2.64263">
        <ele>126.40000152588</ele>
        <time>2025-05-15T12:48:07.000Z</time>
      </trkpt>
      <trkpt lat="47.80381" lon="-2.64262">
        <ele>126.40000152588</ele>
        <time>2025-05-15T12:48:08.000Z</time>
      </trkpt>
      <trkpt lat="47.80383" lon="-2.64261">
        <ele>126.59999847412</ele>
        <time>2025-05-15T12:48:09.000Z</time>
      </trkpt>
      <trkpt lat="47.80384" lon="-2.6426">
        <ele>126.59999847412</ele>
        <time>2025-05-15T12:48:10.000Z</time>
      </trkpt>
      <trkpt lat="47.80384" lon="-2.64259">
        <ele>126.80000305176</ele>
        <time>2025-05-15T12:48:11.000Z</time>
      </trkpt>
      <trkpt lat="47.80386" lon="-2.64258">
        <ele>126.80000305176</ele>
        <time>2025-05-15T12:48:12.000Z</time>
      </trkpt>
      <trkpt lat="47.80386" lon="-2.64257">
        <ele>126.80000305176</ele>
        <time>2025-05-15T12:48:13.000Z</time>
      </trkpt>
      <trkpt lat="47.80388" lon="-2.64255">
        <ele>127</ele>
        <time>2025-05-15T12:48:14.000Z</time>
      </trkpt>
      <trkpt lat="47.80388" lon="-2.64254">
        <ele>127</ele>
        <time>2025-05-15T12:48:15.000Z</time>
      </trkpt>
      <trkpt lat="47.80388" lon="-2.64252">
        <ele>127.19999694824</ele>
        <time>2025-05-15T12:48:16.000Z</time>
      </trkpt>
      <trkpt lat="47.80388" lon="-2.64251">
        <ele>127.40000152588</ele>
        <time>2025-05-15T12:48:17.000Z</time>
      </trkpt>
      <trkpt lat="47.80388" lon="-2.64249">
        <ele>127.59999847412</ele>
        <time>2025-05-15T12:48:18.000Z</time>
      </trkpt>
      <trkpt lat="47.80388" lon="-2.64247">
        <ele>127.80000305176</ele>
        <time>2025-05-15T12:48:19.000Z</time>
      </trkpt>
      <trkpt lat="47.80388" lon="-2.64246">
        <ele>127.80000305176</ele>
        <time>2025-05-15T12:48:20.000Z</time>
      </trkpt>
      <trkpt lat="47.80388" lon="-2.64245">
        <ele>128</ele>
        <time>2025-05-15T12:48:21.000Z</time>
      </trkpt>
      <trkpt lat="47.80388" lon="-2.64243">
        <ele>128.19999694824</ele>
        <time>2025-05-15T12:48:22.000Z</time>
      </trkpt>
      <trkpt lat="47.80388" lon="-2.64242">
        <ele>128.19999694824</ele>
        <time>2025-05-15T12:48:23.000Z</time>
      </trkpt>
      <trkpt lat="47.80388" lon="-2.64239">
        <ele>128.60000610352</ele>
        <time>2025-05-15T12:48:24.000Z</time>
      </trkpt>
      <trkpt lat="47.80388" lon="-2.64238">
        <ele>129.19999694824</ele>
        <time>2025-05-15T12:48:25.000Z</time>
      </trkpt>
      <trkpt lat="47.80389" lon="-2.64238">
        <ele>129.39999389648</ele>
        <time>2025-05-15T12:48:26.000Z</time>
      </trkpt>
      <trkpt lat="47.80389" lon="-2.64237">
        <ele>129.80000305176</ele>
        <time>2025-05-15T12:48:27.000Z</time>
      </trkpt>
      <trkpt lat="47.80389" lon="-2.64235">
        <ele>130</ele>
        <time>2025-05-15T12:48:28.000Z</time>
      </trkpt>
      <trkpt lat="47.8039" lon="-2.64233">
        <ele>130.19999694824</ele>
        <time>2025-05-15T12:48:29.000Z</time>
      </trkpt>
      <trkpt lat="47.8039" lon="-2.64232">
        <ele>130.39999389648</ele>
        <time>2025-05-15T12:48:30.000Z</time>
      </trkpt>
      <trkpt lat="47.8039" lon="-2.64231">
        <ele>130.60000610352</ele>
        <time>2025-05-15T12:48:31.000Z</time>
      </trkpt>
      <trkpt lat="47.8039" lon="-2.64229">
        <ele>130.80000305176</ele>
        <time>2025-05-15T12:48:32.000Z</time>
      </trkpt>
      <trkpt lat="47.80389" lon="-2.64227">
        <ele>131</ele>
        <time>2025-05-15T12:48:33.000Z</time>
      </trkpt>
      <trkpt lat="47.8039" lon="-2.64225">
        <ele>131.19999694824</ele>
        <time>2025-05-15T12:48:34.000Z</time>
      </trkpt>
      <trkpt lat="47.80391" lon="-2.64221">
        <ele>131.39999389648</ele>
        <time>2025-05-15T12:48:35.000Z</time>
      </trkpt>
      <trkpt lat="47.80393" lon="-2.64218">
        <ele>131.60000610352</ele>
        <time>2025-05-15T12:48:36.000Z</time>
      </trkpt>
      <trkpt lat="47.80394" lon="-2.64215">
        <ele>131.60000610352</ele>
        <time>2025-05-15T12:48:37.000Z</time>
      </trkpt>
      <trkpt lat="47.80394" lon="-2.64212">
        <ele>131.80000305176</ele>
        <time>2025-05-15T12:48:38.000Z</time>
      </trkpt>
      <trkpt lat="47.80394" lon="-2.64209">
        <ele>131.80000305176</ele>
        <time>2025-05-15T12:48:39.000Z</time>
      </trkpt>
      <trkpt lat="47.80395" lon="-2.64206">
        <ele>132</ele>
        <time>2025-05-15T12:48:40.000Z</time>
      </trkpt>
      <trkpt lat="47.80395" lon="-2.64206">
        <ele>132.19999694824</ele>
        <time>2025-05-15T12:48:41.000Z</time>
      </trkpt>
      <trkpt lat="47.80395" lon="-2.64203">
        <ele>132.19999694824</ele>
        <time>2025-05-15T12:48:42.000Z</time>
      </trkpt>
      <trkpt lat="47.80396" lon="-2.64201">
        <ele>132.39999389648</ele>
        <time>2025-05-15T12:48:43.000Z</time>
      </trkpt>
      <trkpt lat="47.80395" lon="-2.64201">
        <ele>132.80000305176</ele>
        <time>2025-05-15T12:48:44.000Z</time>
      </trkpt>
      <trkpt lat="47.80395" lon="-2.64201">
        <ele>133</ele>
        <time>2025-05-15T12:48:45.000Z</time>
      </trkpt>
      <trkpt lat="47.80396" lon="-2.642">
        <ele>133</ele>
        <time>2025-05-15T12:48:46.000Z</time>
      </trkpt>
      <trkpt lat="47.80396" lon="-2.64199">
        <ele>133.39999389648</ele>
        <time>2025-05-15T12:48:47.000Z</time>
      </trkpt>
      <trkpt lat="47.80396" lon="-2.64199">
        <ele>133.39999389648</ele>
        <time>2025-05-15T12:48:48.000Z</time>
      </trkpt>
      <trkpt lat="47.80396" lon="-2.64198">
        <ele>133.39999389648</ele>
        <time>2025-05-15T12:48:49.000Z</time>
      </trkpt>
      <trkpt lat="47.80396" lon="-2.64195">
        <ele>133.60000610352</ele>
        <time>2025-05-15T12:48:50.000Z</time>
      </trkpt>
      <trkpt lat="47.80396" lon="-2.64193">
        <ele>133.60000610352</ele>
        <time>2025-05-15T12:48:51.000Z</time>
      </trkpt>
      <trkpt lat="47.80397" lon="-2.64189">
        <ele>133.80000305176</ele>
        <time>2025-05-15T12:48:52.000Z</time>
      </trkpt>
      <trkpt lat="47.80397" lon="-2.64189">
        <ele>133.80000305176</ele>
        <time>2025-05-15T12:48:53.000Z</time>
      </trkpt>
      <trkpt lat="47.80397" lon="-2.64189">
        <ele>133.80000305176</ele>
        <time>2025-05-15T12:48:54.000Z</time>
      </trkpt>
      <trkpt lat="47.80398" lon="-2.64187">
        <ele>133.80000305176</ele>
        <time>2025-05-15T12:48:55.000Z</time>
      </trkpt>
      <trkpt lat="47.80398" lon="-2.64186">
        <ele>134</ele>
        <time>2025-05-15T12:48:56.000Z</time>
      </trkpt>
      <trkpt lat="47.804" lon="-2.64183">
        <ele>134</ele>
        <time>2025-05-15T12:48:57.000Z</time>
      </trkpt>
      <trkpt lat="47.80401" lon="-2.64181">
        <ele>134.19999694824</ele>
        <time>2025-05-15T12:48:58.000Z</time>
      </trkpt>
      <trkpt lat="47.80401" lon="-2.64178">
        <ele>134.19999694824</ele>
        <time>2025-05-15T12:48:59.000Z</time>
      </trkpt>
      <trkpt lat="47.80403" lon="-2.64175">
        <ele>134.39999389648</ele>
        <time>2025-05-15T12:49:00.000Z</time>
      </trkpt>
      <trkpt lat="47.80405" lon="-2.64172">
        <ele>134.39999389648</ele>
        <time>2025-05-15T12:49:01.000Z</time>
      </trkpt>
      <trkpt lat="47.80407" lon="-2.64169">
        <ele>134.60000610352</ele>
        <time>2025-05-15T12:49:02.000Z</time>
      </trkpt>
      <trkpt lat="47.80408" lon="-2.64165">
        <ele>134.60000610352</ele>
        <time>2025-05-15T12:49:03.000Z</time>
      </trkpt>
      <trkpt lat="47.80409" lon="-2.64161">
        <ele>134.80000305176</ele>
        <time>2025-05-15T12:49:04.000Z</time>
      </trkpt>
      <trkpt lat="47.80409" lon="-2.64157">
        <ele>134.80000305176</ele>
        <time>2025-05-15T12:49:05.000Z</time>
      </trkpt>
      <trkpt lat="47.80409" lon="-2.64153">
        <ele>134.80000305176</ele>
        <time>2025-05-15T12:49:06.000Z</time>
      </trkpt>
      <trkpt lat="47.80409" lon="-2.64149">
        <ele>135</ele>
        <time>2025-05-15T12:49:07.000Z</time>
      </trkpt>
      <trkpt lat="47.80409" lon="-2.64145">
        <ele>135</ele>
        <time>2025-05-15T12:49:08.000Z</time>
      </trkpt>
      <trkpt lat="47.80411" lon="-2.64141">
        <ele>135</ele>
        <time>2025-05-15T12:49:09.000Z</time>
      </trkpt>
      <trkpt lat="47.80412" lon="-2.64137">
        <ele>135.19999694824</ele>
        <time>2025-05-15T12:49:10.000Z</time>
      </trkpt>
      <trkpt lat="47.80412" lon="-2.64132">
        <ele>135.19999694824</ele>
        <time>2025-05-15T12:49:11.000Z</time>
      </trkpt>
      <trkpt lat="47.80413" lon="-2.64128">
        <ele>135.19999694824</ele>
        <time>2025-05-15T12:49:12.000Z</time>
      </trkpt>
      <trkpt lat="47.80414" lon="-2.64124">
        <ele>135.39999389648</ele>
        <time>2025-05-15T12:49:13.000Z</time>
      </trkpt>
      <trkpt lat="47.80414" lon="-2.64121">
        <ele>135.39999389648</ele>
        <time>2025-05-15T12:49:14.000Z</time>
      </trkpt>
      <trkpt lat="47.80417" lon="-2.64109">
        <ele>135.80000305176</ele>
        <time>2025-05-15T12:49:17.000Z</time>
      </trkpt>
      <trkpt lat="47.80422" lon="-2.64089">
        <ele>135.80000305176</ele>
        <time>2025-05-15T12:49:21.000Z</time>
      </trkpt>
      <trkpt lat="47.80426" lon="-2.64071">
        <ele>135.80000305176</ele>
        <time>2025-05-15T12:49:25.000Z</time>
      </trkpt>
      <trkpt lat="47.80426" lon="-2.64065">
        <ele>135.80000305176</ele>
        <time>2025-05-15T12:49:26.000Z</time>
      </trkpt>
      <trkpt lat="47.80426" lon="-2.64047">
        <ele>135.60000610352</ele>
        <time>2025-05-15T12:49:30.000Z</time>
      </trkpt>
      <trkpt lat="47.80428" lon="-2.64043">
        <ele>135.60000610352</ele>
        <time>2025-05-15T12:49:31.000Z</time>
      </trkpt>
      <trkpt lat="47.80431" lon="-2.64039">
        <ele>135.60000610352</ele>
        <time>2025-05-15T12:49:32.000Z</time>
      </trkpt>
      <trkpt lat="47.80433" lon="-2.64034">
        <ele>135.60000610352</ele>
        <time>2025-05-15T12:49:33.000Z</time>
      </trkpt>
      <trkpt lat="47.80434" lon="-2.6403">
        <ele>135.60000610352</ele>
        <time>2025-05-15T12:49:34.000Z</time>
      </trkpt>
      <trkpt lat="47.80435" lon="-2.64026">
        <ele>135.60000610352</ele>
        <time>2025-05-15T12:49:35.000Z</time>
      </trkpt>
      <trkpt lat="47.80435" lon="-2.64021">
        <ele>135.80000305176</ele>
        <time>2025-05-15T12:49:37.000Z</time>
      </trkpt>
      <trkpt lat="47.80437" lon="-2.64018">
        <ele>135.80000305176</ele>
        <time>2025-05-15T12:49:38.000Z</time>
      </trkpt>
      <trkpt lat="47.80437" lon="-2.64016">
        <ele>136</ele>
        <time>2025-05-15T12:49:39.000Z</time>
      </trkpt>
      <trkpt lat="47.80437" lon="-2.64012">
        <ele>136</ele>
        <time>2025-05-15T12:49:40.000Z</time>
      </trkpt>
      <trkpt lat="47.80437" lon="-2.64007">
        <ele>136</ele>
        <time>2025-05-15T12:49:42.000Z</time>
      </trkpt>
      <trkpt lat="47.80438" lon="-2.64004">
        <ele>136</ele>
        <time>2025-05-15T12:49:43.000Z</time>
      </trkpt>
      <trkpt lat="47.8044" lon="-2.64002">
        <ele>136</ele>
        <time>2025-05-15T12:49:44.000Z</time>
      </trkpt>
      <trkpt lat="47.80441" lon="-2.64">
        <ele>136</ele>
        <time>2025-05-15T12:49:45.000Z</time>
      </trkpt>
      <trkpt lat="47.80443" lon="-2.63997">
        <ele>136</ele>
        <time>2025-05-15T12:49:46.000Z</time>
      </trkpt>
      <trkpt lat="47.80445" lon="-2.63994">
        <ele>136</ele>
        <time>2025-05-15T12:49:47.000Z</time>
      </trkpt>
      <trkpt lat="47.80452" lon="-2.63981">
        <ele>135.80000305176</ele>
        <time>2025-05-15T12:49:51.000Z</time>
      </trkpt>
      <trkpt lat="47.80454" lon="-2.63978">
        <ele>135.60000610352</ele>
        <time>2025-05-15T12:49:52.000Z</time>
      </trkpt>
      <trkpt lat="47.80456" lon="-2.63975">
        <ele>135.60000610352</ele>
        <time>2025-05-15T12:49:53.000Z</time>
      </trkpt>
      <trkpt lat="47.80458" lon="-2.63971">
        <ele>135.60000610352</ele>
        <time>2025-05-15T12:49:54.000Z</time>
      </trkpt>
      <trkpt lat="47.80459" lon="-2.63967">
        <ele>135.60000610352</ele>
        <time>2025-05-15T12:49:55.000Z</time>
      </trkpt>
      <trkpt lat="47.8046" lon="-2.63964">
        <ele>135.60000610352</ele>
        <time>2025-05-15T12:49:56.000Z</time>
      </trkpt>
      <trkpt lat="47.80461" lon="-2.6396">
        <ele>135.39999389648</ele>
        <time>2025-05-15T12:49:57.000Z</time>
      </trkpt>
      <trkpt lat="47.80462" lon="-2.63957">
        <ele>135.19999694824</ele>
        <time>2025-05-15T12:49:58.000Z</time>
      </trkpt>
      <trkpt lat="47.80464" lon="-2.63955">
        <ele>135.19999694824</ele>
        <time>2025-05-15T12:49:59.000Z</time>
      </trkpt>
      <trkpt lat="47.80465" lon="-2.63952">
        <ele>135</ele>
        <time>2025-05-15T12:50:00.000Z</time>
      </trkpt>
      <trkpt lat="47.80466" lon="-2.63951">
        <ele>135</ele>
        <time>2025-05-15T12:50:01.000Z</time>
      </trkpt>
      <trkpt lat="47.80471" lon="-2.63949">
        <ele>135</ele>
        <time>2025-05-15T12:50:03.000Z</time>
      </trkpt>
      <trkpt lat="47.80473" lon="-2.63948">
        <ele>135</ele>
        <time>2025-05-15T12:50:04.000Z</time>
      </trkpt>
      <trkpt lat="47.80476" lon="-2.63947">
        <ele>135</ele>
        <time>2025-05-15T12:50:05.000Z</time>
      </trkpt>
      <trkpt lat="47.80487" lon="-2.63942">
        <ele>135.19999694824</ele>
        <time>2025-05-15T12:50:08.000Z</time>
      </trkpt>
      <trkpt lat="47.80495" lon="-2.6394">
        <ele>135.19999694824</ele>
        <time>2025-05-15T12:50:11.000Z</time>
      </trkpt>
      <trkpt lat="47.80498" lon="-2.63938">
        <ele>135.19999694824</ele>
        <time>2025-05-15T12:50:12.000Z</time>
      </trkpt>
      <trkpt lat="47.80516" lon="-2.63931">
        <ele>135</ele>
        <time>2025-05-15T12:50:17.000Z</time>
      </trkpt>
      <trkpt lat="47.80519" lon="-2.63932">
        <ele>134.60000610352</ele>
        <time>2025-05-15T12:50:18.000Z</time>
      </trkpt>
      <trkpt lat="47.80531" lon="-2.63934">
        <ele>134.39999389648</ele>
        <time>2025-05-15T12:50:21.000Z</time>
      </trkpt>
      <trkpt lat="47.80562" lon="-2.63941">
        <ele>133.60000610352</ele>
        <time>2025-05-15T12:50:28.000Z</time>
      </trkpt>
      <trkpt lat="47.80578" lon="-2.63942">
        <ele>133.60000610352</ele>
        <time>2025-05-15T12:50:31.000Z</time>
      </trkpt>
      <trkpt lat="47.80583" lon="-2.63943">
        <ele>133.39999389648</ele>
        <time>2025-05-15T12:50:32.000Z</time>
      </trkpt>
      <trkpt lat="47.80587" lon="-2.63944">
        <ele>133.39999389648</ele>
        <time>2025-05-15T12:50:33.000Z</time>
      </trkpt>
      <trkpt lat="47.80596" lon="-2.63946">
        <ele>133.19999694824</ele>
        <time>2025-05-15T12:50:35.000Z</time>
      </trkpt>
      <trkpt lat="47.80601" lon="-2.63947">
        <ele>133</ele>
        <time>2025-05-15T12:50:36.000Z</time>
      </trkpt>
      <trkpt lat="47.80605" lon="-2.63947">
        <ele>133</ele>
        <time>2025-05-15T12:50:37.000Z</time>
      </trkpt>
      <trkpt lat="47.80609" lon="-2.63948">
        <ele>132.80000305176</ele>
        <time>2025-05-15T12:50:38.000Z</time>
      </trkpt>
      <trkpt lat="47.80624" lon="-2.6395">
        <ele>132.80000305176</ele>
        <time>2025-05-15T12:50:41.000Z</time>
      </trkpt>
      <trkpt lat="47.80628" lon="-2.6395">
        <ele>132.80000305176</ele>
        <time>2025-05-15T12:50:42.000Z</time>
      </trkpt>
      <trkpt lat="47.80633" lon="-2.63951">
        <ele>132.60000610352</ele>
        <time>2025-05-15T12:50:43.000Z</time>
      </trkpt>
      <trkpt lat="47.80637" lon="-2.63951">
        <ele>132.60000610352</ele>
        <time>2025-05-15T12:50:44.000Z</time>
      </trkpt>
      <trkpt lat="47.80645" lon="-2.63953">
        <ele>132.60000610352</ele>
        <time>2025-05-15T12:50:46.000Z</time>
      </trkpt>
      <trkpt lat="47.80649" lon="-2.63953">
        <ele>132.60000610352</ele>
        <time>2025-05-15T12:50:47.000Z</time>
      </trkpt>
      <trkpt lat="47.80653" lon="-2.63954">
        <ele>132.80000305176</ele>
        <time>2025-05-15T12:50:48.000Z</time>
      </trkpt>
      <trkpt lat="47.80657" lon="-2.63954">
        <ele>132.80000305176</ele>
        <time>2025-05-15T12:50:49.000Z</time>
      </trkpt>
      <trkpt lat="47.8067" lon="-2.63957">
        <ele>132.80000305176</ele>
        <time>2025-05-15T12:50:52.000Z</time>
      </trkpt>
      <trkpt lat="47.80691" lon="-2.6396">
        <ele>132.80000305176</ele>
        <time>2025-05-15T12:50:57.000Z</time>
      </trkpt>
      <trkpt lat="47.80704" lon="-2.63961">
        <ele>132.60000610352</ele>
        <time>2025-05-15T12:51:00.000Z</time>
      </trkpt>
      <trkpt lat="47.80723" lon="-2.63965">
        <ele>132.39999389648</ele>
        <time>2025-05-15T12:51:04.000Z</time>
      </trkpt>
      <trkpt lat="47.80728" lon="-2.63966">
        <ele>132.19999694824</ele>
        <time>2025-05-15T12:51:05.000Z</time>
      </trkpt>
      <trkpt lat="47.80733" lon="-2.63967">
        <ele>132.19999694824</ele>
        <time>2025-05-15T12:51:06.000Z</time>
      </trkpt>
      <trkpt lat="47.80742" lon="-2.63968">
        <ele>132.19999694824</ele>
        <time>2025-05-15T12:51:08.000Z</time>
      </trkpt>
      <trkpt lat="47.80746" lon="-2.63968">
        <ele>132.19999694824</ele>
        <time>2025-05-15T12:51:09.000Z</time>
      </trkpt>
      <trkpt lat="47.8075" lon="-2.63968">
        <ele>132.19999694824</ele>
        <time>2025-05-15T12:51:10.000Z</time>
      </trkpt>
      <trkpt lat="47.80753" lon="-2.63969">
        <ele>132.19999694824</ele>
        <time>2025-05-15T12:51:11.000Z</time>
      </trkpt>
      <trkpt lat="47.80761" lon="-2.6397">
        <ele>132.19999694824</ele>
        <time>2025-05-15T12:51:13.000Z</time>
      </trkpt>
      <trkpt lat="47.80769" lon="-2.63972">
        <ele>132</ele>
        <time>2025-05-15T12:51:15.000Z</time>
      </trkpt>
      <trkpt lat="47.80773" lon="-2.63972">
        <ele>132</ele>
        <time>2025-05-15T12:51:16.000Z</time>
      </trkpt>
      <trkpt lat="47.80775" lon="-2.63972">
        <ele>131.80000305176</ele>
        <time>2025-05-15T12:51:17.000Z</time>
      </trkpt>
      <trkpt lat="47.80777" lon="-2.63973">
        <ele>131.80000305176</ele>
        <time>2025-05-15T12:51:18.000Z</time>
      </trkpt>
      <trkpt lat="47.8078" lon="-2.63972">
        <ele>131.39999389648</ele>
        <time>2025-05-15T12:51:19.000Z</time>
      </trkpt>
      <trkpt lat="47.80782" lon="-2.6397">
        <ele>131.39999389648</ele>
        <time>2025-05-15T12:51:20.000Z</time>
      </trkpt>
      <trkpt lat="47.80784" lon="-2.63968">
        <ele>131.19999694824</ele>
        <time>2025-05-15T12:51:21.000Z</time>
      </trkpt>
      <trkpt lat="47.80786" lon="-2.63967">
        <ele>131.19999694824</ele>
        <time>2025-05-15T12:51:22.000Z</time>
      </trkpt>
      <trkpt lat="47.80789" lon="-2.63965">
        <ele>131</ele>
        <time>2025-05-15T12:51:23.000Z</time>
      </trkpt>
      <trkpt lat="47.80797" lon="-2.6396">
        <ele>131</ele>
        <time>2025-05-15T12:51:25.000Z</time>
      </trkpt>
      <trkpt lat="47.80805" lon="-2.63956">
        <ele>130.80000305176</ele>
        <time>2025-05-15T12:51:27.000Z</time>
      </trkpt>
      <trkpt lat="47.80809" lon="-2.63954">
        <ele>130.80000305176</ele>
        <time>2025-05-15T12:51:28.000Z</time>
      </trkpt>
      <trkpt lat="47.80825" lon="-2.63943">
        <ele>130.80000305176</ele>
        <time>2025-05-15T12:51:32.000Z</time>
      </trkpt>
      <trkpt lat="47.80833" lon="-2.63937">
        <ele>131</ele>
        <time>2025-05-15T12:51:34.000Z</time>
      </trkpt>
      <trkpt lat="47.80837" lon="-2.63934">
        <ele>131</ele>
        <time>2025-05-15T12:51:35.000Z</time>
      </trkpt>
      <trkpt lat="47.8084" lon="-2.63932">
        <ele>131</ele>
        <time>2025-05-15T12:51:36.000Z</time>
      </trkpt>
      <trkpt lat="47.80844" lon="-2.63929">
        <ele>131</ele>
        <time>2025-05-15T12:51:37.000Z</time>
      </trkpt>
      <trkpt lat="47.80848" lon="-2.63927">
        <ele>131</ele>
        <time>2025-05-15T12:51:38.000Z</time>
      </trkpt>
      <trkpt lat="47.80851" lon="-2.63925">
        <ele>131</ele>
        <time>2025-05-15T12:51:39.000Z</time>
      </trkpt>
      <trkpt lat="47.80854" lon="-2.63923">
        <ele>131</ele>
        <time>2025-05-15T12:51:40.000Z</time>
      </trkpt>
      <trkpt lat="47.80861" lon="-2.63919">
        <ele>131</ele>
        <time>2025-05-15T12:51:42.000Z</time>
      </trkpt>
      <trkpt lat="47.80864" lon="-2.63917">
        <ele>131</ele>
        <time>2025-05-15T12:51:43.000Z</time>
      </trkpt>
      <trkpt lat="47.80868" lon="-2.63914">
        <ele>131</ele>
        <time>2025-05-15T12:51:44.000Z</time>
      </trkpt>
      <trkpt lat="47.80875" lon="-2.63911">
        <ele>131</ele>
        <time>2025-05-15T12:51:46.000Z</time>
      </trkpt>
      <trkpt lat="47.80894" lon="-2.63901">
        <ele>130.80000305176</ele>
        <time>2025-05-15T12:51:50.000Z</time>
      </trkpt>
      <trkpt lat="47.80911" lon="-2.63891">
        <ele>130.80000305176</ele>
        <time>2025-05-15T12:51:53.000Z</time>
      </trkpt>
      <trkpt lat="47.80916" lon="-2.63887">
        <ele>130.80000305176</ele>
        <time>2025-05-15T12:51:54.000Z</time>
      </trkpt>
      <trkpt lat="47.8092" lon="-2.63883">
        <ele>130.80000305176</ele>
        <time>2025-05-15T12:51:55.000Z</time>
      </trkpt>
      <trkpt lat="47.80924" lon="-2.63879">
        <ele>130.80000305176</ele>
        <time>2025-05-15T12:51:56.000Z</time>
      </trkpt>
      <trkpt lat="47.80928" lon="-2.63876">
        <ele>130.80000305176</ele>
        <time>2025-05-15T12:51:57.000Z</time>
      </trkpt>
      <trkpt lat="47.80931" lon="-2.63876">
        <ele>131.19999694824</ele>
        <time>2025-05-15T12:51:58.000Z</time>
      </trkpt>
      <trkpt lat="47.80933" lon="-2.63879">
        <ele>131.19999694824</ele>
        <time>2025-05-15T12:51:59.000Z</time>
      </trkpt>
      <trkpt lat="47.80937" lon="-2.63886">
        <ele>131.39999389648</ele>
        <time>2025-05-15T12:52:01.000Z</time>
      </trkpt>
      <trkpt lat="47.80938" lon="-2.6389">
        <ele>131.60000610352</ele>
        <time>2025-05-15T12:52:02.000Z</time>
      </trkpt>
      <trkpt lat="47.80939" lon="-2.63894">
        <ele>131.60000610352</ele>
        <time>2025-05-15T12:52:03.000Z</time>
      </trkpt>
      <trkpt lat="47.8094" lon="-2.63897">
        <ele>131.80000305176</ele>
        <time>2025-05-15T12:52:04.000Z</time>
      </trkpt>
      <trkpt lat="47.8094" lon="-2.63899">
        <ele>132</ele>
        <time>2025-05-15T12:52:05.000Z</time>
      </trkpt>
      <trkpt lat="47.8094" lon="-2.63901">
        <ele>132</ele>
        <time>2025-05-15T12:52:06.000Z</time>
      </trkpt>
      <trkpt lat="47.8094" lon="-2.63902">
        <ele>132</ele>
        <time>2025-05-15T12:52:07.000Z</time>
      </trkpt>
      <trkpt lat="47.80941" lon="-2.63904">
        <ele>132</ele>
        <time>2025-05-15T12:52:08.000Z</time>
      </trkpt>
      <trkpt lat="47.80942" lon="-2.63916">
        <ele>132</ele>
        <time>2025-05-15T12:52:12.000Z</time>
      </trkpt>
      <trkpt lat="47.80943" lon="-2.63919">
        <ele>132</ele>
        <time>2025-05-15T12:52:13.000Z</time>
      </trkpt>
      <trkpt lat="47.80944" lon="-2.63921">
        <ele>132</ele>
        <time>2025-05-15T12:52:14.000Z</time>
      </trkpt>
      <trkpt lat="47.80947" lon="-2.63926">
        <ele>131.80000305176</ele>
        <time>2025-05-15T12:52:16.000Z</time>
      </trkpt>
      <trkpt lat="47.80948" lon="-2.63928">
        <ele>131.80000305176</ele>
        <time>2025-05-15T12:52:17.000Z</time>
      </trkpt>
      <trkpt lat="47.80955" lon="-2.63939">
        <ele>131.39999389648</ele>
        <time>2025-05-15T12:52:21.000Z</time>
      </trkpt>
      <trkpt lat="47.80961" lon="-2.63943">
        <ele>131.39999389648</ele>
        <time>2025-05-15T12:52:23.000Z</time>
      </trkpt>
      <trkpt lat="47.80964" lon="-2.63944">
        <ele>131.39999389648</ele>
        <time>2025-05-15T12:52:24.000Z</time>
      </trkpt>
      <trkpt lat="47.80967" lon="-2.63943">
        <ele>131.60000610352</ele>
        <time>2025-05-15T12:52:25.000Z</time>
      </trkpt>
      <trkpt lat="47.80976" lon="-2.63941">
        <ele>131.60000610352</ele>
        <time>2025-05-15T12:52:27.000Z</time>
      </trkpt>
      <trkpt lat="47.80988" lon="-2.63943">
        <ele>131.39999389648</ele>
        <time>2025-05-15T12:52:29.000Z</time>
      </trkpt>
      <trkpt lat="47.80992" lon="-2.63945">
        <ele>131.39999389648</ele>
        <time>2025-05-15T12:52:30.000Z</time>
      </trkpt>
      <trkpt lat="47.80999" lon="-2.63948">
        <ele>131.39999389648</ele>
        <time>2025-05-15T12:52:31.000Z</time>
      </trkpt>
      <trkpt lat="47.81019" lon="-2.63952">
        <ele>131.19999694824</ele>
        <time>2025-05-15T12:52:34.000Z</time>
      </trkpt>
      <trkpt lat="47.81024" lon="-2.63953">
        <ele>131</ele>
        <time>2025-05-15T12:52:35.000Z</time>
      </trkpt>
      <trkpt lat="47.8103" lon="-2.63954">
        <ele>130.60000610352</ele>
        <time>2025-05-15T12:52:36.000Z</time>
      </trkpt>
      <trkpt lat="47.81043" lon="-2.63958">
        <ele>129.60000610352</ele>
        <time>2025-05-15T12:52:38.000Z</time>
      </trkpt>
      <trkpt lat="47.81049" lon="-2.63957">
        <ele>128</ele>
        <time>2025-05-15T12:52:39.000Z</time>
      </trkpt>
      <trkpt lat="47.81054" lon="-2.63956">
        <ele>127.19999694824</ele>
        <time>2025-05-15T12:52:40.000Z</time>
      </trkpt>
      <trkpt lat="47.81058" lon="-2.63957">
        <ele>126.19999694824</ele>
        <time>2025-05-15T12:52:41.000Z</time>
      </trkpt>
      <trkpt lat="47.81062" lon="-2.63956">
        <ele>125.80000305176</ele>
        <time>2025-05-15T12:52:42.000Z</time>
      </trkpt>
      <trkpt lat="47.81067" lon="-2.63955">
        <ele>125.19999694824</ele>
        <time>2025-05-15T12:52:43.000Z</time>
      </trkpt>
      <trkpt lat="47.81071" lon="-2.63956">
        <ele>124.80000305176</ele>
        <time>2025-05-15T12:52:44.000Z</time>
      </trkpt>
      <trkpt lat="47.81074" lon="-2.6396">
        <ele>124.19999694824</ele>
        <time>2025-05-15T12:52:45.000Z</time>
      </trkpt>
      <trkpt lat="47.81078" lon="-2.63966">
        <ele>123.80000305176</ele>
        <time>2025-05-15T12:52:46.000Z</time>
      </trkpt>
      <trkpt lat="47.81083" lon="-2.63971">
        <ele>123</ele>
        <time>2025-05-15T12:52:47.000Z</time>
      </trkpt>
      <trkpt lat="47.81085" lon="-2.63975">
        <ele>122.19999694824</ele>
        <time>2025-05-15T12:52:48.000Z</time>
      </trkpt>
      <trkpt lat="47.81087" lon="-2.63976">
        <ele>121.59999847412</ele>
        <time>2025-05-15T12:52:49.000Z</time>
      </trkpt>
      <trkpt lat="47.8109" lon="-2.63975">
        <ele>119.80000305176</ele>
        <time>2025-05-15T12:52:50.000Z</time>
      </trkpt>
      <trkpt lat="47.81094" lon="-2.63974">
        <ele>119</ele>
        <time>2025-05-15T12:52:51.000Z</time>
      </trkpt>
      <trkpt lat="47.81098" lon="-2.63972">
        <ele>118</ele>
        <time>2025-05-15T12:52:52.000Z</time>
      </trkpt>
      <trkpt lat="47.81103" lon="-2.63973">
        <ele>117.80000305176</ele>
        <time>2025-05-15T12:52:53.000Z</time>
      </trkpt>
      <trkpt lat="47.81108" lon="-2.63976">
        <ele>117.19999694824</ele>
        <time>2025-05-15T12:52:54.000Z</time>
      </trkpt>
      <trkpt lat="47.81114" lon="-2.63981">
        <ele>116.40000152588</ele>
        <time>2025-05-15T12:52:55.000Z</time>
      </trkpt>
      <trkpt lat="47.81117" lon="-2.63986">
        <ele>115.80000305176</ele>
        <time>2025-05-15T12:52:56.000Z</time>
      </trkpt>
      <trkpt lat="47.81119" lon="-2.63991">
        <ele>115.19999694824</ele>
        <time>2025-05-15T12:52:57.000Z</time>
      </trkpt>
      <trkpt lat="47.8112" lon="-2.63996">
        <ele>115</ele>
        <time>2025-05-15T12:52:58.000Z</time>
      </trkpt>
      <trkpt lat="47.81122" lon="-2.64001">
        <ele>113.80000305176</ele>
        <time>2025-05-15T12:52:59.000Z</time>
      </trkpt>
      <trkpt lat="47.81126" lon="-2.64006">
        <ele>113.40000152588</ele>
        <time>2025-05-15T12:53:00.000Z</time>
      </trkpt>
      <trkpt lat="47.81126" lon="-2.64013">
        <ele>112.19999694824</ele>
        <time>2025-05-15T12:53:01.000Z</time>
      </trkpt>
      <trkpt lat="47.81125" lon="-2.64019">
        <ele>111.59999847412</ele>
        <time>2025-05-15T12:53:02.000Z</time>
      </trkpt>
      <trkpt lat="47.81125" lon="-2.64025">
        <ele>110.19999694824</ele>
        <time>2025-05-15T12:53:03.000Z</time>
      </trkpt>
      <trkpt lat="47.81124" lon="-2.6403">
        <ele>108.40000152588</ele>
        <time>2025-05-15T12:53:04.000Z</time>
      </trkpt>
      <trkpt lat="47.81123" lon="-2.64036">
        <ele>107.80000305176</ele>
        <time>2025-05-15T12:53:05.000Z</time>
      </trkpt>
      <trkpt lat="47.81122" lon="-2.6404">
        <ele>106.80000305176</ele>
        <time>2025-05-15T12:53:06.000Z</time>
      </trkpt>
      <trkpt lat="47.81122" lon="-2.64047">
        <ele>106.19999694824</ele>
        <time>2025-05-15T12:53:07.000Z</time>
      </trkpt>
      <trkpt lat="47.8112" lon="-2.64052">
        <ele>105</ele>
        <time>2025-05-15T12:53:08.000Z</time>
      </trkpt>
      <trkpt lat="47.8112" lon="-2.64054">
        <ele>104</ele>
        <time>2025-05-15T12:53:09.000Z</time>
      </trkpt>
      <trkpt lat="47.8112" lon="-2.64055">
        <ele>102.80000305176</ele>
        <time>2025-05-15T12:53:10.000Z</time>
      </trkpt>
      <trkpt lat="47.8112" lon="-2.64054">
        <ele>102.40000152588</ele>
        <time>2025-05-15T12:53:11.000Z</time>
      </trkpt>
      <trkpt lat="47.81121" lon="-2.64053">
        <ele>100.59999847412</ele>
        <time>2025-05-15T12:53:12.000Z</time>
      </trkpt>
      <trkpt lat="47.81122" lon="-2.64051">
        <ele>99.599998474121</ele>
        <time>2025-05-15T12:53:13.000Z</time>
      </trkpt>
      <trkpt lat="47.81123" lon="-2.64051">
        <ele>99</ele>
        <time>2025-05-15T12:53:14.000Z</time>
      </trkpt>
      <trkpt lat="47.81126" lon="-2.6405">
        <ele>98</ele>
        <time>2025-05-15T12:53:16.000Z</time>
      </trkpt>
      <trkpt lat="47.81128" lon="-2.64049">
        <ele>97.599998474121</ele>
        <time>2025-05-15T12:53:17.000Z</time>
      </trkpt>
      <trkpt lat="47.8113" lon="-2.64049">
        <ele>97.599998474121</ele>
        <time>2025-05-15T12:53:18.000Z</time>
      </trkpt>
      <trkpt lat="47.81133" lon="-2.64049">
        <ele>96.599998474121</ele>
        <time>2025-05-15T12:53:20.000Z</time>
      </trkpt>
      <trkpt lat="47.81134" lon="-2.6405">
        <ele>96.400001525879</ele>
        <time>2025-05-15T12:53:22.000Z</time>
      </trkpt>
      <trkpt lat="47.81135" lon="-2.64053">
        <ele>96.199996948242</ele>
        <time>2025-05-15T12:53:23.000Z</time>
      </trkpt>
      <trkpt lat="47.81136" lon="-2.64056">
        <ele>96</ele>
        <time>2025-05-15T12:53:24.000Z</time>
      </trkpt>
      <trkpt lat="47.81137" lon="-2.64057">
        <ele>96</ele>
        <time>2025-05-15T12:53:25.000Z</time>
      </trkpt>
      <trkpt lat="47.81137" lon="-2.64059">
        <ele>95.800003051758</ele>
        <time>2025-05-15T12:53:26.000Z</time>
      </trkpt>
      <trkpt lat="47.81137" lon="-2.64061">
        <ele>95.599998474121</ele>
        <time>2025-05-15T12:53:27.000Z</time>
      </trkpt>
      <trkpt lat="47.81138" lon="-2.64063">
        <ele>95.199996948242</ele>
        <time>2025-05-15T12:53:28.000Z</time>
      </trkpt>
      <trkpt lat="47.81139" lon="-2.64065">
        <ele>95.199996948242</ele>
        <time>2025-05-15T12:53:29.000Z</time>
      </trkpt>
      <trkpt lat="47.81139" lon="-2.64067">
        <ele>95.199996948242</ele>
        <time>2025-05-15T12:53:30.000Z</time>
      </trkpt>
      <trkpt lat="47.8114" lon="-2.64068">
        <ele>95</ele>
        <time>2025-05-15T12:53:31.000Z</time>
      </trkpt>
      <trkpt lat="47.81142" lon="-2.6407">
        <ele>95</ele>
        <time>2025-05-15T12:53:32.000Z</time>
      </trkpt>
      <trkpt lat="47.81145" lon="-2.64072">
        <ele>94.800003051758</ele>
        <time>2025-05-15T12:53:33.000Z</time>
      </trkpt>
      <trkpt lat="47.81149" lon="-2.64074">
        <ele>94.800003051758</ele>
        <time>2025-05-15T12:53:35.000Z</time>
      </trkpt>
      <trkpt lat="47.81151" lon="-2.64073">
        <ele>95</ele>
        <time>2025-05-15T12:53:36.000Z</time>
      </trkpt>
      <trkpt lat="47.81154" lon="-2.64073">
        <ele>95</ele>
        <time>2025-05-15T12:53:37.000Z</time>
      </trkpt>
      <trkpt lat="47.81172" lon="-2.64073">
        <ele>95</ele>
        <time>2025-05-15T12:53:43.000Z</time>
      </trkpt>
      <trkpt lat="47.812" lon="-2.64069">
        <ele>94.599998474121</ele>
        <time>2025-05-15T12:53:48.000Z</time>
      </trkpt>
      <trkpt lat="47.81211" lon="-2.64067">
        <ele>94.400001525879</ele>
        <time>2025-05-15T12:53:50.000Z</time>
      </trkpt>
      <trkpt lat="47.81229" lon="-2.64064">
        <ele>93.800003051758</ele>
        <time>2025-05-15T12:53:53.000Z</time>
      </trkpt>
      <trkpt lat="47.81241" lon="-2.64066">
        <ele>93.199996948242</ele>
        <time>2025-05-15T12:53:55.000Z</time>
      </trkpt>
      <trkpt lat="47.81251" lon="-2.64065">
        <ele>92.800003051758</ele>
        <time>2025-05-15T12:53:56.000Z</time>
      </trkpt>
      <trkpt lat="47.81256" lon="-2.64064">
        <ele>92</ele>
        <time>2025-05-15T12:53:58.000Z</time>
      </trkpt>
      <trkpt lat="47.81267" lon="-2.64062">
        <ele>91.800003051758</ele>
        <time>2025-05-15T12:54:00.000Z</time>
      </trkpt>
      <trkpt lat="47.81296" lon="-2.64056">
        <ele>91.599998474121</ele>
        <time>2025-05-15T12:54:06.000Z</time>
      </trkpt>
      <trkpt lat="47.813" lon="-2.64054">
        <ele>91.599998474121</ele>
        <time>2025-05-15T12:54:07.000Z</time>
      </trkpt>
      <trkpt lat="47.8131" lon="-2.64052">
        <ele>91.599998474121</ele>
        <time>2025-05-15T12:54:09.000Z</time>
      </trkpt>
      <trkpt lat="47.81314" lon="-2.64051">
        <ele>91.599998474121</ele>
        <time>2025-05-15T12:54:10.000Z</time>
      </trkpt>
      <trkpt lat="47.81318" lon="-2.6405">
        <ele>91.599998474121</ele>
        <time>2025-05-15T12:54:11.000Z</time>
      </trkpt>
      <trkpt lat="47.81323" lon="-2.64049">
        <ele>91.599998474121</ele>
        <time>2025-05-15T12:54:12.000Z</time>
      </trkpt>
      <trkpt lat="47.81327" lon="-2.64048">
        <ele>91.400001525879</ele>
        <time>2025-05-15T12:54:13.000Z</time>
      </trkpt>
      <trkpt lat="47.81331" lon="-2.64047">
        <ele>91.400001525879</ele>
        <time>2025-05-15T12:54:14.000Z</time>
      </trkpt>
      <trkpt lat="47.81335" lon="-2.64046">
        <ele>91.599998474121</ele>
        <time>2025-05-15T12:54:15.000Z</time>
      </trkpt>
      <trkpt lat="47.81343" lon="-2.64044">
        <ele>91.400001525879</ele>
        <time>2025-05-15T12:54:17.000Z</time>
      </trkpt>
      <trkpt lat="47.81348" lon="-2.64043">
        <ele>91.599998474121</ele>
        <time>2025-05-15T12:54:18.000Z</time>
      </trkpt>
      <trkpt lat="47.81352" lon="-2.64041">
        <ele>91.599998474121</ele>
        <time>2025-05-15T12:54:19.000Z</time>
      </trkpt>
      <trkpt lat="47.81356" lon="-2.6404">
        <ele>91.599998474121</ele>
        <time>2025-05-15T12:54:20.000Z</time>
      </trkpt>
      <trkpt lat="47.81359" lon="-2.6404">
        <ele>91.599998474121</ele>
        <time>2025-05-15T12:54:21.000Z</time>
      </trkpt>
      <trkpt lat="47.81363" lon="-2.64039">
        <ele>91.599998474121</ele>
        <time>2025-05-15T12:54:22.000Z</time>
      </trkpt>
      <trkpt lat="47.81366" lon="-2.64038">
        <ele>91.800003051758</ele>
        <time>2025-05-15T12:54:23.000Z</time>
      </trkpt>
      <trkpt lat="47.8137" lon="-2.64037">
        <ele>91.599998474121</ele>
        <time>2025-05-15T12:54:24.000Z</time>
      </trkpt>
      <trkpt lat="47.81373" lon="-2.64037">
        <ele>91.800003051758</ele>
        <time>2025-05-15T12:54:25.000Z</time>
      </trkpt>
      <trkpt lat="47.81393" lon="-2.64034">
        <ele>91.400001525879</ele>
        <time>2025-05-15T12:54:30.000Z</time>
      </trkpt>
      <trkpt lat="47.81403" lon="-2.64033">
        <ele>91.199996948242</ele>
        <time>2025-05-15T12:54:32.000Z</time>
      </trkpt>
      <trkpt lat="47.81419" lon="-2.64032">
        <ele>90.800003051758</ele>
        <time>2025-05-15T12:54:35.000Z</time>
      </trkpt>
      <trkpt lat="47.81424" lon="-2.64032">
        <ele>90.400001525879</ele>
        <time>2025-05-15T12:54:36.000Z</time>
      </trkpt>
      <trkpt lat="47.8143" lon="-2.64031">
        <ele>90</ele>
        <time>2025-05-15T12:54:37.000Z</time>
      </trkpt>
      <trkpt lat="47.81435" lon="-2.64031">
        <ele>90</ele>
        <time>2025-05-15T12:54:38.000Z</time>
      </trkpt>
      <trkpt lat="47.8144" lon="-2.6403">
        <ele>89.599998474121</ele>
        <time>2025-05-15T12:54:39.000Z</time>
      </trkpt>
      <trkpt lat="47.81445" lon="-2.6403">
        <ele>89.599998474121</ele>
        <time>2025-05-15T12:54:40.000Z</time>
      </trkpt>
      <trkpt lat="47.8145" lon="-2.64029">
        <ele>89.400001525879</ele>
        <time>2025-05-15T12:54:41.000Z</time>
      </trkpt>
      <trkpt lat="47.81455" lon="-2.64028">
        <ele>89.199996948242</ele>
        <time>2025-05-15T12:54:42.000Z</time>
      </trkpt>
      <trkpt lat="47.81459" lon="-2.64028">
        <ele>88.800003051758</ele>
        <time>2025-05-15T12:54:43.000Z</time>
      </trkpt>
      <trkpt lat="47.81462" lon="-2.64027">
        <ele>88.800003051758</ele>
        <time>2025-05-15T12:54:44.000Z</time>
      </trkpt>
      <trkpt lat="47.81466" lon="-2.64026">
        <ele>88.599998474121</ele>
        <time>2025-05-15T12:54:45.000Z</time>
      </trkpt>
      <trkpt lat="47.81468" lon="-2.64026">
        <ele>88.599998474121</ele>
        <time>2025-05-15T12:54:46.000Z</time>
      </trkpt>
      <trkpt lat="47.81471" lon="-2.64027">
        <ele>88.599998474121</ele>
        <time>2025-05-15T12:54:47.000Z</time>
      </trkpt>
      <trkpt lat="47.81472" lon="-2.64029">
        <ele>88.599998474121</ele>
        <time>2025-05-15T12:54:48.000Z</time>
      </trkpt>
      <trkpt lat="47.81472" lon="-2.64031">
        <ele>88.599998474121</ele>
        <time>2025-05-15T12:54:49.000Z</time>
      </trkpt>
      <trkpt lat="47.8147" lon="-2.64036">
        <ele>88.599998474121</ele>
        <time>2025-05-15T12:54:51.000Z</time>
      </trkpt>
      <trkpt lat="47.81469" lon="-2.64038">
        <ele>88.599998474121</ele>
        <time>2025-05-15T12:54:52.000Z</time>
      </trkpt>
      <trkpt lat="47.81467" lon="-2.6404">
        <ele>88.599998474121</ele>
        <time>2025-05-15T12:54:53.000Z</time>
      </trkpt>
      <trkpt lat="47.81466" lon="-2.64042">
        <ele>88.599998474121</ele>
        <time>2025-05-15T12:54:54.000Z</time>
      </trkpt>
      <trkpt lat="47.81465" lon="-2.64048">
        <ele>88.800003051758</ele>
        <time>2025-05-15T12:54:56.000Z</time>
      </trkpt>
      <trkpt lat="47.81464" lon="-2.64051">
        <ele>89</ele>
        <time>2025-05-15T12:54:57.000Z</time>
      </trkpt>
      <trkpt lat="47.8146" lon="-2.64064">
        <ele>89.599998474121</ele>
        <time>2025-05-15T12:55:02.000Z</time>
      </trkpt>
      <trkpt lat="47.81459" lon="-2.64067">
        <ele>89.800003051758</ele>
        <time>2025-05-15T12:55:03.000Z</time>
      </trkpt>
      <trkpt lat="47.81458" lon="-2.6407">
        <ele>90</ele>
        <time>2025-05-15T12:55:04.000Z</time>
      </trkpt>
      <trkpt lat="47.81456" lon="-2.64076">
        <ele>90</ele>
        <time>2025-05-15T12:55:06.000Z</time>
      </trkpt>
      <trkpt lat="47.81454" lon="-2.64081">
        <ele>90.199996948242</ele>
        <time>2025-05-15T12:55:08.000Z</time>
      </trkpt>
      <trkpt lat="47.81453" lon="-2.64084">
        <ele>90.199996948242</ele>
        <time>2025-05-15T12:55:09.000Z</time>
      </trkpt>
      <trkpt lat="47.81453" lon="-2.64086">
        <ele>90.400001525879</ele>
        <time>2025-05-15T12:55:10.000Z</time>
      </trkpt>
      <trkpt lat="47.81451" lon="-2.64092">
        <ele>90.800003051758</ele>
        <time>2025-05-15T12:55:12.000Z</time>
      </trkpt>
      <trkpt lat="47.81449" lon="-2.64097">
        <ele>91.199996948242</ele>
        <time>2025-05-15T12:55:14.000Z</time>
      </trkpt>
      <trkpt lat="47.81449" lon="-2.64099">
        <ele>91.599998474121</ele>
        <time>2025-05-15T12:55:15.000Z</time>
      </trkpt>
      <trkpt lat="47.81448" lon="-2.64102">
        <ele>91.800003051758</ele>
        <time>2025-05-15T12:55:16.000Z</time>
      </trkpt>
      <trkpt lat="47.81447" lon="-2.64109">
        <ele>92.199996948242</ele>
        <time>2025-05-15T12:55:18.000Z</time>
      </trkpt>
      <trkpt lat="47.81445" lon="-2.64114">
        <ele>93.199996948242</ele>
        <time>2025-05-15T12:55:20.000Z</time>
      </trkpt>
      <trkpt lat="47.81444" lon="-2.64116">
        <ele>93.400001525879</ele>
        <time>2025-05-15T12:55:21.000Z</time>
      </trkpt>
      <trkpt lat="47.81443" lon="-2.64119">
        <ele>93.599998474121</ele>
        <time>2025-05-15T12:55:22.000Z</time>
      </trkpt>
      <trkpt lat="47.81443" lon="-2.64121">
        <ele>93.599998474121</ele>
        <time>2025-05-15T12:55:23.000Z</time>
      </trkpt>
      <trkpt lat="47.81443" lon="-2.64121">
        <ele>93.800003051758</ele>
        <time>2025-05-15T12:55:24.000Z</time>
      </trkpt>
      <trkpt lat="47.81441" lon="-2.64127">
        <ele>93.800003051758</ele>
        <time>2025-05-15T12:55:25.000Z</time>
      </trkpt>
      <trkpt lat="47.8144" lon="-2.64129">
        <ele>93.800003051758</ele>
        <time>2025-05-15T12:55:26.000Z</time>
      </trkpt>
      <trkpt lat="47.8144" lon="-2.64129">
        <ele>94</ele>
        <time>2025-05-15T12:55:27.000Z</time>
      </trkpt>
      <trkpt lat="47.81439" lon="-2.64131">
        <ele>94</ele>
        <time>2025-05-15T12:55:28.000Z</time>
      </trkpt>
      <trkpt lat="47.81438" lon="-2.64136">
        <ele>94</ele>
        <time>2025-05-15T12:55:29.000Z</time>
      </trkpt>
      <trkpt lat="47.81437" lon="-2.64139">
        <ele>94</ele>
        <time>2025-05-15T12:55:30.000Z</time>
      </trkpt>
      <trkpt lat="47.81437" lon="-2.64139">
        <ele>94.199996948242</ele>
        <time>2025-05-15T12:55:31.000Z</time>
      </trkpt>
      <trkpt lat="47.81436" lon="-2.64141">
        <ele>94.199996948242</ele>
        <time>2025-05-15T12:55:32.000Z</time>
      </trkpt>
      <trkpt lat="47.81435" lon="-2.64146">
        <ele>94.400001525879</ele>
        <time>2025-05-15T12:55:33.000Z</time>
      </trkpt>
      <trkpt lat="47.81435" lon="-2.64146">
        <ele>94.599998474121</ele>
        <time>2025-05-15T12:55:34.000Z</time>
      </trkpt>
      <trkpt lat="47.81434" lon="-2.64149">
        <ele>94.800003051758</ele>
        <time>2025-05-15T12:55:35.000Z</time>
      </trkpt>
      <trkpt lat="47.81433" lon="-2.64151">
        <ele>94.800003051758</ele>
        <time>2025-05-15T12:55:36.000Z</time>
      </trkpt>
      <trkpt lat="47.81432" lon="-2.64156">
        <ele>95.199996948242</ele>
        <time>2025-05-15T12:55:37.000Z</time>
      </trkpt>
      <trkpt lat="47.81431" lon="-2.64158">
        <ele>95.400001525879</ele>
        <time>2025-05-15T12:55:38.000Z</time>
      </trkpt>
      <trkpt lat="47.81431" lon="-2.64158">
        <ele>95.599998474121</ele>
        <time>2025-05-15T12:55:39.000Z</time>
      </trkpt>
      <trkpt lat="47.8143" lon="-2.64164">
        <ele>95.800003051758</ele>
        <time>2025-05-15T12:55:40.000Z</time>
      </trkpt>
      <trkpt lat="47.81429" lon="-2.64166">
        <ele>96</ele>
        <time>2025-05-15T12:55:41.000Z</time>
      </trkpt>
      <trkpt lat="47.81428" lon="-2.64168">
        <ele>96.400001525879</ele>
        <time>2025-05-15T12:55:42.000Z</time>
      </trkpt>
      <trkpt lat="47.81427" lon="-2.6417">
        <ele>96.400001525879</ele>
        <time>2025-05-15T12:55:43.000Z</time>
      </trkpt>
      <trkpt lat="47.81426" lon="-2.64172">
        <ele>96.599998474121</ele>
        <time>2025-05-15T12:55:44.000Z</time>
      </trkpt>
      <trkpt lat="47.81426" lon="-2.64172">
        <ele>96.599998474121</ele>
        <time>2025-05-15T12:55:45.000Z</time>
      </trkpt>
      <trkpt lat="47.81425" lon="-2.64177">
        <ele>96.599998474121</ele>
        <time>2025-05-15T12:55:46.000Z</time>
      </trkpt>
      <trkpt lat="47.81424" lon="-2.64179">
        <ele>96.800003051758</ele>
        <time>2025-05-15T12:55:47.000Z</time>
      </trkpt>
      <trkpt lat="47.81424" lon="-2.64179">
        <ele>96.800003051758</ele>
        <time>2025-05-15T12:55:48.000Z</time>
      </trkpt>
      <trkpt lat="47.81423" lon="-2.64182">
        <ele>97</ele>
        <time>2025-05-15T12:55:49.000Z</time>
      </trkpt>
      <trkpt lat="47.81423" lon="-2.64182">
        <ele>97.199996948242</ele>
        <time>2025-05-15T12:55:50.000Z</time>
      </trkpt>
      <trkpt lat="47.81422" lon="-2.64184">
        <ele>97.199996948242</ele>
        <time>2025-05-15T12:55:51.000Z</time>
      </trkpt>
      <trkpt lat="47.81421" lon="-2.64188">
        <ele>97.199996948242</ele>
        <time>2025-05-15T12:55:52.000Z</time>
      </trkpt>
      <trkpt lat="47.8142" lon="-2.64189">
        <ele>97.400001525879</ele>
        <time>2025-05-15T12:55:53.000Z</time>
      </trkpt>
      <trkpt lat="47.81419" lon="-2.64191">
        <ele>97.599998474121</ele>
        <time>2025-05-15T12:55:54.000Z</time>
      </trkpt>
      <trkpt lat="47.81418" lon="-2.64192">
        <ele>97.800003051758</ele>
        <time>2025-05-15T12:55:55.000Z</time>
      </trkpt>
      <trkpt lat="47.81417" lon="-2.64194">
        <ele>98</ele>
        <time>2025-05-15T12:55:56.000Z</time>
      </trkpt>
      <trkpt lat="47.81417" lon="-2.64196">
        <ele>98</ele>
        <time>2025-05-15T12:55:57.000Z</time>
      </trkpt>
      <trkpt lat="47.81416" lon="-2.64197">
        <ele>98.199996948242</ele>
        <time>2025-05-15T12:55:58.000Z</time>
      </trkpt>
      <trkpt lat="47.81414" lon="-2.64199">
        <ele>98.199996948242</ele>
        <time>2025-05-15T12:55:59.000Z</time>
      </trkpt>
      <trkpt lat="47.81414" lon="-2.64201">
        <ele>98.400001525879</ele>
        <time>2025-05-15T12:56:00.000Z</time>
      </trkpt>
      <trkpt lat="47.81413" lon="-2.64203">
        <ele>98.800003051758</ele>
        <time>2025-05-15T12:56:01.000Z</time>
      </trkpt>
      <trkpt lat="47.81412" lon="-2.64204">
        <ele>99.199996948242</ele>
        <time>2025-05-15T12:56:02.000Z</time>
      </trkpt>
      <trkpt lat="47.81411" lon="-2.64206">
        <ele>99.599998474121</ele>
        <time>2025-05-15T12:56:03.000Z</time>
      </trkpt>
      <trkpt lat="47.8141" lon="-2.64208">
        <ele>99.599998474121</ele>
        <time>2025-05-15T12:56:04.000Z</time>
      </trkpt>
      <trkpt lat="47.81408" lon="-2.64209">
        <ele>99.800003051758</ele>
        <time>2025-05-15T12:56:05.000Z</time>
      </trkpt>
      <trkpt lat="47.81406" lon="-2.6421">
        <ele>99.800003051758</ele>
        <time>2025-05-15T12:56:06.000Z</time>
      </trkpt>
      <trkpt lat="47.81405" lon="-2.64211">
        <ele>100</ele>
        <time>2025-05-15T12:56:07.000Z</time>
      </trkpt>
      <trkpt lat="47.81403" lon="-2.64213">
        <ele>100.19999694824</ele>
        <time>2025-05-15T12:56:08.000Z</time>
      </trkpt>
      <trkpt lat="47.81401" lon="-2.64214">
        <ele>100.40000152588</ele>
        <time>2025-05-15T12:56:09.000Z</time>
      </trkpt>
      <trkpt lat="47.81399" lon="-2.64215">
        <ele>100.40000152588</ele>
        <time>2025-05-15T12:56:10.000Z</time>
      </trkpt>
      <trkpt lat="47.81397" lon="-2.64217">
        <ele>100.59999847412</ele>
        <time>2025-05-15T12:56:11.000Z</time>
      </trkpt>
      <trkpt lat="47.81394" lon="-2.64218">
        <ele>101</ele>
        <time>2025-05-15T12:56:12.000Z</time>
      </trkpt>
      <trkpt lat="47.81392" lon="-2.6422">
        <ele>101</ele>
        <time>2025-05-15T12:56:13.000Z</time>
      </trkpt>
      <trkpt lat="47.81391" lon="-2.64221">
        <ele>101.19999694824</ele>
        <time>2025-05-15T12:56:14.000Z</time>
      </trkpt>
      <trkpt lat="47.81391" lon="-2.64221">
        <ele>101.40000152588</ele>
        <time>2025-05-15T12:56:15.000Z</time>
      </trkpt>
      <trkpt lat="47.81386" lon="-2.64224">
        <ele>101.80000305176</ele>
        <time>2025-05-15T12:56:16.000Z</time>
      </trkpt>
      <trkpt lat="47.81384" lon="-2.64225">
        <ele>101.80000305176</ele>
        <time>2025-05-15T12:56:17.000Z</time>
      </trkpt>
      <trkpt lat="47.81381" lon="-2.64226">
        <ele>102.19999694824</ele>
        <time>2025-05-15T12:56:18.000Z</time>
      </trkpt>
      <trkpt lat="47.81379" lon="-2.64228">
        <ele>102.19999694824</ele>
        <time>2025-05-15T12:56:19.000Z</time>
      </trkpt>
      <trkpt lat="47.81377" lon="-2.64229">
        <ele>102.40000152588</ele>
        <time>2025-05-15T12:56:20.000Z</time>
      </trkpt>
      <trkpt lat="47.81375" lon="-2.6423">
        <ele>102.19999694824</ele>
        <time>2025-05-15T12:56:21.000Z</time>
      </trkpt>
      <trkpt lat="47.81372" lon="-2.64231">
        <ele>102.59999847412</ele>
        <time>2025-05-15T12:56:22.000Z</time>
      </trkpt>
      <trkpt lat="47.8137" lon="-2.64232">
        <ele>102.59999847412</ele>
        <time>2025-05-15T12:56:23.000Z</time>
      </trkpt>
      <trkpt lat="47.81368" lon="-2.64233">
        <ele>102.80000305176</ele>
        <time>2025-05-15T12:56:24.000Z</time>
      </trkpt>
      <trkpt lat="47.81365" lon="-2.64234">
        <ele>102.80000305176</ele>
        <time>2025-05-15T12:56:25.000Z</time>
      </trkpt>
      <trkpt lat="47.81363" lon="-2.64236">
        <ele>103</ele>
        <time>2025-05-15T12:56:26.000Z</time>
      </trkpt>
      <trkpt lat="47.81361" lon="-2.64237">
        <ele>103</ele>
        <time>2025-05-15T12:56:27.000Z</time>
      </trkpt>
      <trkpt lat="47.81358" lon="-2.64238">
        <ele>103</ele>
        <time>2025-05-15T12:56:28.000Z</time>
      </trkpt>
      <trkpt lat="47.81356" lon="-2.64239">
        <ele>103</ele>
        <time>2025-05-15T12:56:29.000Z</time>
      </trkpt>
      <trkpt lat="47.81353" lon="-2.64241">
        <ele>103</ele>
        <time>2025-05-15T12:56:30.000Z</time>
      </trkpt>
      <trkpt lat="47.81351" lon="-2.64242">
        <ele>103</ele>
        <time>2025-05-15T12:56:31.000Z</time>
      </trkpt>
      <trkpt lat="47.81348" lon="-2.64243">
        <ele>102.80000305176</ele>
        <time>2025-05-15T12:56:32.000Z</time>
      </trkpt>
      <trkpt lat="47.81346" lon="-2.64245">
        <ele>102.80000305176</ele>
        <time>2025-05-15T12:56:33.000Z</time>
      </trkpt>
      <trkpt lat="47.81344" lon="-2.64246">
        <ele>102.80000305176</ele>
        <time>2025-05-15T12:56:34.000Z</time>
      </trkpt>
      <trkpt lat="47.81341" lon="-2.64247">
        <ele>102.80000305176</ele>
        <time>2025-05-15T12:56:35.000Z</time>
      </trkpt>
      <trkpt lat="47.81339" lon="-2.64248">
        <ele>102.80000305176</ele>
        <time>2025-05-15T12:56:36.000Z</time>
      </trkpt>
      <trkpt lat="47.81337" lon="-2.64249">
        <ele>102.80000305176</ele>
        <time>2025-05-15T12:56:37.000Z</time>
      </trkpt>
      <trkpt lat="47.81335" lon="-2.64251">
        <ele>102.80000305176</ele>
        <time>2025-05-15T12:56:38.000Z</time>
      </trkpt>
      <trkpt lat="47.81332" lon="-2.64252">
        <ele>102.80000305176</ele>
        <time>2025-05-15T12:56:39.000Z</time>
      </trkpt>
      <trkpt lat="47.8133" lon="-2.64253">
        <ele>102.80000305176</ele>
        <time>2025-05-15T12:56:40.000Z</time>
      </trkpt>
      <trkpt lat="47.81319" lon="-2.64259">
        <ele>103.19999694824</ele>
        <time>2025-05-15T12:56:45.000Z</time>
      </trkpt>
      <trkpt lat="47.81315" lon="-2.64262">
        <ele>103.40000152588</ele>
        <time>2025-05-15T12:56:47.000Z</time>
      </trkpt>
      <trkpt lat="47.81312" lon="-2.64263">
        <ele>103.40000152588</ele>
        <time>2025-05-15T12:56:48.000Z</time>
      </trkpt>
      <trkpt lat="47.81308" lon="-2.64266">
        <ele>103.59999847412</ele>
        <time>2025-05-15T12:56:50.000Z</time>
      </trkpt>
      <trkpt lat="47.81306" lon="-2.64267">
        <ele>103.59999847412</ele>
        <time>2025-05-15T12:56:51.000Z</time>
      </trkpt>
      <trkpt lat="47.81303" lon="-2.64268">
        <ele>103.80000305176</ele>
        <time>2025-05-15T12:56:52.000Z</time>
      </trkpt>
      <trkpt lat="47.81297" lon="-2.64272">
        <ele>104.19999694824</ele>
        <time>2025-05-15T12:56:55.000Z</time>
      </trkpt>
      <trkpt lat="47.81294" lon="-2.64274">
        <ele>104.19999694824</ele>
        <time>2025-05-15T12:56:56.000Z</time>
      </trkpt>
      <trkpt lat="47.81292" lon="-2.64276">
        <ele>104.40000152588</ele>
        <time>2025-05-15T12:56:57.000Z</time>
      </trkpt>
      <trkpt lat="47.8129" lon="-2.64278">
        <ele>104.40000152588</ele>
        <time>2025-05-15T12:56:58.000Z</time>
      </trkpt>
      <trkpt lat="47.81276" lon="-2.64285">
        <ele>105.59999847412</ele>
        <time>2025-05-15T12:57:04.000Z</time>
      </trkpt>
      <trkpt lat="47.8127" lon="-2.64289">
        <ele>106</ele>
        <time>2025-05-15T12:57:07.000Z</time>
      </trkpt>
      <trkpt lat="47.81267" lon="-2.6429">
        <ele>106.19999694824</ele>
        <time>2025-05-15T12:57:08.000Z</time>
      </trkpt>
      <trkpt lat="47.81265" lon="-2.64291">
        <ele>106.19999694824</ele>
        <time>2025-05-15T12:57:09.000Z</time>
      </trkpt>
      <trkpt lat="47.81263" lon="-2.64292">
        <ele>106.40000152588</ele>
        <time>2025-05-15T12:57:10.000Z</time>
      </trkpt>
      <trkpt lat="47.8126" lon="-2.64294">
        <ele>106.40000152588</ele>
        <time>2025-05-15T12:57:11.000Z</time>
      </trkpt>
      <trkpt lat="47.81258" lon="-2.64295">
        <ele>106.40000152588</ele>
        <time>2025-05-15T12:57:12.000Z</time>
      </trkpt>
      <trkpt lat="47.81256" lon="-2.64296">
        <ele>106.40000152588</ele>
        <time>2025-05-15T12:57:13.000Z</time>
      </trkpt>
      <trkpt lat="47.81254" lon="-2.64297">
        <ele>106.40000152588</ele>
        <time>2025-05-15T12:57:14.000Z</time>
      </trkpt>
      <trkpt lat="47.81251" lon="-2.64298">
        <ele>106.40000152588</ele>
        <time>2025-05-15T12:57:15.000Z</time>
      </trkpt>
      <trkpt lat="47.81249" lon="-2.64299">
        <ele>106.40000152588</ele>
        <time>2025-05-15T12:57:16.000Z</time>
      </trkpt>
      <trkpt lat="47.81247" lon="-2.643">
        <ele>106.59999847412</ele>
        <time>2025-05-15T12:57:17.000Z</time>
      </trkpt>
      <trkpt lat="47.81244" lon="-2.643">
        <ele>106.59999847412</ele>
        <time>2025-05-15T12:57:18.000Z</time>
      </trkpt>
      <trkpt lat="47.81242" lon="-2.64301">
        <ele>106.80000305176</ele>
        <time>2025-05-15T12:57:19.000Z</time>
      </trkpt>
      <trkpt lat="47.8124" lon="-2.64302">
        <ele>106.80000305176</ele>
        <time>2025-05-15T12:57:20.000Z</time>
      </trkpt>
      <trkpt lat="47.81238" lon="-2.64303">
        <ele>107</ele>
        <time>2025-05-15T12:57:21.000Z</time>
      </trkpt>
      <trkpt lat="47.81235" lon="-2.64304">
        <ele>107.19999694824</ele>
        <time>2025-05-15T12:57:22.000Z</time>
      </trkpt>
      <trkpt lat="47.81225" lon="-2.64307">
        <ele>107.40000152588</ele>
        <time>2025-05-15T12:57:26.000Z</time>
      </trkpt>
      <trkpt lat="47.81211" lon="-2.6431">
        <ele>107.80000305176</ele>
        <time>2025-05-15T12:57:31.000Z</time>
      </trkpt>
      <trkpt lat="47.81205" lon="-2.64311">
        <ele>108</ele>
        <time>2025-05-15T12:57:33.000Z</time>
      </trkpt>
      <trkpt lat="47.81199" lon="-2.64312">
        <ele>108</ele>
        <time>2025-05-15T12:57:35.000Z</time>
      </trkpt>
      <trkpt lat="47.81174" lon="-2.64319">
        <ele>108.80000305176</ele>
        <time>2025-05-15T12:57:43.000Z</time>
      </trkpt>
      <trkpt lat="47.81171" lon="-2.6432">
        <ele>109</ele>
        <time>2025-05-15T12:57:44.000Z</time>
      </trkpt>
      <trkpt lat="47.8115" lon="-2.64324">
        <ele>109.59999847412</ele>
        <time>2025-05-15T12:57:50.000Z</time>
      </trkpt>
      <trkpt lat="47.8114" lon="-2.64327">
        <ele>109.80000305176</ele>
        <time>2025-05-15T12:57:53.000Z</time>
      </trkpt>
      <trkpt lat="47.81136" lon="-2.64328">
        <ele>110</ele>
        <time>2025-05-15T12:57:54.000Z</time>
      </trkpt>
      <trkpt lat="47.81133" lon="-2.6433">
        <ele>110.19999694824</ele>
        <time>2025-05-15T12:57:55.000Z</time>
      </trkpt>
      <trkpt lat="47.8113" lon="-2.6433">
        <ele>110.19999694824</ele>
        <time>2025-05-15T12:57:56.000Z</time>
      </trkpt>
      <trkpt lat="47.81126" lon="-2.64331">
        <ele>110.40000152588</ele>
        <time>2025-05-15T12:57:57.000Z</time>
      </trkpt>
      <trkpt lat="47.81123" lon="-2.64332">
        <ele>110.40000152588</ele>
        <time>2025-05-15T12:57:58.000Z</time>
      </trkpt>
      <trkpt lat="47.8112" lon="-2.64334">
        <ele>110.40000152588</ele>
        <time>2025-05-15T12:57:59.000Z</time>
      </trkpt>
      <trkpt lat="47.81117" lon="-2.64334">
        <ele>110.59999847412</ele>
        <time>2025-05-15T12:58:00.000Z</time>
      </trkpt>
      <trkpt lat="47.81114" lon="-2.64335">
        <ele>110.59999847412</ele>
        <time>2025-05-15T12:58:01.000Z</time>
      </trkpt>
      <trkpt lat="47.81111" lon="-2.64335">
        <ele>110.80000305176</ele>
        <time>2025-05-15T12:58:02.000Z</time>
      </trkpt>
      <trkpt lat="47.81108" lon="-2.64336">
        <ele>111</ele>
        <time>2025-05-15T12:58:03.000Z</time>
      </trkpt>
      <trkpt lat="47.81106" lon="-2.64336">
        <ele>111</ele>
        <time>2025-05-15T12:58:04.000Z</time>
      </trkpt>
      <trkpt lat="47.81103" lon="-2.64336">
        <ele>111.19999694824</ele>
        <time>2025-05-15T12:58:05.000Z</time>
      </trkpt>
      <trkpt lat="47.81101" lon="-2.64337">
        <ele>111.19999694824</ele>
        <time>2025-05-15T12:58:06.000Z</time>
      </trkpt>
      <trkpt lat="47.81099" lon="-2.64337">
        <ele>111.40000152588</ele>
        <time>2025-05-15T12:58:07.000Z</time>
      </trkpt>
      <trkpt lat="47.81097" lon="-2.64338">
        <ele>111.40000152588</ele>
        <time>2025-05-15T12:58:08.000Z</time>
      </trkpt>
      <trkpt lat="47.81094" lon="-2.64339">
        <ele>111.59999847412</ele>
        <time>2025-05-15T12:58:09.000Z</time>
      </trkpt>
      <trkpt lat="47.81092" lon="-2.6434">
        <ele>111.59999847412</ele>
        <time>2025-05-15T12:58:10.000Z</time>
      </trkpt>
      <trkpt lat="47.81091" lon="-2.64341">
        <ele>111.80000305176</ele>
        <time>2025-05-15T12:58:11.000Z</time>
      </trkpt>
      <trkpt lat="47.81089" lon="-2.64341">
        <ele>112</ele>
        <time>2025-05-15T12:58:12.000Z</time>
      </trkpt>
      <trkpt lat="47.81087" lon="-2.64342">
        <ele>112</ele>
        <time>2025-05-15T12:58:13.000Z</time>
      </trkpt>
      <trkpt lat="47.81084" lon="-2.64342">
        <ele>112.19999694824</ele>
        <time>2025-05-15T12:58:14.000Z</time>
      </trkpt>
      <trkpt lat="47.81078" lon="-2.64344">
        <ele>112.59999847412</ele>
        <time>2025-05-15T12:58:17.000Z</time>
      </trkpt>
      <trkpt lat="47.81077" lon="-2.64345">
        <ele>112.80000305176</ele>
        <time>2025-05-15T12:58:18.000Z</time>
      </trkpt>
      <trkpt lat="47.81075" lon="-2.64346">
        <ele>113</ele>
        <time>2025-05-15T12:58:19.000Z</time>
      </trkpt>
      <trkpt lat="47.81074" lon="-2.64346">
        <ele>113</ele>
        <time>2025-05-15T12:58:20.000Z</time>
      </trkpt>
      <trkpt lat="47.81072" lon="-2.64347">
        <ele>113.19999694824</ele>
        <time>2025-05-15T12:58:21.000Z</time>
      </trkpt>
      <trkpt lat="47.8107" lon="-2.64348">
        <ele>113.19999694824</ele>
        <time>2025-05-15T12:58:22.000Z</time>
      </trkpt>
      <trkpt lat="47.8107" lon="-2.64348">
        <ele>113.59999847412</ele>
        <time>2025-05-15T12:58:23.000Z</time>
      </trkpt>
      <trkpt lat="47.81066" lon="-2.64347">
        <ele>113.59999847412</ele>
        <time>2025-05-15T12:58:24.000Z</time>
      </trkpt>
      <trkpt lat="47.81064" lon="-2.64345">
        <ele>113.80000305176</ele>
        <time>2025-05-15T12:58:25.000Z</time>
      </trkpt>
      <trkpt lat="47.81064" lon="-2.64343">
        <ele>113.80000305176</ele>
        <time>2025-05-15T12:58:26.000Z</time>
      </trkpt>
      <trkpt lat="47.81063" lon="-2.64342">
        <ele>114</ele>
        <time>2025-05-15T12:58:27.000Z</time>
      </trkpt>
      <trkpt lat="47.81062" lon="-2.6434">
        <ele>114</ele>
        <time>2025-05-15T12:58:28.000Z</time>
      </trkpt>
      <trkpt lat="47.81061" lon="-2.64337">
        <ele>114.19999694824</ele>
        <time>2025-05-15T12:58:29.000Z</time>
      </trkpt>
      <trkpt lat="47.8106" lon="-2.64335">
        <ele>114.40000152588</ele>
        <time>2025-05-15T12:58:30.000Z</time>
      </trkpt>
      <trkpt lat="47.81059" lon="-2.64334">
        <ele>114.59999847412</ele>
        <time>2025-05-15T12:58:31.000Z</time>
      </trkpt>
      <trkpt lat="47.81058" lon="-2.64334">
        <ele>114.80000305176</ele>
        <time>2025-05-15T12:58:32.000Z</time>
      </trkpt>
      <trkpt lat="47.81057" lon="-2.64334">
        <ele>114.80000305176</ele>
        <time>2025-05-15T12:58:33.000Z</time>
      </trkpt>
      <trkpt lat="47.81057" lon="-2.64335">
        <ele>114.80000305176</ele>
        <time>2025-05-15T12:58:34.000Z</time>
      </trkpt>
      <trkpt lat="47.81057" lon="-2.64335">
        <ele>115</ele>
        <time>2025-05-15T12:58:35.000Z</time>
      </trkpt>
      <trkpt lat="47.81057" lon="-2.64335">
        <ele>115.19999694824</ele>
        <time>2025-05-15T12:58:36.000Z</time>
      </trkpt>
      <trkpt lat="47.81056" lon="-2.64334">
        <ele>115.59999847412</ele>
        <time>2025-05-15T12:58:37.000Z</time>
      </trkpt>
      <trkpt lat="47.81055" lon="-2.64333">
        <ele>115.80000305176</ele>
        <time>2025-05-15T12:58:38.000Z</time>
      </trkpt>
      <trkpt lat="47.81055" lon="-2.64331">
        <ele>116</ele>
        <time>2025-05-15T12:58:39.000Z</time>
      </trkpt>
      <trkpt lat="47.81055" lon="-2.64329">
        <ele>116</ele>
        <time>2025-05-15T12:58:40.000Z</time>
      </trkpt>
      <trkpt lat="47.81055" lon="-2.64328">
        <ele>116.19999694824</ele>
        <time>2025-05-15T12:58:41.000Z</time>
      </trkpt>
      <trkpt lat="47.81055" lon="-2.64326">
        <ele>116.40000152588</ele>
        <time>2025-05-15T12:58:42.000Z</time>
      </trkpt>
      <trkpt lat="47.81054" lon="-2.64325">
        <ele>116.40000152588</ele>
        <time>2025-05-15T12:58:43.000Z</time>
      </trkpt>
      <trkpt lat="47.81052" lon="-2.64323">
        <ele>116.40000152588</ele>
        <time>2025-05-15T12:58:44.000Z</time>
      </trkpt>
      <trkpt lat="47.81051" lon="-2.64321">
        <ele>116.40000152588</ele>
        <time>2025-05-15T12:58:45.000Z</time>
      </trkpt>
      <trkpt lat="47.81048" lon="-2.64319">
        <ele>116.40000152588</ele>
        <time>2025-05-15T12:58:46.000Z</time>
      </trkpt>
      <trkpt lat="47.81046" lon="-2.64317">
        <ele>116.40000152588</ele>
        <time>2025-05-15T12:58:47.000Z</time>
      </trkpt>
      <trkpt lat="47.81045" lon="-2.64315">
        <ele>116.40000152588</ele>
        <time>2025-05-15T12:58:48.000Z</time>
      </trkpt>
      <trkpt lat="47.81043" lon="-2.64312">
        <ele>116.40000152588</ele>
        <time>2025-05-15T12:58:49.000Z</time>
      </trkpt>
      <trkpt lat="47.81042" lon="-2.64309">
        <ele>116.40000152588</ele>
        <time>2025-05-15T12:58:50.000Z</time>
      </trkpt>
      <trkpt lat="47.8104" lon="-2.64306">
        <ele>116.40000152588</ele>
        <time>2025-05-15T12:58:51.000Z</time>
      </trkpt>
      <trkpt lat="47.81039" lon="-2.64303">
        <ele>116.40000152588</ele>
        <time>2025-05-15T12:58:52.000Z</time>
      </trkpt>
      <trkpt lat="47.81037" lon="-2.643">
        <ele>116.40000152588</ele>
        <time>2025-05-15T12:58:53.000Z</time>
      </trkpt>
      <trkpt lat="47.81034" lon="-2.64299">
        <ele>116.40000152588</ele>
        <time>2025-05-15T12:58:54.000Z</time>
      </trkpt>
      <trkpt lat="47.81033" lon="-2.64298">
        <ele>116.19999694824</ele>
        <time>2025-05-15T12:58:55.000Z</time>
      </trkpt>
      <trkpt lat="47.81031" lon="-2.64297">
        <ele>116.19999694824</ele>
        <time>2025-05-15T12:58:56.000Z</time>
      </trkpt>
      <trkpt lat="47.81028" lon="-2.64296">
        <ele>115.80000305176</ele>
        <time>2025-05-15T12:58:57.000Z</time>
      </trkpt>
      <trkpt lat="47.81025" lon="-2.64294">
        <ele>115.59999847412</ele>
        <time>2025-05-15T12:58:58.000Z</time>
      </trkpt>
      <trkpt lat="47.81021" lon="-2.64293">
        <ele>115.40000152588</ele>
        <time>2025-05-15T12:58:59.000Z</time>
      </trkpt>
      <trkpt lat="47.81018" lon="-2.64293">
        <ele>115.40000152588</ele>
        <time>2025-05-15T12:59:00.000Z</time>
      </trkpt>
      <trkpt lat="47.81016" lon="-2.64291">
        <ele>115.19999694824</ele>
        <time>2025-05-15T12:59:01.000Z</time>
      </trkpt>
      <trkpt lat="47.81013" lon="-2.6429">
        <ele>115.19999694824</ele>
        <time>2025-05-15T12:59:02.000Z</time>
      </trkpt>
      <trkpt lat="47.81002" lon="-2.64287">
        <ele>115</ele>
        <time>2025-05-15T12:59:05.000Z</time>
      </trkpt>
      <trkpt lat="47.81" lon="-2.64287">
        <ele>115</ele>
        <time>2025-05-15T12:59:06.000Z</time>
      </trkpt>
      <trkpt lat="47.80997" lon="-2.64287">
        <ele>115</ele>
        <time>2025-05-15T12:59:07.000Z</time>
      </trkpt>
      <trkpt lat="47.80982" lon="-2.64286">
        <ele>115.19999694824</ele>
        <time>2025-05-15T12:59:11.000Z</time>
      </trkpt>
      <trkpt lat="47.8098" lon="-2.64286">
        <ele>115.19999694824</ele>
        <time>2025-05-15T12:59:12.000Z</time>
      </trkpt>
      <trkpt lat="47.80978" lon="-2.64286">
        <ele>115.19999694824</ele>
        <time>2025-05-15T12:59:13.000Z</time>
      </trkpt>
      <trkpt lat="47.80976" lon="-2.64285">
        <ele>115.19999694824</ele>
        <time>2025-05-15T12:59:14.000Z</time>
      </trkpt>
      <trkpt lat="47.80973" lon="-2.64284">
        <ele>115.19999694824</ele>
        <time>2025-05-15T12:59:15.000Z</time>
      </trkpt>
      <trkpt lat="47.8097" lon="-2.64287">
        <ele>115.19999694824</ele>
        <time>2025-05-15T12:59:17.000Z</time>
      </trkpt>
      <trkpt lat="47.80966" lon="-2.64289">
        <ele>115.19999694824</ele>
        <time>2025-05-15T12:59:19.000Z</time>
      </trkpt>
      <trkpt lat="47.80963" lon="-2.64292">
        <ele>115.19999694824</ele>
        <time>2025-05-15T12:59:20.000Z</time>
      </trkpt>
      <trkpt lat="47.80958" lon="-2.64294">
        <ele>115.19999694824</ele>
        <time>2025-05-15T12:59:21.000Z</time>
      </trkpt>
      <trkpt lat="47.80956" lon="-2.64295">
        <ele>115.19999694824</ele>
        <time>2025-05-15T12:59:22.000Z</time>
      </trkpt>
      <trkpt lat="47.80954" lon="-2.64296">
        <ele>115</ele>
        <time>2025-05-15T12:59:23.000Z</time>
      </trkpt>
      <trkpt lat="47.80953" lon="-2.64298">
        <ele>115</ele>
        <time>2025-05-15T12:59:24.000Z</time>
      </trkpt>
      <trkpt lat="47.80951" lon="-2.643">
        <ele>115</ele>
        <time>2025-05-15T12:59:25.000Z</time>
      </trkpt>
      <trkpt lat="47.8095" lon="-2.64302">
        <ele>115.19999694824</ele>
        <time>2025-05-15T12:59:26.000Z</time>
      </trkpt>
      <trkpt lat="47.80946" lon="-2.64308">
        <ele>115.40000152588</ele>
        <time>2025-05-15T12:59:29.000Z</time>
      </trkpt>
      <trkpt lat="47.80943" lon="-2.64314">
        <ele>115.40000152588</ele>
        <time>2025-05-15T12:59:31.000Z</time>
      </trkpt>
      <trkpt lat="47.80941" lon="-2.64317">
        <ele>115.40000152588</ele>
        <time>2025-05-15T12:59:32.000Z</time>
      </trkpt>
      <trkpt lat="47.80939" lon="-2.6432">
        <ele>115.40000152588</ele>
        <time>2025-05-15T12:59:33.000Z</time>
      </trkpt>
      <trkpt lat="47.80914" lon="-2.64337">
        <ele>115.40000152588</ele>
        <time>2025-05-15T12:59:39.000Z</time>
      </trkpt>
      <trkpt lat="47.80911" lon="-2.64337">
        <ele>115.40000152588</ele>
        <time>2025-05-15T12:59:40.000Z</time>
      </trkpt>
      <trkpt lat="47.80909" lon="-2.64339">
        <ele>115.40000152588</ele>
        <time>2025-05-15T12:59:41.000Z</time>
      </trkpt>
      <trkpt lat="47.80907" lon="-2.64341">
        <ele>115.40000152588</ele>
        <time>2025-05-15T12:59:42.000Z</time>
      </trkpt>
      <trkpt lat="47.809" lon="-2.64343">
        <ele>115.40000152588</ele>
        <time>2025-05-15T12:59:44.000Z</time>
      </trkpt>
      <trkpt lat="47.80896" lon="-2.64346">
        <ele>115.40000152588</ele>
        <time>2025-05-15T12:59:45.000Z</time>
      </trkpt>
      <trkpt lat="47.8089" lon="-2.64347">
        <ele>115.40000152588</ele>
        <time>2025-05-15T12:59:46.000Z</time>
      </trkpt>
      <trkpt lat="47.80886" lon="-2.64349">
        <ele>115.40000152588</ele>
        <time>2025-05-15T12:59:47.000Z</time>
      </trkpt>
      <trkpt lat="47.80874" lon="-2.64356">
        <ele>115.59999847412</ele>
        <time>2025-05-15T12:59:51.000Z</time>
      </trkpt>
      <trkpt lat="47.80872" lon="-2.64358">
        <ele>115.59999847412</ele>
        <time>2025-05-15T12:59:52.000Z</time>
      </trkpt>
      <trkpt lat="47.80869" lon="-2.64359">
        <ele>115.59999847412</ele>
        <time>2025-05-15T12:59:53.000Z</time>
      </trkpt>
      <trkpt lat="47.8086" lon="-2.64363">
        <ele>115.80000305176</ele>
        <time>2025-05-15T12:59:56.000Z</time>
      </trkpt>
      <trkpt lat="47.80858" lon="-2.64365">
        <ele>115.80000305176</ele>
        <time>2025-05-15T12:59:57.000Z</time>
      </trkpt>
      <trkpt lat="47.80857" lon="-2.64367">
        <ele>115.80000305176</ele>
        <time>2025-05-15T12:59:58.000Z</time>
      </trkpt>
      <trkpt lat="47.80856" lon="-2.64369">
        <ele>116</ele>
        <time>2025-05-15T12:59:59.000Z</time>
      </trkpt>
      <trkpt lat="47.80853" lon="-2.6437">
        <ele>116</ele>
        <time>2025-05-15T13:00:00.000Z</time>
      </trkpt>
      <trkpt lat="47.80851" lon="-2.64371">
        <ele>116.19999694824</ele>
        <time>2025-05-15T13:00:01.000Z</time>
      </trkpt>
      <trkpt lat="47.80849" lon="-2.64378">
        <ele>116</ele>
        <time>2025-05-15T13:00:03.000Z</time>
      </trkpt>
      <trkpt lat="47.80846" lon="-2.64382">
        <ele>116</ele>
        <time>2025-05-15T13:00:04.000Z</time>
      </trkpt>
      <trkpt lat="47.80843" lon="-2.64385">
        <ele>116</ele>
        <time>2025-05-15T13:00:05.000Z</time>
      </trkpt>
      <trkpt lat="47.8084" lon="-2.64386">
        <ele>116</ele>
        <time>2025-05-15T13:00:06.000Z</time>
      </trkpt>
      <trkpt lat="47.80835" lon="-2.64389">
        <ele>115.80000305176</ele>
        <time>2025-05-15T13:00:08.000Z</time>
      </trkpt>
      <trkpt lat="47.80832" lon="-2.64391">
        <ele>115.59999847412</ele>
        <time>2025-05-15T13:00:09.000Z</time>
      </trkpt>
      <trkpt lat="47.80829" lon="-2.64393">
        <ele>115.59999847412</ele>
        <time>2025-05-15T13:00:10.000Z</time>
      </trkpt>
      <trkpt lat="47.80824" lon="-2.64394">
        <ele>115.59999847412</ele>
        <time>2025-05-15T13:00:11.000Z</time>
      </trkpt>
      <trkpt lat="47.80819" lon="-2.64394">
        <ele>115.80000305176</ele>
        <time>2025-05-15T13:00:12.000Z</time>
      </trkpt>
      <trkpt lat="47.80814" lon="-2.64395">
        <ele>115.59999847412</ele>
        <time>2025-05-15T13:00:13.000Z</time>
      </trkpt>
      <trkpt lat="47.8081" lon="-2.64395">
        <ele>115.40000152588</ele>
        <time>2025-05-15T13:00:14.000Z</time>
      </trkpt>
      <trkpt lat="47.80793" lon="-2.64391">
        <ele>115.59999847412</ele>
        <time>2025-05-15T13:00:19.000Z</time>
      </trkpt>
      <trkpt lat="47.80789" lon="-2.64393">
        <ele>115.59999847412</ele>
        <time>2025-05-15T13:00:21.000Z</time>
      </trkpt>
      <trkpt lat="47.80784" lon="-2.64395">
        <ele>115.59999847412</ele>
        <time>2025-05-15T13:00:22.000Z</time>
      </trkpt>
      <trkpt lat="47.80779" lon="-2.64396">
        <ele>115.59999847412</ele>
        <time>2025-05-15T13:00:23.000Z</time>
      </trkpt>
      <trkpt lat="47.80777" lon="-2.64397">
        <ele>115.80000305176</ele>
        <time>2025-05-15T13:00:24.000Z</time>
      </trkpt>
      <trkpt lat="47.80772" lon="-2.644">
        <ele>115.80000305176</ele>
        <time>2025-05-15T13:00:27.000Z</time>
      </trkpt>
      <trkpt lat="47.8077" lon="-2.64401">
        <ele>116</ele>
        <time>2025-05-15T13:00:28.000Z</time>
      </trkpt>
      <trkpt lat="47.80768" lon="-2.64402">
        <ele>116</ele>
        <time>2025-05-15T13:00:29.000Z</time>
      </trkpt>
      <trkpt lat="47.8076" lon="-2.64405">
        <ele>116</ele>
        <time>2025-05-15T13:00:32.000Z</time>
      </trkpt>
      <trkpt lat="47.80757" lon="-2.64409">
        <ele>116.19999694824</ele>
        <time>2025-05-15T13:00:34.000Z</time>
      </trkpt>
      <trkpt lat="47.80754" lon="-2.64411">
        <ele>116.40000152588</ele>
        <time>2025-05-15T13:00:35.000Z</time>
      </trkpt>
      <trkpt lat="47.80752" lon="-2.64413">
        <ele>116.40000152588</ele>
        <time>2025-05-15T13:00:36.000Z</time>
      </trkpt>
      <trkpt lat="47.80747" lon="-2.64415">
        <ele>116.40000152588</ele>
        <time>2025-05-15T13:00:37.000Z</time>
      </trkpt>
      <trkpt lat="47.80744" lon="-2.64417">
        <ele>116.40000152588</ele>
        <time>2025-05-15T13:00:38.000Z</time>
      </trkpt>
      <trkpt lat="47.80742" lon="-2.64419">
        <ele>116.40000152588</ele>
        <time>2025-05-15T13:00:39.000Z</time>
      </trkpt>
      <trkpt lat="47.80739" lon="-2.64422">
        <ele>116.40000152588</ele>
        <time>2025-05-15T13:00:40.000Z</time>
      </trkpt>
      <trkpt lat="47.80716" lon="-2.64429">
        <ele>116.40000152588</ele>
        <time>2025-05-15T13:00:46.000Z</time>
      </trkpt>
      <trkpt lat="47.80708" lon="-2.64432">
        <ele>116.40000152588</ele>
        <time>2025-05-15T13:00:48.000Z</time>
      </trkpt>
      <trkpt lat="47.80703" lon="-2.64432">
        <ele>116.40000152588</ele>
        <time>2025-05-15T13:00:49.000Z</time>
      </trkpt>
      <trkpt lat="47.80693" lon="-2.64436">
        <ele>116.40000152588</ele>
        <time>2025-05-15T13:00:52.000Z</time>
      </trkpt>
      <trkpt lat="47.80691" lon="-2.64439">
        <ele>116.40000152588</ele>
        <time>2025-05-15T13:00:53.000Z</time>
      </trkpt>
      <trkpt lat="47.80688" lon="-2.64441">
        <ele>116.40000152588</ele>
        <time>2025-05-15T13:00:54.000Z</time>
      </trkpt>
      <trkpt lat="47.80682" lon="-2.64446">
        <ele>116.40000152588</ele>
        <time>2025-05-15T13:00:56.000Z</time>
      </trkpt>
      <trkpt lat="47.80678" lon="-2.64449">
        <ele>116.40000152588</ele>
        <time>2025-05-15T13:00:57.000Z</time>
      </trkpt>
      <trkpt lat="47.80674" lon="-2.64452">
        <ele>116.40000152588</ele>
        <time>2025-05-15T13:00:58.000Z</time>
      </trkpt>
      <trkpt lat="47.80668" lon="-2.64454">
        <ele>116.40000152588</ele>
        <time>2025-05-15T13:00:59.000Z</time>
      </trkpt>
      <trkpt lat="47.80664" lon="-2.64456">
        <ele>116.59999847412</ele>
        <time>2025-05-15T13:01:00.000Z</time>
      </trkpt>
      <trkpt lat="47.8066" lon="-2.64456">
        <ele>116.59999847412</ele>
        <time>2025-05-15T13:01:02.000Z</time>
      </trkpt>
      <trkpt lat="47.80658" lon="-2.64457">
        <ele>116.59999847412</ele>
        <time>2025-05-15T13:01:03.000Z</time>
      </trkpt>
      <trkpt lat="47.80653" lon="-2.64457">
        <ele>116.59999847412</ele>
        <time>2025-05-15T13:01:04.000Z</time>
      </trkpt>
      <trkpt lat="47.80649" lon="-2.64458">
        <ele>116.59999847412</ele>
        <time>2025-05-15T13:01:05.000Z</time>
      </trkpt>
      <trkpt lat="47.80641" lon="-2.64462">
        <ele>116.80000305176</ele>
        <time>2025-05-15T13:01:07.000Z</time>
      </trkpt>
      <trkpt lat="47.80628" lon="-2.64469">
        <ele>116.80000305176</ele>
        <time>2025-05-15T13:01:11.000Z</time>
      </trkpt>
      <trkpt lat="47.80623" lon="-2.64471">
        <ele>116.80000305176</ele>
        <time>2025-05-15T13:01:13.000Z</time>
      </trkpt>
      <trkpt lat="47.80607" lon="-2.64473">
        <ele>116.80000305176</ele>
        <time>2025-05-15T13:01:17.000Z</time>
      </trkpt>
      <trkpt lat="47.80598" lon="-2.64472">
        <ele>116.80000305176</ele>
        <time>2025-05-15T13:01:20.000Z</time>
      </trkpt>
      <trkpt lat="47.80595" lon="-2.64472">
        <ele>116.80000305176</ele>
        <time>2025-05-15T13:01:21.000Z</time>
      </trkpt>
      <trkpt lat="47.8059" lon="-2.6447">
        <ele>116.80000305176</ele>
        <time>2025-05-15T13:01:22.000Z</time>
      </trkpt>
      <trkpt lat="47.80587" lon="-2.64471">
        <ele>116.59999847412</ele>
        <time>2025-05-15T13:01:23.000Z</time>
      </trkpt>
      <trkpt lat="47.80582" lon="-2.64474">
        <ele>116.59999847412</ele>
        <time>2025-05-15T13:01:25.000Z</time>
      </trkpt>
      <trkpt lat="47.80579" lon="-2.64476">
        <ele>116.59999847412</ele>
        <time>2025-05-15T13:01:26.000Z</time>
      </trkpt>
      <trkpt lat="47.80576" lon="-2.64479">
        <ele>116.59999847412</ele>
        <time>2025-05-15T13:01:27.000Z</time>
      </trkpt>
      <trkpt lat="47.80574" lon="-2.6448">
        <ele>116.59999847412</ele>
        <time>2025-05-15T13:01:28.000Z</time>
      </trkpt>
      <trkpt lat="47.80573" lon="-2.64481">
        <ele>116.80000305176</ele>
        <time>2025-05-15T13:01:29.000Z</time>
      </trkpt>
      <trkpt lat="47.8057" lon="-2.64483">
        <ele>116.80000305176</ele>
        <time>2025-05-15T13:01:30.000Z</time>
      </trkpt>
      <trkpt lat="47.80569" lon="-2.64484">
        <ele>116.80000305176</ele>
        <time>2025-05-15T13:01:31.000Z</time>
      </trkpt>
      <trkpt lat="47.80566" lon="-2.64484">
        <ele>117</ele>
        <time>2025-05-15T13:01:32.000Z</time>
      </trkpt>
      <trkpt lat="47.80561" lon="-2.64481">
        <ele>117</ele>
        <time>2025-05-15T13:01:34.000Z</time>
      </trkpt>
      <trkpt lat="47.80559" lon="-2.64482">
        <ele>117</ele>
        <time>2025-05-15T13:01:35.000Z</time>
      </trkpt>
      <trkpt lat="47.80557" lon="-2.64481">
        <ele>117</ele>
        <time>2025-05-15T13:01:36.000Z</time>
      </trkpt>
      <trkpt lat="47.80554" lon="-2.64479">
        <ele>117</ele>
        <time>2025-05-15T13:01:37.000Z</time>
      </trkpt>
      <trkpt lat="47.80549" lon="-2.64479">
        <ele>117.19999694824</ele>
        <time>2025-05-15T13:01:38.000Z</time>
      </trkpt>
      <trkpt lat="47.80546" lon="-2.64478">
        <ele>117.19999694824</ele>
        <time>2025-05-15T13:01:39.000Z</time>
      </trkpt>
      <trkpt lat="47.80544" lon="-2.64476">
        <ele>117.19999694824</ele>
        <time>2025-05-15T13:01:40.000Z</time>
      </trkpt>
      <trkpt lat="47.80538" lon="-2.64475">
        <ele>117.19999694824</ele>
        <time>2025-05-15T13:01:43.000Z</time>
      </trkpt>
      <trkpt lat="47.80536" lon="-2.64476">
        <ele>117.40000152588</ele>
        <time>2025-05-15T13:01:44.000Z</time>
      </trkpt>
      <trkpt lat="47.80534" lon="-2.64476">
        <ele>117.40000152588</ele>
        <time>2025-05-15T13:01:45.000Z</time>
      </trkpt>
      <trkpt lat="47.80532" lon="-2.64477">
        <ele>117.59999847412</ele>
        <time>2025-05-15T13:01:46.000Z</time>
      </trkpt>
      <trkpt lat="47.80531" lon="-2.64477">
        <ele>117.80000305176</ele>
        <time>2025-05-15T13:01:47.000Z</time>
      </trkpt>
      <trkpt lat="47.80529" lon="-2.64477">
        <ele>118</ele>
        <time>2025-05-15T13:01:48.000Z</time>
      </trkpt>
      <trkpt lat="47.80527" lon="-2.64477">
        <ele>118</ele>
        <time>2025-05-15T13:01:49.000Z</time>
      </trkpt>
      <trkpt lat="47.80525" lon="-2.64477">
        <ele>118.40000152588</ele>
        <time>2025-05-15T13:01:50.000Z</time>
      </trkpt>
      <trkpt lat="47.80518" lon="-2.64477">
        <ele>118.59999847412</ele>
        <time>2025-05-15T13:01:53.000Z</time>
      </trkpt>
      <trkpt lat="47.80514" lon="-2.64477">
        <ele>118.80000305176</ele>
        <time>2025-05-15T13:01:55.000Z</time>
      </trkpt>
      <trkpt lat="47.80509" lon="-2.64475">
        <ele>119</ele>
        <time>2025-05-15T13:01:57.000Z</time>
      </trkpt>
      <trkpt lat="47.80502" lon="-2.64473">
        <ele>119</ele>
        <time>2025-05-15T13:01:59.000Z</time>
      </trkpt>
      <trkpt lat="47.80499" lon="-2.64472">
        <ele>119</ele>
        <time>2025-05-15T13:02:00.000Z</time>
      </trkpt>
      <trkpt lat="47.80494" lon="-2.64471">
        <ele>119</ele>
        <time>2025-05-15T13:02:02.000Z</time>
      </trkpt>
      <trkpt lat="47.80492" lon="-2.64471">
        <ele>119</ele>
        <time>2025-05-15T13:02:03.000Z</time>
      </trkpt>
      <trkpt lat="47.8049" lon="-2.64472">
        <ele>119.19999694824</ele>
        <time>2025-05-15T13:02:04.000Z</time>
      </trkpt>
      <trkpt lat="47.80487" lon="-2.64474">
        <ele>119.40000152588</ele>
        <time>2025-05-15T13:02:06.000Z</time>
      </trkpt>
      <trkpt lat="47.80486" lon="-2.64475">
        <ele>119.40000152588</ele>
        <time>2025-05-15T13:02:07.000Z</time>
      </trkpt>
      <trkpt lat="47.80484" lon="-2.64475">
        <ele>119.59999847412</ele>
        <time>2025-05-15T13:02:08.000Z</time>
      </trkpt>
      <trkpt lat="47.80482" lon="-2.64475">
        <ele>120</ele>
        <time>2025-05-15T13:02:09.000Z</time>
      </trkpt>
      <trkpt lat="47.8048" lon="-2.64474">
        <ele>120.19999694824</ele>
        <time>2025-05-15T13:02:10.000Z</time>
      </trkpt>
      <trkpt lat="47.80478" lon="-2.64472">
        <ele>120.40000152588</ele>
        <time>2025-05-15T13:02:11.000Z</time>
      </trkpt>
      <trkpt lat="47.80476" lon="-2.64471">
        <ele>120.80000305176</ele>
        <time>2025-05-15T13:02:12.000Z</time>
      </trkpt>
      <trkpt lat="47.80474" lon="-2.6447">
        <ele>121.19999694824</ele>
        <time>2025-05-15T13:02:13.000Z</time>
      </trkpt>
      <trkpt lat="47.80472" lon="-2.64469">
        <ele>121.40000152588</ele>
        <time>2025-05-15T13:02:14.000Z</time>
      </trkpt>
      <trkpt lat="47.80468" lon="-2.64467">
        <ele>121.59999847412</ele>
        <time>2025-05-15T13:02:16.000Z</time>
      </trkpt>
      <trkpt lat="47.80466" lon="-2.64466">
        <ele>121.59999847412</ele>
        <time>2025-05-15T13:02:17.000Z</time>
      </trkpt>
      <trkpt lat="47.80466" lon="-2.64466">
        <ele>121.59999847412</ele>
        <time>2025-05-15T13:02:18.000Z</time>
      </trkpt>
      <trkpt lat="47.80464" lon="-2.64464">
        <ele>121.80000305176</ele>
        <time>2025-05-15T13:02:19.000Z</time>
      </trkpt>
      <trkpt lat="47.80463" lon="-2.64463">
        <ele>121.80000305176</ele>
        <time>2025-05-15T13:02:20.000Z</time>
      </trkpt>
      <trkpt lat="47.80461" lon="-2.64463">
        <ele>121.80000305176</ele>
        <time>2025-05-15T13:02:21.000Z</time>
      </trkpt>
      <trkpt lat="47.8046" lon="-2.64462">
        <ele>122</ele>
        <time>2025-05-15T13:02:22.000Z</time>
      </trkpt>
      <trkpt lat="47.80459" lon="-2.64461">
        <ele>122</ele>
        <time>2025-05-15T13:02:23.000Z</time>
      </trkpt>
      <trkpt lat="47.80457" lon="-2.64461">
        <ele>122.40000152588</ele>
        <time>2025-05-15T13:02:24.000Z</time>
      </trkpt>
      <trkpt lat="47.80456" lon="-2.6446">
        <ele>122.59999847412</ele>
        <time>2025-05-15T13:02:25.000Z</time>
      </trkpt>
      <trkpt lat="47.80454" lon="-2.64459">
        <ele>122.80000305176</ele>
        <time>2025-05-15T13:02:26.000Z</time>
      </trkpt>
      <trkpt lat="47.80452" lon="-2.64458">
        <ele>123</ele>
        <time>2025-05-15T13:02:27.000Z</time>
      </trkpt>
      <trkpt lat="47.80452" lon="-2.64457">
        <ele>123.19999694824</ele>
        <time>2025-05-15T13:02:28.000Z</time>
      </trkpt>
      <trkpt lat="47.80451" lon="-2.64455">
        <ele>123.40000152588</ele>
        <time>2025-05-15T13:02:29.000Z</time>
      </trkpt>
      <trkpt lat="47.8045" lon="-2.64453">
        <ele>123.40000152588</ele>
        <time>2025-05-15T13:02:30.000Z</time>
      </trkpt>
      <trkpt lat="47.80449" lon="-2.64451">
        <ele>123.59999847412</ele>
        <time>2025-05-15T13:02:31.000Z</time>
      </trkpt>
      <trkpt lat="47.80447" lon="-2.64448">
        <ele>123.59999847412</ele>
        <time>2025-05-15T13:02:32.000Z</time>
      </trkpt>
      <trkpt lat="47.80445" lon="-2.64446">
        <ele>123.59999847412</ele>
        <time>2025-05-15T13:02:33.000Z</time>
      </trkpt>
      <trkpt lat="47.80443" lon="-2.64444">
        <ele>123.59999847412</ele>
        <time>2025-05-15T13:02:34.000Z</time>
      </trkpt>
      <trkpt lat="47.8044" lon="-2.64443">
        <ele>123.59999847412</ele>
        <time>2025-05-15T13:02:35.000Z</time>
      </trkpt>
      <trkpt lat="47.80436" lon="-2.64441">
        <ele>123.59999847412</ele>
        <time>2025-05-15T13:02:36.000Z</time>
      </trkpt>
      <trkpt lat="47.80434" lon="-2.64439">
        <ele>123.59999847412</ele>
        <time>2025-05-15T13:02:37.000Z</time>
      </trkpt>
      <trkpt lat="47.80433" lon="-2.64439">
        <ele>123.40000152588</ele>
        <time>2025-05-15T13:02:38.000Z</time>
      </trkpt>
      <trkpt lat="47.80431" lon="-2.64438">
        <ele>123.40000152588</ele>
        <time>2025-05-15T13:02:39.000Z</time>
      </trkpt>
      <trkpt lat="47.8043" lon="-2.64437">
        <ele>123.40000152588</ele>
        <time>2025-05-15T13:02:40.000Z</time>
      </trkpt>
      <trkpt lat="47.80428" lon="-2.64436">
        <ele>123.40000152588</ele>
        <time>2025-05-15T13:02:41.000Z</time>
      </trkpt>
      <trkpt lat="47.80426" lon="-2.64435">
        <ele>123.40000152588</ele>
        <time>2025-05-15T13:02:42.000Z</time>
      </trkpt>
      <trkpt lat="47.80424" lon="-2.64434">
        <ele>123.40000152588</ele>
        <time>2025-05-15T13:02:43.000Z</time>
      </trkpt>
      <trkpt lat="47.80423" lon="-2.64433">
        <ele>123.59999847412</ele>
        <time>2025-05-15T13:02:44.000Z</time>
      </trkpt>
      <trkpt lat="47.80421" lon="-2.64433">
        <ele>123.80000305176</ele>
        <time>2025-05-15T13:02:45.000Z</time>
      </trkpt>
      <trkpt lat="47.80419" lon="-2.64432">
        <ele>123.80000305176</ele>
        <time>2025-05-15T13:02:46.000Z</time>
      </trkpt>
      <trkpt lat="47.80418" lon="-2.64432">
        <ele>124</ele>
        <time>2025-05-15T13:02:47.000Z</time>
      </trkpt>
      <trkpt lat="47.80418" lon="-2.64432">
        <ele>124.19999694824</ele>
        <time>2025-05-15T13:02:48.000Z</time>
      </trkpt>
      <trkpt lat="47.80416" lon="-2.64431">
        <ele>124.80000305176</ele>
        <time>2025-05-15T13:02:49.000Z</time>
      </trkpt>
      <trkpt lat="47.80416" lon="-2.64431">
        <ele>125.19999694824</ele>
        <time>2025-05-15T13:02:50.000Z</time>
      </trkpt>
      <trkpt lat="47.80414" lon="-2.64431">
        <ele>126</ele>
        <time>2025-05-15T13:02:53.000Z</time>
      </trkpt>
      <trkpt lat="47.80413" lon="-2.64431">
        <ele>126.40000152588</ele>
        <time>2025-05-15T13:02:54.000Z</time>
      </trkpt>
      <trkpt lat="47.80413" lon="-2.64431">
        <ele>126.80000305176</ele>
        <time>2025-05-15T13:02:55.000Z</time>
      </trkpt>
      <trkpt lat="47.80413" lon="-2.64431">
        <ele>127.40000152588</ele>
        <time>2025-05-15T13:02:56.000Z</time>
      </trkpt>
      <trkpt lat="47.80413" lon="-2.64431">
        <ele>127.59999847412</ele>
        <time>2025-05-15T13:02:57.000Z</time>
      </trkpt>
      <trkpt lat="47.80412" lon="-2.64432">
        <ele>127.80000305176</ele>
        <time>2025-05-15T13:02:58.000Z</time>
      </trkpt>
      <trkpt lat="47.80411" lon="-2.64432">
        <ele>127.80000305176</ele>
        <time>2025-05-15T13:02:59.000Z</time>
      </trkpt>
      <trkpt lat="47.8041" lon="-2.64433">
        <ele>128.19999694824</ele>
        <time>2025-05-15T13:03:00.000Z</time>
      </trkpt>
      <trkpt lat="47.80409" lon="-2.64434">
        <ele>128.19999694824</ele>
        <time>2025-05-15T13:03:01.000Z</time>
      </trkpt>
      <trkpt lat="47.80408" lon="-2.64435">
        <ele>128.39999389648</ele>
        <time>2025-05-15T13:03:02.000Z</time>
      </trkpt>
      <trkpt lat="47.80408" lon="-2.64437">
        <ele>128.60000610352</ele>
        <time>2025-05-15T13:03:03.000Z</time>
      </trkpt>
      <trkpt lat="47.80406" lon="-2.64439">
        <ele>128.80000305176</ele>
        <time>2025-05-15T13:03:04.000Z</time>
      </trkpt>
      <trkpt lat="47.80405" lon="-2.6444">
        <ele>128.80000305176</ele>
        <time>2025-05-15T13:03:05.000Z</time>
      </trkpt>
      <trkpt lat="47.80404" lon="-2.64441">
        <ele>129</ele>
        <time>2025-05-15T13:03:06.000Z</time>
      </trkpt>
      <trkpt lat="47.80404" lon="-2.64443">
        <ele>129.19999694824</ele>
        <time>2025-05-15T13:03:07.000Z</time>
      </trkpt>
      <trkpt lat="47.80403" lon="-2.64446">
        <ele>129.19999694824</ele>
        <time>2025-05-15T13:03:08.000Z</time>
      </trkpt>
      <trkpt lat="47.80401" lon="-2.64448">
        <ele>129.19999694824</ele>
        <time>2025-05-15T13:03:09.000Z</time>
      </trkpt>
      <trkpt lat="47.804" lon="-2.6445">
        <ele>129.39999389648</ele>
        <time>2025-05-15T13:03:10.000Z</time>
      </trkpt>
      <trkpt lat="47.80398" lon="-2.64451">
        <ele>129.39999389648</ele>
        <time>2025-05-15T13:03:11.000Z</time>
      </trkpt>
      <trkpt lat="47.80397" lon="-2.64452">
        <ele>129.60000610352</ele>
        <time>2025-05-15T13:03:12.000Z</time>
      </trkpt>
      <trkpt lat="47.80395" lon="-2.64453">
        <ele>129.60000610352</ele>
        <time>2025-05-15T13:03:13.000Z</time>
      </trkpt>
      <trkpt lat="47.80391" lon="-2.64454">
        <ele>129.60000610352</ele>
        <time>2025-05-15T13:05:28.000Z</time>
      </trkpt>
      <trkpt lat="47.8039" lon="-2.64453">
        <ele>129.60000610352</ele>
        <time>2025-05-15T13:05:29.000Z</time>
      </trkpt>
      <trkpt lat="47.80388" lon="-2.64452">
        <ele>129.60000610352</ele>
        <time>2025-05-15T13:05:30.000Z</time>
      </trkpt>
      <trkpt lat="47.80386" lon="-2.64452">
        <ele>129.60000610352</ele>
        <time>2025-05-15T13:05:31.000Z</time>
      </trkpt>
      <trkpt lat="47.80383" lon="-2.64453">
        <ele>129.60000610352</ele>
        <time>2025-05-15T13:05:32.000Z</time>
      </trkpt>
      <trkpt lat="47.80381" lon="-2.64454">
        <ele>129.39999389648</ele>
        <time>2025-05-15T13:05:33.000Z</time>
      </trkpt>
      <trkpt lat="47.80377" lon="-2.64455">
        <ele>129.39999389648</ele>
        <time>2025-05-15T13:05:35.000Z</time>
      </trkpt>
      <trkpt lat="47.80376" lon="-2.64455">
        <ele>129.39999389648</ele>
        <time>2025-05-15T13:05:36.000Z</time>
      </trkpt>
      <trkpt lat="47.80374" lon="-2.64455">
        <ele>129.19999694824</ele>
        <time>2025-05-15T13:05:37.000Z</time>
      </trkpt>
      <trkpt lat="47.80373" lon="-2.64455">
        <ele>129.19999694824</ele>
        <time>2025-05-15T13:05:38.000Z</time>
      </trkpt>
      <trkpt lat="47.8037" lon="-2.64457">
        <ele>129</ele>
        <time>2025-05-15T13:05:39.000Z</time>
      </trkpt>
      <trkpt lat="47.80363" lon="-2.64463">
        <ele>128.19999694824</ele>
        <time>2025-05-15T13:05:42.000Z</time>
      </trkpt>
      <trkpt lat="47.80362" lon="-2.64464">
        <ele>127.59999847412</ele>
        <time>2025-05-15T13:05:44.000Z</time>
      </trkpt>
      <trkpt lat="47.80361" lon="-2.64464">
        <ele>127.40000152588</ele>
        <time>2025-05-15T13:05:45.000Z</time>
      </trkpt>
      <trkpt lat="47.8036" lon="-2.64466">
        <ele>127</ele>
        <time>2025-05-15T13:05:46.000Z</time>
      </trkpt>
      <trkpt lat="47.80356" lon="-2.6447">
        <ele>126.59999847412</ele>
        <time>2025-05-15T13:05:49.000Z</time>
      </trkpt>
      <trkpt lat="47.80355" lon="-2.64472">
        <ele>126.40000152588</ele>
        <time>2025-05-15T13:05:50.000Z</time>
      </trkpt>
      <trkpt lat="47.80349" lon="-2.64477">
        <ele>125.59999847412</ele>
        <time>2025-05-15T13:05:53.000Z</time>
      </trkpt>
      <trkpt lat="47.80347" lon="-2.6448">
        <ele>125.19999694824</ele>
        <time>2025-05-15T13:05:55.000Z</time>
      </trkpt>
      <trkpt lat="47.80346" lon="-2.64482">
        <ele>125</ele>
        <time>2025-05-15T13:05:56.000Z</time>
      </trkpt>
      <trkpt lat="47.80346" lon="-2.64483">
        <ele>125</ele>
        <time>2025-05-15T13:05:57.000Z</time>
      </trkpt>
      <trkpt lat="47.80346" lon="-2.64483">
        <ele>124.80000305176</ele>
        <time>2025-05-15T13:05:58.000Z</time>
      </trkpt>
      <trkpt lat="47.80345" lon="-2.64484">
        <ele>124.59999847412</ele>
        <time>2025-05-15T13:05:59.000Z</time>
      </trkpt>
      <trkpt lat="47.80344" lon="-2.64485">
        <ele>124.59999847412</ele>
        <time>2025-05-15T13:06:00.000Z</time>
      </trkpt>
      <trkpt lat="47.80343" lon="-2.64487">
        <ele>124.59999847412</ele>
        <time>2025-05-15T13:06:01.000Z</time>
      </trkpt>
      <trkpt lat="47.80342" lon="-2.64489">
        <ele>124.59999847412</ele>
        <time>2025-05-15T13:06:02.000Z</time>
      </trkpt>
      <trkpt lat="47.80342" lon="-2.64492">
        <ele>124.59999847412</ele>
        <time>2025-05-15T13:06:03.000Z</time>
      </trkpt>
      <trkpt lat="47.80342" lon="-2.64496">
        <ele>124.80000305176</ele>
        <time>2025-05-15T13:06:04.000Z</time>
      </trkpt>
      <trkpt lat="47.80341" lon="-2.64506">
        <ele>124.80000305176</ele>
        <time>2025-05-15T13:06:06.000Z</time>
      </trkpt>
      <trkpt lat="47.80341" lon="-2.6451">
        <ele>125</ele>
        <time>2025-05-15T13:06:07.000Z</time>
      </trkpt>
      <trkpt lat="47.80341" lon="-2.64511">
        <ele>125.19999694824</ele>
        <time>2025-05-15T13:06:08.000Z</time>
      </trkpt>
      <trkpt lat="47.80341" lon="-2.64513">
        <ele>125.40000152588</ele>
        <time>2025-05-15T13:06:09.000Z</time>
      </trkpt>
      <trkpt lat="47.8034" lon="-2.64515">
        <ele>125.40000152588</ele>
        <time>2025-05-15T13:06:10.000Z</time>
      </trkpt>
      <trkpt lat="47.80337" lon="-2.64519">
        <ele>125.59999847412</ele>
        <time>2025-05-15T13:06:11.000Z</time>
      </trkpt>
      <trkpt lat="47.80334" lon="-2.64522">
        <ele>125.59999847412</ele>
        <time>2025-05-15T13:06:12.000Z</time>
      </trkpt>
      <trkpt lat="47.80333" lon="-2.64527">
        <ele>126.19999694824</ele>
        <time>2025-05-15T13:06:13.000Z</time>
      </trkpt>
      <trkpt lat="47.8033" lon="-2.64533">
        <ele>126.19999694824</ele>
        <time>2025-05-15T13:06:14.000Z</time>
      </trkpt>
      <trkpt lat="47.80321" lon="-2.64548">
        <ele>126.40000152588</ele>
        <time>2025-05-15T13:06:18.000Z</time>
      </trkpt>
      <trkpt lat="47.80318" lon="-2.64551">
        <ele>126.40000152588</ele>
        <time>2025-05-15T13:06:19.000Z</time>
      </trkpt>
      <trkpt lat="47.80317" lon="-2.64554">
        <ele>126.40000152588</ele>
        <time>2025-05-15T13:06:20.000Z</time>
      </trkpt>
      <trkpt lat="47.80317" lon="-2.64557">
        <ele>126.40000152588</ele>
        <time>2025-05-15T13:06:21.000Z</time>
      </trkpt>
      <trkpt lat="47.80314" lon="-2.64565">
        <ele>126.40000152588</ele>
        <time>2025-05-15T13:06:23.000Z</time>
      </trkpt>
      <trkpt lat="47.80305" lon="-2.64581">
        <ele>126.40000152588</ele>
        <time>2025-05-15T13:06:27.000Z</time>
      </trkpt>
      <trkpt lat="47.80303" lon="-2.64587">
        <ele>126.59999847412</ele>
        <time>2025-05-15T13:06:28.000Z</time>
      </trkpt>
      <trkpt lat="47.80299" lon="-2.64593">
        <ele>126.59999847412</ele>
        <time>2025-05-15T13:06:29.000Z</time>
      </trkpt>
      <trkpt lat="47.80297" lon="-2.64597">
        <ele>127</ele>
        <time>2025-05-15T13:06:30.000Z</time>
      </trkpt>
      <trkpt lat="47.80291" lon="-2.64615">
        <ele>127.40000152588</ele>
        <time>2025-05-15T13:06:34.000Z</time>
      </trkpt>
      <trkpt lat="47.80289" lon="-2.64622">
        <ele>127.59999847412</ele>
        <time>2025-05-15T13:06:35.000Z</time>
      </trkpt>
      <trkpt lat="47.80287" lon="-2.64627">
        <ele>127.59999847412</ele>
        <time>2025-05-15T13:06:36.000Z</time>
      </trkpt>
      <trkpt lat="47.80286" lon="-2.64632">
        <ele>127.80000305176</ele>
        <time>2025-05-15T13:06:37.000Z</time>
      </trkpt>
      <trkpt lat="47.80283" lon="-2.64637">
        <ele>127.80000305176</ele>
        <time>2025-05-15T13:06:38.000Z</time>
      </trkpt>
      <trkpt lat="47.80283" lon="-2.64641">
        <ele>127.80000305176</ele>
        <time>2025-05-15T13:06:39.000Z</time>
      </trkpt>
      <trkpt lat="47.80283" lon="-2.64645">
        <ele>127.80000305176</ele>
        <time>2025-05-15T13:06:40.000Z</time>
      </trkpt>
      <trkpt lat="47.80283" lon="-2.64648">
        <ele>127.80000305176</ele>
        <time>2025-05-15T13:06:41.000Z</time>
      </trkpt>
      <trkpt lat="47.80282" lon="-2.64651">
        <ele>127.80000305176</ele>
        <time>2025-05-15T13:06:42.000Z</time>
      </trkpt>
      <trkpt lat="47.80281" lon="-2.64653">
        <ele>127.80000305176</ele>
        <time>2025-05-15T13:06:43.000Z</time>
      </trkpt>
      <trkpt lat="47.80281" lon="-2.64655">
        <ele>128</ele>
        <time>2025-05-15T13:06:44.000Z</time>
      </trkpt>
      <trkpt lat="47.80281" lon="-2.64657">
        <ele>128.39999389648</ele>
        <time>2025-05-15T13:06:45.000Z</time>
      </trkpt>
      <trkpt lat="47.80279" lon="-2.6466">
        <ele>128.60000610352</ele>
        <time>2025-05-15T13:06:46.000Z</time>
      </trkpt>
      <trkpt lat="47.80278" lon="-2.64664">
        <ele>128.80000305176</ele>
        <time>2025-05-15T13:06:48.000Z</time>
      </trkpt>
      <trkpt lat="47.80277" lon="-2.64667">
        <ele>129</ele>
        <time>2025-05-15T13:06:49.000Z</time>
      </trkpt>
      <trkpt lat="47.80277" lon="-2.64671">
        <ele>129.19999694824</ele>
        <time>2025-05-15T13:06:50.000Z</time>
      </trkpt>
      <trkpt lat="47.80277" lon="-2.64674">
        <ele>129.39999389648</ele>
        <time>2025-05-15T13:06:51.000Z</time>
      </trkpt>
      <trkpt lat="47.80277" lon="-2.64682">
        <ele>129.60000610352</ele>
        <time>2025-05-15T13:06:53.000Z</time>
      </trkpt>
      <trkpt lat="47.80277" lon="-2.64686">
        <ele>129.60000610352</ele>
        <time>2025-05-15T13:06:54.000Z</time>
      </trkpt>
      <trkpt lat="47.80276" lon="-2.64688">
        <ele>129.80000305176</ele>
        <time>2025-05-15T13:06:55.000Z</time>
      </trkpt>
      <trkpt lat="47.80274" lon="-2.6469">
        <ele>129.80000305176</ele>
        <time>2025-05-15T13:06:56.000Z</time>
      </trkpt>
      <trkpt lat="47.80273" lon="-2.64691">
        <ele>130</ele>
        <time>2025-05-15T13:06:57.000Z</time>
      </trkpt>
      <trkpt lat="47.8027" lon="-2.64692">
        <ele>130</ele>
        <time>2025-05-15T13:06:58.000Z</time>
      </trkpt>
      <trkpt lat="47.80268" lon="-2.64693">
        <ele>130</ele>
        <time>2025-05-15T13:06:59.000Z</time>
      </trkpt>
      <trkpt lat="47.80265" lon="-2.64691">
        <ele>130.19999694824</ele>
        <time>2025-05-15T13:07:00.000Z</time>
      </trkpt>
      <trkpt lat="47.80263" lon="-2.6469">
        <ele>130.19999694824</ele>
        <time>2025-05-15T13:07:01.000Z</time>
      </trkpt>
      <trkpt lat="47.8026" lon="-2.64688">
        <ele>130.19999694824</ele>
        <time>2025-05-15T13:07:02.000Z</time>
      </trkpt>
      <trkpt lat="47.80257" lon="-2.64685">
        <ele>130.19999694824</ele>
        <time>2025-05-15T13:07:03.000Z</time>
      </trkpt>
      <trkpt lat="47.80254" lon="-2.64682">
        <ele>130.19999694824</ele>
        <time>2025-05-15T13:07:04.000Z</time>
      </trkpt>
      <trkpt lat="47.8025" lon="-2.64678">
        <ele>130.19999694824</ele>
        <time>2025-05-15T13:07:05.000Z</time>
      </trkpt>
      <trkpt lat="47.80247" lon="-2.64673">
        <ele>130</ele>
        <time>2025-05-15T13:07:06.000Z</time>
      </trkpt>
      <trkpt lat="47.80233" lon="-2.64655">
        <ele>130</ele>
        <time>2025-05-15T13:07:10.000Z</time>
      </trkpt>
      <trkpt lat="47.8023" lon="-2.6465">
        <ele>130</ele>
        <time>2025-05-15T13:07:11.000Z</time>
      </trkpt>
      <trkpt lat="47.80228" lon="-2.64646">
        <ele>130</ele>
        <time>2025-05-15T13:07:12.000Z</time>
      </trkpt>
      <trkpt lat="47.80225" lon="-2.64643">
        <ele>130</ele>
        <time>2025-05-15T13:07:13.000Z</time>
      </trkpt>
      <trkpt lat="47.80222" lon="-2.6464">
        <ele>130.19999694824</ele>
        <time>2025-05-15T13:07:14.000Z</time>
      </trkpt>
      <trkpt lat="47.8022" lon="-2.64638">
        <ele>130.19999694824</ele>
        <time>2025-05-15T13:07:15.000Z</time>
      </trkpt>
      <trkpt lat="47.80218" lon="-2.64637">
        <ele>130.39999389648</ele>
        <time>2025-05-15T13:07:16.000Z</time>
      </trkpt>
      <trkpt lat="47.80217" lon="-2.64636">
        <ele>130.60000610352</ele>
        <time>2025-05-15T13:07:17.000Z</time>
      </trkpt>
      <trkpt lat="47.80216" lon="-2.64637">
        <ele>130.80000305176</ele>
        <time>2025-05-15T13:07:18.000Z</time>
      </trkpt>
      <trkpt lat="47.80215" lon="-2.64639">
        <ele>131</ele>
        <time>2025-05-15T13:07:19.000Z</time>
      </trkpt>
      <trkpt lat="47.80214" lon="-2.64641">
        <ele>131.19999694824</ele>
        <time>2025-05-15T13:07:20.000Z</time>
      </trkpt>
      <trkpt lat="47.80213" lon="-2.64644">
        <ele>131.39999389648</ele>
        <time>2025-05-15T13:07:21.000Z</time>
      </trkpt>
      <trkpt lat="47.80211" lon="-2.64646">
        <ele>131.60000610352</ele>
        <time>2025-05-15T13:07:22.000Z</time>
      </trkpt>
      <trkpt lat="47.8021" lon="-2.64649">
        <ele>131.80000305176</ele>
        <time>2025-05-15T13:07:23.000Z</time>
      </trkpt>
      <trkpt lat="47.8021" lon="-2.64655">
        <ele>132</ele>
        <time>2025-05-15T13:07:25.000Z</time>
      </trkpt>
      <trkpt lat="47.80209" lon="-2.64659">
        <ele>132</ele>
        <time>2025-05-15T13:07:26.000Z</time>
      </trkpt>
      <trkpt lat="47.80207" lon="-2.64667">
        <ele>132</ele>
        <time>2025-05-15T13:07:28.000Z</time>
      </trkpt>
      <trkpt lat="47.80203" lon="-2.64677">
        <ele>131.80000305176</ele>
        <time>2025-05-15T13:07:30.000Z</time>
      </trkpt>
      <trkpt lat="47.802" lon="-2.64682">
        <ele>131.80000305176</ele>
        <time>2025-05-15T13:07:31.000Z</time>
      </trkpt>
      <trkpt lat="47.80197" lon="-2.64687">
        <ele>131.80000305176</ele>
        <time>2025-05-15T13:07:32.000Z</time>
      </trkpt>
      <trkpt lat="47.80195" lon="-2.64691">
        <ele>131.80000305176</ele>
        <time>2025-05-15T13:07:33.000Z</time>
      </trkpt>
      <trkpt lat="47.80191" lon="-2.64695">
        <ele>131.80000305176</ele>
        <time>2025-05-15T13:07:34.000Z</time>
      </trkpt>
      <trkpt lat="47.80188" lon="-2.64699">
        <ele>131.80000305176</ele>
        <time>2025-05-15T13:07:35.000Z</time>
      </trkpt>
      <trkpt lat="47.80185" lon="-2.64704">
        <ele>131.80000305176</ele>
        <time>2025-05-15T13:07:36.000Z</time>
      </trkpt>
      <trkpt lat="47.80183" lon="-2.64707">
        <ele>131.80000305176</ele>
        <time>2025-05-15T13:07:37.000Z</time>
      </trkpt>
      <trkpt lat="47.80181" lon="-2.64709">
        <ele>131.80000305176</ele>
        <time>2025-05-15T13:07:38.000Z</time>
      </trkpt>
      <trkpt lat="47.80179" lon="-2.64711">
        <ele>131.80000305176</ele>
        <time>2025-05-15T13:07:39.000Z</time>
      </trkpt>
      <trkpt lat="47.80178" lon="-2.64712">
        <ele>132.19999694824</ele>
        <time>2025-05-15T13:07:40.000Z</time>
      </trkpt>
      <trkpt lat="47.80176" lon="-2.64713">
        <ele>132.19999694824</ele>
        <time>2025-05-15T13:07:41.000Z</time>
      </trkpt>
      <trkpt lat="47.80174" lon="-2.64715">
        <ele>132.19999694824</ele>
        <time>2025-05-15T13:07:42.000Z</time>
      </trkpt>
      <trkpt lat="47.80173" lon="-2.64716">
        <ele>132.39999389648</ele>
        <time>2025-05-15T13:07:43.000Z</time>
      </trkpt>
      <trkpt lat="47.80172" lon="-2.64719">
        <ele>132.39999389648</ele>
        <time>2025-05-15T13:07:44.000Z</time>
      </trkpt>
      <trkpt lat="47.8017" lon="-2.64722">
        <ele>132.60000610352</ele>
        <time>2025-05-15T13:07:45.000Z</time>
      </trkpt>
      <trkpt lat="47.80169" lon="-2.64724">
        <ele>132.60000610352</ele>
        <time>2025-05-15T13:07:46.000Z</time>
      </trkpt>
      <trkpt lat="47.80165" lon="-2.64727">
        <ele>132.80000305176</ele>
        <time>2025-05-15T13:07:47.000Z</time>
      </trkpt>
      <trkpt lat="47.80162" lon="-2.6473">
        <ele>133</ele>
        <time>2025-05-15T13:07:49.000Z</time>
      </trkpt>
      <trkpt lat="47.8016" lon="-2.64731">
        <ele>133</ele>
        <time>2025-05-15T13:07:50.000Z</time>
      </trkpt>
      <trkpt lat="47.80157" lon="-2.64732">
        <ele>133.19999694824</ele>
        <time>2025-05-15T13:07:51.000Z</time>
      </trkpt>
      <trkpt lat="47.80155" lon="-2.64732">
        <ele>133.19999694824</ele>
        <time>2025-05-15T13:07:52.000Z</time>
      </trkpt>
      <trkpt lat="47.80146" lon="-2.64737">
        <ele>133.19999694824</ele>
        <time>2025-05-15T13:07:55.000Z</time>
      </trkpt>
      <trkpt lat="47.80138" lon="-2.64739">
        <ele>133.19999694824</ele>
        <time>2025-05-15T13:07:57.000Z</time>
      </trkpt>
      <trkpt lat="47.80135" lon="-2.6474">
        <ele>133.19999694824</ele>
        <time>2025-05-15T13:07:58.000Z</time>
      </trkpt>
      <trkpt lat="47.8013" lon="-2.64743">
        <ele>133.39999389648</ele>
        <time>2025-05-15T13:08:00.000Z</time>
      </trkpt>
      <trkpt lat="47.80128" lon="-2.64743">
        <ele>133.60000610352</ele>
        <time>2025-05-15T13:08:01.000Z</time>
      </trkpt>
      <trkpt lat="47.80123" lon="-2.64743">
        <ele>133.80000305176</ele>
        <time>2025-05-15T13:08:03.000Z</time>
      </trkpt>
      <trkpt lat="47.80123" lon="-2.64743">
        <ele>133.80000305176</ele>
        <time>2025-05-15T13:08:04.000Z</time>
      </trkpt>
      <trkpt lat="47.80122" lon="-2.64743">
        <ele>134</ele>
        <time>2025-05-15T13:08:05.000Z</time>
      </trkpt>
      <trkpt lat="47.80121" lon="-2.64743">
        <ele>134</ele>
        <time>2025-05-15T13:08:06.000Z</time>
      </trkpt>
      <trkpt lat="47.8012" lon="-2.64743">
        <ele>134.19999694824</ele>
        <time>2025-05-15T13:08:07.000Z</time>
      </trkpt>
      <trkpt lat="47.80114" lon="-2.64745">
        <ele>134.39999389648</ele>
        <time>2025-05-15T13:08:10.000Z</time>
      </trkpt>
      <trkpt lat="47.8011" lon="-2.64747">
        <ele>134.60000610352</ele>
        <time>2025-05-15T13:08:12.000Z</time>
      </trkpt>
      <trkpt lat="47.80108" lon="-2.64749">
        <ele>134.60000610352</ele>
        <time>2025-05-15T13:08:13.000Z</time>
      </trkpt>
      <trkpt lat="47.80106" lon="-2.64749">
        <ele>134.60000610352</ele>
        <time>2025-05-15T13:08:14.000Z</time>
      </trkpt>
      <trkpt lat="47.80092" lon="-2.64754">
        <ele>135.19999694824</ele>
        <time>2025-05-15T13:08:21.000Z</time>
      </trkpt>
      <trkpt lat="47.80084" lon="-2.64756">
        <ele>135.60000610352</ele>
        <time>2025-05-15T13:08:24.000Z</time>
      </trkpt>
      <trkpt lat="47.80082" lon="-2.64757">
        <ele>135.60000610352</ele>
        <time>2025-05-15T13:08:25.000Z</time>
      </trkpt>
      <trkpt lat="47.80081" lon="-2.64757">
        <ele>135.80000305176</ele>
        <time>2025-05-15T13:08:26.000Z</time>
      </trkpt>
      <trkpt lat="47.80075" lon="-2.64761">
        <ele>136</ele>
        <time>2025-05-15T13:08:28.000Z</time>
      </trkpt>
      <trkpt lat="47.80069" lon="-2.64763">
        <ele>136.19999694824</ele>
        <time>2025-05-15T13:08:30.000Z</time>
      </trkpt>
      <trkpt lat="47.80068" lon="-2.64764">
        <ele>136.19999694824</ele>
        <time>2025-05-15T13:08:31.000Z</time>
      </trkpt>
      <trkpt lat="47.80062" lon="-2.6477">
        <ele>136.80000305176</ele>
        <time>2025-05-15T13:08:34.000Z</time>
      </trkpt>
      <trkpt lat="47.80061" lon="-2.64771">
        <ele>136.80000305176</ele>
        <time>2025-05-15T13:08:35.000Z</time>
      </trkpt>
      <trkpt lat="47.80059" lon="-2.64774">
        <ele>137</ele>
        <time>2025-05-15T13:08:36.000Z</time>
      </trkpt>
      <trkpt lat="47.80057" lon="-2.64777">
        <ele>137.19999694824</ele>
        <time>2025-05-15T13:08:37.000Z</time>
      </trkpt>
      <trkpt lat="47.80055" lon="-2.6478">
        <ele>137.39999389648</ele>
        <time>2025-05-15T13:08:39.000Z</time>
      </trkpt>
      <trkpt lat="47.80055" lon="-2.64781">
        <ele>137.39999389648</ele>
        <time>2025-05-15T13:08:40.000Z</time>
      </trkpt>
      <trkpt lat="47.80054" lon="-2.64783">
        <ele>137.39999389648</ele>
        <time>2025-05-15T13:08:41.000Z</time>
      </trkpt>
      <trkpt lat="47.80052" lon="-2.64785">
        <ele>137.39999389648</ele>
        <time>2025-05-15T13:08:42.000Z</time>
      </trkpt>
      <trkpt lat="47.80051" lon="-2.64787">
        <ele>137.39999389648</ele>
        <time>2025-05-15T13:08:43.000Z</time>
      </trkpt>
      <trkpt lat="47.80049" lon="-2.6479">
        <ele>137.60000610352</ele>
        <time>2025-05-15T13:08:44.000Z</time>
      </trkpt>
      <trkpt lat="47.80047" lon="-2.64791">
        <ele>137.60000610352</ele>
        <time>2025-05-15T13:08:45.000Z</time>
      </trkpt>
      <trkpt lat="47.80046" lon="-2.64793">
        <ele>137.60000610352</ele>
        <time>2025-05-15T13:08:46.000Z</time>
      </trkpt>
      <trkpt lat="47.80045" lon="-2.64795">
        <ele>137.80000305176</ele>
        <time>2025-05-15T13:08:47.000Z</time>
      </trkpt>
      <trkpt lat="47.80044" lon="-2.64796">
        <ele>137.80000305176</ele>
        <time>2025-05-15T13:08:48.000Z</time>
      </trkpt>
      <trkpt lat="47.80042" lon="-2.64797">
        <ele>137.80000305176</ele>
        <time>2025-05-15T13:08:49.000Z</time>
      </trkpt>
      <trkpt lat="47.8004" lon="-2.64798">
        <ele>138</ele>
        <time>2025-05-15T13:08:50.000Z</time>
      </trkpt>
      <trkpt lat="47.80036" lon="-2.648">
        <ele>138</ele>
        <time>2025-05-15T13:08:52.000Z</time>
      </trkpt>
      <trkpt lat="47.80034" lon="-2.64801">
        <ele>138</ele>
        <time>2025-05-15T13:08:53.000Z</time>
      </trkpt>
      <trkpt lat="47.80032" lon="-2.64803">
        <ele>138</ele>
        <time>2025-05-15T13:08:54.000Z</time>
      </trkpt>
      <trkpt lat="47.80028" lon="-2.64806">
        <ele>138.19999694824</ele>
        <time>2025-05-15T13:08:56.000Z</time>
      </trkpt>
      <trkpt lat="47.80025" lon="-2.64807">
        <ele>138.19999694824</ele>
        <time>2025-05-15T13:08:57.000Z</time>
      </trkpt>
      <trkpt lat="47.80023" lon="-2.64808">
        <ele>138.39999389648</ele>
        <time>2025-05-15T13:08:58.000Z</time>
      </trkpt>
      <trkpt lat="47.8002" lon="-2.6481">
        <ele>138.39999389648</ele>
        <time>2025-05-15T13:08:59.000Z</time>
      </trkpt>
      <trkpt lat="47.80019" lon="-2.64811">
        <ele>138.60000610352</ele>
        <time>2025-05-15T13:09:00.000Z</time>
      </trkpt>
      <trkpt lat="47.80017" lon="-2.64812">
        <ele>138.60000610352</ele>
        <time>2025-05-15T13:09:01.000Z</time>
      </trkpt>
      <trkpt lat="47.80015" lon="-2.64815">
        <ele>138.80000305176</ele>
        <time>2025-05-15T13:09:02.000Z</time>
      </trkpt>
      <trkpt lat="47.80014" lon="-2.64816">
        <ele>138.80000305176</ele>
        <time>2025-05-15T13:09:03.000Z</time>
      </trkpt>
      <trkpt lat="47.80006" lon="-2.64823">
        <ele>139.19999694824</ele>
        <time>2025-05-15T13:09:07.000Z</time>
      </trkpt>
      <trkpt lat="47.80005" lon="-2.64825">
        <ele>139.19999694824</ele>
        <time>2025-05-15T13:09:08.000Z</time>
      </trkpt>
      <trkpt lat="47.80004" lon="-2.64827">
        <ele>139.60000610352</ele>
        <time>2025-05-15T13:09:09.000Z</time>
      </trkpt>
      <trkpt lat="47.80004" lon="-2.64828">
        <ele>139.80000305176</ele>
        <time>2025-05-15T13:09:10.000Z</time>
      </trkpt>
      <trkpt lat="47.80003" lon="-2.64828">
        <ele>140</ele>
        <time>2025-05-15T13:09:11.000Z</time>
      </trkpt>
      <trkpt lat="47.80002" lon="-2.64829">
        <ele>140.19999694824</ele>
        <time>2025-05-15T13:09:12.000Z</time>
      </trkpt>
      <trkpt lat="47.79997" lon="-2.64836">
        <ele>140.80000305176</ele>
        <time>2025-05-15T13:09:16.000Z</time>
      </trkpt>
      <trkpt lat="47.79996" lon="-2.64838">
        <ele>140.80000305176</ele>
        <time>2025-05-15T13:09:17.000Z</time>
      </trkpt>
      <trkpt lat="47.79994" lon="-2.64839">
        <ele>141</ele>
        <time>2025-05-15T13:09:18.000Z</time>
      </trkpt>
      <trkpt lat="47.79992" lon="-2.64841">
        <ele>141</ele>
        <time>2025-05-15T13:09:19.000Z</time>
      </trkpt>
      <trkpt lat="47.7999" lon="-2.64844">
        <ele>141</ele>
        <time>2025-05-15T13:09:20.000Z</time>
      </trkpt>
      <trkpt lat="47.79989" lon="-2.64846">
        <ele>141</ele>
        <time>2025-05-15T13:09:21.000Z</time>
      </trkpt>
      <trkpt lat="47.79988" lon="-2.64848">
        <ele>141</ele>
        <time>2025-05-15T13:09:22.000Z</time>
      </trkpt>
      <trkpt lat="47.79986" lon="-2.6485">
        <ele>141</ele>
        <time>2025-05-15T13:09:23.000Z</time>
      </trkpt>
      <trkpt lat="47.79985" lon="-2.64853">
        <ele>141</ele>
        <time>2025-05-15T13:09:24.000Z</time>
      </trkpt>
      <trkpt lat="47.79983" lon="-2.64856">
        <ele>141</ele>
        <time>2025-05-15T13:09:25.000Z</time>
      </trkpt>
      <trkpt lat="47.79982" lon="-2.64858">
        <ele>141</ele>
        <time>2025-05-15T13:09:26.000Z</time>
      </trkpt>
      <trkpt lat="47.79981" lon="-2.64859">
        <ele>141.19999694824</ele>
        <time>2025-05-15T13:09:27.000Z</time>
      </trkpt>
      <trkpt lat="47.7998" lon="-2.6486">
        <ele>141.19999694824</ele>
        <time>2025-05-15T13:09:28.000Z</time>
      </trkpt>
      <trkpt lat="47.79979" lon="-2.64861">
        <ele>141.39999389648</ele>
        <time>2025-05-15T13:09:29.000Z</time>
      </trkpt>
      <trkpt lat="47.79978" lon="-2.64861">
        <ele>141.39999389648</ele>
        <time>2025-05-15T13:09:31.000Z</time>
      </trkpt>
      <trkpt lat="47.79977" lon="-2.64866">
        <ele>142</ele>
        <time>2025-05-15T13:09:39.000Z</time>
      </trkpt>
      <trkpt lat="47.79976" lon="-2.64869">
        <ele>142.19999694824</ele>
        <time>2025-05-15T13:09:41.000Z</time>
      </trkpt>
      <trkpt lat="47.79976" lon="-2.64869">
        <ele>142.19999694824</ele>
        <time>2025-05-15T13:09:42.000Z</time>
      </trkpt>
      <trkpt lat="47.79976" lon="-2.6487">
        <ele>142.39999389648</ele>
        <time>2025-05-15T13:09:43.000Z</time>
      </trkpt>
      <trkpt lat="47.79974" lon="-2.64879">
        <ele>142.39999389648</ele>
        <time>2025-05-15T13:09:47.000Z</time>
      </trkpt>
      <trkpt lat="47.79974" lon="-2.64881">
        <ele>142.60000610352</ele>
        <time>2025-05-15T13:09:48.000Z</time>
      </trkpt>
      <trkpt lat="47.79973" lon="-2.64883">
        <ele>142.60000610352</ele>
        <time>2025-05-15T13:09:49.000Z</time>
      </trkpt>
      <trkpt lat="47.79974" lon="-2.64885">
        <ele>142.60000610352</ele>
        <time>2025-05-15T13:09:50.000Z</time>
      </trkpt>
      <trkpt lat="47.79973" lon="-2.64893">
        <ele>142.80000305176</ele>
        <time>2025-05-15T13:09:53.000Z</time>
      </trkpt>
      <trkpt lat="47.79971" lon="-2.64899">
        <ele>142.80000305176</ele>
        <time>2025-05-15T13:09:55.000Z</time>
      </trkpt>
      <trkpt lat="47.7997" lon="-2.64902">
        <ele>142.80000305176</ele>
        <time>2025-05-15T13:09:56.000Z</time>
      </trkpt>
      <trkpt lat="47.79971" lon="-2.64911">
        <ele>142.80000305176</ele>
        <time>2025-05-15T13:09:58.000Z</time>
      </trkpt>
      <trkpt lat="47.79971" lon="-2.64912">
        <ele>142.60000610352</ele>
        <time>2025-05-15T13:10:02.000Z</time>
      </trkpt>
      <trkpt lat="47.79971" lon="-2.64912">
        <ele>142.60000610352</ele>
        <time>2025-05-15T13:10:03.000Z</time>
      </trkpt>
      <trkpt lat="47.79969" lon="-2.64917">
        <ele>142.19999694824</ele>
        <time>2025-05-15T13:10:11.000Z</time>
      </trkpt>
      <trkpt lat="47.79968" lon="-2.6492">
        <ele>142.19999694824</ele>
        <time>2025-05-15T13:10:13.000Z</time>
      </trkpt>
      <trkpt lat="47.79968" lon="-2.64923">
        <ele>142.19999694824</ele>
        <time>2025-05-15T13:10:14.000Z</time>
      </trkpt>
      <trkpt lat="47.79967" lon="-2.64925">
        <ele>142.19999694824</ele>
        <time>2025-05-15T13:10:15.000Z</time>
      </trkpt>
      <trkpt lat="47.79965" lon="-2.64933">
        <ele>142.39999389648</ele>
        <time>2025-05-15T13:10:19.000Z</time>
      </trkpt>
      <trkpt lat="47.79964" lon="-2.64936">
        <ele>142.60000610352</ele>
        <time>2025-05-15T13:10:20.000Z</time>
      </trkpt>
      <trkpt lat="47.7996" lon="-2.64947">
        <ele>142.60000610352</ele>
        <time>2025-05-15T13:10:23.000Z</time>
      </trkpt>
      <trkpt lat="47.7996" lon="-2.64954">
        <ele>142.60000610352</ele>
        <time>2025-05-15T13:10:25.000Z</time>
      </trkpt>
      <trkpt lat="47.79959" lon="-2.64957">
        <ele>142.60000610352</ele>
        <time>2025-05-15T13:10:26.000Z</time>
      </trkpt>
      <trkpt lat="47.79957" lon="-2.64966">
        <ele>142.80000305176</ele>
        <time>2025-05-15T13:10:29.000Z</time>
      </trkpt>
      <trkpt lat="47.79956" lon="-2.6497">
        <ele>142.80000305176</ele>
        <time>2025-05-15T13:10:30.000Z</time>
      </trkpt>
      <trkpt lat="47.79955" lon="-2.64973">
        <ele>143</ele>
        <time>2025-05-15T13:10:31.000Z</time>
      </trkpt>
      <trkpt lat="47.79954" lon="-2.64976">
        <ele>143.19999694824</ele>
        <time>2025-05-15T13:10:32.000Z</time>
      </trkpt>
      <trkpt lat="47.79954" lon="-2.64978">
        <ele>143.19999694824</ele>
        <time>2025-05-15T13:10:33.000Z</time>
      </trkpt>
      <trkpt lat="47.79953" lon="-2.64981">
        <ele>143.39999389648</ele>
        <time>2025-05-15T13:10:34.000Z</time>
      </trkpt>
      <trkpt lat="47.79953" lon="-2.64984">
        <ele>143.39999389648</ele>
        <time>2025-05-15T13:10:35.000Z</time>
      </trkpt>
      <trkpt lat="47.79951" lon="-2.6499">
        <ele>143.60000610352</ele>
        <time>2025-05-15T13:10:36.000Z</time>
      </trkpt>
      <trkpt lat="47.7995" lon="-2.64993">
        <ele>143.60000610352</ele>
        <time>2025-05-15T13:10:37.000Z</time>
      </trkpt>
      <trkpt lat="47.79949" lon="-2.64996">
        <ele>143.80000305176</ele>
        <time>2025-05-15T13:10:38.000Z</time>
      </trkpt>
      <trkpt lat="47.79949" lon="-2.64998">
        <ele>144</ele>
        <time>2025-05-15T13:10:39.000Z</time>
      </trkpt>
      <trkpt lat="47.7995" lon="-2.64999">
        <ele>144.19999694824</ele>
        <time>2025-05-15T13:10:40.000Z</time>
      </trkpt>
      <trkpt lat="47.79949" lon="-2.65001">
        <ele>144.39999389648</ele>
        <time>2025-05-15T13:10:41.000Z</time>
      </trkpt>
      <trkpt lat="47.79949" lon="-2.65003">
        <ele>144.60000610352</ele>
        <time>2025-05-15T13:10:42.000Z</time>
      </trkpt>
      <trkpt lat="47.79949" lon="-2.65005">
        <ele>144.80000305176</ele>
        <time>2025-05-15T13:10:43.000Z</time>
      </trkpt>
      <trkpt lat="47.79948" lon="-2.65007">
        <ele>144.80000305176</ele>
        <time>2025-05-15T13:10:44.000Z</time>
      </trkpt>
      <trkpt lat="47.79944" lon="-2.65015">
        <ele>145.39999389648</ele>
        <time>2025-05-15T13:10:48.000Z</time>
      </trkpt>
      <trkpt lat="47.79943" lon="-2.65017">
        <ele>145.39999389648</ele>
        <time>2025-05-15T13:10:49.000Z</time>
      </trkpt>
      <trkpt lat="47.79941" lon="-2.65018">
        <ele>145.39999389648</ele>
        <time>2025-05-15T13:10:50.000Z</time>
      </trkpt>
      <trkpt lat="47.7994" lon="-2.6502">
        <ele>145.39999389648</ele>
        <time>2025-05-15T13:10:51.000Z</time>
      </trkpt>
      <trkpt lat="47.79938" lon="-2.65021">
        <ele>145.60000610352</ele>
        <time>2025-05-15T13:10:52.000Z</time>
      </trkpt>
      <trkpt lat="47.79936" lon="-2.65021">
        <ele>145.60000610352</ele>
        <time>2025-05-15T13:10:53.000Z</time>
      </trkpt>
      <trkpt lat="47.79935" lon="-2.65022">
        <ele>145.60000610352</ele>
        <time>2025-05-15T13:10:54.000Z</time>
      </trkpt>
      <trkpt lat="47.79932" lon="-2.65022">
        <ele>145.60000610352</ele>
        <time>2025-05-15T13:10:55.000Z</time>
      </trkpt>
      <trkpt lat="47.7993" lon="-2.65022">
        <ele>145.60000610352</ele>
        <time>2025-05-15T13:10:56.000Z</time>
      </trkpt>
      <trkpt lat="47.7993" lon="-2.65022">
        <ele>145.60000610352</ele>
        <time>2025-05-15T13:10:57.000Z</time>
      </trkpt>
      <trkpt lat="47.79927" lon="-2.65022">
        <ele>145.80000305176</ele>
        <time>2025-05-15T13:10:58.000Z</time>
      </trkpt>
      <trkpt lat="47.79923" lon="-2.65024">
        <ele>145.80000305176</ele>
        <time>2025-05-15T13:11:00.000Z</time>
      </trkpt>
      <trkpt lat="47.79921" lon="-2.65024">
        <ele>145.80000305176</ele>
        <time>2025-05-15T13:11:01.000Z</time>
      </trkpt>
      <trkpt lat="47.79916" lon="-2.65023">
        <ele>146</ele>
        <time>2025-05-15T13:11:03.000Z</time>
      </trkpt>
      <trkpt lat="47.79914" lon="-2.65023">
        <ele>146</ele>
        <time>2025-05-15T13:11:04.000Z</time>
      </trkpt>
      <trkpt lat="47.79912" lon="-2.65022">
        <ele>146.19999694824</ele>
        <time>2025-05-15T13:11:05.000Z</time>
      </trkpt>
      <trkpt lat="47.7991" lon="-2.65022">
        <ele>146.19999694824</ele>
        <time>2025-05-15T13:11:06.000Z</time>
      </trkpt>
      <trkpt lat="47.79899" lon="-2.6502">
        <ele>146.39999389648</ele>
        <time>2025-05-15T13:11:10.000Z</time>
      </trkpt>
      <trkpt lat="47.79892" lon="-2.65019">
        <ele>146.60000610352</ele>
        <time>2025-05-15T13:11:13.000Z</time>
      </trkpt>
      <trkpt lat="47.79888" lon="-2.65018">
        <ele>146.80000305176</ele>
        <time>2025-05-15T13:11:14.000Z</time>
      </trkpt>
      <trkpt lat="47.79886" lon="-2.65018">
        <ele>147</ele>
        <time>2025-05-15T13:11:15.000Z</time>
      </trkpt>
      <trkpt lat="47.79883" lon="-2.65018">
        <ele>147</ele>
        <time>2025-05-15T13:11:16.000Z</time>
      </trkpt>
      <trkpt lat="47.79881" lon="-2.65019">
        <ele>147.19999694824</ele>
        <time>2025-05-15T13:11:17.000Z</time>
      </trkpt>
      <trkpt lat="47.79878" lon="-2.65019">
        <ele>147.19999694824</ele>
        <time>2025-05-15T13:11:18.000Z</time>
      </trkpt>
      <trkpt lat="47.79876" lon="-2.65019">
        <ele>147.19999694824</ele>
        <time>2025-05-15T13:11:19.000Z</time>
      </trkpt>
      <trkpt lat="47.79869" lon="-2.65018">
        <ele>147.39999389648</ele>
        <time>2025-05-15T13:11:23.000Z</time>
      </trkpt>
      <trkpt lat="47.79867" lon="-2.65017">
        <ele>147.60000610352</ele>
        <time>2025-05-15T13:11:24.000Z</time>
      </trkpt>
      <trkpt lat="47.79863" lon="-2.65016">
        <ele>147.80000305176</ele>
        <time>2025-05-15T13:11:26.000Z</time>
      </trkpt>
      <trkpt lat="47.7986" lon="-2.65016">
        <ele>147.80000305176</ele>
        <time>2025-05-15T13:11:27.000Z</time>
      </trkpt>
      <trkpt lat="47.79858" lon="-2.65016">
        <ele>148</ele>
        <time>2025-05-15T13:11:28.000Z</time>
      </trkpt>
      <trkpt lat="47.79856" lon="-2.65016">
        <ele>148</ele>
        <time>2025-05-15T13:11:29.000Z</time>
      </trkpt>
      <trkpt lat="47.79855" lon="-2.65015">
        <ele>148</ele>
        <time>2025-05-15T13:11:30.000Z</time>
      </trkpt>
      <trkpt lat="47.79852" lon="-2.65015">
        <ele>148.19999694824</ele>
        <time>2025-05-15T13:11:31.000Z</time>
      </trkpt>
      <trkpt lat="47.79847" lon="-2.65014">
        <ele>148.60000610352</ele>
        <time>2025-05-15T13:11:34.000Z</time>
      </trkpt>
      <trkpt lat="47.79846" lon="-2.65014">
        <ele>148.80000305176</ele>
        <time>2025-05-15T13:11:35.000Z</time>
      </trkpt>
      <trkpt lat="47.79844" lon="-2.65014">
        <ele>149</ele>
        <time>2025-05-15T13:11:36.000Z</time>
      </trkpt>
      <trkpt lat="47.79841" lon="-2.65014">
        <ele>149</ele>
        <time>2025-05-15T13:11:37.000Z</time>
      </trkpt>
      <trkpt lat="47.79839" lon="-2.65014">
        <ele>149.19999694824</ele>
        <time>2025-05-15T13:11:38.000Z</time>
      </trkpt>
      <trkpt lat="47.79838" lon="-2.65014">
        <ele>149.19999694824</ele>
        <time>2025-05-15T13:11:39.000Z</time>
      </trkpt>
      <trkpt lat="47.79835" lon="-2.65014">
        <ele>149.19999694824</ele>
        <time>2025-05-15T13:11:40.000Z</time>
      </trkpt>
      <trkpt lat="47.79833" lon="-2.65013">
        <ele>149.19999694824</ele>
        <time>2025-05-15T13:11:41.000Z</time>
      </trkpt>
      <trkpt lat="47.79817" lon="-2.65009">
        <ele>149.19999694824</ele>
        <time>2025-05-15T13:11:47.000Z</time>
      </trkpt>
      <trkpt lat="47.79803" lon="-2.65007">
        <ele>149.19999694824</ele>
        <time>2025-05-15T13:11:51.000Z</time>
      </trkpt>
      <trkpt lat="47.79801" lon="-2.65007">
        <ele>149.19999694824</ele>
        <time>2025-05-15T13:11:52.000Z</time>
      </trkpt>
      <trkpt lat="47.79798" lon="-2.65006">
        <ele>149.39999389648</ele>
        <time>2025-05-15T13:11:53.000Z</time>
      </trkpt>
      <trkpt lat="47.79795" lon="-2.65004">
        <ele>149.39999389648</ele>
        <time>2025-05-15T13:11:54.000Z</time>
      </trkpt>
      <trkpt lat="47.7979" lon="-2.65002">
        <ele>149.60000610352</ele>
        <time>2025-05-15T13:11:56.000Z</time>
      </trkpt>
      <trkpt lat="47.7978" lon="-2.64997">
        <ele>149.80000305176</ele>
        <time>2025-05-15T13:11:59.000Z</time>
      </trkpt>
      <trkpt lat="47.79777" lon="-2.64995">
        <ele>150</ele>
        <time>2025-05-15T13:12:00.000Z</time>
      </trkpt>
      <trkpt lat="47.79775" lon="-2.64994">
        <ele>150</ele>
        <time>2025-05-15T13:12:01.000Z</time>
      </trkpt>
      <trkpt lat="47.79773" lon="-2.64994">
        <ele>150.19999694824</ele>
        <time>2025-05-15T13:12:02.000Z</time>
      </trkpt>
      <trkpt lat="47.79772" lon="-2.64994">
        <ele>150.19999694824</ele>
        <time>2025-05-15T13:12:03.000Z</time>
      </trkpt>
      <trkpt lat="47.7977" lon="-2.64994">
        <ele>150.19999694824</ele>
        <time>2025-05-15T13:12:04.000Z</time>
      </trkpt>
      <trkpt lat="47.79768" lon="-2.64995">
        <ele>150.39999389648</ele>
        <time>2025-05-15T13:12:05.000Z</time>
      </trkpt>
      <trkpt lat="47.79767" lon="-2.64995">
        <ele>150.39999389648</ele>
        <time>2025-05-15T13:12:06.000Z</time>
      </trkpt>
      <trkpt lat="47.79765" lon="-2.64995">
        <ele>150.39999389648</ele>
        <time>2025-05-15T13:12:07.000Z</time>
      </trkpt>
      <trkpt lat="47.79757" lon="-2.64997">
        <ele>150.39999389648</ele>
        <time>2025-05-15T13:12:10.000Z</time>
      </trkpt>
      <trkpt lat="47.79756" lon="-2.64999">
        <ele>150.39999389648</ele>
        <time>2025-05-15T13:12:11.000Z</time>
      </trkpt>
      <trkpt lat="47.79757" lon="-2.65002">
        <ele>150.39999389648</ele>
        <time>2025-05-15T13:12:12.000Z</time>
      </trkpt>
      <trkpt lat="47.79758" lon="-2.65008">
        <ele>150.39999389648</ele>
        <time>2025-05-15T13:12:14.000Z</time>
      </trkpt>
      <trkpt lat="47.79759" lon="-2.6501">
        <ele>150.39999389648</ele>
        <time>2025-05-15T13:12:15.000Z</time>
      </trkpt>
      <trkpt lat="47.7976" lon="-2.65012">
        <ele>150.39999389648</ele>
        <time>2025-05-15T13:12:16.000Z</time>
      </trkpt>
      <trkpt lat="47.79761" lon="-2.65014">
        <ele>150.39999389648</ele>
        <time>2025-05-15T13:12:17.000Z</time>
      </trkpt>
      <trkpt lat="47.79762" lon="-2.65017">
        <ele>150.39999389648</ele>
        <time>2025-05-15T13:12:18.000Z</time>
      </trkpt>
      <trkpt lat="47.79764" lon="-2.65022">
        <ele>150.39999389648</ele>
        <time>2025-05-15T13:12:20.000Z</time>
      </trkpt>
      <trkpt lat="47.79764" lon="-2.65026">
        <ele>150.39999389648</ele>
        <time>2025-05-15T13:12:21.000Z</time>
      </trkpt>
      <trkpt lat="47.79765" lon="-2.65029">
        <ele>150.39999389648</ele>
        <time>2025-05-15T13:12:22.000Z</time>
      </trkpt>
      <trkpt lat="47.79765" lon="-2.65032">
        <ele>150.60000610352</ele>
        <time>2025-05-15T13:12:23.000Z</time>
      </trkpt>
      <trkpt lat="47.79767" lon="-2.65037">
        <ele>150.60000610352</ele>
        <time>2025-05-15T13:12:25.000Z</time>
      </trkpt>
      <trkpt lat="47.79769" lon="-2.65044">
        <ele>150.60000610352</ele>
        <time>2025-05-15T13:12:27.000Z</time>
      </trkpt>
      <trkpt lat="47.7977" lon="-2.65046">
        <ele>150.60000610352</ele>
        <time>2025-05-15T13:12:28.000Z</time>
      </trkpt>
      <trkpt lat="47.7977" lon="-2.65049">
        <ele>150.60000610352</ele>
        <time>2025-05-15T13:12:29.000Z</time>
      </trkpt>
      <trkpt lat="47.79769" lon="-2.65053">
        <ele>150.80000305176</ele>
        <time>2025-05-15T13:12:30.000Z</time>
      </trkpt>
      <trkpt lat="47.79769" lon="-2.65056">
        <ele>150.80000305176</ele>
        <time>2025-05-15T13:12:31.000Z</time>
      </trkpt>
      <trkpt lat="47.7977" lon="-2.65059">
        <ele>150.80000305176</ele>
        <time>2025-05-15T13:12:32.000Z</time>
      </trkpt>
      <trkpt lat="47.7977" lon="-2.65064">
        <ele>150.80000305176</ele>
        <time>2025-05-15T13:12:34.000Z</time>
      </trkpt>
      <trkpt lat="47.79771" lon="-2.65066">
        <ele>150.80000305176</ele>
        <time>2025-05-15T13:12:35.000Z</time>
      </trkpt>
      <trkpt lat="47.79771" lon="-2.65069">
        <ele>151</ele>
        <time>2025-05-15T13:12:36.000Z</time>
      </trkpt>
      <trkpt lat="47.79772" lon="-2.65072">
        <ele>151</ele>
        <time>2025-05-15T13:12:37.000Z</time>
      </trkpt>
      <trkpt lat="47.7977" lon="-2.65081">
        <ele>151.80000305176</ele>
        <time>2025-05-15T13:12:40.000Z</time>
      </trkpt>
      <trkpt lat="47.7977" lon="-2.65084">
        <ele>152</ele>
        <time>2025-05-15T13:12:41.000Z</time>
      </trkpt>
      <trkpt lat="47.7977" lon="-2.65087">
        <ele>152</ele>
        <time>2025-05-15T13:12:42.000Z</time>
      </trkpt>
      <trkpt lat="47.79769" lon="-2.6509">
        <ele>152.19999694824</ele>
        <time>2025-05-15T13:12:43.000Z</time>
      </trkpt>
      <trkpt lat="47.79769" lon="-2.65093">
        <ele>152.39999389648</ele>
        <time>2025-05-15T13:12:44.000Z</time>
      </trkpt>
      <trkpt lat="47.79769" lon="-2.65103">
        <ele>152.60000610352</ele>
        <time>2025-05-15T13:12:47.000Z</time>
      </trkpt>
      <trkpt lat="47.79769" lon="-2.65105">
        <ele>152.80000305176</ele>
        <time>2025-05-15T13:12:48.000Z</time>
      </trkpt>
      <trkpt lat="47.79768" lon="-2.65112">
        <ele>153</ele>
        <time>2025-05-15T13:12:50.000Z</time>
      </trkpt>
      <trkpt lat="47.79767" lon="-2.65116">
        <ele>153.19999694824</ele>
        <time>2025-05-15T13:12:51.000Z</time>
      </trkpt>
      <trkpt lat="47.79767" lon="-2.65119">
        <ele>153.39999389648</ele>
        <time>2025-05-15T13:12:52.000Z</time>
      </trkpt>
      <trkpt lat="47.79766" lon="-2.65125">
        <ele>153.60000610352</ele>
        <time>2025-05-15T13:12:54.000Z</time>
      </trkpt>
      <trkpt lat="47.79766" lon="-2.65128">
        <ele>153.80000305176</ele>
        <time>2025-05-15T13:12:55.000Z</time>
      </trkpt>
      <trkpt lat="47.79765" lon="-2.65131">
        <ele>153.80000305176</ele>
        <time>2025-05-15T13:12:56.000Z</time>
      </trkpt>
      <trkpt lat="47.79766" lon="-2.65134">
        <ele>154</ele>
        <time>2025-05-15T13:12:57.000Z</time>
      </trkpt>
      <trkpt lat="47.79766" lon="-2.65137">
        <ele>154</ele>
        <time>2025-05-15T13:12:58.000Z</time>
      </trkpt>
      <trkpt lat="47.79766" lon="-2.6514">
        <ele>154.19999694824</ele>
        <time>2025-05-15T13:12:59.000Z</time>
      </trkpt>
      <trkpt lat="47.79767" lon="-2.65143">
        <ele>154.39999389648</ele>
        <time>2025-05-15T13:13:00.000Z</time>
      </trkpt>
      <trkpt lat="47.79767" lon="-2.65145">
        <ele>154.39999389648</ele>
        <time>2025-05-15T13:13:01.000Z</time>
      </trkpt>
      <trkpt lat="47.79767" lon="-2.65147">
        <ele>154.60000610352</ele>
        <time>2025-05-15T13:13:02.000Z</time>
      </trkpt>
      <trkpt lat="47.79767" lon="-2.6515">
        <ele>154.60000610352</ele>
        <time>2025-05-15T13:13:03.000Z</time>
      </trkpt>
      <trkpt lat="47.79767" lon="-2.65153">
        <ele>154.80000305176</ele>
        <time>2025-05-15T13:13:04.000Z</time>
      </trkpt>
      <trkpt lat="47.79767" lon="-2.65157">
        <ele>154.80000305176</ele>
        <time>2025-05-15T13:13:05.000Z</time>
      </trkpt>
      <trkpt lat="47.79767" lon="-2.65161">
        <ele>155</ele>
        <time>2025-05-15T13:13:06.000Z</time>
      </trkpt>
      <trkpt lat="47.79768" lon="-2.65165">
        <ele>155</ele>
        <time>2025-05-15T13:13:07.000Z</time>
      </trkpt>
      <trkpt lat="47.79767" lon="-2.6517">
        <ele>155.19999694824</ele>
        <time>2025-05-15T13:13:08.000Z</time>
      </trkpt>
      <trkpt lat="47.79768" lon="-2.65175">
        <ele>155.39999389648</ele>
        <time>2025-05-15T13:13:09.000Z</time>
      </trkpt>
      <trkpt lat="47.79768" lon="-2.65181">
        <ele>155.39999389648</ele>
        <time>2025-05-15T13:13:10.000Z</time>
      </trkpt>
      <trkpt lat="47.79768" lon="-2.65186">
        <ele>155.60000610352</ele>
        <time>2025-05-15T13:13:11.000Z</time>
      </trkpt>
      <trkpt lat="47.79768" lon="-2.65193">
        <ele>155.60000610352</ele>
        <time>2025-05-15T13:13:12.000Z</time>
      </trkpt>
      <trkpt lat="47.79768" lon="-2.65199">
        <ele>155.80000305176</ele>
        <time>2025-05-15T13:13:13.000Z</time>
      </trkpt>
      <trkpt lat="47.79767" lon="-2.65204">
        <ele>155.80000305176</ele>
        <time>2025-05-15T13:13:14.000Z</time>
      </trkpt>
      <trkpt lat="47.79768" lon="-2.65209">
        <ele>155.80000305176</ele>
        <time>2025-05-15T13:13:15.000Z</time>
      </trkpt>
      <trkpt lat="47.79768" lon="-2.65213">
        <ele>155.80000305176</ele>
        <time>2025-05-15T13:13:16.000Z</time>
      </trkpt>
      <trkpt lat="47.79768" lon="-2.65217">
        <ele>155.80000305176</ele>
        <time>2025-05-15T13:13:17.000Z</time>
      </trkpt>
      <trkpt lat="47.79768" lon="-2.65221">
        <ele>155.80000305176</ele>
        <time>2025-05-15T13:13:18.000Z</time>
      </trkpt>
      <trkpt lat="47.79769" lon="-2.65225">
        <ele>156</ele>
        <time>2025-05-15T13:13:19.000Z</time>
      </trkpt>
      <trkpt lat="47.7977" lon="-2.6523">
        <ele>156</ele>
        <time>2025-05-15T13:13:20.000Z</time>
      </trkpt>
      <trkpt lat="47.79772" lon="-2.65234">
        <ele>156</ele>
        <time>2025-05-15T13:13:21.000Z</time>
      </trkpt>
      <trkpt lat="47.79774" lon="-2.65239">
        <ele>156</ele>
        <time>2025-05-15T13:13:22.000Z</time>
      </trkpt>
      <trkpt lat="47.79774" lon="-2.65243">
        <ele>156</ele>
        <time>2025-05-15T13:13:23.000Z</time>
      </trkpt>
      <trkpt lat="47.79774" lon="-2.65247">
        <ele>156</ele>
        <time>2025-05-15T13:13:24.000Z</time>
      </trkpt>
      <trkpt lat="47.79775" lon="-2.65257">
        <ele>156</ele>
        <time>2025-05-15T13:13:26.000Z</time>
      </trkpt>
      <trkpt lat="47.79775" lon="-2.65262">
        <ele>156</ele>
        <time>2025-05-15T13:13:27.000Z</time>
      </trkpt>
      <trkpt lat="47.79775" lon="-2.65269">
        <ele>156</ele>
        <time>2025-05-15T13:13:28.000Z</time>
      </trkpt>
      <trkpt lat="47.79774" lon="-2.6528">
        <ele>156</ele>
        <time>2025-05-15T13:13:30.000Z</time>
      </trkpt>
      <trkpt lat="47.79775" lon="-2.65285">
        <ele>156</ele>
        <time>2025-05-15T13:13:31.000Z</time>
      </trkpt>
      <trkpt lat="47.79776" lon="-2.6529">
        <ele>156.19999694824</ele>
        <time>2025-05-15T13:13:32.000Z</time>
      </trkpt>
      <trkpt lat="47.79778" lon="-2.65303">
        <ele>156.19999694824</ele>
        <time>2025-05-15T13:13:34.000Z</time>
      </trkpt>
      <trkpt lat="47.79779" lon="-2.65308">
        <ele>156.19999694824</ele>
        <time>2025-05-15T13:13:35.000Z</time>
      </trkpt>
      <trkpt lat="47.79781" lon="-2.65313">
        <ele>156.39999389648</ele>
        <time>2025-05-15T13:13:36.000Z</time>
      </trkpt>
      <trkpt lat="47.79782" lon="-2.65322">
        <ele>156.39999389648</ele>
        <time>2025-05-15T13:13:37.000Z</time>
      </trkpt>
      <trkpt lat="47.79782" lon="-2.6533">
        <ele>156.60000610352</ele>
        <time>2025-05-15T13:13:38.000Z</time>
      </trkpt>
      <trkpt lat="47.79782" lon="-2.65336">
        <ele>156.60000610352</ele>
        <time>2025-05-15T13:13:39.000Z</time>
      </trkpt>
      <trkpt lat="47.7978" lon="-2.65341">
        <ele>156.80000305176</ele>
        <time>2025-05-15T13:13:40.000Z</time>
      </trkpt>
      <trkpt lat="47.79778" lon="-2.65349">
        <ele>156.80000305176</ele>
        <time>2025-05-15T13:13:41.000Z</time>
      </trkpt>
      <trkpt lat="47.79774" lon="-2.65358">
        <ele>156.80000305176</ele>
        <time>2025-05-15T13:13:42.000Z</time>
      </trkpt>
      <trkpt lat="47.79772" lon="-2.65364">
        <ele>157</ele>
        <time>2025-05-15T13:13:43.000Z</time>
      </trkpt>
      <trkpt lat="47.79771" lon="-2.65369">
        <ele>157</ele>
        <time>2025-05-15T13:13:44.000Z</time>
      </trkpt>
      <trkpt lat="47.79773" lon="-2.6538">
        <ele>157</ele>
        <time>2025-05-15T13:13:46.000Z</time>
      </trkpt>
      <trkpt lat="47.79773" lon="-2.65385">
        <ele>157</ele>
        <time>2025-05-15T13:13:47.000Z</time>
      </trkpt>
      <trkpt lat="47.79774" lon="-2.6539">
        <ele>157</ele>
        <time>2025-05-15T13:13:48.000Z</time>
      </trkpt>
      <trkpt lat="47.79774" lon="-2.65394">
        <ele>157</ele>
        <time>2025-05-15T13:13:49.000Z</time>
      </trkpt>
      <trkpt lat="47.79773" lon="-2.654">
        <ele>157</ele>
        <time>2025-05-15T13:13:50.000Z</time>
      </trkpt>
      <trkpt lat="47.79773" lon="-2.65406">
        <ele>157</ele>
        <time>2025-05-15T13:13:51.000Z</time>
      </trkpt>
      <trkpt lat="47.79776" lon="-2.65416">
        <ele>157</ele>
        <time>2025-05-15T13:13:53.000Z</time>
      </trkpt>
      <trkpt lat="47.79785" lon="-2.65425">
        <ele>157.19999694824</ele>
        <time>2025-05-15T13:13:56.000Z</time>
      </trkpt>
      <trkpt lat="47.79807" lon="-2.6544">
        <ele>157</ele>
        <time>2025-05-15T13:14:03.000Z</time>
      </trkpt>
      <trkpt lat="47.79809" lon="-2.65441">
        <ele>156.80000305176</ele>
        <time>2025-05-15T13:14:04.000Z</time>
      </trkpt>
      <trkpt lat="47.79813" lon="-2.65444">
        <ele>156.80000305176</ele>
        <time>2025-05-15T13:14:05.000Z</time>
      </trkpt>
      <trkpt lat="47.79822" lon="-2.65449">
        <ele>156.80000305176</ele>
        <time>2025-05-15T13:14:07.000Z</time>
      </trkpt>
      <trkpt lat="47.79827" lon="-2.65451">
        <ele>156.80000305176</ele>
        <time>2025-05-15T13:14:08.000Z</time>
      </trkpt>
      <trkpt lat="47.79832" lon="-2.65452">
        <ele>156.80000305176</ele>
        <time>2025-05-15T13:14:09.000Z</time>
      </trkpt>
      <trkpt lat="47.79834" lon="-2.65454">
        <ele>156.80000305176</ele>
        <time>2025-05-15T13:14:10.000Z</time>
      </trkpt>
      <trkpt lat="47.7984" lon="-2.6546">
        <ele>156.60000610352</ele>
        <time>2025-05-15T13:14:12.000Z</time>
      </trkpt>
      <trkpt lat="47.79841" lon="-2.65465">
        <ele>156.60000610352</ele>
        <time>2025-05-15T13:14:13.000Z</time>
      </trkpt>
      <trkpt lat="47.79842" lon="-2.65468">
        <ele>156.60000610352</ele>
        <time>2025-05-15T13:14:14.000Z</time>
      </trkpt>
      <trkpt lat="47.79843" lon="-2.65471">
        <ele>156.60000610352</ele>
        <time>2025-05-15T13:14:15.000Z</time>
      </trkpt>
      <trkpt lat="47.79843" lon="-2.65474">
        <ele>156.60000610352</ele>
        <time>2025-05-15T13:14:16.000Z</time>
      </trkpt>
      <trkpt lat="47.79846" lon="-2.6548">
        <ele>156.80000305176</ele>
        <time>2025-05-15T13:14:17.000Z</time>
      </trkpt>
      <trkpt lat="47.79857" lon="-2.65486">
        <ele>156.39999389648</ele>
        <time>2025-05-15T13:15:32.000Z</time>
      </trkpt>
      <trkpt lat="47.79859" lon="-2.65485">
        <ele>156.39999389648</ele>
        <time>2025-05-15T13:15:33.000Z</time>
      </trkpt>
      <trkpt lat="47.7986" lon="-2.65484">
        <ele>156.39999389648</ele>
        <time>2025-05-15T13:15:34.000Z</time>
      </trkpt>
      <trkpt lat="47.79862" lon="-2.65484">
        <ele>156.60000610352</ele>
        <time>2025-05-15T13:15:35.000Z</time>
      </trkpt>
      <trkpt lat="47.79866" lon="-2.65484">
        <ele>156.39999389648</ele>
        <time>2025-05-15T13:15:37.000Z</time>
      </trkpt>
      <trkpt lat="47.79868" lon="-2.65485">
        <ele>156.39999389648</ele>
        <time>2025-05-15T13:15:38.000Z</time>
      </trkpt>
      <trkpt lat="47.7987" lon="-2.65486">
        <ele>156.39999389648</ele>
        <time>2025-05-15T13:15:39.000Z</time>
      </trkpt>
      <trkpt lat="47.79873" lon="-2.65488">
        <ele>156.39999389648</ele>
        <time>2025-05-15T13:15:40.000Z</time>
      </trkpt>
      <trkpt lat="47.79892" lon="-2.65492">
        <ele>156.19999694824</ele>
        <time>2025-05-15T13:15:46.000Z</time>
      </trkpt>
      <trkpt lat="47.79894" lon="-2.65496">
        <ele>156.19999694824</ele>
        <time>2025-05-15T13:15:47.000Z</time>
      </trkpt>
      <trkpt lat="47.79895" lon="-2.65498">
        <ele>156.19999694824</ele>
        <time>2025-05-15T13:15:48.000Z</time>
      </trkpt>
      <trkpt lat="47.79895" lon="-2.65507">
        <ele>156.19999694824</ele>
        <time>2025-05-15T13:15:51.000Z</time>
      </trkpt>
      <trkpt lat="47.79898" lon="-2.65514">
        <ele>156.19999694824</ele>
        <time>2025-05-15T13:15:54.000Z</time>
      </trkpt>
      <trkpt lat="47.79897" lon="-2.65517">
        <ele>156.19999694824</ele>
        <time>2025-05-15T13:15:55.000Z</time>
      </trkpt>
      <trkpt lat="47.79896" lon="-2.65521">
        <ele>156.19999694824</ele>
        <time>2025-05-15T13:15:56.000Z</time>
      </trkpt>
      <trkpt lat="47.79896" lon="-2.65525">
        <ele>156.19999694824</ele>
        <time>2025-05-15T13:15:57.000Z</time>
      </trkpt>
      <trkpt lat="47.79896" lon="-2.65531">
        <ele>156.19999694824</ele>
        <time>2025-05-15T13:15:58.000Z</time>
      </trkpt>
      <trkpt lat="47.79898" lon="-2.65537">
        <ele>156.19999694824</ele>
        <time>2025-05-15T13:15:59.000Z</time>
      </trkpt>
      <trkpt lat="47.79898" lon="-2.65546">
        <ele>156.19999694824</ele>
        <time>2025-05-15T13:16:01.000Z</time>
      </trkpt>
      <trkpt lat="47.79899" lon="-2.6555">
        <ele>156.19999694824</ele>
        <time>2025-05-15T13:16:02.000Z</time>
      </trkpt>
      <trkpt lat="47.79901" lon="-2.6556">
        <ele>156.19999694824</ele>
        <time>2025-05-15T13:16:05.000Z</time>
      </trkpt>
      <trkpt lat="47.79901" lon="-2.65562">
        <ele>156.19999694824</ele>
        <time>2025-05-15T13:16:06.000Z</time>
      </trkpt>
      <trkpt lat="47.79903" lon="-2.65565">
        <ele>156.39999389648</ele>
        <time>2025-05-15T13:16:08.000Z</time>
      </trkpt>
      <trkpt lat="47.79904" lon="-2.65566">
        <ele>156.39999389648</ele>
        <time>2025-05-15T13:16:09.000Z</time>
      </trkpt>
      <trkpt lat="47.79906" lon="-2.65568">
        <ele>156.39999389648</ele>
        <time>2025-05-15T13:16:10.000Z</time>
      </trkpt>
      <trkpt lat="47.79908" lon="-2.65569">
        <ele>156.39999389648</ele>
        <time>2025-05-15T13:16:12.000Z</time>
      </trkpt>
      <trkpt lat="47.79911" lon="-2.65568">
        <ele>156.19999694824</ele>
        <time>2025-05-15T13:16:13.000Z</time>
      </trkpt>
      <trkpt lat="47.79912" lon="-2.65568">
        <ele>156.19999694824</ele>
        <time>2025-05-15T13:16:14.000Z</time>
      </trkpt>
      <trkpt lat="47.79914" lon="-2.65565">
        <ele>156.19999694824</ele>
        <time>2025-05-15T13:16:15.000Z</time>
      </trkpt>
      <trkpt lat="47.79916" lon="-2.65564">
        <ele>156.19999694824</ele>
        <time>2025-05-15T13:16:16.000Z</time>
      </trkpt>
      <trkpt lat="47.79925" lon="-2.65556">
        <ele>156</ele>
        <time>2025-05-15T13:16:19.000Z</time>
      </trkpt>
      <trkpt lat="47.79928" lon="-2.65556">
        <ele>155.80000305176</ele>
        <time>2025-05-15T13:16:20.000Z</time>
      </trkpt>
      <trkpt lat="47.79931" lon="-2.65555">
        <ele>155.80000305176</ele>
        <time>2025-05-15T13:16:21.000Z</time>
      </trkpt>
      <trkpt lat="47.79934" lon="-2.65556">
        <ele>155.80000305176</ele>
        <time>2025-05-15T13:16:22.000Z</time>
      </trkpt>
      <trkpt lat="47.79938" lon="-2.65556">
        <ele>155.80000305176</ele>
        <time>2025-05-15T13:16:23.000Z</time>
      </trkpt>
      <trkpt lat="47.79942" lon="-2.65557">
        <ele>155.60000610352</ele>
        <time>2025-05-15T13:16:24.000Z</time>
      </trkpt>
      <trkpt lat="47.79951" lon="-2.65557">
        <ele>155.60000610352</ele>
        <time>2025-05-15T13:16:27.000Z</time>
      </trkpt>
      <trkpt lat="47.79964" lon="-2.6556">
        <ele>155.19999694824</ele>
        <time>2025-05-15T13:16:31.000Z</time>
      </trkpt>
      <trkpt lat="47.79966" lon="-2.65561">
        <ele>155</ele>
        <time>2025-05-15T13:16:32.000Z</time>
      </trkpt>
      <trkpt lat="47.79972" lon="-2.65562">
        <ele>154.60000610352</ele>
        <time>2025-05-15T13:16:34.000Z</time>
      </trkpt>
      <trkpt lat="47.79981" lon="-2.65565">
        <ele>154.19999694824</ele>
        <time>2025-05-15T13:16:37.000Z</time>
      </trkpt>
      <trkpt lat="47.79983" lon="-2.65568">
        <ele>153.80000305176</ele>
        <time>2025-05-15T13:16:38.000Z</time>
      </trkpt>
      <trkpt lat="47.79985" lon="-2.6557">
        <ele>153.80000305176</ele>
        <time>2025-05-15T13:16:39.000Z</time>
      </trkpt>
      <trkpt lat="47.79987" lon="-2.65572">
        <ele>153.60000610352</ele>
        <time>2025-05-15T13:16:40.000Z</time>
      </trkpt>
      <trkpt lat="47.79989" lon="-2.65573">
        <ele>153.60000610352</ele>
        <time>2025-05-15T13:16:41.000Z</time>
      </trkpt>
      <trkpt lat="47.79992" lon="-2.65573">
        <ele>153.39999389648</ele>
        <time>2025-05-15T13:16:42.000Z</time>
      </trkpt>
      <trkpt lat="47.79993" lon="-2.65573">
        <ele>153.60000610352</ele>
        <time>2025-05-15T13:16:43.000Z</time>
      </trkpt>
      <trkpt lat="47.79995" lon="-2.65573">
        <ele>153.60000610352</ele>
        <time>2025-05-15T13:16:44.000Z</time>
      </trkpt>
      <trkpt lat="47.80015" lon="-2.65578">
        <ele>153.39999389648</ele>
        <time>2025-05-15T13:16:50.000Z</time>
      </trkpt>
      <trkpt lat="47.80016" lon="-2.6558">
        <ele>152.19999694824</ele>
        <time>2025-05-15T13:21:41.000Z</time>
      </trkpt>
      <trkpt lat="47.8001" lon="-2.65593">
        <ele>152.60000610352</ele>
        <time>2025-05-15T13:21:45.000Z</time>
      </trkpt>
      <trkpt lat="47.80007" lon="-2.65595">
        <ele>152.80000305176</ele>
        <time>2025-05-15T13:21:46.000Z</time>
      </trkpt>
      <trkpt lat="47.80004" lon="-2.65597">
        <ele>153.19999694824</ele>
        <time>2025-05-15T13:21:47.000Z</time>
      </trkpt>
      <trkpt lat="47.80002" lon="-2.65597">
        <ele>153.19999694824</ele>
        <time>2025-05-15T13:21:48.000Z</time>
      </trkpt>
      <trkpt lat="47.8" lon="-2.65598">
        <ele>153.19999694824</ele>
        <time>2025-05-15T13:21:49.000Z</time>
      </trkpt>
      <trkpt lat="47.79992" lon="-2.65603">
        <ele>153.19999694824</ele>
        <time>2025-05-15T13:21:51.000Z</time>
      </trkpt>
      <trkpt lat="47.79986" lon="-2.65605">
        <ele>153.39999389648</ele>
        <time>2025-05-15T13:21:53.000Z</time>
      </trkpt>
      <trkpt lat="47.79981" lon="-2.65606">
        <ele>153.60000610352</ele>
        <time>2025-05-15T13:21:54.000Z</time>
      </trkpt>
      <trkpt lat="47.79977" lon="-2.65608">
        <ele>153.60000610352</ele>
        <time>2025-05-15T13:21:55.000Z</time>
      </trkpt>
      <trkpt lat="47.79974" lon="-2.6561">
        <ele>153.80000305176</ele>
        <time>2025-05-15T13:21:56.000Z</time>
      </trkpt>
      <trkpt lat="47.7997" lon="-2.65613">
        <ele>153.80000305176</ele>
        <time>2025-05-15T13:21:57.000Z</time>
      </trkpt>
      <trkpt lat="47.79967" lon="-2.65614">
        <ele>153.80000305176</ele>
        <time>2025-05-15T13:21:58.000Z</time>
      </trkpt>
      <trkpt lat="47.79965" lon="-2.65616">
        <ele>153.80000305176</ele>
        <time>2025-05-15T13:21:59.000Z</time>
      </trkpt>
      <trkpt lat="47.79963" lon="-2.65617">
        <ele>153.80000305176</ele>
        <time>2025-05-15T13:22:00.000Z</time>
      </trkpt>
      <trkpt lat="47.79961" lon="-2.65619">
        <ele>153.80000305176</ele>
        <time>2025-05-15T13:22:01.000Z</time>
      </trkpt>
      <trkpt lat="47.7996" lon="-2.65621">
        <ele>153.80000305176</ele>
        <time>2025-05-15T13:22:02.000Z</time>
      </trkpt>
      <trkpt lat="47.79953" lon="-2.65626">
        <ele>153.80000305176</ele>
        <time>2025-05-15T13:22:05.000Z</time>
      </trkpt>
      <trkpt lat="47.7995" lon="-2.65627">
        <ele>153.80000305176</ele>
        <time>2025-05-15T13:22:06.000Z</time>
      </trkpt>
      <trkpt lat="47.79947" lon="-2.65628">
        <ele>153.80000305176</ele>
        <time>2025-05-15T13:22:07.000Z</time>
      </trkpt>
      <trkpt lat="47.79942" lon="-2.6563">
        <ele>154</ele>
        <time>2025-05-15T13:22:08.000Z</time>
      </trkpt>
      <trkpt lat="47.79935" lon="-2.65633">
        <ele>154</ele>
        <time>2025-05-15T13:22:10.000Z</time>
      </trkpt>
      <trkpt lat="47.79933" lon="-2.65633">
        <ele>154.19999694824</ele>
        <time>2025-05-15T13:22:11.000Z</time>
      </trkpt>
      <trkpt lat="47.79931" lon="-2.65634">
        <ele>154.39999389648</ele>
        <time>2025-05-15T13:22:12.000Z</time>
      </trkpt>
      <trkpt lat="47.79929" lon="-2.65634">
        <ele>154.39999389648</ele>
        <time>2025-05-15T13:22:13.000Z</time>
      </trkpt>
      <trkpt lat="47.79926" lon="-2.65633">
        <ele>154.39999389648</ele>
        <time>2025-05-15T13:22:14.000Z</time>
      </trkpt>
      <trkpt lat="47.79924" lon="-2.65632">
        <ele>154.60000610352</ele>
        <time>2025-05-15T13:22:15.000Z</time>
      </trkpt>
      <trkpt lat="47.79923" lon="-2.65631">
        <ele>154.60000610352</ele>
        <time>2025-05-15T13:22:16.000Z</time>
      </trkpt>
      <trkpt lat="47.79922" lon="-2.6563">
        <ele>154.60000610352</ele>
        <time>2025-05-15T13:22:17.000Z</time>
      </trkpt>
      <trkpt lat="47.7992" lon="-2.65629">
        <ele>154.80000305176</ele>
        <time>2025-05-15T13:22:18.000Z</time>
      </trkpt>
      <trkpt lat="47.7992" lon="-2.65629">
        <ele>154.80000305176</ele>
        <time>2025-05-15T13:22:19.000Z</time>
      </trkpt>
      <trkpt lat="47.79915" lon="-2.65629">
        <ele>155</ele>
        <time>2025-05-15T13:22:22.000Z</time>
      </trkpt>
      <trkpt lat="47.79914" lon="-2.65629">
        <ele>155.19999694824</ele>
        <time>2025-05-15T13:22:23.000Z</time>
      </trkpt>
      <trkpt lat="47.79913" lon="-2.65629">
        <ele>155.19999694824</ele>
        <time>2025-05-15T13:22:24.000Z</time>
      </trkpt>
      <trkpt lat="47.79911" lon="-2.65628">
        <ele>155.39999389648</ele>
        <time>2025-05-15T13:22:25.000Z</time>
      </trkpt>
      <trkpt lat="47.79906" lon="-2.65628">
        <ele>155.60000610352</ele>
        <time>2025-05-15T13:22:27.000Z</time>
      </trkpt>
      <trkpt lat="47.79904" lon="-2.65627">
        <ele>155.60000610352</ele>
        <time>2025-05-15T13:22:28.000Z</time>
      </trkpt>
      <trkpt lat="47.79897" lon="-2.65624">
        <ele>156</ele>
        <time>2025-05-15T13:22:31.000Z</time>
      </trkpt>
      <trkpt lat="47.79895" lon="-2.65622">
        <ele>156</ele>
        <time>2025-05-15T13:22:32.000Z</time>
      </trkpt>
      <trkpt lat="47.7989" lon="-2.65622">
        <ele>156</ele>
        <time>2025-05-15T13:22:35.000Z</time>
      </trkpt>
      <trkpt lat="47.79889" lon="-2.65623">
        <ele>156</ele>
        <time>2025-05-15T13:22:36.000Z</time>
      </trkpt>
      <trkpt lat="47.79887" lon="-2.65624">
        <ele>156.19999694824</ele>
        <time>2025-05-15T13:22:37.000Z</time>
      </trkpt>
      <trkpt lat="47.79886" lon="-2.65624">
        <ele>156.19999694824</ele>
        <time>2025-05-15T13:22:38.000Z</time>
      </trkpt>
      <trkpt lat="47.79886" lon="-2.65625">
        <ele>156.19999694824</ele>
        <time>2025-05-15T13:22:39.000Z</time>
      </trkpt>
      <trkpt lat="47.79885" lon="-2.65626">
        <ele>156.19999694824</ele>
        <time>2025-05-15T13:22:40.000Z</time>
      </trkpt>
      <trkpt lat="47.79884" lon="-2.65627">
        <ele>156.19999694824</ele>
        <time>2025-05-15T13:22:41.000Z</time>
      </trkpt>
      <trkpt lat="47.79878" lon="-2.6563">
        <ele>156.19999694824</ele>
        <time>2025-05-15T13:22:44.000Z</time>
      </trkpt>
      <trkpt lat="47.79876" lon="-2.65631">
        <ele>156.19999694824</ele>
        <time>2025-05-15T13:22:45.000Z</time>
      </trkpt>
      <trkpt lat="47.79868" lon="-2.65635">
        <ele>156.39999389648</ele>
        <time>2025-05-15T13:22:48.000Z</time>
      </trkpt>
      <trkpt lat="47.79861" lon="-2.6564">
        <ele>156.39999389648</ele>
        <time>2025-05-15T13:22:50.000Z</time>
      </trkpt>
      <trkpt lat="47.79857" lon="-2.65645">
        <ele>156.39999389648</ele>
        <time>2025-05-15T13:22:52.000Z</time>
      </trkpt>
      <trkpt lat="47.79855" lon="-2.65649">
        <ele>156.39999389648</ele>
        <time>2025-05-15T13:22:53.000Z</time>
      </trkpt>
      <trkpt lat="47.79855" lon="-2.65652">
        <ele>156.39999389648</ele>
        <time>2025-05-15T13:22:54.000Z</time>
      </trkpt>
      <trkpt lat="47.79853" lon="-2.65656">
        <ele>156.39999389648</ele>
        <time>2025-05-15T13:22:55.000Z</time>
      </trkpt>
      <trkpt lat="47.79852" lon="-2.65663">
        <ele>156.39999389648</ele>
        <time>2025-05-15T13:22:56.000Z</time>
      </trkpt>
      <trkpt lat="47.79851" lon="-2.65668">
        <ele>156.19999694824</ele>
        <time>2025-05-15T13:22:57.000Z</time>
      </trkpt>
      <trkpt lat="47.79848" lon="-2.65678">
        <ele>156.19999694824</ele>
        <time>2025-05-15T13:22:59.000Z</time>
      </trkpt>
      <trkpt lat="47.79848" lon="-2.65683">
        <ele>156.19999694824</ele>
        <time>2025-05-15T13:23:00.000Z</time>
      </trkpt>
      <trkpt lat="47.79848" lon="-2.65688">
        <ele>156.19999694824</ele>
        <time>2025-05-15T13:23:01.000Z</time>
      </trkpt>
      <trkpt lat="47.79844" lon="-2.65702">
        <ele>156.19999694824</ele>
        <time>2025-05-15T13:23:03.000Z</time>
      </trkpt>
      <trkpt lat="47.7984" lon="-2.65713">
        <ele>156</ele>
        <time>2025-05-15T13:23:05.000Z</time>
      </trkpt>
      <trkpt lat="47.7984" lon="-2.6572">
        <ele>156</ele>
        <time>2025-05-15T13:23:06.000Z</time>
      </trkpt>
      <trkpt lat="47.7984" lon="-2.65727">
        <ele>156</ele>
        <time>2025-05-15T13:23:07.000Z</time>
      </trkpt>
      <trkpt lat="47.7984" lon="-2.65735">
        <ele>155.80000305176</ele>
        <time>2025-05-15T13:23:08.000Z</time>
      </trkpt>
      <trkpt lat="47.79839" lon="-2.65743">
        <ele>155.80000305176</ele>
        <time>2025-05-15T13:23:09.000Z</time>
      </trkpt>
      <trkpt lat="47.79838" lon="-2.65752">
        <ele>155.60000610352</ele>
        <time>2025-05-15T13:23:10.000Z</time>
      </trkpt>
      <trkpt lat="47.79836" lon="-2.65758">
        <ele>155.60000610352</ele>
        <time>2025-05-15T13:23:11.000Z</time>
      </trkpt>
      <trkpt lat="47.7983" lon="-2.65763">
        <ele>155.60000610352</ele>
        <time>2025-05-15T13:23:12.000Z</time>
      </trkpt>
      <trkpt lat="47.79825" lon="-2.65767">
        <ele>155.39999389648</ele>
        <time>2025-05-15T13:23:13.000Z</time>
      </trkpt>
      <trkpt lat="47.79821" lon="-2.65768">
        <ele>155.39999389648</ele>
        <time>2025-05-15T13:23:14.000Z</time>
      </trkpt>
      <trkpt lat="47.79818" lon="-2.65769">
        <ele>155.19999694824</ele>
        <time>2025-05-15T13:23:15.000Z</time>
      </trkpt>
      <trkpt lat="47.79815" lon="-2.65771">
        <ele>155.19999694824</ele>
        <time>2025-05-15T13:23:16.000Z</time>
      </trkpt>
      <trkpt lat="47.79811" lon="-2.65774">
        <ele>155.19999694824</ele>
        <time>2025-05-15T13:23:17.000Z</time>
      </trkpt>
      <trkpt lat="47.79809" lon="-2.65777">
        <ele>155</ele>
        <time>2025-05-15T13:23:18.000Z</time>
      </trkpt>
      <trkpt lat="47.79806" lon="-2.65779">
        <ele>155</ele>
        <time>2025-05-15T13:23:19.000Z</time>
      </trkpt>
      <trkpt lat="47.79803" lon="-2.65782">
        <ele>155</ele>
        <time>2025-05-15T13:23:20.000Z</time>
      </trkpt>
      <trkpt lat="47.79801" lon="-2.65784">
        <ele>155</ele>
        <time>2025-05-15T13:23:21.000Z</time>
      </trkpt>
      <trkpt lat="47.7979" lon="-2.65795">
        <ele>155</ele>
        <time>2025-05-15T13:23:26.000Z</time>
      </trkpt>
      <trkpt lat="47.79788" lon="-2.65796">
        <ele>155.19999694824</ele>
        <time>2025-05-15T13:23:27.000Z</time>
      </trkpt>
      <trkpt lat="47.79786" lon="-2.65798">
        <ele>155.19999694824</ele>
        <time>2025-05-15T13:23:28.000Z</time>
      </trkpt>
      <trkpt lat="47.79777" lon="-2.65809">
        <ele>155.19999694824</ele>
        <time>2025-05-15T13:23:32.000Z</time>
      </trkpt>
      <trkpt lat="47.79773" lon="-2.65813">
        <ele>155.39999389648</ele>
        <time>2025-05-15T13:23:34.000Z</time>
      </trkpt>
      <trkpt lat="47.79769" lon="-2.65816">
        <ele>155.60000610352</ele>
        <time>2025-05-15T13:23:36.000Z</time>
      </trkpt>
      <trkpt lat="47.79766" lon="-2.65819">
        <ele>155.60000610352</ele>
        <time>2025-05-15T13:23:37.000Z</time>
      </trkpt>
      <trkpt lat="47.79762" lon="-2.65823">
        <ele>155.60000610352</ele>
        <time>2025-05-15T13:23:38.000Z</time>
      </trkpt>
      <trkpt lat="47.79758" lon="-2.65826">
        <ele>155.60000610352</ele>
        <time>2025-05-15T13:23:39.000Z</time>
      </trkpt>
      <trkpt lat="47.79756" lon="-2.65828">
        <ele>155.80000305176</ele>
        <time>2025-05-15T13:23:40.000Z</time>
      </trkpt>
      <trkpt lat="47.79755" lon="-2.65828">
        <ele>155.80000305176</ele>
        <time>2025-05-15T13:23:41.000Z</time>
      </trkpt>
      <trkpt lat="47.79755" lon="-2.65829">
        <ele>156</ele>
        <time>2025-05-15T13:23:42.000Z</time>
      </trkpt>
      <trkpt lat="47.79755" lon="-2.65831">
        <ele>156</ele>
        <time>2025-05-15T13:23:43.000Z</time>
      </trkpt>
      <trkpt lat="47.79754" lon="-2.65833">
        <ele>156</ele>
        <time>2025-05-15T13:23:44.000Z</time>
      </trkpt>
      <trkpt lat="47.79753" lon="-2.65838">
        <ele>156.19999694824</ele>
        <time>2025-05-15T13:23:46.000Z</time>
      </trkpt>
      <trkpt lat="47.79751" lon="-2.65841">
        <ele>156.19999694824</ele>
        <time>2025-05-15T13:23:47.000Z</time>
      </trkpt>
      <trkpt lat="47.79751" lon="-2.65842">
        <ele>156.39999389648</ele>
        <time>2025-05-15T13:23:48.000Z</time>
      </trkpt>
      <trkpt lat="47.7975" lon="-2.65843">
        <ele>156.19999694824</ele>
        <time>2025-05-15T13:23:49.000Z</time>
      </trkpt>
      <trkpt lat="47.7975" lon="-2.65844">
        <ele>156.19999694824</ele>
        <time>2025-05-15T13:23:50.000Z</time>
      </trkpt>
      <trkpt lat="47.7975" lon="-2.65844">
        <ele>156.19999694824</ele>
        <time>2025-05-15T13:23:51.000Z</time>
      </trkpt>
      <trkpt lat="47.79749" lon="-2.65846">
        <ele>156.19999694824</ele>
        <time>2025-05-15T13:23:52.000Z</time>
      </trkpt>
      <trkpt lat="47.79749" lon="-2.65848">
        <ele>156</ele>
        <time>2025-05-15T13:23:53.000Z</time>
      </trkpt>
      <trkpt lat="47.79749" lon="-2.65853">
        <ele>156</ele>
        <time>2025-05-15T13:23:55.000Z</time>
      </trkpt>
      <trkpt lat="47.79748" lon="-2.65856">
        <ele>156</ele>
        <time>2025-05-15T13:23:56.000Z</time>
      </trkpt>
      <trkpt lat="47.79744" lon="-2.65862">
        <ele>156.19999694824</ele>
        <time>2025-05-15T13:23:58.000Z</time>
      </trkpt>
      <trkpt lat="47.79743" lon="-2.65865">
        <ele>156.19999694824</ele>
        <time>2025-05-15T13:23:59.000Z</time>
      </trkpt>
      <trkpt lat="47.79743" lon="-2.65867">
        <ele>156.19999694824</ele>
        <time>2025-05-15T13:24:00.000Z</time>
      </trkpt>
      <trkpt lat="47.79741" lon="-2.65875">
        <ele>156.39999389648</ele>
        <time>2025-05-15T13:24:03.000Z</time>
      </trkpt>
      <trkpt lat="47.79741" lon="-2.65878">
        <ele>156.39999389648</ele>
        <time>2025-05-15T13:24:04.000Z</time>
      </trkpt>
      <trkpt lat="47.7974" lon="-2.65885">
        <ele>156.39999389648</ele>
        <time>2025-05-15T13:24:06.000Z</time>
      </trkpt>
      <trkpt lat="47.7974" lon="-2.65889">
        <ele>156.60000610352</ele>
        <time>2025-05-15T13:24:07.000Z</time>
      </trkpt>
      <trkpt lat="47.7974" lon="-2.65896">
        <ele>156.60000610352</ele>
        <time>2025-05-15T13:24:09.000Z</time>
      </trkpt>
      <trkpt lat="47.79739" lon="-2.65906">
        <ele>157</ele>
        <time>2025-05-15T13:24:11.000Z</time>
      </trkpt>
      <trkpt lat="47.79739" lon="-2.65913">
        <ele>157.19999694824</ele>
        <time>2025-05-15T13:24:12.000Z</time>
      </trkpt>
      <trkpt lat="47.7974" lon="-2.65917">
        <ele>157.19999694824</ele>
        <time>2025-05-15T13:24:13.000Z</time>
      </trkpt>
      <trkpt lat="47.79744" lon="-2.65923">
        <ele>157.19999694824</ele>
        <time>2025-05-15T13:24:15.000Z</time>
      </trkpt>
      <trkpt lat="47.79746" lon="-2.65926">
        <ele>157.19999694824</ele>
        <time>2025-05-15T13:24:16.000Z</time>
      </trkpt>
      <trkpt lat="47.79747" lon="-2.6593">
        <ele>157.19999694824</ele>
        <time>2025-05-15T13:24:17.000Z</time>
      </trkpt>
      <trkpt lat="47.79748" lon="-2.65933">
        <ele>157.19999694824</ele>
        <time>2025-05-15T13:24:18.000Z</time>
      </trkpt>
      <trkpt lat="47.79747" lon="-2.65936">
        <ele>157</ele>
        <time>2025-05-15T13:24:19.000Z</time>
      </trkpt>
      <trkpt lat="47.79745" lon="-2.6594">
        <ele>157</ele>
        <time>2025-05-15T13:24:20.000Z</time>
      </trkpt>
      <trkpt lat="47.79744" lon="-2.65944">
        <ele>156.80000305176</ele>
        <time>2025-05-15T13:24:21.000Z</time>
      </trkpt>
      <trkpt lat="47.79745" lon="-2.6595">
        <ele>156.80000305176</ele>
        <time>2025-05-15T13:24:22.000Z</time>
      </trkpt>
      <trkpt lat="47.79745" lon="-2.65953">
        <ele>156.60000610352</ele>
        <time>2025-05-15T13:24:23.000Z</time>
      </trkpt>
      <trkpt lat="47.79746" lon="-2.65956">
        <ele>156.60000610352</ele>
        <time>2025-05-15T13:24:24.000Z</time>
      </trkpt>
      <trkpt lat="47.79746" lon="-2.65956">
        <ele>156.60000610352</ele>
        <time>2025-05-15T13:24:25.000Z</time>
      </trkpt>
      <trkpt lat="47.79746" lon="-2.65959">
        <ele>156.60000610352</ele>
        <time>2025-05-15T13:24:35.000Z</time>
      </trkpt>
      <trkpt lat="47.79746" lon="-2.65961">
        <ele>156.60000610352</ele>
        <time>2025-05-15T13:24:36.000Z</time>
      </trkpt>
      <trkpt lat="47.79746" lon="-2.65968">
        <ele>156.60000610352</ele>
        <time>2025-05-15T13:24:39.000Z</time>
      </trkpt>
      <trkpt lat="47.79746" lon="-2.65971">
        <ele>156.60000610352</ele>
        <time>2025-05-15T13:24:40.000Z</time>
      </trkpt>
      <trkpt lat="47.79751" lon="-2.65979">
        <ele>156.39999389648</ele>
        <time>2025-05-15T13:24:43.000Z</time>
      </trkpt>
      <trkpt lat="47.79752" lon="-2.65981">
        <ele>156.19999694824</ele>
        <time>2025-05-15T13:24:44.000Z</time>
      </trkpt>
      <trkpt lat="47.79753" lon="-2.65982">
        <ele>156.19999694824</ele>
        <time>2025-05-15T13:24:45.000Z</time>
      </trkpt>
      <trkpt lat="47.79755" lon="-2.65983">
        <ele>156.19999694824</ele>
        <time>2025-05-15T13:24:46.000Z</time>
      </trkpt>
      <trkpt lat="47.79757" lon="-2.65986">
        <ele>156</ele>
        <time>2025-05-15T13:24:47.000Z</time>
      </trkpt>
      <trkpt lat="47.79759" lon="-2.65993">
        <ele>156</ele>
        <time>2025-05-15T13:24:49.000Z</time>
      </trkpt>
      <trkpt lat="47.79759" lon="-2.65996">
        <ele>155.80000305176</ele>
        <time>2025-05-15T13:24:50.000Z</time>
      </trkpt>
      <trkpt lat="47.79761" lon="-2.66014">
        <ele>155.39999389648</ele>
        <time>2025-05-15T13:24:55.000Z</time>
      </trkpt>
      <trkpt lat="47.79761" lon="-2.66016">
        <ele>155.39999389648</ele>
        <time>2025-05-15T13:24:56.000Z</time>
      </trkpt>
      <trkpt lat="47.79762" lon="-2.66019">
        <ele>155.39999389648</ele>
        <time>2025-05-15T13:24:57.000Z</time>
      </trkpt>
      <trkpt lat="47.79762" lon="-2.66022">
        <ele>155.39999389648</ele>
        <time>2025-05-15T13:24:58.000Z</time>
      </trkpt>
      <trkpt lat="47.79761" lon="-2.66026">
        <ele>155.60000610352</ele>
        <time>2025-05-15T13:24:59.000Z</time>
      </trkpt>
      <trkpt lat="47.79761" lon="-2.66028">
        <ele>155.60000610352</ele>
        <time>2025-05-15T13:25:00.000Z</time>
      </trkpt>
      <trkpt lat="47.79761" lon="-2.66031">
        <ele>155.60000610352</ele>
        <time>2025-05-15T13:25:01.000Z</time>
      </trkpt>
      <trkpt lat="47.7976" lon="-2.66033">
        <ele>155.60000610352</ele>
        <time>2025-05-15T13:25:02.000Z</time>
      </trkpt>
      <trkpt lat="47.79761" lon="-2.66035">
        <ele>155.80000305176</ele>
        <time>2025-05-15T13:25:03.000Z</time>
      </trkpt>
      <trkpt lat="47.79762" lon="-2.6604">
        <ele>156</ele>
        <time>2025-05-15T13:25:04.000Z</time>
      </trkpt>
      <trkpt lat="47.79762" lon="-2.66045">
        <ele>156</ele>
        <time>2025-05-15T13:25:05.000Z</time>
      </trkpt>
      <trkpt lat="47.79764" lon="-2.66056">
        <ele>156.39999389648</ele>
        <time>2025-05-15T13:25:10.000Z</time>
      </trkpt>
      <trkpt lat="47.79764" lon="-2.66056">
        <ele>156.60000610352</ele>
        <time>2025-05-15T13:25:11.000Z</time>
      </trkpt>
      <trkpt lat="47.79765" lon="-2.66056">
        <ele>156.60000610352</ele>
        <time>2025-05-15T13:25:12.000Z</time>
      </trkpt>
      <trkpt lat="47.79769" lon="-2.66055">
        <ele>156.80000305176</ele>
        <time>2025-05-15T13:25:15.000Z</time>
      </trkpt>
      <trkpt lat="47.79771" lon="-2.66055">
        <ele>156.80000305176</ele>
        <time>2025-05-15T13:25:16.000Z</time>
      </trkpt>
      <trkpt lat="47.79772" lon="-2.66054">
        <ele>156.80000305176</ele>
        <time>2025-05-15T13:25:17.000Z</time>
      </trkpt>
      <trkpt lat="47.79774" lon="-2.66053">
        <ele>157</ele>
        <time>2025-05-15T13:25:18.000Z</time>
      </trkpt>
      <trkpt lat="47.79775" lon="-2.66053">
        <ele>157</ele>
        <time>2025-05-15T13:25:19.000Z</time>
      </trkpt>
      <trkpt lat="47.7978" lon="-2.66051">
        <ele>156.80000305176</ele>
        <time>2025-05-15T13:25:21.000Z</time>
      </trkpt>
      <trkpt lat="47.79782" lon="-2.66052">
        <ele>156.80000305176</ele>
        <time>2025-05-15T13:25:23.000Z</time>
      </trkpt>
      <trkpt lat="47.79783" lon="-2.66053">
        <ele>156.80000305176</ele>
        <time>2025-05-15T13:25:24.000Z</time>
      </trkpt>
      <trkpt lat="47.79784" lon="-2.66054">
        <ele>156.80000305176</ele>
        <time>2025-05-15T13:25:25.000Z</time>
      </trkpt>
      <trkpt lat="47.79788" lon="-2.66058">
        <ele>156.60000610352</ele>
        <time>2025-05-15T13:25:28.000Z</time>
      </trkpt>
      <trkpt lat="47.79796" lon="-2.66067">
        <ele>156.80000305176</ele>
        <time>2025-05-15T13:25:32.000Z</time>
      </trkpt>
      <trkpt lat="47.79796" lon="-2.66067">
        <ele>157</ele>
        <time>2025-05-15T13:25:33.000Z</time>
      </trkpt>
      <trkpt lat="47.79796" lon="-2.66067">
        <ele>157.19999694824</ele>
        <time>2025-05-15T13:25:34.000Z</time>
      </trkpt>
      <trkpt lat="47.79797" lon="-2.66068">
        <ele>157.39999389648</ele>
        <time>2025-05-15T13:25:35.000Z</time>
      </trkpt>
      <trkpt lat="47.79801" lon="-2.66073">
        <ele>157.80000305176</ele>
        <time>2025-05-15T13:25:38.000Z</time>
      </trkpt>
      <trkpt lat="47.79802" lon="-2.66075">
        <ele>158</ele>
        <time>2025-05-15T13:25:39.000Z</time>
      </trkpt>
      <trkpt lat="47.79802" lon="-2.66077">
        <ele>158</ele>
        <time>2025-05-15T13:25:40.000Z</time>
      </trkpt>
      <trkpt lat="47.79802" lon="-2.66078">
        <ele>158.19999694824</ele>
        <time>2025-05-15T13:25:41.000Z</time>
      </trkpt>
      <trkpt lat="47.79806" lon="-2.66083">
        <ele>158.19999694824</ele>
        <time>2025-05-15T13:25:44.000Z</time>
      </trkpt>
      <trkpt lat="47.79808" lon="-2.66085">
        <ele>158.39999389648</ele>
        <time>2025-05-15T13:25:45.000Z</time>
      </trkpt>
      <trkpt lat="47.7981" lon="-2.66087">
        <ele>158.39999389648</ele>
        <time>2025-05-15T13:25:46.000Z</time>
      </trkpt>
      <trkpt lat="47.79818" lon="-2.66097">
        <ele>158.39999389648</ele>
        <time>2025-05-15T13:25:49.000Z</time>
      </trkpt>
      <trkpt lat="47.79827" lon="-2.66113">
        <ele>158.39999389648</ele>
        <time>2025-05-15T13:25:52.000Z</time>
      </trkpt>
      <trkpt lat="47.79842" lon="-2.66133">
        <ele>158</ele>
        <time>2025-05-15T13:25:56.000Z</time>
      </trkpt>
      <trkpt lat="47.79844" lon="-2.66139">
        <ele>157.80000305176</ele>
        <time>2025-05-15T13:25:57.000Z</time>
      </trkpt>
      <trkpt lat="47.79845" lon="-2.66142">
        <ele>157.80000305176</ele>
        <time>2025-05-15T13:25:58.000Z</time>
      </trkpt>
      <trkpt lat="47.79846" lon="-2.66146">
        <ele>157.80000305176</ele>
        <time>2025-05-15T13:25:59.000Z</time>
      </trkpt>
      <trkpt lat="47.79847" lon="-2.66149">
        <ele>157.80000305176</ele>
        <time>2025-05-15T13:26:00.000Z</time>
      </trkpt>
      <trkpt lat="47.79847" lon="-2.66151">
        <ele>157.80000305176</ele>
        <time>2025-05-15T13:26:01.000Z</time>
      </trkpt>
      <trkpt lat="47.79847" lon="-2.66154">
        <ele>157.80000305176</ele>
        <time>2025-05-15T13:26:02.000Z</time>
      </trkpt>
      <trkpt lat="47.79846" lon="-2.6616">
        <ele>157.80000305176</ele>
        <time>2025-05-15T13:26:04.000Z</time>
      </trkpt>
      <trkpt lat="47.79847" lon="-2.66164">
        <ele>157.80000305176</ele>
        <time>2025-05-15T13:26:05.000Z</time>
      </trkpt>
      <trkpt lat="47.79848" lon="-2.66174">
        <ele>158.19999694824</ele>
        <time>2025-05-15T13:26:08.000Z</time>
      </trkpt>
      <trkpt lat="47.79856" lon="-2.66198">
        <ele>158</ele>
        <time>2025-05-15T13:26:12.000Z</time>
      </trkpt>
      <trkpt lat="47.79858" lon="-2.66201">
        <ele>158.19999694824</ele>
        <time>2025-05-15T13:26:13.000Z</time>
      </trkpt>
      <trkpt lat="47.79859" lon="-2.66204">
        <ele>158.19999694824</ele>
        <time>2025-05-15T13:26:14.000Z</time>
      </trkpt>
      <trkpt lat="47.79859" lon="-2.66206">
        <ele>158.39999389648</ele>
        <time>2025-05-15T13:26:15.000Z</time>
      </trkpt>
      <trkpt lat="47.79859" lon="-2.66208">
        <ele>158.19999694824</ele>
        <time>2025-05-15T13:26:16.000Z</time>
      </trkpt>
      <trkpt lat="47.79859" lon="-2.66209">
        <ele>158.19999694824</ele>
        <time>2025-05-15T13:26:17.000Z</time>
      </trkpt>
      <trkpt lat="47.79859" lon="-2.6621">
        <ele>158.19999694824</ele>
        <time>2025-05-15T13:26:18.000Z</time>
      </trkpt>
      <trkpt lat="47.7986" lon="-2.66213">
        <ele>158.19999694824</ele>
        <time>2025-05-15T13:26:19.000Z</time>
      </trkpt>
      <trkpt lat="47.79861" lon="-2.66217">
        <ele>158.19999694824</ele>
        <time>2025-05-15T13:26:20.000Z</time>
      </trkpt>
      <trkpt lat="47.79862" lon="-2.6622">
        <ele>158</ele>
        <time>2025-05-15T13:26:21.000Z</time>
      </trkpt>
      <trkpt lat="47.79862" lon="-2.6622">
        <ele>158</ele>
        <time>2025-05-15T13:26:22.000Z</time>
      </trkpt>
      <trkpt lat="47.79862" lon="-2.66243">
        <ele>158</ele>
        <time>2025-05-15T13:27:10.000Z</time>
      </trkpt>
      <trkpt lat="47.79861" lon="-2.66243">
        <ele>157.80000305176</ele>
        <time>2025-05-15T13:27:11.000Z</time>
      </trkpt>
      <trkpt lat="47.7986" lon="-2.66243">
        <ele>157.80000305176</ele>
        <time>2025-05-15T13:27:13.000Z</time>
      </trkpt>
      <trkpt lat="47.7986" lon="-2.66244">
        <ele>157.80000305176</ele>
        <time>2025-05-15T13:27:14.000Z</time>
      </trkpt>
      <trkpt lat="47.79859" lon="-2.66244">
        <ele>157.80000305176</ele>
        <time>2025-05-15T13:27:15.000Z</time>
      </trkpt>
      <trkpt lat="47.79858" lon="-2.66245">
        <ele>157.80000305176</ele>
        <time>2025-05-15T13:27:16.000Z</time>
      </trkpt>
      <trkpt lat="47.79858" lon="-2.66245">
        <ele>158</ele>
        <time>2025-05-15T13:27:17.000Z</time>
      </trkpt>
      <trkpt lat="47.79857" lon="-2.66245">
        <ele>157.80000305176</ele>
        <time>2025-05-15T13:27:18.000Z</time>
      </trkpt>
      <trkpt lat="47.79856" lon="-2.66245">
        <ele>157.80000305176</ele>
        <time>2025-05-15T13:27:19.000Z</time>
      </trkpt>
      <trkpt lat="47.79856" lon="-2.66245">
        <ele>158</ele>
        <time>2025-05-15T13:27:20.000Z</time>
      </trkpt>
      <trkpt lat="47.79855" lon="-2.66245">
        <ele>158</ele>
        <time>2025-05-15T13:27:21.000Z</time>
      </trkpt>
      <trkpt lat="47.79855" lon="-2.66245">
        <ele>158</ele>
        <time>2025-05-15T13:27:22.000Z</time>
      </trkpt>
      <trkpt lat="47.79856" lon="-2.66245">
        <ele>158.39999389648</ele>
        <time>2025-05-15T13:27:34.000Z</time>
      </trkpt>
      <trkpt lat="47.79857" lon="-2.66246">
        <ele>158.39999389648</ele>
        <time>2025-05-15T13:27:35.000Z</time>
      </trkpt>
      <trkpt lat="47.79857" lon="-2.66247">
        <ele>158.19999694824</ele>
        <time>2025-05-15T13:27:36.000Z</time>
      </trkpt>
      <trkpt lat="47.79858" lon="-2.66247">
        <ele>158.19999694824</ele>
        <time>2025-05-15T13:27:37.000Z</time>
      </trkpt>
      <trkpt lat="47.79859" lon="-2.66248">
        <ele>158.19999694824</ele>
        <time>2025-05-15T13:27:38.000Z</time>
      </trkpt>
      <trkpt lat="47.7986" lon="-2.66248">
        <ele>158.19999694824</ele>
        <time>2025-05-15T13:27:39.000Z</time>
      </trkpt>
      <trkpt lat="47.7986" lon="-2.66249">
        <ele>158.19999694824</ele>
        <time>2025-05-15T13:27:40.000Z</time>
      </trkpt>
      <trkpt lat="47.79862" lon="-2.6625">
        <ele>158.39999389648</ele>
        <time>2025-05-15T13:27:41.000Z</time>
      </trkpt>
      <trkpt lat="47.79863" lon="-2.66251">
        <ele>158.39999389648</ele>
        <time>2025-05-15T13:27:42.000Z</time>
      </trkpt>
      <trkpt lat="47.79865" lon="-2.66253">
        <ele>158.39999389648</ele>
        <time>2025-05-15T13:27:45.000Z</time>
      </trkpt>
      <trkpt lat="47.79864" lon="-2.66255">
        <ele>158.19999694824</ele>
        <time>2025-05-15T13:27:47.000Z</time>
      </trkpt>
      <trkpt lat="47.79864" lon="-2.66257">
        <ele>158.19999694824</ele>
        <time>2025-05-15T13:27:48.000Z</time>
      </trkpt>
      <trkpt lat="47.79864" lon="-2.66259">
        <ele>158.19999694824</ele>
        <time>2025-05-15T13:27:49.000Z</time>
      </trkpt>
      <trkpt lat="47.79864" lon="-2.66263">
        <ele>158</ele>
        <time>2025-05-15T13:27:53.000Z</time>
      </trkpt>
      <trkpt lat="47.79863" lon="-2.66264">
        <ele>158</ele>
        <time>2025-05-15T13:27:54.000Z</time>
      </trkpt>
      <trkpt lat="47.79863" lon="-2.66264">
        <ele>158</ele>
        <time>2025-05-15T13:27:55.000Z</time>
      </trkpt>
      <trkpt lat="47.79863" lon="-2.66264">
        <ele>158</ele>
        <time>2025-05-15T13:27:56.000Z</time>
      </trkpt>
      <trkpt lat="47.79862" lon="-2.66266">
        <ele>158.19999694824</ele>
        <time>2025-05-15T13:27:58.000Z</time>
      </trkpt>
      <trkpt lat="47.79862" lon="-2.66268">
        <ele>158.19999694824</ele>
        <time>2025-05-15T13:27:59.000Z</time>
      </trkpt>
      <trkpt lat="47.79861" lon="-2.6627">
        <ele>158.19999694824</ele>
        <time>2025-05-15T13:28:00.000Z</time>
      </trkpt>
      <trkpt lat="47.79858" lon="-2.66276">
        <ele>158.19999694824</ele>
        <time>2025-05-15T13:28:03.000Z</time>
      </trkpt>
      <trkpt lat="47.79857" lon="-2.66279">
        <ele>158.19999694824</ele>
        <time>2025-05-15T13:28:04.000Z</time>
      </trkpt>
      <trkpt lat="47.79865" lon="-2.66291">
        <ele>158.39999389648</ele>
        <time>2025-05-15T13:28:08.000Z</time>
      </trkpt>
      <trkpt lat="47.79867" lon="-2.66294">
        <ele>158.19999694824</ele>
        <time>2025-05-15T13:28:09.000Z</time>
      </trkpt>
      <trkpt lat="47.79867" lon="-2.66297">
        <ele>158.19999694824</ele>
        <time>2025-05-15T13:28:10.000Z</time>
      </trkpt>
      <trkpt lat="47.79867" lon="-2.66299">
        <ele>158.19999694824</ele>
        <time>2025-05-15T13:28:11.000Z</time>
      </trkpt>
      <trkpt lat="47.79866" lon="-2.66301">
        <ele>158</ele>
        <time>2025-05-15T13:28:12.000Z</time>
      </trkpt>
      <trkpt lat="47.79865" lon="-2.66303">
        <ele>158</ele>
        <time>2025-05-15T13:28:13.000Z</time>
      </trkpt>
      <trkpt lat="47.79864" lon="-2.66304">
        <ele>158</ele>
        <time>2025-05-15T13:28:14.000Z</time>
      </trkpt>
      <trkpt lat="47.7986" lon="-2.6631">
        <ele>158</ele>
        <time>2025-05-15T13:28:17.000Z</time>
      </trkpt>
      <trkpt lat="47.79858" lon="-2.66313">
        <ele>158.19999694824</ele>
        <time>2025-05-15T13:28:19.000Z</time>
      </trkpt>
      <trkpt lat="47.79857" lon="-2.66315">
        <ele>158.19999694824</ele>
        <time>2025-05-15T13:28:20.000Z</time>
      </trkpt>
      <trkpt lat="47.79855" lon="-2.66319">
        <ele>158.19999694824</ele>
        <time>2025-05-15T13:28:21.000Z</time>
      </trkpt>
      <trkpt lat="47.79854" lon="-2.66321">
        <ele>158.19999694824</ele>
        <time>2025-05-15T13:28:22.000Z</time>
      </trkpt>
      <trkpt lat="47.79854" lon="-2.66325">
        <ele>158.19999694824</ele>
        <time>2025-05-15T13:28:23.000Z</time>
      </trkpt>
      <trkpt lat="47.79855" lon="-2.6633">
        <ele>158.39999389648</ele>
        <time>2025-05-15T13:28:25.000Z</time>
      </trkpt>
      <trkpt lat="47.79855" lon="-2.66332">
        <ele>158.60000610352</ele>
        <time>2025-05-15T13:28:26.000Z</time>
      </trkpt>
      <trkpt lat="47.79855" lon="-2.66335">
        <ele>158.39999389648</ele>
        <time>2025-05-15T13:28:27.000Z</time>
      </trkpt>
      <trkpt lat="47.79855" lon="-2.66336">
        <ele>158.60000610352</ele>
        <time>2025-05-15T13:28:28.000Z</time>
      </trkpt>
      <trkpt lat="47.79854" lon="-2.66338">
        <ele>158.80000305176</ele>
        <time>2025-05-15T13:28:29.000Z</time>
      </trkpt>
      <trkpt lat="47.79854" lon="-2.6634">
        <ele>158.60000610352</ele>
        <time>2025-05-15T13:28:30.000Z</time>
      </trkpt>
      <trkpt lat="47.79852" lon="-2.66345">
        <ele>158.80000305176</ele>
        <time>2025-05-15T13:28:32.000Z</time>
      </trkpt>
      <trkpt lat="47.79851" lon="-2.66349">
        <ele>158.80000305176</ele>
        <time>2025-05-15T13:28:34.000Z</time>
      </trkpt>
      <trkpt lat="47.7985" lon="-2.66351">
        <ele>159</ele>
        <time>2025-05-15T13:28:35.000Z</time>
      </trkpt>
      <trkpt lat="47.79851" lon="-2.66352">
        <ele>159</ele>
        <time>2025-05-15T13:28:36.000Z</time>
      </trkpt>
      <trkpt lat="47.79851" lon="-2.66353">
        <ele>159</ele>
        <time>2025-05-15T13:28:37.000Z</time>
      </trkpt>
      <trkpt lat="47.79852" lon="-2.66356">
        <ele>159</ele>
        <time>2025-05-15T13:28:38.000Z</time>
      </trkpt>
      <trkpt lat="47.79853" lon="-2.66358">
        <ele>159.19999694824</ele>
        <time>2025-05-15T13:28:39.000Z</time>
      </trkpt>
      <trkpt lat="47.79854" lon="-2.66361">
        <ele>159.39999389648</ele>
        <time>2025-05-15T13:28:40.000Z</time>
      </trkpt>
      <trkpt lat="47.79854" lon="-2.66362">
        <ele>159.39999389648</ele>
        <time>2025-05-15T13:28:41.000Z</time>
      </trkpt>
      <trkpt lat="47.79852" lon="-2.66363">
        <ele>159.60000610352</ele>
        <time>2025-05-15T13:28:42.000Z</time>
      </trkpt>
      <trkpt lat="47.79851" lon="-2.66364">
        <ele>159.60000610352</ele>
        <time>2025-05-15T13:28:43.000Z</time>
      </trkpt>
      <trkpt lat="47.79848" lon="-2.66368">
        <ele>159.80000305176</ele>
        <time>2025-05-15T13:28:46.000Z</time>
      </trkpt>
      <trkpt lat="47.79846" lon="-2.6637">
        <ele>160</ele>
        <time>2025-05-15T13:28:47.000Z</time>
      </trkpt>
      <trkpt lat="47.79845" lon="-2.6637">
        <ele>160.19999694824</ele>
        <time>2025-05-15T13:28:48.000Z</time>
      </trkpt>
      <trkpt lat="47.79844" lon="-2.6637">
        <ele>160.19999694824</ele>
        <time>2025-05-15T13:28:49.000Z</time>
      </trkpt>
      <trkpt lat="47.79843" lon="-2.66369">
        <ele>160.39999389648</ele>
        <time>2025-05-15T13:28:50.000Z</time>
      </trkpt>
      <trkpt lat="47.79841" lon="-2.66369">
        <ele>160.39999389648</ele>
        <time>2025-05-15T13:28:51.000Z</time>
      </trkpt>
      <trkpt lat="47.7984" lon="-2.66369">
        <ele>160.39999389648</ele>
        <time>2025-05-15T13:28:52.000Z</time>
      </trkpt>
      <trkpt lat="47.79839" lon="-2.66368">
        <ele>160.60000610352</ele>
        <time>2025-05-15T13:28:53.000Z</time>
      </trkpt>
      <trkpt lat="47.79837" lon="-2.66368">
        <ele>160.60000610352</ele>
        <time>2025-05-15T13:28:54.000Z</time>
      </trkpt>
      <trkpt lat="47.79834" lon="-2.66371">
        <ele>161</ele>
        <time>2025-05-15T13:28:56.000Z</time>
      </trkpt>
      <trkpt lat="47.79833" lon="-2.66372">
        <ele>161</ele>
        <time>2025-05-15T13:28:57.000Z</time>
      </trkpt>
      <trkpt lat="47.79833" lon="-2.66373">
        <ele>161.19999694824</ele>
        <time>2025-05-15T13:28:58.000Z</time>
      </trkpt>
      <trkpt lat="47.79833" lon="-2.66375">
        <ele>161.19999694824</ele>
        <time>2025-05-15T13:28:59.000Z</time>
      </trkpt>
      <trkpt lat="47.79832" lon="-2.66376">
        <ele>161.60000610352</ele>
        <time>2025-05-15T13:29:00.000Z</time>
      </trkpt>
      <trkpt lat="47.79831" lon="-2.66378">
        <ele>161.60000610352</ele>
        <time>2025-05-15T13:29:01.000Z</time>
      </trkpt>
      <trkpt lat="47.79829" lon="-2.66382">
        <ele>162</ele>
        <time>2025-05-15T13:29:03.000Z</time>
      </trkpt>
      <trkpt lat="47.79826" lon="-2.66384">
        <ele>162.39999389648</ele>
        <time>2025-05-15T13:29:05.000Z</time>
      </trkpt>
      <trkpt lat="47.79824" lon="-2.66385">
        <ele>162.60000610352</ele>
        <time>2025-05-15T13:29:06.000Z</time>
      </trkpt>
      <trkpt lat="47.79823" lon="-2.66387">
        <ele>162.60000610352</ele>
        <time>2025-05-15T13:29:07.000Z</time>
      </trkpt>
      <trkpt lat="47.79822" lon="-2.66388">
        <ele>162.80000305176</ele>
        <time>2025-05-15T13:29:08.000Z</time>
      </trkpt>
      <trkpt lat="47.79821" lon="-2.66389">
        <ele>162.80000305176</ele>
        <time>2025-05-15T13:29:09.000Z</time>
      </trkpt>
      <trkpt lat="47.7982" lon="-2.6639">
        <ele>163</ele>
        <time>2025-05-15T13:29:10.000Z</time>
      </trkpt>
      <trkpt lat="47.79818" lon="-2.66391">
        <ele>163</ele>
        <time>2025-05-15T13:29:11.000Z</time>
      </trkpt>
      <trkpt lat="47.79817" lon="-2.66393">
        <ele>163.39999389648</ele>
        <time>2025-05-15T13:29:12.000Z</time>
      </trkpt>
      <trkpt lat="47.79816" lon="-2.66394">
        <ele>163.60000610352</ele>
        <time>2025-05-15T13:29:13.000Z</time>
      </trkpt>
      <trkpt lat="47.79816" lon="-2.66395">
        <ele>163.60000610352</ele>
        <time>2025-05-15T13:29:14.000Z</time>
      </trkpt>
      <trkpt lat="47.79815" lon="-2.66397">
        <ele>163.60000610352</ele>
        <time>2025-05-15T13:29:15.000Z</time>
      </trkpt>
      <trkpt lat="47.79814" lon="-2.66398">
        <ele>163.39999389648</ele>
        <time>2025-05-15T13:29:16.000Z</time>
      </trkpt>
      <trkpt lat="47.79813" lon="-2.664">
        <ele>163.80000305176</ele>
        <time>2025-05-15T13:29:17.000Z</time>
      </trkpt>
      <trkpt lat="47.79812" lon="-2.66402">
        <ele>163.80000305176</ele>
        <time>2025-05-15T13:29:18.000Z</time>
      </trkpt>
      <trkpt lat="47.79812" lon="-2.66404">
        <ele>163.80000305176</ele>
        <time>2025-05-15T13:29:19.000Z</time>
      </trkpt>
      <trkpt lat="47.79811" lon="-2.66406">
        <ele>164</ele>
        <time>2025-05-15T13:29:20.000Z</time>
      </trkpt>
      <trkpt lat="47.79811" lon="-2.66408">
        <ele>164</ele>
        <time>2025-05-15T13:29:21.000Z</time>
      </trkpt>
      <trkpt lat="47.79811" lon="-2.6641">
        <ele>164</ele>
        <time>2025-05-15T13:29:22.000Z</time>
      </trkpt>
      <trkpt lat="47.7981" lon="-2.66412">
        <ele>164.39999389648</ele>
        <time>2025-05-15T13:29:23.000Z</time>
      </trkpt>
      <trkpt lat="47.7981" lon="-2.66414">
        <ele>164.60000610352</ele>
        <time>2025-05-15T13:29:24.000Z</time>
      </trkpt>
      <trkpt lat="47.79809" lon="-2.66417">
        <ele>164.60000610352</ele>
        <time>2025-05-15T13:29:25.000Z</time>
      </trkpt>
      <trkpt lat="47.79809" lon="-2.66419">
        <ele>164.60000610352</ele>
        <time>2025-05-15T13:29:26.000Z</time>
      </trkpt>
      <trkpt lat="47.79808" lon="-2.66421">
        <ele>164.60000610352</ele>
        <time>2025-05-15T13:29:27.000Z</time>
      </trkpt>
      <trkpt lat="47.79807" lon="-2.66423">
        <ele>164.80000305176</ele>
        <time>2025-05-15T13:29:28.000Z</time>
      </trkpt>
      <trkpt lat="47.79807" lon="-2.66425">
        <ele>164.80000305176</ele>
        <time>2025-05-15T13:29:29.000Z</time>
      </trkpt>
      <trkpt lat="47.79806" lon="-2.66425">
        <ele>164.80000305176</ele>
        <time>2025-05-15T13:29:30.000Z</time>
      </trkpt>
      <trkpt lat="47.79805" lon="-2.66427">
        <ele>164.80000305176</ele>
        <time>2025-05-15T13:29:47.000Z</time>
      </trkpt>
      <trkpt lat="47.79804" lon="-2.66427">
        <ele>164.80000305176</ele>
        <time>2025-05-15T13:29:51.000Z</time>
      </trkpt>
      <trkpt lat="47.79802" lon="-2.66431">
        <ele>165</ele>
        <time>2025-05-15T13:29:53.000Z</time>
      </trkpt>
      <trkpt lat="47.79801" lon="-2.66433">
        <ele>164.80000305176</ele>
        <time>2025-05-15T13:29:54.000Z</time>
      </trkpt>
      <trkpt lat="47.79799" lon="-2.66435">
        <ele>164.80000305176</ele>
        <time>2025-05-15T13:29:55.000Z</time>
      </trkpt>
      <trkpt lat="47.79797" lon="-2.66437">
        <ele>165.19999694824</ele>
        <time>2025-05-15T13:29:56.000Z</time>
      </trkpt>
      <trkpt lat="47.79794" lon="-2.66439">
        <ele>165.19999694824</ele>
        <time>2025-05-15T13:29:57.000Z</time>
      </trkpt>
      <trkpt lat="47.79794" lon="-2.66439">
        <ele>165.39999389648</ele>
        <time>2025-05-15T13:29:59.000Z</time>
      </trkpt>
      <trkpt lat="47.79791" lon="-2.66442">
        <ele>165.60000610352</ele>
        <time>2025-05-15T13:30:02.000Z</time>
      </trkpt>
      <trkpt lat="47.79785" lon="-2.66449">
        <ele>166</ele>
        <time>2025-05-15T13:30:06.000Z</time>
      </trkpt>
      <trkpt lat="47.79782" lon="-2.66452">
        <ele>166.19999694824</ele>
        <time>2025-05-15T13:30:08.000Z</time>
      </trkpt>
      <trkpt lat="47.79782" lon="-2.66449">
        <ele>166.19999694824</ele>
        <time>2025-05-15T13:30:10.000Z</time>
      </trkpt>
      <trkpt lat="47.79781" lon="-2.66446">
        <ele>166</ele>
        <time>2025-05-15T13:30:12.000Z</time>
      </trkpt>
      <trkpt lat="47.7978" lon="-2.66444">
        <ele>165.80000305176</ele>
        <time>2025-05-15T13:30:14.000Z</time>
      </trkpt>
      <trkpt lat="47.79778" lon="-2.66444">
        <ele>165.60000610352</ele>
        <time>2025-05-15T13:30:15.000Z</time>
      </trkpt>
      <trkpt lat="47.79775" lon="-2.66445">
        <ele>166</ele>
        <time>2025-05-15T13:30:17.000Z</time>
      </trkpt>
      <trkpt lat="47.79774" lon="-2.66444">
        <ele>166</ele>
        <time>2025-05-15T13:30:18.000Z</time>
      </trkpt>
      <trkpt lat="47.79772" lon="-2.66443">
        <ele>166</ele>
        <time>2025-05-15T13:30:19.000Z</time>
      </trkpt>
      <trkpt lat="47.7977" lon="-2.66441">
        <ele>165.60000610352</ele>
        <time>2025-05-15T13:30:20.000Z</time>
      </trkpt>
      <trkpt lat="47.79767" lon="-2.66439">
        <ele>165.60000610352</ele>
        <time>2025-05-15T13:30:21.000Z</time>
      </trkpt>
      <trkpt lat="47.79764" lon="-2.66437">
        <ele>165.60000610352</ele>
        <time>2025-05-15T13:30:22.000Z</time>
      </trkpt>
      <trkpt lat="47.79762" lon="-2.66436">
        <ele>165.39999389648</ele>
        <time>2025-05-15T13:30:23.000Z</time>
      </trkpt>
      <trkpt lat="47.79759" lon="-2.66436">
        <ele>165.39999389648</ele>
        <time>2025-05-15T13:30:24.000Z</time>
      </trkpt>
      <trkpt lat="47.79757" lon="-2.66436">
        <ele>165.39999389648</ele>
        <time>2025-05-15T13:30:25.000Z</time>
      </trkpt>
      <trkpt lat="47.79755" lon="-2.66437">
        <ele>165.19999694824</ele>
        <time>2025-05-15T13:30:26.000Z</time>
      </trkpt>
      <trkpt lat="47.79754" lon="-2.66439">
        <ele>165.19999694824</ele>
        <time>2025-05-15T13:30:27.000Z</time>
      </trkpt>
      <trkpt lat="47.79753" lon="-2.6644">
        <ele>165.19999694824</ele>
        <time>2025-05-15T13:30:28.000Z</time>
      </trkpt>
      <trkpt lat="47.79753" lon="-2.66442">
        <ele>165.19999694824</ele>
        <time>2025-05-15T13:30:29.000Z</time>
      </trkpt>
      <trkpt lat="47.79753" lon="-2.66444">
        <ele>165.19999694824</ele>
        <time>2025-05-15T13:30:30.000Z</time>
      </trkpt>
      <trkpt lat="47.79752" lon="-2.66446">
        <ele>165.19999694824</ele>
        <time>2025-05-15T13:30:31.000Z</time>
      </trkpt>
      <trkpt lat="47.79751" lon="-2.66449">
        <ele>165.19999694824</ele>
        <time>2025-05-15T13:30:32.000Z</time>
      </trkpt>
      <trkpt lat="47.7975" lon="-2.66451">
        <ele>165.39999389648</ele>
        <time>2025-05-15T13:30:33.000Z</time>
      </trkpt>
      <trkpt lat="47.79748" lon="-2.66452">
        <ele>165.60000610352</ele>
        <time>2025-05-15T13:30:34.000Z</time>
      </trkpt>
      <trkpt lat="47.79746" lon="-2.66454">
        <ele>165.39999389648</ele>
        <time>2025-05-15T13:30:35.000Z</time>
      </trkpt>
      <trkpt lat="47.79743" lon="-2.66457">
        <ele>165.60000610352</ele>
        <time>2025-05-15T13:30:36.000Z</time>
      </trkpt>
      <trkpt lat="47.7974" lon="-2.66459">
        <ele>165.60000610352</ele>
        <time>2025-05-15T13:30:37.000Z</time>
      </trkpt>
      <trkpt lat="47.7974" lon="-2.66461">
        <ele>165.80000305176</ele>
        <time>2025-05-15T13:30:38.000Z</time>
      </trkpt>
      <trkpt lat="47.7974" lon="-2.66463">
        <ele>165.80000305176</ele>
        <time>2025-05-15T13:30:39.000Z</time>
      </trkpt>
      <trkpt lat="47.79741" lon="-2.66465">
        <ele>165.80000305176</ele>
        <time>2025-05-15T13:30:40.000Z</time>
      </trkpt>
      <trkpt lat="47.79742" lon="-2.66469">
        <ele>166.19999694824</ele>
        <time>2025-05-15T13:30:42.000Z</time>
      </trkpt>
      <trkpt lat="47.7974" lon="-2.66471">
        <ele>166.19999694824</ele>
        <time>2025-05-15T13:30:43.000Z</time>
      </trkpt>
      <trkpt lat="47.79739" lon="-2.66473">
        <ele>166.39999389648</ele>
        <time>2025-05-15T13:30:44.000Z</time>
      </trkpt>
      <trkpt lat="47.79737" lon="-2.66476">
        <ele>166.39999389648</ele>
        <time>2025-05-15T13:30:45.000Z</time>
      </trkpt>
      <trkpt lat="47.79736" lon="-2.66478">
        <ele>166.80000305176</ele>
        <time>2025-05-15T13:30:46.000Z</time>
      </trkpt>
      <trkpt lat="47.79735" lon="-2.6648">
        <ele>167</ele>
        <time>2025-05-15T13:30:47.000Z</time>
      </trkpt>
      <trkpt lat="47.79733" lon="-2.66482">
        <ele>167.19999694824</ele>
        <time>2025-05-15T13:30:48.000Z</time>
      </trkpt>
      <trkpt lat="47.7973" lon="-2.66485">
        <ele>167.39999389648</ele>
        <time>2025-05-15T13:30:49.000Z</time>
      </trkpt>
      <trkpt lat="47.79728" lon="-2.66486">
        <ele>167.39999389648</ele>
        <time>2025-05-15T13:30:50.000Z</time>
      </trkpt>
      <trkpt lat="47.79727" lon="-2.66488">
        <ele>167.39999389648</ele>
        <time>2025-05-15T13:30:51.000Z</time>
      </trkpt>
      <trkpt lat="47.79725" lon="-2.6649">
        <ele>167.60000610352</ele>
        <time>2025-05-15T13:30:52.000Z</time>
      </trkpt>
      <trkpt lat="47.79716" lon="-2.66497">
        <ele>168</ele>
        <time>2025-05-15T13:30:55.000Z</time>
      </trkpt>
      <trkpt lat="47.79713" lon="-2.66499">
        <ele>168</ele>
        <time>2025-05-15T13:30:56.000Z</time>
      </trkpt>
      <trkpt lat="47.79709" lon="-2.665">
        <ele>168</ele>
        <time>2025-05-15T13:30:57.000Z</time>
      </trkpt>
      <trkpt lat="47.79707" lon="-2.665">
        <ele>168.19999694824</ele>
        <time>2025-05-15T13:30:58.000Z</time>
      </trkpt>
      <trkpt lat="47.79706" lon="-2.665">
        <ele>168.19999694824</ele>
        <time>2025-05-15T13:30:59.000Z</time>
      </trkpt>
      <trkpt lat="47.79704" lon="-2.665">
        <ele>168.19999694824</ele>
        <time>2025-05-15T13:31:01.000Z</time>
      </trkpt>
      <trkpt lat="47.79703" lon="-2.66501">
        <ele>168.19999694824</ele>
        <time>2025-05-15T13:31:02.000Z</time>
      </trkpt>
      <trkpt lat="47.79701" lon="-2.66502">
        <ele>168.19999694824</ele>
        <time>2025-05-15T13:31:03.000Z</time>
      </trkpt>
      <trkpt lat="47.79696" lon="-2.66509">
        <ele>168.80000305176</ele>
        <time>2025-05-15T13:31:07.000Z</time>
      </trkpt>
      <trkpt lat="47.79696" lon="-2.66511">
        <ele>168.60000610352</ele>
        <time>2025-05-15T13:31:08.000Z</time>
      </trkpt>
      <trkpt lat="47.79692" lon="-2.66517">
        <ele>168.80000305176</ele>
        <time>2025-05-15T13:31:10.000Z</time>
      </trkpt>
      <trkpt lat="47.79688" lon="-2.66522">
        <ele>168.39999389648</ele>
        <time>2025-05-15T13:31:12.000Z</time>
      </trkpt>
      <trkpt lat="47.79686" lon="-2.66524">
        <ele>168.19999694824</ele>
        <time>2025-05-15T13:31:13.000Z</time>
      </trkpt>
      <trkpt lat="47.79684" lon="-2.66525">
        <ele>168.19999694824</ele>
        <time>2025-05-15T13:31:14.000Z</time>
      </trkpt>
      <trkpt lat="47.7968" lon="-2.66525">
        <ele>168</ele>
        <time>2025-05-15T13:31:16.000Z</time>
      </trkpt>
      <trkpt lat="47.79678" lon="-2.66526">
        <ele>168</ele>
        <time>2025-05-15T13:31:17.000Z</time>
      </trkpt>
      <trkpt lat="47.79675" lon="-2.66527">
        <ele>168</ele>
        <time>2025-05-15T13:31:18.000Z</time>
      </trkpt>
      <trkpt lat="47.79673" lon="-2.66528">
        <ele>168</ele>
        <time>2025-05-15T13:31:19.000Z</time>
      </trkpt>
      <trkpt lat="47.79671" lon="-2.66529">
        <ele>168</ele>
        <time>2025-05-15T13:31:20.000Z</time>
      </trkpt>
      <trkpt lat="47.79669" lon="-2.6653">
        <ele>168</ele>
        <time>2025-05-15T13:31:21.000Z</time>
      </trkpt>
      <trkpt lat="47.79663" lon="-2.66536">
        <ele>168</ele>
        <time>2025-05-15T13:31:23.000Z</time>
      </trkpt>
      <trkpt lat="47.79662" lon="-2.66541">
        <ele>168.19999694824</ele>
        <time>2025-05-15T13:31:24.000Z</time>
      </trkpt>
      <trkpt lat="47.79662" lon="-2.66544">
        <ele>168.19999694824</ele>
        <time>2025-05-15T13:31:25.000Z</time>
      </trkpt>
      <trkpt lat="47.7966" lon="-2.66549">
        <ele>168.19999694824</ele>
        <time>2025-05-15T13:31:27.000Z</time>
      </trkpt>
      <trkpt lat="47.79656" lon="-2.66552">
        <ele>168</ele>
        <time>2025-05-15T13:31:28.000Z</time>
      </trkpt>
      <trkpt lat="47.79652" lon="-2.66557">
        <ele>168</ele>
        <time>2025-05-15T13:31:29.000Z</time>
      </trkpt>
      <trkpt lat="47.79652" lon="-2.66561">
        <ele>168</ele>
        <time>2025-05-15T13:31:30.000Z</time>
      </trkpt>
      <trkpt lat="47.79648" lon="-2.66574">
        <ele>167.60000610352</ele>
        <time>2025-05-15T13:31:32.000Z</time>
      </trkpt>
      <trkpt lat="47.79646" lon="-2.66577">
        <ele>167.60000610352</ele>
        <time>2025-05-15T13:31:33.000Z</time>
      </trkpt>
      <trkpt lat="47.79642" lon="-2.66584">
        <ele>167.19999694824</ele>
        <time>2025-05-15T13:31:35.000Z</time>
      </trkpt>
      <trkpt lat="47.79639" lon="-2.66587">
        <ele>167.19999694824</ele>
        <time>2025-05-15T13:31:36.000Z</time>
      </trkpt>
      <trkpt lat="47.79636" lon="-2.66588">
        <ele>167</ele>
        <time>2025-05-15T13:31:37.000Z</time>
      </trkpt>
      <trkpt lat="47.79631" lon="-2.66588">
        <ele>166.80000305176</ele>
        <time>2025-05-15T13:31:38.000Z</time>
      </trkpt>
      <trkpt lat="47.79628" lon="-2.66585">
        <ele>166.60000610352</ele>
        <time>2025-05-15T13:31:39.000Z</time>
      </trkpt>
      <trkpt lat="47.79627" lon="-2.66583">
        <ele>166.39999389648</ele>
        <time>2025-05-15T13:31:40.000Z</time>
      </trkpt>
      <trkpt lat="47.79624" lon="-2.66583">
        <ele>166.39999389648</ele>
        <time>2025-05-15T13:31:41.000Z</time>
      </trkpt>
      <trkpt lat="47.79621" lon="-2.66582">
        <ele>166.39999389648</ele>
        <time>2025-05-15T13:31:42.000Z</time>
      </trkpt>
      <trkpt lat="47.79619" lon="-2.66581">
        <ele>166.60000610352</ele>
        <time>2025-05-15T13:31:43.000Z</time>
      </trkpt>
      <trkpt lat="47.79617" lon="-2.66581">
        <ele>166.60000610352</ele>
        <time>2025-05-15T13:31:44.000Z</time>
      </trkpt>
      <trkpt lat="47.79616" lon="-2.66581">
        <ele>166.60000610352</ele>
        <time>2025-05-15T13:31:45.000Z</time>
      </trkpt>
      <trkpt lat="47.79606" lon="-2.66579">
        <ele>167</ele>
        <time>2025-05-15T13:31:49.000Z</time>
      </trkpt>
      <trkpt lat="47.79603" lon="-2.66578">
        <ele>167</ele>
        <time>2025-05-15T13:31:50.000Z</time>
      </trkpt>
      <trkpt lat="47.79601" lon="-2.66577">
        <ele>167</ele>
        <time>2025-05-15T13:31:51.000Z</time>
      </trkpt>
      <trkpt lat="47.796" lon="-2.66576">
        <ele>167</ele>
        <time>2025-05-15T13:31:52.000Z</time>
      </trkpt>
      <trkpt lat="47.79599" lon="-2.66574">
        <ele>166.80000305176</ele>
        <time>2025-05-15T13:31:53.000Z</time>
      </trkpt>
      <trkpt lat="47.79596" lon="-2.66571">
        <ele>167</ele>
        <time>2025-05-15T13:31:54.000Z</time>
      </trkpt>
      <trkpt lat="47.79593" lon="-2.66564">
        <ele>167.19999694824</ele>
        <time>2025-05-15T13:31:57.000Z</time>
      </trkpt>
      <trkpt lat="47.79591" lon="-2.66562">
        <ele>167.19999694824</ele>
        <time>2025-05-15T13:31:58.000Z</time>
      </trkpt>
      <trkpt lat="47.7959" lon="-2.66561">
        <ele>167.19999694824</ele>
        <time>2025-05-15T13:31:59.000Z</time>
      </trkpt>
      <trkpt lat="47.7959" lon="-2.6656">
        <ele>167.19999694824</ele>
        <time>2025-05-15T13:32:00.000Z</time>
      </trkpt>
      <trkpt lat="47.79589" lon="-2.6656">
        <ele>167.39999389648</ele>
        <time>2025-05-15T13:32:01.000Z</time>
      </trkpt>
      <trkpt lat="47.79586" lon="-2.66559">
        <ele>167.39999389648</ele>
        <time>2025-05-15T13:32:02.000Z</time>
      </trkpt>
      <trkpt lat="47.79584" lon="-2.66557">
        <ele>167.60000610352</ele>
        <time>2025-05-15T13:32:03.000Z</time>
      </trkpt>
      <trkpt lat="47.79583" lon="-2.66556">
        <ele>167.60000610352</ele>
        <time>2025-05-15T13:32:04.000Z</time>
      </trkpt>
      <trkpt lat="47.79581" lon="-2.66554">
        <ele>167.80000305176</ele>
        <time>2025-05-15T13:32:05.000Z</time>
      </trkpt>
      <trkpt lat="47.7958" lon="-2.66553">
        <ele>168</ele>
        <time>2025-05-15T13:32:06.000Z</time>
      </trkpt>
      <trkpt lat="47.79578" lon="-2.66552">
        <ele>168</ele>
        <time>2025-05-15T13:32:07.000Z</time>
      </trkpt>
      <trkpt lat="47.79575" lon="-2.6655">
        <ele>168</ele>
        <time>2025-05-15T13:32:10.000Z</time>
      </trkpt>
      <trkpt lat="47.79572" lon="-2.6655">
        <ele>168</ele>
        <time>2025-05-15T13:32:12.000Z</time>
      </trkpt>
      <trkpt lat="47.79571" lon="-2.66549">
        <ele>168</ele>
        <time>2025-05-15T13:32:13.000Z</time>
      </trkpt>
      <trkpt lat="47.7957" lon="-2.66547">
        <ele>168</ele>
        <time>2025-05-15T13:32:14.000Z</time>
      </trkpt>
      <trkpt lat="47.79569" lon="-2.66545">
        <ele>168</ele>
        <time>2025-05-15T13:32:15.000Z</time>
      </trkpt>
      <trkpt lat="47.79569" lon="-2.66544">
        <ele>168</ele>
        <time>2025-05-15T13:32:16.000Z</time>
      </trkpt>
      <trkpt lat="47.79569" lon="-2.66544">
        <ele>168</ele>
        <time>2025-05-15T13:32:17.000Z</time>
      </trkpt>
      <trkpt lat="47.79569" lon="-2.66544">
        <ele>168</ele>
        <time>2025-05-15T13:32:20.000Z</time>
      </trkpt>
      <trkpt lat="47.79569" lon="-2.6654">
        <ele>168.19999694824</ele>
        <time>2025-05-15T13:32:23.000Z</time>
      </trkpt>
      <trkpt lat="47.7957" lon="-2.66538">
        <ele>168.19999694824</ele>
        <time>2025-05-15T13:32:24.000Z</time>
      </trkpt>
      <trkpt lat="47.7957" lon="-2.66537">
        <ele>168.19999694824</ele>
        <time>2025-05-15T13:32:25.000Z</time>
      </trkpt>
      <trkpt lat="47.79571" lon="-2.66534">
        <ele>168.39999389648</ele>
        <time>2025-05-15T13:32:26.000Z</time>
      </trkpt>
      <trkpt lat="47.79571" lon="-2.66532">
        <ele>168.39999389648</ele>
        <time>2025-05-15T13:32:27.000Z</time>
      </trkpt>
      <trkpt lat="47.79571" lon="-2.66529">
        <ele>168.39999389648</ele>
        <time>2025-05-15T13:32:28.000Z</time>
      </trkpt>
      <trkpt lat="47.79571" lon="-2.66526">
        <ele>168.39999389648</ele>
        <time>2025-05-15T13:32:29.000Z</time>
      </trkpt>
      <trkpt lat="47.7957" lon="-2.66524">
        <ele>168.39999389648</ele>
        <time>2025-05-15T13:32:30.000Z</time>
      </trkpt>
      <trkpt lat="47.7957" lon="-2.6652">
        <ele>168.39999389648</ele>
        <time>2025-05-15T13:32:31.000Z</time>
      </trkpt>
      <trkpt lat="47.7957" lon="-2.66512">
        <ele>168.60000610352</ele>
        <time>2025-05-15T13:32:34.000Z</time>
      </trkpt>
      <trkpt lat="47.79569" lon="-2.66509">
        <ele>168.80000305176</ele>
        <time>2025-05-15T13:32:35.000Z</time>
      </trkpt>
      <trkpt lat="47.79568" lon="-2.66503">
        <ele>168.80000305176</ele>
        <time>2025-05-15T13:32:37.000Z</time>
      </trkpt>
      <trkpt lat="47.79566" lon="-2.66501">
        <ele>169</ele>
        <time>2025-05-15T13:32:38.000Z</time>
      </trkpt>
      <trkpt lat="47.79563" lon="-2.66499">
        <ele>169.19999694824</ele>
        <time>2025-05-15T13:32:39.000Z</time>
      </trkpt>
      <trkpt lat="47.79561" lon="-2.66496">
        <ele>169.60000610352</ele>
        <time>2025-05-15T13:32:40.000Z</time>
      </trkpt>
      <trkpt lat="47.79558" lon="-2.66493">
        <ele>169.60000610352</ele>
        <time>2025-05-15T13:32:41.000Z</time>
      </trkpt>
      <trkpt lat="47.79555" lon="-2.66492">
        <ele>169.60000610352</ele>
        <time>2025-05-15T13:32:42.000Z</time>
      </trkpt>
      <trkpt lat="47.79549" lon="-2.66491">
        <ele>169.60000610352</ele>
        <time>2025-05-15T13:32:44.000Z</time>
      </trkpt>
      <trkpt lat="47.79545" lon="-2.6649">
        <ele>169.39999389648</ele>
        <time>2025-05-15T13:32:45.000Z</time>
      </trkpt>
      <trkpt lat="47.79541" lon="-2.6649">
        <ele>169.39999389648</ele>
        <time>2025-05-15T13:32:46.000Z</time>
      </trkpt>
      <trkpt lat="47.79537" lon="-2.66489">
        <ele>169.39999389648</ele>
        <time>2025-05-15T13:32:47.000Z</time>
      </trkpt>
      <trkpt lat="47.79533" lon="-2.66487">
        <ele>169.19999694824</ele>
        <time>2025-05-15T13:32:48.000Z</time>
      </trkpt>
      <trkpt lat="47.79529" lon="-2.66486">
        <ele>169.19999694824</ele>
        <time>2025-05-15T13:32:49.000Z</time>
      </trkpt>
      <trkpt lat="47.79524" lon="-2.66487">
        <ele>169.19999694824</ele>
        <time>2025-05-15T13:32:50.000Z</time>
      </trkpt>
      <trkpt lat="47.79516" lon="-2.66489">
        <ele>169</ele>
        <time>2025-05-15T13:32:52.000Z</time>
      </trkpt>
      <trkpt lat="47.79514" lon="-2.66491">
        <ele>168.80000305176</ele>
        <time>2025-05-15T13:32:53.000Z</time>
      </trkpt>
      <trkpt lat="47.79512" lon="-2.66494">
        <ele>168.60000610352</ele>
        <time>2025-05-15T13:32:54.000Z</time>
      </trkpt>
      <trkpt lat="47.79509" lon="-2.66497">
        <ele>168.19999694824</ele>
        <time>2025-05-15T13:32:55.000Z</time>
      </trkpt>
      <trkpt lat="47.79506" lon="-2.665">
        <ele>168</ele>
        <time>2025-05-15T13:32:56.000Z</time>
      </trkpt>
      <trkpt lat="47.79503" lon="-2.66503">
        <ele>167.60000610352</ele>
        <time>2025-05-15T13:32:57.000Z</time>
      </trkpt>
      <trkpt lat="47.79501" lon="-2.66508">
        <ele>167.19999694824</ele>
        <time>2025-05-15T13:32:58.000Z</time>
      </trkpt>
      <trkpt lat="47.79498" lon="-2.66514">
        <ele>167.19999694824</ele>
        <time>2025-05-15T13:32:59.000Z</time>
      </trkpt>
      <trkpt lat="47.79494" lon="-2.66518">
        <ele>167</ele>
        <time>2025-05-15T13:33:00.000Z</time>
      </trkpt>
      <trkpt lat="47.7949" lon="-2.66525">
        <ele>166.80000305176</ele>
        <time>2025-05-15T13:33:01.000Z</time>
      </trkpt>
      <trkpt lat="47.79486" lon="-2.66532">
        <ele>166.60000610352</ele>
        <time>2025-05-15T13:33:02.000Z</time>
      </trkpt>
      <trkpt lat="47.79482" lon="-2.66539">
        <ele>166.19999694824</ele>
        <time>2025-05-15T13:33:03.000Z</time>
      </trkpt>
      <trkpt lat="47.79471" lon="-2.66558">
        <ele>165.80000305176</ele>
        <time>2025-05-15T13:33:06.000Z</time>
      </trkpt>
      <trkpt lat="47.7947" lon="-2.66567">
        <ele>165.39999389648</ele>
        <time>2025-05-15T13:33:07.000Z</time>
      </trkpt>
      <trkpt lat="47.79465" lon="-2.66575">
        <ele>165.39999389648</ele>
        <time>2025-05-15T13:33:08.000Z</time>
      </trkpt>
      <trkpt lat="47.79461" lon="-2.66583">
        <ele>165.19999694824</ele>
        <time>2025-05-15T13:33:09.000Z</time>
      </trkpt>
      <trkpt lat="47.79458" lon="-2.6659">
        <ele>165</ele>
        <time>2025-05-15T13:33:10.000Z</time>
      </trkpt>
      <trkpt lat="47.79456" lon="-2.66597">
        <ele>164.60000610352</ele>
        <time>2025-05-15T13:33:11.000Z</time>
      </trkpt>
      <trkpt lat="47.79453" lon="-2.66606">
        <ele>164.39999389648</ele>
        <time>2025-05-15T13:33:12.000Z</time>
      </trkpt>
      <trkpt lat="47.79448" lon="-2.66611">
        <ele>164.19999694824</ele>
        <time>2025-05-15T13:33:13.000Z</time>
      </trkpt>
      <trkpt lat="47.79444" lon="-2.66612">
        <ele>163.80000305176</ele>
        <time>2025-05-15T13:33:14.000Z</time>
      </trkpt>
      <trkpt lat="47.7944" lon="-2.6661">
        <ele>163.80000305176</ele>
        <time>2025-05-15T13:33:15.000Z</time>
      </trkpt>
      <trkpt lat="47.79437" lon="-2.66609">
        <ele>163.60000610352</ele>
        <time>2025-05-15T13:33:16.000Z</time>
      </trkpt>
      <trkpt lat="47.79433" lon="-2.6661">
        <ele>163.60000610352</ele>
        <time>2025-05-15T13:33:17.000Z</time>
      </trkpt>
      <trkpt lat="47.79429" lon="-2.6661">
        <ele>163.39999389648</ele>
        <time>2025-05-15T13:33:18.000Z</time>
      </trkpt>
      <trkpt lat="47.79425" lon="-2.6661">
        <ele>163.39999389648</ele>
        <time>2025-05-15T13:33:19.000Z</time>
      </trkpt>
      <trkpt lat="47.79414" lon="-2.66608">
        <ele>163.39999389648</ele>
        <time>2025-05-15T13:33:22.000Z</time>
      </trkpt>
      <trkpt lat="47.79407" lon="-2.66607">
        <ele>163.39999389648</ele>
        <time>2025-05-15T13:33:24.000Z</time>
      </trkpt>
      <trkpt lat="47.7938" lon="-2.66604">
        <ele>163.60000610352</ele>
        <time>2025-05-15T13:33:31.000Z</time>
      </trkpt>
      <trkpt lat="47.79372" lon="-2.66602">
        <ele>163.80000305176</ele>
        <time>2025-05-15T13:33:33.000Z</time>
      </trkpt>
      <trkpt lat="47.79365" lon="-2.66598">
        <ele>163.80000305176</ele>
        <time>2025-05-15T13:33:35.000Z</time>
      </trkpt>
      <trkpt lat="47.79358" lon="-2.66592">
        <ele>163.80000305176</ele>
        <time>2025-05-15T13:33:37.000Z</time>
      </trkpt>
      <trkpt lat="47.7935" lon="-2.66586">
        <ele>164</ele>
        <time>2025-05-15T13:33:39.000Z</time>
      </trkpt>
      <trkpt lat="47.79343" lon="-2.66582">
        <ele>164</ele>
        <time>2025-05-15T13:33:41.000Z</time>
      </trkpt>
      <trkpt lat="47.79336" lon="-2.66585">
        <ele>164</ele>
        <time>2025-05-15T13:33:43.000Z</time>
      </trkpt>
      <trkpt lat="47.79334" lon="-2.6659">
        <ele>164.19999694824</ele>
        <time>2025-05-15T13:33:44.000Z</time>
      </trkpt>
      <trkpt lat="47.79332" lon="-2.66596">
        <ele>164.19999694824</ele>
        <time>2025-05-15T13:33:45.000Z</time>
      </trkpt>
      <trkpt lat="47.79331" lon="-2.66602">
        <ele>164.19999694824</ele>
        <time>2025-05-15T13:33:46.000Z</time>
      </trkpt>
      <trkpt lat="47.79327" lon="-2.66616">
        <ele>164</ele>
        <time>2025-05-15T13:33:48.000Z</time>
      </trkpt>
      <trkpt lat="47.79326" lon="-2.66623">
        <ele>163.80000305176</ele>
        <time>2025-05-15T13:33:49.000Z</time>
      </trkpt>
      <trkpt lat="47.79321" lon="-2.66644">
        <ele>163.80000305176</ele>
        <time>2025-05-15T13:33:52.000Z</time>
      </trkpt>
      <trkpt lat="47.79319" lon="-2.66651">
        <ele>163.80000305176</ele>
        <time>2025-05-15T13:33:53.000Z</time>
      </trkpt>
      <trkpt lat="47.79317" lon="-2.66657">
        <ele>163.80000305176</ele>
        <time>2025-05-15T13:33:54.000Z</time>
      </trkpt>
      <trkpt lat="47.79315" lon="-2.66663">
        <ele>163.80000305176</ele>
        <time>2025-05-15T13:33:55.000Z</time>
      </trkpt>
      <trkpt lat="47.79312" lon="-2.66669">
        <ele>163.80000305176</ele>
        <time>2025-05-15T13:33:56.000Z</time>
      </trkpt>
      <trkpt lat="47.79305" lon="-2.6668">
        <ele>163.80000305176</ele>
        <time>2025-05-15T13:33:58.000Z</time>
      </trkpt>
      <trkpt lat="47.79301" lon="-2.66685">
        <ele>163.80000305176</ele>
        <time>2025-05-15T13:33:59.000Z</time>
      </trkpt>
      <trkpt lat="47.79297" lon="-2.66689">
        <ele>163.80000305176</ele>
        <time>2025-05-15T13:34:00.000Z</time>
      </trkpt>
      <trkpt lat="47.79277" lon="-2.66705">
        <ele>163.80000305176</ele>
        <time>2025-05-15T13:34:04.000Z</time>
      </trkpt>
      <trkpt lat="47.79272" lon="-2.6671">
        <ele>163.60000610352</ele>
        <time>2025-05-15T13:34:05.000Z</time>
      </trkpt>
      <trkpt lat="47.79268" lon="-2.66715">
        <ele>163.60000610352</ele>
        <time>2025-05-15T13:34:06.000Z</time>
      </trkpt>
      <trkpt lat="47.79264" lon="-2.6672">
        <ele>163.60000610352</ele>
        <time>2025-05-15T13:34:07.000Z</time>
      </trkpt>
      <trkpt lat="47.7926" lon="-2.66726">
        <ele>163.60000610352</ele>
        <time>2025-05-15T13:34:08.000Z</time>
      </trkpt>
      <trkpt lat="47.79256" lon="-2.66731">
        <ele>163.39999389648</ele>
        <time>2025-05-15T13:34:09.000Z</time>
      </trkpt>
      <trkpt lat="47.79245" lon="-2.66748">
        <ele>163.19999694824</ele>
        <time>2025-05-15T13:34:12.000Z</time>
      </trkpt>
      <trkpt lat="47.79238" lon="-2.66759">
        <ele>163.19999694824</ele>
        <time>2025-05-15T13:34:14.000Z</time>
      </trkpt>
      <trkpt lat="47.79231" lon="-2.66771">
        <ele>163</ele>
        <time>2025-05-15T13:34:16.000Z</time>
      </trkpt>
      <trkpt lat="47.7922" lon="-2.66792">
        <ele>162.60000610352</ele>
        <time>2025-05-15T13:34:19.000Z</time>
      </trkpt>
      <trkpt lat="47.79216" lon="-2.66799">
        <ele>162.60000610352</ele>
        <time>2025-05-15T13:34:20.000Z</time>
      </trkpt>
      <trkpt lat="47.79213" lon="-2.66816">
        <ele>162.39999389648</ele>
        <time>2025-05-15T13:34:22.000Z</time>
      </trkpt>
      <trkpt lat="47.79213" lon="-2.66825">
        <ele>162.19999694824</ele>
        <time>2025-05-15T13:34:23.000Z</time>
      </trkpt>
      <trkpt lat="47.79213" lon="-2.66832">
        <ele>162</ele>
        <time>2025-05-15T13:34:24.000Z</time>
      </trkpt>
      <trkpt lat="47.79214" lon="-2.6684">
        <ele>161.60000610352</ele>
        <time>2025-05-15T13:34:25.000Z</time>
      </trkpt>
      <trkpt lat="47.79214" lon="-2.66848">
        <ele>161</ele>
        <time>2025-05-15T13:34:26.000Z</time>
      </trkpt>
      <trkpt lat="47.79215" lon="-2.66889">
        <ele>160.80000305176</ele>
        <time>2025-05-15T13:34:31.000Z</time>
      </trkpt>
      <trkpt lat="47.79215" lon="-2.66905">
        <ele>161</ele>
        <time>2025-05-15T13:34:33.000Z</time>
      </trkpt>
      <trkpt lat="47.79216" lon="-2.66913">
        <ele>161</ele>
        <time>2025-05-15T13:34:34.000Z</time>
      </trkpt>
      <trkpt lat="47.79216" lon="-2.66939">
        <ele>161.19999694824</ele>
        <time>2025-05-15T13:34:37.000Z</time>
      </trkpt>
      <trkpt lat="47.79216" lon="-2.66947">
        <ele>161.19999694824</ele>
        <time>2025-05-15T13:34:38.000Z</time>
      </trkpt>
      <trkpt lat="47.79216" lon="-2.66955">
        <ele>161.39999389648</ele>
        <time>2025-05-15T13:34:39.000Z</time>
      </trkpt>
      <trkpt lat="47.79216" lon="-2.66962">
        <ele>161.39999389648</ele>
        <time>2025-05-15T13:34:40.000Z</time>
      </trkpt>
      <trkpt lat="47.79216" lon="-2.6697">
        <ele>161.39999389648</ele>
        <time>2025-05-15T13:34:41.000Z</time>
      </trkpt>
      <trkpt lat="47.79216" lon="-2.66977">
        <ele>161.60000610352</ele>
        <time>2025-05-15T13:34:42.000Z</time>
      </trkpt>
      <trkpt lat="47.79216" lon="-2.66984">
        <ele>161.60000610352</ele>
        <time>2025-05-15T13:34:43.000Z</time>
      </trkpt>
      <trkpt lat="47.79217" lon="-2.6699">
        <ele>161.60000610352</ele>
        <time>2025-05-15T13:34:44.000Z</time>
      </trkpt>
      <trkpt lat="47.79217" lon="-2.66997">
        <ele>161.60000610352</ele>
        <time>2025-05-15T13:34:45.000Z</time>
      </trkpt>
      <trkpt lat="47.79217" lon="-2.67003">
        <ele>161.80000305176</ele>
        <time>2025-05-15T13:34:46.000Z</time>
      </trkpt>
      <trkpt lat="47.79217" lon="-2.6701">
        <ele>161.80000305176</ele>
        <time>2025-05-15T13:34:47.000Z</time>
      </trkpt>
      <trkpt lat="47.79217" lon="-2.67016">
        <ele>162</ele>
        <time>2025-05-15T13:34:48.000Z</time>
      </trkpt>
      <trkpt lat="47.79217" lon="-2.67022">
        <ele>162</ele>
        <time>2025-05-15T13:34:49.000Z</time>
      </trkpt>
      <trkpt lat="47.79217" lon="-2.67028">
        <ele>162</ele>
        <time>2025-05-15T13:34:50.000Z</time>
      </trkpt>
      <trkpt lat="47.79216" lon="-2.67033">
        <ele>162.19999694824</ele>
        <time>2025-05-15T13:34:51.000Z</time>
      </trkpt>
      <trkpt lat="47.79216" lon="-2.67039">
        <ele>162.39999389648</ele>
        <time>2025-05-15T13:34:52.000Z</time>
      </trkpt>
      <trkpt lat="47.79217" lon="-2.67044">
        <ele>162.39999389648</ele>
        <time>2025-05-15T13:34:53.000Z</time>
      </trkpt>
      <trkpt lat="47.79217" lon="-2.67049">
        <ele>162.39999389648</ele>
        <time>2025-05-15T13:34:54.000Z</time>
      </trkpt>
      <trkpt lat="47.79218" lon="-2.67054">
        <ele>162.80000305176</ele>
        <time>2025-05-15T13:34:55.000Z</time>
      </trkpt>
      <trkpt lat="47.79218" lon="-2.67058">
        <ele>163</ele>
        <time>2025-05-15T13:34:56.000Z</time>
      </trkpt>
      <trkpt lat="47.79219" lon="-2.67063">
        <ele>163.19999694824</ele>
        <time>2025-05-15T13:34:57.000Z</time>
      </trkpt>
      <trkpt lat="47.79219" lon="-2.67067">
        <ele>163.19999694824</ele>
        <time>2025-05-15T13:34:58.000Z</time>
      </trkpt>
      <trkpt lat="47.79219" lon="-2.67071">
        <ele>163.19999694824</ele>
        <time>2025-05-15T13:34:59.000Z</time>
      </trkpt>
      <trkpt lat="47.79219" lon="-2.67075">
        <ele>163.19999694824</ele>
        <time>2025-05-15T13:35:00.000Z</time>
      </trkpt>
      <trkpt lat="47.79219" lon="-2.6708">
        <ele>163.39999389648</ele>
        <time>2025-05-15T13:35:01.000Z</time>
      </trkpt>
      <trkpt lat="47.79219" lon="-2.67097">
        <ele>163.60000610352</ele>
        <time>2025-05-15T13:35:05.000Z</time>
      </trkpt>
      <trkpt lat="47.7922" lon="-2.67111">
        <ele>163.80000305176</ele>
        <time>2025-05-15T13:35:08.000Z</time>
      </trkpt>
      <trkpt lat="47.79219" lon="-2.67115">
        <ele>164</ele>
        <time>2025-05-15T13:35:09.000Z</time>
      </trkpt>
      <trkpt lat="47.7922" lon="-2.67119">
        <ele>164</ele>
        <time>2025-05-15T13:35:10.000Z</time>
      </trkpt>
      <trkpt lat="47.79219" lon="-2.67123">
        <ele>164.19999694824</ele>
        <time>2025-05-15T13:35:11.000Z</time>
      </trkpt>
      <trkpt lat="47.79219" lon="-2.67127">
        <ele>164.19999694824</ele>
        <time>2025-05-15T13:35:12.000Z</time>
      </trkpt>
      <trkpt lat="47.79219" lon="-2.67131">
        <ele>164.39999389648</ele>
        <time>2025-05-15T13:35:13.000Z</time>
      </trkpt>
      <trkpt lat="47.7922" lon="-2.67146">
        <ele>164.60000610352</ele>
        <time>2025-05-15T13:35:17.000Z</time>
      </trkpt>
      <trkpt lat="47.7922" lon="-2.67158">
        <ele>165</ele>
        <time>2025-05-15T13:35:20.000Z</time>
      </trkpt>
      <trkpt lat="47.7922" lon="-2.67166">
        <ele>165.19999694824</ele>
        <time>2025-05-15T13:35:22.000Z</time>
      </trkpt>
      <trkpt lat="47.79221" lon="-2.67169">
        <ele>165.19999694824</ele>
        <time>2025-05-15T13:35:23.000Z</time>
      </trkpt>
      <trkpt lat="47.7922" lon="-2.67184">
        <ele>165.80000305176</ele>
        <time>2025-05-15T13:35:27.000Z</time>
      </trkpt>
      <trkpt lat="47.7922" lon="-2.67192">
        <ele>165.80000305176</ele>
        <time>2025-05-15T13:35:29.000Z</time>
      </trkpt>
      <trkpt lat="47.7922" lon="-2.67198">
        <ele>166</ele>
        <time>2025-05-15T13:35:31.000Z</time>
      </trkpt>
      <trkpt lat="47.7922" lon="-2.67202">
        <ele>166.19999694824</ele>
        <time>2025-05-15T13:35:32.000Z</time>
      </trkpt>
      <trkpt lat="47.79221" lon="-2.67205">
        <ele>166.19999694824</ele>
        <time>2025-05-15T13:35:33.000Z</time>
      </trkpt>
      <trkpt lat="47.79221" lon="-2.67209">
        <ele>166.39999389648</ele>
        <time>2025-05-15T13:35:34.000Z</time>
      </trkpt>
      <trkpt lat="47.79222" lon="-2.67237">
        <ele>167</ele>
        <time>2025-05-15T13:35:41.000Z</time>
      </trkpt>
      <trkpt lat="47.79223" lon="-2.67241">
        <ele>167</ele>
        <time>2025-05-15T13:35:42.000Z</time>
      </trkpt>
      <trkpt lat="47.79223" lon="-2.67246">
        <ele>167</ele>
        <time>2025-05-15T13:35:43.000Z</time>
      </trkpt>
      <trkpt lat="47.79224" lon="-2.67271">
        <ele>167.19999694824</ele>
        <time>2025-05-15T13:35:48.000Z</time>
      </trkpt>
      <trkpt lat="47.79224" lon="-2.67282">
        <ele>167.39999389648</ele>
        <time>2025-05-15T13:35:50.000Z</time>
      </trkpt>
      <trkpt lat="47.79224" lon="-2.67286">
        <ele>167.39999389648</ele>
        <time>2025-05-15T13:35:51.000Z</time>
      </trkpt>
      <trkpt lat="47.79225" lon="-2.67292">
        <ele>167.39999389648</ele>
        <time>2025-05-15T13:35:52.000Z</time>
      </trkpt>
      <trkpt lat="47.79225" lon="-2.67302">
        <ele>167.60000610352</ele>
        <time>2025-05-15T13:35:54.000Z</time>
      </trkpt>
      <trkpt lat="47.79226" lon="-2.67311">
        <ele>168</ele>
        <time>2025-05-15T13:35:56.000Z</time>
      </trkpt>
      <trkpt lat="47.79226" lon="-2.67316">
        <ele>168.19999694824</ele>
        <time>2025-05-15T13:35:57.000Z</time>
      </trkpt>
      <trkpt lat="47.79226" lon="-2.67339">
        <ele>168.80000305176</ele>
        <time>2025-05-15T13:36:02.000Z</time>
      </trkpt>
      <trkpt lat="47.79225" lon="-2.67344">
        <ele>169</ele>
        <time>2025-05-15T13:36:03.000Z</time>
      </trkpt>
      <trkpt lat="47.79225" lon="-2.67348">
        <ele>169</ele>
        <time>2025-05-15T13:36:04.000Z</time>
      </trkpt>
      <trkpt lat="47.79225" lon="-2.67355">
        <ele>169.19999694824</ele>
        <time>2025-05-15T13:36:06.000Z</time>
      </trkpt>
      <trkpt lat="47.79225" lon="-2.6736">
        <ele>169.19999694824</ele>
        <time>2025-05-15T13:36:07.000Z</time>
      </trkpt>
      <trkpt lat="47.79224" lon="-2.67364">
        <ele>169.19999694824</ele>
        <time>2025-05-15T13:36:08.000Z</time>
      </trkpt>
      <trkpt lat="47.79224" lon="-2.67368">
        <ele>169.19999694824</ele>
        <time>2025-05-15T13:36:09.000Z</time>
      </trkpt>
      <trkpt lat="47.79224" lon="-2.67372">
        <ele>169.39999389648</ele>
        <time>2025-05-15T13:36:10.000Z</time>
      </trkpt>
      <trkpt lat="47.79225" lon="-2.67376">
        <ele>169.60000610352</ele>
        <time>2025-05-15T13:36:11.000Z</time>
      </trkpt>
      <trkpt lat="47.79225" lon="-2.67385">
        <ele>169.80000305176</ele>
        <time>2025-05-15T13:36:13.000Z</time>
      </trkpt>
      <trkpt lat="47.79225" lon="-2.67388">
        <ele>170.19999694824</ele>
        <time>2025-05-15T13:36:14.000Z</time>
      </trkpt>
      <trkpt lat="47.79225" lon="-2.67392">
        <ele>170.60000610352</ele>
        <time>2025-05-15T13:36:15.000Z</time>
      </trkpt>
      <trkpt lat="47.79225" lon="-2.674">
        <ele>171</ele>
        <time>2025-05-15T13:36:17.000Z</time>
      </trkpt>
      <trkpt lat="47.79225" lon="-2.67404">
        <ele>171</ele>
        <time>2025-05-15T13:36:18.000Z</time>
      </trkpt>
      <trkpt lat="47.79226" lon="-2.67408">
        <ele>171.19999694824</ele>
        <time>2025-05-15T13:36:19.000Z</time>
      </trkpt>
      <trkpt lat="47.79226" lon="-2.67412">
        <ele>171.39999389648</ele>
        <time>2025-05-15T13:36:20.000Z</time>
      </trkpt>
      <trkpt lat="47.79226" lon="-2.67416">
        <ele>171.39999389648</ele>
        <time>2025-05-15T13:36:21.000Z</time>
      </trkpt>
      <trkpt lat="47.79226" lon="-2.6742">
        <ele>171.60000610352</ele>
        <time>2025-05-15T13:36:22.000Z</time>
      </trkpt>
      <trkpt lat="47.79226" lon="-2.67425">
        <ele>171.60000610352</ele>
        <time>2025-05-15T13:36:23.000Z</time>
      </trkpt>
      <trkpt lat="47.79225" lon="-2.67428">
        <ele>171.60000610352</ele>
        <time>2025-05-15T13:36:24.000Z</time>
      </trkpt>
      <trkpt lat="47.79224" lon="-2.67433">
        <ele>171.60000610352</ele>
        <time>2025-05-15T13:36:25.000Z</time>
      </trkpt>
      <trkpt lat="47.79224" lon="-2.67439">
        <ele>171.60000610352</ele>
        <time>2025-05-15T13:36:26.000Z</time>
      </trkpt>
      <trkpt lat="47.79224" lon="-2.67445">
        <ele>171.60000610352</ele>
        <time>2025-05-15T13:36:27.000Z</time>
      </trkpt>
      <trkpt lat="47.79224" lon="-2.67451">
        <ele>171.80000305176</ele>
        <time>2025-05-15T13:36:28.000Z</time>
      </trkpt>
      <trkpt lat="47.79225" lon="-2.67458">
        <ele>171.80000305176</ele>
        <time>2025-05-15T13:36:29.000Z</time>
      </trkpt>
      <trkpt lat="47.79226" lon="-2.67464">
        <ele>172</ele>
        <time>2025-05-15T13:36:30.000Z</time>
      </trkpt>
      <trkpt lat="47.79227" lon="-2.67471">
        <ele>172</ele>
        <time>2025-05-15T13:36:31.000Z</time>
      </trkpt>
      <trkpt lat="47.79227" lon="-2.67478">
        <ele>172</ele>
        <time>2025-05-15T13:36:32.000Z</time>
      </trkpt>
      <trkpt lat="47.79227" lon="-2.67485">
        <ele>172</ele>
        <time>2025-05-15T13:36:33.000Z</time>
      </trkpt>
      <trkpt lat="47.79227" lon="-2.67491">
        <ele>172.19999694824</ele>
        <time>2025-05-15T13:36:34.000Z</time>
      </trkpt>
      <trkpt lat="47.79227" lon="-2.67498">
        <ele>172.19999694824</ele>
        <time>2025-05-15T13:36:35.000Z</time>
      </trkpt>
      <trkpt lat="47.79227" lon="-2.67503">
        <ele>172.19999694824</ele>
        <time>2025-05-15T13:36:36.000Z</time>
      </trkpt>
      <trkpt lat="47.79228" lon="-2.6751">
        <ele>172.19999694824</ele>
        <time>2025-05-15T13:36:37.000Z</time>
      </trkpt>
      <trkpt lat="47.79226" lon="-2.67517">
        <ele>172.39999389648</ele>
        <time>2025-05-15T13:36:38.000Z</time>
      </trkpt>
      <trkpt lat="47.79224" lon="-2.67547">
        <ele>172.39999389648</ele>
        <time>2025-05-15T13:36:42.000Z</time>
      </trkpt>
      <trkpt lat="47.79225" lon="-2.67562">
        <ele>172.39999389648</ele>
        <time>2025-05-15T13:36:44.000Z</time>
      </trkpt>
      <trkpt lat="47.79223" lon="-2.67592">
        <ele>172.19999694824</ele>
        <time>2025-05-15T13:36:48.000Z</time>
      </trkpt>
      <trkpt lat="47.79222" lon="-2.67598">
        <ele>172</ele>
        <time>2025-05-15T13:36:49.000Z</time>
      </trkpt>
      <trkpt lat="47.79222" lon="-2.67606">
        <ele>172</ele>
        <time>2025-05-15T13:36:50.000Z</time>
      </trkpt>
      <trkpt lat="47.79222" lon="-2.67637">
        <ele>171.60000610352</ele>
        <time>2025-05-15T13:36:54.000Z</time>
      </trkpt>
      <trkpt lat="47.79221" lon="-2.67644">
        <ele>171.60000610352</ele>
        <time>2025-05-15T13:36:55.000Z</time>
      </trkpt>
      <trkpt lat="47.79221" lon="-2.67661">
        <ele>171.39999389648</ele>
        <time>2025-05-15T13:36:57.000Z</time>
      </trkpt>
      <trkpt lat="47.79222" lon="-2.67668">
        <ele>171.39999389648</ele>
        <time>2025-05-15T13:36:58.000Z</time>
      </trkpt>
      <trkpt lat="47.7922" lon="-2.67676">
        <ele>171.39999389648</ele>
        <time>2025-05-15T13:36:59.000Z</time>
      </trkpt>
      <trkpt lat="47.79219" lon="-2.67691">
        <ele>171.39999389648</ele>
        <time>2025-05-15T13:37:01.000Z</time>
      </trkpt>
      <trkpt lat="47.79219" lon="-2.67723">
        <ele>171.60000610352</ele>
        <time>2025-05-15T13:37:05.000Z</time>
      </trkpt>
      <trkpt lat="47.79218" lon="-2.67739">
        <ele>171.80000305176</ele>
        <time>2025-05-15T13:37:07.000Z</time>
      </trkpt>
      <trkpt lat="47.79215" lon="-2.67771">
        <ele>172.19999694824</ele>
        <time>2025-05-15T13:37:11.000Z</time>
      </trkpt>
      <trkpt lat="47.79215" lon="-2.67778">
        <ele>172.19999694824</ele>
        <time>2025-05-15T13:37:12.000Z</time>
      </trkpt>
      <trkpt lat="47.79215" lon="-2.67786">
        <ele>172.19999694824</ele>
        <time>2025-05-15T13:37:13.000Z</time>
      </trkpt>
      <trkpt lat="47.79214" lon="-2.67793">
        <ele>171.80000305176</ele>
        <time>2025-05-15T13:37:14.000Z</time>
      </trkpt>
      <trkpt lat="47.79214" lon="-2.67801">
        <ele>171.80000305176</ele>
        <time>2025-05-15T13:37:15.000Z</time>
      </trkpt>
      <trkpt lat="47.79213" lon="-2.67809">
        <ele>171.60000610352</ele>
        <time>2025-05-15T13:37:16.000Z</time>
      </trkpt>
      <trkpt lat="47.79212" lon="-2.67816">
        <ele>171.60000610352</ele>
        <time>2025-05-15T13:37:17.000Z</time>
      </trkpt>
      <trkpt lat="47.79209" lon="-2.67859">
        <ele>171</ele>
        <time>2025-05-15T13:37:23.000Z</time>
      </trkpt>
      <trkpt lat="47.79209" lon="-2.67881">
        <ele>170.80000305176</ele>
        <time>2025-05-15T13:37:26.000Z</time>
      </trkpt>
      <trkpt lat="47.79207" lon="-2.67906">
        <ele>170.60000610352</ele>
        <time>2025-05-15T13:37:29.000Z</time>
      </trkpt>
      <trkpt lat="47.79207" lon="-2.67915">
        <ele>170.60000610352</ele>
        <time>2025-05-15T13:37:30.000Z</time>
      </trkpt>
      <trkpt lat="47.79208" lon="-2.67923">
        <ele>170.39999389648</ele>
        <time>2025-05-15T13:37:31.000Z</time>
      </trkpt>
      <trkpt lat="47.79209" lon="-2.67928">
        <ele>170.39999389648</ele>
        <time>2025-05-15T13:37:32.000Z</time>
      </trkpt>
      <trkpt lat="47.7921" lon="-2.67933">
        <ele>170.39999389648</ele>
        <time>2025-05-15T13:37:33.000Z</time>
      </trkpt>
      <trkpt lat="47.79208" lon="-2.67939">
        <ele>170.39999389648</ele>
        <time>2025-05-15T13:37:34.000Z</time>
      </trkpt>
      <trkpt lat="47.79207" lon="-2.67944">
        <ele>170.39999389648</ele>
        <time>2025-05-15T13:37:35.000Z</time>
      </trkpt>
      <trkpt lat="47.79204" lon="-2.6795">
        <ele>170.39999389648</ele>
        <time>2025-05-15T13:37:36.000Z</time>
      </trkpt>
      <trkpt lat="47.79199" lon="-2.67957">
        <ele>170.39999389648</ele>
        <time>2025-05-15T13:37:37.000Z</time>
      </trkpt>
      <trkpt lat="47.79194" lon="-2.67962">
        <ele>170.19999694824</ele>
        <time>2025-05-15T13:37:38.000Z</time>
      </trkpt>
      <trkpt lat="47.79188" lon="-2.67967">
        <ele>170.19999694824</ele>
        <time>2025-05-15T13:37:39.000Z</time>
      </trkpt>
      <trkpt lat="47.79165" lon="-2.6799">
        <ele>169.80000305176</ele>
        <time>2025-05-15T13:37:43.000Z</time>
      </trkpt>
      <trkpt lat="47.79141" lon="-2.68013">
        <ele>169.60000610352</ele>
        <time>2025-05-15T13:37:47.000Z</time>
      </trkpt>
      <trkpt lat="47.79135" lon="-2.68018">
        <ele>169.60000610352</ele>
        <time>2025-05-15T13:37:48.000Z</time>
      </trkpt>
      <trkpt lat="47.79124" lon="-2.68027">
        <ele>169.39999389648</ele>
        <time>2025-05-15T13:37:50.000Z</time>
      </trkpt>
      <trkpt lat="47.79097" lon="-2.68055">
        <ele>168.80000305176</ele>
        <time>2025-05-15T13:37:55.000Z</time>
      </trkpt>
      <trkpt lat="47.79095" lon="-2.68062">
        <ele>168.60000610352</ele>
        <time>2025-05-15T13:37:56.000Z</time>
      </trkpt>
      <trkpt lat="47.79095" lon="-2.6807">
        <ele>168.60000610352</ele>
        <time>2025-05-15T13:37:57.000Z</time>
      </trkpt>
      <trkpt lat="47.79095" lon="-2.68077">
        <ele>168.39999389648</ele>
        <time>2025-05-15T13:37:58.000Z</time>
      </trkpt>
      <trkpt lat="47.79096" lon="-2.68084">
        <ele>168.39999389648</ele>
        <time>2025-05-15T13:37:59.000Z</time>
      </trkpt>
      <trkpt lat="47.79098" lon="-2.68089">
        <ele>168.39999389648</ele>
        <time>2025-05-15T13:38:00.000Z</time>
      </trkpt>
      <trkpt lat="47.79101" lon="-2.68093">
        <ele>168.39999389648</ele>
        <time>2025-05-15T13:38:01.000Z</time>
      </trkpt>
      <trkpt lat="47.79104" lon="-2.68093">
        <ele>168.39999389648</ele>
        <time>2025-05-15T13:38:02.000Z</time>
      </trkpt>
      <trkpt lat="47.79107" lon="-2.68093">
        <ele>168.39999389648</ele>
        <time>2025-05-15T13:38:03.000Z</time>
      </trkpt>
      <trkpt lat="47.79109" lon="-2.68094">
        <ele>168.60000610352</ele>
        <time>2025-05-15T13:38:04.000Z</time>
      </trkpt>
      <trkpt lat="47.79111" lon="-2.68096">
        <ele>169</ele>
        <time>2025-05-15T13:38:05.000Z</time>
      </trkpt>
      <trkpt lat="47.79113" lon="-2.68099">
        <ele>169.19999694824</ele>
        <time>2025-05-15T13:38:06.000Z</time>
      </trkpt>
      <trkpt lat="47.79116" lon="-2.68103">
        <ele>169.19999694824</ele>
        <time>2025-05-15T13:38:07.000Z</time>
      </trkpt>
      <trkpt lat="47.79119" lon="-2.68108">
        <ele>169.39999389648</ele>
        <time>2025-05-15T13:38:08.000Z</time>
      </trkpt>
      <trkpt lat="47.79121" lon="-2.68113">
        <ele>169.60000610352</ele>
        <time>2025-05-15T13:38:09.000Z</time>
      </trkpt>
      <trkpt lat="47.79123" lon="-2.68117">
        <ele>169.80000305176</ele>
        <time>2025-05-15T13:38:10.000Z</time>
      </trkpt>
      <trkpt lat="47.79124" lon="-2.68122">
        <ele>169.80000305176</ele>
        <time>2025-05-15T13:38:11.000Z</time>
      </trkpt>
      <trkpt lat="47.79126" lon="-2.68126">
        <ele>170</ele>
        <time>2025-05-15T13:38:12.000Z</time>
      </trkpt>
      <trkpt lat="47.79128" lon="-2.68135">
        <ele>170</ele>
        <time>2025-05-15T13:38:14.000Z</time>
      </trkpt>
      <trkpt lat="47.79131" lon="-2.68143">
        <ele>170</ele>
        <time>2025-05-15T13:38:15.000Z</time>
      </trkpt>
      <trkpt lat="47.79133" lon="-2.68156">
        <ele>170.19999694824</ele>
        <time>2025-05-15T13:38:17.000Z</time>
      </trkpt>
      <trkpt lat="47.79132" lon="-2.68177">
        <ele>170.60000610352</ele>
        <time>2025-05-15T13:38:20.000Z</time>
      </trkpt>
      <trkpt lat="47.79131" lon="-2.68183">
        <ele>170.80000305176</ele>
        <time>2025-05-15T13:38:21.000Z</time>
      </trkpt>
      <trkpt lat="47.7913" lon="-2.68188">
        <ele>170.80000305176</ele>
        <time>2025-05-15T13:38:22.000Z</time>
      </trkpt>
      <trkpt lat="47.79129" lon="-2.68194">
        <ele>171</ele>
        <time>2025-05-15T13:38:23.000Z</time>
      </trkpt>
      <trkpt lat="47.79128" lon="-2.682">
        <ele>171</ele>
        <time>2025-05-15T13:38:24.000Z</time>
      </trkpt>
      <trkpt lat="47.79127" lon="-2.68205">
        <ele>171</ele>
        <time>2025-05-15T13:38:25.000Z</time>
      </trkpt>
      <trkpt lat="47.79126" lon="-2.6821">
        <ele>171.19999694824</ele>
        <time>2025-05-15T13:38:26.000Z</time>
      </trkpt>
      <trkpt lat="47.79121" lon="-2.6822">
        <ele>171.19999694824</ele>
        <time>2025-05-15T13:38:28.000Z</time>
      </trkpt>
      <trkpt lat="47.7912" lon="-2.68224">
        <ele>171.39999389648</ele>
        <time>2025-05-15T13:38:29.000Z</time>
      </trkpt>
      <trkpt lat="47.79115" lon="-2.68242">
        <ele>172</ele>
        <time>2025-05-15T13:38:32.000Z</time>
      </trkpt>
      <trkpt lat="47.79109" lon="-2.68256">
        <ele>172.19999694824</ele>
        <time>2025-05-15T13:38:34.000Z</time>
      </trkpt>
      <trkpt lat="47.79105" lon="-2.6826">
        <ele>172.39999389648</ele>
        <time>2025-05-15T13:38:35.000Z</time>
      </trkpt>
      <trkpt lat="47.791" lon="-2.68265">
        <ele>172.39999389648</ele>
        <time>2025-05-15T13:38:36.000Z</time>
      </trkpt>
      <trkpt lat="47.79097" lon="-2.68266">
        <ele>172.39999389648</ele>
        <time>2025-05-15T13:38:37.000Z</time>
      </trkpt>
      <trkpt lat="47.79094" lon="-2.68267">
        <ele>172.39999389648</ele>
        <time>2025-05-15T13:38:38.000Z</time>
      </trkpt>
      <trkpt lat="47.79091" lon="-2.68268">
        <ele>172.39999389648</ele>
        <time>2025-05-15T13:38:39.000Z</time>
      </trkpt>
      <trkpt lat="47.79089" lon="-2.68268">
        <ele>172.39999389648</ele>
        <time>2025-05-15T13:38:40.000Z</time>
      </trkpt>
      <trkpt lat="47.79084" lon="-2.6827">
        <ele>172.39999389648</ele>
        <time>2025-05-15T13:38:41.000Z</time>
      </trkpt>
      <trkpt lat="47.79082" lon="-2.68271">
        <ele>172.39999389648</ele>
        <time>2025-05-15T13:38:42.000Z</time>
      </trkpt>
      <trkpt lat="47.79079" lon="-2.68272">
        <ele>172.39999389648</ele>
        <time>2025-05-15T13:38:44.000Z</time>
      </trkpt>
      <trkpt lat="47.79077" lon="-2.68273">
        <ele>172.39999389648</ele>
        <time>2025-05-15T13:38:45.000Z</time>
      </trkpt>
      <trkpt lat="47.79075" lon="-2.68273">
        <ele>172.39999389648</ele>
        <time>2025-05-15T13:38:46.000Z</time>
      </trkpt>
      <trkpt lat="47.79074" lon="-2.68273">
        <ele>172.39999389648</ele>
        <time>2025-05-15T13:38:47.000Z</time>
      </trkpt>
      <trkpt lat="47.79071" lon="-2.68274">
        <ele>172.39999389648</ele>
        <time>2025-05-15T13:38:49.000Z</time>
      </trkpt>
      <trkpt lat="47.7907" lon="-2.68275">
        <ele>172.19999694824</ele>
        <time>2025-05-15T13:38:50.000Z</time>
      </trkpt>
      <trkpt lat="47.79069" lon="-2.68275">
        <ele>172.19999694824</ele>
        <time>2025-05-15T13:38:51.000Z</time>
      </trkpt>
      <trkpt lat="47.79068" lon="-2.68275">
        <ele>172.19999694824</ele>
        <time>2025-05-15T13:38:52.000Z</time>
      </trkpt>
      <trkpt lat="47.79068" lon="-2.68275">
        <ele>172.19999694824</ele>
        <time>2025-05-15T13:38:53.000Z</time>
      </trkpt>
      <trkpt lat="47.79067" lon="-2.68276">
        <ele>172</ele>
        <time>2025-05-15T13:38:54.000Z</time>
      </trkpt>
      <trkpt lat="47.79066" lon="-2.68277">
        <ele>172</ele>
        <time>2025-05-15T13:38:55.000Z</time>
      </trkpt>
      <trkpt lat="47.79065" lon="-2.68277">
        <ele>172</ele>
        <time>2025-05-15T13:38:56.000Z</time>
      </trkpt>
      <trkpt lat="47.79064" lon="-2.68278">
        <ele>172</ele>
        <time>2025-05-15T13:38:57.000Z</time>
      </trkpt>
      <trkpt lat="47.79058" lon="-2.6828">
        <ele>172</ele>
        <time>2025-05-15T13:39:02.000Z</time>
      </trkpt>
      <trkpt lat="47.79057" lon="-2.6828">
        <ele>172</ele>
        <time>2025-05-15T13:39:03.000Z</time>
      </trkpt>
      <trkpt lat="47.79056" lon="-2.68281">
        <ele>171.80000305176</ele>
        <time>2025-05-15T13:39:04.000Z</time>
      </trkpt>
      <trkpt lat="47.79055" lon="-2.68281">
        <ele>171.80000305176</ele>
        <time>2025-05-15T13:39:05.000Z</time>
      </trkpt>
      <trkpt lat="47.79054" lon="-2.68281">
        <ele>171.80000305176</ele>
        <time>2025-05-15T13:39:06.000Z</time>
      </trkpt>
      <trkpt lat="47.79049" lon="-2.68281">
        <ele>171.60000610352</ele>
        <time>2025-05-15T13:39:10.000Z</time>
      </trkpt>
      <trkpt lat="47.79048" lon="-2.6828">
        <ele>171.60000610352</ele>
        <time>2025-05-15T13:39:11.000Z</time>
      </trkpt>
      <trkpt lat="47.79048" lon="-2.6828">
        <ele>171.60000610352</ele>
        <time>2025-05-15T13:39:12.000Z</time>
      </trkpt>
      <trkpt lat="47.79047" lon="-2.68279">
        <ele>171.60000610352</ele>
        <time>2025-05-15T13:39:13.000Z</time>
      </trkpt>
      <trkpt lat="47.79044" lon="-2.68279">
        <ele>171.60000610352</ele>
        <time>2025-05-15T13:39:15.000Z</time>
      </trkpt>
      <trkpt lat="47.79043" lon="-2.68279">
        <ele>171.60000610352</ele>
        <time>2025-05-15T13:39:16.000Z</time>
      </trkpt>
      <trkpt lat="47.79042" lon="-2.68279">
        <ele>171.60000610352</ele>
        <time>2025-05-15T13:39:17.000Z</time>
      </trkpt>
      <trkpt lat="47.79041" lon="-2.68279">
        <ele>171.60000610352</ele>
        <time>2025-05-15T13:39:18.000Z</time>
      </trkpt>
      <trkpt lat="47.79039" lon="-2.68279">
        <ele>171.60000610352</ele>
        <time>2025-05-15T13:39:19.000Z</time>
      </trkpt>
      <trkpt lat="47.79035" lon="-2.68277">
        <ele>171.80000305176</ele>
        <time>2025-05-15T13:39:21.000Z</time>
      </trkpt>
      <trkpt lat="47.79034" lon="-2.68277">
        <ele>171.80000305176</ele>
        <time>2025-05-15T13:39:22.000Z</time>
      </trkpt>
      <trkpt lat="47.79032" lon="-2.68277">
        <ele>171.80000305176</ele>
        <time>2025-05-15T13:39:23.000Z</time>
      </trkpt>
      <trkpt lat="47.79032" lon="-2.68277">
        <ele>171.80000305176</ele>
        <time>2025-05-15T13:39:24.000Z</time>
      </trkpt>
      <trkpt lat="47.79032" lon="-2.68278">
        <ele>171.80000305176</ele>
        <time>2025-05-15T13:39:26.000Z</time>
      </trkpt>
      <trkpt lat="47.7903" lon="-2.68279">
        <ele>171.80000305176</ele>
        <time>2025-05-15T13:39:28.000Z</time>
      </trkpt>
      <trkpt lat="47.79029" lon="-2.6828">
        <ele>171.80000305176</ele>
        <time>2025-05-15T13:39:29.000Z</time>
      </trkpt>
      <trkpt lat="47.79021" lon="-2.68281">
        <ele>171.80000305176</ele>
        <time>2025-05-15T13:39:33.000Z</time>
      </trkpt>
      <trkpt lat="47.79016" lon="-2.68281">
        <ele>171.80000305176</ele>
        <time>2025-05-15T13:39:35.000Z</time>
      </trkpt>
      <trkpt lat="47.79014" lon="-2.68283">
        <ele>171.80000305176</ele>
        <time>2025-05-15T13:39:36.000Z</time>
      </trkpt>
      <trkpt lat="47.79012" lon="-2.68283">
        <ele>172</ele>
        <time>2025-05-15T13:39:37.000Z</time>
      </trkpt>
      <trkpt lat="47.7901" lon="-2.68282">
        <ele>172</ele>
        <time>2025-05-15T13:39:38.000Z</time>
      </trkpt>
      <trkpt lat="47.78995" lon="-2.68279">
        <ele>172.19999694824</ele>
        <time>2025-05-15T13:39:41.000Z</time>
      </trkpt>
      <trkpt lat="47.7899" lon="-2.6828">
        <ele>172.19999694824</ele>
        <time>2025-05-15T13:39:42.000Z</time>
      </trkpt>
      <trkpt lat="47.78982" lon="-2.68281">
        <ele>172.19999694824</ele>
        <time>2025-05-15T13:39:44.000Z</time>
      </trkpt>
      <trkpt lat="47.78965" lon="-2.68287">
        <ele>172.19999694824</ele>
        <time>2025-05-15T13:39:48.000Z</time>
      </trkpt>
      <trkpt lat="47.78954" lon="-2.6829">
        <ele>172</ele>
        <time>2025-05-15T13:39:50.000Z</time>
      </trkpt>
      <trkpt lat="47.78949" lon="-2.68291">
        <ele>172</ele>
        <time>2025-05-15T13:39:51.000Z</time>
      </trkpt>
      <trkpt lat="47.78942" lon="-2.68294">
        <ele>172</ele>
        <time>2025-05-15T13:39:52.000Z</time>
      </trkpt>
      <trkpt lat="47.78939" lon="-2.68295">
        <ele>171.60000610352</ele>
        <time>2025-05-15T13:39:53.000Z</time>
      </trkpt>
      <trkpt lat="47.78931" lon="-2.68296">
        <ele>171.19999694824</ele>
        <time>2025-05-15T13:39:55.000Z</time>
      </trkpt>
      <trkpt lat="47.78928" lon="-2.68296">
        <ele>171.19999694824</ele>
        <time>2025-05-15T13:39:56.000Z</time>
      </trkpt>
      <trkpt lat="47.78925" lon="-2.68297">
        <ele>171.19999694824</ele>
        <time>2025-05-15T13:39:57.000Z</time>
      </trkpt>
      <trkpt lat="47.7892" lon="-2.68296">
        <ele>171.19999694824</ele>
        <time>2025-05-15T13:39:58.000Z</time>
      </trkpt>
      <trkpt lat="47.78915" lon="-2.68297">
        <ele>171.19999694824</ele>
        <time>2025-05-15T13:39:59.000Z</time>
      </trkpt>
      <trkpt lat="47.7891" lon="-2.68298">
        <ele>171.39999389648</ele>
        <time>2025-05-15T13:40:00.000Z</time>
      </trkpt>
      <trkpt lat="47.78901" lon="-2.68301">
        <ele>171.39999389648</ele>
        <time>2025-05-15T13:40:02.000Z</time>
      </trkpt>
      <trkpt lat="47.78899" lon="-2.68301">
        <ele>171.39999389648</ele>
        <time>2025-05-15T13:40:03.000Z</time>
      </trkpt>
      <trkpt lat="47.78896" lon="-2.68302">
        <ele>171.60000610352</ele>
        <time>2025-05-15T13:40:04.000Z</time>
      </trkpt>
      <trkpt lat="47.78892" lon="-2.68302">
        <ele>171.60000610352</ele>
        <time>2025-05-15T13:40:05.000Z</time>
      </trkpt>
      <trkpt lat="47.78887" lon="-2.68305">
        <ele>171.80000305176</ele>
        <time>2025-05-15T13:40:07.000Z</time>
      </trkpt>
      <trkpt lat="47.78884" lon="-2.68305">
        <ele>171.80000305176</ele>
        <time>2025-05-15T13:40:08.000Z</time>
      </trkpt>
      <trkpt lat="47.78871" lon="-2.68307">
        <ele>172.19999694824</ele>
        <time>2025-05-15T13:40:12.000Z</time>
      </trkpt>
      <trkpt lat="47.78868" lon="-2.68308">
        <ele>172.60000610352</ele>
        <time>2025-05-15T13:40:13.000Z</time>
      </trkpt>
      <trkpt lat="47.78863" lon="-2.6831">
        <ele>172.60000610352</ele>
        <time>2025-05-15T13:40:14.000Z</time>
      </trkpt>
      <trkpt lat="47.7886" lon="-2.68314">
        <ele>172.80000305176</ele>
        <time>2025-05-15T13:40:15.000Z</time>
      </trkpt>
      <trkpt lat="47.78851" lon="-2.68316">
        <ele>173.19999694824</ele>
        <time>2025-05-15T13:40:18.000Z</time>
      </trkpt>
      <trkpt lat="47.78848" lon="-2.68317">
        <ele>173.19999694824</ele>
        <time>2025-05-15T13:40:19.000Z</time>
      </trkpt>
      <trkpt lat="47.78845" lon="-2.68318">
        <ele>173.39999389648</ele>
        <time>2025-05-15T13:40:20.000Z</time>
      </trkpt>
      <trkpt lat="47.78842" lon="-2.68319">
        <ele>173.39999389648</ele>
        <time>2025-05-15T13:40:21.000Z</time>
      </trkpt>
      <trkpt lat="47.78832" lon="-2.68323">
        <ele>173.39999389648</ele>
        <time>2025-05-15T13:40:24.000Z</time>
      </trkpt>
      <trkpt lat="47.78827" lon="-2.68324">
        <ele>173.39999389648</ele>
        <time>2025-05-15T13:40:26.000Z</time>
      </trkpt>
      <trkpt lat="47.78821" lon="-2.68321">
        <ele>173.60000610352</ele>
        <time>2025-05-15T13:40:28.000Z</time>
      </trkpt>
      <trkpt lat="47.78819" lon="-2.68319">
        <ele>173.60000610352</ele>
        <time>2025-05-15T13:40:29.000Z</time>
      </trkpt>
      <trkpt lat="47.78817" lon="-2.68316">
        <ele>173.60000610352</ele>
        <time>2025-05-15T13:40:30.000Z</time>
      </trkpt>
      <trkpt lat="47.78815" lon="-2.68313">
        <ele>173.60000610352</ele>
        <time>2025-05-15T13:40:31.000Z</time>
      </trkpt>
      <trkpt lat="47.78812" lon="-2.68311">
        <ele>173.60000610352</ele>
        <time>2025-05-15T13:40:32.000Z</time>
      </trkpt>
      <trkpt lat="47.78805" lon="-2.68299">
        <ele>173.60000610352</ele>
        <time>2025-05-15T13:40:35.000Z</time>
      </trkpt>
      <trkpt lat="47.78789" lon="-2.68282">
        <ele>173</ele>
        <time>2025-05-15T13:40:39.000Z</time>
      </trkpt>
      <trkpt lat="47.78784" lon="-2.68278">
        <ele>172.80000305176</ele>
        <time>2025-05-15T13:40:40.000Z</time>
      </trkpt>
      <trkpt lat="47.78779" lon="-2.68277">
        <ele>172.60000610352</ele>
        <time>2025-05-15T13:40:41.000Z</time>
      </trkpt>
      <trkpt lat="47.78775" lon="-2.68277">
        <ele>172.39999389648</ele>
        <time>2025-05-15T13:40:42.000Z</time>
      </trkpt>
      <trkpt lat="47.78771" lon="-2.68281">
        <ele>172.19999694824</ele>
        <time>2025-05-15T13:40:43.000Z</time>
      </trkpt>
      <trkpt lat="47.78767" lon="-2.68286">
        <ele>171.60000610352</ele>
        <time>2025-05-15T13:40:44.000Z</time>
      </trkpt>
      <trkpt lat="47.7876" lon="-2.68298">
        <ele>171</ele>
        <time>2025-05-15T13:40:46.000Z</time>
      </trkpt>
      <trkpt lat="47.78757" lon="-2.68305">
        <ele>170.60000610352</ele>
        <time>2025-05-15T13:40:47.000Z</time>
      </trkpt>
      <trkpt lat="47.78754" lon="-2.68311">
        <ele>170.60000610352</ele>
        <time>2025-05-15T13:40:48.000Z</time>
      </trkpt>
      <trkpt lat="47.78751" lon="-2.68319">
        <ele>170.60000610352</ele>
        <time>2025-05-15T13:40:49.000Z</time>
      </trkpt>
      <trkpt lat="47.78745" lon="-2.68335">
        <ele>170.39999389648</ele>
        <time>2025-05-15T13:40:51.000Z</time>
      </trkpt>
      <trkpt lat="47.78725" lon="-2.68376">
        <ele>169.80000305176</ele>
        <time>2025-05-15T13:40:56.000Z</time>
      </trkpt>
      <trkpt lat="47.78717" lon="-2.68393">
        <ele>169.80000305176</ele>
        <time>2025-05-15T13:40:58.000Z</time>
      </trkpt>
      <trkpt lat="47.78704" lon="-2.68416">
        <ele>169.60000610352</ele>
        <time>2025-05-15T13:41:01.000Z</time>
      </trkpt>
      <trkpt lat="47.78691" lon="-2.68444">
        <ele>169.19999694824</ele>
        <time>2025-05-15T13:41:05.000Z</time>
      </trkpt>
      <trkpt lat="47.78672" lon="-2.68479">
        <ele>168.60000610352</ele>
        <time>2025-05-15T13:41:08.000Z</time>
      </trkpt>
      <trkpt lat="47.78665" lon="-2.68491">
        <ele>168.19999694824</ele>
        <time>2025-05-15T13:41:09.000Z</time>
      </trkpt>
      <trkpt lat="47.78658" lon="-2.68501">
        <ele>167.60000610352</ele>
        <time>2025-05-15T13:41:10.000Z</time>
      </trkpt>
      <trkpt lat="47.78653" lon="-2.68511">
        <ele>167.60000610352</ele>
        <time>2025-05-15T13:41:11.000Z</time>
      </trkpt>
      <trkpt lat="47.78642" lon="-2.68532">
        <ele>167</ele>
        <time>2025-05-15T13:41:13.000Z</time>
      </trkpt>
      <trkpt lat="47.78637" lon="-2.68541">
        <ele>167</ele>
        <time>2025-05-15T13:41:14.000Z</time>
      </trkpt>
      <trkpt lat="47.78635" lon="-2.68549">
        <ele>166.80000305176</ele>
        <time>2025-05-15T13:41:15.000Z</time>
      </trkpt>
      <trkpt lat="47.78634" lon="-2.68556">
        <ele>166.60000610352</ele>
        <time>2025-05-15T13:41:16.000Z</time>
      </trkpt>
      <trkpt lat="47.78633" lon="-2.68562">
        <ele>166.39999389648</ele>
        <time>2025-05-15T13:41:17.000Z</time>
      </trkpt>
      <trkpt lat="47.78632" lon="-2.68568">
        <ele>166.19999694824</ele>
        <time>2025-05-15T13:41:18.000Z</time>
      </trkpt>
      <trkpt lat="47.78632" lon="-2.68573">
        <ele>166.19999694824</ele>
        <time>2025-05-15T13:41:19.000Z</time>
      </trkpt>
      <trkpt lat="47.78631" lon="-2.68581">
        <ele>166</ele>
        <time>2025-05-15T13:41:20.000Z</time>
      </trkpt>
      <trkpt lat="47.78631" lon="-2.6859">
        <ele>165.80000305176</ele>
        <time>2025-05-15T13:41:21.000Z</time>
      </trkpt>
      <trkpt lat="47.78633" lon="-2.68599">
        <ele>165.80000305176</ele>
        <time>2025-05-15T13:41:22.000Z</time>
      </trkpt>
      <trkpt lat="47.78634" lon="-2.68608">
        <ele>165.60000610352</ele>
        <time>2025-05-15T13:41:23.000Z</time>
      </trkpt>
      <trkpt lat="47.78638" lon="-2.68625">
        <ele>165.39999389648</ele>
        <time>2025-05-15T13:41:25.000Z</time>
      </trkpt>
      <trkpt lat="47.78639" lon="-2.68632">
        <ele>165.39999389648</ele>
        <time>2025-05-15T13:41:26.000Z</time>
      </trkpt>
      <trkpt lat="47.78641" lon="-2.68641">
        <ele>165.39999389648</ele>
        <time>2025-05-15T13:41:27.000Z</time>
      </trkpt>
      <trkpt lat="47.78643" lon="-2.68649">
        <ele>165.19999694824</ele>
        <time>2025-05-15T13:41:28.000Z</time>
      </trkpt>
      <trkpt lat="47.78645" lon="-2.68655">
        <ele>165.19999694824</ele>
        <time>2025-05-15T13:41:29.000Z</time>
      </trkpt>
      <trkpt lat="47.78647" lon="-2.68661">
        <ele>165.19999694824</ele>
        <time>2025-05-15T13:41:30.000Z</time>
      </trkpt>
      <trkpt lat="47.78649" lon="-2.68674">
        <ele>165.39999389648</ele>
        <time>2025-05-15T13:41:32.000Z</time>
      </trkpt>
      <trkpt lat="47.78656" lon="-2.68706">
        <ele>165.39999389648</ele>
        <time>2025-05-15T13:41:36.000Z</time>
      </trkpt>
      <trkpt lat="47.78659" lon="-2.68713">
        <ele>165.39999389648</ele>
        <time>2025-05-15T13:41:37.000Z</time>
      </trkpt>
      <trkpt lat="47.78662" lon="-2.68719">
        <ele>165.39999389648</ele>
        <time>2025-05-15T13:41:38.000Z</time>
      </trkpt>
      <trkpt lat="47.78664" lon="-2.68727">
        <ele>165.60000610352</ele>
        <time>2025-05-15T13:41:39.000Z</time>
      </trkpt>
      <trkpt lat="47.78666" lon="-2.68733">
        <ele>165.60000610352</ele>
        <time>2025-05-15T13:41:40.000Z</time>
      </trkpt>
      <trkpt lat="47.78669" lon="-2.68742">
        <ele>165.39999389648</ele>
        <time>2025-05-15T13:41:41.000Z</time>
      </trkpt>
      <trkpt lat="47.78675" lon="-2.68756">
        <ele>165.19999694824</ele>
        <time>2025-05-15T13:41:43.000Z</time>
      </trkpt>
      <trkpt lat="47.78677" lon="-2.68773">
        <ele>165</ele>
        <time>2025-05-15T13:41:45.000Z</time>
      </trkpt>
      <trkpt lat="47.78681" lon="-2.68792">
        <ele>164.60000610352</ele>
        <time>2025-05-15T13:41:47.000Z</time>
      </trkpt>
      <trkpt lat="47.78681" lon="-2.68802">
        <ele>164.39999389648</ele>
        <time>2025-05-15T13:41:48.000Z</time>
      </trkpt>
      <trkpt lat="47.78683" lon="-2.68808">
        <ele>164.19999694824</ele>
        <time>2025-05-15T13:41:49.000Z</time>
      </trkpt>
      <trkpt lat="47.78686" lon="-2.68812">
        <ele>164.19999694824</ele>
        <time>2025-05-15T13:41:50.000Z</time>
      </trkpt>
      <trkpt lat="47.78689" lon="-2.68815">
        <ele>163.80000305176</ele>
        <time>2025-05-15T13:41:51.000Z</time>
      </trkpt>
      <trkpt lat="47.78692" lon="-2.68816">
        <ele>163.80000305176</ele>
        <time>2025-05-15T13:41:52.000Z</time>
      </trkpt>
      <trkpt lat="47.78696" lon="-2.68815">
        <ele>163.60000610352</ele>
        <time>2025-05-15T13:41:53.000Z</time>
      </trkpt>
      <trkpt lat="47.78699" lon="-2.68815">
        <ele>163.60000610352</ele>
        <time>2025-05-15T13:41:54.000Z</time>
      </trkpt>
      <trkpt lat="47.78703" lon="-2.68815">
        <ele>163.39999389648</ele>
        <time>2025-05-15T13:41:55.000Z</time>
      </trkpt>
      <trkpt lat="47.78706" lon="-2.68815">
        <ele>163.39999389648</ele>
        <time>2025-05-15T13:41:56.000Z</time>
      </trkpt>
      <trkpt lat="47.78718" lon="-2.68811">
        <ele>163.60000610352</ele>
        <time>2025-05-15T13:42:00.000Z</time>
      </trkpt>
      <trkpt lat="47.78723" lon="-2.6881">
        <ele>164</ele>
        <time>2025-05-15T13:42:01.000Z</time>
      </trkpt>
      <trkpt lat="47.78725" lon="-2.68809">
        <ele>164.80000305176</ele>
        <time>2025-05-15T13:42:02.000Z</time>
      </trkpt>
      <trkpt lat="47.78728" lon="-2.68808">
        <ele>165</ele>
        <time>2025-05-15T13:42:03.000Z</time>
      </trkpt>
      <trkpt lat="47.78732" lon="-2.68807">
        <ele>165.39999389648</ele>
        <time>2025-05-15T13:42:04.000Z</time>
      </trkpt>
      <trkpt lat="47.78738" lon="-2.688">
        <ele>165.80000305176</ele>
        <time>2025-05-15T13:42:06.000Z</time>
      </trkpt>
      <trkpt lat="47.78742" lon="-2.68796">
        <ele>166</ele>
        <time>2025-05-15T13:42:07.000Z</time>
      </trkpt>
      <trkpt lat="47.78745" lon="-2.68792">
        <ele>166.19999694824</ele>
        <time>2025-05-15T13:42:08.000Z</time>
      </trkpt>
      <trkpt lat="47.78752" lon="-2.68786">
        <ele>166.60000610352</ele>
        <time>2025-05-15T13:42:10.000Z</time>
      </trkpt>
      <trkpt lat="47.78755" lon="-2.68783">
        <ele>167</ele>
        <time>2025-05-15T13:42:11.000Z</time>
      </trkpt>
      <trkpt lat="47.78758" lon="-2.68779">
        <ele>167</ele>
        <time>2025-05-15T13:42:12.000Z</time>
      </trkpt>
      <trkpt lat="47.78761" lon="-2.68775">
        <ele>167.19999694824</ele>
        <time>2025-05-15T13:42:13.000Z</time>
      </trkpt>
      <trkpt lat="47.78764" lon="-2.68772">
        <ele>167.39999389648</ele>
        <time>2025-05-15T13:42:14.000Z</time>
      </trkpt>
      <trkpt lat="47.78766" lon="-2.68768">
        <ele>167.80000305176</ele>
        <time>2025-05-15T13:42:15.000Z</time>
      </trkpt>
      <trkpt lat="47.78767" lon="-2.68766">
        <ele>167.80000305176</ele>
        <time>2025-05-15T13:42:16.000Z</time>
      </trkpt>
      <trkpt lat="47.7877" lon="-2.68763">
        <ele>168</ele>
        <time>2025-05-15T13:42:17.000Z</time>
      </trkpt>
      <trkpt lat="47.78772" lon="-2.68762">
        <ele>168.39999389648</ele>
        <time>2025-05-15T13:42:18.000Z</time>
      </trkpt>
      <trkpt lat="47.78775" lon="-2.6876">
        <ele>168.39999389648</ele>
        <time>2025-05-15T13:42:19.000Z</time>
      </trkpt>
      <trkpt lat="47.78779" lon="-2.6876">
        <ele>168.60000610352</ele>
        <time>2025-05-15T13:42:20.000Z</time>
      </trkpt>
      <trkpt lat="47.78783" lon="-2.68762">
        <ele>168.60000610352</ele>
        <time>2025-05-15T13:42:21.000Z</time>
      </trkpt>
      <trkpt lat="47.78784" lon="-2.68764">
        <ele>168.80000305176</ele>
        <time>2025-05-15T13:42:22.000Z</time>
      </trkpt>
      <trkpt lat="47.78786" lon="-2.68768">
        <ele>168.80000305176</ele>
        <time>2025-05-15T13:42:23.000Z</time>
      </trkpt>
      <trkpt lat="47.78786" lon="-2.68775">
        <ele>168.80000305176</ele>
        <time>2025-05-15T13:42:24.000Z</time>
      </trkpt>
      <trkpt lat="47.78787" lon="-2.6878">
        <ele>168.80000305176</ele>
        <time>2025-05-15T13:42:25.000Z</time>
      </trkpt>
      <trkpt lat="47.7879" lon="-2.68787">
        <ele>168.80000305176</ele>
        <time>2025-05-15T13:42:26.000Z</time>
      </trkpt>
      <trkpt lat="47.78791" lon="-2.68793">
        <ele>168.80000305176</ele>
        <time>2025-05-15T13:42:27.000Z</time>
      </trkpt>
      <trkpt lat="47.78792" lon="-2.688">
        <ele>168.80000305176</ele>
        <time>2025-05-15T13:42:28.000Z</time>
      </trkpt>
      <trkpt lat="47.78794" lon="-2.68807">
        <ele>168.60000610352</ele>
        <time>2025-05-15T13:42:29.000Z</time>
      </trkpt>
      <trkpt lat="47.78795" lon="-2.68814">
        <ele>168.60000610352</ele>
        <time>2025-05-15T13:42:30.000Z</time>
      </trkpt>
      <trkpt lat="47.78797" lon="-2.68821">
        <ele>168.60000610352</ele>
        <time>2025-05-15T13:42:31.000Z</time>
      </trkpt>
      <trkpt lat="47.78799" lon="-2.68828">
        <ele>168.39999389648</ele>
        <time>2025-05-15T13:42:32.000Z</time>
      </trkpt>
      <trkpt lat="47.788" lon="-2.68836">
        <ele>168</ele>
        <time>2025-05-15T13:42:33.000Z</time>
      </trkpt>
      <trkpt lat="47.78802" lon="-2.68844">
        <ele>167.19999694824</ele>
        <time>2025-05-15T13:42:34.000Z</time>
      </trkpt>
      <trkpt lat="47.78804" lon="-2.68854">
        <ele>167</ele>
        <time>2025-05-15T13:42:35.000Z</time>
      </trkpt>
      <trkpt lat="47.78806" lon="-2.68863">
        <ele>167</ele>
        <time>2025-05-15T13:42:36.000Z</time>
      </trkpt>
      <trkpt lat="47.78812" lon="-2.68891">
        <ele>166</ele>
        <time>2025-05-15T13:42:39.000Z</time>
      </trkpt>
      <trkpt lat="47.78814" lon="-2.689">
        <ele>166</ele>
        <time>2025-05-15T13:42:40.000Z</time>
      </trkpt>
      <trkpt lat="47.78816" lon="-2.68907">
        <ele>165.80000305176</ele>
        <time>2025-05-15T13:42:41.000Z</time>
      </trkpt>
      <trkpt lat="47.78818" lon="-2.68914">
        <ele>165.80000305176</ele>
        <time>2025-05-15T13:42:42.000Z</time>
      </trkpt>
      <trkpt lat="47.78819" lon="-2.68919">
        <ele>165.80000305176</ele>
        <time>2025-05-15T13:42:43.000Z</time>
      </trkpt>
      <trkpt lat="47.78821" lon="-2.68924">
        <ele>165.60000610352</ele>
        <time>2025-05-15T13:42:44.000Z</time>
      </trkpt>
      <trkpt lat="47.78823" lon="-2.68929">
        <ele>165.60000610352</ele>
        <time>2025-05-15T13:42:45.000Z</time>
      </trkpt>
      <trkpt lat="47.78825" lon="-2.68933">
        <ele>165.39999389648</ele>
        <time>2025-05-15T13:42:46.000Z</time>
      </trkpt>
      <trkpt lat="47.78827" lon="-2.68937">
        <ele>165.39999389648</ele>
        <time>2025-05-15T13:42:47.000Z</time>
      </trkpt>
      <trkpt lat="47.78828" lon="-2.6894">
        <ele>165.60000610352</ele>
        <time>2025-05-15T13:42:48.000Z</time>
      </trkpt>
      <trkpt lat="47.78829" lon="-2.68941">
        <ele>165.80000305176</ele>
        <time>2025-05-15T13:42:49.000Z</time>
      </trkpt>
      <trkpt lat="47.78831" lon="-2.68942">
        <ele>165.80000305176</ele>
        <time>2025-05-15T13:42:50.000Z</time>
      </trkpt>
      <trkpt lat="47.78832" lon="-2.68944">
        <ele>165.80000305176</ele>
        <time>2025-05-15T13:42:51.000Z</time>
      </trkpt>
      <trkpt lat="47.78833" lon="-2.68947">
        <ele>165.80000305176</ele>
        <time>2025-05-15T13:42:52.000Z</time>
      </trkpt>
      <trkpt lat="47.78833" lon="-2.68951">
        <ele>165.80000305176</ele>
        <time>2025-05-15T13:42:53.000Z</time>
      </trkpt>
      <trkpt lat="47.78833" lon="-2.68955">
        <ele>165.80000305176</ele>
        <time>2025-05-15T13:42:54.000Z</time>
      </trkpt>
      <trkpt lat="47.78833" lon="-2.68959">
        <ele>165.80000305176</ele>
        <time>2025-05-15T13:42:55.000Z</time>
      </trkpt>
      <trkpt lat="47.78834" lon="-2.68977">
        <ele>166</ele>
        <time>2025-05-15T13:42:58.000Z</time>
      </trkpt>
      <trkpt lat="47.78838" lon="-2.69009">
        <ele>166</ele>
        <time>2025-05-15T13:43:02.000Z</time>
      </trkpt>
      <trkpt lat="47.7884" lon="-2.69018">
        <ele>166</ele>
        <time>2025-05-15T13:43:03.000Z</time>
      </trkpt>
      <trkpt lat="47.78843" lon="-2.69027">
        <ele>166</ele>
        <time>2025-05-15T13:43:04.000Z</time>
      </trkpt>
      <trkpt lat="47.78859" lon="-2.69067">
        <ele>165.80000305176</ele>
        <time>2025-05-15T13:43:08.000Z</time>
      </trkpt>
      <trkpt lat="47.78863" lon="-2.69076">
        <ele>165.60000610352</ele>
        <time>2025-05-15T13:43:09.000Z</time>
      </trkpt>
      <trkpt lat="47.78867" lon="-2.69086">
        <ele>165.39999389648</ele>
        <time>2025-05-15T13:43:10.000Z</time>
      </trkpt>
      <trkpt lat="47.78871" lon="-2.69106">
        <ele>165.39999389648</ele>
        <time>2025-05-15T13:43:12.000Z</time>
      </trkpt>
      <trkpt lat="47.78872" lon="-2.69117">
        <ele>165.19999694824</ele>
        <time>2025-05-15T13:43:13.000Z</time>
      </trkpt>
      <trkpt lat="47.78872" lon="-2.69128">
        <ele>165</ele>
        <time>2025-05-15T13:43:14.000Z</time>
      </trkpt>
      <trkpt lat="47.78872" lon="-2.69138">
        <ele>165</ele>
        <time>2025-05-15T13:43:15.000Z</time>
      </trkpt>
      <trkpt lat="47.78872" lon="-2.69148">
        <ele>164.80000305176</ele>
        <time>2025-05-15T13:43:16.000Z</time>
      </trkpt>
      <trkpt lat="47.78872" lon="-2.69159">
        <ele>164.80000305176</ele>
        <time>2025-05-15T13:43:17.000Z</time>
      </trkpt>
      <trkpt lat="47.78873" lon="-2.69169">
        <ele>164.80000305176</ele>
        <time>2025-05-15T13:43:18.000Z</time>
      </trkpt>
      <trkpt lat="47.78873" lon="-2.69179">
        <ele>164.80000305176</ele>
        <time>2025-05-15T13:43:19.000Z</time>
      </trkpt>
      <trkpt lat="47.78874" lon="-2.69188">
        <ele>164.80000305176</ele>
        <time>2025-05-15T13:43:20.000Z</time>
      </trkpt>
      <trkpt lat="47.78876" lon="-2.69197">
        <ele>164.80000305176</ele>
        <time>2025-05-15T13:43:21.000Z</time>
      </trkpt>
      <trkpt lat="47.78878" lon="-2.69204">
        <ele>164.80000305176</ele>
        <time>2025-05-15T13:43:22.000Z</time>
      </trkpt>
      <trkpt lat="47.78882" lon="-2.69208">
        <ele>164.80000305176</ele>
        <time>2025-05-15T13:43:23.000Z</time>
      </trkpt>
      <trkpt lat="47.78885" lon="-2.69209">
        <ele>164.80000305176</ele>
        <time>2025-05-15T13:43:24.000Z</time>
      </trkpt>
      <trkpt lat="47.78889" lon="-2.69208">
        <ele>164.80000305176</ele>
        <time>2025-05-15T13:43:25.000Z</time>
      </trkpt>
      <trkpt lat="47.78893" lon="-2.69207">
        <ele>164.80000305176</ele>
        <time>2025-05-15T13:43:26.000Z</time>
      </trkpt>
      <trkpt lat="47.789" lon="-2.69204">
        <ele>165.19999694824</ele>
        <time>2025-05-15T13:43:28.000Z</time>
      </trkpt>
      <trkpt lat="47.78904" lon="-2.69205">
        <ele>165.39999389648</ele>
        <time>2025-05-15T13:43:29.000Z</time>
      </trkpt>
      <trkpt lat="47.78907" lon="-2.69209">
        <ele>165.80000305176</ele>
        <time>2025-05-15T13:43:30.000Z</time>
      </trkpt>
      <trkpt lat="47.7891" lon="-2.69213">
        <ele>165.80000305176</ele>
        <time>2025-05-15T13:43:31.000Z</time>
      </trkpt>
      <trkpt lat="47.78911" lon="-2.69218">
        <ele>166</ele>
        <time>2025-05-15T13:43:32.000Z</time>
      </trkpt>
      <trkpt lat="47.78911" lon="-2.69221">
        <ele>166</ele>
        <time>2025-05-15T13:43:33.000Z</time>
      </trkpt>
      <trkpt lat="47.7891" lon="-2.69224">
        <ele>166.19999694824</ele>
        <time>2025-05-15T13:43:34.000Z</time>
      </trkpt>
      <trkpt lat="47.7891" lon="-2.69225">
        <ele>166.39999389648</ele>
        <time>2025-05-15T13:43:35.000Z</time>
      </trkpt>
    </trkseg>
  </trk>
</gpx>